<?xml version="1.0" encoding="UTF-8" standalone="no" ?>
<gpx xmlns="http://www.topografix.com/GPX/1/1" xmlns:xsi="http://www.w3.org/2001/XMLSchema-instance" xsi:schemaLocation="http://www.topografix.com/GPX/1/1 http://www.topografix.com/GPX/1/1/gpx.xsd" version="1.1" creator="VisuGPX - https://www.visugpx.com">
  <metadata>
    <name>Col de Roméîou</name>
    <desc><![CDATA[Au départ de la cascade de Cofolens. En boucle]]></desc>
  </metadata>
  <trk>
    <name><![CDATA[Le Périer Course à pied]]></name>
    <trkseg>
      <trkpt lat="44.94019" lon="5.99543">
        <ele>1152.4000244141</ele>
        <time>2015-08-20T04:43:26.000Z</time>
      </trkpt>
      <trkpt lat="44.94015" lon="5.99545">
        <ele>1153.1999511719</ele>
        <time>2015-08-20T04:43:31.000Z</time>
      </trkpt>
      <trkpt lat="44.94014" lon="5.99547">
        <ele>1153.1999511719</ele>
        <time>2015-08-20T04:43:32.000Z</time>
      </trkpt>
      <trkpt lat="44.94012" lon="5.99549">
        <ele>1153.1999511719</ele>
        <time>2015-08-20T04:43:33.000Z</time>
      </trkpt>
      <trkpt lat="44.94008" lon="5.99552">
        <ele>1153.8000488281</ele>
        <time>2015-08-20T04:43:36.000Z</time>
      </trkpt>
      <trkpt lat="44.94006" lon="5.99556">
        <ele>1153.4000244141</ele>
        <time>2015-08-20T04:43:39.000Z</time>
      </trkpt>
      <trkpt lat="44.94004" lon="5.9956">
        <ele>1153.8000488281</ele>
        <time>2015-08-20T04:43:42.000Z</time>
      </trkpt>
      <trkpt lat="44.93999" lon="5.99568">
        <ele>1157</ele>
        <time>2015-08-20T04:43:48.000Z</time>
      </trkpt>
      <trkpt lat="44.93996" lon="5.9957">
        <ele>1158.4000244141</ele>
        <time>2015-08-20T04:43:50.000Z</time>
      </trkpt>
      <trkpt lat="44.93988" lon="5.99577">
        <ele>1163</ele>
        <time>2015-08-20T04:43:57.000Z</time>
      </trkpt>
      <trkpt lat="44.93995" lon="5.99577">
        <ele>1160.1999511719</ele>
        <time>2015-08-20T04:44:08.000Z</time>
      </trkpt>
      <trkpt lat="44.94002" lon="5.99563">
        <ele>1155</ele>
        <time>2015-08-20T04:44:14.000Z</time>
      </trkpt>
      <trkpt lat="44.94006" lon="5.99557">
        <ele>1153</ele>
        <time>2015-08-20T04:44:16.000Z</time>
      </trkpt>
      <trkpt lat="44.94012" lon="5.99547">
        <ele>1154</ele>
        <time>2015-08-20T04:44:19.000Z</time>
      </trkpt>
      <trkpt lat="44.94017" lon="5.99536">
        <ele>1155.5999755859</ele>
        <time>2015-08-20T04:44:22.000Z</time>
      </trkpt>
      <trkpt lat="44.94017" lon="5.99532">
        <ele>1155.8000488281</ele>
        <time>2015-08-20T04:44:23.000Z</time>
      </trkpt>
      <trkpt lat="44.94023" lon="5.99514">
        <ele>1153</ele>
        <time>2015-08-20T04:44:28.000Z</time>
      </trkpt>
      <trkpt lat="44.94023" lon="5.99498">
        <ele>1153.8000488281</ele>
        <time>2015-08-20T04:44:33.000Z</time>
      </trkpt>
      <trkpt lat="44.94023" lon="5.99498">
        <ele>1153.8000488281</ele>
        <time>2015-08-20T04:44:37.000Z</time>
      </trkpt>
      <trkpt lat="44.94024" lon="5.99505">
        <ele>1153</ele>
        <time>2015-08-20T04:44:41.000Z</time>
      </trkpt>
      <trkpt lat="44.94025" lon="5.9951">
        <ele>1151.5999755859</ele>
        <time>2015-08-20T04:44:44.000Z</time>
      </trkpt>
      <trkpt lat="44.94024" lon="5.99514">
        <ele>1152.5999755859</ele>
        <time>2015-08-20T04:44:48.000Z</time>
      </trkpt>
      <trkpt lat="44.94022" lon="5.99513">
        <ele>1154</ele>
        <time>2015-08-20T04:44:49.000Z</time>
      </trkpt>
      <trkpt lat="44.94018" lon="5.99507">
        <ele>1156.8000488281</ele>
        <time>2015-08-20T04:44:54.000Z</time>
      </trkpt>
      <trkpt lat="44.94014" lon="5.99498">
        <ele>1160</ele>
        <time>2015-08-20T04:44:59.000Z</time>
      </trkpt>
      <trkpt lat="44.94011" lon="5.99488">
        <ele>1163.1999511719</ele>
        <time>2015-08-20T04:45:05.000Z</time>
      </trkpt>
      <trkpt lat="44.9401" lon="5.99486">
        <ele>1163.8000488281</ele>
        <time>2015-08-20T04:45:06.000Z</time>
      </trkpt>
      <trkpt lat="44.94005" lon="5.99477">
        <ele>1167.4000244141</ele>
        <time>2015-08-20T04:45:13.000Z</time>
      </trkpt>
      <trkpt lat="44.94002" lon="5.99471">
        <ele>1170.4000244141</ele>
        <time>2015-08-20T04:45:18.000Z</time>
      </trkpt>
      <trkpt lat="44.94" lon="5.99468">
        <ele>1171.5999755859</ele>
        <time>2015-08-20T04:45:21.000Z</time>
      </trkpt>
      <trkpt lat="44.94" lon="5.99473">
        <ele>1171.5999755859</ele>
        <time>2015-08-20T04:45:25.000Z</time>
      </trkpt>
      <trkpt lat="44.94" lon="5.99476">
        <ele>1171.5999755859</ele>
        <time>2015-08-20T04:45:27.000Z</time>
      </trkpt>
      <trkpt lat="44.94" lon="5.99481">
        <ele>1171.1999511719</ele>
        <time>2015-08-20T04:45:32.000Z</time>
      </trkpt>
      <trkpt lat="44.94" lon="5.99486">
        <ele>1170.4000244141</ele>
        <time>2015-08-20T04:45:36.000Z</time>
      </trkpt>
      <trkpt lat="44.94001" lon="5.99488">
        <ele>1170</ele>
        <time>2015-08-20T04:45:37.000Z</time>
      </trkpt>
      <trkpt lat="44.94" lon="5.9949">
        <ele>1170.5999755859</ele>
        <time>2015-08-20T04:45:40.000Z</time>
      </trkpt>
      <trkpt lat="44.93997" lon="5.99493">
        <ele>1172.1999511719</ele>
        <time>2015-08-20T04:45:44.000Z</time>
      </trkpt>
      <trkpt lat="44.93996" lon="5.99496">
        <ele>1173</ele>
        <time>2015-08-20T04:45:46.000Z</time>
      </trkpt>
      <trkpt lat="44.93996" lon="5.99498">
        <ele>1172.8000488281</ele>
        <time>2015-08-20T04:45:49.000Z</time>
      </trkpt>
      <trkpt lat="44.93995" lon="5.99502">
        <ele>1173.4000244141</ele>
        <time>2015-08-20T04:45:53.000Z</time>
      </trkpt>
      <trkpt lat="44.93993" lon="5.99505">
        <ele>1174</ele>
        <time>2015-08-20T04:45:57.000Z</time>
      </trkpt>
      <trkpt lat="44.93993" lon="5.99507">
        <ele>1174.1999511719</ele>
        <time>2015-08-20T04:45:59.000Z</time>
      </trkpt>
      <trkpt lat="44.93992" lon="5.99511">
        <ele>1174.4000244141</ele>
        <time>2015-08-20T04:46:03.000Z</time>
      </trkpt>
      <trkpt lat="44.93991" lon="5.99512">
        <ele>1174.1999511719</ele>
        <time>2015-08-20T04:46:05.000Z</time>
      </trkpt>
      <trkpt lat="44.93989" lon="5.99515">
        <ele>1174.4000244141</ele>
        <time>2015-08-20T04:46:10.000Z</time>
      </trkpt>
      <trkpt lat="44.93986" lon="5.99519">
        <ele>1174.4000244141</ele>
        <time>2015-08-20T04:46:16.000Z</time>
      </trkpt>
      <trkpt lat="44.93985" lon="5.99519">
        <ele>1175</ele>
        <time>2015-08-20T04:46:17.000Z</time>
      </trkpt>
      <trkpt lat="44.93981" lon="5.99522">
        <ele>1175.1999511719</ele>
        <time>2015-08-20T04:46:21.000Z</time>
      </trkpt>
      <trkpt lat="44.9398" lon="5.99523">
        <ele>1175.4000244141</ele>
        <time>2015-08-20T04:46:22.000Z</time>
      </trkpt>
      <trkpt lat="44.93975" lon="5.99527">
        <ele>1176.1999511719</ele>
        <time>2015-08-20T04:46:27.000Z</time>
      </trkpt>
      <trkpt lat="44.93972" lon="5.99529">
        <ele>1176.5999755859</ele>
        <time>2015-08-20T04:46:31.000Z</time>
      </trkpt>
      <trkpt lat="44.93973" lon="5.99531">
        <ele>1175.4000244141</ele>
        <time>2015-08-20T04:46:36.000Z</time>
      </trkpt>
      <trkpt lat="44.93975" lon="5.99532">
        <ele>1174.5999755859</ele>
        <time>2015-08-20T04:46:37.000Z</time>
      </trkpt>
      <trkpt lat="44.93973" lon="5.99532">
        <ele>1175.1999511719</ele>
        <time>2015-08-20T04:46:39.000Z</time>
      </trkpt>
      <trkpt lat="44.93969" lon="5.99533">
        <ele>1176.4000244141</ele>
        <time>2015-08-20T04:46:41.000Z</time>
      </trkpt>
      <trkpt lat="44.93963" lon="5.99538">
        <ele>1177.5999755859</ele>
        <time>2015-08-20T04:46:45.000Z</time>
      </trkpt>
      <trkpt lat="44.9396" lon="5.99538">
        <ele>1178.4000244141</ele>
        <time>2015-08-20T04:46:47.000Z</time>
      </trkpt>
      <trkpt lat="44.9396" lon="5.9954">
        <ele>1178.1999511719</ele>
        <time>2015-08-20T04:46:52.000Z</time>
      </trkpt>
      <trkpt lat="44.93961" lon="5.99535">
        <ele>1179.5999755859</ele>
        <time>2015-08-20T04:46:55.000Z</time>
      </trkpt>
      <trkpt lat="44.93961" lon="5.99533">
        <ele>1180.1999511719</ele>
        <time>2015-08-20T04:46:56.000Z</time>
      </trkpt>
      <trkpt lat="44.9396" lon="5.99531">
        <ele>1181</ele>
        <time>2015-08-20T04:46:57.000Z</time>
      </trkpt>
      <trkpt lat="44.93959" lon="5.99527">
        <ele>1182.8000488281</ele>
        <time>2015-08-20T04:47:00.000Z</time>
      </trkpt>
      <trkpt lat="44.93959" lon="5.99521">
        <ele>1184.5999755859</ele>
        <time>2015-08-20T04:47:04.000Z</time>
      </trkpt>
      <trkpt lat="44.93959" lon="5.9952">
        <ele>1185.4000244141</ele>
        <time>2015-08-20T04:47:05.000Z</time>
      </trkpt>
      <trkpt lat="44.93959" lon="5.99514">
        <ele>1187</ele>
        <time>2015-08-20T04:47:09.000Z</time>
      </trkpt>
      <trkpt lat="44.93959" lon="5.99513">
        <ele>1187.5999755859</ele>
        <time>2015-08-20T04:47:10.000Z</time>
      </trkpt>
      <trkpt lat="44.9396" lon="5.99509">
        <ele>1188.1999511719</ele>
        <time>2015-08-20T04:47:14.000Z</time>
      </trkpt>
      <trkpt lat="44.93961" lon="5.99508">
        <ele>1188.4000244141</ele>
        <time>2015-08-20T04:47:15.000Z</time>
      </trkpt>
      <trkpt lat="44.93961" lon="5.99506">
        <ele>1189.1999511719</ele>
        <time>2015-08-20T04:47:18.000Z</time>
      </trkpt>
      <trkpt lat="44.93961" lon="5.99503">
        <ele>1190.1999511719</ele>
        <time>2015-08-20T04:47:19.000Z</time>
      </trkpt>
      <trkpt lat="44.93961" lon="5.99501">
        <ele>1191</ele>
        <time>2015-08-20T04:47:21.000Z</time>
      </trkpt>
      <trkpt lat="44.93961" lon="5.99498">
        <ele>1191.5999755859</ele>
        <time>2015-08-20T04:47:25.000Z</time>
      </trkpt>
      <trkpt lat="44.9396" lon="5.99496">
        <ele>1192.8000488281</ele>
        <time>2015-08-20T04:47:26.000Z</time>
      </trkpt>
      <trkpt lat="44.93957" lon="5.99493">
        <ele>1195</ele>
        <time>2015-08-20T04:47:29.000Z</time>
      </trkpt>
      <trkpt lat="44.93952" lon="5.99487">
        <ele>1200.5999755859</ele>
        <time>2015-08-20T04:47:35.000Z</time>
      </trkpt>
      <trkpt lat="44.93949" lon="5.99483">
        <ele>1203.8000488281</ele>
        <time>2015-08-20T04:47:41.000Z</time>
      </trkpt>
      <trkpt lat="44.93946" lon="5.99481">
        <ele>1206</ele>
        <time>2015-08-20T04:47:46.000Z</time>
      </trkpt>
      <trkpt lat="44.93948" lon="5.99488">
        <ele>1202.5999755859</ele>
        <time>2015-08-20T04:47:52.000Z</time>
      </trkpt>
      <trkpt lat="44.93949" lon="5.99493">
        <ele>1200.5999755859</ele>
        <time>2015-08-20T04:47:56.000Z</time>
      </trkpt>
      <trkpt lat="44.93948" lon="5.99494">
        <ele>1200.4000244141</ele>
        <time>2015-08-20T04:47:58.000Z</time>
      </trkpt>
      <trkpt lat="44.93943" lon="5.99491">
        <ele>1204.8000488281</ele>
        <time>2015-08-20T04:48:04.000Z</time>
      </trkpt>
      <trkpt lat="44.93942" lon="5.9949">
        <ele>1205.5999755859</ele>
        <time>2015-08-20T04:48:05.000Z</time>
      </trkpt>
      <trkpt lat="44.93941" lon="5.99487">
        <ele>1207.4000244141</ele>
        <time>2015-08-20T04:48:07.000Z</time>
      </trkpt>
      <trkpt lat="44.9394" lon="5.99487">
        <ele>1208</ele>
        <time>2015-08-20T04:48:08.000Z</time>
      </trkpt>
      <trkpt lat="44.93939" lon="5.99486">
        <ele>1208.8000488281</ele>
        <time>2015-08-20T04:48:09.000Z</time>
      </trkpt>
      <trkpt lat="44.93936" lon="5.99483">
        <ele>1211.8000488281</ele>
        <time>2015-08-20T04:48:12.000Z</time>
      </trkpt>
      <trkpt lat="44.93934" lon="5.9948">
        <ele>1214.1999511719</ele>
        <time>2015-08-20T04:48:16.000Z</time>
      </trkpt>
      <trkpt lat="44.93932" lon="5.99478">
        <ele>1215.8000488281</ele>
        <time>2015-08-20T04:48:18.000Z</time>
      </trkpt>
      <trkpt lat="44.93931" lon="5.99477">
        <ele>1217.1999511719</ele>
        <time>2015-08-20T04:48:20.000Z</time>
      </trkpt>
      <trkpt lat="44.93926" lon="5.99475">
        <ele>1220.4000244141</ele>
        <time>2015-08-20T04:48:25.000Z</time>
      </trkpt>
      <trkpt lat="44.93925" lon="5.99476">
        <ele>1221.1999511719</ele>
        <time>2015-08-20T04:48:30.000Z</time>
      </trkpt>
      <trkpt lat="44.93927" lon="5.99481">
        <ele>1218</ele>
        <time>2015-08-20T04:48:35.000Z</time>
      </trkpt>
      <trkpt lat="44.93926" lon="5.99485">
        <ele>1217.5999755859</ele>
        <time>2015-08-20T04:48:39.000Z</time>
      </trkpt>
      <trkpt lat="44.93923" lon="5.99489">
        <ele>1218.1999511719</ele>
        <time>2015-08-20T04:48:44.000Z</time>
      </trkpt>
      <trkpt lat="44.93921" lon="5.99492">
        <ele>1218.4000244141</ele>
        <time>2015-08-20T04:48:47.000Z</time>
      </trkpt>
      <trkpt lat="44.93921" lon="5.99495">
        <ele>1217.4000244141</ele>
        <time>2015-08-20T04:48:50.000Z</time>
      </trkpt>
      <trkpt lat="44.93918" lon="5.99503">
        <ele>1216.4000244141</ele>
        <time>2015-08-20T04:48:55.000Z</time>
      </trkpt>
      <trkpt lat="44.93916" lon="5.9951">
        <ele>1215.8000488281</ele>
        <time>2015-08-20T04:49:00.000Z</time>
      </trkpt>
      <trkpt lat="44.93911" lon="5.99515">
        <ele>1217</ele>
        <time>2015-08-20T04:49:06.000Z</time>
      </trkpt>
      <trkpt lat="44.93911" lon="5.99516">
        <ele>1216.8000488281</ele>
        <time>2015-08-20T04:49:07.000Z</time>
      </trkpt>
      <trkpt lat="44.9391" lon="5.99513">
        <ele>1218.4000244141</ele>
        <time>2015-08-20T04:49:10.000Z</time>
      </trkpt>
      <trkpt lat="44.93908" lon="5.99508">
        <ele>1221.1999511719</ele>
        <time>2015-08-20T04:49:15.000Z</time>
      </trkpt>
      <trkpt lat="44.93907" lon="5.99506">
        <ele>1222.5999755859</ele>
        <time>2015-08-20T04:49:16.000Z</time>
      </trkpt>
      <trkpt lat="44.93906" lon="5.99498">
        <ele>1225.8000488281</ele>
        <time>2015-08-20T04:49:21.000Z</time>
      </trkpt>
      <trkpt lat="44.93904" lon="5.99494">
        <ele>1228.5999755859</ele>
        <time>2015-08-20T04:49:25.000Z</time>
      </trkpt>
      <trkpt lat="44.93904" lon="5.99491">
        <ele>1229.8000488281</ele>
        <time>2015-08-20T04:49:27.000Z</time>
      </trkpt>
      <trkpt lat="44.93901" lon="5.99481">
        <ele>1235</ele>
        <time>2015-08-20T04:49:33.000Z</time>
      </trkpt>
      <trkpt lat="44.939" lon="5.99478">
        <ele>1236.4000244141</ele>
        <time>2015-08-20T04:49:35.000Z</time>
      </trkpt>
      <trkpt lat="44.93901" lon="5.99476">
        <ele>1236.5999755859</ele>
        <time>2015-08-20T04:49:38.000Z</time>
      </trkpt>
      <trkpt lat="44.93899" lon="5.99479">
        <ele>1236.4000244141</ele>
        <time>2015-08-20T04:49:41.000Z</time>
      </trkpt>
      <trkpt lat="44.93899" lon="5.99482">
        <ele>1236</ele>
        <time>2015-08-20T04:49:44.000Z</time>
      </trkpt>
      <trkpt lat="44.93898" lon="5.99488">
        <ele>1234.5999755859</ele>
        <time>2015-08-20T04:49:48.000Z</time>
      </trkpt>
      <trkpt lat="44.93898" lon="5.9949">
        <ele>1233.5999755859</ele>
        <time>2015-08-20T04:49:50.000Z</time>
      </trkpt>
      <trkpt lat="44.93898" lon="5.99497">
        <ele>1231.5999755859</ele>
        <time>2015-08-20T04:49:55.000Z</time>
      </trkpt>
      <trkpt lat="44.93897" lon="5.99496">
        <ele>1232</ele>
        <time>2015-08-20T04:49:56.000Z</time>
      </trkpt>
      <trkpt lat="44.93897" lon="5.99499">
        <ele>1231.4000244141</ele>
        <time>2015-08-20T04:49:58.000Z</time>
      </trkpt>
      <trkpt lat="44.93895" lon="5.99501">
        <ele>1232.1999511719</ele>
        <time>2015-08-20T04:50:01.000Z</time>
      </trkpt>
      <trkpt lat="44.93894" lon="5.99502">
        <ele>1232.8000488281</ele>
        <time>2015-08-20T04:50:02.000Z</time>
      </trkpt>
      <trkpt lat="44.93885" lon="5.99504">
        <ele>1238.5999755859</ele>
        <time>2015-08-20T04:50:07.000Z</time>
      </trkpt>
      <trkpt lat="44.93881" lon="5.99503">
        <ele>1241.1999511719</ele>
        <time>2015-08-20T04:50:09.000Z</time>
      </trkpt>
      <trkpt lat="44.93883" lon="5.99499">
        <ele>1241</ele>
        <time>2015-08-20T04:50:12.000Z</time>
      </trkpt>
      <trkpt lat="44.93883" lon="5.99499">
        <ele>1241.1999511719</ele>
        <time>2015-08-20T04:50:13.000Z</time>
      </trkpt>
      <trkpt lat="44.93883" lon="5.99496">
        <ele>1241.8000488281</ele>
        <time>2015-08-20T04:50:15.000Z</time>
      </trkpt>
      <trkpt lat="44.93884" lon="5.99494">
        <ele>1242.1999511719</ele>
        <time>2015-08-20T04:50:17.000Z</time>
      </trkpt>
      <trkpt lat="44.93883" lon="5.99489">
        <ele>1243.5999755859</ele>
        <time>2015-08-20T04:50:20.000Z</time>
      </trkpt>
      <trkpt lat="44.93882" lon="5.99484">
        <ele>1245.4000244141</ele>
        <time>2015-08-20T04:50:23.000Z</time>
      </trkpt>
      <trkpt lat="44.93882" lon="5.9948">
        <ele>1247.4000244141</ele>
        <time>2015-08-20T04:50:26.000Z</time>
      </trkpt>
      <trkpt lat="44.93881" lon="5.99477">
        <ele>1249.1999511719</ele>
        <time>2015-08-20T04:50:29.000Z</time>
      </trkpt>
      <trkpt lat="44.9388" lon="5.99472">
        <ele>1250.4000244141</ele>
        <time>2015-08-20T04:50:32.000Z</time>
      </trkpt>
      <trkpt lat="44.93881" lon="5.9947">
        <ele>1250</ele>
        <time>2015-08-20T04:50:34.000Z</time>
      </trkpt>
      <trkpt lat="44.93881" lon="5.99469">
        <ele>1249.8000488281</ele>
        <time>2015-08-20T04:50:35.000Z</time>
      </trkpt>
      <trkpt lat="44.93881" lon="5.99463">
        <ele>1250.5999755859</ele>
        <time>2015-08-20T04:50:41.000Z</time>
      </trkpt>
      <trkpt lat="44.93878" lon="5.99457">
        <ele>1253.1999511719</ele>
        <time>2015-08-20T04:50:49.000Z</time>
      </trkpt>
      <trkpt lat="44.93872" lon="5.99452">
        <ele>1256.8000488281</ele>
        <time>2015-08-20T04:50:53.000Z</time>
      </trkpt>
      <trkpt lat="44.93872" lon="5.99451">
        <ele>1257</ele>
        <time>2015-08-20T04:50:55.000Z</time>
      </trkpt>
      <trkpt lat="44.93871" lon="5.99447">
        <ele>1258</ele>
        <time>2015-08-20T04:50:58.000Z</time>
      </trkpt>
      <trkpt lat="44.9387" lon="5.99445">
        <ele>1258.4000244141</ele>
        <time>2015-08-20T04:50:59.000Z</time>
      </trkpt>
      <trkpt lat="44.93869" lon="5.9944">
        <ele>1259.5999755859</ele>
        <time>2015-08-20T04:51:04.000Z</time>
      </trkpt>
      <trkpt lat="44.93869" lon="5.99444">
        <ele>1259.1999511719</ele>
        <time>2015-08-20T04:51:10.000Z</time>
      </trkpt>
      <trkpt lat="44.93868" lon="5.9945">
        <ele>1259</ele>
        <time>2015-08-20T04:51:16.000Z</time>
      </trkpt>
      <trkpt lat="44.9387" lon="5.99457">
        <ele>1257.5999755859</ele>
        <time>2015-08-20T04:51:21.000Z</time>
      </trkpt>
      <trkpt lat="44.93869" lon="5.99458">
        <ele>1258</ele>
        <time>2015-08-20T04:51:22.000Z</time>
      </trkpt>
      <trkpt lat="44.9387" lon="5.9946">
        <ele>1257.1999511719</ele>
        <time>2015-08-20T04:51:25.000Z</time>
      </trkpt>
      <trkpt lat="44.93868" lon="5.99463">
        <ele>1258.1999511719</ele>
        <time>2015-08-20T04:51:27.000Z</time>
      </trkpt>
      <trkpt lat="44.93867" lon="5.99467">
        <ele>1258.1999511719</ele>
        <time>2015-08-20T04:51:30.000Z</time>
      </trkpt>
      <trkpt lat="44.93864" lon="5.99469">
        <ele>1260.1999511719</ele>
        <time>2015-08-20T04:51:34.000Z</time>
      </trkpt>
      <trkpt lat="44.93862" lon="5.99471">
        <ele>1261.4000244141</ele>
        <time>2015-08-20T04:51:39.000Z</time>
      </trkpt>
      <trkpt lat="44.93859" lon="5.99472">
        <ele>1263.4000244141</ele>
        <time>2015-08-20T04:51:43.000Z</time>
      </trkpt>
      <trkpt lat="44.93856" lon="5.99474">
        <ele>1265.4000244141</ele>
        <time>2015-08-20T04:51:47.000Z</time>
      </trkpt>
      <trkpt lat="44.93854" lon="5.99473">
        <ele>1266.8000488281</ele>
        <time>2015-08-20T04:51:53.000Z</time>
      </trkpt>
      <trkpt lat="44.93851" lon="5.99469">
        <ele>1268.1999511719</ele>
        <time>2015-08-20T04:51:58.000Z</time>
      </trkpt>
      <trkpt lat="44.93851" lon="5.99465">
        <ele>1268.1999511719</ele>
        <time>2015-08-20T04:52:04.000Z</time>
      </trkpt>
      <trkpt lat="44.93851" lon="5.99459">
        <ele>1267.8000488281</ele>
        <time>2015-08-20T04:52:08.000Z</time>
      </trkpt>
      <trkpt lat="44.93849" lon="5.99455">
        <ele>1268.4000244141</ele>
        <time>2015-08-20T04:52:13.000Z</time>
      </trkpt>
      <trkpt lat="44.93848" lon="5.99452">
        <ele>1269.1999511719</ele>
        <time>2015-08-20T04:52:17.000Z</time>
      </trkpt>
      <trkpt lat="44.93845" lon="5.99443">
        <ele>1271.1999511719</ele>
        <time>2015-08-20T04:52:23.000Z</time>
      </trkpt>
      <trkpt lat="44.93841" lon="5.99436">
        <ele>1273.5999755859</ele>
        <time>2015-08-20T04:52:28.000Z</time>
      </trkpt>
      <trkpt lat="44.93841" lon="5.99433">
        <ele>1273.8000488281</ele>
        <time>2015-08-20T04:52:31.000Z</time>
      </trkpt>
      <trkpt lat="44.93841" lon="5.9943">
        <ele>1273.8000488281</ele>
        <time>2015-08-20T04:52:33.000Z</time>
      </trkpt>
      <trkpt lat="44.93841" lon="5.99428">
        <ele>1274.4000244141</ele>
        <time>2015-08-20T04:52:35.000Z</time>
      </trkpt>
      <trkpt lat="44.9384" lon="5.99427">
        <ele>1274.5999755859</ele>
        <time>2015-08-20T04:52:38.000Z</time>
      </trkpt>
      <trkpt lat="44.93838" lon="5.99429">
        <ele>1275.5999755859</ele>
        <time>2015-08-20T04:52:46.000Z</time>
      </trkpt>
      <trkpt lat="44.93836" lon="5.9943">
        <ele>1276.4000244141</ele>
        <time>2015-08-20T04:52:51.000Z</time>
      </trkpt>
      <trkpt lat="44.93835" lon="5.99433">
        <ele>1276.8000488281</ele>
        <time>2015-08-20T04:52:57.000Z</time>
      </trkpt>
      <trkpt lat="44.93832" lon="5.99435">
        <ele>1278.1999511719</ele>
        <time>2015-08-20T04:53:02.000Z</time>
      </trkpt>
      <trkpt lat="44.93831" lon="5.99441">
        <ele>1279.1999511719</ele>
        <time>2015-08-20T04:53:07.000Z</time>
      </trkpt>
      <trkpt lat="44.93828" lon="5.99446">
        <ele>1281.4000244141</ele>
        <time>2015-08-20T04:53:12.000Z</time>
      </trkpt>
      <trkpt lat="44.93826" lon="5.9945">
        <ele>1282.8000488281</ele>
        <time>2015-08-20T04:53:16.000Z</time>
      </trkpt>
      <trkpt lat="44.93824" lon="5.99457">
        <ele>1285</ele>
        <time>2015-08-20T04:53:22.000Z</time>
      </trkpt>
      <trkpt lat="44.93819" lon="5.99463">
        <ele>1288.5999755859</ele>
        <time>2015-08-20T04:53:28.000Z</time>
      </trkpt>
      <trkpt lat="44.93813" lon="5.99466">
        <ele>1292.1999511719</ele>
        <time>2015-08-20T04:53:34.000Z</time>
      </trkpt>
      <trkpt lat="44.93809" lon="5.99468">
        <ele>1295</ele>
        <time>2015-08-20T04:53:38.000Z</time>
      </trkpt>
      <trkpt lat="44.93808" lon="5.99469">
        <ele>1295.4000244141</ele>
        <time>2015-08-20T04:53:39.000Z</time>
      </trkpt>
      <trkpt lat="44.93806" lon="5.99473">
        <ele>1297.1999511719</ele>
        <time>2015-08-20T04:53:43.000Z</time>
      </trkpt>
      <trkpt lat="44.93806" lon="5.99474">
        <ele>1297.1999511719</ele>
        <time>2015-08-20T04:53:44.000Z</time>
      </trkpt>
      <trkpt lat="44.93804" lon="5.99476">
        <ele>1298.5999755859</ele>
        <time>2015-08-20T04:53:47.000Z</time>
      </trkpt>
      <trkpt lat="44.93802" lon="5.99476">
        <ele>1299.1999511719</ele>
        <time>2015-08-20T04:53:48.000Z</time>
      </trkpt>
      <trkpt lat="44.938" lon="5.99476">
        <ele>1300.5999755859</ele>
        <time>2015-08-20T04:53:50.000Z</time>
      </trkpt>
      <trkpt lat="44.93798" lon="5.99476">
        <ele>1302.1999511719</ele>
        <time>2015-08-20T04:53:53.000Z</time>
      </trkpt>
      <trkpt lat="44.93796" lon="5.99477">
        <ele>1302.8000488281</ele>
        <time>2015-08-20T04:53:56.000Z</time>
      </trkpt>
      <trkpt lat="44.93796" lon="5.99472">
        <ele>1303.4000244141</ele>
        <time>2015-08-20T04:54:36.000Z</time>
      </trkpt>
      <trkpt lat="44.93795" lon="5.99462">
        <ele>1303.5999755859</ele>
        <time>2015-08-20T04:54:44.000Z</time>
      </trkpt>
      <trkpt lat="44.93795" lon="5.99461">
        <ele>1303.5999755859</ele>
        <time>2015-08-20T04:54:45.000Z</time>
      </trkpt>
      <trkpt lat="44.93796" lon="5.99458">
        <ele>1302.8000488281</ele>
        <time>2015-08-20T04:54:48.000Z</time>
      </trkpt>
      <trkpt lat="44.93796" lon="5.99455">
        <ele>1302.4000244141</ele>
        <time>2015-08-20T04:54:51.000Z</time>
      </trkpt>
      <trkpt lat="44.93796" lon="5.99454">
        <ele>1302.1999511719</ele>
        <time>2015-08-20T04:54:52.000Z</time>
      </trkpt>
      <trkpt lat="44.93796" lon="5.99452">
        <ele>1302.1999511719</ele>
        <time>2015-08-20T04:54:53.000Z</time>
      </trkpt>
      <trkpt lat="44.93796" lon="5.99447">
        <ele>1301.5999755859</ele>
        <time>2015-08-20T04:54:57.000Z</time>
      </trkpt>
      <trkpt lat="44.93796" lon="5.99446">
        <ele>1301.5999755859</ele>
        <time>2015-08-20T04:54:58.000Z</time>
      </trkpt>
      <trkpt lat="44.93796" lon="5.99438">
        <ele>1301.5999755859</ele>
        <time>2015-08-20T04:55:06.000Z</time>
      </trkpt>
      <trkpt lat="44.93794" lon="5.99432">
        <ele>1302.1999511719</ele>
        <time>2015-08-20T04:55:11.000Z</time>
      </trkpt>
      <trkpt lat="44.93793" lon="5.99431">
        <ele>1303</ele>
        <time>2015-08-20T04:55:13.000Z</time>
      </trkpt>
      <trkpt lat="44.93789" lon="5.99428">
        <ele>1304.8000488281</ele>
        <time>2015-08-20T04:55:18.000Z</time>
      </trkpt>
      <trkpt lat="44.93787" lon="5.99426">
        <ele>1306</ele>
        <time>2015-08-20T04:55:21.000Z</time>
      </trkpt>
      <trkpt lat="44.93785" lon="5.99423">
        <ele>1307.4000244141</ele>
        <time>2015-08-20T04:55:25.000Z</time>
      </trkpt>
      <trkpt lat="44.93782" lon="5.99421">
        <ele>1308.8000488281</ele>
        <time>2015-08-20T04:55:28.000Z</time>
      </trkpt>
      <trkpt lat="44.93781" lon="5.9942">
        <ele>1309.5999755859</ele>
        <time>2015-08-20T04:55:30.000Z</time>
      </trkpt>
      <trkpt lat="44.93779" lon="5.99419">
        <ele>1310.5999755859</ele>
        <time>2015-08-20T04:55:32.000Z</time>
      </trkpt>
      <trkpt lat="44.93776" lon="5.99418">
        <ele>1312</ele>
        <time>2015-08-20T04:55:35.000Z</time>
      </trkpt>
      <trkpt lat="44.93774" lon="5.99417">
        <ele>1313.5999755859</ele>
        <time>2015-08-20T04:55:38.000Z</time>
      </trkpt>
      <trkpt lat="44.93772" lon="5.99417">
        <ele>1315</ele>
        <time>2015-08-20T04:55:40.000Z</time>
      </trkpt>
      <trkpt lat="44.93768" lon="5.99413">
        <ele>1317</ele>
        <time>2015-08-20T04:55:45.000Z</time>
      </trkpt>
      <trkpt lat="44.93767" lon="5.99412">
        <ele>1317.5999755859</ele>
        <time>2015-08-20T04:55:46.000Z</time>
      </trkpt>
      <trkpt lat="44.93762" lon="5.99411">
        <ele>1320.5999755859</ele>
        <time>2015-08-20T04:55:50.000Z</time>
      </trkpt>
      <trkpt lat="44.9376" lon="5.9941">
        <ele>1321.5999755859</ele>
        <time>2015-08-20T04:55:52.000Z</time>
      </trkpt>
      <trkpt lat="44.93757" lon="5.99406">
        <ele>1323.1999511719</ele>
        <time>2015-08-20T04:55:56.000Z</time>
      </trkpt>
      <trkpt lat="44.93755" lon="5.99404">
        <ele>1324</ele>
        <time>2015-08-20T04:55:58.000Z</time>
      </trkpt>
      <trkpt lat="44.93753" lon="5.99405">
        <ele>1325.1999511719</ele>
        <time>2015-08-20T04:56:02.000Z</time>
      </trkpt>
      <trkpt lat="44.93752" lon="5.99409">
        <ele>1326.4000244141</ele>
        <time>2015-08-20T04:56:06.000Z</time>
      </trkpt>
      <trkpt lat="44.93752" lon="5.99412">
        <ele>1326.5999755859</ele>
        <time>2015-08-20T04:56:10.000Z</time>
      </trkpt>
      <trkpt lat="44.93752" lon="5.99415">
        <ele>1326.8000488281</ele>
        <time>2015-08-20T04:56:16.000Z</time>
      </trkpt>
      <trkpt lat="44.93751" lon="5.99418">
        <ele>1327.5999755859</ele>
        <time>2015-08-20T04:56:22.000Z</time>
      </trkpt>
      <trkpt lat="44.9375" lon="5.99422">
        <ele>1328</ele>
        <time>2015-08-20T04:56:28.000Z</time>
      </trkpt>
      <trkpt lat="44.93748" lon="5.99423">
        <ele>1329.4000244141</ele>
        <time>2015-08-20T04:56:33.000Z</time>
      </trkpt>
      <trkpt lat="44.9375" lon="5.99425">
        <ele>1328.4000244141</ele>
        <time>2015-08-20T04:56:35.000Z</time>
      </trkpt>
      <trkpt lat="44.93751" lon="5.99427">
        <ele>1327.8000488281</ele>
        <time>2015-08-20T04:56:37.000Z</time>
      </trkpt>
      <trkpt lat="44.93752" lon="5.99437">
        <ele>1328</ele>
        <time>2015-08-20T04:56:42.000Z</time>
      </trkpt>
      <trkpt lat="44.93751" lon="5.99445">
        <ele>1330.1999511719</ele>
        <time>2015-08-20T04:56:47.000Z</time>
      </trkpt>
      <trkpt lat="44.93751" lon="5.99447">
        <ele>1331</ele>
        <time>2015-08-20T04:56:49.000Z</time>
      </trkpt>
      <trkpt lat="44.93752" lon="5.99453">
        <ele>1331.4000244141</ele>
        <time>2015-08-20T04:56:52.000Z</time>
      </trkpt>
      <trkpt lat="44.9375" lon="5.99455">
        <ele>1333</ele>
        <time>2015-08-20T04:56:54.000Z</time>
      </trkpt>
      <trkpt lat="44.9375" lon="5.9946">
        <ele>1334</ele>
        <time>2015-08-20T04:56:57.000Z</time>
      </trkpt>
      <trkpt lat="44.93748" lon="5.99465">
        <ele>1336.5999755859</ele>
        <time>2015-08-20T04:57:01.000Z</time>
      </trkpt>
      <trkpt lat="44.93747" lon="5.99466">
        <ele>1337.4000244141</ele>
        <time>2015-08-20T04:57:02.000Z</time>
      </trkpt>
      <trkpt lat="44.93744" lon="5.99471">
        <ele>1341.1999511719</ele>
        <time>2015-08-20T04:57:07.000Z</time>
      </trkpt>
      <trkpt lat="44.93742" lon="5.9947">
        <ele>1342</ele>
        <time>2015-08-20T04:57:11.000Z</time>
      </trkpt>
      <trkpt lat="44.93742" lon="5.99465">
        <ele>1341.4000244141</ele>
        <time>2015-08-20T04:57:16.000Z</time>
      </trkpt>
      <trkpt lat="44.93742" lon="5.99459">
        <ele>1340.1999511719</ele>
        <time>2015-08-20T04:57:20.000Z</time>
      </trkpt>
      <trkpt lat="44.9374" lon="5.99455">
        <ele>1340.8000488281</ele>
        <time>2015-08-20T04:57:23.000Z</time>
      </trkpt>
      <trkpt lat="44.93737" lon="5.99452">
        <ele>1342.4000244141</ele>
        <time>2015-08-20T04:57:26.000Z</time>
      </trkpt>
      <trkpt lat="44.93737" lon="5.99451">
        <ele>1342.1999511719</ele>
        <time>2015-08-20T04:57:27.000Z</time>
      </trkpt>
      <trkpt lat="44.93734" lon="5.99447">
        <ele>1343.1999511719</ele>
        <time>2015-08-20T04:57:30.000Z</time>
      </trkpt>
      <trkpt lat="44.93733" lon="5.99445">
        <ele>1343.8000488281</ele>
        <time>2015-08-20T04:57:33.000Z</time>
      </trkpt>
      <trkpt lat="44.93732" lon="5.99444">
        <ele>1344.1999511719</ele>
        <time>2015-08-20T04:57:34.000Z</time>
      </trkpt>
      <trkpt lat="44.93731" lon="5.99443">
        <ele>1345.1999511719</ele>
        <time>2015-08-20T04:57:36.000Z</time>
      </trkpt>
      <trkpt lat="44.9373" lon="5.99444">
        <ele>1345.8000488281</ele>
        <time>2015-08-20T04:57:38.000Z</time>
      </trkpt>
      <trkpt lat="44.93729" lon="5.99445">
        <ele>1346.4000244141</ele>
        <time>2015-08-20T04:57:39.000Z</time>
      </trkpt>
      <trkpt lat="44.93729" lon="5.99448">
        <ele>1347.4000244141</ele>
        <time>2015-08-20T04:57:42.000Z</time>
      </trkpt>
      <trkpt lat="44.93728" lon="5.99451">
        <ele>1348.5999755859</ele>
        <time>2015-08-20T04:57:46.000Z</time>
      </trkpt>
      <trkpt lat="44.93723" lon="5.99459">
        <ele>1354.1999511719</ele>
        <time>2015-08-20T04:58:05.000Z</time>
      </trkpt>
      <trkpt lat="44.93722" lon="5.99465">
        <ele>1356</ele>
        <time>2015-08-20T04:58:10.000Z</time>
      </trkpt>
      <trkpt lat="44.93721" lon="5.99467">
        <ele>1357</ele>
        <time>2015-08-20T04:58:14.000Z</time>
      </trkpt>
      <trkpt lat="44.9372" lon="5.99471">
        <ele>1358.4000244141</ele>
        <time>2015-08-20T04:58:18.000Z</time>
      </trkpt>
      <trkpt lat="44.9372" lon="5.99471">
        <ele>1359.1999511719</ele>
        <time>2015-08-20T04:58:19.000Z</time>
      </trkpt>
      <trkpt lat="44.93716" lon="5.99473">
        <ele>1362</ele>
        <time>2015-08-20T04:58:23.000Z</time>
      </trkpt>
      <trkpt lat="44.93716" lon="5.99475">
        <ele>1362.8000488281</ele>
        <time>2015-08-20T04:58:25.000Z</time>
      </trkpt>
      <trkpt lat="44.93715" lon="5.99477">
        <ele>1362.4000244141</ele>
        <time>2015-08-20T04:58:27.000Z</time>
      </trkpt>
      <trkpt lat="44.93716" lon="5.99479">
        <ele>1362</ele>
        <time>2015-08-20T04:58:28.000Z</time>
      </trkpt>
      <trkpt lat="44.93715" lon="5.99481">
        <ele>1362</ele>
        <time>2015-08-20T04:58:31.000Z</time>
      </trkpt>
      <trkpt lat="44.93713" lon="5.99489">
        <ele>1362</ele>
        <time>2015-08-20T04:58:37.000Z</time>
      </trkpt>
      <trkpt lat="44.93711" lon="5.99494">
        <ele>1363.1999511719</ele>
        <time>2015-08-20T04:58:43.000Z</time>
      </trkpt>
      <trkpt lat="44.9371" lon="5.99496">
        <ele>1363</ele>
        <time>2015-08-20T04:58:44.000Z</time>
      </trkpt>
      <trkpt lat="44.93709" lon="5.99502">
        <ele>1363.4000244141</ele>
        <time>2015-08-20T04:58:48.000Z</time>
      </trkpt>
      <trkpt lat="44.93708" lon="5.99511">
        <ele>1362.1999511719</ele>
        <time>2015-08-20T04:58:53.000Z</time>
      </trkpt>
      <trkpt lat="44.93707" lon="5.99514">
        <ele>1362.5999755859</ele>
        <time>2015-08-20T04:58:55.000Z</time>
      </trkpt>
      <trkpt lat="44.93708" lon="5.99519">
        <ele>1361</ele>
        <time>2015-08-20T04:58:58.000Z</time>
      </trkpt>
      <trkpt lat="44.93706" lon="5.99523">
        <ele>1361.8000488281</ele>
        <time>2015-08-20T04:59:02.000Z</time>
      </trkpt>
      <trkpt lat="44.93706" lon="5.99524">
        <ele>1361.8000488281</ele>
        <time>2015-08-20T04:59:03.000Z</time>
      </trkpt>
      <trkpt lat="44.93704" lon="5.99526">
        <ele>1362.8000488281</ele>
        <time>2015-08-20T04:59:05.000Z</time>
      </trkpt>
      <trkpt lat="44.93702" lon="5.99532">
        <ele>1363.1999511719</ele>
        <time>2015-08-20T04:59:08.000Z</time>
      </trkpt>
      <trkpt lat="44.93703" lon="5.99536">
        <ele>1361.8000488281</ele>
        <time>2015-08-20T04:59:11.000Z</time>
      </trkpt>
      <trkpt lat="44.93703" lon="5.99539">
        <ele>1361.4000244141</ele>
        <time>2015-08-20T04:59:12.000Z</time>
      </trkpt>
      <trkpt lat="44.93701" lon="5.99545">
        <ele>1361.8000488281</ele>
        <time>2015-08-20T04:59:15.000Z</time>
      </trkpt>
      <trkpt lat="44.93701" lon="5.99548">
        <ele>1361.5999755859</ele>
        <time>2015-08-20T04:59:17.000Z</time>
      </trkpt>
      <trkpt lat="44.93701" lon="5.99553">
        <ele>1360.1999511719</ele>
        <time>2015-08-20T04:59:20.000Z</time>
      </trkpt>
      <trkpt lat="44.93702" lon="5.99558">
        <ele>1360</ele>
        <time>2015-08-20T04:59:23.000Z</time>
      </trkpt>
      <trkpt lat="44.93704" lon="5.99563">
        <ele>1356.4000244141</ele>
        <time>2015-08-20T04:59:26.000Z</time>
      </trkpt>
      <trkpt lat="44.93704" lon="5.99566">
        <ele>1355.5999755859</ele>
        <time>2015-08-20T04:59:28.000Z</time>
      </trkpt>
      <trkpt lat="44.93703" lon="5.99573">
        <ele>1354.4000244141</ele>
        <time>2015-08-20T04:59:33.000Z</time>
      </trkpt>
      <trkpt lat="44.93698" lon="5.99581">
        <ele>1356.4000244141</ele>
        <time>2015-08-20T04:59:38.000Z</time>
      </trkpt>
      <trkpt lat="44.93696" lon="5.99584">
        <ele>1356.8000488281</ele>
        <time>2015-08-20T04:59:41.000Z</time>
      </trkpt>
      <trkpt lat="44.93694" lon="5.99587">
        <ele>1358</ele>
        <time>2015-08-20T04:59:43.000Z</time>
      </trkpt>
      <trkpt lat="44.93686" lon="5.99596">
        <ele>1362.5999755859</ele>
        <time>2015-08-20T04:59:50.000Z</time>
      </trkpt>
      <trkpt lat="44.93685" lon="5.99598">
        <ele>1362.5999755859</ele>
        <time>2015-08-20T04:59:52.000Z</time>
      </trkpt>
      <trkpt lat="44.93685" lon="5.99599">
        <ele>1362.1999511719</ele>
        <time>2015-08-20T04:59:53.000Z</time>
      </trkpt>
      <trkpt lat="44.93683" lon="5.99601">
        <ele>1363.1999511719</ele>
        <time>2015-08-20T04:59:55.000Z</time>
      </trkpt>
      <trkpt lat="44.93682" lon="5.99601">
        <ele>1364</ele>
        <time>2015-08-20T04:59:56.000Z</time>
      </trkpt>
      <trkpt lat="44.93678" lon="5.99603">
        <ele>1366.5999755859</ele>
        <time>2015-08-20T04:59:59.000Z</time>
      </trkpt>
      <trkpt lat="44.93677" lon="5.99605">
        <ele>1366.8000488281</ele>
        <time>2015-08-20T05:00:01.000Z</time>
      </trkpt>
      <trkpt lat="44.93678" lon="5.99608">
        <ele>1365.8000488281</ele>
        <time>2015-08-20T05:00:03.000Z</time>
      </trkpt>
      <trkpt lat="44.93674" lon="5.99611">
        <ele>1368</ele>
        <time>2015-08-20T05:00:07.000Z</time>
      </trkpt>
      <trkpt lat="44.93673" lon="5.99612">
        <ele>1368.8000488281</ele>
        <time>2015-08-20T05:00:08.000Z</time>
      </trkpt>
      <trkpt lat="44.93671" lon="5.99613">
        <ele>1370.5999755859</ele>
        <time>2015-08-20T05:00:10.000Z</time>
      </trkpt>
      <trkpt lat="44.93667" lon="5.99617">
        <ele>1373</ele>
        <time>2015-08-20T05:00:13.000Z</time>
      </trkpt>
      <trkpt lat="44.93659" lon="5.9962">
        <ele>1379.8000488281</ele>
        <time>2015-08-20T05:00:18.000Z</time>
      </trkpt>
      <trkpt lat="44.93658" lon="5.99629">
        <ele>1378.8000488281</ele>
        <time>2015-08-20T05:00:24.000Z</time>
      </trkpt>
      <trkpt lat="44.93657" lon="5.9963">
        <ele>1379</ele>
        <time>2015-08-20T05:00:25.000Z</time>
      </trkpt>
      <trkpt lat="44.93656" lon="5.99632">
        <ele>1380</ele>
        <time>2015-08-20T05:00:27.000Z</time>
      </trkpt>
      <trkpt lat="44.93657" lon="5.99635">
        <ele>1378.4000244141</ele>
        <time>2015-08-20T05:00:29.000Z</time>
      </trkpt>
      <trkpt lat="44.93657" lon="5.9964">
        <ele>1377</ele>
        <time>2015-08-20T05:00:33.000Z</time>
      </trkpt>
      <trkpt lat="44.93654" lon="5.99648">
        <ele>1377.4000244141</ele>
        <time>2015-08-20T05:00:39.000Z</time>
      </trkpt>
      <trkpt lat="44.93649" lon="5.99652">
        <ele>1381.5999755859</ele>
        <time>2015-08-20T05:00:44.000Z</time>
      </trkpt>
      <trkpt lat="44.93648" lon="5.99653">
        <ele>1381.8000488281</ele>
        <time>2015-08-20T05:00:45.000Z</time>
      </trkpt>
      <trkpt lat="44.93647" lon="5.99655">
        <ele>1382.8000488281</ele>
        <time>2015-08-20T05:00:47.000Z</time>
      </trkpt>
      <trkpt lat="44.93647" lon="5.99658">
        <ele>1382</ele>
        <time>2015-08-20T05:00:49.000Z</time>
      </trkpt>
      <trkpt lat="44.93646" lon="5.99659">
        <ele>1382.1999511719</ele>
        <time>2015-08-20T05:00:51.000Z</time>
      </trkpt>
      <trkpt lat="44.93645" lon="5.9966">
        <ele>1383</ele>
        <time>2015-08-20T05:00:52.000Z</time>
      </trkpt>
      <trkpt lat="44.93646" lon="5.99664">
        <ele>1381.4000244141</ele>
        <time>2015-08-20T05:00:55.000Z</time>
      </trkpt>
      <trkpt lat="44.93645" lon="5.99666">
        <ele>1381</ele>
        <time>2015-08-20T05:00:57.000Z</time>
      </trkpt>
      <trkpt lat="44.93646" lon="5.99668">
        <ele>1380</ele>
        <time>2015-08-20T05:00:58.000Z</time>
      </trkpt>
      <trkpt lat="44.93645" lon="5.99671">
        <ele>1378.5999755859</ele>
        <time>2015-08-20T05:01:01.000Z</time>
      </trkpt>
      <trkpt lat="44.93642" lon="5.99675">
        <ele>1379.5999755859</ele>
        <time>2015-08-20T05:01:05.000Z</time>
      </trkpt>
      <trkpt lat="44.93635" lon="5.9968">
        <ele>1381.5999755859</ele>
        <time>2015-08-20T05:01:11.000Z</time>
      </trkpt>
      <trkpt lat="44.93634" lon="5.99681">
        <ele>1382.1999511719</ele>
        <time>2015-08-20T05:01:12.000Z</time>
      </trkpt>
      <trkpt lat="44.93628" lon="5.99685">
        <ele>1384.1999511719</ele>
        <time>2015-08-20T05:01:17.000Z</time>
      </trkpt>
      <trkpt lat="44.93627" lon="5.9969">
        <ele>1382.8000488281</ele>
        <time>2015-08-20T05:01:21.000Z</time>
      </trkpt>
      <trkpt lat="44.93625" lon="5.99698">
        <ele>1380.8000488281</ele>
        <time>2015-08-20T05:01:27.000Z</time>
      </trkpt>
      <trkpt lat="44.93621" lon="5.99703">
        <ele>1381.8000488281</ele>
        <time>2015-08-20T05:01:32.000Z</time>
      </trkpt>
      <trkpt lat="44.93619" lon="5.99709">
        <ele>1380.4000244141</ele>
        <time>2015-08-20T05:01:36.000Z</time>
      </trkpt>
      <trkpt lat="44.93619" lon="5.9971">
        <ele>1380.5999755859</ele>
        <time>2015-08-20T05:01:37.000Z</time>
      </trkpt>
      <trkpt lat="44.93617" lon="5.99712">
        <ele>1381.4000244141</ele>
        <time>2015-08-20T05:01:39.000Z</time>
      </trkpt>
      <trkpt lat="44.93614" lon="5.99715">
        <ele>1382.8000488281</ele>
        <time>2015-08-20T05:01:42.000Z</time>
      </trkpt>
      <trkpt lat="44.93609" lon="5.99719">
        <ele>1383.4000244141</ele>
        <time>2015-08-20T05:01:46.000Z</time>
      </trkpt>
      <trkpt lat="44.93604" lon="5.99723">
        <ele>1384.5999755859</ele>
        <time>2015-08-20T05:01:51.000Z</time>
      </trkpt>
      <trkpt lat="44.93602" lon="5.99725">
        <ele>1385</ele>
        <time>2015-08-20T05:01:53.000Z</time>
      </trkpt>
      <trkpt lat="44.93601" lon="5.99726">
        <ele>1385</ele>
        <time>2015-08-20T05:01:55.000Z</time>
      </trkpt>
      <trkpt lat="44.93598" lon="5.99729">
        <ele>1385.5999755859</ele>
        <time>2015-08-20T05:01:58.000Z</time>
      </trkpt>
      <trkpt lat="44.93595" lon="5.99732">
        <ele>1387</ele>
        <time>2015-08-20T05:02:02.000Z</time>
      </trkpt>
      <trkpt lat="44.93593" lon="5.99733">
        <ele>1388</ele>
        <time>2015-08-20T05:02:04.000Z</time>
      </trkpt>
      <trkpt lat="44.93589" lon="5.99735">
        <ele>1389.5999755859</ele>
        <time>2015-08-20T05:02:08.000Z</time>
      </trkpt>
      <trkpt lat="44.93589" lon="5.99737">
        <ele>1389.5999755859</ele>
        <time>2015-08-20T05:02:09.000Z</time>
      </trkpt>
      <trkpt lat="44.93587" lon="5.9974">
        <ele>1389.5999755859</ele>
        <time>2015-08-20T05:02:13.000Z</time>
      </trkpt>
      <trkpt lat="44.93585" lon="5.99743">
        <ele>1390</ele>
        <time>2015-08-20T05:02:16.000Z</time>
      </trkpt>
      <trkpt lat="44.93582" lon="5.99746">
        <ele>1390.8000488281</ele>
        <time>2015-08-20T05:02:19.000Z</time>
      </trkpt>
      <trkpt lat="44.93578" lon="5.99751">
        <ele>1391.1999511719</ele>
        <time>2015-08-20T05:02:24.000Z</time>
      </trkpt>
      <trkpt lat="44.93576" lon="5.99753">
        <ele>1392</ele>
        <time>2015-08-20T05:02:26.000Z</time>
      </trkpt>
      <trkpt lat="44.93573" lon="5.99756">
        <ele>1393.1999511719</ele>
        <time>2015-08-20T05:02:30.000Z</time>
      </trkpt>
      <trkpt lat="44.93568" lon="5.9976">
        <ele>1394</ele>
        <time>2015-08-20T05:02:36.000Z</time>
      </trkpt>
      <trkpt lat="44.93567" lon="5.99762">
        <ele>1393.5999755859</ele>
        <time>2015-08-20T05:02:38.000Z</time>
      </trkpt>
      <trkpt lat="44.93566" lon="5.99763">
        <ele>1394</ele>
        <time>2015-08-20T05:02:39.000Z</time>
      </trkpt>
      <trkpt lat="44.93563" lon="5.99765">
        <ele>1394</ele>
        <time>2015-08-20T05:02:42.000Z</time>
      </trkpt>
      <trkpt lat="44.93561" lon="5.99768">
        <ele>1393.1999511719</ele>
        <time>2015-08-20T05:02:47.000Z</time>
      </trkpt>
      <trkpt lat="44.9356" lon="5.9977">
        <ele>1393.1999511719</ele>
        <time>2015-08-20T05:02:49.000Z</time>
      </trkpt>
      <trkpt lat="44.93556" lon="5.99775">
        <ele>1392.5999755859</ele>
        <time>2015-08-20T05:02:53.000Z</time>
      </trkpt>
      <trkpt lat="44.93553" lon="5.99777">
        <ele>1392.8000488281</ele>
        <time>2015-08-20T05:02:56.000Z</time>
      </trkpt>
      <trkpt lat="44.93551" lon="5.99779">
        <ele>1393.5999755859</ele>
        <time>2015-08-20T05:02:59.000Z</time>
      </trkpt>
      <trkpt lat="44.93546" lon="5.99782">
        <ele>1394.4000244141</ele>
        <time>2015-08-20T05:03:05.000Z</time>
      </trkpt>
      <trkpt lat="44.93544" lon="5.99783">
        <ele>1395</ele>
        <time>2015-08-20T05:03:08.000Z</time>
      </trkpt>
      <trkpt lat="44.93542" lon="5.99785">
        <ele>1395.1999511719</ele>
        <time>2015-08-20T05:03:10.000Z</time>
      </trkpt>
      <trkpt lat="44.93541" lon="5.99787">
        <ele>1395</ele>
        <time>2015-08-20T05:03:12.000Z</time>
      </trkpt>
      <trkpt lat="44.93538" lon="5.99789">
        <ele>1395.1999511719</ele>
        <time>2015-08-20T05:03:15.000Z</time>
      </trkpt>
      <trkpt lat="44.93532" lon="5.99792">
        <ele>1397.8000488281</ele>
        <time>2015-08-20T05:03:24.000Z</time>
      </trkpt>
      <trkpt lat="44.93526" lon="5.99797">
        <ele>1398.5999755859</ele>
        <time>2015-08-20T05:03:32.000Z</time>
      </trkpt>
      <trkpt lat="44.93522" lon="5.998">
        <ele>1399.5999755859</ele>
        <time>2015-08-20T05:03:38.000Z</time>
      </trkpt>
      <trkpt lat="44.93517" lon="5.99803">
        <ele>1400.5999755859</ele>
        <time>2015-08-20T05:03:44.000Z</time>
      </trkpt>
      <trkpt lat="44.93515" lon="5.99806">
        <ele>1400.5999755859</ele>
        <time>2015-08-20T05:03:47.000Z</time>
      </trkpt>
      <trkpt lat="44.93514" lon="5.99806">
        <ele>1400.8000488281</ele>
        <time>2015-08-20T05:03:48.000Z</time>
      </trkpt>
      <trkpt lat="44.9351" lon="5.99808">
        <ele>1401.8000488281</ele>
        <time>2015-08-20T05:03:53.000Z</time>
      </trkpt>
      <trkpt lat="44.9351" lon="5.99808">
        <ele>1402.1999511719</ele>
        <time>2015-08-20T05:03:54.000Z</time>
      </trkpt>
      <trkpt lat="44.93509" lon="5.99808">
        <ele>1402.5999755859</ele>
        <time>2015-08-20T05:03:55.000Z</time>
      </trkpt>
      <trkpt lat="44.93507" lon="5.99809">
        <ele>1403.4000244141</ele>
        <time>2015-08-20T05:03:57.000Z</time>
      </trkpt>
      <trkpt lat="44.93506" lon="5.99809">
        <ele>1404</ele>
        <time>2015-08-20T05:03:58.000Z</time>
      </trkpt>
      <trkpt lat="44.93504" lon="5.9981">
        <ele>1405.4000244141</ele>
        <time>2015-08-20T05:04:01.000Z</time>
      </trkpt>
      <trkpt lat="44.93499" lon="5.99814">
        <ele>1407.4000244141</ele>
        <time>2015-08-20T05:04:07.000Z</time>
      </trkpt>
      <trkpt lat="44.93497" lon="5.99814">
        <ele>1408.5999755859</ele>
        <time>2015-08-20T05:04:10.000Z</time>
      </trkpt>
      <trkpt lat="44.93495" lon="5.99815">
        <ele>1409.8000488281</ele>
        <time>2015-08-20T05:04:12.000Z</time>
      </trkpt>
      <trkpt lat="44.93492" lon="5.99816">
        <ele>1411.5999755859</ele>
        <time>2015-08-20T05:04:15.000Z</time>
      </trkpt>
      <trkpt lat="44.93488" lon="5.99819">
        <ele>1413.4000244141</ele>
        <time>2015-08-20T05:04:19.000Z</time>
      </trkpt>
      <trkpt lat="44.93486" lon="5.9982">
        <ele>1414.8000488281</ele>
        <time>2015-08-20T05:04:22.000Z</time>
      </trkpt>
      <trkpt lat="44.93485" lon="5.9982">
        <ele>1415.1999511719</ele>
        <time>2015-08-20T05:04:23.000Z</time>
      </trkpt>
      <trkpt lat="44.93483" lon="5.9982">
        <ele>1416.4000244141</ele>
        <time>2015-08-20T05:04:27.000Z</time>
      </trkpt>
      <trkpt lat="44.93482" lon="5.99821">
        <ele>1417</ele>
        <time>2015-08-20T05:04:28.000Z</time>
      </trkpt>
      <trkpt lat="44.93479" lon="5.99822">
        <ele>1418.5999755859</ele>
        <time>2015-08-20T05:04:32.000Z</time>
      </trkpt>
      <trkpt lat="44.93477" lon="5.99824">
        <ele>1419.5999755859</ele>
        <time>2015-08-20T05:04:34.000Z</time>
      </trkpt>
      <trkpt lat="44.93475" lon="5.99825">
        <ele>1420.5999755859</ele>
        <time>2015-08-20T05:04:36.000Z</time>
      </trkpt>
      <trkpt lat="44.93472" lon="5.99827">
        <ele>1421.8000488281</ele>
        <time>2015-08-20T05:04:40.000Z</time>
      </trkpt>
      <trkpt lat="44.93467" lon="5.99828">
        <ele>1423.4000244141</ele>
        <time>2015-08-20T05:04:45.000Z</time>
      </trkpt>
      <trkpt lat="44.93466" lon="5.99829">
        <ele>1423.5999755859</ele>
        <time>2015-08-20T05:04:46.000Z</time>
      </trkpt>
      <trkpt lat="44.93463" lon="5.99831">
        <ele>1424.4000244141</ele>
        <time>2015-08-20T05:04:50.000Z</time>
      </trkpt>
      <trkpt lat="44.9346" lon="5.99832">
        <ele>1425.5999755859</ele>
        <time>2015-08-20T05:04:53.000Z</time>
      </trkpt>
      <trkpt lat="44.93458" lon="5.99833">
        <ele>1426.1999511719</ele>
        <time>2015-08-20T05:04:55.000Z</time>
      </trkpt>
      <trkpt lat="44.93453" lon="5.99834">
        <ele>1429</ele>
        <time>2015-08-20T05:05:00.000Z</time>
      </trkpt>
      <trkpt lat="44.9345" lon="5.99836">
        <ele>1430.5999755859</ele>
        <time>2015-08-20T05:05:05.000Z</time>
      </trkpt>
      <trkpt lat="44.93448" lon="5.99836">
        <ele>1431.5999755859</ele>
        <time>2015-08-20T05:05:07.000Z</time>
      </trkpt>
      <trkpt lat="44.93446" lon="5.99837">
        <ele>1432.8000488281</ele>
        <time>2015-08-20T05:05:10.000Z</time>
      </trkpt>
      <trkpt lat="44.93444" lon="5.99836">
        <ele>1434.8000488281</ele>
        <time>2015-08-20T05:05:14.000Z</time>
      </trkpt>
      <trkpt lat="44.93441" lon="5.99836">
        <ele>1436.5999755859</ele>
        <time>2015-08-20T05:05:21.000Z</time>
      </trkpt>
      <trkpt lat="44.93437" lon="5.99839">
        <ele>1438.5999755859</ele>
        <time>2015-08-20T05:05:28.000Z</time>
      </trkpt>
      <trkpt lat="44.93434" lon="5.99838">
        <ele>1440.8000488281</ele>
        <time>2015-08-20T05:05:32.000Z</time>
      </trkpt>
      <trkpt lat="44.93429" lon="5.99835">
        <ele>1445.1999511719</ele>
        <time>2015-08-20T05:05:43.000Z</time>
      </trkpt>
      <trkpt lat="44.93433" lon="5.99833">
        <ele>1443.5999755859</ele>
        <time>2015-08-20T05:05:48.000Z</time>
      </trkpt>
      <trkpt lat="44.93478" lon="5.99761">
        <ele>1450.5999755859</ele>
        <time>2015-08-20T05:06:52.000Z</time>
      </trkpt>
      <trkpt lat="44.9348" lon="5.99759">
        <ele>1450.5999755859</ele>
        <time>2015-08-20T05:06:56.000Z</time>
      </trkpt>
      <trkpt lat="44.93481" lon="5.99757">
        <ele>1450.5999755859</ele>
        <time>2015-08-20T05:06:58.000Z</time>
      </trkpt>
      <trkpt lat="44.93485" lon="5.99755">
        <ele>1449.4000244141</ele>
        <time>2015-08-20T05:07:00.000Z</time>
      </trkpt>
      <trkpt lat="44.93487" lon="5.99755">
        <ele>1448.5999755859</ele>
        <time>2015-08-20T05:07:02.000Z</time>
      </trkpt>
      <trkpt lat="44.93488" lon="5.99755">
        <ele>1448.1999511719</ele>
        <time>2015-08-20T05:07:04.000Z</time>
      </trkpt>
      <trkpt lat="44.93487" lon="5.99754">
        <ele>1449.1999511719</ele>
        <time>2015-08-20T05:07:05.000Z</time>
      </trkpt>
      <trkpt lat="44.9349" lon="5.9975">
        <ele>1449</ele>
        <time>2015-08-20T05:07:08.000Z</time>
      </trkpt>
      <trkpt lat="44.9349" lon="5.99748">
        <ele>1450.5999755859</ele>
        <time>2015-08-20T05:07:11.000Z</time>
      </trkpt>
      <trkpt lat="44.9349" lon="5.99738">
        <ele>1455.4000244141</ele>
        <time>2015-08-20T05:07:28.000Z</time>
      </trkpt>
      <trkpt lat="44.93488" lon="5.99739">
        <ele>1457</ele>
        <time>2015-08-20T05:07:31.000Z</time>
      </trkpt>
      <trkpt lat="44.93485" lon="5.99743">
        <ele>1456.4000244141</ele>
        <time>2015-08-20T05:07:34.000Z</time>
      </trkpt>
      <trkpt lat="44.93478" lon="5.99748">
        <ele>1458</ele>
        <time>2015-08-20T05:07:42.000Z</time>
      </trkpt>
      <trkpt lat="44.93476" lon="5.99748">
        <ele>1459</ele>
        <time>2015-08-20T05:07:49.000Z</time>
      </trkpt>
      <trkpt lat="44.93469" lon="5.99754">
        <ele>1460.4000244141</ele>
        <time>2015-08-20T05:08:00.000Z</time>
      </trkpt>
      <trkpt lat="44.93429" lon="5.99769">
        <ele>1473.1999511719</ele>
        <time>2015-08-20T05:08:40.000Z</time>
      </trkpt>
      <trkpt lat="44.93429" lon="5.99769">
        <ele>1473.4000244141</ele>
        <time>2015-08-20T05:08:41.000Z</time>
      </trkpt>
      <trkpt lat="44.93425" lon="5.9977">
        <ele>1474.5999755859</ele>
        <time>2015-08-20T05:08:45.000Z</time>
      </trkpt>
      <trkpt lat="44.93377" lon="5.99788">
        <ele>1499</ele>
        <time>2015-08-20T05:09:55.000Z</time>
      </trkpt>
      <trkpt lat="44.93375" lon="5.99788">
        <ele>1500.5999755859</ele>
        <time>2015-08-20T05:09:58.000Z</time>
      </trkpt>
      <trkpt lat="44.93372" lon="5.99789">
        <ele>1502</ele>
        <time>2015-08-20T05:10:03.000Z</time>
      </trkpt>
      <trkpt lat="44.93369" lon="5.99798">
        <ele>1500.4000244141</ele>
        <time>2015-08-20T05:10:06.000Z</time>
      </trkpt>
      <trkpt lat="44.93365" lon="5.99805">
        <ele>1500.5999755859</ele>
        <time>2015-08-20T05:10:09.000Z</time>
      </trkpt>
      <trkpt lat="44.9336" lon="5.9981">
        <ele>1502.5999755859</ele>
        <time>2015-08-20T05:10:13.000Z</time>
      </trkpt>
      <trkpt lat="44.93356" lon="5.99811">
        <ele>1505.1999511719</ele>
        <time>2015-08-20T05:10:16.000Z</time>
      </trkpt>
      <trkpt lat="44.93352" lon="5.99813">
        <ele>1507.5999755859</ele>
        <time>2015-08-20T05:10:19.000Z</time>
      </trkpt>
      <trkpt lat="44.93349" lon="5.99814">
        <ele>1509.4000244141</ele>
        <time>2015-08-20T05:10:23.000Z</time>
      </trkpt>
      <trkpt lat="44.93345" lon="5.99819">
        <ele>1511.5999755859</ele>
        <time>2015-08-20T05:10:28.000Z</time>
      </trkpt>
      <trkpt lat="44.93339" lon="5.99825">
        <ele>1514.5999755859</ele>
        <time>2015-08-20T05:10:34.000Z</time>
      </trkpt>
      <trkpt lat="44.93332" lon="5.99833">
        <ele>1517.1999511719</ele>
        <time>2015-08-20T05:10:39.000Z</time>
      </trkpt>
      <trkpt lat="44.93324" lon="5.99836">
        <ele>1522.1999511719</ele>
        <time>2015-08-20T05:10:46.000Z</time>
      </trkpt>
      <trkpt lat="44.93322" lon="5.99838">
        <ele>1524</ele>
        <time>2015-08-20T05:10:50.000Z</time>
      </trkpt>
      <trkpt lat="44.93317" lon="5.9984">
        <ele>1527.5999755859</ele>
        <time>2015-08-20T05:10:56.000Z</time>
      </trkpt>
      <trkpt lat="44.93313" lon="5.99842">
        <ele>1530.4000244141</ele>
        <time>2015-08-20T05:11:00.000Z</time>
      </trkpt>
      <trkpt lat="44.93312" lon="5.99847">
        <ele>1530.8000488281</ele>
        <time>2015-08-20T05:11:03.000Z</time>
      </trkpt>
      <trkpt lat="44.93312" lon="5.99849">
        <ele>1530.8000488281</ele>
        <time>2015-08-20T05:11:04.000Z</time>
      </trkpt>
      <trkpt lat="44.93314" lon="5.99854">
        <ele>1527.4000244141</ele>
        <time>2015-08-20T05:11:14.000Z</time>
      </trkpt>
      <trkpt lat="44.93314" lon="5.99854">
        <ele>1527.5999755859</ele>
        <time>2015-08-20T05:11:16.000Z</time>
      </trkpt>
      <trkpt lat="44.93313" lon="5.99862">
        <ele>1526.8000488281</ele>
        <time>2015-08-20T05:11:31.000Z</time>
      </trkpt>
      <trkpt lat="44.93309" lon="5.99866">
        <ele>1530</ele>
        <time>2015-08-20T05:11:34.000Z</time>
      </trkpt>
      <trkpt lat="44.93308" lon="5.99867">
        <ele>1531.1999511719</ele>
        <time>2015-08-20T05:11:41.000Z</time>
      </trkpt>
      <trkpt lat="44.93307" lon="5.99869">
        <ele>1531.4000244141</ele>
        <time>2015-08-20T05:11:43.000Z</time>
      </trkpt>
      <trkpt lat="44.93306" lon="5.99869">
        <ele>1531.8000488281</ele>
        <time>2015-08-20T05:11:45.000Z</time>
      </trkpt>
      <trkpt lat="44.93304" lon="5.9987">
        <ele>1533.5999755859</ele>
        <time>2015-08-20T05:11:47.000Z</time>
      </trkpt>
      <trkpt lat="44.93304" lon="5.99871">
        <ele>1533.8000488281</ele>
        <time>2015-08-20T05:11:49.000Z</time>
      </trkpt>
      <trkpt lat="44.93303" lon="5.99872">
        <ele>1534.5999755859</ele>
        <time>2015-08-20T05:11:50.000Z</time>
      </trkpt>
      <trkpt lat="44.93302" lon="5.99873">
        <ele>1535.1999511719</ele>
        <time>2015-08-20T05:11:51.000Z</time>
      </trkpt>
      <trkpt lat="44.93303" lon="5.99879">
        <ele>1533.4000244141</ele>
        <time>2015-08-20T05:11:54.000Z</time>
      </trkpt>
      <trkpt lat="44.93304" lon="5.99881">
        <ele>1532.1999511719</ele>
        <time>2015-08-20T05:11:56.000Z</time>
      </trkpt>
      <trkpt lat="44.93303" lon="5.99882">
        <ele>1532.8000488281</ele>
        <time>2015-08-20T05:11:57.000Z</time>
      </trkpt>
      <trkpt lat="44.93301" lon="5.99884">
        <ele>1534.4000244141</ele>
        <time>2015-08-20T05:11:59.000Z</time>
      </trkpt>
      <trkpt lat="44.933" lon="5.99885">
        <ele>1535</ele>
        <time>2015-08-20T05:12:00.000Z</time>
      </trkpt>
      <trkpt lat="44.93298" lon="5.99886">
        <ele>1536.5999755859</ele>
        <time>2015-08-20T05:12:03.000Z</time>
      </trkpt>
      <trkpt lat="44.93296" lon="5.9989">
        <ele>1537</ele>
        <time>2015-08-20T05:12:08.000Z</time>
      </trkpt>
      <trkpt lat="44.93298" lon="5.99892">
        <ele>1535.4000244141</ele>
        <time>2015-08-20T05:12:10.000Z</time>
      </trkpt>
      <trkpt lat="44.93297" lon="5.99893">
        <ele>1536.1999511719</ele>
        <time>2015-08-20T05:12:11.000Z</time>
      </trkpt>
      <trkpt lat="44.93297" lon="5.99896">
        <ele>1536</ele>
        <time>2015-08-20T05:12:13.000Z</time>
      </trkpt>
      <trkpt lat="44.933" lon="5.99899">
        <ele>1533.8000488281</ele>
        <time>2015-08-20T05:12:16.000Z</time>
      </trkpt>
      <trkpt lat="44.93301" lon="5.99901">
        <ele>1532.5999755859</ele>
        <time>2015-08-20T05:12:18.000Z</time>
      </trkpt>
      <trkpt lat="44.93299" lon="5.99903">
        <ele>1534.5999755859</ele>
        <time>2015-08-20T05:12:20.000Z</time>
      </trkpt>
      <trkpt lat="44.93298" lon="5.99905">
        <ele>1535.1999511719</ele>
        <time>2015-08-20T05:12:22.000Z</time>
      </trkpt>
      <trkpt lat="44.93297" lon="5.99907">
        <ele>1535.8000488281</ele>
        <time>2015-08-20T05:12:24.000Z</time>
      </trkpt>
      <trkpt lat="44.93295" lon="5.99908">
        <ele>1537.5999755859</ele>
        <time>2015-08-20T05:12:26.000Z</time>
      </trkpt>
      <trkpt lat="44.93294" lon="5.99909">
        <ele>1538.1999511719</ele>
        <time>2015-08-20T05:12:28.000Z</time>
      </trkpt>
      <trkpt lat="44.93292" lon="5.99909">
        <ele>1539.5999755859</ele>
        <time>2015-08-20T05:12:29.000Z</time>
      </trkpt>
      <trkpt lat="44.9329" lon="5.99911">
        <ele>1541.4000244141</ele>
        <time>2015-08-20T05:12:34.000Z</time>
      </trkpt>
      <trkpt lat="44.93289" lon="5.99914">
        <ele>1541.5999755859</ele>
        <time>2015-08-20T05:12:39.000Z</time>
      </trkpt>
      <trkpt lat="44.93289" lon="5.99918">
        <ele>1541.8000488281</ele>
        <time>2015-08-20T05:12:43.000Z</time>
      </trkpt>
      <trkpt lat="44.93289" lon="5.99922">
        <ele>1541.1999511719</ele>
        <time>2015-08-20T05:12:47.000Z</time>
      </trkpt>
      <trkpt lat="44.93287" lon="5.99925">
        <ele>1543.4000244141</ele>
        <time>2015-08-20T05:12:50.000Z</time>
      </trkpt>
      <trkpt lat="44.93286" lon="5.99926">
        <ele>1544.4000244141</ele>
        <time>2015-08-20T05:12:52.000Z</time>
      </trkpt>
      <trkpt lat="44.93282" lon="5.99929">
        <ele>1548.5999755859</ele>
        <time>2015-08-20T05:12:57.000Z</time>
      </trkpt>
      <trkpt lat="44.9328" lon="5.99929">
        <ele>1550.8000488281</ele>
        <time>2015-08-20T05:12:58.000Z</time>
      </trkpt>
      <trkpt lat="44.93277" lon="5.9993">
        <ele>1553.1999511719</ele>
        <time>2015-08-20T05:13:01.000Z</time>
      </trkpt>
      <trkpt lat="44.93278" lon="5.99931">
        <ele>1552.1999511719</ele>
        <time>2015-08-20T05:13:02.000Z</time>
      </trkpt>
      <trkpt lat="44.93274" lon="5.99934">
        <ele>1556.8000488281</ele>
        <time>2015-08-20T05:13:05.000Z</time>
      </trkpt>
      <trkpt lat="44.93272" lon="5.99941">
        <ele>1558.1999511719</ele>
        <time>2015-08-20T05:13:11.000Z</time>
      </trkpt>
      <trkpt lat="44.9327" lon="5.99946">
        <ele>1559.8000488281</ele>
        <time>2015-08-20T05:13:16.000Z</time>
      </trkpt>
      <trkpt lat="44.93268" lon="5.99949">
        <ele>1561.8000488281</ele>
        <time>2015-08-20T05:13:19.000Z</time>
      </trkpt>
      <trkpt lat="44.93268" lon="5.9995">
        <ele>1562.1999511719</ele>
        <time>2015-08-20T05:13:20.000Z</time>
      </trkpt>
      <trkpt lat="44.93267" lon="5.99951">
        <ele>1562.4000244141</ele>
        <time>2015-08-20T05:13:21.000Z</time>
      </trkpt>
      <trkpt lat="44.93263" lon="5.99954">
        <ele>1566</ele>
        <time>2015-08-20T05:13:25.000Z</time>
      </trkpt>
      <trkpt lat="44.93261" lon="5.99956">
        <ele>1568.4000244141</ele>
        <time>2015-08-20T05:13:29.000Z</time>
      </trkpt>
      <trkpt lat="44.93258" lon="5.99959">
        <ele>1571.1999511719</ele>
        <time>2015-08-20T05:13:32.000Z</time>
      </trkpt>
      <trkpt lat="44.93259" lon="5.9996">
        <ele>1570.1999511719</ele>
        <time>2015-08-20T05:13:33.000Z</time>
      </trkpt>
      <trkpt lat="44.93258" lon="5.99962">
        <ele>1571.1999511719</ele>
        <time>2015-08-20T05:13:35.000Z</time>
      </trkpt>
      <trkpt lat="44.93258" lon="5.99961">
        <ele>1571.1999511719</ele>
        <time>2015-08-20T05:13:36.000Z</time>
      </trkpt>
      <trkpt lat="44.93254" lon="5.99963">
        <ele>1574.4000244141</ele>
        <time>2015-08-20T05:13:40.000Z</time>
      </trkpt>
      <trkpt lat="44.93252" lon="5.99966">
        <ele>1576.1999511719</ele>
        <time>2015-08-20T05:13:44.000Z</time>
      </trkpt>
      <trkpt lat="44.9325" lon="5.99968">
        <ele>1578.8000488281</ele>
        <time>2015-08-20T05:13:47.000Z</time>
      </trkpt>
      <trkpt lat="44.93247" lon="5.9997">
        <ele>1581.4000244141</ele>
        <time>2015-08-20T05:13:51.000Z</time>
      </trkpt>
      <trkpt lat="44.93246" lon="5.99971">
        <ele>1582</ele>
        <time>2015-08-20T05:13:52.000Z</time>
      </trkpt>
      <trkpt lat="44.93245" lon="5.99971">
        <ele>1583.8000488281</ele>
        <time>2015-08-20T05:13:54.000Z</time>
      </trkpt>
      <trkpt lat="44.93242" lon="5.9997">
        <ele>1586.1999511719</ele>
        <time>2015-08-20T05:13:57.000Z</time>
      </trkpt>
      <trkpt lat="44.93239" lon="5.99972">
        <ele>1589.1999511719</ele>
        <time>2015-08-20T05:14:04.000Z</time>
      </trkpt>
      <trkpt lat="44.93237" lon="5.99972">
        <ele>1591.1999511719</ele>
        <time>2015-08-20T05:14:08.000Z</time>
      </trkpt>
      <trkpt lat="44.93235" lon="5.99971">
        <ele>1594</ele>
        <time>2015-08-20T05:14:12.000Z</time>
      </trkpt>
      <trkpt lat="44.93229" lon="5.99977">
        <ele>1599.8000488281</ele>
        <time>2015-08-20T05:14:23.000Z</time>
      </trkpt>
      <trkpt lat="44.9323" lon="5.99978">
        <ele>1598.5999755859</ele>
        <time>2015-08-20T05:14:29.000Z</time>
      </trkpt>
      <trkpt lat="44.93228" lon="5.99982">
        <ele>1601.4000244141</ele>
        <time>2015-08-20T05:14:34.000Z</time>
      </trkpt>
      <trkpt lat="44.93227" lon="5.99982">
        <ele>1602.8000488281</ele>
        <time>2015-08-20T05:14:35.000Z</time>
      </trkpt>
      <trkpt lat="44.93229" lon="5.99983">
        <ele>1601.4000244141</ele>
        <time>2015-08-20T05:14:37.000Z</time>
      </trkpt>
      <trkpt lat="44.93228" lon="5.99983">
        <ele>1601.5999755859</ele>
        <time>2015-08-20T05:14:38.000Z</time>
      </trkpt>
      <trkpt lat="44.93229" lon="5.99988">
        <ele>1601.8000488281</ele>
        <time>2015-08-20T05:14:42.000Z</time>
      </trkpt>
      <trkpt lat="44.9323" lon="5.99989">
        <ele>1601.4000244141</ele>
        <time>2015-08-20T05:14:43.000Z</time>
      </trkpt>
      <trkpt lat="44.9323" lon="5.9999">
        <ele>1601</ele>
        <time>2015-08-20T05:14:46.000Z</time>
      </trkpt>
      <trkpt lat="44.93233" lon="5.99995">
        <ele>1599.5999755859</ele>
        <time>2015-08-20T05:14:53.000Z</time>
      </trkpt>
      <trkpt lat="44.93232" lon="6.00001">
        <ele>1601.1999511719</ele>
        <time>2015-08-20T05:14:57.000Z</time>
      </trkpt>
      <trkpt lat="44.93234" lon="6.00004">
        <ele>1599.8000488281</ele>
        <time>2015-08-20T05:15:00.000Z</time>
      </trkpt>
      <trkpt lat="44.93236" lon="6.00005">
        <ele>1597.8000488281</ele>
        <time>2015-08-20T05:15:02.000Z</time>
      </trkpt>
      <trkpt lat="44.9324" lon="6.00003">
        <ele>1593.8000488281</ele>
        <time>2015-08-20T05:15:07.000Z</time>
      </trkpt>
      <trkpt lat="44.93242" lon="6">
        <ele>1590.5999755859</ele>
        <time>2015-08-20T05:15:10.000Z</time>
      </trkpt>
      <trkpt lat="44.93244" lon="6">
        <ele>1588.4000244141</ele>
        <time>2015-08-20T05:15:12.000Z</time>
      </trkpt>
      <trkpt lat="44.93245" lon="6.00002">
        <ele>1588.5999755859</ele>
        <time>2015-08-20T05:15:13.000Z</time>
      </trkpt>
      <trkpt lat="44.93246" lon="6.0001">
        <ele>1589</ele>
        <time>2015-08-20T05:15:17.000Z</time>
      </trkpt>
      <trkpt lat="44.93245" lon="6.00013">
        <ele>1589.8000488281</ele>
        <time>2015-08-20T05:15:18.000Z</time>
      </trkpt>
      <trkpt lat="44.93245" lon="6.00017">
        <ele>1590.4000244141</ele>
        <time>2015-08-20T05:15:21.000Z</time>
      </trkpt>
      <trkpt lat="44.93244" lon="6.0002">
        <ele>1590.4000244141</ele>
        <time>2015-08-20T05:15:23.000Z</time>
      </trkpt>
      <trkpt lat="44.93245" lon="6.00025">
        <ele>1589.8000488281</ele>
        <time>2015-08-20T05:15:25.000Z</time>
      </trkpt>
      <trkpt lat="44.93244" lon="6.0003">
        <ele>1590</ele>
        <time>2015-08-20T05:15:28.000Z</time>
      </trkpt>
      <trkpt lat="44.93244" lon="6.00031">
        <ele>1590.5999755859</ele>
        <time>2015-08-20T05:15:29.000Z</time>
      </trkpt>
      <trkpt lat="44.93242" lon="6.00036">
        <ele>1591.5999755859</ele>
        <time>2015-08-20T05:15:33.000Z</time>
      </trkpt>
      <trkpt lat="44.93242" lon="6.00037">
        <ele>1591.8000488281</ele>
        <time>2015-08-20T05:15:34.000Z</time>
      </trkpt>
      <trkpt lat="44.93242" lon="6.00039">
        <ele>1591.4000244141</ele>
        <time>2015-08-20T05:15:36.000Z</time>
      </trkpt>
      <trkpt lat="44.93243" lon="6.00041">
        <ele>1590.8000488281</ele>
        <time>2015-08-20T05:15:38.000Z</time>
      </trkpt>
      <trkpt lat="44.93242" lon="6.00042">
        <ele>1591.1999511719</ele>
        <time>2015-08-20T05:15:39.000Z</time>
      </trkpt>
      <trkpt lat="44.93242" lon="6.00045">
        <ele>1591</ele>
        <time>2015-08-20T05:15:42.000Z</time>
      </trkpt>
      <trkpt lat="44.93241" lon="6.00045">
        <ele>1592</ele>
        <time>2015-08-20T05:15:44.000Z</time>
      </trkpt>
      <trkpt lat="44.93239" lon="6.00039">
        <ele>1593.4000244141</ele>
        <time>2015-08-20T05:15:49.000Z</time>
      </trkpt>
      <trkpt lat="44.93232" lon="6.00027">
        <ele>1600.1999511719</ele>
        <time>2015-08-20T05:15:56.000Z</time>
      </trkpt>
      <trkpt lat="44.93228" lon="6.00025">
        <ele>1602.8000488281</ele>
        <time>2015-08-20T05:15:59.000Z</time>
      </trkpt>
      <trkpt lat="44.93226" lon="6.00025">
        <ele>1604.4000244141</ele>
        <time>2015-08-20T05:16:01.000Z</time>
      </trkpt>
      <trkpt lat="44.93228" lon="6.00031">
        <ele>1602.4000244141</ele>
        <time>2015-08-20T05:16:10.000Z</time>
      </trkpt>
      <trkpt lat="44.9323" lon="6.00034">
        <ele>1601</ele>
        <time>2015-08-20T05:16:14.000Z</time>
      </trkpt>
      <trkpt lat="44.9323" lon="6.00035">
        <ele>1601.1999511719</ele>
        <time>2015-08-20T05:16:15.000Z</time>
      </trkpt>
      <trkpt lat="44.93229" lon="6.00036">
        <ele>1601.4000244141</ele>
        <time>2015-08-20T05:16:19.000Z</time>
      </trkpt>
      <trkpt lat="44.93228" lon="6.00038">
        <ele>1602.1999511719</ele>
        <time>2015-08-20T05:16:24.000Z</time>
      </trkpt>
      <trkpt lat="44.93228" lon="6.00043">
        <ele>1602.4000244141</ele>
        <time>2015-08-20T05:16:32.000Z</time>
      </trkpt>
      <trkpt lat="44.93228" lon="6.00048">
        <ele>1601.8000488281</ele>
        <time>2015-08-20T05:16:39.000Z</time>
      </trkpt>
      <trkpt lat="44.93227" lon="6.00053">
        <ele>1602.1999511719</ele>
        <time>2015-08-20T05:16:44.000Z</time>
      </trkpt>
      <trkpt lat="44.93225" lon="6.00056">
        <ele>1603.8000488281</ele>
        <time>2015-08-20T05:16:49.000Z</time>
      </trkpt>
      <trkpt lat="44.93224" lon="6.00062">
        <ele>1605.5999755859</ele>
        <time>2015-08-20T05:17:02.000Z</time>
      </trkpt>
      <trkpt lat="44.93222" lon="6.00067">
        <ele>1608.1999511719</ele>
        <time>2015-08-20T05:17:08.000Z</time>
      </trkpt>
      <trkpt lat="44.93221" lon="6.00072">
        <ele>1610.8000488281</ele>
        <time>2015-08-20T05:17:13.000Z</time>
      </trkpt>
      <trkpt lat="44.93219" lon="6.00079">
        <ele>1611.8000488281</ele>
        <time>2015-08-20T05:17:19.000Z</time>
      </trkpt>
      <trkpt lat="44.93219" lon="6.0008">
        <ele>1611.5999755859</ele>
        <time>2015-08-20T05:17:21.000Z</time>
      </trkpt>
      <trkpt lat="44.93218" lon="6.00081">
        <ele>1612.4000244141</ele>
        <time>2015-08-20T05:17:23.000Z</time>
      </trkpt>
      <trkpt lat="44.93219" lon="6.00083">
        <ele>1612</ele>
        <time>2015-08-20T05:17:24.000Z</time>
      </trkpt>
      <trkpt lat="44.93217" lon="6.00088">
        <ele>1613</ele>
        <time>2015-08-20T05:17:28.000Z</time>
      </trkpt>
      <trkpt lat="44.93217" lon="6.00093">
        <ele>1613</ele>
        <time>2015-08-20T05:17:34.000Z</time>
      </trkpt>
      <trkpt lat="44.93215" lon="6.00101">
        <ele>1613.8000488281</ele>
        <time>2015-08-20T05:17:40.000Z</time>
      </trkpt>
      <trkpt lat="44.93217" lon="6.00103">
        <ele>1612.8000488281</ele>
        <time>2015-08-20T05:17:42.000Z</time>
      </trkpt>
      <trkpt lat="44.93216" lon="6.00106">
        <ele>1613.4000244141</ele>
        <time>2015-08-20T05:17:45.000Z</time>
      </trkpt>
      <trkpt lat="44.93215" lon="6.00111">
        <ele>1613.5999755859</ele>
        <time>2015-08-20T05:17:49.000Z</time>
      </trkpt>
      <trkpt lat="44.93215" lon="6.00112">
        <ele>1613.8000488281</ele>
        <time>2015-08-20T05:17:50.000Z</time>
      </trkpt>
      <trkpt lat="44.93214" lon="6.00113">
        <ele>1614.5999755859</ele>
        <time>2015-08-20T05:17:53.000Z</time>
      </trkpt>
      <trkpt lat="44.93215" lon="6.00114">
        <ele>1614</ele>
        <time>2015-08-20T05:17:54.000Z</time>
      </trkpt>
      <trkpt lat="44.93215" lon="6.00116">
        <ele>1614</ele>
        <time>2015-08-20T05:17:55.000Z</time>
      </trkpt>
      <trkpt lat="44.93214" lon="6.0012">
        <ele>1614.4000244141</ele>
        <time>2015-08-20T05:17:59.000Z</time>
      </trkpt>
      <trkpt lat="44.93213" lon="6.00122">
        <ele>1614.8000488281</ele>
        <time>2015-08-20T05:18:01.000Z</time>
      </trkpt>
      <trkpt lat="44.93212" lon="6.00126">
        <ele>1615.8000488281</ele>
        <time>2015-08-20T05:18:04.000Z</time>
      </trkpt>
      <trkpt lat="44.93212" lon="6.00131">
        <ele>1615.4000244141</ele>
        <time>2015-08-20T05:18:08.000Z</time>
      </trkpt>
      <trkpt lat="44.93214" lon="6.00132">
        <ele>1614.5999755859</ele>
        <time>2015-08-20T05:18:09.000Z</time>
      </trkpt>
      <trkpt lat="44.93212" lon="6.00137">
        <ele>1615.5999755859</ele>
        <time>2015-08-20T05:18:14.000Z</time>
      </trkpt>
      <trkpt lat="44.9321" lon="6.0014">
        <ele>1616.5999755859</ele>
        <time>2015-08-20T05:18:18.000Z</time>
      </trkpt>
      <trkpt lat="44.93209" lon="6.00142">
        <ele>1617</ele>
        <time>2015-08-20T05:18:19.000Z</time>
      </trkpt>
      <trkpt lat="44.93209" lon="6.00143">
        <ele>1617.4000244141</ele>
        <time>2015-08-20T05:18:20.000Z</time>
      </trkpt>
      <trkpt lat="44.93208" lon="6.00144">
        <ele>1618.1999511719</ele>
        <time>2015-08-20T05:18:22.000Z</time>
      </trkpt>
      <trkpt lat="44.93207" lon="6.00145">
        <ele>1618.4000244141</ele>
        <time>2015-08-20T05:18:23.000Z</time>
      </trkpt>
      <trkpt lat="44.93207" lon="6.00148">
        <ele>1619.4000244141</ele>
        <time>2015-08-20T05:18:27.000Z</time>
      </trkpt>
      <trkpt lat="44.93207" lon="6.00152">
        <ele>1620</ele>
        <time>2015-08-20T05:18:31.000Z</time>
      </trkpt>
      <trkpt lat="44.93203" lon="6.0016">
        <ele>1624</ele>
        <time>2015-08-20T05:18:39.000Z</time>
      </trkpt>
      <trkpt lat="44.93202" lon="6.00161">
        <ele>1624.8000488281</ele>
        <time>2015-08-20T05:18:45.000Z</time>
      </trkpt>
      <trkpt lat="44.93204" lon="6.00167">
        <ele>1624.5999755859</ele>
        <time>2015-08-20T05:18:50.000Z</time>
      </trkpt>
      <trkpt lat="44.93205" lon="6.00177">
        <ele>1625.1999511719</ele>
        <time>2015-08-20T05:19:00.000Z</time>
      </trkpt>
      <trkpt lat="44.93205" lon="6.00182">
        <ele>1626.8000488281</ele>
        <time>2015-08-20T05:19:04.000Z</time>
      </trkpt>
      <trkpt lat="44.93205" lon="6.00188">
        <ele>1627.5999755859</ele>
        <time>2015-08-20T05:19:08.000Z</time>
      </trkpt>
      <trkpt lat="44.93203" lon="6.0019">
        <ele>1629.1999511719</ele>
        <time>2015-08-20T05:19:12.000Z</time>
      </trkpt>
      <trkpt lat="44.93203" lon="6.00191">
        <ele>1629.8000488281</ele>
        <time>2015-08-20T05:19:13.000Z</time>
      </trkpt>
      <trkpt lat="44.93202" lon="6.00192">
        <ele>1630</ele>
        <time>2015-08-20T05:19:15.000Z</time>
      </trkpt>
      <trkpt lat="44.93202" lon="6.00192">
        <ele>1630.1999511719</ele>
        <time>2015-08-20T05:19:16.000Z</time>
      </trkpt>
      <trkpt lat="44.932" lon="6.00194">
        <ele>1631.8000488281</ele>
        <time>2015-08-20T05:19:24.000Z</time>
      </trkpt>
      <trkpt lat="44.93198" lon="6.00195">
        <ele>1634</ele>
        <time>2015-08-20T05:19:27.000Z</time>
      </trkpt>
      <trkpt lat="44.93194" lon="6.00197">
        <ele>1637.1999511719</ele>
        <time>2015-08-20T05:19:32.000Z</time>
      </trkpt>
      <trkpt lat="44.93189" lon="6.00196">
        <ele>1640</ele>
        <time>2015-08-20T05:19:38.000Z</time>
      </trkpt>
      <trkpt lat="44.93187" lon="6.00194">
        <ele>1641.8000488281</ele>
        <time>2015-08-20T05:19:43.000Z</time>
      </trkpt>
      <trkpt lat="44.93183" lon="6.00193">
        <ele>1644.5999755859</ele>
        <time>2015-08-20T05:19:51.000Z</time>
      </trkpt>
      <trkpt lat="44.9318" lon="6.00191">
        <ele>1646.4000244141</ele>
        <time>2015-08-20T05:19:56.000Z</time>
      </trkpt>
      <trkpt lat="44.93179" lon="6.00189">
        <ele>1646.5999755859</ele>
        <time>2015-08-20T05:19:58.000Z</time>
      </trkpt>
      <trkpt lat="44.93178" lon="6.00186">
        <ele>1646.5999755859</ele>
        <time>2015-08-20T05:20:02.000Z</time>
      </trkpt>
      <trkpt lat="44.93178" lon="6.00184">
        <ele>1646.8000488281</ele>
        <time>2015-08-20T05:20:04.000Z</time>
      </trkpt>
      <trkpt lat="44.93176" lon="6.00182">
        <ele>1647.5999755859</ele>
        <time>2015-08-20T05:20:07.000Z</time>
      </trkpt>
      <trkpt lat="44.93169" lon="6.00179">
        <ele>1652</ele>
        <time>2015-08-20T05:20:12.000Z</time>
      </trkpt>
      <trkpt lat="44.93169" lon="6.00177">
        <ele>1651.8000488281</ele>
        <time>2015-08-20T05:20:13.000Z</time>
      </trkpt>
      <trkpt lat="44.93166" lon="6.00175">
        <ele>1653.4000244141</ele>
        <time>2015-08-20T05:20:17.000Z</time>
      </trkpt>
      <trkpt lat="44.93167" lon="6.00173">
        <ele>1653</ele>
        <time>2015-08-20T05:20:18.000Z</time>
      </trkpt>
      <trkpt lat="44.93164" lon="6.00168">
        <ele>1653.8000488281</ele>
        <time>2015-08-20T05:20:22.000Z</time>
      </trkpt>
      <trkpt lat="44.93164" lon="6.00169">
        <ele>1654.4000244141</ele>
        <time>2015-08-20T05:20:23.000Z</time>
      </trkpt>
      <trkpt lat="44.93163" lon="6.00167">
        <ele>1654.8000488281</ele>
        <time>2015-08-20T05:20:26.000Z</time>
      </trkpt>
      <trkpt lat="44.93162" lon="6.00165">
        <ele>1655.4000244141</ele>
        <time>2015-08-20T05:20:28.000Z</time>
      </trkpt>
      <trkpt lat="44.9316" lon="6.00165">
        <ele>1656.4000244141</ele>
        <time>2015-08-20T05:20:31.000Z</time>
      </trkpt>
      <trkpt lat="44.93158" lon="6.00161">
        <ele>1657.1999511719</ele>
        <time>2015-08-20T05:20:35.000Z</time>
      </trkpt>
      <trkpt lat="44.93154" lon="6.00156">
        <ele>1659.1999511719</ele>
        <time>2015-08-20T05:20:40.000Z</time>
      </trkpt>
      <trkpt lat="44.93154" lon="6.00155">
        <ele>1659.1999511719</ele>
        <time>2015-08-20T05:20:41.000Z</time>
      </trkpt>
      <trkpt lat="44.93152" lon="6.00154">
        <ele>1660.1999511719</ele>
        <time>2015-08-20T05:20:44.000Z</time>
      </trkpt>
      <trkpt lat="44.93152" lon="6.00153">
        <ele>1660</ele>
        <time>2015-08-20T05:20:45.000Z</time>
      </trkpt>
      <trkpt lat="44.93153" lon="6.0015">
        <ele>1659.4000244141</ele>
        <time>2015-08-20T05:20:46.000Z</time>
      </trkpt>
      <trkpt lat="44.93151" lon="6.00149">
        <ele>1660.1999511719</ele>
        <time>2015-08-20T05:20:49.000Z</time>
      </trkpt>
      <trkpt lat="44.93155" lon="6.00151">
        <ele>1657.4000244141</ele>
        <time>2015-08-20T05:20:55.000Z</time>
      </trkpt>
      <trkpt lat="44.93156" lon="6.00156">
        <ele>1658</ele>
        <time>2015-08-20T05:20:59.000Z</time>
      </trkpt>
      <trkpt lat="44.93157" lon="6.0016">
        <ele>1658</ele>
        <time>2015-08-20T05:21:03.000Z</time>
      </trkpt>
      <trkpt lat="44.93155" lon="6.00163">
        <ele>1659.5999755859</ele>
        <time>2015-08-20T05:21:07.000Z</time>
      </trkpt>
      <trkpt lat="44.93153" lon="6.00167">
        <ele>1662</ele>
        <time>2015-08-20T05:21:11.000Z</time>
      </trkpt>
      <trkpt lat="44.93152" lon="6.00173">
        <ele>1663.4000244141</ele>
        <time>2015-08-20T05:21:15.000Z</time>
      </trkpt>
      <trkpt lat="44.93152" lon="6.00179">
        <ele>1663.8000488281</ele>
        <time>2015-08-20T05:21:22.000Z</time>
      </trkpt>
      <trkpt lat="44.93151" lon="6.00183">
        <ele>1665</ele>
        <time>2015-08-20T05:21:25.000Z</time>
      </trkpt>
      <trkpt lat="44.93149" lon="6.00188">
        <ele>1666.8000488281</ele>
        <time>2015-08-20T05:21:29.000Z</time>
      </trkpt>
      <trkpt lat="44.93149" lon="6.0019">
        <ele>1666.8000488281</ele>
        <time>2015-08-20T05:21:31.000Z</time>
      </trkpt>
      <trkpt lat="44.93148" lon="6.00199">
        <ele>1668.4000244141</ele>
        <time>2015-08-20T05:21:37.000Z</time>
      </trkpt>
      <trkpt lat="44.93149" lon="6.00202">
        <ele>1668</ele>
        <time>2015-08-20T05:21:40.000Z</time>
      </trkpt>
      <trkpt lat="44.9315" lon="6.00204">
        <ele>1667.5999755859</ele>
        <time>2015-08-20T05:21:42.000Z</time>
      </trkpt>
      <trkpt lat="44.93153" lon="6.00213">
        <ele>1665.8000488281</ele>
        <time>2015-08-20T05:21:50.000Z</time>
      </trkpt>
      <trkpt lat="44.93154" lon="6.00219">
        <ele>1665.8000488281</ele>
        <time>2015-08-20T05:21:56.000Z</time>
      </trkpt>
      <trkpt lat="44.93155" lon="6.00227">
        <ele>1666.5999755859</ele>
        <time>2015-08-20T05:22:01.000Z</time>
      </trkpt>
      <trkpt lat="44.93155" lon="6.00234">
        <ele>1668</ele>
        <time>2015-08-20T05:22:06.000Z</time>
      </trkpt>
      <trkpt lat="44.93155" lon="6.00242">
        <ele>1670.4000244141</ele>
        <time>2015-08-20T05:22:11.000Z</time>
      </trkpt>
      <trkpt lat="44.93156" lon="6.00245">
        <ele>1670.5999755859</ele>
        <time>2015-08-20T05:22:13.000Z</time>
      </trkpt>
      <trkpt lat="44.93154" lon="6.00247">
        <ele>1672.1999511719</ele>
        <time>2015-08-20T05:22:15.000Z</time>
      </trkpt>
      <trkpt lat="44.93157" lon="6.0025">
        <ele>1671.4000244141</ele>
        <time>2015-08-20T05:22:18.000Z</time>
      </trkpt>
      <trkpt lat="44.93157" lon="6.00251">
        <ele>1671.4000244141</ele>
        <time>2015-08-20T05:22:19.000Z</time>
      </trkpt>
      <trkpt lat="44.93154" lon="6.00256">
        <ele>1674.4000244141</ele>
        <time>2015-08-20T05:22:24.000Z</time>
      </trkpt>
      <trkpt lat="44.93156" lon="6.00259">
        <ele>1674</ele>
        <time>2015-08-20T05:22:28.000Z</time>
      </trkpt>
      <trkpt lat="44.93158" lon="6.00262">
        <ele>1673.4000244141</ele>
        <time>2015-08-20T05:22:31.000Z</time>
      </trkpt>
      <trkpt lat="44.9316" lon="6.00263">
        <ele>1672.5999755859</ele>
        <time>2015-08-20T05:22:32.000Z</time>
      </trkpt>
      <trkpt lat="44.9316" lon="6.00264">
        <ele>1672.4000244141</ele>
        <time>2015-08-20T05:22:33.000Z</time>
      </trkpt>
      <trkpt lat="44.93162" lon="6.00269">
        <ele>1672</ele>
        <time>2015-08-20T05:22:36.000Z</time>
      </trkpt>
      <trkpt lat="44.93162" lon="6.0027">
        <ele>1672</ele>
        <time>2015-08-20T05:22:37.000Z</time>
      </trkpt>
      <trkpt lat="44.93163" lon="6.00271">
        <ele>1671.8000488281</ele>
        <time>2015-08-20T05:22:38.000Z</time>
      </trkpt>
      <trkpt lat="44.93163" lon="6.00275">
        <ele>1672</ele>
        <time>2015-08-20T05:22:41.000Z</time>
      </trkpt>
      <trkpt lat="44.93163" lon="6.00276">
        <ele>1672.4000244141</ele>
        <time>2015-08-20T05:22:42.000Z</time>
      </trkpt>
      <trkpt lat="44.93165" lon="6.00283">
        <ele>1672.4000244141</ele>
        <time>2015-08-20T05:22:48.000Z</time>
      </trkpt>
      <trkpt lat="44.93163" lon="6.00289">
        <ele>1674</ele>
        <time>2015-08-20T05:22:53.000Z</time>
      </trkpt>
      <trkpt lat="44.93163" lon="6.0029">
        <ele>1674.1999511719</ele>
        <time>2015-08-20T05:22:54.000Z</time>
      </trkpt>
      <trkpt lat="44.93159" lon="6.00293">
        <ele>1676.1999511719</ele>
        <time>2015-08-20T05:23:00.000Z</time>
      </trkpt>
      <trkpt lat="44.93158" lon="6.00293">
        <ele>1677</ele>
        <time>2015-08-20T05:23:01.000Z</time>
      </trkpt>
      <trkpt lat="44.93152" lon="6.00288">
        <ele>1679.1999511719</ele>
        <time>2015-08-20T05:23:07.000Z</time>
      </trkpt>
      <trkpt lat="44.93151" lon="6.00288">
        <ele>1679.8000488281</ele>
        <time>2015-08-20T05:23:08.000Z</time>
      </trkpt>
      <trkpt lat="44.93147" lon="6.00286">
        <ele>1681.8000488281</ele>
        <time>2015-08-20T05:23:13.000Z</time>
      </trkpt>
      <trkpt lat="44.93145" lon="6.00284">
        <ele>1682.1999511719</ele>
        <time>2015-08-20T05:23:16.000Z</time>
      </trkpt>
      <trkpt lat="44.93142" lon="6.00283">
        <ele>1683.5999755859</ele>
        <time>2015-08-20T05:23:19.000Z</time>
      </trkpt>
      <trkpt lat="44.93141" lon="6.00281">
        <ele>1684</ele>
        <time>2015-08-20T05:23:22.000Z</time>
      </trkpt>
      <trkpt lat="44.9314" lon="6.00281">
        <ele>1684.5999755859</ele>
        <time>2015-08-20T05:23:25.000Z</time>
      </trkpt>
      <trkpt lat="44.93139" lon="6.00277">
        <ele>1684.8000488281</ele>
        <time>2015-08-20T05:23:30.000Z</time>
      </trkpt>
      <trkpt lat="44.93135" lon="6.00273">
        <ele>1685.8000488281</ele>
        <time>2015-08-20T05:23:35.000Z</time>
      </trkpt>
      <trkpt lat="44.93135" lon="6.00272">
        <ele>1686.1999511719</ele>
        <time>2015-08-20T05:23:36.000Z</time>
      </trkpt>
      <trkpt lat="44.93131" lon="6.0027">
        <ele>1688</ele>
        <time>2015-08-20T05:23:40.000Z</time>
      </trkpt>
      <trkpt lat="44.93127" lon="6.00265">
        <ele>1689.1999511719</ele>
        <time>2015-08-20T05:23:45.000Z</time>
      </trkpt>
      <trkpt lat="44.93127" lon="6.00263">
        <ele>1688.8000488281</ele>
        <time>2015-08-20T05:23:46.000Z</time>
      </trkpt>
      <trkpt lat="44.93127" lon="6.0026">
        <ele>1688.5999755859</ele>
        <time>2015-08-20T05:23:49.000Z</time>
      </trkpt>
      <trkpt lat="44.93122" lon="6.00256">
        <ele>1690.5999755859</ele>
        <time>2015-08-20T05:23:54.000Z</time>
      </trkpt>
      <trkpt lat="44.93121" lon="6.00256">
        <ele>1691.1999511719</ele>
        <time>2015-08-20T05:23:55.000Z</time>
      </trkpt>
      <trkpt lat="44.9312" lon="6.00255">
        <ele>1692</ele>
        <time>2015-08-20T05:23:57.000Z</time>
      </trkpt>
      <trkpt lat="44.93117" lon="6.00253">
        <ele>1693.4000244141</ele>
        <time>2015-08-20T05:24:01.000Z</time>
      </trkpt>
      <trkpt lat="44.93114" lon="6.00253">
        <ele>1694.8000488281</ele>
        <time>2015-08-20T05:24:04.000Z</time>
      </trkpt>
      <trkpt lat="44.93113" lon="6.00253">
        <ele>1695.1999511719</ele>
        <time>2015-08-20T05:24:06.000Z</time>
      </trkpt>
      <trkpt lat="44.93109" lon="6.00245">
        <ele>1696.8000488281</ele>
        <time>2015-08-20T05:24:12.000Z</time>
      </trkpt>
      <trkpt lat="44.93108" lon="6.00243">
        <ele>1697.1999511719</ele>
        <time>2015-08-20T05:24:15.000Z</time>
      </trkpt>
      <trkpt lat="44.93107" lon="6.00242">
        <ele>1697.8000488281</ele>
        <time>2015-08-20T05:24:16.000Z</time>
      </trkpt>
      <trkpt lat="44.93106" lon="6.0024">
        <ele>1698</ele>
        <time>2015-08-20T05:24:18.000Z</time>
      </trkpt>
      <trkpt lat="44.93106" lon="6.00238">
        <ele>1697.8000488281</ele>
        <time>2015-08-20T05:24:20.000Z</time>
      </trkpt>
      <trkpt lat="44.93104" lon="6.00236">
        <ele>1698.8000488281</ele>
        <time>2015-08-20T05:24:22.000Z</time>
      </trkpt>
      <trkpt lat="44.93101" lon="6.00235">
        <ele>1700</ele>
        <time>2015-08-20T05:24:26.000Z</time>
      </trkpt>
      <trkpt lat="44.93096" lon="6.00231">
        <ele>1702.1999511719</ele>
        <time>2015-08-20T05:24:30.000Z</time>
      </trkpt>
      <trkpt lat="44.93095" lon="6.00225">
        <ele>1702.5999755859</ele>
        <time>2015-08-20T05:24:34.000Z</time>
      </trkpt>
      <trkpt lat="44.93093" lon="6.00224">
        <ele>1703.5999755859</ele>
        <time>2015-08-20T05:24:36.000Z</time>
      </trkpt>
      <trkpt lat="44.93089" lon="6.00217">
        <ele>1707.1999511719</ele>
        <time>2015-08-20T05:24:42.000Z</time>
      </trkpt>
      <trkpt lat="44.9309" lon="6.0021">
        <ele>1707.5999755859</ele>
        <time>2015-08-20T05:24:47.000Z</time>
      </trkpt>
      <trkpt lat="44.9309" lon="6.00209">
        <ele>1708</ele>
        <time>2015-08-20T05:24:48.000Z</time>
      </trkpt>
      <trkpt lat="44.93088" lon="6.00207">
        <ele>1709.5999755859</ele>
        <time>2015-08-20T05:24:51.000Z</time>
      </trkpt>
      <trkpt lat="44.93087" lon="6.00205">
        <ele>1710.1999511719</ele>
        <time>2015-08-20T05:24:52.000Z</time>
      </trkpt>
      <trkpt lat="44.93086" lon="6.00201">
        <ele>1711.5999755859</ele>
        <time>2015-08-20T05:24:56.000Z</time>
      </trkpt>
      <trkpt lat="44.93081" lon="6.00195">
        <ele>1715</ele>
        <time>2015-08-20T05:25:02.000Z</time>
      </trkpt>
      <trkpt lat="44.93079" lon="6.00192">
        <ele>1716.5999755859</ele>
        <time>2015-08-20T05:25:06.000Z</time>
      </trkpt>
      <trkpt lat="44.93077" lon="6.00186">
        <ele>1719.1999511719</ele>
        <time>2015-08-20T05:25:12.000Z</time>
      </trkpt>
      <trkpt lat="44.93075" lon="6.00184">
        <ele>1720.5999755859</ele>
        <time>2015-08-20T05:25:15.000Z</time>
      </trkpt>
      <trkpt lat="44.93074" lon="6.00183">
        <ele>1721</ele>
        <time>2015-08-20T05:25:16.000Z</time>
      </trkpt>
      <trkpt lat="44.93076" lon="6.00179">
        <ele>1720.5999755859</ele>
        <time>2015-08-20T05:25:20.000Z</time>
      </trkpt>
      <trkpt lat="44.93076" lon="6.00172">
        <ele>1720.4000244141</ele>
        <time>2015-08-20T05:25:25.000Z</time>
      </trkpt>
      <trkpt lat="44.93076" lon="6.0017">
        <ele>1720.4000244141</ele>
        <time>2015-08-20T05:25:26.000Z</time>
      </trkpt>
      <trkpt lat="44.93077" lon="6.00168">
        <ele>1719.5999755859</ele>
        <time>2015-08-20T05:25:27.000Z</time>
      </trkpt>
      <trkpt lat="44.93078" lon="6.00166">
        <ele>1718.8000488281</ele>
        <time>2015-08-20T05:25:28.000Z</time>
      </trkpt>
      <trkpt lat="44.93078" lon="6.0016">
        <ele>1718.4000244141</ele>
        <time>2015-08-20T05:25:32.000Z</time>
      </trkpt>
      <trkpt lat="44.93076" lon="6.00158">
        <ele>1719.1999511719</ele>
        <time>2015-08-20T05:25:34.000Z</time>
      </trkpt>
      <trkpt lat="44.93075" lon="6.00155">
        <ele>1719.5999755859</ele>
        <time>2015-08-20T05:25:37.000Z</time>
      </trkpt>
      <trkpt lat="44.93079" lon="6.00155">
        <ele>1716.8000488281</ele>
        <time>2015-08-20T05:25:46.000Z</time>
      </trkpt>
      <trkpt lat="44.93078" lon="6.00156">
        <ele>1717.4000244141</ele>
        <time>2015-08-20T05:25:48.000Z</time>
      </trkpt>
      <trkpt lat="44.93077" lon="6.00159">
        <ele>1718.5999755859</ele>
        <time>2015-08-20T05:25:52.000Z</time>
      </trkpt>
      <trkpt lat="44.93076" lon="6.00163">
        <ele>1720.1999511719</ele>
        <time>2015-08-20T05:25:56.000Z</time>
      </trkpt>
      <trkpt lat="44.93075" lon="6.00166">
        <ele>1720.5999755859</ele>
        <time>2015-08-20T05:26:01.000Z</time>
      </trkpt>
      <trkpt lat="44.93076" lon="6.00169">
        <ele>1720</ele>
        <time>2015-08-20T05:26:05.000Z</time>
      </trkpt>
      <trkpt lat="44.93074" lon="6.00174">
        <ele>1722.4000244141</ele>
        <time>2015-08-20T05:26:10.000Z</time>
      </trkpt>
      <trkpt lat="44.93073" lon="6.00175">
        <ele>1723.1999511719</ele>
        <time>2015-08-20T05:26:11.000Z</time>
      </trkpt>
      <trkpt lat="44.93068" lon="6.00183">
        <ele>1724.5999755859</ele>
        <time>2015-08-20T05:26:16.000Z</time>
      </trkpt>
      <trkpt lat="44.93063" lon="6.00192">
        <ele>1726</ele>
        <time>2015-08-20T05:26:21.000Z</time>
      </trkpt>
      <trkpt lat="44.93059" lon="6.00197">
        <ele>1727.1999511719</ele>
        <time>2015-08-20T05:26:25.000Z</time>
      </trkpt>
      <trkpt lat="44.93061" lon="6.00199">
        <ele>1725.5999755859</ele>
        <time>2015-08-20T05:26:31.000Z</time>
      </trkpt>
      <trkpt lat="44.9306" lon="6.00201">
        <ele>1726</ele>
        <time>2015-08-20T05:26:33.000Z</time>
      </trkpt>
      <trkpt lat="44.9306" lon="6.00205">
        <ele>1725.4000244141</ele>
        <time>2015-08-20T05:26:36.000Z</time>
      </trkpt>
      <trkpt lat="44.93061" lon="6.00205">
        <ele>1724.8000488281</ele>
        <time>2015-08-20T05:26:37.000Z</time>
      </trkpt>
      <trkpt lat="44.93062" lon="6.00206">
        <ele>1724.4000244141</ele>
        <time>2015-08-20T05:26:38.000Z</time>
      </trkpt>
      <trkpt lat="44.9306" lon="6.0021">
        <ele>1724.4000244141</ele>
        <time>2015-08-20T05:26:41.000Z</time>
      </trkpt>
      <trkpt lat="44.93058" lon="6.00214">
        <ele>1725</ele>
        <time>2015-08-20T05:26:45.000Z</time>
      </trkpt>
      <trkpt lat="44.93056" lon="6.00216">
        <ele>1725.5999755859</ele>
        <time>2015-08-20T05:26:50.000Z</time>
      </trkpt>
      <trkpt lat="44.93056" lon="6.00224">
        <ele>1724.5999755859</ele>
        <time>2015-08-20T05:26:57.000Z</time>
      </trkpt>
      <trkpt lat="44.93056" lon="6.00227">
        <ele>1724.5999755859</ele>
        <time>2015-08-20T05:26:59.000Z</time>
      </trkpt>
      <trkpt lat="44.93055" lon="6.00232">
        <ele>1725.5999755859</ele>
        <time>2015-08-20T05:27:06.000Z</time>
      </trkpt>
      <trkpt lat="44.93054" lon="6.00235">
        <ele>1726.8000488281</ele>
        <time>2015-08-20T05:27:08.000Z</time>
      </trkpt>
      <trkpt lat="44.93053" lon="6.00238">
        <ele>1727.4000244141</ele>
        <time>2015-08-20T05:27:10.000Z</time>
      </trkpt>
      <trkpt lat="44.9305" lon="6.00245">
        <ele>1728.4000244141</ele>
        <time>2015-08-20T05:27:15.000Z</time>
      </trkpt>
      <trkpt lat="44.9305" lon="6.00248">
        <ele>1728.5999755859</ele>
        <time>2015-08-20T05:27:17.000Z</time>
      </trkpt>
      <trkpt lat="44.93048" lon="6.0025">
        <ele>1729.1999511719</ele>
        <time>2015-08-20T05:27:18.000Z</time>
      </trkpt>
      <trkpt lat="44.93048" lon="6.00251">
        <ele>1729.4000244141</ele>
        <time>2015-08-20T05:27:19.000Z</time>
      </trkpt>
      <trkpt lat="44.93046" lon="6.00258">
        <ele>1730</ele>
        <time>2015-08-20T05:27:23.000Z</time>
      </trkpt>
      <trkpt lat="44.93045" lon="6.00258">
        <ele>1730.4000244141</ele>
        <time>2015-08-20T05:27:24.000Z</time>
      </trkpt>
      <trkpt lat="44.93045" lon="6.0026">
        <ele>1730.4000244141</ele>
        <time>2015-08-20T05:27:25.000Z</time>
      </trkpt>
      <trkpt lat="44.93044" lon="6.00265">
        <ele>1730.8000488281</ele>
        <time>2015-08-20T05:27:28.000Z</time>
      </trkpt>
      <trkpt lat="44.93042" lon="6.00271">
        <ele>1731.4000244141</ele>
        <time>2015-08-20T05:27:32.000Z</time>
      </trkpt>
      <trkpt lat="44.93042" lon="6.00272">
        <ele>1731</ele>
        <time>2015-08-20T05:27:33.000Z</time>
      </trkpt>
      <trkpt lat="44.93045" lon="6.00277">
        <ele>1730</ele>
        <time>2015-08-20T05:27:39.000Z</time>
      </trkpt>
      <trkpt lat="44.93047" lon="6.00284">
        <ele>1728.5999755859</ele>
        <time>2015-08-20T05:27:44.000Z</time>
      </trkpt>
      <trkpt lat="44.93048" lon="6.00293">
        <ele>1728</ele>
        <time>2015-08-20T05:27:50.000Z</time>
      </trkpt>
      <trkpt lat="44.93048" lon="6.003">
        <ele>1728</ele>
        <time>2015-08-20T05:27:55.000Z</time>
      </trkpt>
      <trkpt lat="44.93051" lon="6.00305">
        <ele>1726.8000488281</ele>
        <time>2015-08-20T05:28:00.000Z</time>
      </trkpt>
      <trkpt lat="44.93052" lon="6.00306">
        <ele>1726.4000244141</ele>
        <time>2015-08-20T05:28:01.000Z</time>
      </trkpt>
      <trkpt lat="44.93052" lon="6.00308">
        <ele>1726.1999511719</ele>
        <time>2015-08-20T05:28:02.000Z</time>
      </trkpt>
      <trkpt lat="44.93053" lon="6.00314">
        <ele>1726.8000488281</ele>
        <time>2015-08-20T05:28:06.000Z</time>
      </trkpt>
      <trkpt lat="44.93053" lon="6.00315">
        <ele>1726.8000488281</ele>
        <time>2015-08-20T05:28:07.000Z</time>
      </trkpt>
      <trkpt lat="44.93055" lon="6.00317">
        <ele>1726.4000244141</ele>
        <time>2015-08-20T05:28:09.000Z</time>
      </trkpt>
      <trkpt lat="44.93055" lon="6.00318">
        <ele>1726.5999755859</ele>
        <time>2015-08-20T05:28:10.000Z</time>
      </trkpt>
      <trkpt lat="44.93055" lon="6.00324">
        <ele>1727.8000488281</ele>
        <time>2015-08-20T05:28:14.000Z</time>
      </trkpt>
      <trkpt lat="44.93054" lon="6.00328">
        <ele>1728.4000244141</ele>
        <time>2015-08-20T05:28:16.000Z</time>
      </trkpt>
      <trkpt lat="44.93054" lon="6.0033">
        <ele>1728.8000488281</ele>
        <time>2015-08-20T05:28:18.000Z</time>
      </trkpt>
      <trkpt lat="44.93054" lon="6.00332">
        <ele>1729</ele>
        <time>2015-08-20T05:28:19.000Z</time>
      </trkpt>
      <trkpt lat="44.93053" lon="6.00339">
        <ele>1730.4000244141</ele>
        <time>2015-08-20T05:28:24.000Z</time>
      </trkpt>
      <trkpt lat="44.93053" lon="6.0034">
        <ele>1730.4000244141</ele>
        <time>2015-08-20T05:28:25.000Z</time>
      </trkpt>
      <trkpt lat="44.93052" lon="6.00344">
        <ele>1731.5999755859</ele>
        <time>2015-08-20T05:28:28.000Z</time>
      </trkpt>
      <trkpt lat="44.93051" lon="6.00352">
        <ele>1733</ele>
        <time>2015-08-20T05:28:34.000Z</time>
      </trkpt>
      <trkpt lat="44.9305" lon="6.00354">
        <ele>1733.4000244141</ele>
        <time>2015-08-20T05:28:36.000Z</time>
      </trkpt>
      <trkpt lat="44.9305" lon="6.00356">
        <ele>1733.8000488281</ele>
        <time>2015-08-20T05:28:37.000Z</time>
      </trkpt>
      <trkpt lat="44.93049" lon="6.00356">
        <ele>1734.1999511719</ele>
        <time>2015-08-20T05:28:38.000Z</time>
      </trkpt>
      <trkpt lat="44.93046" lon="6.00354">
        <ele>1735</ele>
        <time>2015-08-20T05:28:44.000Z</time>
      </trkpt>
      <trkpt lat="44.93042" lon="6.00349">
        <ele>1735.5999755859</ele>
        <time>2015-08-20T05:28:50.000Z</time>
      </trkpt>
      <trkpt lat="44.9304" lon="6.00343">
        <ele>1736.1999511719</ele>
        <time>2015-08-20T05:28:55.000Z</time>
      </trkpt>
      <trkpt lat="44.93038" lon="6.0034">
        <ele>1736.5999755859</ele>
        <time>2015-08-20T05:28:58.000Z</time>
      </trkpt>
      <trkpt lat="44.93037" lon="6.00339">
        <ele>1737</ele>
        <time>2015-08-20T05:29:00.000Z</time>
      </trkpt>
      <trkpt lat="44.93036" lon="6.00338">
        <ele>1737.1999511719</ele>
        <time>2015-08-20T05:29:01.000Z</time>
      </trkpt>
      <trkpt lat="44.93034" lon="6.00334">
        <ele>1738</ele>
        <time>2015-08-20T05:29:05.000Z</time>
      </trkpt>
      <trkpt lat="44.93032" lon="6.00331">
        <ele>1738.5999755859</ele>
        <time>2015-08-20T05:29:08.000Z</time>
      </trkpt>
      <trkpt lat="44.93028" lon="6.00326">
        <ele>1740.1999511719</ele>
        <time>2015-08-20T05:29:13.000Z</time>
      </trkpt>
      <trkpt lat="44.93025" lon="6.0032">
        <ele>1741.1999511719</ele>
        <time>2015-08-20T05:29:18.000Z</time>
      </trkpt>
      <trkpt lat="44.93024" lon="6.00319">
        <ele>1741.4000244141</ele>
        <time>2015-08-20T05:29:19.000Z</time>
      </trkpt>
      <trkpt lat="44.93022" lon="6.00318">
        <ele>1742.4000244141</ele>
        <time>2015-08-20T05:29:23.000Z</time>
      </trkpt>
      <trkpt lat="44.93022" lon="6.00323">
        <ele>1742.8000488281</ele>
        <time>2015-08-20T05:29:27.000Z</time>
      </trkpt>
      <trkpt lat="44.93022" lon="6.0033">
        <ele>1744</ele>
        <time>2015-08-20T05:29:32.000Z</time>
      </trkpt>
      <trkpt lat="44.93022" lon="6.00337">
        <ele>1745</ele>
        <time>2015-08-20T05:29:37.000Z</time>
      </trkpt>
      <trkpt lat="44.93021" lon="6.00343">
        <ele>1746.5999755859</ele>
        <time>2015-08-20T05:29:41.000Z</time>
      </trkpt>
      <trkpt lat="44.93019" lon="6.00347">
        <ele>1748.1999511719</ele>
        <time>2015-08-20T05:29:44.000Z</time>
      </trkpt>
      <trkpt lat="44.93018" lon="6.00348">
        <ele>1748.5999755859</ele>
        <time>2015-08-20T05:29:45.000Z</time>
      </trkpt>
      <trkpt lat="44.93016" lon="6.00353">
        <ele>1750.1999511719</ele>
        <time>2015-08-20T05:29:49.000Z</time>
      </trkpt>
      <trkpt lat="44.93016" lon="6.00354">
        <ele>1750.8000488281</ele>
        <time>2015-08-20T05:29:50.000Z</time>
      </trkpt>
      <trkpt lat="44.93014" lon="6.00358">
        <ele>1752.1999511719</ele>
        <time>2015-08-20T05:29:53.000Z</time>
      </trkpt>
      <trkpt lat="44.93013" lon="6.0036">
        <ele>1753</ele>
        <time>2015-08-20T05:29:55.000Z</time>
      </trkpt>
      <trkpt lat="44.93008" lon="6.00367">
        <ele>1755.4000244141</ele>
        <time>2015-08-20T05:30:01.000Z</time>
      </trkpt>
      <trkpt lat="44.93005" lon="6.00365">
        <ele>1756.8000488281</ele>
        <time>2015-08-20T05:30:07.000Z</time>
      </trkpt>
      <trkpt lat="44.93005" lon="6.00364">
        <ele>1757</ele>
        <time>2015-08-20T05:30:09.000Z</time>
      </trkpt>
      <trkpt lat="44.93004" lon="6.00361">
        <ele>1757.1999511719</ele>
        <time>2015-08-20T05:30:12.000Z</time>
      </trkpt>
      <trkpt lat="44.93002" lon="6.00355">
        <ele>1758</ele>
        <time>2015-08-20T05:30:17.000Z</time>
      </trkpt>
      <trkpt lat="44.92999" lon="6.00349">
        <ele>1759.1999511719</ele>
        <time>2015-08-20T05:30:23.000Z</time>
      </trkpt>
      <trkpt lat="44.92996" lon="6.00344">
        <ele>1760.1999511719</ele>
        <time>2015-08-20T05:30:27.000Z</time>
      </trkpt>
      <trkpt lat="44.92994" lon="6.00338">
        <ele>1760.8000488281</ele>
        <time>2015-08-20T05:30:32.000Z</time>
      </trkpt>
      <trkpt lat="44.92991" lon="6.00333">
        <ele>1761.5999755859</ele>
        <time>2015-08-20T05:30:37.000Z</time>
      </trkpt>
      <trkpt lat="44.92987" lon="6.0033">
        <ele>1763.4000244141</ele>
        <time>2015-08-20T05:30:41.000Z</time>
      </trkpt>
      <trkpt lat="44.92982" lon="6.00328">
        <ele>1766</ele>
        <time>2015-08-20T05:30:47.000Z</time>
      </trkpt>
      <trkpt lat="44.92981" lon="6.00327">
        <ele>1766.5999755859</ele>
        <time>2015-08-20T05:30:48.000Z</time>
      </trkpt>
      <trkpt lat="44.9298" lon="6.00326">
        <ele>1766.8000488281</ele>
        <time>2015-08-20T05:30:49.000Z</time>
      </trkpt>
      <trkpt lat="44.92977" lon="6.00324">
        <ele>1768</ele>
        <time>2015-08-20T05:30:52.000Z</time>
      </trkpt>
      <trkpt lat="44.92972" lon="6.00321">
        <ele>1770.4000244141</ele>
        <time>2015-08-20T05:30:57.000Z</time>
      </trkpt>
      <trkpt lat="44.9297" lon="6.0032">
        <ele>1771.4000244141</ele>
        <time>2015-08-20T05:30:59.000Z</time>
      </trkpt>
      <trkpt lat="44.92967" lon="6.00318">
        <ele>1772.8000488281</ele>
        <time>2015-08-20T05:31:02.000Z</time>
      </trkpt>
      <trkpt lat="44.92963" lon="6.00314">
        <ele>1774.4000244141</ele>
        <time>2015-08-20T05:31:08.000Z</time>
      </trkpt>
      <trkpt lat="44.92963" lon="6.00316">
        <ele>1774.5999755859</ele>
        <time>2015-08-20T05:31:11.000Z</time>
      </trkpt>
      <trkpt lat="44.92963" lon="6.00316">
        <ele>1774.4000244141</ele>
        <time>2015-08-20T05:31:12.000Z</time>
      </trkpt>
      <trkpt lat="44.92963" lon="6.00323">
        <ele>1774.4000244141</ele>
        <time>2015-08-20T05:31:18.000Z</time>
      </trkpt>
      <trkpt lat="44.92962" lon="6.00328">
        <ele>1774.5999755859</ele>
        <time>2015-08-20T05:31:22.000Z</time>
      </trkpt>
      <trkpt lat="44.92962" lon="6.00329">
        <ele>1774.4000244141</ele>
        <time>2015-08-20T05:31:23.000Z</time>
      </trkpt>
      <trkpt lat="44.92962" lon="6.00334">
        <ele>1774.4000244141</ele>
        <time>2015-08-20T05:31:28.000Z</time>
      </trkpt>
      <trkpt lat="44.92962" lon="6.00342">
        <ele>1774.4000244141</ele>
        <time>2015-08-20T05:31:35.000Z</time>
      </trkpt>
      <trkpt lat="44.92959" lon="6.00346">
        <ele>1775.4000244141</ele>
        <time>2015-08-20T05:31:40.000Z</time>
      </trkpt>
      <trkpt lat="44.92956" lon="6.00341">
        <ele>1777</ele>
        <time>2015-08-20T05:31:44.000Z</time>
      </trkpt>
      <trkpt lat="44.92955" lon="6.00341">
        <ele>1777.4000244141</ele>
        <time>2015-08-20T05:31:45.000Z</time>
      </trkpt>
      <trkpt lat="44.92954" lon="6.0034">
        <ele>1778.5999755859</ele>
        <time>2015-08-20T05:31:47.000Z</time>
      </trkpt>
      <trkpt lat="44.92953" lon="6.0034">
        <ele>1779</ele>
        <time>2015-08-20T05:31:48.000Z</time>
      </trkpt>
      <trkpt lat="44.92951" lon="6.00338">
        <ele>1780.4000244141</ele>
        <time>2015-08-20T05:31:51.000Z</time>
      </trkpt>
      <trkpt lat="44.92949" lon="6.00335">
        <ele>1782.1999511719</ele>
        <time>2015-08-20T05:31:54.000Z</time>
      </trkpt>
      <trkpt lat="44.92944" lon="6.00331">
        <ele>1785.4000244141</ele>
        <time>2015-08-20T05:32:00.000Z</time>
      </trkpt>
      <trkpt lat="44.92943" lon="6.0033">
        <ele>1786</ele>
        <time>2015-08-20T05:32:01.000Z</time>
      </trkpt>
      <trkpt lat="44.92941" lon="6.00327">
        <ele>1787.1999511719</ele>
        <time>2015-08-20T05:32:04.000Z</time>
      </trkpt>
      <trkpt lat="44.92939" lon="6.00322">
        <ele>1789</ele>
        <time>2015-08-20T05:32:09.000Z</time>
      </trkpt>
      <trkpt lat="44.92939" lon="6.00319">
        <ele>1789</ele>
        <time>2015-08-20T05:32:11.000Z</time>
      </trkpt>
      <trkpt lat="44.92937" lon="6.00315">
        <ele>1790.5999755859</ele>
        <time>2015-08-20T05:32:15.000Z</time>
      </trkpt>
      <trkpt lat="44.92937" lon="6.00314">
        <ele>1790.8000488281</ele>
        <time>2015-08-20T05:32:16.000Z</time>
      </trkpt>
      <trkpt lat="44.92937" lon="6.00313">
        <ele>1790.5999755859</ele>
        <time>2015-08-20T05:32:17.000Z</time>
      </trkpt>
      <trkpt lat="44.92938" lon="6.00309">
        <ele>1790.4000244141</ele>
        <time>2015-08-20T05:32:21.000Z</time>
      </trkpt>
      <trkpt lat="44.92937" lon="6.00308">
        <ele>1791.1999511719</ele>
        <time>2015-08-20T05:32:25.000Z</time>
      </trkpt>
      <trkpt lat="44.92938" lon="6.00306">
        <ele>1790.5999755859</ele>
        <time>2015-08-20T05:32:30.000Z</time>
      </trkpt>
      <trkpt lat="44.92936" lon="6.00305">
        <ele>1792.4000244141</ele>
        <time>2015-08-20T05:33:13.000Z</time>
      </trkpt>
      <trkpt lat="44.92937" lon="6.00304">
        <ele>1793</ele>
        <time>2015-08-20T05:33:14.000Z</time>
      </trkpt>
      <trkpt lat="44.92936" lon="6.00302">
        <ele>1794</ele>
        <time>2015-08-20T05:33:16.000Z</time>
      </trkpt>
      <trkpt lat="44.92935" lon="6.00302">
        <ele>1794.8000488281</ele>
        <time>2015-08-20T05:33:18.000Z</time>
      </trkpt>
      <trkpt lat="44.92932" lon="6.00303">
        <ele>1796.4000244141</ele>
        <time>2015-08-20T05:33:24.000Z</time>
      </trkpt>
      <trkpt lat="44.9293" lon="6.00304">
        <ele>1797.5999755859</ele>
        <time>2015-08-20T05:33:31.000Z</time>
      </trkpt>
      <trkpt lat="44.92935" lon="6.00301">
        <ele>1795.4000244141</ele>
        <time>2015-08-20T05:33:44.000Z</time>
      </trkpt>
      <trkpt lat="44.92935" lon="6.00298">
        <ele>1796.1999511719</ele>
        <time>2015-08-20T05:33:46.000Z</time>
      </trkpt>
      <trkpt lat="44.92934" lon="6.00298">
        <ele>1797</ele>
        <time>2015-08-20T05:33:47.000Z</time>
      </trkpt>
      <trkpt lat="44.92933" lon="6.00297">
        <ele>1798.1999511719</ele>
        <time>2015-08-20T05:33:49.000Z</time>
      </trkpt>
      <trkpt lat="44.92932" lon="6.00291">
        <ele>1800.5999755859</ele>
        <time>2015-08-20T05:33:53.000Z</time>
      </trkpt>
      <trkpt lat="44.92932" lon="6.00285">
        <ele>1803.1999511719</ele>
        <time>2015-08-20T05:34:00.000Z</time>
      </trkpt>
      <trkpt lat="44.92931" lon="6.00279">
        <ele>1805.1999511719</ele>
        <time>2015-08-20T05:34:04.000Z</time>
      </trkpt>
      <trkpt lat="44.92933" lon="6.00274">
        <ele>1805.1999511719</ele>
        <time>2015-08-20T05:34:07.000Z</time>
      </trkpt>
      <trkpt lat="44.92933" lon="6.00269">
        <ele>1806.4000244141</ele>
        <time>2015-08-20T05:34:10.000Z</time>
      </trkpt>
      <trkpt lat="44.92932" lon="6.00267">
        <ele>1807.1999511719</ele>
        <time>2015-08-20T05:34:12.000Z</time>
      </trkpt>
      <trkpt lat="44.92932" lon="6.00262">
        <ele>1808.8000488281</ele>
        <time>2015-08-20T05:34:14.000Z</time>
      </trkpt>
      <trkpt lat="44.92935" lon="6.00251">
        <ele>1808.4000244141</ele>
        <time>2015-08-20T05:34:20.000Z</time>
      </trkpt>
      <trkpt lat="44.92937" lon="6.0025">
        <ele>1807.5999755859</ele>
        <time>2015-08-20T05:34:22.000Z</time>
      </trkpt>
      <trkpt lat="44.92937" lon="6.00251">
        <ele>1807</ele>
        <time>2015-08-20T05:34:24.000Z</time>
      </trkpt>
      <trkpt lat="44.92937" lon="6.00253">
        <ele>1807</ele>
        <time>2015-08-20T05:34:27.000Z</time>
      </trkpt>
      <trkpt lat="44.92937" lon="6.00253">
        <ele>1806.5999755859</ele>
        <time>2015-08-20T05:34:28.000Z</time>
      </trkpt>
      <trkpt lat="44.92935" lon="6.00258">
        <ele>1807.4000244141</ele>
        <time>2015-08-20T05:34:33.000Z</time>
      </trkpt>
      <trkpt lat="44.92935" lon="6.00261">
        <ele>1806.8000488281</ele>
        <time>2015-08-20T05:34:37.000Z</time>
      </trkpt>
      <trkpt lat="44.92934" lon="6.00263">
        <ele>1806.5999755859</ele>
        <time>2015-08-20T05:34:42.000Z</time>
      </trkpt>
      <trkpt lat="44.92931" lon="6.00264">
        <ele>1808.8000488281</ele>
        <time>2015-08-20T05:34:45.000Z</time>
      </trkpt>
      <trkpt lat="44.92929" lon="6.00268">
        <ele>1810.4000244141</ele>
        <time>2015-08-20T05:34:48.000Z</time>
      </trkpt>
      <trkpt lat="44.92929" lon="6.0027">
        <ele>1809.8000488281</ele>
        <time>2015-08-20T05:34:51.000Z</time>
      </trkpt>
      <trkpt lat="44.92929" lon="6.0027">
        <ele>1809.4000244141</ele>
        <time>2015-08-20T05:34:52.000Z</time>
      </trkpt>
      <trkpt lat="44.92927" lon="6.00274">
        <ele>1810.1999511719</ele>
        <time>2015-08-20T05:34:56.000Z</time>
      </trkpt>
      <trkpt lat="44.92926" lon="6.00275">
        <ele>1810.4000244141</ele>
        <time>2015-08-20T05:34:58.000Z</time>
      </trkpt>
      <trkpt lat="44.92924" lon="6.00281">
        <ele>1810.5999755859</ele>
        <time>2015-08-20T05:35:05.000Z</time>
      </trkpt>
      <trkpt lat="44.92923" lon="6.00282">
        <ele>1811</ele>
        <time>2015-08-20T05:35:06.000Z</time>
      </trkpt>
      <trkpt lat="44.9292" lon="6.00283">
        <ele>1811.8000488281</ele>
        <time>2015-08-20T05:35:08.000Z</time>
      </trkpt>
      <trkpt lat="44.9292" lon="6.00284">
        <ele>1812.1999511719</ele>
        <time>2015-08-20T05:35:09.000Z</time>
      </trkpt>
      <trkpt lat="44.92913" lon="6.00288">
        <ele>1814.5999755859</ele>
        <time>2015-08-20T05:35:16.000Z</time>
      </trkpt>
      <trkpt lat="44.92913" lon="6.0029">
        <ele>1814.5999755859</ele>
        <time>2015-08-20T05:35:17.000Z</time>
      </trkpt>
      <trkpt lat="44.92914" lon="6.00292">
        <ele>1812.5999755859</ele>
        <time>2015-08-20T05:35:19.000Z</time>
      </trkpt>
      <trkpt lat="44.92911" lon="6.00297">
        <ele>1813</ele>
        <time>2015-08-20T05:35:22.000Z</time>
      </trkpt>
      <trkpt lat="44.92911" lon="6.00298">
        <ele>1812.5999755859</ele>
        <time>2015-08-20T05:35:23.000Z</time>
      </trkpt>
      <trkpt lat="44.92909" lon="6.003">
        <ele>1812.8000488281</ele>
        <time>2015-08-20T05:35:26.000Z</time>
      </trkpt>
      <trkpt lat="44.92907" lon="6.00301">
        <ele>1813.8000488281</ele>
        <time>2015-08-20T05:35:28.000Z</time>
      </trkpt>
      <trkpt lat="44.92905" lon="6.00307">
        <ele>1813.4000244141</ele>
        <time>2015-08-20T05:35:32.000Z</time>
      </trkpt>
      <trkpt lat="44.92903" lon="6.0031">
        <ele>1813.8000488281</ele>
        <time>2015-08-20T05:35:36.000Z</time>
      </trkpt>
      <trkpt lat="44.92903" lon="6.00311">
        <ele>1813.8000488281</ele>
        <time>2015-08-20T05:35:37.000Z</time>
      </trkpt>
      <trkpt lat="44.92901" lon="6.00315">
        <ele>1815.5999755859</ele>
        <time>2015-08-20T05:35:40.000Z</time>
      </trkpt>
      <trkpt lat="44.92898" lon="6.00318">
        <ele>1817.5999755859</ele>
        <time>2015-08-20T05:35:42.000Z</time>
      </trkpt>
      <trkpt lat="44.92893" lon="6.00322">
        <ele>1820.5999755859</ele>
        <time>2015-08-20T05:35:45.000Z</time>
      </trkpt>
      <trkpt lat="44.92893" lon="6.00322">
        <ele>1820.5999755859</ele>
        <time>2015-08-20T05:35:46.000Z</time>
      </trkpt>
      <trkpt lat="44.92887" lon="6.00328">
        <ele>1824.4000244141</ele>
        <time>2015-08-20T05:35:51.000Z</time>
      </trkpt>
      <trkpt lat="44.92882" lon="6.00335">
        <ele>1827</ele>
        <time>2015-08-20T05:35:56.000Z</time>
      </trkpt>
      <trkpt lat="44.9288" lon="6.00339">
        <ele>1827.8000488281</ele>
        <time>2015-08-20T05:36:01.000Z</time>
      </trkpt>
      <trkpt lat="44.92879" lon="6.00345">
        <ele>1827.8000488281</ele>
        <time>2015-08-20T05:36:06.000Z</time>
      </trkpt>
      <trkpt lat="44.92879" lon="6.00346">
        <ele>1827.8000488281</ele>
        <time>2015-08-20T05:36:07.000Z</time>
      </trkpt>
      <trkpt lat="44.92877" lon="6.00351">
        <ele>1828.5999755859</ele>
        <time>2015-08-20T05:36:12.000Z</time>
      </trkpt>
      <trkpt lat="44.92877" lon="6.00352">
        <ele>1828.4000244141</ele>
        <time>2015-08-20T05:36:13.000Z</time>
      </trkpt>
      <trkpt lat="44.92876" lon="6.00353">
        <ele>1829</ele>
        <time>2015-08-20T05:36:15.000Z</time>
      </trkpt>
      <trkpt lat="44.92875" lon="6.00358">
        <ele>1829.4000244141</ele>
        <time>2015-08-20T05:36:18.000Z</time>
      </trkpt>
      <trkpt lat="44.9287" lon="6.00364">
        <ele>1831.8000488281</ele>
        <time>2015-08-20T05:36:23.000Z</time>
      </trkpt>
      <trkpt lat="44.92865" lon="6.00366">
        <ele>1834.5999755859</ele>
        <time>2015-08-20T05:36:26.000Z</time>
      </trkpt>
      <trkpt lat="44.92862" lon="6.00369">
        <ele>1836.8000488281</ele>
        <time>2015-08-20T05:36:29.000Z</time>
      </trkpt>
      <trkpt lat="44.9286" lon="6.00367">
        <ele>1837.8000488281</ele>
        <time>2015-08-20T05:36:33.000Z</time>
      </trkpt>
      <trkpt lat="44.92861" lon="6.00365">
        <ele>1837.4000244141</ele>
        <time>2015-08-20T05:36:39.000Z</time>
      </trkpt>
      <trkpt lat="44.92859" lon="6.00362">
        <ele>1839</ele>
        <time>2015-08-20T05:36:42.000Z</time>
      </trkpt>
      <trkpt lat="44.9286" lon="6.00359">
        <ele>1838.5999755859</ele>
        <time>2015-08-20T05:36:44.000Z</time>
      </trkpt>
      <trkpt lat="44.92862" lon="6.00352">
        <ele>1837.8000488281</ele>
        <time>2015-08-20T05:36:48.000Z</time>
      </trkpt>
      <trkpt lat="44.92864" lon="6.00346">
        <ele>1837</ele>
        <time>2015-08-20T05:36:52.000Z</time>
      </trkpt>
      <trkpt lat="44.92864" lon="6.00345">
        <ele>1837.1999511719</ele>
        <time>2015-08-20T05:36:53.000Z</time>
      </trkpt>
      <trkpt lat="44.92862" lon="6.00342">
        <ele>1838.5999755859</ele>
        <time>2015-08-20T05:36:55.000Z</time>
      </trkpt>
      <trkpt lat="44.92862" lon="6.00341">
        <ele>1839</ele>
        <time>2015-08-20T05:36:56.000Z</time>
      </trkpt>
      <trkpt lat="44.92861" lon="6.00339">
        <ele>1839.4000244141</ele>
        <time>2015-08-20T05:36:57.000Z</time>
      </trkpt>
      <trkpt lat="44.92862" lon="6.00334">
        <ele>1839.1999511719</ele>
        <time>2015-08-20T05:37:00.000Z</time>
      </trkpt>
      <trkpt lat="44.92861" lon="6.0033">
        <ele>1840.4000244141</ele>
        <time>2015-08-20T05:37:04.000Z</time>
      </trkpt>
      <trkpt lat="44.92859" lon="6.00328">
        <ele>1842</ele>
        <time>2015-08-20T05:37:07.000Z</time>
      </trkpt>
      <trkpt lat="44.92858" lon="6.00326">
        <ele>1842.8000488281</ele>
        <time>2015-08-20T05:37:09.000Z</time>
      </trkpt>
      <trkpt lat="44.92858" lon="6.00325">
        <ele>1842.5999755859</ele>
        <time>2015-08-20T05:37:10.000Z</time>
      </trkpt>
      <trkpt lat="44.92856" lon="6.00323">
        <ele>1844</ele>
        <time>2015-08-20T05:37:14.000Z</time>
      </trkpt>
      <trkpt lat="44.92856" lon="6.0032">
        <ele>1844.1999511719</ele>
        <time>2015-08-20T05:37:15.000Z</time>
      </trkpt>
      <trkpt lat="44.92858" lon="6.00314">
        <ele>1843.5999755859</ele>
        <time>2015-08-20T05:37:19.000Z</time>
      </trkpt>
      <trkpt lat="44.92859" lon="6.00306">
        <ele>1844.1999511719</ele>
        <time>2015-08-20T05:37:23.000Z</time>
      </trkpt>
      <trkpt lat="44.9286" lon="6.00302">
        <ele>1845.8000488281</ele>
        <time>2015-08-20T05:37:25.000Z</time>
      </trkpt>
      <trkpt lat="44.92859" lon="6.00298">
        <ele>1848.4000244141</ele>
        <time>2015-08-20T05:37:28.000Z</time>
      </trkpt>
      <trkpt lat="44.92859" lon="6.00296">
        <ele>1849.1999511719</ele>
        <time>2015-08-20T05:37:30.000Z</time>
      </trkpt>
      <trkpt lat="44.9286" lon="6.00294">
        <ele>1849.5999755859</ele>
        <time>2015-08-20T05:37:31.000Z</time>
      </trkpt>
      <trkpt lat="44.92863" lon="6.00289">
        <ele>1849.4000244141</ele>
        <time>2015-08-20T05:37:34.000Z</time>
      </trkpt>
      <trkpt lat="44.92867" lon="6.00286">
        <ele>1847.8000488281</ele>
        <time>2015-08-20T05:37:37.000Z</time>
      </trkpt>
      <trkpt lat="44.92867" lon="6.00286">
        <ele>1847.8000488281</ele>
        <time>2015-08-20T05:37:41.000Z</time>
      </trkpt>
      <trkpt lat="44.92867" lon="6.00289">
        <ele>1846.4000244141</ele>
        <time>2015-08-20T05:37:46.000Z</time>
      </trkpt>
      <trkpt lat="44.92864" lon="6.00292">
        <ele>1847.5999755859</ele>
        <time>2015-08-20T05:37:49.000Z</time>
      </trkpt>
      <trkpt lat="44.92863" lon="6.00293">
        <ele>1847.5999755859</ele>
        <time>2015-08-20T05:37:50.000Z</time>
      </trkpt>
      <trkpt lat="44.92861" lon="6.00298">
        <ele>1846.5999755859</ele>
        <time>2015-08-20T05:37:55.000Z</time>
      </trkpt>
      <trkpt lat="44.92852" lon="6.00305">
        <ele>1849.5999755859</ele>
        <time>2015-08-20T05:38:00.000Z</time>
      </trkpt>
      <trkpt lat="44.92847" lon="6.00311">
        <ele>1851.1999511719</ele>
        <time>2015-08-20T05:38:05.000Z</time>
      </trkpt>
      <trkpt lat="44.92847" lon="6.00311">
        <ele>1850.8000488281</ele>
        <time>2015-08-20T05:38:06.000Z</time>
      </trkpt>
      <trkpt lat="44.92846" lon="6.00315">
        <ele>1851.4000244141</ele>
        <time>2015-08-20T05:38:10.000Z</time>
      </trkpt>
      <trkpt lat="44.92841" lon="6.00318">
        <ele>1854.4000244141</ele>
        <time>2015-08-20T05:38:17.000Z</time>
      </trkpt>
      <trkpt lat="44.92837" lon="6.00323">
        <ele>1856</ele>
        <time>2015-08-20T05:38:23.000Z</time>
      </trkpt>
      <trkpt lat="44.92834" lon="6.00325">
        <ele>1857.8000488281</ele>
        <time>2015-08-20T05:38:28.000Z</time>
      </trkpt>
      <trkpt lat="44.92834" lon="6.00329">
        <ele>1857.4000244141</ele>
        <time>2015-08-20T05:38:33.000Z</time>
      </trkpt>
      <trkpt lat="44.92833" lon="6.0033">
        <ele>1858.4000244141</ele>
        <time>2015-08-20T05:38:35.000Z</time>
      </trkpt>
      <trkpt lat="44.9283" lon="6.00334">
        <ele>1859.4000244141</ele>
        <time>2015-08-20T05:38:38.000Z</time>
      </trkpt>
      <trkpt lat="44.92828" lon="6.00336">
        <ele>1860.5999755859</ele>
        <time>2015-08-20T05:38:44.000Z</time>
      </trkpt>
      <trkpt lat="44.92827" lon="6.00339">
        <ele>1861</ele>
        <time>2015-08-20T05:38:46.000Z</time>
      </trkpt>
      <trkpt lat="44.92825" lon="6.00341">
        <ele>1862.1999511719</ele>
        <time>2015-08-20T05:38:48.000Z</time>
      </trkpt>
      <trkpt lat="44.92823" lon="6.00344">
        <ele>1863.4000244141</ele>
        <time>2015-08-20T05:38:50.000Z</time>
      </trkpt>
      <trkpt lat="44.92817" lon="6.0035">
        <ele>1865.8000488281</ele>
        <time>2015-08-20T05:38:55.000Z</time>
      </trkpt>
      <trkpt lat="44.92814" lon="6.00353">
        <ele>1867.1999511719</ele>
        <time>2015-08-20T05:38:58.000Z</time>
      </trkpt>
      <trkpt lat="44.92811" lon="6.00357">
        <ele>1868.1999511719</ele>
        <time>2015-08-20T05:39:01.000Z</time>
      </trkpt>
      <trkpt lat="44.92809" lon="6.00359">
        <ele>1869.1999511719</ele>
        <time>2015-08-20T05:39:04.000Z</time>
      </trkpt>
      <trkpt lat="44.92808" lon="6.0036">
        <ele>1869.1999511719</ele>
        <time>2015-08-20T05:39:05.000Z</time>
      </trkpt>
      <trkpt lat="44.92807" lon="6.00363">
        <ele>1869.8000488281</ele>
        <time>2015-08-20T05:39:08.000Z</time>
      </trkpt>
      <trkpt lat="44.92803" lon="6.00366">
        <ele>1871.1999511719</ele>
        <time>2015-08-20T05:39:13.000Z</time>
      </trkpt>
      <trkpt lat="44.92801" lon="6.00369">
        <ele>1872.4000244141</ele>
        <time>2015-08-20T05:39:18.000Z</time>
      </trkpt>
      <trkpt lat="44.92798" lon="6.00373">
        <ele>1873.1999511719</ele>
        <time>2015-08-20T05:39:23.000Z</time>
      </trkpt>
      <trkpt lat="44.92795" lon="6.00377">
        <ele>1874.1999511719</ele>
        <time>2015-08-20T05:39:29.000Z</time>
      </trkpt>
      <trkpt lat="44.92794" lon="6.0038">
        <ele>1874.5999755859</ele>
        <time>2015-08-20T05:39:33.000Z</time>
      </trkpt>
      <trkpt lat="44.92791" lon="6.00385">
        <ele>1875.5999755859</ele>
        <time>2015-08-20T05:39:39.000Z</time>
      </trkpt>
      <trkpt lat="44.9279" lon="6.00389">
        <ele>1875.8000488281</ele>
        <time>2015-08-20T05:39:43.000Z</time>
      </trkpt>
      <trkpt lat="44.92788" lon="6.00393">
        <ele>1877.1999511719</ele>
        <time>2015-08-20T05:39:48.000Z</time>
      </trkpt>
      <trkpt lat="44.92786" lon="6.00397">
        <ele>1879.1999511719</ele>
        <time>2015-08-20T05:39:54.000Z</time>
      </trkpt>
      <trkpt lat="44.92784" lon="6.00401">
        <ele>1880.8000488281</ele>
        <time>2015-08-20T05:39:59.000Z</time>
      </trkpt>
      <trkpt lat="44.92783" lon="6.00404">
        <ele>1882.4000244141</ele>
        <time>2015-08-20T05:40:06.000Z</time>
      </trkpt>
      <trkpt lat="44.9278" lon="6.00406">
        <ele>1884.4000244141</ele>
        <time>2015-08-20T05:40:10.000Z</time>
      </trkpt>
      <trkpt lat="44.92779" lon="6.00406">
        <ele>1885.1999511719</ele>
        <time>2015-08-20T05:40:11.000Z</time>
      </trkpt>
      <trkpt lat="44.92778" lon="6.00403">
        <ele>1885.8000488281</ele>
        <time>2015-08-20T05:40:16.000Z</time>
      </trkpt>
      <trkpt lat="44.92777" lon="6.00397">
        <ele>1886.4000244141</ele>
        <time>2015-08-20T05:40:21.000Z</time>
      </trkpt>
      <trkpt lat="44.92777" lon="6.00389">
        <ele>1886.4000244141</ele>
        <time>2015-08-20T05:40:28.000Z</time>
      </trkpt>
      <trkpt lat="44.92776" lon="6.00385">
        <ele>1886.4000244141</ele>
        <time>2015-08-20T05:40:32.000Z</time>
      </trkpt>
      <trkpt lat="44.92776" lon="6.00384">
        <ele>1886.4000244141</ele>
        <time>2015-08-20T05:40:33.000Z</time>
      </trkpt>
      <trkpt lat="44.92775" lon="6.00379">
        <ele>1887.1999511719</ele>
        <time>2015-08-20T05:40:41.000Z</time>
      </trkpt>
      <trkpt lat="44.92774" lon="6.00374">
        <ele>1888.4000244141</ele>
        <time>2015-08-20T05:40:49.000Z</time>
      </trkpt>
      <trkpt lat="44.92774" lon="6.00371">
        <ele>1888.8000488281</ele>
        <time>2015-08-20T05:40:53.000Z</time>
      </trkpt>
      <trkpt lat="44.92773" lon="6.00365">
        <ele>1890</ele>
        <time>2015-08-20T05:40:58.000Z</time>
      </trkpt>
      <trkpt lat="44.92773" lon="6.00359">
        <ele>1891</ele>
        <time>2015-08-20T05:41:03.000Z</time>
      </trkpt>
      <trkpt lat="44.92773" lon="6.00356">
        <ele>1891.4000244141</ele>
        <time>2015-08-20T05:41:06.000Z</time>
      </trkpt>
      <trkpt lat="44.92773" lon="6.00354">
        <ele>1891.5999755859</ele>
        <time>2015-08-20T05:41:08.000Z</time>
      </trkpt>
      <trkpt lat="44.92772" lon="6.00349">
        <ele>1893</ele>
        <time>2015-08-20T05:41:12.000Z</time>
      </trkpt>
      <trkpt lat="44.92773" lon="6.00344">
        <ele>1893.5999755859</ele>
        <time>2015-08-20T05:41:17.000Z</time>
      </trkpt>
      <trkpt lat="44.92772" lon="6.00338">
        <ele>1894.8000488281</ele>
        <time>2015-08-20T05:41:22.000Z</time>
      </trkpt>
      <trkpt lat="44.92773" lon="6.00332">
        <ele>1895.1999511719</ele>
        <time>2015-08-20T05:41:27.000Z</time>
      </trkpt>
      <trkpt lat="44.92773" lon="6.00329">
        <ele>1895.1999511719</ele>
        <time>2015-08-20T05:41:31.000Z</time>
      </trkpt>
      <trkpt lat="44.92773" lon="6.00325">
        <ele>1896.1999511719</ele>
        <time>2015-08-20T05:41:36.000Z</time>
      </trkpt>
      <trkpt lat="44.92776" lon="6.0032">
        <ele>1894.8000488281</ele>
        <time>2015-08-20T05:41:41.000Z</time>
      </trkpt>
      <trkpt lat="44.92779" lon="6.00316">
        <ele>1893.1999511719</ele>
        <time>2015-08-20T05:41:46.000Z</time>
      </trkpt>
      <trkpt lat="44.92779" lon="6.00314">
        <ele>1893.8000488281</ele>
        <time>2015-08-20T05:41:52.000Z</time>
      </trkpt>
      <trkpt lat="44.92782" lon="6.00306">
        <ele>1893.4000244141</ele>
        <time>2015-08-20T05:41:58.000Z</time>
      </trkpt>
      <trkpt lat="44.9278" lon="6.00308">
        <ele>1893.8000488281</ele>
        <time>2015-08-20T05:42:00.000Z</time>
      </trkpt>
      <trkpt lat="44.92779" lon="6.0031">
        <ele>1894</ele>
        <time>2015-08-20T05:42:02.000Z</time>
      </trkpt>
      <trkpt lat="44.92781" lon="6.00309">
        <ele>1893</ele>
        <time>2015-08-20T05:42:08.000Z</time>
      </trkpt>
      <trkpt lat="44.92779" lon="6.00312">
        <ele>1894.1999511719</ele>
        <time>2015-08-20T05:42:15.000Z</time>
      </trkpt>
      <trkpt lat="44.92777" lon="6.00314">
        <ele>1894.8000488281</ele>
        <time>2015-08-20T05:42:21.000Z</time>
      </trkpt>
      <trkpt lat="44.9277" lon="6.00319">
        <ele>1899</ele>
        <time>2015-08-20T05:42:26.000Z</time>
      </trkpt>
      <trkpt lat="44.92768" lon="6.00319">
        <ele>1899.8000488281</ele>
        <time>2015-08-20T05:42:27.000Z</time>
      </trkpt>
      <trkpt lat="44.92765" lon="6.00321">
        <ele>1901.8000488281</ele>
        <time>2015-08-20T05:42:31.000Z</time>
      </trkpt>
      <trkpt lat="44.92761" lon="6.00323">
        <ele>1904.4000244141</ele>
        <time>2015-08-20T05:42:36.000Z</time>
      </trkpt>
      <trkpt lat="44.92759" lon="6.00325">
        <ele>1904.8000488281</ele>
        <time>2015-08-20T05:42:39.000Z</time>
      </trkpt>
      <trkpt lat="44.92757" lon="6.00327">
        <ele>1905.8000488281</ele>
        <time>2015-08-20T05:42:41.000Z</time>
      </trkpt>
      <trkpt lat="44.92755" lon="6.00328">
        <ele>1907.4000244141</ele>
        <time>2015-08-20T05:42:44.000Z</time>
      </trkpt>
      <trkpt lat="44.92754" lon="6.00328">
        <ele>1908</ele>
        <time>2015-08-20T05:42:45.000Z</time>
      </trkpt>
      <trkpt lat="44.92751" lon="6.0033">
        <ele>1909.4000244141</ele>
        <time>2015-08-20T05:42:48.000Z</time>
      </trkpt>
      <trkpt lat="44.92748" lon="6.00336">
        <ele>1910.5999755859</ele>
        <time>2015-08-20T05:42:53.000Z</time>
      </trkpt>
      <trkpt lat="44.92746" lon="6.00337">
        <ele>1912</ele>
        <time>2015-08-20T05:42:56.000Z</time>
      </trkpt>
      <trkpt lat="44.92745" lon="6.00337">
        <ele>1912.4000244141</ele>
        <time>2015-08-20T05:42:57.000Z</time>
      </trkpt>
      <trkpt lat="44.92744" lon="6.00338">
        <ele>1912.8000488281</ele>
        <time>2015-08-20T05:42:58.000Z</time>
      </trkpt>
      <trkpt lat="44.92741" lon="6.00341">
        <ele>1914.1999511719</ele>
        <time>2015-08-20T05:43:02.000Z</time>
      </trkpt>
      <trkpt lat="44.9274" lon="6.00344">
        <ele>1915.4000244141</ele>
        <time>2015-08-20T05:43:04.000Z</time>
      </trkpt>
      <trkpt lat="44.92739" lon="6.00344">
        <ele>1916</ele>
        <time>2015-08-20T05:43:05.000Z</time>
      </trkpt>
      <trkpt lat="44.92737" lon="6.00346">
        <ele>1917.1999511719</ele>
        <time>2015-08-20T05:43:07.000Z</time>
      </trkpt>
      <trkpt lat="44.92734" lon="6.0035">
        <ele>1920</ele>
        <time>2015-08-20T05:43:12.000Z</time>
      </trkpt>
      <trkpt lat="44.92731" lon="6.00352">
        <ele>1922.4000244141</ele>
        <time>2015-08-20T05:43:15.000Z</time>
      </trkpt>
      <trkpt lat="44.92731" lon="6.0035">
        <ele>1923.1999511719</ele>
        <time>2015-08-20T05:43:17.000Z</time>
      </trkpt>
      <trkpt lat="44.92731" lon="6.00345">
        <ele>1922.8000488281</ele>
        <time>2015-08-20T05:43:23.000Z</time>
      </trkpt>
      <trkpt lat="44.92731" lon="6.0034">
        <ele>1922.1999511719</ele>
        <time>2015-08-20T05:43:28.000Z</time>
      </trkpt>
      <trkpt lat="44.92732" lon="6.00332">
        <ele>1921.8000488281</ele>
        <time>2015-08-20T05:43:33.000Z</time>
      </trkpt>
      <trkpt lat="44.92731" lon="6.00328">
        <ele>1922.4000244141</ele>
        <time>2015-08-20T05:43:38.000Z</time>
      </trkpt>
      <trkpt lat="44.92732" lon="6.0032">
        <ele>1923</ele>
        <time>2015-08-20T05:43:44.000Z</time>
      </trkpt>
      <trkpt lat="44.92732" lon="6.00313">
        <ele>1924.1999511719</ele>
        <time>2015-08-20T05:43:50.000Z</time>
      </trkpt>
      <trkpt lat="44.92734" lon="6.00311">
        <ele>1923.4000244141</ele>
        <time>2015-08-20T05:43:53.000Z</time>
      </trkpt>
      <trkpt lat="44.92734" lon="6.00309">
        <ele>1923.5999755859</ele>
        <time>2015-08-20T05:43:55.000Z</time>
      </trkpt>
      <trkpt lat="44.92735" lon="6.00303">
        <ele>1924.5999755859</ele>
        <time>2015-08-20T05:44:00.000Z</time>
      </trkpt>
      <trkpt lat="44.92737" lon="6.00298">
        <ele>1925</ele>
        <time>2015-08-20T05:44:06.000Z</time>
      </trkpt>
      <trkpt lat="44.92737" lon="6.00295">
        <ele>1926</ele>
        <time>2015-08-20T05:44:11.000Z</time>
      </trkpt>
      <trkpt lat="44.92738" lon="6.0029">
        <ele>1926.5999755859</ele>
        <time>2015-08-20T05:44:18.000Z</time>
      </trkpt>
      <trkpt lat="44.92739" lon="6.00288">
        <ele>1926.5999755859</ele>
        <time>2015-08-20T05:44:20.000Z</time>
      </trkpt>
      <trkpt lat="44.9274" lon="6.00284">
        <ele>1927</ele>
        <time>2015-08-20T05:44:25.000Z</time>
      </trkpt>
      <trkpt lat="44.92742" lon="6.0028">
        <ele>1926.8000488281</ele>
        <time>2015-08-20T05:44:31.000Z</time>
      </trkpt>
      <trkpt lat="44.92744" lon="6.00276">
        <ele>1926.5999755859</ele>
        <time>2015-08-20T05:44:35.000Z</time>
      </trkpt>
      <trkpt lat="44.92747" lon="6.00266">
        <ele>1927.5999755859</ele>
        <time>2015-08-20T05:44:44.000Z</time>
      </trkpt>
      <trkpt lat="44.92743" lon="6.00264">
        <ele>1931.1999511719</ele>
        <time>2015-08-20T05:45:05.000Z</time>
      </trkpt>
      <trkpt lat="44.92741" lon="6.00268">
        <ele>1931.4000244141</ele>
        <time>2015-08-20T05:45:09.000Z</time>
      </trkpt>
      <trkpt lat="44.92736" lon="6.00273">
        <ele>1933.1999511719</ele>
        <time>2015-08-20T05:45:14.000Z</time>
      </trkpt>
      <trkpt lat="44.92733" lon="6.00276">
        <ele>1933.8000488281</ele>
        <time>2015-08-20T05:45:16.000Z</time>
      </trkpt>
      <trkpt lat="44.92731" lon="6.00277">
        <ele>1935</ele>
        <time>2015-08-20T05:45:18.000Z</time>
      </trkpt>
      <trkpt lat="44.92729" lon="6.00277">
        <ele>1936.1999511719</ele>
        <time>2015-08-20T05:45:22.000Z</time>
      </trkpt>
      <trkpt lat="44.92725" lon="6.0028">
        <ele>1938</ele>
        <time>2015-08-20T05:45:28.000Z</time>
      </trkpt>
      <trkpt lat="44.92721" lon="6.0028">
        <ele>1940.4000244141</ele>
        <time>2015-08-20T05:45:34.000Z</time>
      </trkpt>
      <trkpt lat="44.92716" lon="6.00281">
        <ele>1943.4000244141</ele>
        <time>2015-08-20T05:45:40.000Z</time>
      </trkpt>
      <trkpt lat="44.92714" lon="6.00279">
        <ele>1945.5999755859</ele>
        <time>2015-08-20T05:45:43.000Z</time>
      </trkpt>
      <trkpt lat="44.92713" lon="6.00278">
        <ele>1946.1999511719</ele>
        <time>2015-08-20T05:45:45.000Z</time>
      </trkpt>
      <trkpt lat="44.92709" lon="6.00282">
        <ele>1947.5999755859</ele>
        <time>2015-08-20T05:45:49.000Z</time>
      </trkpt>
      <trkpt lat="44.92707" lon="6.00285">
        <ele>1948.1999511719</ele>
        <time>2015-08-20T05:45:52.000Z</time>
      </trkpt>
      <trkpt lat="44.92704" lon="6.00289">
        <ele>1948</ele>
        <time>2015-08-20T05:45:54.000Z</time>
      </trkpt>
      <trkpt lat="44.92701" lon="6.00293">
        <ele>1947.8000488281</ele>
        <time>2015-08-20T05:45:57.000Z</time>
      </trkpt>
      <trkpt lat="44.927" lon="6.00293">
        <ele>1948.4000244141</ele>
        <time>2015-08-20T05:45:59.000Z</time>
      </trkpt>
      <trkpt lat="44.92697" lon="6.00294">
        <ele>1948.8000488281</ele>
        <time>2015-08-20T05:46:03.000Z</time>
      </trkpt>
      <trkpt lat="44.92695" lon="6.00296">
        <ele>1949.1999511719</ele>
        <time>2015-08-20T05:46:07.000Z</time>
      </trkpt>
      <trkpt lat="44.92692" lon="6.00299">
        <ele>1950.4000244141</ele>
        <time>2015-08-20T05:46:10.000Z</time>
      </trkpt>
      <trkpt lat="44.9269" lon="6.00302">
        <ele>1951.4000244141</ele>
        <time>2015-08-20T05:46:12.000Z</time>
      </trkpt>
      <trkpt lat="44.92686" lon="6.00304">
        <ele>1953.4000244141</ele>
        <time>2015-08-20T05:46:16.000Z</time>
      </trkpt>
      <trkpt lat="44.92685" lon="6.00303">
        <ele>1954</ele>
        <time>2015-08-20T05:46:17.000Z</time>
      </trkpt>
      <trkpt lat="44.92684" lon="6.00302">
        <ele>1954.4000244141</ele>
        <time>2015-08-20T05:46:18.000Z</time>
      </trkpt>
      <trkpt lat="44.92684" lon="6.00301">
        <ele>1955</ele>
        <time>2015-08-20T05:46:20.000Z</time>
      </trkpt>
      <trkpt lat="44.92684" lon="6.00299">
        <ele>1954.8000488281</ele>
        <time>2015-08-20T05:46:21.000Z</time>
      </trkpt>
      <trkpt lat="44.92685" lon="6.00296">
        <ele>1954.5999755859</ele>
        <time>2015-08-20T05:46:24.000Z</time>
      </trkpt>
      <trkpt lat="44.92686" lon="6.00295">
        <ele>1954.1999511719</ele>
        <time>2015-08-20T05:46:25.000Z</time>
      </trkpt>
      <trkpt lat="44.92687" lon="6.00292">
        <ele>1953.8000488281</ele>
        <time>2015-08-20T05:46:29.000Z</time>
      </trkpt>
      <trkpt lat="44.92688" lon="6.00287">
        <ele>1954.1999511719</ele>
        <time>2015-08-20T05:46:33.000Z</time>
      </trkpt>
      <trkpt lat="44.92688" lon="6.00286">
        <ele>1954.4000244141</ele>
        <time>2015-08-20T05:46:34.000Z</time>
      </trkpt>
      <trkpt lat="44.92689" lon="6.00281">
        <ele>1955.8000488281</ele>
        <time>2015-08-20T05:46:38.000Z</time>
      </trkpt>
      <trkpt lat="44.92689" lon="6.00278">
        <ele>1956.5999755859</ele>
        <time>2015-08-20T05:46:42.000Z</time>
      </trkpt>
      <trkpt lat="44.9269" lon="6.00276">
        <ele>1957</ele>
        <time>2015-08-20T05:46:43.000Z</time>
      </trkpt>
      <trkpt lat="44.92691" lon="6.00273">
        <ele>1957.4000244141</ele>
        <time>2015-08-20T05:46:47.000Z</time>
      </trkpt>
      <trkpt lat="44.92693" lon="6.00269">
        <ele>1958</ele>
        <time>2015-08-20T05:46:51.000Z</time>
      </trkpt>
      <trkpt lat="44.92695" lon="6.00264">
        <ele>1958.5999755859</ele>
        <time>2015-08-20T05:46:56.000Z</time>
      </trkpt>
      <trkpt lat="44.92691" lon="6.00263">
        <ele>1960.5999755859</ele>
        <time>2015-08-20T05:47:04.000Z</time>
      </trkpt>
      <trkpt lat="44.92688" lon="6.00265">
        <ele>1961</ele>
        <time>2015-08-20T05:47:08.000Z</time>
      </trkpt>
      <trkpt lat="44.92685" lon="6.00267">
        <ele>1961.4000244141</ele>
        <time>2015-08-20T05:47:13.000Z</time>
      </trkpt>
      <trkpt lat="44.92682" lon="6.00268">
        <ele>1962.1999511719</ele>
        <time>2015-08-20T05:47:17.000Z</time>
      </trkpt>
      <trkpt lat="44.92679" lon="6.00271">
        <ele>1962.4000244141</ele>
        <time>2015-08-20T05:47:20.000Z</time>
      </trkpt>
      <trkpt lat="44.92678" lon="6.00273">
        <ele>1962</ele>
        <time>2015-08-20T05:47:21.000Z</time>
      </trkpt>
      <trkpt lat="44.92673" lon="6.00278">
        <ele>1963</ele>
        <time>2015-08-20T05:47:25.000Z</time>
      </trkpt>
      <trkpt lat="44.92672" lon="6.00279">
        <ele>1963.5999755859</ele>
        <time>2015-08-20T05:47:26.000Z</time>
      </trkpt>
      <trkpt lat="44.92668" lon="6.00283">
        <ele>1965.4000244141</ele>
        <time>2015-08-20T05:47:30.000Z</time>
      </trkpt>
      <trkpt lat="44.92667" lon="6.00284">
        <ele>1965.8000488281</ele>
        <time>2015-08-20T05:47:31.000Z</time>
      </trkpt>
      <trkpt lat="44.92663" lon="6.00287">
        <ele>1967.8000488281</ele>
        <time>2015-08-20T05:47:36.000Z</time>
      </trkpt>
      <trkpt lat="44.92663" lon="6.00288">
        <ele>1968</ele>
        <time>2015-08-20T05:47:37.000Z</time>
      </trkpt>
      <trkpt lat="44.92659" lon="6.00291">
        <ele>1969.5999755859</ele>
        <time>2015-08-20T05:47:42.000Z</time>
      </trkpt>
      <trkpt lat="44.92658" lon="6.0029">
        <ele>1970.4000244141</ele>
        <time>2015-08-20T05:47:43.000Z</time>
      </trkpt>
      <trkpt lat="44.92656" lon="6.00289">
        <ele>1971.8000488281</ele>
        <time>2015-08-20T05:47:48.000Z</time>
      </trkpt>
      <trkpt lat="44.92654" lon="6.00291">
        <ele>1972.4000244141</ele>
        <time>2015-08-20T05:47:52.000Z</time>
      </trkpt>
      <trkpt lat="44.92651" lon="6.00294">
        <ele>1974.1999511719</ele>
        <time>2015-08-20T05:47:59.000Z</time>
      </trkpt>
      <trkpt lat="44.92648" lon="6.00295">
        <ele>1975.8000488281</ele>
        <time>2015-08-20T05:48:04.000Z</time>
      </trkpt>
      <trkpt lat="44.92645" lon="6.00297">
        <ele>1977.1999511719</ele>
        <time>2015-08-20T05:48:09.000Z</time>
      </trkpt>
      <trkpt lat="44.92644" lon="6.00305">
        <ele>1977.1999511719</ele>
        <time>2015-08-20T05:48:16.000Z</time>
      </trkpt>
      <trkpt lat="44.92644" lon="6.00307">
        <ele>1976.5999755859</ele>
        <time>2015-08-20T05:48:20.000Z</time>
      </trkpt>
      <trkpt lat="44.92645" lon="6.00313">
        <ele>1976.1999511719</ele>
        <time>2015-08-20T05:48:25.000Z</time>
      </trkpt>
      <trkpt lat="44.92644" lon="6.00315">
        <ele>1976.8000488281</ele>
        <time>2015-08-20T05:48:27.000Z</time>
      </trkpt>
      <trkpt lat="44.92643" lon="6.00319">
        <ele>1977.4000244141</ele>
        <time>2015-08-20T05:48:30.000Z</time>
      </trkpt>
      <trkpt lat="44.92644" lon="6.00324">
        <ele>1977</ele>
        <time>2015-08-20T05:48:35.000Z</time>
      </trkpt>
      <trkpt lat="44.92643" lon="6.00326">
        <ele>1978</ele>
        <time>2015-08-20T05:48:38.000Z</time>
      </trkpt>
      <trkpt lat="44.92643" lon="6.00328">
        <ele>1978</ele>
        <time>2015-08-20T05:48:39.000Z</time>
      </trkpt>
      <trkpt lat="44.92642" lon="6.00334">
        <ele>1978.4000244141</ele>
        <time>2015-08-20T05:48:44.000Z</time>
      </trkpt>
      <trkpt lat="44.92641" lon="6.00334">
        <ele>1978.8000488281</ele>
        <time>2015-08-20T05:48:45.000Z</time>
      </trkpt>
      <trkpt lat="44.9264" lon="6.00336">
        <ele>1979.1999511719</ele>
        <time>2015-08-20T05:48:48.000Z</time>
      </trkpt>
      <trkpt lat="44.92639" lon="6.00337">
        <ele>1979.5999755859</ele>
        <time>2015-08-20T05:48:50.000Z</time>
      </trkpt>
      <trkpt lat="44.92636" lon="6.00342">
        <ele>1981.1999511719</ele>
        <time>2015-08-20T05:48:55.000Z</time>
      </trkpt>
      <trkpt lat="44.92634" lon="6.00349">
        <ele>1982.4000244141</ele>
        <time>2015-08-20T05:49:01.000Z</time>
      </trkpt>
      <trkpt lat="44.9263" lon="6.00355">
        <ele>1984</ele>
        <time>2015-08-20T05:49:07.000Z</time>
      </trkpt>
      <trkpt lat="44.92631" lon="6.00356">
        <ele>1984</ele>
        <time>2015-08-20T05:49:08.000Z</time>
      </trkpt>
      <trkpt lat="44.9263" lon="6.00358">
        <ele>1984</ele>
        <time>2015-08-20T05:49:11.000Z</time>
      </trkpt>
      <trkpt lat="44.92631" lon="6.00359">
        <ele>1983.8000488281</ele>
        <time>2015-08-20T05:49:12.000Z</time>
      </trkpt>
      <trkpt lat="44.92631" lon="6.00364">
        <ele>1983.8000488281</ele>
        <time>2015-08-20T05:49:16.000Z</time>
      </trkpt>
      <trkpt lat="44.9263" lon="6.00367">
        <ele>1983.8000488281</ele>
        <time>2015-08-20T05:49:20.000Z</time>
      </trkpt>
      <trkpt lat="44.92629" lon="6.0037">
        <ele>1984.5999755859</ele>
        <time>2015-08-20T05:49:24.000Z</time>
      </trkpt>
      <trkpt lat="44.92626" lon="6.00367">
        <ele>1986.4000244141</ele>
        <time>2015-08-20T05:49:28.000Z</time>
      </trkpt>
      <trkpt lat="44.92625" lon="6.00363">
        <ele>1986.8000488281</ele>
        <time>2015-08-20T05:49:31.000Z</time>
      </trkpt>
      <trkpt lat="44.92625" lon="6.0036">
        <ele>1987</ele>
        <time>2015-08-20T05:49:33.000Z</time>
      </trkpt>
      <trkpt lat="44.92622" lon="6.00354">
        <ele>1988.4000244141</ele>
        <time>2015-08-20T05:49:39.000Z</time>
      </trkpt>
      <trkpt lat="44.9262" lon="6.00351">
        <ele>1988.8000488281</ele>
        <time>2015-08-20T05:49:42.000Z</time>
      </trkpt>
      <trkpt lat="44.9262" lon="6.00351">
        <ele>1989</ele>
        <time>2015-08-20T05:49:43.000Z</time>
      </trkpt>
      <trkpt lat="44.92618" lon="6.00349">
        <ele>1989.8000488281</ele>
        <time>2015-08-20T05:49:46.000Z</time>
      </trkpt>
      <trkpt lat="44.92617" lon="6.00346">
        <ele>1990.1999511719</ele>
        <time>2015-08-20T05:49:49.000Z</time>
      </trkpt>
      <trkpt lat="44.92616" lon="6.00341">
        <ele>1990.8000488281</ele>
        <time>2015-08-20T05:49:53.000Z</time>
      </trkpt>
      <trkpt lat="44.92614" lon="6.00336">
        <ele>1991.4000244141</ele>
        <time>2015-08-20T05:49:58.000Z</time>
      </trkpt>
      <trkpt lat="44.92613" lon="6.00335">
        <ele>1991.8000488281</ele>
        <time>2015-08-20T05:49:59.000Z</time>
      </trkpt>
      <trkpt lat="44.92613" lon="6.00331">
        <ele>1992</ele>
        <time>2015-08-20T05:50:03.000Z</time>
      </trkpt>
      <trkpt lat="44.9261" lon="6.00325">
        <ele>1993.1999511719</ele>
        <time>2015-08-20T05:50:10.000Z</time>
      </trkpt>
      <trkpt lat="44.92608" lon="6.00321">
        <ele>1993.8000488281</ele>
        <time>2015-08-20T05:50:14.000Z</time>
      </trkpt>
      <trkpt lat="44.92607" lon="6.00318">
        <ele>1994.4000244141</ele>
        <time>2015-08-20T05:50:17.000Z</time>
      </trkpt>
      <trkpt lat="44.92606" lon="6.00316">
        <ele>1994.5999755859</ele>
        <time>2015-08-20T05:50:18.000Z</time>
      </trkpt>
      <trkpt lat="44.92605" lon="6.00313">
        <ele>1995.1999511719</ele>
        <time>2015-08-20T05:50:22.000Z</time>
      </trkpt>
      <trkpt lat="44.92605" lon="6.00312">
        <ele>1995.1999511719</ele>
        <time>2015-08-20T05:50:23.000Z</time>
      </trkpt>
      <trkpt lat="44.92604" lon="6.00308">
        <ele>1995.8000488281</ele>
        <time>2015-08-20T05:50:28.000Z</time>
      </trkpt>
      <trkpt lat="44.92602" lon="6.00304">
        <ele>1996.5999755859</ele>
        <time>2015-08-20T05:50:32.000Z</time>
      </trkpt>
      <trkpt lat="44.92599" lon="6.00299">
        <ele>1998.1999511719</ele>
        <time>2015-08-20T05:50:39.000Z</time>
      </trkpt>
      <trkpt lat="44.92595" lon="6.00297">
        <ele>1999.5999755859</ele>
        <time>2015-08-20T05:50:44.000Z</time>
      </trkpt>
      <trkpt lat="44.92591" lon="6.00293">
        <ele>2001.4000244141</ele>
        <time>2015-08-20T05:50:49.000Z</time>
      </trkpt>
      <trkpt lat="44.92589" lon="6.00292">
        <ele>2002.4000244141</ele>
        <time>2015-08-20T05:50:52.000Z</time>
      </trkpt>
      <trkpt lat="44.92588" lon="6.00291">
        <ele>2002.8000488281</ele>
        <time>2015-08-20T05:50:54.000Z</time>
      </trkpt>
      <trkpt lat="44.92586" lon="6.00289">
        <ele>2003.8000488281</ele>
        <time>2015-08-20T05:50:57.000Z</time>
      </trkpt>
      <trkpt lat="44.92581" lon="6.00289">
        <ele>2005.4000244141</ele>
        <time>2015-08-20T05:51:02.000Z</time>
      </trkpt>
      <trkpt lat="44.9258" lon="6.00288">
        <ele>2006</ele>
        <time>2015-08-20T05:51:04.000Z</time>
      </trkpt>
      <trkpt lat="44.92579" lon="6.00287">
        <ele>2006.4000244141</ele>
        <time>2015-08-20T05:51:06.000Z</time>
      </trkpt>
      <trkpt lat="44.92575" lon="6.00287">
        <ele>2008.1999511719</ele>
        <time>2015-08-20T05:51:12.000Z</time>
      </trkpt>
      <trkpt lat="44.9257" lon="6.00285">
        <ele>2009.8000488281</ele>
        <time>2015-08-20T05:51:17.000Z</time>
      </trkpt>
      <trkpt lat="44.92568" lon="6.00283">
        <ele>2010.8000488281</ele>
        <time>2015-08-20T05:51:20.000Z</time>
      </trkpt>
      <trkpt lat="44.92567" lon="6.00282">
        <ele>2011.4000244141</ele>
        <time>2015-08-20T05:51:23.000Z</time>
      </trkpt>
      <trkpt lat="44.92562" lon="6.00281">
        <ele>2013.1999511719</ele>
        <time>2015-08-20T05:51:28.000Z</time>
      </trkpt>
      <trkpt lat="44.92561" lon="6.00277">
        <ele>2014.1999511719</ele>
        <time>2015-08-20T05:51:32.000Z</time>
      </trkpt>
      <trkpt lat="44.9256" lon="6.00271">
        <ele>2014.5999755859</ele>
        <time>2015-08-20T05:51:37.000Z</time>
      </trkpt>
      <trkpt lat="44.92561" lon="6.0027">
        <ele>2014.4000244141</ele>
        <time>2015-08-20T05:51:38.000Z</time>
      </trkpt>
      <trkpt lat="44.92561" lon="6.00264">
        <ele>2014.8000488281</ele>
        <time>2015-08-20T05:51:42.000Z</time>
      </trkpt>
      <trkpt lat="44.92562" lon="6.00257">
        <ele>2014.8000488281</ele>
        <time>2015-08-20T05:51:47.000Z</time>
      </trkpt>
      <trkpt lat="44.92562" lon="6.00257">
        <ele>2014.8000488281</ele>
        <time>2015-08-20T05:51:48.000Z</time>
      </trkpt>
      <trkpt lat="44.92562" lon="6.00255">
        <ele>2015</ele>
        <time>2015-08-20T05:51:50.000Z</time>
      </trkpt>
      <trkpt lat="44.92562" lon="6.00255">
        <ele>2015</ele>
        <time>2015-08-20T05:51:51.000Z</time>
      </trkpt>
      <trkpt lat="44.92558" lon="6.00258">
        <ele>2016.4000244141</ele>
        <time>2015-08-20T05:51:56.000Z</time>
      </trkpt>
      <trkpt lat="44.92556" lon="6.00259">
        <ele>2017</ele>
        <time>2015-08-20T05:51:58.000Z</time>
      </trkpt>
      <trkpt lat="44.92554" lon="6.0026">
        <ele>2017.8000488281</ele>
        <time>2015-08-20T05:52:01.000Z</time>
      </trkpt>
      <trkpt lat="44.92553" lon="6.00261">
        <ele>2018</ele>
        <time>2015-08-20T05:52:02.000Z</time>
      </trkpt>
      <trkpt lat="44.92549" lon="6.00266">
        <ele>2019.1999511719</ele>
        <time>2015-08-20T05:52:07.000Z</time>
      </trkpt>
      <trkpt lat="44.92549" lon="6.00267">
        <ele>2019.1999511719</ele>
        <time>2015-08-20T05:52:08.000Z</time>
      </trkpt>
      <trkpt lat="44.92549" lon="6.00269">
        <ele>2019</ele>
        <time>2015-08-20T05:52:09.000Z</time>
      </trkpt>
      <trkpt lat="44.92549" lon="6.00274">
        <ele>2018.8000488281</ele>
        <time>2015-08-20T05:52:12.000Z</time>
      </trkpt>
      <trkpt lat="44.92548" lon="6.00276">
        <ele>2019</ele>
        <time>2015-08-20T05:52:13.000Z</time>
      </trkpt>
      <trkpt lat="44.92548" lon="6.00282">
        <ele>2018.5999755859</ele>
        <time>2015-08-20T05:52:17.000Z</time>
      </trkpt>
      <trkpt lat="44.92548" lon="6.00289">
        <ele>2018.1999511719</ele>
        <time>2015-08-20T05:52:23.000Z</time>
      </trkpt>
      <trkpt lat="44.92547" lon="6.0029">
        <ele>2018.4000244141</ele>
        <time>2015-08-20T05:52:24.000Z</time>
      </trkpt>
      <trkpt lat="44.92547" lon="6.00295">
        <ele>2018.4000244141</ele>
        <time>2015-08-20T05:52:28.000Z</time>
      </trkpt>
      <trkpt lat="44.92547" lon="6.00299">
        <ele>2018.1999511719</ele>
        <time>2015-08-20T05:52:32.000Z</time>
      </trkpt>
      <trkpt lat="44.92547" lon="6.00299">
        <ele>2018</ele>
        <time>2015-08-20T05:52:33.000Z</time>
      </trkpt>
      <trkpt lat="44.9255" lon="6.00305">
        <ele>2016.5999755859</ele>
        <time>2015-08-20T05:52:39.000Z</time>
      </trkpt>
      <trkpt lat="44.9255" lon="6.00307">
        <ele>2016.4000244141</ele>
        <time>2015-08-20T05:52:40.000Z</time>
      </trkpt>
      <trkpt lat="44.92551" lon="6.00311">
        <ele>2015.8000488281</ele>
        <time>2015-08-20T05:52:44.000Z</time>
      </trkpt>
      <trkpt lat="44.92552" lon="6.00313">
        <ele>2015.5999755859</ele>
        <time>2015-08-20T05:52:46.000Z</time>
      </trkpt>
      <trkpt lat="44.92552" lon="6.00315">
        <ele>2015.4000244141</ele>
        <time>2015-08-20T05:52:50.000Z</time>
      </trkpt>
      <trkpt lat="44.92552" lon="6.00322">
        <ele>2015.4000244141</ele>
        <time>2015-08-20T05:52:55.000Z</time>
      </trkpt>
      <trkpt lat="44.92551" lon="6.00327">
        <ele>2015.4000244141</ele>
        <time>2015-08-20T05:52:59.000Z</time>
      </trkpt>
      <trkpt lat="44.92551" lon="6.00328">
        <ele>2015.1999511719</ele>
        <time>2015-08-20T05:53:00.000Z</time>
      </trkpt>
      <trkpt lat="44.9255" lon="6.00332">
        <ele>2015.4000244141</ele>
        <time>2015-08-20T05:53:04.000Z</time>
      </trkpt>
      <trkpt lat="44.9255" lon="6.00333">
        <ele>2015.4000244141</ele>
        <time>2015-08-20T05:53:05.000Z</time>
      </trkpt>
      <trkpt lat="44.92548" lon="6.00339">
        <ele>2015.4000244141</ele>
        <time>2015-08-20T05:53:10.000Z</time>
      </trkpt>
      <trkpt lat="44.92548" lon="6.00346">
        <ele>2015.4000244141</ele>
        <time>2015-08-20T05:53:15.000Z</time>
      </trkpt>
      <trkpt lat="44.92547" lon="6.00349">
        <ele>2015.4000244141</ele>
        <time>2015-08-20T05:53:19.000Z</time>
      </trkpt>
      <trkpt lat="44.92544" lon="6.00352">
        <ele>2016.4000244141</ele>
        <time>2015-08-20T05:53:25.000Z</time>
      </trkpt>
      <trkpt lat="44.92541" lon="6.00354">
        <ele>2017.1999511719</ele>
        <time>2015-08-20T05:53:30.000Z</time>
      </trkpt>
      <trkpt lat="44.92539" lon="6.00355">
        <ele>2017.8000488281</ele>
        <time>2015-08-20T05:53:36.000Z</time>
      </trkpt>
      <trkpt lat="44.92536" lon="6.00355">
        <ele>2018.8000488281</ele>
        <time>2015-08-20T05:53:40.000Z</time>
      </trkpt>
      <trkpt lat="44.92533" lon="6.00354">
        <ele>2020</ele>
        <time>2015-08-20T05:53:45.000Z</time>
      </trkpt>
      <trkpt lat="44.92531" lon="6.00353">
        <ele>2021</ele>
        <time>2015-08-20T05:53:50.000Z</time>
      </trkpt>
      <trkpt lat="44.92529" lon="6.0035">
        <ele>2022</ele>
        <time>2015-08-20T05:53:56.000Z</time>
      </trkpt>
      <trkpt lat="44.92528" lon="6.00346">
        <ele>2022.5999755859</ele>
        <time>2015-08-20T05:54:00.000Z</time>
      </trkpt>
      <trkpt lat="44.92527" lon="6.00345">
        <ele>2023.1999511719</ele>
        <time>2015-08-20T05:54:02.000Z</time>
      </trkpt>
      <trkpt lat="44.92526" lon="6.00343">
        <ele>2023.5999755859</ele>
        <time>2015-08-20T05:54:04.000Z</time>
      </trkpt>
      <trkpt lat="44.92524" lon="6.0034">
        <ele>2024.5999755859</ele>
        <time>2015-08-20T05:54:09.000Z</time>
      </trkpt>
      <trkpt lat="44.92521" lon="6.00337">
        <ele>2026</ele>
        <time>2015-08-20T05:54:14.000Z</time>
      </trkpt>
      <trkpt lat="44.92519" lon="6.00336">
        <ele>2026.5999755859</ele>
        <time>2015-08-20T05:54:20.000Z</time>
      </trkpt>
      <trkpt lat="44.92517" lon="6.00332">
        <ele>2028</ele>
        <time>2015-08-20T05:54:26.000Z</time>
      </trkpt>
      <trkpt lat="44.92517" lon="6.00332">
        <ele>2028</ele>
        <time>2015-08-20T05:54:33.000Z</time>
      </trkpt>
      <trkpt lat="44.92515" lon="6.00331">
        <ele>2028.5999755859</ele>
        <time>2015-08-20T05:55:54.000Z</time>
      </trkpt>
      <trkpt lat="44.92513" lon="6.0033">
        <ele>2029.8000488281</ele>
        <time>2015-08-20T05:55:58.000Z</time>
      </trkpt>
      <trkpt lat="44.9251" lon="6.00331">
        <ele>2030.8000488281</ele>
        <time>2015-08-20T05:56:02.000Z</time>
      </trkpt>
      <trkpt lat="44.92504" lon="6.00333">
        <ele>2032.8000488281</ele>
        <time>2015-08-20T05:56:09.000Z</time>
      </trkpt>
      <trkpt lat="44.925" lon="6.00334">
        <ele>2034.5999755859</ele>
        <time>2015-08-20T05:56:15.000Z</time>
      </trkpt>
      <trkpt lat="44.92494" lon="6.0033">
        <ele>2037</ele>
        <time>2015-08-20T05:56:23.000Z</time>
      </trkpt>
      <trkpt lat="44.92491" lon="6.0033">
        <ele>2038.1999511719</ele>
        <time>2015-08-20T05:56:27.000Z</time>
      </trkpt>
      <trkpt lat="44.92489" lon="6.0033">
        <ele>2039</ele>
        <time>2015-08-20T05:56:29.000Z</time>
      </trkpt>
      <trkpt lat="44.92487" lon="6.00329">
        <ele>2040</ele>
        <time>2015-08-20T05:56:33.000Z</time>
      </trkpt>
      <trkpt lat="44.92484" lon="6.00327">
        <ele>2041.1999511719</ele>
        <time>2015-08-20T05:56:37.000Z</time>
      </trkpt>
      <trkpt lat="44.92481" lon="6.00328">
        <ele>2042.1999511719</ele>
        <time>2015-08-20T05:56:42.000Z</time>
      </trkpt>
      <trkpt lat="44.92479" lon="6.00331">
        <ele>2043</ele>
        <time>2015-08-20T05:56:46.000Z</time>
      </trkpt>
      <trkpt lat="44.92476" lon="6.00333">
        <ele>2044.1999511719</ele>
        <time>2015-08-20T05:56:50.000Z</time>
      </trkpt>
      <trkpt lat="44.92475" lon="6.00334">
        <ele>2044.5999755859</ele>
        <time>2015-08-20T05:56:51.000Z</time>
      </trkpt>
      <trkpt lat="44.92473" lon="6.00336">
        <ele>2045.8000488281</ele>
        <time>2015-08-20T05:56:55.000Z</time>
      </trkpt>
      <trkpt lat="44.92469" lon="6.00336">
        <ele>2047.4000244141</ele>
        <time>2015-08-20T05:57:00.000Z</time>
      </trkpt>
      <trkpt lat="44.92466" lon="6.00334">
        <ele>2048.6000976562</ele>
        <time>2015-08-20T05:57:05.000Z</time>
      </trkpt>
      <trkpt lat="44.92464" lon="6.00334">
        <ele>2049.3999023438</ele>
        <time>2015-08-20T05:57:08.000Z</time>
      </trkpt>
      <trkpt lat="44.92462" lon="6.00334">
        <ele>2050.3999023438</ele>
        <time>2015-08-20T05:57:11.000Z</time>
      </trkpt>
      <trkpt lat="44.92459" lon="6.00333">
        <ele>2052</ele>
        <time>2015-08-20T05:57:17.000Z</time>
      </trkpt>
      <trkpt lat="44.92456" lon="6.00334">
        <ele>2052.8000488281</ele>
        <time>2015-08-20T05:57:22.000Z</time>
      </trkpt>
      <trkpt lat="44.92453" lon="6.00334">
        <ele>2053.8000488281</ele>
        <time>2015-08-20T05:57:27.000Z</time>
      </trkpt>
      <trkpt lat="44.92451" lon="6.0033">
        <ele>2054.1999511719</ele>
        <time>2015-08-20T05:57:31.000Z</time>
      </trkpt>
      <trkpt lat="44.9245" lon="6.00326">
        <ele>2054.6000976562</ele>
        <time>2015-08-20T05:57:35.000Z</time>
      </trkpt>
      <trkpt lat="44.92449" lon="6.00323">
        <ele>2054.8000488281</ele>
        <time>2015-08-20T05:57:37.000Z</time>
      </trkpt>
      <trkpt lat="44.92448" lon="6.00321">
        <ele>2055</ele>
        <time>2015-08-20T05:57:40.000Z</time>
      </trkpt>
      <trkpt lat="44.92447" lon="6.00316">
        <ele>2055.6000976562</ele>
        <time>2015-08-20T05:57:45.000Z</time>
      </trkpt>
      <trkpt lat="44.92446" lon="6.00315">
        <ele>2055.8000488281</ele>
        <time>2015-08-20T05:57:46.000Z</time>
      </trkpt>
      <trkpt lat="44.92445" lon="6.00312">
        <ele>2056</ele>
        <time>2015-08-20T05:57:50.000Z</time>
      </trkpt>
      <trkpt lat="44.92444" lon="6.00306">
        <ele>2056.3999023438</ele>
        <time>2015-08-20T05:57:54.000Z</time>
      </trkpt>
      <trkpt lat="44.92441" lon="6.00304">
        <ele>2057.1999511719</ele>
        <time>2015-08-20T05:57:59.000Z</time>
      </trkpt>
      <trkpt lat="44.92439" lon="6.00301">
        <ele>2057.6000976562</ele>
        <time>2015-08-20T05:58:02.000Z</time>
      </trkpt>
      <trkpt lat="44.92438" lon="6.00299">
        <ele>2058</ele>
        <time>2015-08-20T05:58:05.000Z</time>
      </trkpt>
      <trkpt lat="44.92437" lon="6.00297">
        <ele>2058.1999511719</ele>
        <time>2015-08-20T05:58:06.000Z</time>
      </trkpt>
      <trkpt lat="44.92437" lon="6.00294">
        <ele>2058.3999023438</ele>
        <time>2015-08-20T05:58:09.000Z</time>
      </trkpt>
      <trkpt lat="44.92436" lon="6.00291">
        <ele>2058.6000976562</ele>
        <time>2015-08-20T05:58:13.000Z</time>
      </trkpt>
      <trkpt lat="44.92434" lon="6.00285">
        <ele>2059.1999511719</ele>
        <time>2015-08-20T05:58:19.000Z</time>
      </trkpt>
      <trkpt lat="44.9243" lon="6.00279">
        <ele>2060.3999023438</ele>
        <time>2015-08-20T05:58:26.000Z</time>
      </trkpt>
      <trkpt lat="44.92429" lon="6.00279">
        <ele>2060.6000976562</ele>
        <time>2015-08-20T05:58:27.000Z</time>
      </trkpt>
      <trkpt lat="44.92425" lon="6.00278">
        <ele>2061.3999023438</ele>
        <time>2015-08-20T05:58:31.000Z</time>
      </trkpt>
      <trkpt lat="44.92422" lon="6.00276">
        <ele>2062.3999023438</ele>
        <time>2015-08-20T05:58:36.000Z</time>
      </trkpt>
      <trkpt lat="44.92419" lon="6.00276">
        <ele>2063</ele>
        <time>2015-08-20T05:58:40.000Z</time>
      </trkpt>
      <trkpt lat="44.92416" lon="6.00275">
        <ele>2063.8000488281</ele>
        <time>2015-08-20T05:58:46.000Z</time>
      </trkpt>
      <trkpt lat="44.92412" lon="6.00275">
        <ele>2064.8000488281</ele>
        <time>2015-08-20T05:58:51.000Z</time>
      </trkpt>
      <trkpt lat="44.92411" lon="6.00275">
        <ele>2065</ele>
        <time>2015-08-20T05:58:58.000Z</time>
      </trkpt>
      <trkpt lat="44.92408" lon="6.00274">
        <ele>2065.8000488281</ele>
        <time>2015-08-20T06:00:40.000Z</time>
      </trkpt>
      <trkpt lat="44.92404" lon="6.00273">
        <ele>2066.8000488281</ele>
        <time>2015-08-20T06:00:44.000Z</time>
      </trkpt>
      <trkpt lat="44.92403" lon="6.00273">
        <ele>2067</ele>
        <time>2015-08-20T06:00:45.000Z</time>
      </trkpt>
      <trkpt lat="44.924" lon="6.00271">
        <ele>2067.8000488281</ele>
        <time>2015-08-20T06:00:48.000Z</time>
      </trkpt>
      <trkpt lat="44.92399" lon="6.00271">
        <ele>2068</ele>
        <time>2015-08-20T06:00:50.000Z</time>
      </trkpt>
      <trkpt lat="44.92396" lon="6.00272">
        <ele>2068.8000488281</ele>
        <time>2015-08-20T06:00:54.000Z</time>
      </trkpt>
      <trkpt lat="44.92395" lon="6.00273">
        <ele>2069.1999511719</ele>
        <time>2015-08-20T06:00:55.000Z</time>
      </trkpt>
      <trkpt lat="44.92394" lon="6.00274">
        <ele>2069.1999511719</ele>
        <time>2015-08-20T06:00:56.000Z</time>
      </trkpt>
      <trkpt lat="44.92392" lon="6.00276">
        <ele>2070</ele>
        <time>2015-08-20T06:01:00.000Z</time>
      </trkpt>
      <trkpt lat="44.92387" lon="6.0028">
        <ele>2071</ele>
        <time>2015-08-20T06:01:07.000Z</time>
      </trkpt>
      <trkpt lat="44.92383" lon="6.00284">
        <ele>2071.8000488281</ele>
        <time>2015-08-20T06:01:14.000Z</time>
      </trkpt>
      <trkpt lat="44.92378" lon="6.00291">
        <ele>2073.1999511719</ele>
        <time>2015-08-20T06:01:21.000Z</time>
      </trkpt>
      <trkpt lat="44.92374" lon="6.003">
        <ele>2074</ele>
        <time>2015-08-20T06:01:28.000Z</time>
      </trkpt>
      <trkpt lat="44.92372" lon="6.00308">
        <ele>2074.3999023438</ele>
        <time>2015-08-20T06:01:34.000Z</time>
      </trkpt>
      <trkpt lat="44.92372" lon="6.00308">
        <ele>2074.6000976562</ele>
        <time>2015-08-20T06:01:35.000Z</time>
      </trkpt>
      <trkpt lat="44.92368" lon="6.00314">
        <ele>2076.8000488281</ele>
        <time>2015-08-20T06:01:40.000Z</time>
      </trkpt>
      <trkpt lat="44.92365" lon="6.00316">
        <ele>2077.8000488281</ele>
        <time>2015-08-20T06:01:43.000Z</time>
      </trkpt>
      <trkpt lat="44.92364" lon="6.0032">
        <ele>2079</ele>
        <time>2015-08-20T06:01:46.000Z</time>
      </trkpt>
      <trkpt lat="44.92364" lon="6.00323">
        <ele>2079.3999023438</ele>
        <time>2015-08-20T06:01:48.000Z</time>
      </trkpt>
      <trkpt lat="44.92367" lon="6.00326">
        <ele>2079.1999511719</ele>
        <time>2015-08-20T06:01:51.000Z</time>
      </trkpt>
      <trkpt lat="44.92371" lon="6.00334">
        <ele>2079.1999511719</ele>
        <time>2015-08-20T06:01:57.000Z</time>
      </trkpt>
      <trkpt lat="44.92373" lon="6.00342">
        <ele>2079.8000488281</ele>
        <time>2015-08-20T06:02:02.000Z</time>
      </trkpt>
      <trkpt lat="44.92378" lon="6.00352">
        <ele>2079.6000976562</ele>
        <time>2015-08-20T06:02:09.000Z</time>
      </trkpt>
      <trkpt lat="44.9238" lon="6.00359">
        <ele>2079.8000488281</ele>
        <time>2015-08-20T06:02:14.000Z</time>
      </trkpt>
      <trkpt lat="44.92381" lon="6.00363">
        <ele>2080.1999511719</ele>
        <time>2015-08-20T06:02:18.000Z</time>
      </trkpt>
      <trkpt lat="44.92381" lon="6.0037">
        <ele>2081.1999511719</ele>
        <time>2015-08-20T06:02:23.000Z</time>
      </trkpt>
      <trkpt lat="44.9238" lon="6.00374">
        <ele>2082.1999511719</ele>
        <time>2015-08-20T06:02:27.000Z</time>
      </trkpt>
      <trkpt lat="44.9238" lon="6.00378">
        <ele>2083</ele>
        <time>2015-08-20T06:02:30.000Z</time>
      </trkpt>
      <trkpt lat="44.9238" lon="6.0038">
        <ele>2083.3999023438</ele>
        <time>2015-08-20T06:02:32.000Z</time>
      </trkpt>
      <trkpt lat="44.92379" lon="6.00383">
        <ele>2084.1999511719</ele>
        <time>2015-08-20T06:02:36.000Z</time>
      </trkpt>
      <trkpt lat="44.92377" lon="6.00388">
        <ele>2086.1999511719</ele>
        <time>2015-08-20T06:02:39.000Z</time>
      </trkpt>
      <trkpt lat="44.92375" lon="6.00391">
        <ele>2087.3999023438</ele>
        <time>2015-08-20T06:02:41.000Z</time>
      </trkpt>
      <trkpt lat="44.92375" lon="6.00392">
        <ele>2087.6000976562</ele>
        <time>2015-08-20T06:02:42.000Z</time>
      </trkpt>
      <trkpt lat="44.92374" lon="6.00395">
        <ele>2088.3999023438</ele>
        <time>2015-08-20T06:02:46.000Z</time>
      </trkpt>
      <trkpt lat="44.92373" lon="6.00399">
        <ele>2089.1999511719</ele>
        <time>2015-08-20T06:02:52.000Z</time>
      </trkpt>
      <trkpt lat="44.92372" lon="6.00405">
        <ele>2090.1999511719</ele>
        <time>2015-08-20T06:02:58.000Z</time>
      </trkpt>
      <trkpt lat="44.9237" lon="6.00412">
        <ele>2091.3999023438</ele>
        <time>2015-08-20T06:03:03.000Z</time>
      </trkpt>
      <trkpt lat="44.92369" lon="6.00415">
        <ele>2092.1999511719</ele>
        <time>2015-08-20T06:03:07.000Z</time>
      </trkpt>
      <trkpt lat="44.92368" lon="6.00422">
        <ele>2093.6000976562</ele>
        <time>2015-08-20T06:03:13.000Z</time>
      </trkpt>
      <trkpt lat="44.92367" lon="6.0043">
        <ele>2094.8000488281</ele>
        <time>2015-08-20T06:03:19.000Z</time>
      </trkpt>
      <trkpt lat="44.92366" lon="6.00436">
        <ele>2095.8000488281</ele>
        <time>2015-08-20T06:03:24.000Z</time>
      </trkpt>
      <trkpt lat="44.92366" lon="6.00441">
        <ele>2096.6000976562</ele>
        <time>2015-08-20T06:03:30.000Z</time>
      </trkpt>
      <trkpt lat="44.92365" lon="6.00447">
        <ele>2097.6000976562</ele>
        <time>2015-08-20T06:03:35.000Z</time>
      </trkpt>
      <trkpt lat="44.92364" lon="6.0045">
        <ele>2098.1999511719</ele>
        <time>2015-08-20T06:03:39.000Z</time>
      </trkpt>
      <trkpt lat="44.92364" lon="6.00456">
        <ele>2099</ele>
        <time>2015-08-20T06:03:44.000Z</time>
      </trkpt>
      <trkpt lat="44.92363" lon="6.00464">
        <ele>2100.3999023438</ele>
        <time>2015-08-20T06:03:49.000Z</time>
      </trkpt>
      <trkpt lat="44.92362" lon="6.00465">
        <ele>2100.6000976562</ele>
        <time>2015-08-20T06:03:51.000Z</time>
      </trkpt>
      <trkpt lat="44.92362" lon="6.0047">
        <ele>2101.3999023438</ele>
        <time>2015-08-20T06:03:54.000Z</time>
      </trkpt>
      <trkpt lat="44.92361" lon="6.00475">
        <ele>2102.1999511719</ele>
        <time>2015-08-20T06:03:58.000Z</time>
      </trkpt>
      <trkpt lat="44.92362" lon="6.00481">
        <ele>2102.6000976562</ele>
        <time>2015-08-20T06:04:03.000Z</time>
      </trkpt>
      <trkpt lat="44.92363" lon="6.00487">
        <ele>2102.8000488281</ele>
        <time>2015-08-20T06:04:08.000Z</time>
      </trkpt>
      <trkpt lat="44.92361" lon="6.00493">
        <ele>2103.8000488281</ele>
        <time>2015-08-20T06:04:13.000Z</time>
      </trkpt>
      <trkpt lat="44.92361" lon="6.00493">
        <ele>2103.8000488281</ele>
        <time>2015-08-20T06:04:14.000Z</time>
      </trkpt>
      <trkpt lat="44.92361" lon="6.00498">
        <ele>2104.3999023438</ele>
        <time>2015-08-20T06:04:18.000Z</time>
      </trkpt>
      <trkpt lat="44.92361" lon="6.005">
        <ele>2104.6000976562</ele>
        <time>2015-08-20T06:04:20.000Z</time>
      </trkpt>
      <trkpt lat="44.92361" lon="6.00503">
        <ele>2105</ele>
        <time>2015-08-20T06:04:23.000Z</time>
      </trkpt>
      <trkpt lat="44.92361" lon="6.00507">
        <ele>2105.1999511719</ele>
        <time>2015-08-20T06:04:27.000Z</time>
      </trkpt>
      <trkpt lat="44.92359" lon="6.00509">
        <ele>2106</ele>
        <time>2015-08-20T06:04:33.000Z</time>
      </trkpt>
      <trkpt lat="44.92353" lon="6.00511">
        <ele>2107.6000976562</ele>
        <time>2015-08-20T06:04:39.000Z</time>
      </trkpt>
      <trkpt lat="44.92347" lon="6.00519">
        <ele>2110</ele>
        <time>2015-08-20T06:04:46.000Z</time>
      </trkpt>
      <trkpt lat="44.92344" lon="6.00526">
        <ele>2111.1999511719</ele>
        <time>2015-08-20T06:04:49.000Z</time>
      </trkpt>
      <trkpt lat="44.92343" lon="6.00532">
        <ele>2112.3999023438</ele>
        <time>2015-08-20T06:04:52.000Z</time>
      </trkpt>
      <trkpt lat="44.9234" lon="6.00545">
        <ele>2115</ele>
        <time>2015-08-20T06:04:57.000Z</time>
      </trkpt>
      <trkpt lat="44.92339" lon="6.00551">
        <ele>2116.3999023438</ele>
        <time>2015-08-20T06:05:00.000Z</time>
      </trkpt>
      <trkpt lat="44.92339" lon="6.00557">
        <ele>2117.1999511719</ele>
        <time>2015-08-20T06:05:02.000Z</time>
      </trkpt>
      <trkpt lat="44.92337" lon="6.00563">
        <ele>2119.8000488281</ele>
        <time>2015-08-20T06:05:05.000Z</time>
      </trkpt>
      <trkpt lat="44.92336" lon="6.00567">
        <ele>2121.1999511719</ele>
        <time>2015-08-20T06:05:08.000Z</time>
      </trkpt>
      <trkpt lat="44.92336" lon="6.00569">
        <ele>2122.1999511719</ele>
        <time>2015-08-20T06:05:10.000Z</time>
      </trkpt>
      <trkpt lat="44.92334" lon="6.00575">
        <ele>2125</ele>
        <time>2015-08-20T06:05:15.000Z</time>
      </trkpt>
      <trkpt lat="44.92334" lon="6.0058">
        <ele>2127</ele>
        <time>2015-08-20T06:05:18.000Z</time>
      </trkpt>
      <trkpt lat="44.92334" lon="6.00582">
        <ele>2127.6000976562</ele>
        <time>2015-08-20T06:05:20.000Z</time>
      </trkpt>
      <trkpt lat="44.92331" lon="6.00589">
        <ele>2131.1999511719</ele>
        <time>2015-08-20T06:05:25.000Z</time>
      </trkpt>
      <trkpt lat="44.9233" lon="6.00594">
        <ele>2133.3999023438</ele>
        <time>2015-08-20T06:05:30.000Z</time>
      </trkpt>
      <trkpt lat="44.9233" lon="6.00595">
        <ele>2134</ele>
        <time>2015-08-20T06:05:31.000Z</time>
      </trkpt>
      <trkpt lat="44.92336" lon="6.00603">
        <ele>2134.8000488281</ele>
        <time>2015-08-20T06:05:36.000Z</time>
      </trkpt>
      <trkpt lat="44.92341" lon="6.00609">
        <ele>2135.8000488281</ele>
        <time>2015-08-20T06:05:40.000Z</time>
      </trkpt>
      <trkpt lat="44.92344" lon="6.00611">
        <ele>2135.8000488281</ele>
        <time>2015-08-20T06:05:42.000Z</time>
      </trkpt>
      <trkpt lat="44.9235" lon="6.00617">
        <ele>2136</ele>
        <time>2015-08-20T06:05:47.000Z</time>
      </trkpt>
      <trkpt lat="44.92354" lon="6.00621">
        <ele>2136.1999511719</ele>
        <time>2015-08-20T06:05:51.000Z</time>
      </trkpt>
      <trkpt lat="44.92356" lon="6.00622">
        <ele>2136</ele>
        <time>2015-08-20T06:05:52.000Z</time>
      </trkpt>
      <trkpt lat="44.92357" lon="6.00623">
        <ele>2135.8000488281</ele>
        <time>2015-08-20T06:05:54.000Z</time>
      </trkpt>
      <trkpt lat="44.9236" lon="6.00624">
        <ele>2135.3999023438</ele>
        <time>2015-08-20T06:05:58.000Z</time>
      </trkpt>
      <trkpt lat="44.9236" lon="6.00626">
        <ele>2136</ele>
        <time>2015-08-20T06:05:59.000Z</time>
      </trkpt>
      <trkpt lat="44.9236" lon="6.00628">
        <ele>2136.8000488281</ele>
        <time>2015-08-20T06:06:02.000Z</time>
      </trkpt>
      <trkpt lat="44.92361" lon="6.00629">
        <ele>2137</ele>
        <time>2015-08-20T06:06:04.000Z</time>
      </trkpt>
      <trkpt lat="44.92364" lon="6.00632">
        <ele>2137.6000976562</ele>
        <time>2015-08-20T06:06:10.000Z</time>
      </trkpt>
      <trkpt lat="44.92367" lon="6.00633">
        <ele>2136.8000488281</ele>
        <time>2015-08-20T06:06:14.000Z</time>
      </trkpt>
      <trkpt lat="44.92372" lon="6.00633">
        <ele>2135.1999511719</ele>
        <time>2015-08-20T06:06:18.000Z</time>
      </trkpt>
      <trkpt lat="44.92379" lon="6.00636">
        <ele>2134.6000976562</ele>
        <time>2015-08-20T06:06:22.000Z</time>
      </trkpt>
      <trkpt lat="44.92381" lon="6.00636">
        <ele>2134</ele>
        <time>2015-08-20T06:06:23.000Z</time>
      </trkpt>
      <trkpt lat="44.92388" lon="6.00637">
        <ele>2132.3999023438</ele>
        <time>2015-08-20T06:06:26.000Z</time>
      </trkpt>
      <trkpt lat="44.92392" lon="6.0064">
        <ele>2132.6000976562</ele>
        <time>2015-08-20T06:06:28.000Z</time>
      </trkpt>
      <trkpt lat="44.92393" lon="6.00642">
        <ele>2132.8000488281</ele>
        <time>2015-08-20T06:06:29.000Z</time>
      </trkpt>
      <trkpt lat="44.92396" lon="6.00642">
        <ele>2132.1999511719</ele>
        <time>2015-08-20T06:06:30.000Z</time>
      </trkpt>
      <trkpt lat="44.92403" lon="6.00645">
        <ele>2131.8000488281</ele>
        <time>2015-08-20T06:06:34.000Z</time>
      </trkpt>
      <trkpt lat="44.92404" lon="6.00644">
        <ele>2131.1999511719</ele>
        <time>2015-08-20T06:06:36.000Z</time>
      </trkpt>
      <trkpt lat="44.92406" lon="6.00644">
        <ele>2130.6000976562</ele>
        <time>2015-08-20T06:06:38.000Z</time>
      </trkpt>
      <trkpt lat="44.9241" lon="6.00644">
        <ele>2129.8000488281</ele>
        <time>2015-08-20T06:06:41.000Z</time>
      </trkpt>
      <trkpt lat="44.92415" lon="6.00645">
        <ele>2128.3999023438</ele>
        <time>2015-08-20T06:06:45.000Z</time>
      </trkpt>
      <trkpt lat="44.92423" lon="6.00645">
        <ele>2127</ele>
        <time>2015-08-20T06:06:52.000Z</time>
      </trkpt>
      <trkpt lat="44.92431" lon="6.00646">
        <ele>2125.3999023438</ele>
        <time>2015-08-20T06:07:00.000Z</time>
      </trkpt>
      <trkpt lat="44.92437" lon="6.0065">
        <ele>2125.8000488281</ele>
        <time>2015-08-20T06:07:06.000Z</time>
      </trkpt>
      <trkpt lat="44.92444" lon="6.00655">
        <ele>2126.6000976562</ele>
        <time>2015-08-20T06:07:13.000Z</time>
      </trkpt>
      <trkpt lat="44.92452" lon="6.00656">
        <ele>2125</ele>
        <time>2015-08-20T06:07:20.000Z</time>
      </trkpt>
      <trkpt lat="44.92459" lon="6.00661">
        <ele>2125.3999023438</ele>
        <time>2015-08-20T06:07:26.000Z</time>
      </trkpt>
      <trkpt lat="44.9246" lon="6.00662">
        <ele>2125</ele>
        <time>2015-08-20T06:07:27.000Z</time>
      </trkpt>
      <trkpt lat="44.92465" lon="6.00664">
        <ele>2123.8000488281</ele>
        <time>2015-08-20T06:07:31.000Z</time>
      </trkpt>
      <trkpt lat="44.92467" lon="6.00665">
        <ele>2123.6000976562</ele>
        <time>2015-08-20T06:07:32.000Z</time>
      </trkpt>
      <trkpt lat="44.92476" lon="6.00673">
        <ele>2123.6000976562</ele>
        <time>2015-08-20T06:07:40.000Z</time>
      </trkpt>
      <trkpt lat="44.92481" lon="6.00681">
        <ele>2125</ele>
        <time>2015-08-20T06:07:46.000Z</time>
      </trkpt>
      <trkpt lat="44.92488" lon="6.0069">
        <ele>2126.8000488281</ele>
        <time>2015-08-20T06:07:51.000Z</time>
      </trkpt>
      <trkpt lat="44.92496" lon="6.00703">
        <ele>2129</ele>
        <time>2015-08-20T06:07:56.000Z</time>
      </trkpt>
      <trkpt lat="44.92506" lon="6.00716">
        <ele>2131.1999511719</ele>
        <time>2015-08-20T06:08:01.000Z</time>
      </trkpt>
      <trkpt lat="44.92514" lon="6.00726">
        <ele>2132.1999511719</ele>
        <time>2015-08-20T06:08:06.000Z</time>
      </trkpt>
      <trkpt lat="44.92523" lon="6.00737">
        <ele>2131.8000488281</ele>
        <time>2015-08-20T06:08:11.000Z</time>
      </trkpt>
      <trkpt lat="44.92532" lon="6.00746">
        <ele>2131.3999023438</ele>
        <time>2015-08-20T06:08:16.000Z</time>
      </trkpt>
      <trkpt lat="44.92535" lon="6.00748">
        <ele>2130.3999023438</ele>
        <time>2015-08-20T06:08:19.000Z</time>
      </trkpt>
      <trkpt lat="44.92537" lon="6.00751">
        <ele>2130.8000488281</ele>
        <time>2015-08-20T06:08:21.000Z</time>
      </trkpt>
      <trkpt lat="44.92538" lon="6.00757">
        <ele>2132.6000976562</ele>
        <time>2015-08-20T06:08:25.000Z</time>
      </trkpt>
      <trkpt lat="44.92541" lon="6.00764">
        <ele>2133.6000976562</ele>
        <time>2015-08-20T06:08:30.000Z</time>
      </trkpt>
      <trkpt lat="44.92542" lon="6.00765">
        <ele>2133.1999511719</ele>
        <time>2015-08-20T06:08:31.000Z</time>
      </trkpt>
      <trkpt lat="44.92546" lon="6.00773">
        <ele>2132.8000488281</ele>
        <time>2015-08-20T06:08:38.000Z</time>
      </trkpt>
      <trkpt lat="44.92548" lon="6.00777">
        <ele>2132.6000976562</ele>
        <time>2015-08-20T06:08:46.000Z</time>
      </trkpt>
      <trkpt lat="44.9255" lon="6.00779">
        <ele>2131.8000488281</ele>
        <time>2015-08-20T06:08:54.000Z</time>
      </trkpt>
      <trkpt lat="44.92552" lon="6.00782">
        <ele>2131.1999511719</ele>
        <time>2015-08-20T06:08:56.000Z</time>
      </trkpt>
      <trkpt lat="44.92556" lon="6.0079">
        <ele>2130.8000488281</ele>
        <time>2015-08-20T06:09:01.000Z</time>
      </trkpt>
      <trkpt lat="44.9256" lon="6.00798">
        <ele>2130.8000488281</ele>
        <time>2015-08-20T06:09:07.000Z</time>
      </trkpt>
      <trkpt lat="44.9256" lon="6.00802">
        <ele>2131.8000488281</ele>
        <time>2015-08-20T06:09:10.000Z</time>
      </trkpt>
      <trkpt lat="44.92559" lon="6.00808">
        <ele>2135.3999023438</ele>
        <time>2015-08-20T06:09:13.000Z</time>
      </trkpt>
      <trkpt lat="44.92557" lon="6.00814">
        <ele>2138</ele>
        <time>2015-08-20T06:09:17.000Z</time>
      </trkpt>
      <trkpt lat="44.92558" lon="6.00818">
        <ele>2137.8000488281</ele>
        <time>2015-08-20T06:09:19.000Z</time>
      </trkpt>
      <trkpt lat="44.92558" lon="6.00821">
        <ele>2138.6000976562</ele>
        <time>2015-08-20T06:09:21.000Z</time>
      </trkpt>
      <trkpt lat="44.92559" lon="6.00824">
        <ele>2138.1999511719</ele>
        <time>2015-08-20T06:09:24.000Z</time>
      </trkpt>
      <trkpt lat="44.9256" lon="6.00832">
        <ele>2138.6000976562</ele>
        <time>2015-08-20T06:09:28.000Z</time>
      </trkpt>
      <trkpt lat="44.92563" lon="6.0084">
        <ele>2137.1999511719</ele>
        <time>2015-08-20T06:09:32.000Z</time>
      </trkpt>
      <trkpt lat="44.92564" lon="6.00849">
        <ele>2136.3999023438</ele>
        <time>2015-08-20T06:09:37.000Z</time>
      </trkpt>
      <trkpt lat="44.92566" lon="6.00851">
        <ele>2135.6000976562</ele>
        <time>2015-08-20T06:09:38.000Z</time>
      </trkpt>
      <trkpt lat="44.92568" lon="6.00859">
        <ele>2134.1999511719</ele>
        <time>2015-08-20T06:09:42.000Z</time>
      </trkpt>
      <trkpt lat="44.92571" lon="6.00867">
        <ele>2133.1999511719</ele>
        <time>2015-08-20T06:09:47.000Z</time>
      </trkpt>
      <trkpt lat="44.92574" lon="6.00876">
        <ele>2131</ele>
        <time>2015-08-20T06:09:52.000Z</time>
      </trkpt>
      <trkpt lat="44.92578" lon="6.00882">
        <ele>2129</ele>
        <time>2015-08-20T06:09:57.000Z</time>
      </trkpt>
      <trkpt lat="44.92579" lon="6.00889">
        <ele>2128.1999511719</ele>
        <time>2015-08-20T06:10:01.000Z</time>
      </trkpt>
      <trkpt lat="44.92579" lon="6.00893">
        <ele>2129</ele>
        <time>2015-08-20T06:10:03.000Z</time>
      </trkpt>
      <trkpt lat="44.92579" lon="6.00897">
        <ele>2129</ele>
        <time>2015-08-20T06:10:05.000Z</time>
      </trkpt>
      <trkpt lat="44.9258" lon="6.00901">
        <ele>2128.6000976562</ele>
        <time>2015-08-20T06:10:08.000Z</time>
      </trkpt>
      <trkpt lat="44.92582" lon="6.00906">
        <ele>2127.1999511719</ele>
        <time>2015-08-20T06:10:11.000Z</time>
      </trkpt>
      <trkpt lat="44.92583" lon="6.00919">
        <ele>2126.6000976562</ele>
        <time>2015-08-20T06:10:16.000Z</time>
      </trkpt>
      <trkpt lat="44.92585" lon="6.00924">
        <ele>2125.1999511719</ele>
        <time>2015-08-20T06:10:20.000Z</time>
      </trkpt>
      <trkpt lat="44.92585" lon="6.00926">
        <ele>2125.6000976562</ele>
        <time>2015-08-20T06:10:21.000Z</time>
      </trkpt>
      <trkpt lat="44.92585" lon="6.00934">
        <ele>2126</ele>
        <time>2015-08-20T06:10:25.000Z</time>
      </trkpt>
      <trkpt lat="44.92586" lon="6.00936">
        <ele>2125.6000976562</ele>
        <time>2015-08-20T06:10:27.000Z</time>
      </trkpt>
      <trkpt lat="44.92587" lon="6.00936">
        <ele>2124.8000488281</ele>
        <time>2015-08-20T06:10:30.000Z</time>
      </trkpt>
      <trkpt lat="44.92584" lon="6.00938">
        <ele>2126.1999511719</ele>
        <time>2015-08-20T06:10:32.000Z</time>
      </trkpt>
      <trkpt lat="44.92587" lon="6.00936">
        <ele>2124.8000488281</ele>
        <time>2015-08-20T06:10:35.000Z</time>
      </trkpt>
      <trkpt lat="44.92582" lon="6.00941">
        <ele>2127.3999023438</ele>
        <time>2015-08-20T06:11:40.000Z</time>
      </trkpt>
      <trkpt lat="44.9258" lon="6.00944">
        <ele>2128.1999511719</ele>
        <time>2015-08-20T06:11:43.000Z</time>
      </trkpt>
      <trkpt lat="44.92578" lon="6.00948">
        <ele>2128.8000488281</ele>
        <time>2015-08-20T06:11:45.000Z</time>
      </trkpt>
      <trkpt lat="44.92577" lon="6.00951">
        <ele>2129.1999511719</ele>
        <time>2015-08-20T06:11:48.000Z</time>
      </trkpt>
      <trkpt lat="44.92576" lon="6.00951">
        <ele>2129.8000488281</ele>
        <time>2015-08-20T06:11:49.000Z</time>
      </trkpt>
      <trkpt lat="44.92574" lon="6.00953">
        <ele>2130.3999023438</ele>
        <time>2015-08-20T06:11:52.000Z</time>
      </trkpt>
      <trkpt lat="44.92573" lon="6.00956">
        <ele>2130.3999023438</ele>
        <time>2015-08-20T06:11:55.000Z</time>
      </trkpt>
      <trkpt lat="44.92574" lon="6.00957">
        <ele>2130.1999511719</ele>
        <time>2015-08-20T06:11:56.000Z</time>
      </trkpt>
      <trkpt lat="44.92574" lon="6.00959">
        <ele>2130</ele>
        <time>2015-08-20T06:11:57.000Z</time>
      </trkpt>
      <trkpt lat="44.92574" lon="6.00962">
        <ele>2129.6000976562</ele>
        <time>2015-08-20T06:12:00.000Z</time>
      </trkpt>
      <trkpt lat="44.92572" lon="6.0097">
        <ele>2129.8000488281</ele>
        <time>2015-08-20T06:12:04.000Z</time>
      </trkpt>
      <trkpt lat="44.92568" lon="6.00974">
        <ele>2131.8000488281</ele>
        <time>2015-08-20T06:12:08.000Z</time>
      </trkpt>
      <trkpt lat="44.92568" lon="6.00975">
        <ele>2131.6000976562</ele>
        <time>2015-08-20T06:12:09.000Z</time>
      </trkpt>
      <trkpt lat="44.92565" lon="6.00982">
        <ele>2133.1999511719</ele>
        <time>2015-08-20T06:12:14.000Z</time>
      </trkpt>
      <trkpt lat="44.92564" lon="6.00986">
        <ele>2133.8000488281</ele>
        <time>2015-08-20T06:12:18.000Z</time>
      </trkpt>
      <trkpt lat="44.92564" lon="6.00988">
        <ele>2134</ele>
        <time>2015-08-20T06:12:19.000Z</time>
      </trkpt>
      <trkpt lat="44.92563" lon="6.0099">
        <ele>2134.3999023438</ele>
        <time>2015-08-20T06:12:21.000Z</time>
      </trkpt>
      <trkpt lat="44.92563" lon="6.0099">
        <ele>2134.1999511719</ele>
        <time>2015-08-20T06:12:22.000Z</time>
      </trkpt>
      <trkpt lat="44.92563" lon="6.00993">
        <ele>2134.8000488281</ele>
        <time>2015-08-20T06:12:25.000Z</time>
      </trkpt>
      <trkpt lat="44.92562" lon="6.00997">
        <ele>2134.8000488281</ele>
        <time>2015-08-20T06:12:29.000Z</time>
      </trkpt>
      <trkpt lat="44.92563" lon="6.01">
        <ele>2134.6000976562</ele>
        <time>2015-08-20T06:12:33.000Z</time>
      </trkpt>
      <trkpt lat="44.92562" lon="6.01003">
        <ele>2134.6000976562</ele>
        <time>2015-08-20T06:12:35.000Z</time>
      </trkpt>
      <trkpt lat="44.92562" lon="6.01003">
        <ele>2134.3999023438</ele>
        <time>2015-08-20T06:12:37.000Z</time>
      </trkpt>
      <trkpt lat="44.92563" lon="6.01007">
        <ele>2133.8000488281</ele>
        <time>2015-08-20T06:12:39.000Z</time>
      </trkpt>
      <trkpt lat="44.92563" lon="6.01009">
        <ele>2133.3999023438</ele>
        <time>2015-08-20T06:12:41.000Z</time>
      </trkpt>
      <trkpt lat="44.92564" lon="6.01012">
        <ele>2132.6000976562</ele>
        <time>2015-08-20T06:12:44.000Z</time>
      </trkpt>
      <trkpt lat="44.92564" lon="6.01014">
        <ele>2132.6000976562</ele>
        <time>2015-08-20T06:12:45.000Z</time>
      </trkpt>
      <trkpt lat="44.92562" lon="6.01018">
        <ele>2132.6000976562</ele>
        <time>2015-08-20T06:12:48.000Z</time>
      </trkpt>
      <trkpt lat="44.92561" lon="6.01021">
        <ele>2132.8000488281</ele>
        <time>2015-08-20T06:12:51.000Z</time>
      </trkpt>
      <trkpt lat="44.9256" lon="6.01026">
        <ele>2132.6000976562</ele>
        <time>2015-08-20T06:12:55.000Z</time>
      </trkpt>
      <trkpt lat="44.92559" lon="6.01029">
        <ele>2133.1999511719</ele>
        <time>2015-08-20T06:13:00.000Z</time>
      </trkpt>
      <trkpt lat="44.92558" lon="6.01033">
        <ele>2132.8000488281</ele>
        <time>2015-08-20T06:13:05.000Z</time>
      </trkpt>
      <trkpt lat="44.9256" lon="6.01035">
        <ele>2131.8000488281</ele>
        <time>2015-08-20T06:13:09.000Z</time>
      </trkpt>
      <trkpt lat="44.92562" lon="6.01038">
        <ele>2130.6000976562</ele>
        <time>2015-08-20T06:13:12.000Z</time>
      </trkpt>
      <trkpt lat="44.9256" lon="6.01045">
        <ele>2130.6000976562</ele>
        <time>2015-08-20T06:13:17.000Z</time>
      </trkpt>
      <trkpt lat="44.92558" lon="6.01047">
        <ele>2131.1999511719</ele>
        <time>2015-08-20T06:13:19.000Z</time>
      </trkpt>
      <trkpt lat="44.92557" lon="6.01051">
        <ele>2131.3999023438</ele>
        <time>2015-08-20T06:13:21.000Z</time>
      </trkpt>
      <trkpt lat="44.92557" lon="6.01055">
        <ele>2130.8000488281</ele>
        <time>2015-08-20T06:13:26.000Z</time>
      </trkpt>
      <trkpt lat="44.92556" lon="6.0106">
        <ele>2131.1999511719</ele>
        <time>2015-08-20T06:13:30.000Z</time>
      </trkpt>
      <trkpt lat="44.92556" lon="6.01063">
        <ele>2131.8000488281</ele>
        <time>2015-08-20T06:13:32.000Z</time>
      </trkpt>
      <trkpt lat="44.92556" lon="6.01065">
        <ele>2132.1999511719</ele>
        <time>2015-08-20T06:13:34.000Z</time>
      </trkpt>
      <trkpt lat="44.92556" lon="6.01066">
        <ele>2132</ele>
        <time>2015-08-20T06:13:35.000Z</time>
      </trkpt>
      <trkpt lat="44.92557" lon="6.01069">
        <ele>2132.1999511719</ele>
        <time>2015-08-20T06:13:38.000Z</time>
      </trkpt>
      <trkpt lat="44.92556" lon="6.01074">
        <ele>2133.1999511719</ele>
        <time>2015-08-20T06:13:42.000Z</time>
      </trkpt>
      <trkpt lat="44.92556" lon="6.01075">
        <ele>2133.3999023438</ele>
        <time>2015-08-20T06:13:43.000Z</time>
      </trkpt>
      <trkpt lat="44.92557" lon="6.01078">
        <ele>2133.3999023438</ele>
        <time>2015-08-20T06:13:46.000Z</time>
      </trkpt>
      <trkpt lat="44.92555" lon="6.0108">
        <ele>2134.1999511719</ele>
        <time>2015-08-20T06:13:48.000Z</time>
      </trkpt>
      <trkpt lat="44.92553" lon="6.01082">
        <ele>2135.3999023438</ele>
        <time>2015-08-20T06:13:51.000Z</time>
      </trkpt>
      <trkpt lat="44.92554" lon="6.01085">
        <ele>2135.1999511719</ele>
        <time>2015-08-20T06:13:54.000Z</time>
      </trkpt>
      <trkpt lat="44.92554" lon="6.01086">
        <ele>2135.3999023438</ele>
        <time>2015-08-20T06:13:55.000Z</time>
      </trkpt>
      <trkpt lat="44.92555" lon="6.01092">
        <ele>2135.8000488281</ele>
        <time>2015-08-20T06:14:01.000Z</time>
      </trkpt>
      <trkpt lat="44.92554" lon="6.01093">
        <ele>2136.1999511719</ele>
        <time>2015-08-20T06:14:04.000Z</time>
      </trkpt>
      <trkpt lat="44.92554" lon="6.01097">
        <ele>2136.8000488281</ele>
        <time>2015-08-20T06:14:08.000Z</time>
      </trkpt>
      <trkpt lat="44.92555" lon="6.01098">
        <ele>2136.3999023438</ele>
        <time>2015-08-20T06:14:10.000Z</time>
      </trkpt>
      <trkpt lat="44.92557" lon="6.01103">
        <ele>2136</ele>
        <time>2015-08-20T06:14:14.000Z</time>
      </trkpt>
      <trkpt lat="44.92558" lon="6.01105">
        <ele>2136</ele>
        <time>2015-08-20T06:14:16.000Z</time>
      </trkpt>
      <trkpt lat="44.92558" lon="6.01108">
        <ele>2136.3999023438</ele>
        <time>2015-08-20T06:14:18.000Z</time>
      </trkpt>
      <trkpt lat="44.92558" lon="6.0111">
        <ele>2136.3999023438</ele>
        <time>2015-08-20T06:14:20.000Z</time>
      </trkpt>
      <trkpt lat="44.92558" lon="6.01113">
        <ele>2136.6000976562</ele>
        <time>2015-08-20T06:14:22.000Z</time>
      </trkpt>
      <trkpt lat="44.92558" lon="6.01116">
        <ele>2136.8000488281</ele>
        <time>2015-08-20T06:14:24.000Z</time>
      </trkpt>
      <trkpt lat="44.92555" lon="6.01119">
        <ele>2138.3999023438</ele>
        <time>2015-08-20T06:14:27.000Z</time>
      </trkpt>
      <trkpt lat="44.92555" lon="6.01121">
        <ele>2139</ele>
        <time>2015-08-20T06:14:29.000Z</time>
      </trkpt>
      <trkpt lat="44.92554" lon="6.01122">
        <ele>2139.1999511719</ele>
        <time>2015-08-20T06:14:30.000Z</time>
      </trkpt>
      <trkpt lat="44.92554" lon="6.01131">
        <ele>2140.1999511719</ele>
        <time>2015-08-20T06:14:35.000Z</time>
      </trkpt>
      <trkpt lat="44.92555" lon="6.01141">
        <ele>2141</ele>
        <time>2015-08-20T06:14:40.000Z</time>
      </trkpt>
      <trkpt lat="44.92554" lon="6.0115">
        <ele>2144.1999511719</ele>
        <time>2015-08-20T06:14:45.000Z</time>
      </trkpt>
      <trkpt lat="44.92554" lon="6.01152">
        <ele>2144.6000976562</ele>
        <time>2015-08-20T06:14:46.000Z</time>
      </trkpt>
      <trkpt lat="44.92557" lon="6.01158">
        <ele>2145.8000488281</ele>
        <time>2015-08-20T06:14:50.000Z</time>
      </trkpt>
      <trkpt lat="44.92558" lon="6.01164">
        <ele>2147.1999511719</ele>
        <time>2015-08-20T06:14:54.000Z</time>
      </trkpt>
      <trkpt lat="44.92559" lon="6.01168">
        <ele>2148</ele>
        <time>2015-08-20T06:14:56.000Z</time>
      </trkpt>
      <trkpt lat="44.92561" lon="6.01171">
        <ele>2148.8000488281</ele>
        <time>2015-08-20T06:14:59.000Z</time>
      </trkpt>
      <trkpt lat="44.92561" lon="6.01178">
        <ele>2150.8000488281</ele>
        <time>2015-08-20T06:15:03.000Z</time>
      </trkpt>
      <trkpt lat="44.92562" lon="6.01182">
        <ele>2151.6000976562</ele>
        <time>2015-08-20T06:15:06.000Z</time>
      </trkpt>
      <trkpt lat="44.92563" lon="6.01183">
        <ele>2151.8000488281</ele>
        <time>2015-08-20T06:15:08.000Z</time>
      </trkpt>
      <trkpt lat="44.92563" lon="6.01188">
        <ele>2153.6000976562</ele>
        <time>2015-08-20T06:15:14.000Z</time>
      </trkpt>
      <trkpt lat="44.92565" lon="6.01193">
        <ele>2154.3999023438</ele>
        <time>2015-08-20T06:15:19.000Z</time>
      </trkpt>
      <trkpt lat="44.92567" lon="6.01196">
        <ele>2154.6000976562</ele>
        <time>2015-08-20T06:15:22.000Z</time>
      </trkpt>
      <trkpt lat="44.92568" lon="6.01199">
        <ele>2155.3999023438</ele>
        <time>2015-08-20T06:15:23.000Z</time>
      </trkpt>
      <trkpt lat="44.92568" lon="6.012">
        <ele>2155.6000976562</ele>
        <time>2015-08-20T06:15:25.000Z</time>
      </trkpt>
      <trkpt lat="44.92567" lon="6.01201">
        <ele>2156.1999511719</ele>
        <time>2015-08-20T06:15:26.000Z</time>
      </trkpt>
      <trkpt lat="44.92569" lon="6.01204">
        <ele>2156.8000488281</ele>
        <time>2015-08-20T06:15:29.000Z</time>
      </trkpt>
      <trkpt lat="44.92568" lon="6.01207">
        <ele>2157.8000488281</ele>
        <time>2015-08-20T06:15:33.000Z</time>
      </trkpt>
      <trkpt lat="44.92567" lon="6.01212">
        <ele>2160</ele>
        <time>2015-08-20T06:15:37.000Z</time>
      </trkpt>
      <trkpt lat="44.92567" lon="6.01215">
        <ele>2161.3999023438</ele>
        <time>2015-08-20T06:15:41.000Z</time>
      </trkpt>
      <trkpt lat="44.92568" lon="6.01217">
        <ele>2161.6000976562</ele>
        <time>2015-08-20T06:15:43.000Z</time>
      </trkpt>
      <trkpt lat="44.9257" lon="6.01221">
        <ele>2162.3999023438</ele>
        <time>2015-08-20T06:15:46.000Z</time>
      </trkpt>
      <trkpt lat="44.9257" lon="6.01222">
        <ele>2162.6000976562</ele>
        <time>2015-08-20T06:15:47.000Z</time>
      </trkpt>
      <trkpt lat="44.92571" lon="6.01224">
        <ele>2163</ele>
        <time>2015-08-20T06:15:49.000Z</time>
      </trkpt>
      <trkpt lat="44.9257" lon="6.01226">
        <ele>2163.8000488281</ele>
        <time>2015-08-20T06:15:50.000Z</time>
      </trkpt>
      <trkpt lat="44.92571" lon="6.01228">
        <ele>2163.8000488281</ele>
        <time>2015-08-20T06:15:53.000Z</time>
      </trkpt>
      <trkpt lat="44.92573" lon="6.01232">
        <ele>2164</ele>
        <time>2015-08-20T06:15:57.000Z</time>
      </trkpt>
      <trkpt lat="44.92574" lon="6.01233">
        <ele>2163.8000488281</ele>
        <time>2015-08-20T06:15:59.000Z</time>
      </trkpt>
      <trkpt lat="44.92576" lon="6.01235">
        <ele>2163.3999023438</ele>
        <time>2015-08-20T06:16:01.000Z</time>
      </trkpt>
      <trkpt lat="44.92577" lon="6.01237">
        <ele>2163.6000976562</ele>
        <time>2015-08-20T06:16:03.000Z</time>
      </trkpt>
      <trkpt lat="44.92578" lon="6.0124">
        <ele>2163.3999023438</ele>
        <time>2015-08-20T06:16:05.000Z</time>
      </trkpt>
      <trkpt lat="44.9258" lon="6.01242">
        <ele>2163.3999023438</ele>
        <time>2015-08-20T06:16:07.000Z</time>
      </trkpt>
      <trkpt lat="44.92579" lon="6.01243">
        <ele>2163.8000488281</ele>
        <time>2015-08-20T06:16:09.000Z</time>
      </trkpt>
      <trkpt lat="44.9258" lon="6.01246">
        <ele>2164.1999511719</ele>
        <time>2015-08-20T06:16:14.000Z</time>
      </trkpt>
      <trkpt lat="44.92581" lon="6.0125">
        <ele>2164.8000488281</ele>
        <time>2015-08-20T06:16:17.000Z</time>
      </trkpt>
      <trkpt lat="44.92584" lon="6.01255">
        <ele>2164.8000488281</ele>
        <time>2015-08-20T06:16:23.000Z</time>
      </trkpt>
      <trkpt lat="44.92584" lon="6.01261">
        <ele>2166.1999511719</ele>
        <time>2015-08-20T06:16:27.000Z</time>
      </trkpt>
      <trkpt lat="44.92582" lon="6.01264">
        <ele>2168</ele>
        <time>2015-08-20T06:16:32.000Z</time>
      </trkpt>
      <trkpt lat="44.92584" lon="6.01267">
        <ele>2167.6000976562</ele>
        <time>2015-08-20T06:16:54.000Z</time>
      </trkpt>
      <trkpt lat="44.92583" lon="6.01272">
        <ele>2169.6000976562</ele>
        <time>2015-08-20T06:17:00.000Z</time>
      </trkpt>
      <trkpt lat="44.92587" lon="6.01278">
        <ele>2169.1999511719</ele>
        <time>2015-08-20T06:17:11.000Z</time>
      </trkpt>
      <trkpt lat="44.92589" lon="6.01283">
        <ele>2169.6000976562</ele>
        <time>2015-08-20T06:17:16.000Z</time>
      </trkpt>
      <trkpt lat="44.92591" lon="6.01286">
        <ele>2169.6000976562</ele>
        <time>2015-08-20T06:17:21.000Z</time>
      </trkpt>
      <trkpt lat="44.92594" lon="6.0129">
        <ele>2169.8000488281</ele>
        <time>2015-08-20T06:17:26.000Z</time>
      </trkpt>
      <trkpt lat="44.92596" lon="6.01295">
        <ele>2170.1999511719</ele>
        <time>2015-08-20T06:17:33.000Z</time>
      </trkpt>
      <trkpt lat="44.92593" lon="6.01299">
        <ele>2172.3999023438</ele>
        <time>2015-08-20T06:17:38.000Z</time>
      </trkpt>
      <trkpt lat="44.92592" lon="6.01301">
        <ele>2173.1999511719</ele>
        <time>2015-08-20T06:17:39.000Z</time>
      </trkpt>
      <trkpt lat="44.92593" lon="6.01301">
        <ele>2173.1999511719</ele>
        <time>2015-08-20T06:17:41.000Z</time>
      </trkpt>
      <trkpt lat="44.92596" lon="6.01305">
        <ele>2172.6000976562</ele>
        <time>2015-08-20T06:17:46.000Z</time>
      </trkpt>
      <trkpt lat="44.92598" lon="6.01308">
        <ele>2172.8000488281</ele>
        <time>2015-08-20T06:17:49.000Z</time>
      </trkpt>
      <trkpt lat="44.92597" lon="6.01313">
        <ele>2174.3999023438</ele>
        <time>2015-08-20T06:17:53.000Z</time>
      </trkpt>
      <trkpt lat="44.92598" lon="6.01318">
        <ele>2175.1999511719</ele>
        <time>2015-08-20T06:17:56.000Z</time>
      </trkpt>
      <trkpt lat="44.926" lon="6.01323">
        <ele>2175.6000976562</ele>
        <time>2015-08-20T06:18:00.000Z</time>
      </trkpt>
      <trkpt lat="44.926" lon="6.01325">
        <ele>2176.1999511719</ele>
        <time>2015-08-20T06:18:01.000Z</time>
      </trkpt>
      <trkpt lat="44.926" lon="6.01328">
        <ele>2177</ele>
        <time>2015-08-20T06:18:04.000Z</time>
      </trkpt>
      <trkpt lat="44.926" lon="6.01329">
        <ele>2177.6000976562</ele>
        <time>2015-08-20T06:18:05.000Z</time>
      </trkpt>
      <trkpt lat="44.92601" lon="6.0133">
        <ele>2177.1999511719</ele>
        <time>2015-08-20T06:18:06.000Z</time>
      </trkpt>
      <trkpt lat="44.92603" lon="6.01331">
        <ele>2176.8000488281</ele>
        <time>2015-08-20T06:18:09.000Z</time>
      </trkpt>
      <trkpt lat="44.92607" lon="6.01333">
        <ele>2175.3999023438</ele>
        <time>2015-08-20T06:18:13.000Z</time>
      </trkpt>
      <trkpt lat="44.9261" lon="6.01337">
        <ele>2174.8000488281</ele>
        <time>2015-08-20T06:18:17.000Z</time>
      </trkpt>
      <trkpt lat="44.92612" lon="6.01337">
        <ele>2174</ele>
        <time>2015-08-20T06:18:19.000Z</time>
      </trkpt>
      <trkpt lat="44.92615" lon="6.01338">
        <ele>2172.6000976562</ele>
        <time>2015-08-20T06:18:23.000Z</time>
      </trkpt>
      <trkpt lat="44.92617" lon="6.01339">
        <ele>2172.1999511719</ele>
        <time>2015-08-20T06:18:24.000Z</time>
      </trkpt>
      <trkpt lat="44.92618" lon="6.0134">
        <ele>2172</ele>
        <time>2015-08-20T06:18:25.000Z</time>
      </trkpt>
      <trkpt lat="44.9262" lon="6.01343">
        <ele>2171.6000976562</ele>
        <time>2015-08-20T06:18:29.000Z</time>
      </trkpt>
      <trkpt lat="44.92622" lon="6.01344">
        <ele>2171.1999511719</ele>
        <time>2015-08-20T06:18:30.000Z</time>
      </trkpt>
      <trkpt lat="44.92627" lon="6.01348">
        <ele>2171.6000976562</ele>
        <time>2015-08-20T06:18:35.000Z</time>
      </trkpt>
      <trkpt lat="44.92629" lon="6.0135">
        <ele>2172.1999511719</ele>
        <time>2015-08-20T06:18:38.000Z</time>
      </trkpt>
      <trkpt lat="44.92629" lon="6.01351">
        <ele>2172.1999511719</ele>
        <time>2015-08-20T06:18:39.000Z</time>
      </trkpt>
      <trkpt lat="44.92632" lon="6.01354">
        <ele>2173.1999511719</ele>
        <time>2015-08-20T06:18:42.000Z</time>
      </trkpt>
      <trkpt lat="44.92633" lon="6.01358">
        <ele>2174</ele>
        <time>2015-08-20T06:18:45.000Z</time>
      </trkpt>
      <trkpt lat="44.92634" lon="6.01361">
        <ele>2175</ele>
        <time>2015-08-20T06:18:49.000Z</time>
      </trkpt>
      <trkpt lat="44.92634" lon="6.01363">
        <ele>2175.6000976562</ele>
        <time>2015-08-20T06:18:51.000Z</time>
      </trkpt>
      <trkpt lat="44.92634" lon="6.01366">
        <ele>2176.1999511719</ele>
        <time>2015-08-20T06:18:53.000Z</time>
      </trkpt>
      <trkpt lat="44.92636" lon="6.01369">
        <ele>2177.1999511719</ele>
        <time>2015-08-20T06:18:57.000Z</time>
      </trkpt>
      <trkpt lat="44.92637" lon="6.01373">
        <ele>2178.1999511719</ele>
        <time>2015-08-20T06:19:00.000Z</time>
      </trkpt>
      <trkpt lat="44.92638" lon="6.01374">
        <ele>2178.6000976562</ele>
        <time>2015-08-20T06:19:01.000Z</time>
      </trkpt>
      <trkpt lat="44.9264" lon="6.01378">
        <ele>2179.3999023438</ele>
        <time>2015-08-20T06:19:04.000Z</time>
      </trkpt>
      <trkpt lat="44.92642" lon="6.0138">
        <ele>2180.1999511719</ele>
        <time>2015-08-20T06:19:07.000Z</time>
      </trkpt>
      <trkpt lat="44.92643" lon="6.01383">
        <ele>2180.8000488281</ele>
        <time>2015-08-20T06:19:09.000Z</time>
      </trkpt>
      <trkpt lat="44.92644" lon="6.01384">
        <ele>2181.1999511719</ele>
        <time>2015-08-20T06:19:11.000Z</time>
      </trkpt>
      <trkpt lat="44.92646" lon="6.01387">
        <ele>2182</ele>
        <time>2015-08-20T06:19:14.000Z</time>
      </trkpt>
      <trkpt lat="44.92647" lon="6.01389">
        <ele>2182.3999023438</ele>
        <time>2015-08-20T06:19:16.000Z</time>
      </trkpt>
      <trkpt lat="44.92649" lon="6.01392">
        <ele>2183.1999511719</ele>
        <time>2015-08-20T06:19:20.000Z</time>
      </trkpt>
      <trkpt lat="44.9265" lon="6.01392">
        <ele>2183.3999023438</ele>
        <time>2015-08-20T06:19:21.000Z</time>
      </trkpt>
      <trkpt lat="44.92651" lon="6.01394">
        <ele>2184</ele>
        <time>2015-08-20T06:19:24.000Z</time>
      </trkpt>
      <trkpt lat="44.92654" lon="6.01397">
        <ele>2185.3999023438</ele>
        <time>2015-08-20T06:19:28.000Z</time>
      </trkpt>
      <trkpt lat="44.92656" lon="6.014">
        <ele>2186.6000976562</ele>
        <time>2015-08-20T06:19:33.000Z</time>
      </trkpt>
      <trkpt lat="44.92656" lon="6.01405">
        <ele>2188.6000976562</ele>
        <time>2015-08-20T06:19:37.000Z</time>
      </trkpt>
      <trkpt lat="44.92657" lon="6.01409">
        <ele>2189.8000488281</ele>
        <time>2015-08-20T06:19:41.000Z</time>
      </trkpt>
      <trkpt lat="44.92656" lon="6.01411">
        <ele>2190.8000488281</ele>
        <time>2015-08-20T06:19:45.000Z</time>
      </trkpt>
      <trkpt lat="44.92657" lon="6.01415">
        <ele>2192.1999511719</ele>
        <time>2015-08-20T06:19:50.000Z</time>
      </trkpt>
      <trkpt lat="44.92656" lon="6.01418">
        <ele>2193.6000976562</ele>
        <time>2015-08-20T06:19:54.000Z</time>
      </trkpt>
      <trkpt lat="44.92657" lon="6.01421">
        <ele>2194.6000976562</ele>
        <time>2015-08-20T06:19:57.000Z</time>
      </trkpt>
      <trkpt lat="44.92657" lon="6.01423">
        <ele>2195.3999023438</ele>
        <time>2015-08-20T06:20:00.000Z</time>
      </trkpt>
      <trkpt lat="44.92657" lon="6.01427">
        <ele>2196.8000488281</ele>
        <time>2015-08-20T06:20:07.000Z</time>
      </trkpt>
      <trkpt lat="44.92657" lon="6.01429">
        <ele>2198.1999511719</ele>
        <time>2015-08-20T06:20:10.000Z</time>
      </trkpt>
      <trkpt lat="44.92658" lon="6.01433">
        <ele>2199.3999023438</ele>
        <time>2015-08-20T06:20:15.000Z</time>
      </trkpt>
      <trkpt lat="44.92661" lon="6.01438">
        <ele>2201.8000488281</ele>
        <time>2015-08-20T06:20:22.000Z</time>
      </trkpt>
      <trkpt lat="44.92664" lon="6.01442">
        <ele>2203.3999023438</ele>
        <time>2015-08-20T06:20:26.000Z</time>
      </trkpt>
      <trkpt lat="44.92666" lon="6.01443">
        <ele>2203.6000976562</ele>
        <time>2015-08-20T06:20:29.000Z</time>
      </trkpt>
      <trkpt lat="44.92667" lon="6.01443">
        <ele>2203.8000488281</ele>
        <time>2015-08-20T06:20:31.000Z</time>
      </trkpt>
      <trkpt lat="44.92669" lon="6.01444">
        <ele>2203.8000488281</ele>
        <time>2015-08-20T06:20:36.000Z</time>
      </trkpt>
      <trkpt lat="44.92672" lon="6.01445">
        <ele>2204.1999511719</ele>
        <time>2015-08-20T06:20:41.000Z</time>
      </trkpt>
      <trkpt lat="44.92675" lon="6.01444">
        <ele>2203.8000488281</ele>
        <time>2015-08-20T06:20:46.000Z</time>
      </trkpt>
      <trkpt lat="44.9268" lon="6.01444">
        <ele>2203.6000976562</ele>
        <time>2015-08-20T06:20:54.000Z</time>
      </trkpt>
      <trkpt lat="44.92681" lon="6.01447">
        <ele>2205</ele>
        <time>2015-08-20T06:21:00.000Z</time>
      </trkpt>
      <trkpt lat="44.92683" lon="6.0145">
        <ele>2206</ele>
        <time>2015-08-20T06:21:08.000Z</time>
      </trkpt>
      <trkpt lat="44.92685" lon="6.01453">
        <ele>2207</ele>
        <time>2015-08-20T06:21:12.000Z</time>
      </trkpt>
      <trkpt lat="44.92686" lon="6.01455">
        <ele>2208</ele>
        <time>2015-08-20T06:21:19.000Z</time>
      </trkpt>
      <trkpt lat="44.92688" lon="6.01458">
        <ele>2209.1999511719</ele>
        <time>2015-08-20T06:21:24.000Z</time>
      </trkpt>
      <trkpt lat="44.92694" lon="6.01459">
        <ele>2209.6000976562</ele>
        <time>2015-08-20T06:21:36.000Z</time>
      </trkpt>
      <trkpt lat="44.92697" lon="6.01461">
        <ele>2210.3999023438</ele>
        <time>2015-08-20T06:21:42.000Z</time>
      </trkpt>
      <trkpt lat="44.92699" lon="6.01463">
        <ele>2211.1999511719</ele>
        <time>2015-08-20T06:21:47.000Z</time>
      </trkpt>
      <trkpt lat="44.92701" lon="6.01465">
        <ele>2212</ele>
        <time>2015-08-20T06:21:51.000Z</time>
      </trkpt>
      <trkpt lat="44.92702" lon="6.01468">
        <ele>2213</ele>
        <time>2015-08-20T06:21:55.000Z</time>
      </trkpt>
      <trkpt lat="44.92699" lon="6.01469">
        <ele>2213.6000976562</ele>
        <time>2015-08-20T06:22:00.000Z</time>
      </trkpt>
      <trkpt lat="44.92699" lon="6.01472">
        <ele>2214.8000488281</ele>
        <time>2015-08-20T06:22:04.000Z</time>
      </trkpt>
      <trkpt lat="44.92699" lon="6.01473">
        <ele>2215.6000976562</ele>
        <time>2015-08-20T06:22:08.000Z</time>
      </trkpt>
      <trkpt lat="44.927" lon="6.01475">
        <ele>2216.3999023438</ele>
        <time>2015-08-20T06:22:13.000Z</time>
      </trkpt>
      <trkpt lat="44.92702" lon="6.01478">
        <ele>2217.3999023438</ele>
        <time>2015-08-20T06:22:17.000Z</time>
      </trkpt>
      <trkpt lat="44.92704" lon="6.01481">
        <ele>2219</ele>
        <time>2015-08-20T06:22:22.000Z</time>
      </trkpt>
      <trkpt lat="44.92705" lon="6.01484">
        <ele>2220.6000976562</ele>
        <time>2015-08-20T06:22:27.000Z</time>
      </trkpt>
      <trkpt lat="44.92705" lon="6.01489">
        <ele>2223</ele>
        <time>2015-08-20T06:22:35.000Z</time>
      </trkpt>
      <trkpt lat="44.92705" lon="6.01493">
        <ele>2224.8000488281</ele>
        <time>2015-08-20T06:22:40.000Z</time>
      </trkpt>
      <trkpt lat="44.92704" lon="6.01494">
        <ele>2225.6000976562</ele>
        <time>2015-08-20T06:22:47.000Z</time>
      </trkpt>
      <trkpt lat="44.92703" lon="6.01497">
        <ele>2226.8000488281</ele>
        <time>2015-08-20T06:22:53.000Z</time>
      </trkpt>
      <trkpt lat="44.92701" lon="6.01499">
        <ele>2228.1999511719</ele>
        <time>2015-08-20T06:22:58.000Z</time>
      </trkpt>
      <trkpt lat="44.92697" lon="6.01504">
        <ele>2230.6000976562</ele>
        <time>2015-08-20T06:23:06.000Z</time>
      </trkpt>
      <trkpt lat="44.92696" lon="6.01506">
        <ele>2231.6000976562</ele>
        <time>2015-08-20T06:23:10.000Z</time>
      </trkpt>
      <trkpt lat="44.92694" lon="6.0151">
        <ele>2233.8000488281</ele>
        <time>2015-08-20T06:23:17.000Z</time>
      </trkpt>
      <trkpt lat="44.92693" lon="6.01514">
        <ele>2235.8000488281</ele>
        <time>2015-08-20T06:23:22.000Z</time>
      </trkpt>
      <trkpt lat="44.92692" lon="6.01516">
        <ele>2237.1999511719</ele>
        <time>2015-08-20T06:23:26.000Z</time>
      </trkpt>
      <trkpt lat="44.92691" lon="6.01519">
        <ele>2238.6000976562</ele>
        <time>2015-08-20T06:23:30.000Z</time>
      </trkpt>
      <trkpt lat="44.9269" lon="6.01522">
        <ele>2240.1999511719</ele>
        <time>2015-08-20T06:23:35.000Z</time>
      </trkpt>
      <trkpt lat="44.92686" lon="6.01526">
        <ele>2242.3999023438</ele>
        <time>2015-08-20T06:23:41.000Z</time>
      </trkpt>
      <trkpt lat="44.92684" lon="6.01529">
        <ele>2244</ele>
        <time>2015-08-20T06:23:45.000Z</time>
      </trkpt>
      <trkpt lat="44.92684" lon="6.01532">
        <ele>2245.6000976562</ele>
        <time>2015-08-20T06:23:49.000Z</time>
      </trkpt>
      <trkpt lat="44.92685" lon="6.01537">
        <ele>2247.3999023438</ele>
        <time>2015-08-20T06:23:54.000Z</time>
      </trkpt>
      <trkpt lat="44.92684" lon="6.01539">
        <ele>2248.1999511719</ele>
        <time>2015-08-20T06:23:57.000Z</time>
      </trkpt>
      <trkpt lat="44.92683" lon="6.01541">
        <ele>2248.8000488281</ele>
        <time>2015-08-20T06:24:01.000Z</time>
      </trkpt>
      <trkpt lat="44.92681" lon="6.01544">
        <ele>2249.8000488281</ele>
        <time>2015-08-20T06:24:07.000Z</time>
      </trkpt>
      <trkpt lat="44.92682" lon="6.01548">
        <ele>2251</ele>
        <time>2015-08-20T06:24:11.000Z</time>
      </trkpt>
      <trkpt lat="44.92683" lon="6.01551">
        <ele>2252.1999511719</ele>
        <time>2015-08-20T06:24:16.000Z</time>
      </trkpt>
      <trkpt lat="44.92682" lon="6.01556">
        <ele>2253.6000976562</ele>
        <time>2015-08-20T06:24:23.000Z</time>
      </trkpt>
      <trkpt lat="44.92682" lon="6.01558">
        <ele>2254.3999023438</ele>
        <time>2015-08-20T06:24:27.000Z</time>
      </trkpt>
      <trkpt lat="44.92682" lon="6.01561">
        <ele>2255.6000976562</ele>
        <time>2015-08-20T06:24:32.000Z</time>
      </trkpt>
      <trkpt lat="44.92681" lon="6.01568">
        <ele>2258.1999511719</ele>
        <time>2015-08-20T06:24:43.000Z</time>
      </trkpt>
      <trkpt lat="44.92682" lon="6.01572">
        <ele>2260.1999511719</ele>
        <time>2015-08-20T06:24:51.000Z</time>
      </trkpt>
      <trkpt lat="44.92682" lon="6.01576">
        <ele>2261.8000488281</ele>
        <time>2015-08-20T06:24:57.000Z</time>
      </trkpt>
      <trkpt lat="44.92682" lon="6.0158">
        <ele>2263.1999511719</ele>
        <time>2015-08-20T06:25:04.000Z</time>
      </trkpt>
      <trkpt lat="44.92682" lon="6.01584">
        <ele>2264.8000488281</ele>
        <time>2015-08-20T06:25:10.000Z</time>
      </trkpt>
      <trkpt lat="44.92682" lon="6.01586">
        <ele>2265.8000488281</ele>
        <time>2015-08-20T06:25:15.000Z</time>
      </trkpt>
      <trkpt lat="44.92682" lon="6.01589">
        <ele>2267</ele>
        <time>2015-08-20T06:25:20.000Z</time>
      </trkpt>
      <trkpt lat="44.92681" lon="6.01592">
        <ele>2268.1999511719</ele>
        <time>2015-08-20T06:25:25.000Z</time>
      </trkpt>
      <trkpt lat="44.92681" lon="6.01596">
        <ele>2269.6000976562</ele>
        <time>2015-08-20T06:25:33.000Z</time>
      </trkpt>
      <trkpt lat="44.92683" lon="6.01596">
        <ele>2270</ele>
        <time>2015-08-20T06:25:34.000Z</time>
      </trkpt>
      <trkpt lat="44.92683" lon="6.01596">
        <ele>2270.1999511719</ele>
        <time>2015-08-20T06:25:36.000Z</time>
      </trkpt>
      <trkpt lat="44.92683" lon="6.01599">
        <ele>2271.1999511719</ele>
        <time>2015-08-20T06:25:41.000Z</time>
      </trkpt>
      <trkpt lat="44.92683" lon="6.01603">
        <ele>2272.8000488281</ele>
        <time>2015-08-20T06:25:47.000Z</time>
      </trkpt>
      <trkpt lat="44.92683" lon="6.01606">
        <ele>2273.8000488281</ele>
        <time>2015-08-20T06:25:51.000Z</time>
      </trkpt>
      <trkpt lat="44.92682" lon="6.01608">
        <ele>2275</ele>
        <time>2015-08-20T06:25:57.000Z</time>
      </trkpt>
      <trkpt lat="44.92683" lon="6.01612">
        <ele>2276.6000976562</ele>
        <time>2015-08-20T06:26:04.000Z</time>
      </trkpt>
      <trkpt lat="44.92682" lon="6.01615">
        <ele>2277.6000976562</ele>
        <time>2015-08-20T06:26:09.000Z</time>
      </trkpt>
      <trkpt lat="44.92687" lon="6.01623">
        <ele>2282</ele>
        <time>2015-08-20T06:26:31.000Z</time>
      </trkpt>
      <trkpt lat="44.9269" lon="6.01625">
        <ele>2282.8000488281</ele>
        <time>2015-08-20T06:26:38.000Z</time>
      </trkpt>
      <trkpt lat="44.92692" lon="6.01626">
        <ele>2283</ele>
        <time>2015-08-20T06:26:43.000Z</time>
      </trkpt>
      <trkpt lat="44.92693" lon="6.01628">
        <ele>2284.1999511719</ele>
        <time>2015-08-20T06:26:47.000Z</time>
      </trkpt>
      <trkpt lat="44.92692" lon="6.01632">
        <ele>2288.1999511719</ele>
        <time>2015-08-20T06:26:53.000Z</time>
      </trkpt>
      <trkpt lat="44.92692" lon="6.0164">
        <ele>2295.1999511719</ele>
        <time>2015-08-20T06:27:05.000Z</time>
      </trkpt>
      <trkpt lat="44.9269" lon="6.01642">
        <ele>2297.8000488281</ele>
        <time>2015-08-20T06:27:09.000Z</time>
      </trkpt>
      <trkpt lat="44.9269" lon="6.01644">
        <ele>2298.8000488281</ele>
        <time>2015-08-20T06:27:16.000Z</time>
      </trkpt>
      <trkpt lat="44.92693" lon="6.01644">
        <ele>2298</ele>
        <time>2015-08-20T06:27:20.000Z</time>
      </trkpt>
      <trkpt lat="44.92695" lon="6.01644">
        <ele>2297.1999511719</ele>
        <time>2015-08-20T06:27:25.000Z</time>
      </trkpt>
      <trkpt lat="44.92697" lon="6.01646">
        <ele>2297</ele>
        <time>2015-08-20T06:27:30.000Z</time>
      </trkpt>
      <trkpt lat="44.92699" lon="6.01648">
        <ele>2297.6000976562</ele>
        <time>2015-08-20T06:27:35.000Z</time>
      </trkpt>
      <trkpt lat="44.92701" lon="6.0165">
        <ele>2297.8000488281</ele>
        <time>2015-08-20T06:27:42.000Z</time>
      </trkpt>
      <trkpt lat="44.92704" lon="6.01652">
        <ele>2297.6000976562</ele>
        <time>2015-08-20T06:27:49.000Z</time>
      </trkpt>
      <trkpt lat="44.92706" lon="6.01653">
        <ele>2298</ele>
        <time>2015-08-20T06:27:53.000Z</time>
      </trkpt>
      <trkpt lat="44.92708" lon="6.01655">
        <ele>2298.6000976562</ele>
        <time>2015-08-20T06:27:58.000Z</time>
      </trkpt>
      <trkpt lat="44.92709" lon="6.01657">
        <ele>2300</ele>
        <time>2015-08-20T06:28:02.000Z</time>
      </trkpt>
      <trkpt lat="44.92708" lon="6.01659">
        <ele>2301</ele>
        <time>2015-08-20T06:28:06.000Z</time>
      </trkpt>
      <trkpt lat="44.92706" lon="6.01665">
        <ele>2304.6000976562</ele>
        <time>2015-08-20T06:28:16.000Z</time>
      </trkpt>
      <trkpt lat="44.92705" lon="6.01668">
        <ele>2306.6000976562</ele>
        <time>2015-08-20T06:28:21.000Z</time>
      </trkpt>
      <trkpt lat="44.92704" lon="6.01672">
        <ele>2308.8000488281</ele>
        <time>2015-08-20T06:28:25.000Z</time>
      </trkpt>
      <trkpt lat="44.927" lon="6.01676">
        <ele>2313.1999511719</ele>
        <time>2015-08-20T06:28:36.000Z</time>
      </trkpt>
      <trkpt lat="44.92696" lon="6.01683">
        <ele>2318.3999023438</ele>
        <time>2015-08-20T06:28:50.000Z</time>
      </trkpt>
      <trkpt lat="44.92696" lon="6.01686">
        <ele>2320.1999511719</ele>
        <time>2015-08-20T06:28:55.000Z</time>
      </trkpt>
      <trkpt lat="44.92692" lon="6.01694">
        <ele>2326.3999023438</ele>
        <time>2015-08-20T06:29:11.000Z</time>
      </trkpt>
      <trkpt lat="44.9269" lon="6.01702">
        <ele>2331.6000976562</ele>
        <time>2015-08-20T06:29:24.000Z</time>
      </trkpt>
      <trkpt lat="44.92688" lon="6.01703">
        <ele>2333</ele>
        <time>2015-08-20T06:29:28.000Z</time>
      </trkpt>
      <trkpt lat="44.92688" lon="6.01706">
        <ele>2334.6000976562</ele>
        <time>2015-08-20T06:29:32.000Z</time>
      </trkpt>
      <trkpt lat="44.92688" lon="6.01711">
        <ele>2336.1999511719</ele>
        <time>2015-08-20T06:29:38.000Z</time>
      </trkpt>
      <trkpt lat="44.92688" lon="6.01714">
        <ele>2337.3999023438</ele>
        <time>2015-08-20T06:29:44.000Z</time>
      </trkpt>
      <trkpt lat="44.92688" lon="6.01717">
        <ele>2338.3999023438</ele>
        <time>2015-08-20T06:29:48.000Z</time>
      </trkpt>
      <trkpt lat="44.92687" lon="6.0172">
        <ele>2339.3999023438</ele>
        <time>2015-08-20T06:29:53.000Z</time>
      </trkpt>
      <trkpt lat="44.92685" lon="6.01722">
        <ele>2340.3999023438</ele>
        <time>2015-08-20T06:29:58.000Z</time>
      </trkpt>
      <trkpt lat="44.92684" lon="6.01726">
        <ele>2342</ele>
        <time>2015-08-20T06:30:10.000Z</time>
      </trkpt>
      <trkpt lat="44.92681" lon="6.01726">
        <ele>2342.1999511719</ele>
        <time>2015-08-20T06:30:15.000Z</time>
      </trkpt>
      <trkpt lat="44.92677" lon="6.01725">
        <ele>2342.6000976562</ele>
        <time>2015-08-20T06:30:21.000Z</time>
      </trkpt>
      <trkpt lat="44.92674" lon="6.01723">
        <ele>2342.6000976562</ele>
        <time>2015-08-20T06:30:25.000Z</time>
      </trkpt>
      <trkpt lat="44.92673" lon="6.01723">
        <ele>2342.8000488281</ele>
        <time>2015-08-20T06:30:27.000Z</time>
      </trkpt>
      <trkpt lat="44.92672" lon="6.01724">
        <ele>2343</ele>
        <time>2015-08-20T06:30:29.000Z</time>
      </trkpt>
      <trkpt lat="44.92668" lon="6.01724">
        <ele>2343.8000488281</ele>
        <time>2015-08-20T06:30:33.000Z</time>
      </trkpt>
      <trkpt lat="44.92668" lon="6.01726">
        <ele>2344.1999511719</ele>
        <time>2015-08-20T06:30:36.000Z</time>
      </trkpt>
      <trkpt lat="44.92665" lon="6.01725">
        <ele>2344.6000976562</ele>
        <time>2015-08-20T06:30:40.000Z</time>
      </trkpt>
      <trkpt lat="44.92659" lon="6.01726">
        <ele>2346</ele>
        <time>2015-08-20T06:30:48.000Z</time>
      </trkpt>
      <trkpt lat="44.92659" lon="6.01728">
        <ele>2346.8000488281</ele>
        <time>2015-08-20T06:30:52.000Z</time>
      </trkpt>
      <trkpt lat="44.92654" lon="6.01729">
        <ele>2348.1999511719</ele>
        <time>2015-08-20T06:31:02.000Z</time>
      </trkpt>
      <trkpt lat="44.92652" lon="6.0173">
        <ele>2349</ele>
        <time>2015-08-20T06:31:06.000Z</time>
      </trkpt>
      <trkpt lat="44.9265" lon="6.01729">
        <ele>2348.8000488281</ele>
        <time>2015-08-20T06:31:08.000Z</time>
      </trkpt>
      <trkpt lat="44.92649" lon="6.0173">
        <ele>2349</ele>
        <time>2015-08-20T06:31:10.000Z</time>
      </trkpt>
      <trkpt lat="44.92649" lon="6.0173">
        <ele>2349</ele>
        <time>2015-08-20T06:31:11.000Z</time>
      </trkpt>
      <trkpt lat="44.92649" lon="6.01732">
        <ele>2350.3999023438</ele>
        <time>2015-08-20T06:31:17.000Z</time>
      </trkpt>
      <trkpt lat="44.92645" lon="6.01737">
        <ele>2353.1999511719</ele>
        <time>2015-08-20T06:31:29.000Z</time>
      </trkpt>
      <trkpt lat="44.9264" lon="6.01738">
        <ele>2354.6000976562</ele>
        <time>2015-08-20T06:31:34.000Z</time>
      </trkpt>
      <trkpt lat="44.92638" lon="6.01739">
        <ele>2355.1999511719</ele>
        <time>2015-08-20T06:31:38.000Z</time>
      </trkpt>
      <trkpt lat="44.92635" lon="6.0174">
        <ele>2355.3999023438</ele>
        <time>2015-08-20T06:31:41.000Z</time>
      </trkpt>
      <trkpt lat="44.92635" lon="6.01741">
        <ele>2355.6000976562</ele>
        <time>2015-08-20T06:31:42.000Z</time>
      </trkpt>
      <trkpt lat="44.92633" lon="6.01742">
        <ele>2355.8000488281</ele>
        <time>2015-08-20T06:31:45.000Z</time>
      </trkpt>
      <trkpt lat="44.9263" lon="6.01743">
        <ele>2356</ele>
        <time>2015-08-20T06:31:52.000Z</time>
      </trkpt>
      <trkpt lat="44.92626" lon="6.01743">
        <ele>2355.8000488281</ele>
        <time>2015-08-20T06:31:58.000Z</time>
      </trkpt>
      <trkpt lat="44.92623" lon="6.01743">
        <ele>2355.8000488281</ele>
        <time>2015-08-20T06:32:04.000Z</time>
      </trkpt>
      <trkpt lat="44.9262" lon="6.01741">
        <ele>2356.1999511719</ele>
        <time>2015-08-20T06:32:08.000Z</time>
      </trkpt>
      <trkpt lat="44.92616" lon="6.01739">
        <ele>2356.6000976562</ele>
        <time>2015-08-20T06:32:14.000Z</time>
      </trkpt>
      <trkpt lat="44.92612" lon="6.01738">
        <ele>2357.6000976562</ele>
        <time>2015-08-20T06:32:18.000Z</time>
      </trkpt>
      <trkpt lat="44.9261" lon="6.01737">
        <ele>2357.8000488281</ele>
        <time>2015-08-20T06:32:24.000Z</time>
      </trkpt>
      <trkpt lat="44.92607" lon="6.01738">
        <ele>2358.8000488281</ele>
        <time>2015-08-20T06:32:29.000Z</time>
      </trkpt>
      <trkpt lat="44.92606" lon="6.01739">
        <ele>2359.1999511719</ele>
        <time>2015-08-20T06:32:32.000Z</time>
      </trkpt>
      <trkpt lat="44.92605" lon="6.01739">
        <ele>2359.3999023438</ele>
        <time>2015-08-20T06:32:33.000Z</time>
      </trkpt>
      <trkpt lat="44.92603" lon="6.01739">
        <ele>2360</ele>
        <time>2015-08-20T06:32:36.000Z</time>
      </trkpt>
      <trkpt lat="44.92595" lon="6.01739">
        <ele>2362.1999511719</ele>
        <time>2015-08-20T06:32:50.000Z</time>
      </trkpt>
      <trkpt lat="44.92595" lon="6.01737">
        <ele>2361.8000488281</ele>
        <time>2015-08-20T06:32:53.000Z</time>
      </trkpt>
      <trkpt lat="44.92586" lon="6.01735">
        <ele>2363.6000976562</ele>
        <time>2015-08-20T06:33:06.000Z</time>
      </trkpt>
      <trkpt lat="44.92589" lon="6.01737">
        <ele>2363.3999023438</ele>
        <time>2015-08-20T06:33:09.000Z</time>
      </trkpt>
      <trkpt lat="44.92583" lon="6.01738">
        <ele>2365</ele>
        <time>2015-08-20T06:33:19.000Z</time>
      </trkpt>
      <trkpt lat="44.9258" lon="6.01738">
        <ele>2365.8000488281</ele>
        <time>2015-08-20T06:33:23.000Z</time>
      </trkpt>
      <trkpt lat="44.92578" lon="6.01739">
        <ele>2366.8000488281</ele>
        <time>2015-08-20T06:33:28.000Z</time>
      </trkpt>
      <trkpt lat="44.92578" lon="6.0174">
        <ele>2367</ele>
        <time>2015-08-20T06:33:33.000Z</time>
      </trkpt>
      <trkpt lat="44.92561" lon="6.01727">
        <ele>2368</ele>
        <time>2015-08-20T06:34:12.000Z</time>
      </trkpt>
      <trkpt lat="44.92549" lon="6.01724">
        <ele>2370.3999023438</ele>
        <time>2015-08-20T06:34:29.000Z</time>
      </trkpt>
      <trkpt lat="44.92548" lon="6.01725">
        <ele>2370.8000488281</ele>
        <time>2015-08-20T06:34:30.000Z</time>
      </trkpt>
      <trkpt lat="44.92545" lon="6.01725">
        <ele>2371.8000488281</ele>
        <time>2015-08-20T06:34:36.000Z</time>
      </trkpt>
      <trkpt lat="44.92543" lon="6.01726">
        <ele>2372.3999023438</ele>
        <time>2015-08-20T06:34:40.000Z</time>
      </trkpt>
      <trkpt lat="44.92541" lon="6.01726">
        <ele>2373.1999511719</ele>
        <time>2015-08-20T06:34:44.000Z</time>
      </trkpt>
      <trkpt lat="44.92538" lon="6.01727">
        <ele>2374</ele>
        <time>2015-08-20T06:34:49.000Z</time>
      </trkpt>
      <trkpt lat="44.92537" lon="6.01728">
        <ele>2374.3999023438</ele>
        <time>2015-08-20T06:34:53.000Z</time>
      </trkpt>
      <trkpt lat="44.92529" lon="6.01728">
        <ele>2375.6000976562</ele>
        <time>2015-08-20T06:35:03.000Z</time>
      </trkpt>
      <trkpt lat="44.92527" lon="6.01729">
        <ele>2376</ele>
        <time>2015-08-20T06:35:06.000Z</time>
      </trkpt>
      <trkpt lat="44.92527" lon="6.0173">
        <ele>2376.3999023438</ele>
        <time>2015-08-20T06:35:07.000Z</time>
      </trkpt>
      <trkpt lat="44.92524" lon="6.01733">
        <ele>2377.6000976562</ele>
        <time>2015-08-20T06:35:13.000Z</time>
      </trkpt>
      <trkpt lat="44.92522" lon="6.01735">
        <ele>2378.3999023438</ele>
        <time>2015-08-20T06:35:17.000Z</time>
      </trkpt>
      <trkpt lat="44.9252" lon="6.01736">
        <ele>2379</ele>
        <time>2015-08-20T06:35:21.000Z</time>
      </trkpt>
      <trkpt lat="44.92516" lon="6.01738">
        <ele>2380.1999511719</ele>
        <time>2015-08-20T06:35:30.000Z</time>
      </trkpt>
      <trkpt lat="44.92513" lon="6.01741">
        <ele>2381.3999023438</ele>
        <time>2015-08-20T06:35:36.000Z</time>
      </trkpt>
      <trkpt lat="44.9251" lon="6.01741">
        <ele>2382</ele>
        <time>2015-08-20T06:35:39.000Z</time>
      </trkpt>
      <trkpt lat="44.92509" lon="6.01742">
        <ele>2382.1999511719</ele>
        <time>2015-08-20T06:35:41.000Z</time>
      </trkpt>
      <trkpt lat="44.92506" lon="6.01743">
        <ele>2383</ele>
        <time>2015-08-20T06:35:45.000Z</time>
      </trkpt>
      <trkpt lat="44.92503" lon="6.01744">
        <ele>2383.6000976562</ele>
        <time>2015-08-20T06:35:51.000Z</time>
      </trkpt>
      <trkpt lat="44.92497" lon="6.01746">
        <ele>2385.3999023438</ele>
        <time>2015-08-20T06:36:00.000Z</time>
      </trkpt>
      <trkpt lat="44.92495" lon="6.01747">
        <ele>2385.8000488281</ele>
        <time>2015-08-20T06:36:05.000Z</time>
      </trkpt>
      <trkpt lat="44.92492" lon="6.01749">
        <ele>2386.8000488281</ele>
        <time>2015-08-20T06:36:11.000Z</time>
      </trkpt>
      <trkpt lat="44.92487" lon="6.01752">
        <ele>2388.3999023438</ele>
        <time>2015-08-20T06:36:21.000Z</time>
      </trkpt>
      <trkpt lat="44.92484" lon="6.01754">
        <ele>2389.6000976562</ele>
        <time>2015-08-20T06:36:27.000Z</time>
      </trkpt>
      <trkpt lat="44.9248" lon="6.01753">
        <ele>2390.3999023438</ele>
        <time>2015-08-20T06:36:32.000Z</time>
      </trkpt>
      <trkpt lat="44.92476" lon="6.01753">
        <ele>2391.3999023438</ele>
        <time>2015-08-20T06:36:36.000Z</time>
      </trkpt>
      <trkpt lat="44.92476" lon="6.01753">
        <ele>2391.3999023438</ele>
        <time>2015-08-20T06:36:37.000Z</time>
      </trkpt>
      <trkpt lat="44.92473" lon="6.01752">
        <ele>2391.8000488281</ele>
        <time>2015-08-20T06:36:41.000Z</time>
      </trkpt>
      <trkpt lat="44.92469" lon="6.01754">
        <ele>2394</ele>
        <time>2015-08-20T06:36:51.000Z</time>
      </trkpt>
      <trkpt lat="44.92465" lon="6.01755">
        <ele>2395.1999511719</ele>
        <time>2015-08-20T06:36:55.000Z</time>
      </trkpt>
      <trkpt lat="44.9246" lon="6.01755">
        <ele>2396.3999023438</ele>
        <time>2015-08-20T06:37:01.000Z</time>
      </trkpt>
      <trkpt lat="44.92459" lon="6.01755">
        <ele>2396.8000488281</ele>
        <time>2015-08-20T06:37:04.000Z</time>
      </trkpt>
      <trkpt lat="44.92455" lon="6.01755">
        <ele>2397.6000976562</ele>
        <time>2015-08-20T06:37:09.000Z</time>
      </trkpt>
      <trkpt lat="44.92454" lon="6.01755">
        <ele>2398</ele>
        <time>2015-08-20T06:37:10.000Z</time>
      </trkpt>
      <trkpt lat="44.9245" lon="6.01756">
        <ele>2399</ele>
        <time>2015-08-20T06:37:15.000Z</time>
      </trkpt>
      <trkpt lat="44.92448" lon="6.01755">
        <ele>2399</ele>
        <time>2015-08-20T06:37:17.000Z</time>
      </trkpt>
      <trkpt lat="44.92447" lon="6.01754">
        <ele>2398.6000976562</ele>
        <time>2015-08-20T06:37:19.000Z</time>
      </trkpt>
      <trkpt lat="44.92445" lon="6.01752">
        <ele>2398</ele>
        <time>2015-08-20T06:37:22.000Z</time>
      </trkpt>
      <trkpt lat="44.92444" lon="6.01751">
        <ele>2398.1999511719</ele>
        <time>2015-08-20T06:37:24.000Z</time>
      </trkpt>
      <trkpt lat="44.92442" lon="6.01755">
        <ele>2400</ele>
        <time>2015-08-20T06:37:28.000Z</time>
      </trkpt>
      <trkpt lat="44.92439" lon="6.01756">
        <ele>2401</ele>
        <time>2015-08-20T06:37:33.000Z</time>
      </trkpt>
      <trkpt lat="44.92437" lon="6.01757">
        <ele>2401.8000488281</ele>
        <time>2015-08-20T06:37:37.000Z</time>
      </trkpt>
      <trkpt lat="44.92434" lon="6.01759">
        <ele>2403.1999511719</ele>
        <time>2015-08-20T06:37:45.000Z</time>
      </trkpt>
      <trkpt lat="44.92431" lon="6.01761">
        <ele>2404.1999511719</ele>
        <time>2015-08-20T06:37:49.000Z</time>
      </trkpt>
      <trkpt lat="44.92428" lon="6.01762">
        <ele>2405.3999023438</ele>
        <time>2015-08-20T06:37:54.000Z</time>
      </trkpt>
      <trkpt lat="44.92422" lon="6.01762">
        <ele>2406</ele>
        <time>2015-08-20T06:38:08.000Z</time>
      </trkpt>
      <trkpt lat="44.92421" lon="6.01761">
        <ele>2406</ele>
        <time>2015-08-20T06:38:10.000Z</time>
      </trkpt>
      <trkpt lat="44.9242" lon="6.01762">
        <ele>2406.3999023438</ele>
        <time>2015-08-20T06:38:12.000Z</time>
      </trkpt>
      <trkpt lat="44.9242" lon="6.01766">
        <ele>2408.3999023438</ele>
        <time>2015-08-20T06:38:17.000Z</time>
      </trkpt>
      <trkpt lat="44.9242" lon="6.01771">
        <ele>2410.6000976562</ele>
        <time>2015-08-20T06:38:22.000Z</time>
      </trkpt>
      <trkpt lat="44.92418" lon="6.01774">
        <ele>2412.6000976562</ele>
        <time>2015-08-20T06:38:26.000Z</time>
      </trkpt>
      <trkpt lat="44.92418" lon="6.01779">
        <ele>2415.3999023438</ele>
        <time>2015-08-20T06:38:30.000Z</time>
      </trkpt>
      <trkpt lat="44.92417" lon="6.01781">
        <ele>2416.6000976562</ele>
        <time>2015-08-20T06:38:32.000Z</time>
      </trkpt>
      <trkpt lat="44.92417" lon="6.01782">
        <ele>2417.3999023438</ele>
        <time>2015-08-20T06:38:33.000Z</time>
      </trkpt>
      <trkpt lat="44.92416" lon="6.01783">
        <ele>2418.3999023438</ele>
        <time>2015-08-20T06:38:35.000Z</time>
      </trkpt>
      <trkpt lat="44.92415" lon="6.01784">
        <ele>2419.1999511719</ele>
        <time>2015-08-20T06:38:37.000Z</time>
      </trkpt>
      <trkpt lat="44.9241" lon="6.01784">
        <ele>2420.3999023438</ele>
        <time>2015-08-20T06:38:42.000Z</time>
      </trkpt>
      <trkpt lat="44.92409" lon="6.01788">
        <ele>2422.8000488281</ele>
        <time>2015-08-20T06:38:47.000Z</time>
      </trkpt>
      <trkpt lat="44.92406" lon="6.01789">
        <ele>2424.3999023438</ele>
        <time>2015-08-20T06:38:52.000Z</time>
      </trkpt>
      <trkpt lat="44.92401" lon="6.01794">
        <ele>2428.6000976562</ele>
        <time>2015-08-20T06:39:04.000Z</time>
      </trkpt>
      <trkpt lat="44.92399" lon="6.01796">
        <ele>2430.6000976562</ele>
        <time>2015-08-20T06:39:09.000Z</time>
      </trkpt>
      <trkpt lat="44.92396" lon="6.01799">
        <ele>2433</ele>
        <time>2015-08-20T06:39:26.000Z</time>
      </trkpt>
      <trkpt lat="44.92394" lon="6.018">
        <ele>2433.8000488281</ele>
        <time>2015-08-20T06:39:29.000Z</time>
      </trkpt>
      <trkpt lat="44.92394" lon="6.018">
        <ele>2434.1999511719</ele>
        <time>2015-08-20T06:39:30.000Z</time>
      </trkpt>
      <trkpt lat="44.92392" lon="6.01805">
        <ele>2437.6000976562</ele>
        <time>2015-08-20T06:39:36.000Z</time>
      </trkpt>
      <trkpt lat="44.92392" lon="6.01809">
        <ele>2439.8000488281</ele>
        <time>2015-08-20T06:39:40.000Z</time>
      </trkpt>
      <trkpt lat="44.9239" lon="6.01812">
        <ele>2441.3999023438</ele>
        <time>2015-08-20T06:39:45.000Z</time>
      </trkpt>
      <trkpt lat="44.92389" lon="6.01816">
        <ele>2443.1999511719</ele>
        <time>2015-08-20T06:39:49.000Z</time>
      </trkpt>
      <trkpt lat="44.92389" lon="6.01821">
        <ele>2445</ele>
        <time>2015-08-20T06:39:53.000Z</time>
      </trkpt>
      <trkpt lat="44.92386" lon="6.01823">
        <ele>2446.1999511719</ele>
        <time>2015-08-20T06:39:57.000Z</time>
      </trkpt>
      <trkpt lat="44.92383" lon="6.01825">
        <ele>2447.1999511719</ele>
        <time>2015-08-20T06:40:02.000Z</time>
      </trkpt>
      <trkpt lat="44.92379" lon="6.01828">
        <ele>2448.3999023438</ele>
        <time>2015-08-20T06:40:07.000Z</time>
      </trkpt>
      <trkpt lat="44.92377" lon="6.01831">
        <ele>2449.1999511719</ele>
        <time>2015-08-20T06:40:11.000Z</time>
      </trkpt>
      <trkpt lat="44.92372" lon="6.01837">
        <ele>2451.3999023438</ele>
        <time>2015-08-20T06:40:20.000Z</time>
      </trkpt>
      <trkpt lat="44.92371" lon="6.0184">
        <ele>2452.3999023438</ele>
        <time>2015-08-20T06:40:26.000Z</time>
      </trkpt>
      <trkpt lat="44.92365" lon="6.01842">
        <ele>2454.1999511719</ele>
        <time>2015-08-20T06:40:34.000Z</time>
      </trkpt>
      <trkpt lat="44.92363" lon="6.01844">
        <ele>2455</ele>
        <time>2015-08-20T06:40:38.000Z</time>
      </trkpt>
      <trkpt lat="44.9236" lon="6.01845">
        <ele>2456</ele>
        <time>2015-08-20T06:40:43.000Z</time>
      </trkpt>
      <trkpt lat="44.92357" lon="6.01846">
        <ele>2456.8000488281</ele>
        <time>2015-08-20T06:40:49.000Z</time>
      </trkpt>
      <trkpt lat="44.92353" lon="6.01847">
        <ele>2458</ele>
        <time>2015-08-20T06:40:55.000Z</time>
      </trkpt>
      <trkpt lat="44.9235" lon="6.01848">
        <ele>2458.8000488281</ele>
        <time>2015-08-20T06:41:00.000Z</time>
      </trkpt>
      <trkpt lat="44.92348" lon="6.01851">
        <ele>2460</ele>
        <time>2015-08-20T06:41:06.000Z</time>
      </trkpt>
      <trkpt lat="44.92345" lon="6.01852">
        <ele>2461</ele>
        <time>2015-08-20T06:41:12.000Z</time>
      </trkpt>
      <trkpt lat="44.92343" lon="6.01854">
        <ele>2461.8000488281</ele>
        <time>2015-08-20T06:41:18.000Z</time>
      </trkpt>
      <trkpt lat="44.92338" lon="6.01859">
        <ele>2462.8000488281</ele>
        <time>2015-08-20T06:41:33.000Z</time>
      </trkpt>
      <trkpt lat="44.92333" lon="6.01861">
        <ele>2461.1999511719</ele>
        <time>2015-08-20T06:41:46.000Z</time>
      </trkpt>
      <trkpt lat="44.92331" lon="6.01863">
        <ele>2460.1999511719</ele>
        <time>2015-08-20T06:41:51.000Z</time>
      </trkpt>
      <trkpt lat="44.92329" lon="6.01863">
        <ele>2459.8000488281</ele>
        <time>2015-08-20T06:41:52.000Z</time>
      </trkpt>
      <trkpt lat="44.92325" lon="6.01865">
        <ele>2458.3999023438</ele>
        <time>2015-08-20T06:41:56.000Z</time>
      </trkpt>
      <trkpt lat="44.92322" lon="6.01866">
        <ele>2457.3999023438</ele>
        <time>2015-08-20T06:42:01.000Z</time>
      </trkpt>
      <trkpt lat="44.92318" lon="6.01868">
        <ele>2456</ele>
        <time>2015-08-20T06:42:05.000Z</time>
      </trkpt>
      <trkpt lat="44.92316" lon="6.0187">
        <ele>2455.1999511719</ele>
        <time>2015-08-20T06:42:09.000Z</time>
      </trkpt>
      <trkpt lat="44.92311" lon="6.0187">
        <ele>2454.1999511719</ele>
        <time>2015-08-20T06:42:21.000Z</time>
      </trkpt>
      <trkpt lat="44.92304" lon="6.01874">
        <ele>2451.3999023438</ele>
        <time>2015-08-20T06:42:33.000Z</time>
      </trkpt>
      <trkpt lat="44.92298" lon="6.01874">
        <ele>2450.1999511719</ele>
        <time>2015-08-20T06:42:42.000Z</time>
      </trkpt>
      <trkpt lat="44.92296" lon="6.01875">
        <ele>2449.3999023438</ele>
        <time>2015-08-20T06:42:46.000Z</time>
      </trkpt>
      <trkpt lat="44.92292" lon="6.01875">
        <ele>2448.6000976562</ele>
        <time>2015-08-20T06:42:54.000Z</time>
      </trkpt>
      <trkpt lat="44.9229" lon="6.01875">
        <ele>2448.1999511719</ele>
        <time>2015-08-20T06:42:58.000Z</time>
      </trkpt>
      <trkpt lat="44.92288" lon="6.01874">
        <ele>2448.3999023438</ele>
        <time>2015-08-20T06:43:00.000Z</time>
      </trkpt>
      <trkpt lat="44.92285" lon="6.01873">
        <ele>2448.8000488281</ele>
        <time>2015-08-20T06:43:04.000Z</time>
      </trkpt>
      <trkpt lat="44.92282" lon="6.01872">
        <ele>2449.1999511719</ele>
        <time>2015-08-20T06:43:10.000Z</time>
      </trkpt>
      <trkpt lat="44.92282" lon="6.01875">
        <ele>2448.6000976562</ele>
        <time>2015-08-20T06:43:14.000Z</time>
      </trkpt>
      <trkpt lat="44.9228" lon="6.01877">
        <ele>2448.1999511719</ele>
        <time>2015-08-20T06:43:20.000Z</time>
      </trkpt>
      <trkpt lat="44.92275" lon="6.01873">
        <ele>2449.3999023438</ele>
        <time>2015-08-20T06:45:14.000Z</time>
      </trkpt>
      <trkpt lat="44.92273" lon="6.01869">
        <ele>2450.1999511719</ele>
        <time>2015-08-20T06:45:19.000Z</time>
      </trkpt>
      <trkpt lat="44.92271" lon="6.01868">
        <ele>2450.8000488281</ele>
        <time>2015-08-20T06:45:24.000Z</time>
      </trkpt>
      <trkpt lat="44.92269" lon="6.01866">
        <ele>2451.1999511719</ele>
        <time>2015-08-20T06:45:31.000Z</time>
      </trkpt>
      <trkpt lat="44.92268" lon="6.01864">
        <ele>2451.8000488281</ele>
        <time>2015-08-20T06:45:34.000Z</time>
      </trkpt>
      <trkpt lat="44.92264" lon="6.01858">
        <ele>2453.3999023438</ele>
        <time>2015-08-20T06:45:40.000Z</time>
      </trkpt>
      <trkpt lat="44.92264" lon="6.01857">
        <ele>2453.8000488281</ele>
        <time>2015-08-20T06:45:41.000Z</time>
      </trkpt>
      <trkpt lat="44.92259" lon="6.01851">
        <ele>2455.3999023438</ele>
        <time>2015-08-20T06:45:47.000Z</time>
      </trkpt>
      <trkpt lat="44.92254" lon="6.01847">
        <ele>2456.3999023438</ele>
        <time>2015-08-20T06:45:53.000Z</time>
      </trkpt>
      <trkpt lat="44.92253" lon="6.01846">
        <ele>2456.8000488281</ele>
        <time>2015-08-20T06:45:54.000Z</time>
      </trkpt>
      <trkpt lat="44.92251" lon="6.01843">
        <ele>2457.6000976562</ele>
        <time>2015-08-20T06:45:59.000Z</time>
      </trkpt>
      <trkpt lat="44.92251" lon="6.01842">
        <ele>2457.8000488281</ele>
        <time>2015-08-20T06:46:00.000Z</time>
      </trkpt>
      <trkpt lat="44.92248" lon="6.01837">
        <ele>2459.1999511719</ele>
        <time>2015-08-20T06:46:05.000Z</time>
      </trkpt>
      <trkpt lat="44.92244" lon="6.01834">
        <ele>2460</ele>
        <time>2015-08-20T06:46:11.000Z</time>
      </trkpt>
      <trkpt lat="44.92243" lon="6.01833">
        <ele>2460.3999023438</ele>
        <time>2015-08-20T06:46:12.000Z</time>
      </trkpt>
      <trkpt lat="44.92243" lon="6.01828">
        <ele>2461.8000488281</ele>
        <time>2015-08-20T06:46:16.000Z</time>
      </trkpt>
      <trkpt lat="44.92243" lon="6.01828">
        <ele>2461.8000488281</ele>
        <time>2015-08-20T06:46:17.000Z</time>
      </trkpt>
      <trkpt lat="44.92239" lon="6.01828">
        <ele>2461.8000488281</ele>
        <time>2015-08-20T06:46:20.000Z</time>
      </trkpt>
      <trkpt lat="44.92238" lon="6.01829">
        <ele>2461.6000976562</ele>
        <time>2015-08-20T06:46:21.000Z</time>
      </trkpt>
      <trkpt lat="44.92234" lon="6.01828">
        <ele>2462.1999511719</ele>
        <time>2015-08-20T06:46:25.000Z</time>
      </trkpt>
      <trkpt lat="44.92233" lon="6.01827">
        <ele>2462.3999023438</ele>
        <time>2015-08-20T06:46:26.000Z</time>
      </trkpt>
      <trkpt lat="44.92228" lon="6.01828">
        <ele>2462.3999023438</ele>
        <time>2015-08-20T06:46:31.000Z</time>
      </trkpt>
      <trkpt lat="44.92223" lon="6.0183">
        <ele>2460.8000488281</ele>
        <time>2015-08-20T06:46:36.000Z</time>
      </trkpt>
      <trkpt lat="44.92222" lon="6.0183">
        <ele>2460.6000976562</ele>
        <time>2015-08-20T06:46:38.000Z</time>
      </trkpt>
      <trkpt lat="44.9222" lon="6.01829">
        <ele>2460.6000976562</ele>
        <time>2015-08-20T06:46:41.000Z</time>
      </trkpt>
      <trkpt lat="44.92217" lon="6.01828">
        <ele>2460.3999023438</ele>
        <time>2015-08-20T06:46:44.000Z</time>
      </trkpt>
      <trkpt lat="44.92214" lon="6.01826">
        <ele>2461</ele>
        <time>2015-08-20T06:46:49.000Z</time>
      </trkpt>
      <trkpt lat="44.92211" lon="6.01824">
        <ele>2461.1999511719</ele>
        <time>2015-08-20T06:46:54.000Z</time>
      </trkpt>
      <trkpt lat="44.9221" lon="6.01823">
        <ele>2461.6000976562</ele>
        <time>2015-08-20T06:46:59.000Z</time>
      </trkpt>
      <trkpt lat="44.92206" lon="6.0182">
        <ele>2462.8000488281</ele>
        <time>2015-08-20T06:47:07.000Z</time>
      </trkpt>
      <trkpt lat="44.92204" lon="6.01817">
        <ele>2465</ele>
        <time>2015-08-20T06:47:13.000Z</time>
      </trkpt>
      <trkpt lat="44.92202" lon="6.01814">
        <ele>2467.3999023438</ele>
        <time>2015-08-20T06:47:17.000Z</time>
      </trkpt>
      <trkpt lat="44.922" lon="6.01812">
        <ele>2469</ele>
        <time>2015-08-20T06:47:21.000Z</time>
      </trkpt>
      <trkpt lat="44.92196" lon="6.01809">
        <ele>2471.6000976562</ele>
        <time>2015-08-20T06:47:26.000Z</time>
      </trkpt>
      <trkpt lat="44.92195" lon="6.01805">
        <ele>2474.3999023438</ele>
        <time>2015-08-20T06:47:31.000Z</time>
      </trkpt>
      <trkpt lat="44.92193" lon="6.01801">
        <ele>2476.6000976562</ele>
        <time>2015-08-20T06:47:36.000Z</time>
      </trkpt>
      <trkpt lat="44.92191" lon="6.01802">
        <ele>2477</ele>
        <time>2015-08-20T06:47:41.000Z</time>
      </trkpt>
      <trkpt lat="44.92188" lon="6.018">
        <ele>2479</ele>
        <time>2015-08-20T06:47:46.000Z</time>
      </trkpt>
      <trkpt lat="44.92186" lon="6.01799">
        <ele>2480.1999511719</ele>
        <time>2015-08-20T06:47:50.000Z</time>
      </trkpt>
      <trkpt lat="44.92182" lon="6.01797">
        <ele>2482.3999023438</ele>
        <time>2015-08-20T06:47:55.000Z</time>
      </trkpt>
      <trkpt lat="44.9218" lon="6.01791">
        <ele>2486</ele>
        <time>2015-08-20T06:48:02.000Z</time>
      </trkpt>
      <trkpt lat="44.92178" lon="6.01787">
        <ele>2488.6000976562</ele>
        <time>2015-08-20T06:48:08.000Z</time>
      </trkpt>
      <trkpt lat="44.92175" lon="6.01783">
        <ele>2491.3999023438</ele>
        <time>2015-08-20T06:48:13.000Z</time>
      </trkpt>
      <trkpt lat="44.92172" lon="6.0178">
        <ele>2493.6000976562</ele>
        <time>2015-08-20T06:48:18.000Z</time>
      </trkpt>
      <trkpt lat="44.92168" lon="6.01776">
        <ele>2497</ele>
        <time>2015-08-20T06:48:25.000Z</time>
      </trkpt>
      <trkpt lat="44.92165" lon="6.01776">
        <ele>2498.1999511719</ele>
        <time>2015-08-20T06:48:30.000Z</time>
      </trkpt>
      <trkpt lat="44.92164" lon="6.01773">
        <ele>2500</ele>
        <time>2015-08-20T06:48:35.000Z</time>
      </trkpt>
      <trkpt lat="44.92163" lon="6.01769">
        <ele>2502</ele>
        <time>2015-08-20T06:48:41.000Z</time>
      </trkpt>
      <trkpt lat="44.92161" lon="6.01769">
        <ele>2502.6000976562</ele>
        <time>2015-08-20T06:48:46.000Z</time>
      </trkpt>
      <trkpt lat="44.92158" lon="6.01769">
        <ele>2503.6000976562</ele>
        <time>2015-08-20T06:48:50.000Z</time>
      </trkpt>
      <trkpt lat="44.92155" lon="6.01769">
        <ele>2505</ele>
        <time>2015-08-20T06:48:55.000Z</time>
      </trkpt>
      <trkpt lat="44.92155" lon="6.01766">
        <ele>2506</ele>
        <time>2015-08-20T06:49:00.000Z</time>
      </trkpt>
      <trkpt lat="44.92154" lon="6.01765">
        <ele>2507.1999511719</ele>
        <time>2015-08-20T06:49:04.000Z</time>
      </trkpt>
      <trkpt lat="44.9215" lon="6.01765">
        <ele>2508.8000488281</ele>
        <time>2015-08-20T06:49:13.000Z</time>
      </trkpt>
      <trkpt lat="44.92145" lon="6.01765">
        <ele>2510.3999023438</ele>
        <time>2015-08-20T06:49:19.000Z</time>
      </trkpt>
      <trkpt lat="44.92143" lon="6.01764">
        <ele>2511.3999023438</ele>
        <time>2015-08-20T06:49:23.000Z</time>
      </trkpt>
      <trkpt lat="44.92141" lon="6.01759">
        <ele>2514.3999023438</ele>
        <time>2015-08-20T06:49:30.000Z</time>
      </trkpt>
      <trkpt lat="44.9214" lon="6.01758">
        <ele>2515.3999023438</ele>
        <time>2015-08-20T06:49:36.000Z</time>
      </trkpt>
      <trkpt lat="44.92136" lon="6.01755">
        <ele>2518</ele>
        <time>2015-08-20T06:49:43.000Z</time>
      </trkpt>
      <trkpt lat="44.92133" lon="6.01754">
        <ele>2519.8000488281</ele>
        <time>2015-08-20T06:49:48.000Z</time>
      </trkpt>
      <trkpt lat="44.9213" lon="6.01751">
        <ele>2522</ele>
        <time>2015-08-20T06:49:54.000Z</time>
      </trkpt>
      <trkpt lat="44.92128" lon="6.01751">
        <ele>2523.1999511719</ele>
        <time>2015-08-20T06:49:58.000Z</time>
      </trkpt>
      <trkpt lat="44.92126" lon="6.01746">
        <ele>2525.6000976562</ele>
        <time>2015-08-20T06:50:04.000Z</time>
      </trkpt>
      <trkpt lat="44.92128" lon="6.01744">
        <ele>2526</ele>
        <time>2015-08-20T06:50:08.000Z</time>
      </trkpt>
      <trkpt lat="44.92125" lon="6.01743">
        <ele>2527.8000488281</ele>
        <time>2015-08-20T06:50:14.000Z</time>
      </trkpt>
      <trkpt lat="44.92122" lon="6.01742">
        <ele>2528.8000488281</ele>
        <time>2015-08-20T06:50:19.000Z</time>
      </trkpt>
      <trkpt lat="44.92118" lon="6.01742">
        <ele>2528.6000976562</ele>
        <time>2015-08-20T06:50:25.000Z</time>
      </trkpt>
      <trkpt lat="44.92114" lon="6.01742">
        <ele>2528.3999023438</ele>
        <time>2015-08-20T06:50:30.000Z</time>
      </trkpt>
      <trkpt lat="44.9211" lon="6.01743">
        <ele>2527.8000488281</ele>
        <time>2015-08-20T06:50:35.000Z</time>
      </trkpt>
      <trkpt lat="44.92107" lon="6.01743">
        <ele>2527.8000488281</ele>
        <time>2015-08-20T06:50:39.000Z</time>
      </trkpt>
      <trkpt lat="44.92104" lon="6.01742">
        <ele>2528</ele>
        <time>2015-08-20T06:50:45.000Z</time>
      </trkpt>
      <trkpt lat="44.92102" lon="6.01742">
        <ele>2528.1999511719</ele>
        <time>2015-08-20T06:50:49.000Z</time>
      </trkpt>
      <trkpt lat="44.92099" lon="6.01742">
        <ele>2528</ele>
        <time>2015-08-20T06:50:54.000Z</time>
      </trkpt>
      <trkpt lat="44.92096" lon="6.01742">
        <ele>2528.1999511719</ele>
        <time>2015-08-20T06:50:59.000Z</time>
      </trkpt>
      <trkpt lat="44.92094" lon="6.01741">
        <ele>2528.1999511719</ele>
        <time>2015-08-20T06:51:04.000Z</time>
      </trkpt>
      <trkpt lat="44.92089" lon="6.0174">
        <ele>2528.3999023438</ele>
        <time>2015-08-20T06:51:12.000Z</time>
      </trkpt>
      <trkpt lat="44.92085" lon="6.0174">
        <ele>2528.8000488281</ele>
        <time>2015-08-20T06:51:17.000Z</time>
      </trkpt>
      <trkpt lat="44.92083" lon="6.01738">
        <ele>2529.1999511719</ele>
        <time>2015-08-20T06:51:22.000Z</time>
      </trkpt>
      <trkpt lat="44.92082" lon="6.01736">
        <ele>2530.3999023438</ele>
        <time>2015-08-20T06:51:26.000Z</time>
      </trkpt>
      <trkpt lat="44.92084" lon="6.01732">
        <ele>2531.8000488281</ele>
        <time>2015-08-20T06:51:31.000Z</time>
      </trkpt>
      <trkpt lat="44.92084" lon="6.01729">
        <ele>2533.3999023438</ele>
        <time>2015-08-20T06:51:37.000Z</time>
      </trkpt>
      <trkpt lat="44.92086" lon="6.01726">
        <ele>2535</ele>
        <time>2015-08-20T06:51:43.000Z</time>
      </trkpt>
      <trkpt lat="44.92087" lon="6.01722">
        <ele>2536</ele>
        <time>2015-08-20T06:51:49.000Z</time>
      </trkpt>
      <trkpt lat="44.92088" lon="6.01718">
        <ele>2537</ele>
        <time>2015-08-20T06:51:54.000Z</time>
      </trkpt>
      <trkpt lat="44.92088" lon="6.01714">
        <ele>2538</ele>
        <time>2015-08-20T06:52:00.000Z</time>
      </trkpt>
      <trkpt lat="44.92088" lon="6.0171">
        <ele>2539</ele>
        <time>2015-08-20T06:52:05.000Z</time>
      </trkpt>
      <trkpt lat="44.92089" lon="6.01706">
        <ele>2540</ele>
        <time>2015-08-20T06:52:12.000Z</time>
      </trkpt>
      <trkpt lat="44.92087" lon="6.01704">
        <ele>2540.3999023438</ele>
        <time>2015-08-20T06:52:15.000Z</time>
      </trkpt>
      <trkpt lat="44.92085" lon="6.01704">
        <ele>2540.3999023438</ele>
        <time>2015-08-20T06:52:17.000Z</time>
      </trkpt>
      <trkpt lat="44.92083" lon="6.01704">
        <ele>2540.3999023438</ele>
        <time>2015-08-20T06:52:21.000Z</time>
      </trkpt>
      <trkpt lat="44.9208" lon="6.01703">
        <ele>2540.3999023438</ele>
        <time>2015-08-20T06:52:25.000Z</time>
      </trkpt>
      <trkpt lat="44.92076" lon="6.01702">
        <ele>2540.8000488281</ele>
        <time>2015-08-20T06:52:32.000Z</time>
      </trkpt>
      <trkpt lat="44.92074" lon="6.01699">
        <ele>2541.3999023438</ele>
        <time>2015-08-20T06:52:37.000Z</time>
      </trkpt>
      <trkpt lat="44.92073" lon="6.01696">
        <ele>2542.1999511719</ele>
        <time>2015-08-20T06:52:42.000Z</time>
      </trkpt>
      <trkpt lat="44.92073" lon="6.01693">
        <ele>2543</ele>
        <time>2015-08-20T06:52:46.000Z</time>
      </trkpt>
      <trkpt lat="44.92074" lon="6.0169">
        <ele>2543.8000488281</ele>
        <time>2015-08-20T06:52:50.000Z</time>
      </trkpt>
      <trkpt lat="44.92076" lon="6.01687">
        <ele>2544.6000976562</ele>
        <time>2015-08-20T06:52:55.000Z</time>
      </trkpt>
      <trkpt lat="44.92074" lon="6.01683">
        <ele>2545.3999023438</ele>
        <time>2015-08-20T06:53:01.000Z</time>
      </trkpt>
      <trkpt lat="44.92071" lon="6.01681">
        <ele>2546</ele>
        <time>2015-08-20T06:53:06.000Z</time>
      </trkpt>
      <trkpt lat="44.92068" lon="6.01678">
        <ele>2546.6000976562</ele>
        <time>2015-08-20T06:53:12.000Z</time>
      </trkpt>
      <trkpt lat="44.92066" lon="6.01677">
        <ele>2547</ele>
        <time>2015-08-20T06:53:16.000Z</time>
      </trkpt>
      <trkpt lat="44.92064" lon="6.01673">
        <ele>2547.8000488281</ele>
        <time>2015-08-20T06:53:20.000Z</time>
      </trkpt>
      <trkpt lat="44.92062" lon="6.01669">
        <ele>2548.6000976562</ele>
        <time>2015-08-20T06:53:25.000Z</time>
      </trkpt>
      <trkpt lat="44.92059" lon="6.01666">
        <ele>2549.1999511719</ele>
        <time>2015-08-20T06:53:31.000Z</time>
      </trkpt>
      <trkpt lat="44.92056" lon="6.01665">
        <ele>2549.6000976562</ele>
        <time>2015-08-20T06:53:35.000Z</time>
      </trkpt>
      <trkpt lat="44.92054" lon="6.01661">
        <ele>2550.6000976562</ele>
        <time>2015-08-20T06:53:41.000Z</time>
      </trkpt>
      <trkpt lat="44.92051" lon="6.01657">
        <ele>2551.3999023438</ele>
        <time>2015-08-20T06:53:46.000Z</time>
      </trkpt>
      <trkpt lat="44.92048" lon="6.01654">
        <ele>2552.1999511719</ele>
        <time>2015-08-20T06:53:52.000Z</time>
      </trkpt>
      <trkpt lat="44.92043" lon="6.01648">
        <ele>2553.6000976562</ele>
        <time>2015-08-20T06:54:01.000Z</time>
      </trkpt>
      <trkpt lat="44.9204" lon="6.01644">
        <ele>2554.3999023438</ele>
        <time>2015-08-20T06:54:06.000Z</time>
      </trkpt>
      <trkpt lat="44.92038" lon="6.01639">
        <ele>2554.1999511719</ele>
        <time>2015-08-20T06:54:12.000Z</time>
      </trkpt>
      <trkpt lat="44.92036" lon="6.01633">
        <ele>2554</ele>
        <time>2015-08-20T06:54:18.000Z</time>
      </trkpt>
      <trkpt lat="44.92035" lon="6.01629">
        <ele>2553.8000488281</ele>
        <time>2015-08-20T06:54:21.000Z</time>
      </trkpt>
      <trkpt lat="44.92034" lon="6.01626">
        <ele>2553.6000976562</ele>
        <time>2015-08-20T06:54:24.000Z</time>
      </trkpt>
      <trkpt lat="44.92031" lon="6.01619">
        <ele>2553</ele>
        <time>2015-08-20T06:54:30.000Z</time>
      </trkpt>
      <trkpt lat="44.9203" lon="6.01613">
        <ele>2553</ele>
        <time>2015-08-20T06:54:35.000Z</time>
      </trkpt>
      <trkpt lat="44.92029" lon="6.01612">
        <ele>2553</ele>
        <time>2015-08-20T06:54:36.000Z</time>
      </trkpt>
      <trkpt lat="44.92028" lon="6.01608">
        <ele>2552.6000976562</ele>
        <time>2015-08-20T06:54:40.000Z</time>
      </trkpt>
      <trkpt lat="44.92024" lon="6.01604">
        <ele>2551.8000488281</ele>
        <time>2015-08-20T06:54:44.000Z</time>
      </trkpt>
      <trkpt lat="44.92021" lon="6.01597">
        <ele>2551</ele>
        <time>2015-08-20T06:54:50.000Z</time>
      </trkpt>
      <trkpt lat="44.9202" lon="6.01594">
        <ele>2550.6000976562</ele>
        <time>2015-08-20T06:54:53.000Z</time>
      </trkpt>
      <trkpt lat="44.92019" lon="6.01591">
        <ele>2550.3999023438</ele>
        <time>2015-08-20T06:54:56.000Z</time>
      </trkpt>
      <trkpt lat="44.92015" lon="6.01584">
        <ele>2549.8000488281</ele>
        <time>2015-08-20T06:55:04.000Z</time>
      </trkpt>
      <trkpt lat="44.92016" lon="6.01584">
        <ele>2549.8000488281</ele>
        <time>2015-08-20T06:55:20.000Z</time>
      </trkpt>
      <trkpt lat="44.92015" lon="6.01584">
        <ele>2549.6000976562</ele>
        <time>2015-08-20T06:55:38.000Z</time>
      </trkpt>
      <trkpt lat="44.92016" lon="6.01583">
        <ele>2550.1999511719</ele>
        <time>2015-08-20T06:57:48.000Z</time>
      </trkpt>
      <trkpt lat="44.92015" lon="6.01582">
        <ele>2549.8000488281</ele>
        <time>2015-08-20T06:57:49.000Z</time>
      </trkpt>
      <trkpt lat="44.92014" lon="6.0158">
        <ele>2549.3999023438</ele>
        <time>2015-08-20T06:57:53.000Z</time>
      </trkpt>
      <trkpt lat="44.92009" lon="6.01576">
        <ele>2548</ele>
        <time>2015-08-20T06:57:58.000Z</time>
      </trkpt>
      <trkpt lat="44.92002" lon="6.01566">
        <ele>2546</ele>
        <time>2015-08-20T06:58:02.000Z</time>
      </trkpt>
      <trkpt lat="44.91986" lon="6.01548">
        <ele>2543.1999511719</ele>
        <time>2015-08-20T06:58:09.000Z</time>
      </trkpt>
      <trkpt lat="44.91976" lon="6.01535">
        <ele>2542</ele>
        <time>2015-08-20T06:58:14.000Z</time>
      </trkpt>
      <trkpt lat="44.91972" lon="6.01529">
        <ele>2541.6000976562</ele>
        <time>2015-08-20T06:58:19.000Z</time>
      </trkpt>
      <trkpt lat="44.9197" lon="6.01525">
        <ele>2541.3999023438</ele>
        <time>2015-08-20T06:58:22.000Z</time>
      </trkpt>
      <trkpt lat="44.91967" lon="6.01522">
        <ele>2541.1999511719</ele>
        <time>2015-08-20T06:58:25.000Z</time>
      </trkpt>
      <trkpt lat="44.91965" lon="6.01513">
        <ele>2542.1999511719</ele>
        <time>2015-08-20T06:58:31.000Z</time>
      </trkpt>
      <trkpt lat="44.91964" lon="6.01505">
        <ele>2543</ele>
        <time>2015-08-20T06:58:37.000Z</time>
      </trkpt>
      <trkpt lat="44.91963" lon="6.01502">
        <ele>2543.1999511719</ele>
        <time>2015-08-20T06:58:39.000Z</time>
      </trkpt>
      <trkpt lat="44.91961" lon="6.01497">
        <ele>2543.3999023438</ele>
        <time>2015-08-20T06:58:44.000Z</time>
      </trkpt>
      <trkpt lat="44.91959" lon="6.01492">
        <ele>2543.8000488281</ele>
        <time>2015-08-20T06:58:48.000Z</time>
      </trkpt>
      <trkpt lat="44.91959" lon="6.01491">
        <ele>2543.8000488281</ele>
        <time>2015-08-20T06:58:49.000Z</time>
      </trkpt>
      <trkpt lat="44.91956" lon="6.01482">
        <ele>2544.3999023438</ele>
        <time>2015-08-20T06:58:55.000Z</time>
      </trkpt>
      <trkpt lat="44.91954" lon="6.01478">
        <ele>2543.6000976562</ele>
        <time>2015-08-20T06:58:58.000Z</time>
      </trkpt>
      <trkpt lat="44.91953" lon="6.01473">
        <ele>2543.8000488281</ele>
        <time>2015-08-20T06:59:01.000Z</time>
      </trkpt>
      <trkpt lat="44.91951" lon="6.01471">
        <ele>2543.6000976562</ele>
        <time>2015-08-20T06:59:03.000Z</time>
      </trkpt>
      <trkpt lat="44.91949" lon="6.01465">
        <ele>2543.8000488281</ele>
        <time>2015-08-20T06:59:07.000Z</time>
      </trkpt>
      <trkpt lat="44.91949" lon="6.01464">
        <ele>2543.8000488281</ele>
        <time>2015-08-20T06:59:08.000Z</time>
      </trkpt>
      <trkpt lat="44.91944" lon="6.01454">
        <ele>2543.1999511719</ele>
        <time>2015-08-20T06:59:14.000Z</time>
      </trkpt>
      <trkpt lat="44.91941" lon="6.0144">
        <ele>2543.1999511719</ele>
        <time>2015-08-20T06:59:21.000Z</time>
      </trkpt>
      <trkpt lat="44.91938" lon="6.01433">
        <ele>2543</ele>
        <time>2015-08-20T06:59:26.000Z</time>
      </trkpt>
      <trkpt lat="44.91937" lon="6.01429">
        <ele>2543</ele>
        <time>2015-08-20T06:59:29.000Z</time>
      </trkpt>
      <trkpt lat="44.91938" lon="6.01426">
        <ele>2543.3999023438</ele>
        <time>2015-08-20T06:59:31.000Z</time>
      </trkpt>
      <trkpt lat="44.91937" lon="6.01425">
        <ele>2543.3999023438</ele>
        <time>2015-08-20T06:59:32.000Z</time>
      </trkpt>
      <trkpt lat="44.91936" lon="6.0142">
        <ele>2543.1999511719</ele>
        <time>2015-08-20T06:59:36.000Z</time>
      </trkpt>
      <trkpt lat="44.91934" lon="6.01411">
        <ele>2543.3999023438</ele>
        <time>2015-08-20T06:59:43.000Z</time>
      </trkpt>
      <trkpt lat="44.91933" lon="6.01399">
        <ele>2544</ele>
        <time>2015-08-20T06:59:49.000Z</time>
      </trkpt>
      <trkpt lat="44.91931" lon="6.01394">
        <ele>2543.8000488281</ele>
        <time>2015-08-20T06:59:52.000Z</time>
      </trkpt>
      <trkpt lat="44.91929" lon="6.0139">
        <ele>2544.1999511719</ele>
        <time>2015-08-20T06:59:55.000Z</time>
      </trkpt>
      <trkpt lat="44.91928" lon="6.01384">
        <ele>2546</ele>
        <time>2015-08-20T06:59:59.000Z</time>
      </trkpt>
      <trkpt lat="44.91926" lon="6.01379">
        <ele>2547.3999023438</ele>
        <time>2015-08-20T07:00:02.000Z</time>
      </trkpt>
      <trkpt lat="44.91923" lon="6.01366">
        <ele>2551</ele>
        <time>2015-08-20T07:00:10.000Z</time>
      </trkpt>
      <trkpt lat="44.91923" lon="6.01359">
        <ele>2553.6000976562</ele>
        <time>2015-08-20T07:00:16.000Z</time>
      </trkpt>
      <trkpt lat="44.91923" lon="6.01358">
        <ele>2554</ele>
        <time>2015-08-20T07:00:17.000Z</time>
      </trkpt>
      <trkpt lat="44.91921" lon="6.01352">
        <ele>2554</ele>
        <time>2015-08-20T07:00:23.000Z</time>
      </trkpt>
      <trkpt lat="44.91919" lon="6.01345">
        <ele>2554.1999511719</ele>
        <time>2015-08-20T07:00:29.000Z</time>
      </trkpt>
      <trkpt lat="44.91916" lon="6.01337">
        <ele>2554.1999511719</ele>
        <time>2015-08-20T07:00:36.000Z</time>
      </trkpt>
      <trkpt lat="44.91916" lon="6.0133">
        <ele>2554.1999511719</ele>
        <time>2015-08-20T07:00:42.000Z</time>
      </trkpt>
      <trkpt lat="44.91916" lon="6.01329">
        <ele>2554.1999511719</ele>
        <time>2015-08-20T07:00:43.000Z</time>
      </trkpt>
      <trkpt lat="44.91918" lon="6.01325">
        <ele>2554.3999023438</ele>
        <time>2015-08-20T07:00:47.000Z</time>
      </trkpt>
      <trkpt lat="44.91918" lon="6.01324">
        <ele>2554.3999023438</ele>
        <time>2015-08-20T07:00:48.000Z</time>
      </trkpt>
      <trkpt lat="44.91918" lon="6.01322">
        <ele>2554.3999023438</ele>
        <time>2015-08-20T07:00:50.000Z</time>
      </trkpt>
      <trkpt lat="44.91919" lon="6.01319">
        <ele>2554.3999023438</ele>
        <time>2015-08-20T07:00:53.000Z</time>
      </trkpt>
      <trkpt lat="44.91918" lon="6.01318">
        <ele>2554.3999023438</ele>
        <time>2015-08-20T07:01:01.000Z</time>
      </trkpt>
      <trkpt lat="44.91917" lon="6.01322">
        <ele>2554.3999023438</ele>
        <time>2015-08-20T07:01:07.000Z</time>
      </trkpt>
      <trkpt lat="44.91913" lon="6.01328">
        <ele>2554.1999511719</ele>
        <time>2015-08-20T07:01:12.000Z</time>
      </trkpt>
      <trkpt lat="44.91913" lon="6.01328">
        <ele>2554.1999511719</ele>
        <time>2015-08-20T07:01:13.000Z</time>
      </trkpt>
      <trkpt lat="44.91912" lon="6.01329">
        <ele>2554.1999511719</ele>
        <time>2015-08-20T07:01:29.000Z</time>
      </trkpt>
      <trkpt lat="44.91911" lon="6.01331">
        <ele>2554.1999511719</ele>
        <time>2015-08-20T07:01:39.000Z</time>
      </trkpt>
      <trkpt lat="44.91911" lon="6.01333">
        <ele>2554.1999511719</ele>
        <time>2015-08-20T07:01:41.000Z</time>
      </trkpt>
      <trkpt lat="44.91911" lon="6.01335">
        <ele>2554.1999511719</ele>
        <time>2015-08-20T07:01:43.000Z</time>
      </trkpt>
      <trkpt lat="44.91912" lon="6.0134">
        <ele>2554</ele>
        <time>2015-08-20T07:01:47.000Z</time>
      </trkpt>
      <trkpt lat="44.91914" lon="6.01342">
        <ele>2554</ele>
        <time>2015-08-20T07:01:49.000Z</time>
      </trkpt>
      <trkpt lat="44.91916" lon="6.01346">
        <ele>2554</ele>
        <time>2015-08-20T07:01:53.000Z</time>
      </trkpt>
      <trkpt lat="44.91917" lon="6.0135">
        <ele>2554</ele>
        <time>2015-08-20T07:01:56.000Z</time>
      </trkpt>
      <trkpt lat="44.91917" lon="6.01353">
        <ele>2553.6000976562</ele>
        <time>2015-08-20T07:01:58.000Z</time>
      </trkpt>
      <trkpt lat="44.91918" lon="6.01357">
        <ele>2552.1999511719</ele>
        <time>2015-08-20T07:02:00.000Z</time>
      </trkpt>
      <trkpt lat="44.91917" lon="6.01362">
        <ele>2550.3999023438</ele>
        <time>2015-08-20T07:02:02.000Z</time>
      </trkpt>
      <trkpt lat="44.91918" lon="6.01364">
        <ele>2549.8000488281</ele>
        <time>2015-08-20T07:02:03.000Z</time>
      </trkpt>
      <trkpt lat="44.9192" lon="6.01372">
        <ele>2547.3999023438</ele>
        <time>2015-08-20T07:02:07.000Z</time>
      </trkpt>
      <trkpt lat="44.91923" lon="6.01383">
        <ele>2544.1999511719</ele>
        <time>2015-08-20T07:02:13.000Z</time>
      </trkpt>
      <trkpt lat="44.91925" lon="6.01387">
        <ele>2543.3999023438</ele>
        <time>2015-08-20T07:02:16.000Z</time>
      </trkpt>
      <trkpt lat="44.91927" lon="6.01391">
        <ele>2542.6000976562</ele>
        <time>2015-08-20T07:02:19.000Z</time>
      </trkpt>
      <trkpt lat="44.91928" lon="6.01398">
        <ele>2542.1999511719</ele>
        <time>2015-08-20T07:02:23.000Z</time>
      </trkpt>
      <trkpt lat="44.91928" lon="6.01401">
        <ele>2542</ele>
        <time>2015-08-20T07:02:25.000Z</time>
      </trkpt>
      <trkpt lat="44.91927" lon="6.01407">
        <ele>2541</ele>
        <time>2015-08-20T07:02:29.000Z</time>
      </trkpt>
      <trkpt lat="44.91928" lon="6.01411">
        <ele>2540.8000488281</ele>
        <time>2015-08-20T07:02:32.000Z</time>
      </trkpt>
      <trkpt lat="44.91927" lon="6.01412">
        <ele>2540.6000976562</ele>
        <time>2015-08-20T07:02:33.000Z</time>
      </trkpt>
      <trkpt lat="44.91925" lon="6.01413">
        <ele>2539.8000488281</ele>
        <time>2015-08-20T07:02:36.000Z</time>
      </trkpt>
      <trkpt lat="44.91928" lon="6.01419">
        <ele>2540.3999023438</ele>
        <time>2015-08-20T07:02:41.000Z</time>
      </trkpt>
      <trkpt lat="44.91928" lon="6.01419">
        <ele>2540.3999023438</ele>
        <time>2015-08-20T07:02:42.000Z</time>
      </trkpt>
      <trkpt lat="44.9193" lon="6.01422">
        <ele>2540.6000976562</ele>
        <time>2015-08-20T07:02:46.000Z</time>
      </trkpt>
      <trkpt lat="44.91932" lon="6.01428">
        <ele>2541</ele>
        <time>2015-08-20T07:02:51.000Z</time>
      </trkpt>
      <trkpt lat="44.91935" lon="6.01432">
        <ele>2541.6000976562</ele>
        <time>2015-08-20T07:02:56.000Z</time>
      </trkpt>
      <trkpt lat="44.91939" lon="6.01442">
        <ele>2542.1999511719</ele>
        <time>2015-08-20T07:03:04.000Z</time>
      </trkpt>
      <trkpt lat="44.91939" lon="6.01446">
        <ele>2542</ele>
        <time>2015-08-20T07:03:08.000Z</time>
      </trkpt>
      <trkpt lat="44.9194" lon="6.01447">
        <ele>2542.1999511719</ele>
        <time>2015-08-20T07:03:09.000Z</time>
      </trkpt>
      <trkpt lat="44.91942" lon="6.01452">
        <ele>2542.3999023438</ele>
        <time>2015-08-20T07:03:15.000Z</time>
      </trkpt>
      <trkpt lat="44.91945" lon="6.0146">
        <ele>2542.8000488281</ele>
        <time>2015-08-20T07:03:22.000Z</time>
      </trkpt>
      <trkpt lat="44.91948" lon="6.01468">
        <ele>2542.8000488281</ele>
        <time>2015-08-20T07:03:29.000Z</time>
      </trkpt>
      <trkpt lat="44.9195" lon="6.01475">
        <ele>2541.3999023438</ele>
        <time>2015-08-20T07:03:36.000Z</time>
      </trkpt>
      <trkpt lat="44.91952" lon="6.0148">
        <ele>2541.6000976562</ele>
        <time>2015-08-20T07:03:40.000Z</time>
      </trkpt>
      <trkpt lat="44.91952" lon="6.01482">
        <ele>2541.6000976562</ele>
        <time>2015-08-20T07:03:42.000Z</time>
      </trkpt>
      <trkpt lat="44.91954" lon="6.01488">
        <ele>2541.3999023438</ele>
        <time>2015-08-20T07:03:47.000Z</time>
      </trkpt>
      <trkpt lat="44.91954" lon="6.01491">
        <ele>2541.3999023438</ele>
        <time>2015-08-20T07:03:50.000Z</time>
      </trkpt>
      <trkpt lat="44.91955" lon="6.01495">
        <ele>2541.3999023438</ele>
        <time>2015-08-20T07:03:53.000Z</time>
      </trkpt>
      <trkpt lat="44.91956" lon="6.01496">
        <ele>2541.3999023438</ele>
        <time>2015-08-20T07:03:54.000Z</time>
      </trkpt>
      <trkpt lat="44.91957" lon="6.01498">
        <ele>2541.8000488281</ele>
        <time>2015-08-20T07:03:56.000Z</time>
      </trkpt>
      <trkpt lat="44.91958" lon="6.01501">
        <ele>2541.6000976562</ele>
        <time>2015-08-20T07:03:59.000Z</time>
      </trkpt>
      <trkpt lat="44.91959" lon="6.01505">
        <ele>2541.3999023438</ele>
        <time>2015-08-20T07:04:06.000Z</time>
      </trkpt>
      <trkpt lat="44.9196" lon="6.01513">
        <ele>2540.3999023438</ele>
        <time>2015-08-20T07:04:12.000Z</time>
      </trkpt>
      <trkpt lat="44.91962" lon="6.01519">
        <ele>2539.8000488281</ele>
        <time>2015-08-20T07:04:17.000Z</time>
      </trkpt>
      <trkpt lat="44.91962" lon="6.01521">
        <ele>2539.6000976562</ele>
        <time>2015-08-20T07:04:18.000Z</time>
      </trkpt>
      <trkpt lat="44.91963" lon="6.01526">
        <ele>2539</ele>
        <time>2015-08-20T07:04:22.000Z</time>
      </trkpt>
      <trkpt lat="44.91963" lon="6.01528">
        <ele>2538.8000488281</ele>
        <time>2015-08-20T07:04:23.000Z</time>
      </trkpt>
      <trkpt lat="44.91965" lon="6.01535">
        <ele>2538</ele>
        <time>2015-08-20T07:04:29.000Z</time>
      </trkpt>
      <trkpt lat="44.91965" lon="6.01536">
        <ele>2537.8000488281</ele>
        <time>2015-08-20T07:04:30.000Z</time>
      </trkpt>
      <trkpt lat="44.91965" lon="6.01537">
        <ele>2537.6000976562</ele>
        <time>2015-08-20T07:04:31.000Z</time>
      </trkpt>
      <trkpt lat="44.91965" lon="6.01538">
        <ele>2537.3999023438</ele>
        <time>2015-08-20T07:04:35.000Z</time>
      </trkpt>
      <trkpt lat="44.91966" lon="6.01546">
        <ele>2536.3999023438</ele>
        <time>2015-08-20T07:04:42.000Z</time>
      </trkpt>
      <trkpt lat="44.9197" lon="6.01553">
        <ele>2536.8000488281</ele>
        <time>2015-08-20T07:04:47.000Z</time>
      </trkpt>
      <trkpt lat="44.91977" lon="6.01559">
        <ele>2538</ele>
        <time>2015-08-20T07:04:53.000Z</time>
      </trkpt>
      <trkpt lat="44.91985" lon="6.01566">
        <ele>2540.3999023438</ele>
        <time>2015-08-20T07:05:00.000Z</time>
      </trkpt>
      <trkpt lat="44.91993" lon="6.01574">
        <ele>2542.3999023438</ele>
        <time>2015-08-20T07:05:07.000Z</time>
      </trkpt>
      <trkpt lat="44.91999" lon="6.01586">
        <ele>2544</ele>
        <time>2015-08-20T07:05:15.000Z</time>
      </trkpt>
      <trkpt lat="44.92005" lon="6.01594">
        <ele>2545.6000976562</ele>
        <time>2015-08-20T07:05:20.000Z</time>
      </trkpt>
      <trkpt lat="44.92014" lon="6.0161">
        <ele>2547.8000488281</ele>
        <time>2015-08-20T07:05:27.000Z</time>
      </trkpt>
      <trkpt lat="44.92019" lon="6.01619">
        <ele>2549</ele>
        <time>2015-08-20T07:05:32.000Z</time>
      </trkpt>
      <trkpt lat="44.92021" lon="6.01623">
        <ele>2549.6000976562</ele>
        <time>2015-08-20T07:05:35.000Z</time>
      </trkpt>
      <trkpt lat="44.92023" lon="6.01629">
        <ele>2549</ele>
        <time>2015-08-20T07:05:39.000Z</time>
      </trkpt>
      <trkpt lat="44.92024" lon="6.01631">
        <ele>2548.8000488281</ele>
        <time>2015-08-20T07:05:40.000Z</time>
      </trkpt>
      <trkpt lat="44.92025" lon="6.01634">
        <ele>2548.6000976562</ele>
        <time>2015-08-20T07:05:43.000Z</time>
      </trkpt>
      <trkpt lat="44.92024" lon="6.01634">
        <ele>2548.3999023438</ele>
        <time>2015-08-20T07:05:46.000Z</time>
      </trkpt>
      <trkpt lat="44.92022" lon="6.01633">
        <ele>2547.6000976562</ele>
        <time>2015-08-20T07:05:53.000Z</time>
      </trkpt>
      <trkpt lat="44.92023" lon="6.01631">
        <ele>2548</ele>
        <time>2015-08-20T07:07:11.000Z</time>
      </trkpt>
      <trkpt lat="44.92022" lon="6.01633">
        <ele>2547.1999511719</ele>
        <time>2015-08-20T07:09:49.000Z</time>
      </trkpt>
      <trkpt lat="44.92023" lon="6.01637">
        <ele>2547</ele>
        <time>2015-08-20T07:09:51.000Z</time>
      </trkpt>
      <trkpt lat="44.92026" lon="6.01644">
        <ele>2546.8000488281</ele>
        <time>2015-08-20T07:09:54.000Z</time>
      </trkpt>
      <trkpt lat="44.92028" lon="6.01647">
        <ele>2547</ele>
        <time>2015-08-20T07:09:56.000Z</time>
      </trkpt>
      <trkpt lat="44.92029" lon="6.01651">
        <ele>2546.6000976562</ele>
        <time>2015-08-20T07:09:58.000Z</time>
      </trkpt>
      <trkpt lat="44.92029" lon="6.01653">
        <ele>2546.1999511719</ele>
        <time>2015-08-20T07:09:59.000Z</time>
      </trkpt>
      <trkpt lat="44.92032" lon="6.01658">
        <ele>2546.3999023438</ele>
        <time>2015-08-20T07:10:02.000Z</time>
      </trkpt>
      <trkpt lat="44.92034" lon="6.01661">
        <ele>2546.6000976562</ele>
        <time>2015-08-20T07:10:04.000Z</time>
      </trkpt>
      <trkpt lat="44.92042" lon="6.01666">
        <ele>2549</ele>
        <time>2015-08-20T07:10:11.000Z</time>
      </trkpt>
      <trkpt lat="44.92043" lon="6.01666">
        <ele>2549</ele>
        <time>2015-08-20T07:10:12.000Z</time>
      </trkpt>
      <trkpt lat="44.92046" lon="6.01669">
        <ele>2548.3999023438</ele>
        <time>2015-08-20T07:10:15.000Z</time>
      </trkpt>
      <trkpt lat="44.92048" lon="6.0167">
        <ele>2548</ele>
        <time>2015-08-20T07:10:17.000Z</time>
      </trkpt>
      <trkpt lat="44.92051" lon="6.01672">
        <ele>2547.6000976562</ele>
        <time>2015-08-20T07:10:20.000Z</time>
      </trkpt>
      <trkpt lat="44.92057" lon="6.01679">
        <ele>2546</ele>
        <time>2015-08-20T07:10:26.000Z</time>
      </trkpt>
      <trkpt lat="44.92061" lon="6.01681">
        <ele>2545.6000976562</ele>
        <time>2015-08-20T07:10:30.000Z</time>
      </trkpt>
      <trkpt lat="44.92062" lon="6.01683">
        <ele>2545.1999511719</ele>
        <time>2015-08-20T07:10:31.000Z</time>
      </trkpt>
      <trkpt lat="44.92069" lon="6.01688">
        <ele>2544</ele>
        <time>2015-08-20T07:10:36.000Z</time>
      </trkpt>
      <trkpt lat="44.92075" lon="6.01696">
        <ele>2542</ele>
        <time>2015-08-20T07:10:42.000Z</time>
      </trkpt>
      <trkpt lat="44.92076" lon="6.01698">
        <ele>2541.8000488281</ele>
        <time>2015-08-20T07:10:43.000Z</time>
      </trkpt>
      <trkpt lat="44.92082" lon="6.01703">
        <ele>2540.6000976562</ele>
        <time>2015-08-20T07:10:48.000Z</time>
      </trkpt>
      <trkpt lat="44.92086" lon="6.01702">
        <ele>2540.8000488281</ele>
        <time>2015-08-20T07:10:52.000Z</time>
      </trkpt>
      <trkpt lat="44.92093" lon="6.017">
        <ele>2541.6000976562</ele>
        <time>2015-08-20T07:10:57.000Z</time>
      </trkpt>
      <trkpt lat="44.92097" lon="6.01703">
        <ele>2541</ele>
        <time>2015-08-20T07:11:01.000Z</time>
      </trkpt>
      <trkpt lat="44.92098" lon="6.01704">
        <ele>2540.8000488281</ele>
        <time>2015-08-20T07:11:02.000Z</time>
      </trkpt>
      <trkpt lat="44.92099" lon="6.01705">
        <ele>2540.6000976562</ele>
        <time>2015-08-20T07:11:03.000Z</time>
      </trkpt>
      <trkpt lat="44.921" lon="6.01705">
        <ele>2540.3999023438</ele>
        <time>2015-08-20T07:11:04.000Z</time>
      </trkpt>
      <trkpt lat="44.92104" lon="6.01707">
        <ele>2540.1999511719</ele>
        <time>2015-08-20T07:11:08.000Z</time>
      </trkpt>
      <trkpt lat="44.92108" lon="6.01711">
        <ele>2539.1999511719</ele>
        <time>2015-08-20T07:11:12.000Z</time>
      </trkpt>
      <trkpt lat="44.92109" lon="6.01713">
        <ele>2538.8000488281</ele>
        <time>2015-08-20T07:11:14.000Z</time>
      </trkpt>
      <trkpt lat="44.92115" lon="6.01716">
        <ele>2538</ele>
        <time>2015-08-20T07:11:19.000Z</time>
      </trkpt>
      <trkpt lat="44.92117" lon="6.01717">
        <ele>2537.8000488281</ele>
        <time>2015-08-20T07:11:20.000Z</time>
      </trkpt>
      <trkpt lat="44.92119" lon="6.01719">
        <ele>2537.3999023438</ele>
        <time>2015-08-20T07:11:22.000Z</time>
      </trkpt>
      <trkpt lat="44.92118" lon="6.01722">
        <ele>2536.8000488281</ele>
        <time>2015-08-20T07:11:24.000Z</time>
      </trkpt>
      <trkpt lat="44.92122" lon="6.01726">
        <ele>2535.6000976562</ele>
        <time>2015-08-20T07:11:28.000Z</time>
      </trkpt>
      <trkpt lat="44.92122" lon="6.01728">
        <ele>2534.8000488281</ele>
        <time>2015-08-20T07:11:29.000Z</time>
      </trkpt>
      <trkpt lat="44.92121" lon="6.01729">
        <ele>2534.6000976562</ele>
        <time>2015-08-20T07:11:30.000Z</time>
      </trkpt>
      <trkpt lat="44.92122" lon="6.01734">
        <ele>2532.1999511719</ele>
        <time>2015-08-20T07:11:33.000Z</time>
      </trkpt>
      <trkpt lat="44.92125" lon="6.01741">
        <ele>2528.8000488281</ele>
        <time>2015-08-20T07:11:37.000Z</time>
      </trkpt>
      <trkpt lat="44.92127" lon="6.01744">
        <ele>2526.6000976562</ele>
        <time>2015-08-20T07:11:39.000Z</time>
      </trkpt>
      <trkpt lat="44.92129" lon="6.01745">
        <ele>2525.6000976562</ele>
        <time>2015-08-20T07:11:40.000Z</time>
      </trkpt>
      <trkpt lat="44.92131" lon="6.01745">
        <ele>2524.3999023438</ele>
        <time>2015-08-20T07:11:42.000Z</time>
      </trkpt>
      <trkpt lat="44.92133" lon="6.01746">
        <ele>2523.3999023438</ele>
        <time>2015-08-20T07:11:43.000Z</time>
      </trkpt>
      <trkpt lat="44.92138" lon="6.01752">
        <ele>2518.6000976562</ele>
        <time>2015-08-20T07:11:48.000Z</time>
      </trkpt>
      <trkpt lat="44.9214" lon="6.01756">
        <ele>2516</ele>
        <time>2015-08-20T07:11:51.000Z</time>
      </trkpt>
      <trkpt lat="44.92143" lon="6.01755">
        <ele>2515.3999023438</ele>
        <time>2015-08-20T07:11:53.000Z</time>
      </trkpt>
      <trkpt lat="44.92145" lon="6.01756">
        <ele>2514.3999023438</ele>
        <time>2015-08-20T07:11:54.000Z</time>
      </trkpt>
      <trkpt lat="44.92147" lon="6.0176">
        <ele>2512.1999511719</ele>
        <time>2015-08-20T07:11:57.000Z</time>
      </trkpt>
      <trkpt lat="44.92149" lon="6.0176">
        <ele>2511.3999023438</ele>
        <time>2015-08-20T07:11:59.000Z</time>
      </trkpt>
      <trkpt lat="44.9215" lon="6.0176">
        <ele>2510.8000488281</ele>
        <time>2015-08-20T07:12:01.000Z</time>
      </trkpt>
      <trkpt lat="44.92153" lon="6.0176">
        <ele>2509.6000976562</ele>
        <time>2015-08-20T07:12:03.000Z</time>
      </trkpt>
      <trkpt lat="44.92155" lon="6.01764">
        <ele>2507.1999511719</ele>
        <time>2015-08-20T07:12:07.000Z</time>
      </trkpt>
      <trkpt lat="44.92157" lon="6.01766">
        <ele>2505.3999023438</ele>
        <time>2015-08-20T07:12:10.000Z</time>
      </trkpt>
      <trkpt lat="44.9216" lon="6.01768">
        <ele>2503.8000488281</ele>
        <time>2015-08-20T07:12:13.000Z</time>
      </trkpt>
      <trkpt lat="44.92162" lon="6.01769">
        <ele>2502.1999511719</ele>
        <time>2015-08-20T07:12:15.000Z</time>
      </trkpt>
      <trkpt lat="44.92166" lon="6.01774">
        <ele>2498.6000976562</ele>
        <time>2015-08-20T07:12:19.000Z</time>
      </trkpt>
      <trkpt lat="44.9217" lon="6.01779">
        <ele>2495.1999511719</ele>
        <time>2015-08-20T07:12:23.000Z</time>
      </trkpt>
      <trkpt lat="44.92171" lon="6.0178">
        <ele>2494.1999511719</ele>
        <time>2015-08-20T07:12:24.000Z</time>
      </trkpt>
      <trkpt lat="44.92179" lon="6.01791">
        <ele>2486.6000976562</ele>
        <time>2015-08-20T07:12:30.000Z</time>
      </trkpt>
      <trkpt lat="44.92181" lon="6.01794">
        <ele>2484.1999511719</ele>
        <time>2015-08-20T07:12:33.000Z</time>
      </trkpt>
      <trkpt lat="44.92184" lon="6.01796">
        <ele>2482</ele>
        <time>2015-08-20T07:12:36.000Z</time>
      </trkpt>
      <trkpt lat="44.92187" lon="6.01798">
        <ele>2480.3999023438</ele>
        <time>2015-08-20T07:12:38.000Z</time>
      </trkpt>
      <trkpt lat="44.92188" lon="6.01799">
        <ele>2479.1999511719</ele>
        <time>2015-08-20T07:12:40.000Z</time>
      </trkpt>
      <trkpt lat="44.9219" lon="6.01801">
        <ele>2477.8000488281</ele>
        <time>2015-08-20T07:12:42.000Z</time>
      </trkpt>
      <trkpt lat="44.92195" lon="6.01807">
        <ele>2473</ele>
        <time>2015-08-20T07:12:47.000Z</time>
      </trkpt>
      <trkpt lat="44.92197" lon="6.01808">
        <ele>2471.8000488281</ele>
        <time>2015-08-20T07:12:48.000Z</time>
      </trkpt>
      <trkpt lat="44.92208" lon="6.01815">
        <ele>2465</ele>
        <time>2015-08-20T07:12:54.000Z</time>
      </trkpt>
      <trkpt lat="44.92211" lon="6.01816">
        <ele>2465</ele>
        <time>2015-08-20T07:12:56.000Z</time>
      </trkpt>
      <trkpt lat="44.92217" lon="6.0182">
        <ele>2464.6000976562</ele>
        <time>2015-08-20T07:13:00.000Z</time>
      </trkpt>
      <trkpt lat="44.92221" lon="6.01822">
        <ele>2464.1999511719</ele>
        <time>2015-08-20T07:13:03.000Z</time>
      </trkpt>
      <trkpt lat="44.9222" lon="6.01825">
        <ele>2462.6000976562</ele>
        <time>2015-08-20T07:13:05.000Z</time>
      </trkpt>
      <trkpt lat="44.92217" lon="6.01831">
        <ele>2459</ele>
        <time>2015-08-20T07:13:10.000Z</time>
      </trkpt>
      <trkpt lat="44.92221" lon="6.01831">
        <ele>2459.6000976562</ele>
        <time>2015-08-20T07:13:15.000Z</time>
      </trkpt>
      <trkpt lat="44.92224" lon="6.01831">
        <ele>2460.3999023438</ele>
        <time>2015-08-20T07:13:17.000Z</time>
      </trkpt>
      <trkpt lat="44.92227" lon="6.01832">
        <ele>2460.8000488281</ele>
        <time>2015-08-20T07:13:20.000Z</time>
      </trkpt>
      <trkpt lat="44.92229" lon="6.01832">
        <ele>2461</ele>
        <time>2015-08-20T07:13:21.000Z</time>
      </trkpt>
      <trkpt lat="44.92239" lon="6.01831">
        <ele>2461</ele>
        <time>2015-08-20T07:13:25.000Z</time>
      </trkpt>
      <trkpt lat="44.92241" lon="6.01831">
        <ele>2461</ele>
        <time>2015-08-20T07:13:26.000Z</time>
      </trkpt>
      <trkpt lat="44.92243" lon="6.01832">
        <ele>2460.6000976562</ele>
        <time>2015-08-20T07:13:27.000Z</time>
      </trkpt>
      <trkpt lat="44.92246" lon="6.01836">
        <ele>2459.6000976562</ele>
        <time>2015-08-20T07:13:29.000Z</time>
      </trkpt>
      <trkpt lat="44.92249" lon="6.01838">
        <ele>2459</ele>
        <time>2015-08-20T07:13:31.000Z</time>
      </trkpt>
      <trkpt lat="44.92254" lon="6.01844">
        <ele>2457.1999511719</ele>
        <time>2015-08-20T07:13:35.000Z</time>
      </trkpt>
      <trkpt lat="44.9226" lon="6.01853">
        <ele>2454.8000488281</ele>
        <time>2015-08-20T07:13:41.000Z</time>
      </trkpt>
      <trkpt lat="44.92272" lon="6.01864">
        <ele>2451.6000976562</ele>
        <time>2015-08-20T07:13:48.000Z</time>
      </trkpt>
      <trkpt lat="44.92279" lon="6.01873">
        <ele>2449.1999511719</ele>
        <time>2015-08-20T07:13:52.000Z</time>
      </trkpt>
      <trkpt lat="44.92286" lon="6.01882">
        <ele>2446.6000976562</ele>
        <time>2015-08-20T07:13:56.000Z</time>
      </trkpt>
      <trkpt lat="44.92293" lon="6.01892">
        <ele>2444.6000976562</ele>
        <time>2015-08-20T07:14:00.000Z</time>
      </trkpt>
      <trkpt lat="44.92301" lon="6.019">
        <ele>2446.6000976562</ele>
        <time>2015-08-20T07:14:05.000Z</time>
      </trkpt>
      <trkpt lat="44.92307" lon="6.01906">
        <ele>2448.1999511719</ele>
        <time>2015-08-20T07:14:10.000Z</time>
      </trkpt>
      <trkpt lat="44.92315" lon="6.01913">
        <ele>2450</ele>
        <time>2015-08-20T07:14:16.000Z</time>
      </trkpt>
      <trkpt lat="44.9232" lon="6.01919">
        <ele>2451.3999023438</ele>
        <time>2015-08-20T07:14:22.000Z</time>
      </trkpt>
      <trkpt lat="44.92324" lon="6.01927">
        <ele>2452.3999023438</ele>
        <time>2015-08-20T07:14:29.000Z</time>
      </trkpt>
      <trkpt lat="44.92329" lon="6.01937">
        <ele>2451.6000976562</ele>
        <time>2015-08-20T07:14:37.000Z</time>
      </trkpt>
      <trkpt lat="44.92329" lon="6.01938">
        <ele>2451.8000488281</ele>
        <time>2015-08-20T07:14:38.000Z</time>
      </trkpt>
      <trkpt lat="44.92332" lon="6.01943">
        <ele>2451.8000488281</ele>
        <time>2015-08-20T07:14:42.000Z</time>
      </trkpt>
      <trkpt lat="44.92337" lon="6.01953">
        <ele>2451.8000488281</ele>
        <time>2015-08-20T07:14:50.000Z</time>
      </trkpt>
      <trkpt lat="44.92342" lon="6.01962">
        <ele>2451.3999023438</ele>
        <time>2015-08-20T07:14:58.000Z</time>
      </trkpt>
      <trkpt lat="44.92346" lon="6.01972">
        <ele>2450.8000488281</ele>
        <time>2015-08-20T07:15:06.000Z</time>
      </trkpt>
      <trkpt lat="44.92349" lon="6.0198">
        <ele>2450</ele>
        <time>2015-08-20T07:15:13.000Z</time>
      </trkpt>
      <trkpt lat="44.92349" lon="6.01981">
        <ele>2450</ele>
        <time>2015-08-20T07:15:14.000Z</time>
      </trkpt>
      <trkpt lat="44.92351" lon="6.01988">
        <ele>2449.8000488281</ele>
        <time>2015-08-20T07:15:20.000Z</time>
      </trkpt>
      <trkpt lat="44.92353" lon="6.01991">
        <ele>2449.8000488281</ele>
        <time>2015-08-20T07:15:22.000Z</time>
      </trkpt>
      <trkpt lat="44.92354" lon="6.01996">
        <ele>2449.3999023438</ele>
        <time>2015-08-20T07:15:26.000Z</time>
      </trkpt>
      <trkpt lat="44.92356" lon="6.02003">
        <ele>2449.1999511719</ele>
        <time>2015-08-20T07:15:32.000Z</time>
      </trkpt>
      <trkpt lat="44.92361" lon="6.02011">
        <ele>2450</ele>
        <time>2015-08-20T07:15:40.000Z</time>
      </trkpt>
      <trkpt lat="44.92366" lon="6.02009">
        <ele>2452.8000488281</ele>
        <time>2015-08-20T07:15:47.000Z</time>
      </trkpt>
      <trkpt lat="44.92366" lon="6.02008">
        <ele>2453</ele>
        <time>2015-08-20T07:15:48.000Z</time>
      </trkpt>
      <trkpt lat="44.92368" lon="6.02008">
        <ele>2454.3999023438</ele>
        <time>2015-08-20T07:15:51.000Z</time>
      </trkpt>
      <trkpt lat="44.92372" lon="6.0201">
        <ele>2456.1999511719</ele>
        <time>2015-08-20T07:15:56.000Z</time>
      </trkpt>
      <trkpt lat="44.92373" lon="6.02011">
        <ele>2456.6000976562</ele>
        <time>2015-08-20T07:15:57.000Z</time>
      </trkpt>
      <trkpt lat="44.92377" lon="6.02013">
        <ele>2458.1999511719</ele>
        <time>2015-08-20T07:16:01.000Z</time>
      </trkpt>
      <trkpt lat="44.92378" lon="6.02015">
        <ele>2458.6000976562</ele>
        <time>2015-08-20T07:16:03.000Z</time>
      </trkpt>
      <trkpt lat="44.92379" lon="6.02016">
        <ele>2459.3999023438</ele>
        <time>2015-08-20T07:16:05.000Z</time>
      </trkpt>
      <trkpt lat="44.92383" lon="6.02017">
        <ele>2461.3999023438</ele>
        <time>2015-08-20T07:16:10.000Z</time>
      </trkpt>
      <trkpt lat="44.92387" lon="6.0202">
        <ele>2462.8000488281</ele>
        <time>2015-08-20T07:16:15.000Z</time>
      </trkpt>
      <trkpt lat="44.9239" lon="6.02022">
        <ele>2464.6000976562</ele>
        <time>2015-08-20T07:16:19.000Z</time>
      </trkpt>
      <trkpt lat="44.92397" lon="6.02028">
        <ele>2467.3999023438</ele>
        <time>2015-08-20T07:16:27.000Z</time>
      </trkpt>
      <trkpt lat="44.92404" lon="6.02033">
        <ele>2470.6000976562</ele>
        <time>2015-08-20T07:16:34.000Z</time>
      </trkpt>
      <trkpt lat="44.92406" lon="6.02035">
        <ele>2471.8000488281</ele>
        <time>2015-08-20T07:16:37.000Z</time>
      </trkpt>
      <trkpt lat="44.92411" lon="6.02037">
        <ele>2474.3999023438</ele>
        <time>2015-08-20T07:16:41.000Z</time>
      </trkpt>
      <trkpt lat="44.92419" lon="6.02044">
        <ele>2477.6000976562</ele>
        <time>2015-08-20T07:16:49.000Z</time>
      </trkpt>
      <trkpt lat="44.92422" lon="6.02048">
        <ele>2478.8000488281</ele>
        <time>2015-08-20T07:16:53.000Z</time>
      </trkpt>
      <trkpt lat="44.92424" lon="6.02049">
        <ele>2479.6000976562</ele>
        <time>2015-08-20T07:16:55.000Z</time>
      </trkpt>
      <trkpt lat="44.92429" lon="6.02055">
        <ele>2481.1999511719</ele>
        <time>2015-08-20T07:17:02.000Z</time>
      </trkpt>
      <trkpt lat="44.9243" lon="6.02056">
        <ele>2482</ele>
        <time>2015-08-20T07:17:04.000Z</time>
      </trkpt>
      <trkpt lat="44.92432" lon="6.02058">
        <ele>2482.3999023438</ele>
        <time>2015-08-20T07:17:07.000Z</time>
      </trkpt>
      <trkpt lat="44.92436" lon="6.02062">
        <ele>2484.6000976562</ele>
        <time>2015-08-20T07:17:13.000Z</time>
      </trkpt>
      <trkpt lat="44.92438" lon="6.02064">
        <ele>2486.1999511719</ele>
        <time>2015-08-20T07:17:18.000Z</time>
      </trkpt>
      <trkpt lat="44.92442" lon="6.02068">
        <ele>2488.1999511719</ele>
        <time>2015-08-20T07:17:23.000Z</time>
      </trkpt>
      <trkpt lat="44.92442" lon="6.02069">
        <ele>2488.6000976562</ele>
        <time>2015-08-20T07:17:27.000Z</time>
      </trkpt>
      <trkpt lat="44.92444" lon="6.02071">
        <ele>2489.1999511719</ele>
        <time>2015-08-20T07:17:32.000Z</time>
      </trkpt>
      <trkpt lat="44.92446" lon="6.02073">
        <ele>2490.8000488281</ele>
        <time>2015-08-20T07:17:36.000Z</time>
      </trkpt>
      <trkpt lat="44.92447" lon="6.02075">
        <ele>2491.6000976562</ele>
        <time>2015-08-20T07:17:40.000Z</time>
      </trkpt>
      <trkpt lat="44.92449" lon="6.02077">
        <ele>2492.6000976562</ele>
        <time>2015-08-20T07:17:46.000Z</time>
      </trkpt>
      <trkpt lat="44.92452" lon="6.02079">
        <ele>2494.1999511719</ele>
        <time>2015-08-20T07:17:51.000Z</time>
      </trkpt>
      <trkpt lat="44.92455" lon="6.02081">
        <ele>2496.1999511719</ele>
        <time>2015-08-20T07:17:56.000Z</time>
      </trkpt>
      <trkpt lat="44.92456" lon="6.02084">
        <ele>2497</ele>
        <time>2015-08-20T07:18:00.000Z</time>
      </trkpt>
      <trkpt lat="44.92455" lon="6.02086">
        <ele>2496</ele>
        <time>2015-08-20T07:18:04.000Z</time>
      </trkpt>
      <trkpt lat="44.92453" lon="6.02087">
        <ele>2495</ele>
        <time>2015-08-20T07:18:08.000Z</time>
      </trkpt>
      <trkpt lat="44.92456" lon="6.02091">
        <ele>2496.3999023438</ele>
        <time>2015-08-20T07:18:14.000Z</time>
      </trkpt>
      <trkpt lat="44.92457" lon="6.02093">
        <ele>2497.1999511719</ele>
        <time>2015-08-20T07:18:18.000Z</time>
      </trkpt>
      <trkpt lat="44.92457" lon="6.02097">
        <ele>2497.1999511719</ele>
        <time>2015-08-20T07:18:22.000Z</time>
      </trkpt>
      <trkpt lat="44.92459" lon="6.02099">
        <ele>2498</ele>
        <time>2015-08-20T07:18:26.000Z</time>
      </trkpt>
      <trkpt lat="44.92461" lon="6.021">
        <ele>2499</ele>
        <time>2015-08-20T07:18:30.000Z</time>
      </trkpt>
      <trkpt lat="44.92463" lon="6.02103">
        <ele>2500.3999023438</ele>
        <time>2015-08-20T07:18:35.000Z</time>
      </trkpt>
      <trkpt lat="44.92467" lon="6.02105">
        <ele>2502.1999511719</ele>
        <time>2015-08-20T07:18:41.000Z</time>
      </trkpt>
      <trkpt lat="44.92468" lon="6.02108">
        <ele>2502.8000488281</ele>
        <time>2015-08-20T07:18:46.000Z</time>
      </trkpt>
      <trkpt lat="44.92467" lon="6.0211">
        <ele>2502.3999023438</ele>
        <time>2015-08-20T07:18:50.000Z</time>
      </trkpt>
      <trkpt lat="44.92465" lon="6.02112">
        <ele>2501</ele>
        <time>2015-08-20T07:18:53.000Z</time>
      </trkpt>
      <trkpt lat="44.92464" lon="6.02114">
        <ele>2500.1999511719</ele>
        <time>2015-08-20T07:18:56.000Z</time>
      </trkpt>
      <trkpt lat="44.92463" lon="6.02116">
        <ele>2499.6000976562</ele>
        <time>2015-08-20T07:19:00.000Z</time>
      </trkpt>
      <trkpt lat="44.92464" lon="6.0212">
        <ele>2500.1999511719</ele>
        <time>2015-08-20T07:19:04.000Z</time>
      </trkpt>
      <trkpt lat="44.92465" lon="6.02122">
        <ele>2500.8000488281</ele>
        <time>2015-08-20T07:19:09.000Z</time>
      </trkpt>
      <trkpt lat="44.92468" lon="6.02123">
        <ele>2502.6000976562</ele>
        <time>2015-08-20T07:19:14.000Z</time>
      </trkpt>
      <trkpt lat="44.92471" lon="6.02124">
        <ele>2503.8000488281</ele>
        <time>2015-08-20T07:19:18.000Z</time>
      </trkpt>
      <trkpt lat="44.92473" lon="6.02126">
        <ele>2505.1999511719</ele>
        <time>2015-08-20T07:19:24.000Z</time>
      </trkpt>
      <trkpt lat="44.92475" lon="6.02127">
        <ele>2506.1999511719</ele>
        <time>2015-08-20T07:19:29.000Z</time>
      </trkpt>
      <trkpt lat="44.92477" lon="6.02129">
        <ele>2507.1999511719</ele>
        <time>2015-08-20T07:19:33.000Z</time>
      </trkpt>
      <trkpt lat="44.92478" lon="6.02132">
        <ele>2508</ele>
        <time>2015-08-20T07:19:38.000Z</time>
      </trkpt>
      <trkpt lat="44.9248" lon="6.02134">
        <ele>2508.8000488281</ele>
        <time>2015-08-20T07:19:43.000Z</time>
      </trkpt>
      <trkpt lat="44.9248" lon="6.02137">
        <ele>2508.6000976562</ele>
        <time>2015-08-20T07:19:48.000Z</time>
      </trkpt>
      <trkpt lat="44.92476" lon="6.0214">
        <ele>2506.3999023438</ele>
        <time>2015-08-20T07:19:55.000Z</time>
      </trkpt>
      <trkpt lat="44.92475" lon="6.02143">
        <ele>2506.1999511719</ele>
        <time>2015-08-20T07:20:00.000Z</time>
      </trkpt>
      <trkpt lat="44.92475" lon="6.02146">
        <ele>2505.8000488281</ele>
        <time>2015-08-20T07:20:06.000Z</time>
      </trkpt>
      <trkpt lat="44.92473" lon="6.02148">
        <ele>2505.1999511719</ele>
        <time>2015-08-20T07:20:08.000Z</time>
      </trkpt>
      <trkpt lat="44.92473" lon="6.02148">
        <ele>2505</ele>
        <time>2015-08-20T07:20:11.000Z</time>
      </trkpt>
      <trkpt lat="44.92475" lon="6.0215">
        <ele>2506</ele>
        <time>2015-08-20T07:20:16.000Z</time>
      </trkpt>
      <trkpt lat="44.92475" lon="6.02153">
        <ele>2506.1999511719</ele>
        <time>2015-08-20T07:20:21.000Z</time>
      </trkpt>
      <trkpt lat="44.92475" lon="6.02157">
        <ele>2506</ele>
        <time>2015-08-20T07:20:27.000Z</time>
      </trkpt>
      <trkpt lat="44.92474" lon="6.02158">
        <ele>2506</ele>
        <time>2015-08-20T07:20:32.000Z</time>
      </trkpt>
      <trkpt lat="44.92476" lon="6.02159">
        <ele>2507</ele>
        <time>2015-08-20T07:20:37.000Z</time>
      </trkpt>
      <trkpt lat="44.92478" lon="6.02161">
        <ele>2508.1999511719</ele>
        <time>2015-08-20T07:20:41.000Z</time>
      </trkpt>
      <trkpt lat="44.9248" lon="6.02163">
        <ele>2508.8000488281</ele>
        <time>2015-08-20T07:20:46.000Z</time>
      </trkpt>
      <trkpt lat="44.92479" lon="6.02164">
        <ele>2508.3999023438</ele>
        <time>2015-08-20T07:20:47.000Z</time>
      </trkpt>
      <trkpt lat="44.92478" lon="6.02165">
        <ele>2507.8000488281</ele>
        <time>2015-08-20T07:20:50.000Z</time>
      </trkpt>
      <trkpt lat="44.9248" lon="6.02166">
        <ele>2509</ele>
        <time>2015-08-20T07:20:54.000Z</time>
      </trkpt>
      <trkpt lat="44.92482" lon="6.02166">
        <ele>2510.1999511719</ele>
        <time>2015-08-20T07:20:58.000Z</time>
      </trkpt>
      <trkpt lat="44.92483" lon="6.02168">
        <ele>2510.6000976562</ele>
        <time>2015-08-20T07:21:02.000Z</time>
      </trkpt>
      <trkpt lat="44.92484" lon="6.0217">
        <ele>2511.1999511719</ele>
        <time>2015-08-20T07:21:06.000Z</time>
      </trkpt>
      <trkpt lat="44.92486" lon="6.02172">
        <ele>2512.6000976562</ele>
        <time>2015-08-20T07:21:12.000Z</time>
      </trkpt>
      <trkpt lat="44.92488" lon="6.02173">
        <ele>2513.8000488281</ele>
        <time>2015-08-20T07:21:17.000Z</time>
      </trkpt>
      <trkpt lat="44.9249" lon="6.02176">
        <ele>2515</ele>
        <time>2015-08-20T07:21:22.000Z</time>
      </trkpt>
      <trkpt lat="44.9249" lon="6.02179">
        <ele>2514.3999023438</ele>
        <time>2015-08-20T07:21:27.000Z</time>
      </trkpt>
      <trkpt lat="44.92492" lon="6.02182">
        <ele>2515.3999023438</ele>
        <time>2015-08-20T07:21:32.000Z</time>
      </trkpt>
      <trkpt lat="44.92495" lon="6.02184">
        <ele>2517.3999023438</ele>
        <time>2015-08-20T07:21:37.000Z</time>
      </trkpt>
      <trkpt lat="44.92498" lon="6.02185">
        <ele>2519</ele>
        <time>2015-08-20T07:21:42.000Z</time>
      </trkpt>
      <trkpt lat="44.92502" lon="6.02186">
        <ele>2522</ele>
        <time>2015-08-20T07:21:48.000Z</time>
      </trkpt>
      <trkpt lat="44.92506" lon="6.02187">
        <ele>2524</ele>
        <time>2015-08-20T07:21:53.000Z</time>
      </trkpt>
      <trkpt lat="44.9251" lon="6.02189">
        <ele>2526.1999511719</ele>
        <time>2015-08-20T07:21:59.000Z</time>
      </trkpt>
      <trkpt lat="44.92512" lon="6.02189">
        <ele>2527.1999511719</ele>
        <time>2015-08-20T07:22:03.000Z</time>
      </trkpt>
      <trkpt lat="44.92512" lon="6.02193">
        <ele>2527.3999023438</ele>
        <time>2015-08-20T07:22:07.000Z</time>
      </trkpt>
      <trkpt lat="44.92512" lon="6.02196">
        <ele>2527.8000488281</ele>
        <time>2015-08-20T07:22:10.000Z</time>
      </trkpt>
      <trkpt lat="44.92513" lon="6.02198">
        <ele>2528.1999511719</ele>
        <time>2015-08-20T07:22:12.000Z</time>
      </trkpt>
      <trkpt lat="44.92516" lon="6.02202">
        <ele>2530.1999511719</ele>
        <time>2015-08-20T07:22:18.000Z</time>
      </trkpt>
      <trkpt lat="44.9252" lon="6.02203">
        <ele>2532</ele>
        <time>2015-08-20T07:22:23.000Z</time>
      </trkpt>
      <trkpt lat="44.92523" lon="6.02205">
        <ele>2533.8000488281</ele>
        <time>2015-08-20T07:22:29.000Z</time>
      </trkpt>
      <trkpt lat="44.92525" lon="6.02207">
        <ele>2535.1999511719</ele>
        <time>2015-08-20T07:22:34.000Z</time>
      </trkpt>
      <trkpt lat="44.92529" lon="6.02211">
        <ele>2537.3999023438</ele>
        <time>2015-08-20T07:22:39.000Z</time>
      </trkpt>
      <trkpt lat="44.92532" lon="6.02213">
        <ele>2539.1999511719</ele>
        <time>2015-08-20T07:22:44.000Z</time>
      </trkpt>
      <trkpt lat="44.92536" lon="6.02216">
        <ele>2541</ele>
        <time>2015-08-20T07:22:49.000Z</time>
      </trkpt>
      <trkpt lat="44.92538" lon="6.0222">
        <ele>2542.3999023438</ele>
        <time>2015-08-20T07:22:54.000Z</time>
      </trkpt>
      <trkpt lat="44.9254" lon="6.02221">
        <ele>2543.6000976562</ele>
        <time>2015-08-20T07:22:58.000Z</time>
      </trkpt>
      <trkpt lat="44.92542" lon="6.02222">
        <ele>2544.3999023438</ele>
        <time>2015-08-20T07:23:02.000Z</time>
      </trkpt>
      <trkpt lat="44.92544" lon="6.02223">
        <ele>2545.6000976562</ele>
        <time>2015-08-20T07:23:06.000Z</time>
      </trkpt>
      <trkpt lat="44.92546" lon="6.02225">
        <ele>2546.3999023438</ele>
        <time>2015-08-20T07:23:11.000Z</time>
      </trkpt>
      <trkpt lat="44.92549" lon="6.02227">
        <ele>2547.3999023438</ele>
        <time>2015-08-20T07:23:16.000Z</time>
      </trkpt>
      <trkpt lat="44.92553" lon="6.0223">
        <ele>2548.6000976562</ele>
        <time>2015-08-20T07:23:22.000Z</time>
      </trkpt>
      <trkpt lat="44.92558" lon="6.0223">
        <ele>2550.3999023438</ele>
        <time>2015-08-20T07:23:28.000Z</time>
      </trkpt>
      <trkpt lat="44.9256" lon="6.02232">
        <ele>2551.3999023438</ele>
        <time>2015-08-20T07:23:33.000Z</time>
      </trkpt>
      <trkpt lat="44.92563" lon="6.02233">
        <ele>2552</ele>
        <time>2015-08-20T07:23:37.000Z</time>
      </trkpt>
      <trkpt lat="44.92565" lon="6.02233">
        <ele>2553</ele>
        <time>2015-08-20T07:23:42.000Z</time>
      </trkpt>
      <trkpt lat="44.92568" lon="6.02234">
        <ele>2554.3999023438</ele>
        <time>2015-08-20T07:23:47.000Z</time>
      </trkpt>
      <trkpt lat="44.92571" lon="6.02236">
        <ele>2555.1999511719</ele>
        <time>2015-08-20T07:23:52.000Z</time>
      </trkpt>
      <trkpt lat="44.92572" lon="6.02238">
        <ele>2555.3999023438</ele>
        <time>2015-08-20T07:23:56.000Z</time>
      </trkpt>
      <trkpt lat="44.92574" lon="6.02239">
        <ele>2556</ele>
        <time>2015-08-20T07:24:01.000Z</time>
      </trkpt>
      <trkpt lat="44.92578" lon="6.0224">
        <ele>2557.3999023438</ele>
        <time>2015-08-20T07:24:07.000Z</time>
      </trkpt>
      <trkpt lat="44.92581" lon="6.02242">
        <ele>2558.6000976562</ele>
        <time>2015-08-20T07:24:14.000Z</time>
      </trkpt>
      <trkpt lat="44.92583" lon="6.02244">
        <ele>2558.8000488281</ele>
        <time>2015-08-20T07:24:19.000Z</time>
      </trkpt>
      <trkpt lat="44.92584" lon="6.02246">
        <ele>2559.1999511719</ele>
        <time>2015-08-20T07:24:23.000Z</time>
      </trkpt>
      <trkpt lat="44.92587" lon="6.02248">
        <ele>2560.1999511719</ele>
        <time>2015-08-20T07:24:28.000Z</time>
      </trkpt>
      <trkpt lat="44.9259" lon="6.02248">
        <ele>2561.3999023438</ele>
        <time>2015-08-20T07:24:33.000Z</time>
      </trkpt>
      <trkpt lat="44.92594" lon="6.02249">
        <ele>2562.6000976562</ele>
        <time>2015-08-20T07:24:38.000Z</time>
      </trkpt>
      <trkpt lat="44.92599" lon="6.02251">
        <ele>2564.3999023438</ele>
        <time>2015-08-20T07:24:45.000Z</time>
      </trkpt>
      <trkpt lat="44.92602" lon="6.02252">
        <ele>2565.8000488281</ele>
        <time>2015-08-20T07:24:49.000Z</time>
      </trkpt>
      <trkpt lat="44.92605" lon="6.02255">
        <ele>2566.3999023438</ele>
        <time>2015-08-20T07:24:54.000Z</time>
      </trkpt>
      <trkpt lat="44.92609" lon="6.02255">
        <ele>2568</ele>
        <time>2015-08-20T07:24:59.000Z</time>
      </trkpt>
      <trkpt lat="44.9261" lon="6.02256">
        <ele>2568.3999023438</ele>
        <time>2015-08-20T07:25:00.000Z</time>
      </trkpt>
      <trkpt lat="44.92612" lon="6.02258">
        <ele>2569</ele>
        <time>2015-08-20T07:25:03.000Z</time>
      </trkpt>
      <trkpt lat="44.92616" lon="6.0226">
        <ele>2570.1999511719</ele>
        <time>2015-08-20T07:25:08.000Z</time>
      </trkpt>
      <trkpt lat="44.92621" lon="6.02263">
        <ele>2571.8000488281</ele>
        <time>2015-08-20T07:25:14.000Z</time>
      </trkpt>
      <trkpt lat="44.92624" lon="6.02264">
        <ele>2573.1999511719</ele>
        <time>2015-08-20T07:25:18.000Z</time>
      </trkpt>
      <trkpt lat="44.92626" lon="6.02265">
        <ele>2573.8000488281</ele>
        <time>2015-08-20T07:25:21.000Z</time>
      </trkpt>
      <trkpt lat="44.92627" lon="6.02265">
        <ele>2574.1999511719</ele>
        <time>2015-08-20T07:25:22.000Z</time>
      </trkpt>
      <trkpt lat="44.9263" lon="6.02266">
        <ele>2575.1999511719</ele>
        <time>2015-08-20T07:25:26.000Z</time>
      </trkpt>
      <trkpt lat="44.92632" lon="6.02267">
        <ele>2575.8000488281</ele>
        <time>2015-08-20T07:25:30.000Z</time>
      </trkpt>
      <trkpt lat="44.92636" lon="6.02269">
        <ele>2577</ele>
        <time>2015-08-20T07:25:36.000Z</time>
      </trkpt>
      <trkpt lat="44.92642" lon="6.02273">
        <ele>2578.8000488281</ele>
        <time>2015-08-20T07:25:42.000Z</time>
      </trkpt>
      <trkpt lat="44.92646" lon="6.02274">
        <ele>2580.1999511719</ele>
        <time>2015-08-20T07:25:46.000Z</time>
      </trkpt>
      <trkpt lat="44.92648" lon="6.02275">
        <ele>2581</ele>
        <time>2015-08-20T07:25:49.000Z</time>
      </trkpt>
      <trkpt lat="44.9265" lon="6.02275">
        <ele>2581.6000976562</ele>
        <time>2015-08-20T07:25:52.000Z</time>
      </trkpt>
      <trkpt lat="44.92653" lon="6.02276">
        <ele>2582.6000976562</ele>
        <time>2015-08-20T07:25:56.000Z</time>
      </trkpt>
      <trkpt lat="44.92657" lon="6.02277">
        <ele>2584</ele>
        <time>2015-08-20T07:26:02.000Z</time>
      </trkpt>
      <trkpt lat="44.92659" lon="6.02278">
        <ele>2584.8000488281</ele>
        <time>2015-08-20T07:26:07.000Z</time>
      </trkpt>
      <trkpt lat="44.92662" lon="6.02278">
        <ele>2586.1999511719</ele>
        <time>2015-08-20T07:26:11.000Z</time>
      </trkpt>
      <trkpt lat="44.92665" lon="6.02278">
        <ele>2587</ele>
        <time>2015-08-20T07:26:16.000Z</time>
      </trkpt>
      <trkpt lat="44.92669" lon="6.0228">
        <ele>2588.1999511719</ele>
        <time>2015-08-20T07:26:20.000Z</time>
      </trkpt>
      <trkpt lat="44.92671" lon="6.02281">
        <ele>2589.1999511719</ele>
        <time>2015-08-20T07:26:24.000Z</time>
      </trkpt>
      <trkpt lat="44.92673" lon="6.02282">
        <ele>2589.8000488281</ele>
        <time>2015-08-20T07:26:28.000Z</time>
      </trkpt>
      <trkpt lat="44.92676" lon="6.02281">
        <ele>2591.1999511719</ele>
        <time>2015-08-20T07:26:32.000Z</time>
      </trkpt>
      <trkpt lat="44.92679" lon="6.0228">
        <ele>2592.1999511719</ele>
        <time>2015-08-20T07:26:37.000Z</time>
      </trkpt>
      <trkpt lat="44.9268" lon="6.02279">
        <ele>2592.6000976562</ele>
        <time>2015-08-20T07:26:42.000Z</time>
      </trkpt>
      <trkpt lat="44.92682" lon="6.02277">
        <ele>2593</ele>
        <time>2015-08-20T07:26:47.000Z</time>
      </trkpt>
      <trkpt lat="44.92685" lon="6.0228">
        <ele>2593.8000488281</ele>
        <time>2015-08-20T07:26:53.000Z</time>
      </trkpt>
      <trkpt lat="44.92687" lon="6.02281">
        <ele>2594.3999023438</ele>
        <time>2015-08-20T07:26:59.000Z</time>
      </trkpt>
      <trkpt lat="44.92689" lon="6.02281">
        <ele>2595</ele>
        <time>2015-08-20T07:27:03.000Z</time>
      </trkpt>
      <trkpt lat="44.92693" lon="6.02281">
        <ele>2596</ele>
        <time>2015-08-20T07:27:09.000Z</time>
      </trkpt>
      <trkpt lat="44.92696" lon="6.02282">
        <ele>2596.8000488281</ele>
        <time>2015-08-20T07:27:13.000Z</time>
      </trkpt>
      <trkpt lat="44.92697" lon="6.02281">
        <ele>2597</ele>
        <time>2015-08-20T07:27:18.000Z</time>
      </trkpt>
      <trkpt lat="44.92701" lon="6.02281">
        <ele>2598</ele>
        <time>2015-08-20T07:27:23.000Z</time>
      </trkpt>
      <trkpt lat="44.92703" lon="6.02283">
        <ele>2598.6000976562</ele>
        <time>2015-08-20T07:27:27.000Z</time>
      </trkpt>
      <trkpt lat="44.92707" lon="6.02285">
        <ele>2599.6000976562</ele>
        <time>2015-08-20T07:27:32.000Z</time>
      </trkpt>
      <trkpt lat="44.92713" lon="6.0229">
        <ele>2601</ele>
        <time>2015-08-20T07:27:38.000Z</time>
      </trkpt>
      <trkpt lat="44.92716" lon="6.02297">
        <ele>2601.8000488281</ele>
        <time>2015-08-20T07:27:44.000Z</time>
      </trkpt>
      <trkpt lat="44.92719" lon="6.023">
        <ele>2602.6000976562</ele>
        <time>2015-08-20T07:27:48.000Z</time>
      </trkpt>
      <trkpt lat="44.92722" lon="6.02303">
        <ele>2603.1999511719</ele>
        <time>2015-08-20T07:27:52.000Z</time>
      </trkpt>
      <trkpt lat="44.92723" lon="6.02303">
        <ele>2603.3999023438</ele>
        <time>2015-08-20T07:27:53.000Z</time>
      </trkpt>
      <trkpt lat="44.92729" lon="6.02307">
        <ele>2605</ele>
        <time>2015-08-20T07:27:58.000Z</time>
      </trkpt>
      <trkpt lat="44.9273" lon="6.02311">
        <ele>2605</ele>
        <time>2015-08-20T07:28:02.000Z</time>
      </trkpt>
      <trkpt lat="44.92733" lon="6.02315">
        <ele>2604.8000488281</ele>
        <time>2015-08-20T07:28:06.000Z</time>
      </trkpt>
      <trkpt lat="44.92734" lon="6.02316">
        <ele>2604.8000488281</ele>
        <time>2015-08-20T07:28:07.000Z</time>
      </trkpt>
      <trkpt lat="44.92738" lon="6.02323">
        <ele>2604.6000976562</ele>
        <time>2015-08-20T07:28:13.000Z</time>
      </trkpt>
      <trkpt lat="44.92743" lon="6.02325">
        <ele>2605.3999023438</ele>
        <time>2015-08-20T07:28:18.000Z</time>
      </trkpt>
      <trkpt lat="44.92748" lon="6.02329">
        <ele>2606</ele>
        <time>2015-08-20T07:28:23.000Z</time>
      </trkpt>
      <trkpt lat="44.92752" lon="6.02333">
        <ele>2606.3999023438</ele>
        <time>2015-08-20T07:28:28.000Z</time>
      </trkpt>
      <trkpt lat="44.92758" lon="6.02337">
        <ele>2607.3999023438</ele>
        <time>2015-08-20T07:28:35.000Z</time>
      </trkpt>
      <trkpt lat="44.92764" lon="6.02344">
        <ele>2607.6000976562</ele>
        <time>2015-08-20T07:28:41.000Z</time>
      </trkpt>
      <trkpt lat="44.9277" lon="6.02349">
        <ele>2608.1999511719</ele>
        <time>2015-08-20T07:28:47.000Z</time>
      </trkpt>
      <trkpt lat="44.92771" lon="6.0235">
        <ele>2608.1999511719</ele>
        <time>2015-08-20T07:28:48.000Z</time>
      </trkpt>
      <trkpt lat="44.92774" lon="6.02352">
        <ele>2608.6000976562</ele>
        <time>2015-08-20T07:28:51.000Z</time>
      </trkpt>
      <trkpt lat="44.92778" lon="6.02354">
        <ele>2609.3999023438</ele>
        <time>2015-08-20T07:28:55.000Z</time>
      </trkpt>
      <trkpt lat="44.92783" lon="6.02358">
        <ele>2610</ele>
        <time>2015-08-20T07:29:00.000Z</time>
      </trkpt>
      <trkpt lat="44.92785" lon="6.0236">
        <ele>2610.1999511719</ele>
        <time>2015-08-20T07:29:02.000Z</time>
      </trkpt>
      <trkpt lat="44.92789" lon="6.02363">
        <ele>2610.6000976562</ele>
        <time>2015-08-20T07:29:05.000Z</time>
      </trkpt>
      <trkpt lat="44.92794" lon="6.02368">
        <ele>2609.3999023438</ele>
        <time>2015-08-20T07:29:12.000Z</time>
      </trkpt>
      <trkpt lat="44.92794" lon="6.02368">
        <ele>2609.3999023438</ele>
        <time>2015-08-20T07:29:13.000Z</time>
      </trkpt>
      <trkpt lat="44.92794" lon="6.02366">
        <ele>2609.8000488281</ele>
        <time>2015-08-20T07:29:19.000Z</time>
      </trkpt>
      <trkpt lat="44.92794" lon="6.02363">
        <ele>2610.3999023438</ele>
        <time>2015-08-20T07:29:26.000Z</time>
      </trkpt>
      <trkpt lat="44.92794" lon="6.02363">
        <ele>2610.1999511719</ele>
        <time>2015-08-20T07:29:39.000Z</time>
      </trkpt>
      <trkpt lat="44.92794" lon="6.02366">
        <ele>2609.6000976562</ele>
        <time>2015-08-20T07:29:46.000Z</time>
      </trkpt>
      <trkpt lat="44.92795" lon="6.02372">
        <ele>2608.1999511719</ele>
        <time>2015-08-20T07:29:54.000Z</time>
      </trkpt>
      <trkpt lat="44.92795" lon="6.02373">
        <ele>2608</ele>
        <time>2015-08-20T07:29:55.000Z</time>
      </trkpt>
      <trkpt lat="44.92795" lon="6.02381">
        <ele>2606.3999023438</ele>
        <time>2015-08-20T07:29:59.000Z</time>
      </trkpt>
      <trkpt lat="44.92795" lon="6.02383">
        <ele>2606</ele>
        <time>2015-08-20T07:30:00.000Z</time>
      </trkpt>
      <trkpt lat="44.92795" lon="6.02387">
        <ele>2605.1999511719</ele>
        <time>2015-08-20T07:30:03.000Z</time>
      </trkpt>
      <trkpt lat="44.92794" lon="6.02388">
        <ele>2605.1999511719</ele>
        <time>2015-08-20T07:30:05.000Z</time>
      </trkpt>
      <trkpt lat="44.92795" lon="6.02393">
        <ele>2604</ele>
        <time>2015-08-20T07:30:17.000Z</time>
      </trkpt>
      <trkpt lat="44.92795" lon="6.02396">
        <ele>2603.3999023438</ele>
        <time>2015-08-20T07:30:19.000Z</time>
      </trkpt>
      <trkpt lat="44.92794" lon="6.024">
        <ele>2602.6000976562</ele>
        <time>2015-08-20T07:30:22.000Z</time>
      </trkpt>
      <trkpt lat="44.92795" lon="6.02401">
        <ele>2602.1999511719</ele>
        <time>2015-08-20T07:30:23.000Z</time>
      </trkpt>
      <trkpt lat="44.92795" lon="6.02404">
        <ele>2601.1999511719</ele>
        <time>2015-08-20T07:30:25.000Z</time>
      </trkpt>
      <trkpt lat="44.92795" lon="6.02406">
        <ele>2600.6000976562</ele>
        <time>2015-08-20T07:30:27.000Z</time>
      </trkpt>
      <trkpt lat="44.92794" lon="6.02415">
        <ele>2598</ele>
        <time>2015-08-20T07:30:33.000Z</time>
      </trkpt>
      <trkpt lat="44.92794" lon="6.02422">
        <ele>2595.8000488281</ele>
        <time>2015-08-20T07:30:39.000Z</time>
      </trkpt>
      <trkpt lat="44.92795" lon="6.0243">
        <ele>2593.3999023438</ele>
        <time>2015-08-20T07:30:45.000Z</time>
      </trkpt>
      <trkpt lat="44.92795" lon="6.02436">
        <ele>2591.6000976562</ele>
        <time>2015-08-20T07:30:50.000Z</time>
      </trkpt>
      <trkpt lat="44.92796" lon="6.02443">
        <ele>2589.6000976562</ele>
        <time>2015-08-20T07:30:55.000Z</time>
      </trkpt>
      <trkpt lat="44.92797" lon="6.0245">
        <ele>2587.1999511719</ele>
        <time>2015-08-20T07:30:59.000Z</time>
      </trkpt>
      <trkpt lat="44.928" lon="6.02457">
        <ele>2585.1999511719</ele>
        <time>2015-08-20T07:31:03.000Z</time>
      </trkpt>
      <trkpt lat="44.92801" lon="6.02466">
        <ele>2582.3999023438</ele>
        <time>2015-08-20T07:31:08.000Z</time>
      </trkpt>
      <trkpt lat="44.928" lon="6.02467">
        <ele>2582</ele>
        <time>2015-08-20T07:31:10.000Z</time>
      </trkpt>
      <trkpt lat="44.92801" lon="6.02469">
        <ele>2581.3999023438</ele>
        <time>2015-08-20T07:31:11.000Z</time>
      </trkpt>
      <trkpt lat="44.92801" lon="6.02471">
        <ele>2580.8000488281</ele>
        <time>2015-08-20T07:31:12.000Z</time>
      </trkpt>
      <trkpt lat="44.92804" lon="6.02476">
        <ele>2579.1999511719</ele>
        <time>2015-08-20T07:31:17.000Z</time>
      </trkpt>
      <trkpt lat="44.92802" lon="6.02484">
        <ele>2578.1999511719</ele>
        <time>2015-08-20T07:31:22.000Z</time>
      </trkpt>
      <trkpt lat="44.928" lon="6.02491">
        <ele>2575.8000488281</ele>
        <time>2015-08-20T07:31:27.000Z</time>
      </trkpt>
      <trkpt lat="44.928" lon="6.02493">
        <ele>2575.6000976562</ele>
        <time>2015-08-20T07:31:28.000Z</time>
      </trkpt>
      <trkpt lat="44.92805" lon="6.02501">
        <ele>2573.3999023438</ele>
        <time>2015-08-20T07:31:33.000Z</time>
      </trkpt>
      <trkpt lat="44.92809" lon="6.02508">
        <ele>2571.1999511719</ele>
        <time>2015-08-20T07:31:38.000Z</time>
      </trkpt>
      <trkpt lat="44.92814" lon="6.02517">
        <ele>2569</ele>
        <time>2015-08-20T07:31:43.000Z</time>
      </trkpt>
      <trkpt lat="44.92814" lon="6.02519">
        <ele>2568.1999511719</ele>
        <time>2015-08-20T07:31:44.000Z</time>
      </trkpt>
      <trkpt lat="44.92815" lon="6.02522">
        <ele>2567.3999023438</ele>
        <time>2015-08-20T07:31:46.000Z</time>
      </trkpt>
      <trkpt lat="44.92816" lon="6.02523">
        <ele>2567</ele>
        <time>2015-08-20T07:31:47.000Z</time>
      </trkpt>
      <trkpt lat="44.92817" lon="6.02528">
        <ele>2565.3999023438</ele>
        <time>2015-08-20T07:31:50.000Z</time>
      </trkpt>
      <trkpt lat="44.92817" lon="6.02529">
        <ele>2565</ele>
        <time>2015-08-20T07:31:51.000Z</time>
      </trkpt>
      <trkpt lat="44.92817" lon="6.02531">
        <ele>2564.3999023438</ele>
        <time>2015-08-20T07:31:52.000Z</time>
      </trkpt>
      <trkpt lat="44.92816" lon="6.02532">
        <ele>2564</ele>
        <time>2015-08-20T07:31:58.000Z</time>
      </trkpt>
      <trkpt lat="44.92819" lon="6.02536">
        <ele>2562.8000488281</ele>
        <time>2015-08-20T07:32:04.000Z</time>
      </trkpt>
      <trkpt lat="44.9282" lon="6.02541">
        <ele>2561.1999511719</ele>
        <time>2015-08-20T07:32:08.000Z</time>
      </trkpt>
      <trkpt lat="44.9282" lon="6.02543">
        <ele>2560.6000976562</ele>
        <time>2015-08-20T07:32:10.000Z</time>
      </trkpt>
      <trkpt lat="44.92823" lon="6.02551">
        <ele>2558.3999023438</ele>
        <time>2015-08-20T07:32:16.000Z</time>
      </trkpt>
      <trkpt lat="44.92821" lon="6.02556">
        <ele>2556</ele>
        <time>2015-08-20T07:32:21.000Z</time>
      </trkpt>
      <trkpt lat="44.92822" lon="6.02563">
        <ele>2554.1999511719</ele>
        <time>2015-08-20T07:32:26.000Z</time>
      </trkpt>
      <trkpt lat="44.92822" lon="6.02564">
        <ele>2553.8000488281</ele>
        <time>2015-08-20T07:32:27.000Z</time>
      </trkpt>
      <trkpt lat="44.92822" lon="6.02565">
        <ele>2553.6000976562</ele>
        <time>2015-08-20T07:32:28.000Z</time>
      </trkpt>
      <trkpt lat="44.92822" lon="6.02568">
        <ele>2552.8000488281</ele>
        <time>2015-08-20T07:32:31.000Z</time>
      </trkpt>
      <trkpt lat="44.92824" lon="6.02574">
        <ele>2551.6000976562</ele>
        <time>2015-08-20T07:32:35.000Z</time>
      </trkpt>
      <trkpt lat="44.92827" lon="6.02577">
        <ele>2551.1999511719</ele>
        <time>2015-08-20T07:32:37.000Z</time>
      </trkpt>
      <trkpt lat="44.92831" lon="6.02582">
        <ele>2550.6000976562</ele>
        <time>2015-08-20T07:32:41.000Z</time>
      </trkpt>
      <trkpt lat="44.92831" lon="6.0259">
        <ele>2548.6000976562</ele>
        <time>2015-08-20T07:32:47.000Z</time>
      </trkpt>
      <trkpt lat="44.92835" lon="6.02594">
        <ele>2548.1999511719</ele>
        <time>2015-08-20T07:32:52.000Z</time>
      </trkpt>
      <trkpt lat="44.92836" lon="6.02596">
        <ele>2547.6000976562</ele>
        <time>2015-08-20T07:32:54.000Z</time>
      </trkpt>
      <trkpt lat="44.92838" lon="6.026">
        <ele>2547</ele>
        <time>2015-08-20T07:32:57.000Z</time>
      </trkpt>
      <trkpt lat="44.92839" lon="6.02602">
        <ele>2546.8000488281</ele>
        <time>2015-08-20T07:32:58.000Z</time>
      </trkpt>
      <trkpt lat="44.92843" lon="6.02611">
        <ele>2545</ele>
        <time>2015-08-20T07:33:04.000Z</time>
      </trkpt>
      <trkpt lat="44.92843" lon="6.02611">
        <ele>2545</ele>
        <time>2015-08-20T07:33:05.000Z</time>
      </trkpt>
      <trkpt lat="44.92846" lon="6.02614">
        <ele>2544.8000488281</ele>
        <time>2015-08-20T07:33:08.000Z</time>
      </trkpt>
      <trkpt lat="44.92854" lon="6.02622">
        <ele>2543.8000488281</ele>
        <time>2015-08-20T07:33:15.000Z</time>
      </trkpt>
      <trkpt lat="44.92854" lon="6.02624">
        <ele>2543.6000976562</ele>
        <time>2015-08-20T07:33:16.000Z</time>
      </trkpt>
      <trkpt lat="44.92857" lon="6.02629">
        <ele>2542.1999511719</ele>
        <time>2015-08-20T07:33:20.000Z</time>
      </trkpt>
      <trkpt lat="44.92862" lon="6.02636">
        <ele>2541.3999023438</ele>
        <time>2015-08-20T07:33:25.000Z</time>
      </trkpt>
      <trkpt lat="44.92866" lon="6.02646">
        <ele>2539.1999511719</ele>
        <time>2015-08-20T07:33:30.000Z</time>
      </trkpt>
      <trkpt lat="44.92867" lon="6.02648">
        <ele>2538.3999023438</ele>
        <time>2015-08-20T07:33:31.000Z</time>
      </trkpt>
      <trkpt lat="44.92869" lon="6.02655">
        <ele>2536.3999023438</ele>
        <time>2015-08-20T07:33:36.000Z</time>
      </trkpt>
      <trkpt lat="44.92869" lon="6.02658">
        <ele>2535.1999511719</ele>
        <time>2015-08-20T07:33:38.000Z</time>
      </trkpt>
      <trkpt lat="44.92866" lon="6.02661">
        <ele>2533.6000976562</ele>
        <time>2015-08-20T07:33:41.000Z</time>
      </trkpt>
      <trkpt lat="44.92868" lon="6.02667">
        <ele>2532</ele>
        <time>2015-08-20T07:33:45.000Z</time>
      </trkpt>
      <trkpt lat="44.92871" lon="6.02675">
        <ele>2530</ele>
        <time>2015-08-20T07:33:50.000Z</time>
      </trkpt>
      <trkpt lat="44.92874" lon="6.02679">
        <ele>2529.1999511719</ele>
        <time>2015-08-20T07:33:53.000Z</time>
      </trkpt>
      <trkpt lat="44.92876" lon="6.02684">
        <ele>2527.3999023438</ele>
        <time>2015-08-20T07:33:56.000Z</time>
      </trkpt>
      <trkpt lat="44.92881" lon="6.0269">
        <ele>2524.6000976562</ele>
        <time>2015-08-20T07:34:00.000Z</time>
      </trkpt>
      <trkpt lat="44.92883" lon="6.02693">
        <ele>2523.3999023438</ele>
        <time>2015-08-20T07:34:02.000Z</time>
      </trkpt>
      <trkpt lat="44.92886" lon="6.02696">
        <ele>2522.1999511719</ele>
        <time>2015-08-20T07:34:04.000Z</time>
      </trkpt>
      <trkpt lat="44.9289" lon="6.02702">
        <ele>2520</ele>
        <time>2015-08-20T07:34:08.000Z</time>
      </trkpt>
      <trkpt lat="44.92892" lon="6.02708">
        <ele>2517.6000976562</ele>
        <time>2015-08-20T07:34:12.000Z</time>
      </trkpt>
      <trkpt lat="44.92892" lon="6.0271">
        <ele>2517</ele>
        <time>2015-08-20T07:34:13.000Z</time>
      </trkpt>
      <trkpt lat="44.92891" lon="6.02711">
        <ele>2516.6000976562</ele>
        <time>2015-08-20T07:34:14.000Z</time>
      </trkpt>
      <trkpt lat="44.92891" lon="6.02718">
        <ele>2514.1999511719</ele>
        <time>2015-08-20T07:34:18.000Z</time>
      </trkpt>
      <trkpt lat="44.92891" lon="6.02719">
        <ele>2513.6000976562</ele>
        <time>2015-08-20T07:34:19.000Z</time>
      </trkpt>
      <trkpt lat="44.92897" lon="6.0273">
        <ele>2510.3999023438</ele>
        <time>2015-08-20T07:34:27.000Z</time>
      </trkpt>
      <trkpt lat="44.92899" lon="6.02733">
        <ele>2509.8000488281</ele>
        <time>2015-08-20T07:34:29.000Z</time>
      </trkpt>
      <trkpt lat="44.92902" lon="6.02739">
        <ele>2508.8000488281</ele>
        <time>2015-08-20T07:34:32.000Z</time>
      </trkpt>
      <trkpt lat="44.92907" lon="6.02749">
        <ele>2506.8000488281</ele>
        <time>2015-08-20T07:34:37.000Z</time>
      </trkpt>
      <trkpt lat="44.92907" lon="6.02751">
        <ele>2506.6000976562</ele>
        <time>2015-08-20T07:34:38.000Z</time>
      </trkpt>
      <trkpt lat="44.92911" lon="6.02755">
        <ele>2505.6000976562</ele>
        <time>2015-08-20T07:34:42.000Z</time>
      </trkpt>
      <trkpt lat="44.92911" lon="6.02756">
        <ele>2505.3999023438</ele>
        <time>2015-08-20T07:34:43.000Z</time>
      </trkpt>
      <trkpt lat="44.92912" lon="6.02762">
        <ele>2504.3999023438</ele>
        <time>2015-08-20T07:34:47.000Z</time>
      </trkpt>
      <trkpt lat="44.92919" lon="6.02772">
        <ele>2502</ele>
        <time>2015-08-20T07:34:53.000Z</time>
      </trkpt>
      <trkpt lat="44.92919" lon="6.02773">
        <ele>2501.6000976562</ele>
        <time>2015-08-20T07:34:54.000Z</time>
      </trkpt>
      <trkpt lat="44.9292" lon="6.02776">
        <ele>2500.3999023438</ele>
        <time>2015-08-20T07:34:57.000Z</time>
      </trkpt>
      <trkpt lat="44.92923" lon="6.02786">
        <ele>2496.8000488281</ele>
        <time>2015-08-20T07:35:03.000Z</time>
      </trkpt>
      <trkpt lat="44.92928" lon="6.02793">
        <ele>2494.6000976562</ele>
        <time>2015-08-20T07:35:07.000Z</time>
      </trkpt>
      <trkpt lat="44.92931" lon="6.02801">
        <ele>2491.8000488281</ele>
        <time>2015-08-20T07:35:12.000Z</time>
      </trkpt>
      <trkpt lat="44.92934" lon="6.02808">
        <ele>2489</ele>
        <time>2015-08-20T07:35:17.000Z</time>
      </trkpt>
      <trkpt lat="44.92938" lon="6.02816">
        <ele>2487.6000976562</ele>
        <time>2015-08-20T07:35:22.000Z</time>
      </trkpt>
      <trkpt lat="44.9294" lon="6.02821">
        <ele>2486.1999511719</ele>
        <time>2015-08-20T07:35:26.000Z</time>
      </trkpt>
      <trkpt lat="44.92942" lon="6.02826">
        <ele>2485</ele>
        <time>2015-08-20T07:35:29.000Z</time>
      </trkpt>
      <trkpt lat="44.92948" lon="6.02838">
        <ele>2482.8000488281</ele>
        <time>2015-08-20T07:35:36.000Z</time>
      </trkpt>
      <trkpt lat="44.9295" lon="6.02841">
        <ele>2482.1999511719</ele>
        <time>2015-08-20T07:35:38.000Z</time>
      </trkpt>
      <trkpt lat="44.92954" lon="6.02847">
        <ele>2481.3999023438</ele>
        <time>2015-08-20T07:35:41.000Z</time>
      </trkpt>
      <trkpt lat="44.92959" lon="6.02853">
        <ele>2480.1999511719</ele>
        <time>2015-08-20T07:35:45.000Z</time>
      </trkpt>
      <trkpt lat="44.92964" lon="6.02863">
        <ele>2476.6000976562</ele>
        <time>2015-08-20T07:35:50.000Z</time>
      </trkpt>
      <trkpt lat="44.92968" lon="6.02872">
        <ele>2473.1999511719</ele>
        <time>2015-08-20T07:35:55.000Z</time>
      </trkpt>
      <trkpt lat="44.92973" lon="6.02881">
        <ele>2469.8000488281</ele>
        <time>2015-08-20T07:36:01.000Z</time>
      </trkpt>
      <trkpt lat="44.92977" lon="6.02889">
        <ele>2466.8000488281</ele>
        <time>2015-08-20T07:36:07.000Z</time>
      </trkpt>
      <trkpt lat="44.92983" lon="6.02899">
        <ele>2464.8000488281</ele>
        <time>2015-08-20T07:36:14.000Z</time>
      </trkpt>
      <trkpt lat="44.9299" lon="6.02911">
        <ele>2463</ele>
        <time>2015-08-20T07:36:21.000Z</time>
      </trkpt>
      <trkpt lat="44.92997" lon="6.02924">
        <ele>2461.1999511719</ele>
        <time>2015-08-20T07:36:28.000Z</time>
      </trkpt>
      <trkpt lat="44.92996" lon="6.02933">
        <ele>2460</ele>
        <time>2015-08-20T07:36:33.000Z</time>
      </trkpt>
      <trkpt lat="44.92996" lon="6.02937">
        <ele>2458.8000488281</ele>
        <time>2015-08-20T07:36:35.000Z</time>
      </trkpt>
      <trkpt lat="44.92997" lon="6.02941">
        <ele>2457.1999511719</ele>
        <time>2015-08-20T07:36:37.000Z</time>
      </trkpt>
      <trkpt lat="44.92997" lon="6.02945">
        <ele>2456.1999511719</ele>
        <time>2015-08-20T07:36:39.000Z</time>
      </trkpt>
      <trkpt lat="44.93001" lon="6.02954">
        <ele>2453.6000976562</ele>
        <time>2015-08-20T07:36:44.000Z</time>
      </trkpt>
      <trkpt lat="44.93003" lon="6.0296">
        <ele>2451.8000488281</ele>
        <time>2015-08-20T07:36:48.000Z</time>
      </trkpt>
      <trkpt lat="44.93004" lon="6.02962">
        <ele>2451.3999023438</ele>
        <time>2015-08-20T07:36:49.000Z</time>
      </trkpt>
      <trkpt lat="44.93008" lon="6.0297">
        <ele>2449.1999511719</ele>
        <time>2015-08-20T07:36:53.000Z</time>
      </trkpt>
      <trkpt lat="44.93014" lon="6.0298">
        <ele>2447.1999511719</ele>
        <time>2015-08-20T07:36:58.000Z</time>
      </trkpt>
      <trkpt lat="44.93021" lon="6.02993">
        <ele>2445.1999511719</ele>
        <time>2015-08-20T07:37:04.000Z</time>
      </trkpt>
      <trkpt lat="44.93032" lon="6.03007">
        <ele>2443.6000976562</ele>
        <time>2015-08-20T07:37:11.000Z</time>
      </trkpt>
      <trkpt lat="44.93037" lon="6.03017">
        <ele>2442</ele>
        <time>2015-08-20T07:37:16.000Z</time>
      </trkpt>
      <trkpt lat="44.93044" lon="6.03029">
        <ele>2439.1999511719</ele>
        <time>2015-08-20T07:37:22.000Z</time>
      </trkpt>
      <trkpt lat="44.93049" lon="6.03043">
        <ele>2435.3999023438</ele>
        <time>2015-08-20T07:37:28.000Z</time>
      </trkpt>
      <trkpt lat="44.93056" lon="6.03058">
        <ele>2431</ele>
        <time>2015-08-20T07:37:34.000Z</time>
      </trkpt>
      <trkpt lat="44.93061" lon="6.03076">
        <ele>2431.6000976562</ele>
        <time>2015-08-20T07:37:40.000Z</time>
      </trkpt>
      <trkpt lat="44.93064" lon="6.03088">
        <ele>2429.6000976562</ele>
        <time>2015-08-20T07:37:45.000Z</time>
      </trkpt>
      <trkpt lat="44.93067" lon="6.03096">
        <ele>2427.6000976562</ele>
        <time>2015-08-20T07:37:48.000Z</time>
      </trkpt>
      <trkpt lat="44.93068" lon="6.03098">
        <ele>2427</ele>
        <time>2015-08-20T07:37:49.000Z</time>
      </trkpt>
      <trkpt lat="44.93072" lon="6.03111">
        <ele>2423.6000976562</ele>
        <time>2015-08-20T07:37:54.000Z</time>
      </trkpt>
      <trkpt lat="44.93077" lon="6.03126">
        <ele>2419.6000976562</ele>
        <time>2015-08-20T07:38:00.000Z</time>
      </trkpt>
      <trkpt lat="44.93081" lon="6.03134">
        <ele>2417.8000488281</ele>
        <time>2015-08-20T07:38:04.000Z</time>
      </trkpt>
      <trkpt lat="44.93081" lon="6.03136">
        <ele>2417.1999511719</ele>
        <time>2015-08-20T07:38:05.000Z</time>
      </trkpt>
      <trkpt lat="44.93083" lon="6.03138">
        <ele>2417.1999511719</ele>
        <time>2015-08-20T07:38:06.000Z</time>
      </trkpt>
      <trkpt lat="44.93088" lon="6.03147">
        <ele>2416.8000488281</ele>
        <time>2015-08-20T07:38:10.000Z</time>
      </trkpt>
      <trkpt lat="44.93091" lon="6.03155">
        <ele>2417</ele>
        <time>2015-08-20T07:38:14.000Z</time>
      </trkpt>
      <trkpt lat="44.93093" lon="6.03159">
        <ele>2417.3999023438</ele>
        <time>2015-08-20T07:38:16.000Z</time>
      </trkpt>
      <trkpt lat="44.93098" lon="6.03167">
        <ele>2418.1999511719</ele>
        <time>2015-08-20T07:38:21.000Z</time>
      </trkpt>
      <trkpt lat="44.93098" lon="6.03167">
        <ele>2418.3999023438</ele>
        <time>2015-08-20T07:38:27.000Z</time>
      </trkpt>
      <trkpt lat="44.93098" lon="6.03165">
        <ele>2418.3999023438</ele>
        <time>2015-08-20T07:38:38.000Z</time>
      </trkpt>
      <trkpt lat="44.93098" lon="6.03165">
        <ele>2418.3999023438</ele>
        <time>2015-08-20T07:38:49.000Z</time>
      </trkpt>
      <trkpt lat="44.93099" lon="6.03162">
        <ele>2418.8000488281</ele>
        <time>2015-08-20T07:41:08.000Z</time>
      </trkpt>
      <trkpt lat="44.931" lon="6.03164">
        <ele>2419.1999511719</ele>
        <time>2015-08-20T07:41:19.000Z</time>
      </trkpt>
      <trkpt lat="44.931" lon="6.03167">
        <ele>2418.8000488281</ele>
        <time>2015-08-20T07:41:31.000Z</time>
      </trkpt>
      <trkpt lat="44.931" lon="6.03168">
        <ele>2418.6000976562</ele>
        <time>2015-08-20T07:41:36.000Z</time>
      </trkpt>
      <trkpt lat="44.931" lon="6.0317">
        <ele>2418.6000976562</ele>
        <time>2015-08-20T07:41:46.000Z</time>
      </trkpt>
      <trkpt lat="44.93102" lon="6.03173">
        <ele>2419</ele>
        <time>2015-08-20T07:42:08.000Z</time>
      </trkpt>
      <trkpt lat="44.93106" lon="6.03178">
        <ele>2419.6000976562</ele>
        <time>2015-08-20T07:42:10.000Z</time>
      </trkpt>
      <trkpt lat="44.93115" lon="6.03195">
        <ele>2421</ele>
        <time>2015-08-20T07:42:16.000Z</time>
      </trkpt>
      <trkpt lat="44.93124" lon="6.03211">
        <ele>2422.1999511719</ele>
        <time>2015-08-20T07:42:22.000Z</time>
      </trkpt>
      <trkpt lat="44.93129" lon="6.03226">
        <ele>2421</ele>
        <time>2015-08-20T07:42:28.000Z</time>
      </trkpt>
      <trkpt lat="44.9313" lon="6.03228">
        <ele>2421</ele>
        <time>2015-08-20T07:42:29.000Z</time>
      </trkpt>
      <trkpt lat="44.93135" lon="6.03237">
        <ele>2421.6000976562</ele>
        <time>2015-08-20T07:42:32.000Z</time>
      </trkpt>
      <trkpt lat="44.93138" lon="6.03248">
        <ele>2420.3999023438</ele>
        <time>2015-08-20T07:42:36.000Z</time>
      </trkpt>
      <trkpt lat="44.93139" lon="6.03256">
        <ele>2419.1999511719</ele>
        <time>2015-08-20T07:42:39.000Z</time>
      </trkpt>
      <trkpt lat="44.9314" lon="6.03258">
        <ele>2419</ele>
        <time>2015-08-20T07:42:40.000Z</time>
      </trkpt>
      <trkpt lat="44.93142" lon="6.03267">
        <ele>2418</ele>
        <time>2015-08-20T07:42:45.000Z</time>
      </trkpt>
      <trkpt lat="44.9315" lon="6.0328">
        <ele>2417.3999023438</ele>
        <time>2015-08-20T07:42:51.000Z</time>
      </trkpt>
      <trkpt lat="44.93156" lon="6.03296">
        <ele>2416</ele>
        <time>2015-08-20T07:42:57.000Z</time>
      </trkpt>
      <trkpt lat="44.93164" lon="6.03314">
        <ele>2415.8000488281</ele>
        <time>2015-08-20T07:43:04.000Z</time>
      </trkpt>
      <trkpt lat="44.93169" lon="6.03323">
        <ele>2417.1999511719</ele>
        <time>2015-08-20T07:43:10.000Z</time>
      </trkpt>
      <trkpt lat="44.93174" lon="6.03337">
        <ele>2418.8000488281</ele>
        <time>2015-08-20T07:43:19.000Z</time>
      </trkpt>
      <trkpt lat="44.93175" lon="6.0334">
        <ele>2419.1999511719</ele>
        <time>2015-08-20T07:43:21.000Z</time>
      </trkpt>
      <trkpt lat="44.93178" lon="6.03345">
        <ele>2419.8000488281</ele>
        <time>2015-08-20T07:43:24.000Z</time>
      </trkpt>
      <trkpt lat="44.93182" lon="6.03359">
        <ele>2421</ele>
        <time>2015-08-20T07:43:32.000Z</time>
      </trkpt>
      <trkpt lat="44.93185" lon="6.03374">
        <ele>2421.6000976562</ele>
        <time>2015-08-20T07:43:41.000Z</time>
      </trkpt>
      <trkpt lat="44.93189" lon="6.03387">
        <ele>2421</ele>
        <time>2015-08-20T07:43:49.000Z</time>
      </trkpt>
      <trkpt lat="44.93193" lon="6.03399">
        <ele>2421.6000976562</ele>
        <time>2015-08-20T07:43:57.000Z</time>
      </trkpt>
      <trkpt lat="44.93197" lon="6.03413">
        <ele>2423.1999511719</ele>
        <time>2015-08-20T07:44:05.000Z</time>
      </trkpt>
      <trkpt lat="44.93199" lon="6.03428">
        <ele>2424</ele>
        <time>2015-08-20T07:44:13.000Z</time>
      </trkpt>
      <trkpt lat="44.93198" lon="6.03441">
        <ele>2423.3999023438</ele>
        <time>2015-08-20T07:44:19.000Z</time>
      </trkpt>
      <trkpt lat="44.93197" lon="6.03442">
        <ele>2423</ele>
        <time>2015-08-20T07:44:20.000Z</time>
      </trkpt>
      <trkpt lat="44.93194" lon="6.03453">
        <ele>2421.3999023438</ele>
        <time>2015-08-20T07:44:26.000Z</time>
      </trkpt>
      <trkpt lat="44.9319" lon="6.03463">
        <ele>2418.8000488281</ele>
        <time>2015-08-20T07:44:34.000Z</time>
      </trkpt>
      <trkpt lat="44.93189" lon="6.03474">
        <ele>2416.6000976562</ele>
        <time>2015-08-20T07:44:41.000Z</time>
      </trkpt>
      <trkpt lat="44.93188" lon="6.03486">
        <ele>2413.6000976562</ele>
        <time>2015-08-20T07:44:48.000Z</time>
      </trkpt>
      <trkpt lat="44.93188" lon="6.03498">
        <ele>2411</ele>
        <time>2015-08-20T07:44:56.000Z</time>
      </trkpt>
      <trkpt lat="44.9319" lon="6.03509">
        <ele>2409.3999023438</ele>
        <time>2015-08-20T07:45:03.000Z</time>
      </trkpt>
      <trkpt lat="44.93192" lon="6.03518">
        <ele>2408.8000488281</ele>
        <time>2015-08-20T07:45:09.000Z</time>
      </trkpt>
      <trkpt lat="44.93193" lon="6.03519">
        <ele>2409.1999511719</ele>
        <time>2015-08-20T07:45:10.000Z</time>
      </trkpt>
      <trkpt lat="44.93194" lon="6.03524">
        <ele>2409</ele>
        <time>2015-08-20T07:45:14.000Z</time>
      </trkpt>
      <trkpt lat="44.93195" lon="6.03525">
        <ele>2409.1999511719</ele>
        <time>2015-08-20T07:45:15.000Z</time>
      </trkpt>
      <trkpt lat="44.93199" lon="6.03531">
        <ele>2410.1999511719</ele>
        <time>2015-08-20T07:45:20.000Z</time>
      </trkpt>
      <trkpt lat="44.93204" lon="6.03538">
        <ele>2411.8000488281</ele>
        <time>2015-08-20T07:45:27.000Z</time>
      </trkpt>
      <trkpt lat="44.93206" lon="6.03539">
        <ele>2412.6000976562</ele>
        <time>2015-08-20T07:45:31.000Z</time>
      </trkpt>
      <trkpt lat="44.93206" lon="6.0354">
        <ele>2412.1999511719</ele>
        <time>2015-08-20T07:45:34.000Z</time>
      </trkpt>
      <trkpt lat="44.93207" lon="6.0354">
        <ele>2413.1999511719</ele>
        <time>2015-08-20T07:45:43.000Z</time>
      </trkpt>
      <trkpt lat="44.9321" lon="6.03539">
        <ele>2413.8000488281</ele>
        <time>2015-08-20T07:46:19.000Z</time>
      </trkpt>
      <trkpt lat="44.93215" lon="6.03542">
        <ele>2414.3999023438</ele>
        <time>2015-08-20T07:46:24.000Z</time>
      </trkpt>
      <trkpt lat="44.9322" lon="6.03546">
        <ele>2415</ele>
        <time>2015-08-20T07:46:29.000Z</time>
      </trkpt>
      <trkpt lat="44.93227" lon="6.03551">
        <ele>2415.3999023438</ele>
        <time>2015-08-20T07:46:35.000Z</time>
      </trkpt>
      <trkpt lat="44.93233" lon="6.03557">
        <ele>2415.3999023438</ele>
        <time>2015-08-20T07:46:41.000Z</time>
      </trkpt>
      <trkpt lat="44.93238" lon="6.03563">
        <ele>2415.6000976562</ele>
        <time>2015-08-20T07:46:46.000Z</time>
      </trkpt>
      <trkpt lat="44.93242" lon="6.03573">
        <ele>2414.6000976562</ele>
        <time>2015-08-20T07:46:53.000Z</time>
      </trkpt>
      <trkpt lat="44.93243" lon="6.03577">
        <ele>2414.1999511719</ele>
        <time>2015-08-20T07:46:56.000Z</time>
      </trkpt>
      <trkpt lat="44.93246" lon="6.0358">
        <ele>2414.3999023438</ele>
        <time>2015-08-20T07:46:59.000Z</time>
      </trkpt>
      <trkpt lat="44.93248" lon="6.03584">
        <ele>2414</ele>
        <time>2015-08-20T07:47:03.000Z</time>
      </trkpt>
      <trkpt lat="44.93251" lon="6.03584">
        <ele>2414.6000976562</ele>
        <time>2015-08-20T07:47:05.000Z</time>
      </trkpt>
      <trkpt lat="44.93255" lon="6.03586">
        <ele>2415.1999511719</ele>
        <time>2015-08-20T07:47:09.000Z</time>
      </trkpt>
      <trkpt lat="44.93256" lon="6.03586">
        <ele>2415.3999023438</ele>
        <time>2015-08-20T07:47:10.000Z</time>
      </trkpt>
      <trkpt lat="44.93261" lon="6.03587">
        <ele>2416.3999023438</ele>
        <time>2015-08-20T07:47:15.000Z</time>
      </trkpt>
      <trkpt lat="44.93264" lon="6.03588">
        <ele>2417</ele>
        <time>2015-08-20T07:47:20.000Z</time>
      </trkpt>
      <trkpt lat="44.93266" lon="6.03586">
        <ele>2417.8000488281</ele>
        <time>2015-08-20T07:47:28.000Z</time>
      </trkpt>
      <trkpt lat="44.93269" lon="6.03588">
        <ele>2418.3999023438</ele>
        <time>2015-08-20T07:47:59.000Z</time>
      </trkpt>
      <trkpt lat="44.93273" lon="6.03587">
        <ele>2419.3999023438</ele>
        <time>2015-08-20T07:48:04.000Z</time>
      </trkpt>
      <trkpt lat="44.93277" lon="6.03589">
        <ele>2420</ele>
        <time>2015-08-20T07:48:09.000Z</time>
      </trkpt>
      <trkpt lat="44.93281" lon="6.03591">
        <ele>2420.3999023438</ele>
        <time>2015-08-20T07:48:14.000Z</time>
      </trkpt>
      <trkpt lat="44.93282" lon="6.03592">
        <ele>2420.3999023438</ele>
        <time>2015-08-20T07:48:15.000Z</time>
      </trkpt>
      <trkpt lat="44.93286" lon="6.03594">
        <ele>2421.1999511719</ele>
        <time>2015-08-20T07:48:20.000Z</time>
      </trkpt>
      <trkpt lat="44.9329" lon="6.03595">
        <ele>2422</ele>
        <time>2015-08-20T07:48:24.000Z</time>
      </trkpt>
      <trkpt lat="44.93291" lon="6.03595">
        <ele>2422.1999511719</ele>
        <time>2015-08-20T07:48:25.000Z</time>
      </trkpt>
      <trkpt lat="44.93295" lon="6.03597">
        <ele>2423</ele>
        <time>2015-08-20T07:48:29.000Z</time>
      </trkpt>
      <trkpt lat="44.93297" lon="6.03599">
        <ele>2423.1999511719</ele>
        <time>2015-08-20T07:48:30.000Z</time>
      </trkpt>
      <trkpt lat="44.93303" lon="6.03601">
        <ele>2424.3999023438</ele>
        <time>2015-08-20T07:48:35.000Z</time>
      </trkpt>
      <trkpt lat="44.93306" lon="6.03603">
        <ele>2425.1999511719</ele>
        <time>2015-08-20T07:48:39.000Z</time>
      </trkpt>
      <trkpt lat="44.9331" lon="6.03601">
        <ele>2426.3999023438</ele>
        <time>2015-08-20T07:48:43.000Z</time>
      </trkpt>
      <trkpt lat="44.93311" lon="6.03602">
        <ele>2426.6000976562</ele>
        <time>2015-08-20T07:48:44.000Z</time>
      </trkpt>
      <trkpt lat="44.93312" lon="6.03599">
        <ele>2427.3999023438</ele>
        <time>2015-08-20T07:48:48.000Z</time>
      </trkpt>
      <trkpt lat="44.93311" lon="6.03594">
        <ele>2428.1999511719</ele>
        <time>2015-08-20T07:48:52.000Z</time>
      </trkpt>
      <trkpt lat="44.93313" lon="6.0359">
        <ele>2429.6000976562</ele>
        <time>2015-08-20T07:48:57.000Z</time>
      </trkpt>
      <trkpt lat="44.93316" lon="6.03588">
        <ele>2430.6000976562</ele>
        <time>2015-08-20T07:49:01.000Z</time>
      </trkpt>
      <trkpt lat="44.93318" lon="6.03588">
        <ele>2431.1999511719</ele>
        <time>2015-08-20T07:49:03.000Z</time>
      </trkpt>
      <trkpt lat="44.9332" lon="6.0359">
        <ele>2431.6000976562</ele>
        <time>2015-08-20T07:49:06.000Z</time>
      </trkpt>
      <trkpt lat="44.93324" lon="6.03596">
        <ele>2431.3999023438</ele>
        <time>2015-08-20T07:49:12.000Z</time>
      </trkpt>
      <trkpt lat="44.93326" lon="6.03598">
        <ele>2431.8000488281</ele>
        <time>2015-08-20T07:49:15.000Z</time>
      </trkpt>
      <trkpt lat="44.93328" lon="6.03599">
        <ele>2432.1999511719</ele>
        <time>2015-08-20T07:49:18.000Z</time>
      </trkpt>
      <trkpt lat="44.93331" lon="6.03601">
        <ele>2432.6000976562</ele>
        <time>2015-08-20T07:49:21.000Z</time>
      </trkpt>
      <trkpt lat="44.93333" lon="6.03602">
        <ele>2433</ele>
        <time>2015-08-20T07:49:23.000Z</time>
      </trkpt>
      <trkpt lat="44.93334" lon="6.03603">
        <ele>2433.1999511719</ele>
        <time>2015-08-20T07:49:24.000Z</time>
      </trkpt>
      <trkpt lat="44.93337" lon="6.03604">
        <ele>2433.3999023438</ele>
        <time>2015-08-20T07:49:28.000Z</time>
      </trkpt>
      <trkpt lat="44.9334" lon="6.03605">
        <ele>2433.6000976562</ele>
        <time>2015-08-20T07:49:31.000Z</time>
      </trkpt>
      <trkpt lat="44.93341" lon="6.03606">
        <ele>2433.6000976562</ele>
        <time>2015-08-20T07:49:32.000Z</time>
      </trkpt>
      <trkpt lat="44.93342" lon="6.03605">
        <ele>2433.6000976562</ele>
        <time>2015-08-20T07:49:34.000Z</time>
      </trkpt>
      <trkpt lat="44.93348" lon="6.03608">
        <ele>2434</ele>
        <time>2015-08-20T07:49:40.000Z</time>
      </trkpt>
      <trkpt lat="44.9335" lon="6.0361">
        <ele>2434.1999511719</ele>
        <time>2015-08-20T07:49:45.000Z</time>
      </trkpt>
      <trkpt lat="44.93355" lon="6.03611">
        <ele>2434.3999023438</ele>
        <time>2015-08-20T07:49:50.000Z</time>
      </trkpt>
      <trkpt lat="44.93357" lon="6.03613">
        <ele>2434.6000976562</ele>
        <time>2015-08-20T07:49:54.000Z</time>
      </trkpt>
      <trkpt lat="44.9336" lon="6.03614">
        <ele>2434.8000488281</ele>
        <time>2015-08-20T07:49:59.000Z</time>
      </trkpt>
      <trkpt lat="44.93362" lon="6.03617">
        <ele>2435</ele>
        <time>2015-08-20T07:50:17.000Z</time>
      </trkpt>
      <trkpt lat="44.93365" lon="6.0362">
        <ele>2435.3999023438</ele>
        <time>2015-08-20T07:50:20.000Z</time>
      </trkpt>
      <trkpt lat="44.93366" lon="6.0362">
        <ele>2435.3999023438</ele>
        <time>2015-08-20T07:50:21.000Z</time>
      </trkpt>
      <trkpt lat="44.93366" lon="6.03622">
        <ele>2435.6000976562</ele>
        <time>2015-08-20T07:50:22.000Z</time>
      </trkpt>
      <trkpt lat="44.93369" lon="6.03625">
        <ele>2435.8000488281</ele>
        <time>2015-08-20T07:50:25.000Z</time>
      </trkpt>
      <trkpt lat="44.93375" lon="6.03628">
        <ele>2436.3999023438</ele>
        <time>2015-08-20T07:50:32.000Z</time>
      </trkpt>
      <trkpt lat="44.93379" lon="6.03631">
        <ele>2438</ele>
        <time>2015-08-20T07:50:38.000Z</time>
      </trkpt>
      <trkpt lat="44.93381" lon="6.03632">
        <ele>2438.8000488281</ele>
        <time>2015-08-20T07:50:43.000Z</time>
      </trkpt>
      <trkpt lat="44.93383" lon="6.0363">
        <ele>2439.3999023438</ele>
        <time>2015-08-20T07:50:51.000Z</time>
      </trkpt>
      <trkpt lat="44.93387" lon="6.03632">
        <ele>2440.8000488281</ele>
        <time>2015-08-20T07:50:56.000Z</time>
      </trkpt>
      <trkpt lat="44.93389" lon="6.03634">
        <ele>2441.8000488281</ele>
        <time>2015-08-20T07:51:00.000Z</time>
      </trkpt>
      <trkpt lat="44.93392" lon="6.03637">
        <ele>2442.8000488281</ele>
        <time>2015-08-20T07:51:05.000Z</time>
      </trkpt>
      <trkpt lat="44.93394" lon="6.03639">
        <ele>2443.3999023438</ele>
        <time>2015-08-20T07:51:09.000Z</time>
      </trkpt>
      <trkpt lat="44.93396" lon="6.03638">
        <ele>2444</ele>
        <time>2015-08-20T07:51:19.000Z</time>
      </trkpt>
      <trkpt lat="44.93397" lon="6.03636">
        <ele>2444.3999023438</ele>
        <time>2015-08-20T07:51:24.000Z</time>
      </trkpt>
      <trkpt lat="44.934" lon="6.03634">
        <ele>2445.1999511719</ele>
        <time>2015-08-20T07:51:29.000Z</time>
      </trkpt>
      <trkpt lat="44.93405" lon="6.03636">
        <ele>2447</ele>
        <time>2015-08-20T07:51:37.000Z</time>
      </trkpt>
      <trkpt lat="44.93408" lon="6.03637">
        <ele>2448.1999511719</ele>
        <time>2015-08-20T07:51:43.000Z</time>
      </trkpt>
      <trkpt lat="44.93409" lon="6.03639">
        <ele>2448.6000976562</ele>
        <time>2015-08-20T07:51:51.000Z</time>
      </trkpt>
      <trkpt lat="44.93411" lon="6.0364">
        <ele>2449.3999023438</ele>
        <time>2015-08-20T07:51:55.000Z</time>
      </trkpt>
      <trkpt lat="44.93413" lon="6.03643">
        <ele>2450</ele>
        <time>2015-08-20T07:52:00.000Z</time>
      </trkpt>
      <trkpt lat="44.93414" lon="6.03645">
        <ele>2450.3999023438</ele>
        <time>2015-08-20T07:52:10.000Z</time>
      </trkpt>
      <trkpt lat="44.93414" lon="6.03646">
        <ele>2450.3999023438</ele>
        <time>2015-08-20T07:53:05.000Z</time>
      </trkpt>
      <trkpt lat="44.93415" lon="6.03648">
        <ele>2450.8000488281</ele>
        <time>2015-08-20T07:53:11.000Z</time>
      </trkpt>
      <trkpt lat="44.93416" lon="6.03648">
        <ele>2451</ele>
        <time>2015-08-20T07:53:12.000Z</time>
      </trkpt>
      <trkpt lat="44.9342" lon="6.03648">
        <ele>2452.1999511719</ele>
        <time>2015-08-20T07:53:16.000Z</time>
      </trkpt>
      <trkpt lat="44.93422" lon="6.03649">
        <ele>2452.8000488281</ele>
        <time>2015-08-20T07:53:20.000Z</time>
      </trkpt>
      <trkpt lat="44.9342" lon="6.03649">
        <ele>2452.1999511719</ele>
        <time>2015-08-20T07:55:29.000Z</time>
      </trkpt>
      <trkpt lat="44.93419" lon="6.0365">
        <ele>2451.6000976562</ele>
        <time>2015-08-20T07:55:38.000Z</time>
      </trkpt>
      <trkpt lat="44.93418" lon="6.0365">
        <ele>2451.6000976562</ele>
        <time>2015-08-20T07:55:40.000Z</time>
      </trkpt>
      <trkpt lat="44.93414" lon="6.0365">
        <ele>2450.3999023438</ele>
        <time>2015-08-20T07:55:45.000Z</time>
      </trkpt>
      <trkpt lat="44.93412" lon="6.03651">
        <ele>2449.3999023438</ele>
        <time>2015-08-20T07:55:49.000Z</time>
      </trkpt>
      <trkpt lat="44.93409" lon="6.0365">
        <ele>2448.3999023438</ele>
        <time>2015-08-20T07:55:54.000Z</time>
      </trkpt>
      <trkpt lat="44.93406" lon="6.03648">
        <ele>2447.6000976562</ele>
        <time>2015-08-20T07:55:59.000Z</time>
      </trkpt>
      <trkpt lat="44.93403" lon="6.03647">
        <ele>2446.3999023438</ele>
        <time>2015-08-20T07:56:03.000Z</time>
      </trkpt>
      <trkpt lat="44.93401" lon="6.03646">
        <ele>2446.1999511719</ele>
        <time>2015-08-20T07:56:05.000Z</time>
      </trkpt>
      <trkpt lat="44.934" lon="6.03646">
        <ele>2445.6000976562</ele>
        <time>2015-08-20T07:56:07.000Z</time>
      </trkpt>
      <trkpt lat="44.93397" lon="6.03647">
        <ele>2444.6000976562</ele>
        <time>2015-08-20T07:56:12.000Z</time>
      </trkpt>
      <trkpt lat="44.93397" lon="6.03647">
        <ele>2444.6000976562</ele>
        <time>2015-08-20T07:56:19.000Z</time>
      </trkpt>
      <trkpt lat="44.93397" lon="6.03647">
        <ele>2444.8000488281</ele>
        <time>2015-08-20T07:56:25.000Z</time>
      </trkpt>
      <trkpt lat="44.93397" lon="6.03645">
        <ele>2444.6000976562</ele>
        <time>2015-08-20T07:56:45.000Z</time>
      </trkpt>
      <trkpt lat="44.93391" lon="6.03643">
        <ele>2442.8000488281</ele>
        <time>2015-08-20T07:56:49.000Z</time>
      </trkpt>
      <trkpt lat="44.93385" lon="6.03639">
        <ele>2440.6000976562</ele>
        <time>2015-08-20T07:56:55.000Z</time>
      </trkpt>
      <trkpt lat="44.93385" lon="6.03639">
        <ele>2440.3999023438</ele>
        <time>2015-08-20T07:56:56.000Z</time>
      </trkpt>
      <trkpt lat="44.93384" lon="6.03637">
        <ele>2440</ele>
        <time>2015-08-20T07:57:00.000Z</time>
      </trkpt>
      <trkpt lat="44.93381" lon="6.03633">
        <ele>2439</ele>
        <time>2015-08-20T07:57:07.000Z</time>
      </trkpt>
      <trkpt lat="44.93375" lon="6.03627">
        <ele>2436.3999023438</ele>
        <time>2015-08-20T07:57:14.000Z</time>
      </trkpt>
      <trkpt lat="44.93375" lon="6.03626">
        <ele>2436.1999511719</ele>
        <time>2015-08-20T07:57:15.000Z</time>
      </trkpt>
      <trkpt lat="44.93371" lon="6.03621">
        <ele>2435.6000976562</ele>
        <time>2015-08-20T07:57:19.000Z</time>
      </trkpt>
      <trkpt lat="44.93366" lon="6.03618">
        <ele>2435.1999511719</ele>
        <time>2015-08-20T07:57:22.000Z</time>
      </trkpt>
      <trkpt lat="44.93361" lon="6.03616">
        <ele>2435</ele>
        <time>2015-08-20T07:57:25.000Z</time>
      </trkpt>
      <trkpt lat="44.93354" lon="6.03611">
        <ele>2434.3999023438</ele>
        <time>2015-08-20T07:57:32.000Z</time>
      </trkpt>
      <trkpt lat="44.9335" lon="6.03609">
        <ele>2434.1999511719</ele>
        <time>2015-08-20T07:57:37.000Z</time>
      </trkpt>
      <trkpt lat="44.93344" lon="6.03606">
        <ele>2433.8000488281</ele>
        <time>2015-08-20T07:57:42.000Z</time>
      </trkpt>
      <trkpt lat="44.93334" lon="6.03603">
        <ele>2433.1999511719</ele>
        <time>2015-08-20T07:57:48.000Z</time>
      </trkpt>
      <trkpt lat="44.93323" lon="6.03596">
        <ele>2431.1999511719</ele>
        <time>2015-08-20T07:57:54.000Z</time>
      </trkpt>
      <trkpt lat="44.93322" lon="6.03595">
        <ele>2431</ele>
        <time>2015-08-20T07:57:55.000Z</time>
      </trkpt>
      <trkpt lat="44.93316" lon="6.0359">
        <ele>2430.3999023438</ele>
        <time>2015-08-20T07:58:00.000Z</time>
      </trkpt>
      <trkpt lat="44.93315" lon="6.03588">
        <ele>2430.6000976562</ele>
        <time>2015-08-20T07:58:01.000Z</time>
      </trkpt>
      <trkpt lat="44.93314" lon="6.03586">
        <ele>2430.3999023438</ele>
        <time>2015-08-20T07:58:04.000Z</time>
      </trkpt>
      <trkpt lat="44.93313" lon="6.03586">
        <ele>2430.1999511719</ele>
        <time>2015-08-20T07:58:05.000Z</time>
      </trkpt>
      <trkpt lat="44.93313" lon="6.03587">
        <ele>2430.1999511719</ele>
        <time>2015-08-20T07:58:14.000Z</time>
      </trkpt>
      <trkpt lat="44.93313" lon="6.03587">
        <ele>2430.1999511719</ele>
        <time>2015-08-20T07:58:26.000Z</time>
      </trkpt>
      <trkpt lat="44.9332" lon="6.03582">
        <ele>2431.3999023438</ele>
        <time>2015-08-20T07:59:18.000Z</time>
      </trkpt>
      <trkpt lat="44.93331" lon="6.03579">
        <ele>2431.6000976562</ele>
        <time>2015-08-20T07:59:24.000Z</time>
      </trkpt>
      <trkpt lat="44.93335" lon="6.03581">
        <ele>2431.8000488281</ele>
        <time>2015-08-20T07:59:27.000Z</time>
      </trkpt>
      <trkpt lat="44.93337" lon="6.03581">
        <ele>2432</ele>
        <time>2015-08-20T07:59:29.000Z</time>
      </trkpt>
      <trkpt lat="44.93341" lon="6.03582">
        <ele>2432.1999511719</ele>
        <time>2015-08-20T07:59:31.000Z</time>
      </trkpt>
      <trkpt lat="44.93345" lon="6.03583">
        <ele>2432.3999023438</ele>
        <time>2015-08-20T07:59:33.000Z</time>
      </trkpt>
      <trkpt lat="44.93359" lon="6.03583">
        <ele>2433</ele>
        <time>2015-08-20T07:59:39.000Z</time>
      </trkpt>
      <trkpt lat="44.9337" lon="6.03583">
        <ele>2433.3999023438</ele>
        <time>2015-08-20T07:59:44.000Z</time>
      </trkpt>
      <trkpt lat="44.93387" lon="6.03586">
        <ele>2438.1999511719</ele>
        <time>2015-08-20T07:59:51.000Z</time>
      </trkpt>
      <trkpt lat="44.93402" lon="6.03587">
        <ele>2443</ele>
        <time>2015-08-20T07:59:57.000Z</time>
      </trkpt>
      <trkpt lat="44.93414" lon="6.03588">
        <ele>2442</ele>
        <time>2015-08-20T08:00:02.000Z</time>
      </trkpt>
      <trkpt lat="44.93429" lon="6.03587">
        <ele>2440</ele>
        <time>2015-08-20T08:00:09.000Z</time>
      </trkpt>
      <trkpt lat="44.93429" lon="6.03586">
        <ele>2439.1999511719</ele>
        <time>2015-08-20T08:00:10.000Z</time>
      </trkpt>
      <trkpt lat="44.93425" lon="6.03583">
        <ele>2438.1999511719</ele>
        <time>2015-08-20T08:00:12.000Z</time>
      </trkpt>
      <trkpt lat="44.93415" lon="6.03573">
        <ele>2434.3999023438</ele>
        <time>2015-08-20T08:00:17.000Z</time>
      </trkpt>
      <trkpt lat="44.93403" lon="6.03566">
        <ele>2432</ele>
        <time>2015-08-20T08:00:22.000Z</time>
      </trkpt>
      <trkpt lat="44.93401" lon="6.03564">
        <ele>2431.1999511719</ele>
        <time>2015-08-20T08:00:23.000Z</time>
      </trkpt>
      <trkpt lat="44.93393" lon="6.03556">
        <ele>2428</ele>
        <time>2015-08-20T08:00:27.000Z</time>
      </trkpt>
      <trkpt lat="44.93385" lon="6.0355">
        <ele>2425.6000976562</ele>
        <time>2015-08-20T08:00:31.000Z</time>
      </trkpt>
      <trkpt lat="44.93385" lon="6.03547">
        <ele>2424.1999511719</ele>
        <time>2015-08-20T08:00:34.000Z</time>
      </trkpt>
      <trkpt lat="44.93395" lon="6.03548">
        <ele>2423.3999023438</ele>
        <time>2015-08-20T08:00:38.000Z</time>
      </trkpt>
      <trkpt lat="44.93412" lon="6.0355">
        <ele>2422.3999023438</ele>
        <time>2015-08-20T08:00:44.000Z</time>
      </trkpt>
      <trkpt lat="44.93429" lon="6.03548">
        <ele>2419</ele>
        <time>2015-08-20T08:00:50.000Z</time>
      </trkpt>
      <trkpt lat="44.93442" lon="6.03549">
        <ele>2418.1999511719</ele>
        <time>2015-08-20T08:00:55.000Z</time>
      </trkpt>
      <trkpt lat="44.93458" lon="6.0355">
        <ele>2417.6000976562</ele>
        <time>2015-08-20T08:01:01.000Z</time>
      </trkpt>
      <trkpt lat="44.93469" lon="6.03549">
        <ele>2415.8000488281</ele>
        <time>2015-08-20T08:01:05.000Z</time>
      </trkpt>
      <trkpt lat="44.93478" lon="6.03549">
        <ele>2414.6000976562</ele>
        <time>2015-08-20T08:01:10.000Z</time>
      </trkpt>
      <trkpt lat="44.9348" lon="6.03551">
        <ele>2415.6000976562</ele>
        <time>2015-08-20T08:01:14.000Z</time>
      </trkpt>
      <trkpt lat="44.93481" lon="6.03551">
        <ele>2415.6000976562</ele>
        <time>2015-08-20T08:01:15.000Z</time>
      </trkpt>
      <trkpt lat="44.93486" lon="6.03548">
        <ele>2413</ele>
        <time>2015-08-20T08:01:18.000Z</time>
      </trkpt>
      <trkpt lat="44.93489" lon="6.03544">
        <ele>2410.8000488281</ele>
        <time>2015-08-20T08:01:20.000Z</time>
      </trkpt>
      <trkpt lat="44.93493" lon="6.03543">
        <ele>2409.6000976562</ele>
        <time>2015-08-20T08:01:22.000Z</time>
      </trkpt>
      <trkpt lat="44.93496" lon="6.03541">
        <ele>2408.3999023438</ele>
        <time>2015-08-20T08:01:24.000Z</time>
      </trkpt>
      <trkpt lat="44.93507" lon="6.03535">
        <ele>2404.3999023438</ele>
        <time>2015-08-20T08:01:29.000Z</time>
      </trkpt>
      <trkpt lat="44.93514" lon="6.03535">
        <ele>2403.6000976562</ele>
        <time>2015-08-20T08:01:33.000Z</time>
      </trkpt>
      <trkpt lat="44.93522" lon="6.0353">
        <ele>2399.8000488281</ele>
        <time>2015-08-20T08:01:37.000Z</time>
      </trkpt>
      <trkpt lat="44.93533" lon="6.03527">
        <ele>2396.6000976562</ele>
        <time>2015-08-20T08:01:42.000Z</time>
      </trkpt>
      <trkpt lat="44.93541" lon="6.03526">
        <ele>2394.8000488281</ele>
        <time>2015-08-20T08:01:46.000Z</time>
      </trkpt>
      <trkpt lat="44.93546" lon="6.03517">
        <ele>2391.3999023438</ele>
        <time>2015-08-20T08:01:49.000Z</time>
      </trkpt>
      <trkpt lat="44.93551" lon="6.03514">
        <ele>2390.3999023438</ele>
        <time>2015-08-20T08:01:51.000Z</time>
      </trkpt>
      <trkpt lat="44.93558" lon="6.03515">
        <ele>2392.3999023438</ele>
        <time>2015-08-20T08:01:54.000Z</time>
      </trkpt>
      <trkpt lat="44.93559" lon="6.03513">
        <ele>2391.8000488281</ele>
        <time>2015-08-20T08:01:55.000Z</time>
      </trkpt>
      <trkpt lat="44.93571" lon="6.03505">
        <ele>2390</ele>
        <time>2015-08-20T08:02:01.000Z</time>
      </trkpt>
      <trkpt lat="44.93583" lon="6.03499">
        <ele>2388.8000488281</ele>
        <time>2015-08-20T08:02:06.000Z</time>
      </trkpt>
      <trkpt lat="44.93585" lon="6.03501">
        <ele>2390</ele>
        <time>2015-08-20T08:02:07.000Z</time>
      </trkpt>
      <trkpt lat="44.9359" lon="6.03505">
        <ele>2393.8000488281</ele>
        <time>2015-08-20T08:02:10.000Z</time>
      </trkpt>
      <trkpt lat="44.93593" lon="6.03501">
        <ele>2391.8000488281</ele>
        <time>2015-08-20T08:02:13.000Z</time>
      </trkpt>
      <trkpt lat="44.93595" lon="6.03497">
        <ele>2389.6000976562</ele>
        <time>2015-08-20T08:02:16.000Z</time>
      </trkpt>
      <trkpt lat="44.93599" lon="6.03493">
        <ele>2388</ele>
        <time>2015-08-20T08:02:18.000Z</time>
      </trkpt>
      <trkpt lat="44.93609" lon="6.03487">
        <ele>2386.3999023438</ele>
        <time>2015-08-20T08:02:23.000Z</time>
      </trkpt>
      <trkpt lat="44.93622" lon="6.03478">
        <ele>2383</ele>
        <time>2015-08-20T08:02:29.000Z</time>
      </trkpt>
      <trkpt lat="44.93633" lon="6.03468">
        <ele>2377.8000488281</ele>
        <time>2015-08-20T08:02:35.000Z</time>
      </trkpt>
      <trkpt lat="44.93634" lon="6.03467">
        <ele>2376.8000488281</ele>
        <time>2015-08-20T08:02:39.000Z</time>
      </trkpt>
      <trkpt lat="44.93625" lon="6.03467">
        <ele>2375.6000976562</ele>
        <time>2015-08-20T08:02:44.000Z</time>
      </trkpt>
      <trkpt lat="44.93624" lon="6.03467">
        <ele>2375.6000976562</ele>
        <time>2015-08-20T08:02:45.000Z</time>
      </trkpt>
      <trkpt lat="44.93625" lon="6.03465">
        <ele>2374.3999023438</ele>
        <time>2015-08-20T08:02:48.000Z</time>
      </trkpt>
      <trkpt lat="44.93626" lon="6.03465">
        <ele>2374.3999023438</ele>
        <time>2015-08-20T08:02:49.000Z</time>
      </trkpt>
      <trkpt lat="44.93626" lon="6.03466">
        <ele>2375</ele>
        <time>2015-08-20T08:02:52.000Z</time>
      </trkpt>
      <trkpt lat="44.9363" lon="6.03464">
        <ele>2374</ele>
        <time>2015-08-20T08:03:22.000Z</time>
      </trkpt>
      <trkpt lat="44.9364" lon="6.03459">
        <ele>2371.3999023438</ele>
        <time>2015-08-20T08:03:28.000Z</time>
      </trkpt>
      <trkpt lat="44.93646" lon="6.0345">
        <ele>2365.8000488281</ele>
        <time>2015-08-20T08:03:33.000Z</time>
      </trkpt>
      <trkpt lat="44.93656" lon="6.0344">
        <ele>2360.1999511719</ele>
        <time>2015-08-20T08:03:39.000Z</time>
      </trkpt>
      <trkpt lat="44.93667" lon="6.03428">
        <ele>2352.1999511719</ele>
        <time>2015-08-20T08:03:45.000Z</time>
      </trkpt>
      <trkpt lat="44.93676" lon="6.03417">
        <ele>2344.1999511719</ele>
        <time>2015-08-20T08:03:50.000Z</time>
      </trkpt>
      <trkpt lat="44.93686" lon="6.03407">
        <ele>2337</ele>
        <time>2015-08-20T08:03:56.000Z</time>
      </trkpt>
      <trkpt lat="44.93696" lon="6.03397">
        <ele>2330.1999511719</ele>
        <time>2015-08-20T08:04:01.000Z</time>
      </trkpt>
      <trkpt lat="44.93706" lon="6.03386">
        <ele>2322.8000488281</ele>
        <time>2015-08-20T08:04:06.000Z</time>
      </trkpt>
      <trkpt lat="44.93716" lon="6.03376">
        <ele>2316.8000488281</ele>
        <time>2015-08-20T08:04:11.000Z</time>
      </trkpt>
      <trkpt lat="44.93728" lon="6.03362">
        <ele>2308.1999511719</ele>
        <time>2015-08-20T08:04:17.000Z</time>
      </trkpt>
      <trkpt lat="44.93738" lon="6.03352">
        <ele>2302.3999023438</ele>
        <time>2015-08-20T08:04:22.000Z</time>
      </trkpt>
      <trkpt lat="44.93744" lon="6.03349">
        <ele>2300</ele>
        <time>2015-08-20T08:04:28.000Z</time>
      </trkpt>
      <trkpt lat="44.93747" lon="6.03357">
        <ele>2305</ele>
        <time>2015-08-20T08:04:37.000Z</time>
      </trkpt>
      <trkpt lat="44.9375" lon="6.03371">
        <ele>2313</ele>
        <time>2015-08-20T08:04:41.000Z</time>
      </trkpt>
      <trkpt lat="44.93758" lon="6.03385">
        <ele>2321.6000976562</ele>
        <time>2015-08-20T08:04:48.000Z</time>
      </trkpt>
      <trkpt lat="44.93758" lon="6.03383">
        <ele>2320.3999023438</ele>
        <time>2015-08-20T08:04:51.000Z</time>
      </trkpt>
      <trkpt lat="44.93757" lon="6.0338">
        <ele>2318.6000976562</ele>
        <time>2015-08-20T08:04:52.000Z</time>
      </trkpt>
      <trkpt lat="44.93755" lon="6.03366">
        <ele>2309.8000488281</ele>
        <time>2015-08-20T08:04:57.000Z</time>
      </trkpt>
      <trkpt lat="44.93755" lon="6.03348">
        <ele>2302.3999023438</ele>
        <time>2015-08-20T08:05:02.000Z</time>
      </trkpt>
      <trkpt lat="44.93759" lon="6.0333">
        <ele>2298.8000488281</ele>
        <time>2015-08-20T08:05:08.000Z</time>
      </trkpt>
      <trkpt lat="44.93765" lon="6.03316">
        <ele>2297</ele>
        <time>2015-08-20T08:05:14.000Z</time>
      </trkpt>
      <trkpt lat="44.93766" lon="6.03299">
        <ele>2288.1999511719</ele>
        <time>2015-08-20T08:05:20.000Z</time>
      </trkpt>
      <trkpt lat="44.93766" lon="6.03283">
        <ele>2277.3999023438</ele>
        <time>2015-08-20T08:05:26.000Z</time>
      </trkpt>
      <trkpt lat="44.93772" lon="6.0329">
        <ele>2284</ele>
        <time>2015-08-20T08:05:29.000Z</time>
      </trkpt>
      <trkpt lat="44.93775" lon="6.03299">
        <ele>2291</ele>
        <time>2015-08-20T08:05:33.000Z</time>
      </trkpt>
      <trkpt lat="44.93776" lon="6.03297">
        <ele>2289.8000488281</ele>
        <time>2015-08-20T08:05:35.000Z</time>
      </trkpt>
      <trkpt lat="44.93776" lon="6.03293">
        <ele>2287.6000976562</ele>
        <time>2015-08-20T08:05:36.000Z</time>
      </trkpt>
      <trkpt lat="44.93775" lon="6.03272">
        <ele>2276.1999511719</ele>
        <time>2015-08-20T08:05:42.000Z</time>
      </trkpt>
      <trkpt lat="44.9377" lon="6.03253">
        <ele>2263.8000488281</ele>
        <time>2015-08-20T08:05:48.000Z</time>
      </trkpt>
      <trkpt lat="44.93771" lon="6.03249">
        <ele>2262.1999511719</ele>
        <time>2015-08-20T08:05:50.000Z</time>
      </trkpt>
      <trkpt lat="44.93774" lon="6.03252">
        <ele>2265.6000976562</ele>
        <time>2015-08-20T08:05:52.000Z</time>
      </trkpt>
      <trkpt lat="44.93778" lon="6.03256">
        <ele>2269.3999023438</ele>
        <time>2015-08-20T08:05:54.000Z</time>
      </trkpt>
      <trkpt lat="44.93786" lon="6.03264">
        <ele>2277.1999511719</ele>
        <time>2015-08-20T08:05:58.000Z</time>
      </trkpt>
      <trkpt lat="44.93795" lon="6.0327">
        <ele>2282.1999511719</ele>
        <time>2015-08-20T08:06:03.000Z</time>
      </trkpt>
      <trkpt lat="44.93809" lon="6.0328">
        <ele>2285</ele>
        <time>2015-08-20T08:06:09.000Z</time>
      </trkpt>
      <trkpt lat="44.93811" lon="6.03279">
        <ele>2284.3999023438</ele>
        <time>2015-08-20T08:06:11.000Z</time>
      </trkpt>
      <trkpt lat="44.93809" lon="6.03276">
        <ele>2282.8000488281</ele>
        <time>2015-08-20T08:06:13.000Z</time>
      </trkpt>
      <trkpt lat="44.93801" lon="6.03261">
        <ele>2276.3999023438</ele>
        <time>2015-08-20T08:06:18.000Z</time>
      </trkpt>
      <trkpt lat="44.93792" lon="6.03241">
        <ele>2267.8000488281</ele>
        <time>2015-08-20T08:06:24.000Z</time>
      </trkpt>
      <trkpt lat="44.93787" lon="6.03224">
        <ele>2257.3999023438</ele>
        <time>2015-08-20T08:06:29.000Z</time>
      </trkpt>
      <trkpt lat="44.93783" lon="6.03206">
        <ele>2244.3999023438</ele>
        <time>2015-08-20T08:06:34.000Z</time>
      </trkpt>
      <trkpt lat="44.93781" lon="6.03197">
        <ele>2237.8000488281</ele>
        <time>2015-08-20T08:06:37.000Z</time>
      </trkpt>
      <trkpt lat="44.93778" lon="6.0319">
        <ele>2232</ele>
        <time>2015-08-20T08:06:40.000Z</time>
      </trkpt>
      <trkpt lat="44.93775" lon="6.03186">
        <ele>2228.1999511719</ele>
        <time>2015-08-20T08:06:43.000Z</time>
      </trkpt>
      <trkpt lat="44.93775" lon="6.03186">
        <ele>2228.3999023438</ele>
        <time>2015-08-20T08:06:46.000Z</time>
      </trkpt>
      <trkpt lat="44.93774" lon="6.03189">
        <ele>2230.1999511719</ele>
        <time>2015-08-20T08:07:08.000Z</time>
      </trkpt>
      <trkpt lat="44.9378" lon="6.03191">
        <ele>2233.3999023438</ele>
        <time>2015-08-20T08:07:14.000Z</time>
      </trkpt>
      <trkpt lat="44.9379" lon="6.03201">
        <ele>2243.8000488281</ele>
        <time>2015-08-20T08:07:19.000Z</time>
      </trkpt>
      <trkpt lat="44.93799" lon="6.03212">
        <ele>2249.6000976562</ele>
        <time>2015-08-20T08:07:24.000Z</time>
      </trkpt>
      <trkpt lat="44.93806" lon="6.03223">
        <ele>2255.1999511719</ele>
        <time>2015-08-20T08:07:28.000Z</time>
      </trkpt>
      <trkpt lat="44.93817" lon="6.03235">
        <ele>2259.8000488281</ele>
        <time>2015-08-20T08:07:33.000Z</time>
      </trkpt>
      <trkpt lat="44.93828" lon="6.0324">
        <ele>2260.3999023438</ele>
        <time>2015-08-20T08:07:38.000Z</time>
      </trkpt>
      <trkpt lat="44.93838" lon="6.03245">
        <ele>2261.1999511719</ele>
        <time>2015-08-20T08:07:43.000Z</time>
      </trkpt>
      <trkpt lat="44.93847" lon="6.03249">
        <ele>2261.6000976562</ele>
        <time>2015-08-20T08:07:48.000Z</time>
      </trkpt>
      <trkpt lat="44.93853" lon="6.03264">
        <ele>2268.3999023438</ele>
        <time>2015-08-20T08:07:53.000Z</time>
      </trkpt>
      <trkpt lat="44.93849" lon="6.03275">
        <ele>2275</ele>
        <time>2015-08-20T08:07:58.000Z</time>
      </trkpt>
      <trkpt lat="44.93848" lon="6.03277">
        <ele>2277</ele>
        <time>2015-08-20T08:08:01.000Z</time>
      </trkpt>
      <trkpt lat="44.93847" lon="6.03278">
        <ele>2277.3999023438</ele>
        <time>2015-08-20T08:08:03.000Z</time>
      </trkpt>
      <trkpt lat="44.93851" lon="6.0328">
        <ele>2277.6000976562</ele>
        <time>2015-08-20T08:10:45.000Z</time>
      </trkpt>
      <trkpt lat="44.9385" lon="6.03278">
        <ele>2276.6000976562</ele>
        <time>2015-08-20T08:10:52.000Z</time>
      </trkpt>
      <trkpt lat="44.93848" lon="6.03279">
        <ele>2277.8000488281</ele>
        <time>2015-08-20T08:10:53.000Z</time>
      </trkpt>
      <trkpt lat="44.93846" lon="6.03282">
        <ele>2279.8000488281</ele>
        <time>2015-08-20T08:10:56.000Z</time>
      </trkpt>
      <trkpt lat="44.93848" lon="6.03286">
        <ele>2281.6000976562</ele>
        <time>2015-08-20T08:12:08.000Z</time>
      </trkpt>
      <trkpt lat="44.93851" lon="6.03288">
        <ele>2282.1999511719</ele>
        <time>2015-08-20T08:12:13.000Z</time>
      </trkpt>
      <trkpt lat="44.93854" lon="6.03288">
        <ele>2281.6000976562</ele>
        <time>2015-08-20T08:12:17.000Z</time>
      </trkpt>
      <trkpt lat="44.93859" lon="6.03287">
        <ele>2280</ele>
        <time>2015-08-20T08:12:23.000Z</time>
      </trkpt>
      <trkpt lat="44.93862" lon="6.03284">
        <ele>2278</ele>
        <time>2015-08-20T08:12:25.000Z</time>
      </trkpt>
      <trkpt lat="44.93867" lon="6.03281">
        <ele>2275</ele>
        <time>2015-08-20T08:12:30.000Z</time>
      </trkpt>
      <trkpt lat="44.93875" lon="6.03278">
        <ele>2272.1999511719</ele>
        <time>2015-08-20T08:12:37.000Z</time>
      </trkpt>
      <trkpt lat="44.93883" lon="6.0327">
        <ele>2268.3999023438</ele>
        <time>2015-08-20T08:12:44.000Z</time>
      </trkpt>
      <trkpt lat="44.9389" lon="6.03267">
        <ele>2267</ele>
        <time>2015-08-20T08:12:50.000Z</time>
      </trkpt>
      <trkpt lat="44.93897" lon="6.03264">
        <ele>2266</ele>
        <time>2015-08-20T08:12:56.000Z</time>
      </trkpt>
      <trkpt lat="44.93898" lon="6.03262">
        <ele>2265.1999511719</ele>
        <time>2015-08-20T08:12:58.000Z</time>
      </trkpt>
      <trkpt lat="44.939" lon="6.03262">
        <ele>2265.1999511719</ele>
        <time>2015-08-20T08:13:00.000Z</time>
      </trkpt>
      <trkpt lat="44.93904" lon="6.03263">
        <ele>2266.3999023438</ele>
        <time>2015-08-20T08:13:03.000Z</time>
      </trkpt>
      <trkpt lat="44.93911" lon="6.03266">
        <ele>2268.6000976562</ele>
        <time>2015-08-20T08:13:12.000Z</time>
      </trkpt>
      <trkpt lat="44.93912" lon="6.03266">
        <ele>2268.3999023438</ele>
        <time>2015-08-20T08:13:13.000Z</time>
      </trkpt>
      <trkpt lat="44.93917" lon="6.03263">
        <ele>2266.6000976562</ele>
        <time>2015-08-20T08:13:18.000Z</time>
      </trkpt>
      <trkpt lat="44.9392" lon="6.03264">
        <ele>2267.6000976562</ele>
        <time>2015-08-20T08:13:22.000Z</time>
      </trkpt>
      <trkpt lat="44.93923" lon="6.03265">
        <ele>2268.1999511719</ele>
        <time>2015-08-20T08:13:26.000Z</time>
      </trkpt>
      <trkpt lat="44.93929" lon="6.03267">
        <ele>2269.1999511719</ele>
        <time>2015-08-20T08:13:33.000Z</time>
      </trkpt>
      <trkpt lat="44.93932" lon="6.03268">
        <ele>2270</ele>
        <time>2015-08-20T08:13:37.000Z</time>
      </trkpt>
      <trkpt lat="44.93935" lon="6.03269">
        <ele>2270.8000488281</ele>
        <time>2015-08-20T08:13:40.000Z</time>
      </trkpt>
      <trkpt lat="44.93942" lon="6.03272">
        <ele>2272.8000488281</ele>
        <time>2015-08-20T08:13:49.000Z</time>
      </trkpt>
      <trkpt lat="44.93952" lon="6.03279">
        <ele>2276.8000488281</ele>
        <time>2015-08-20T08:13:59.000Z</time>
      </trkpt>
      <trkpt lat="44.93955" lon="6.03283">
        <ele>2279.6000976562</ele>
        <time>2015-08-20T08:14:03.000Z</time>
      </trkpt>
      <trkpt lat="44.93957" lon="6.03287">
        <ele>2281.8000488281</ele>
        <time>2015-08-20T08:14:06.000Z</time>
      </trkpt>
      <trkpt lat="44.9396" lon="6.03289">
        <ele>2282.1999511719</ele>
        <time>2015-08-20T08:14:09.000Z</time>
      </trkpt>
      <trkpt lat="44.93964" lon="6.03291">
        <ele>2282.8000488281</ele>
        <time>2015-08-20T08:14:13.000Z</time>
      </trkpt>
      <trkpt lat="44.93965" lon="6.03291">
        <ele>2282.6000976562</ele>
        <time>2015-08-20T08:14:14.000Z</time>
      </trkpt>
      <trkpt lat="44.93969" lon="6.03288">
        <ele>2279.6000976562</ele>
        <time>2015-08-20T08:14:18.000Z</time>
      </trkpt>
      <trkpt lat="44.93969" lon="6.03289">
        <ele>2279.8000488281</ele>
        <time>2015-08-20T08:14:19.000Z</time>
      </trkpt>
      <trkpt lat="44.93976" lon="6.03284">
        <ele>2275.1999511719</ele>
        <time>2015-08-20T08:14:26.000Z</time>
      </trkpt>
      <trkpt lat="44.93986" lon="6.03278">
        <ele>2268.6000976562</ele>
        <time>2015-08-20T08:14:34.000Z</time>
      </trkpt>
      <trkpt lat="44.93993" lon="6.03271">
        <ele>2262.1999511719</ele>
        <time>2015-08-20T08:14:40.000Z</time>
      </trkpt>
      <trkpt lat="44.94001" lon="6.0327">
        <ele>2259.3999023438</ele>
        <time>2015-08-20T08:14:47.000Z</time>
      </trkpt>
      <trkpt lat="44.94011" lon="6.03276">
        <ele>2261.1999511719</ele>
        <time>2015-08-20T08:14:55.000Z</time>
      </trkpt>
      <trkpt lat="44.94018" lon="6.03281">
        <ele>2263</ele>
        <time>2015-08-20T08:15:01.000Z</time>
      </trkpt>
      <trkpt lat="44.94025" lon="6.03284">
        <ele>2263.8000488281</ele>
        <time>2015-08-20T08:15:08.000Z</time>
      </trkpt>
      <trkpt lat="44.94026" lon="6.03285">
        <ele>2264.1999511719</ele>
        <time>2015-08-20T08:15:09.000Z</time>
      </trkpt>
      <trkpt lat="44.94029" lon="6.03289">
        <ele>2265.6000976562</ele>
        <time>2015-08-20T08:15:13.000Z</time>
      </trkpt>
      <trkpt lat="44.94036" lon="6.03299">
        <ele>2269.1999511719</ele>
        <time>2015-08-20T08:15:19.000Z</time>
      </trkpt>
      <trkpt lat="44.94043" lon="6.03308">
        <ele>2272.1999511719</ele>
        <time>2015-08-20T08:15:24.000Z</time>
      </trkpt>
      <trkpt lat="44.94047" lon="6.03314">
        <ele>2274.6000976562</ele>
        <time>2015-08-20T08:15:29.000Z</time>
      </trkpt>
      <trkpt lat="44.94048" lon="6.03315">
        <ele>2275</ele>
        <time>2015-08-20T08:15:30.000Z</time>
      </trkpt>
      <trkpt lat="44.94051" lon="6.03318">
        <ele>2275.8000488281</ele>
        <time>2015-08-20T08:15:35.000Z</time>
      </trkpt>
      <trkpt lat="44.9406" lon="6.03323">
        <ele>2276.1999511719</ele>
        <time>2015-08-20T08:15:39.000Z</time>
      </trkpt>
      <trkpt lat="44.94073" lon="6.03329">
        <ele>2276.3999023438</ele>
        <time>2015-08-20T08:15:45.000Z</time>
      </trkpt>
      <trkpt lat="44.94081" lon="6.03333">
        <ele>2277</ele>
        <time>2015-08-20T08:15:49.000Z</time>
      </trkpt>
      <trkpt lat="44.94087" lon="6.03339">
        <ele>2279</ele>
        <time>2015-08-20T08:15:54.000Z</time>
      </trkpt>
      <trkpt lat="44.94089" lon="6.03341">
        <ele>2279.6000976562</ele>
        <time>2015-08-20T08:15:56.000Z</time>
      </trkpt>
      <trkpt lat="44.94093" lon="6.03346">
        <ele>2281.3999023438</ele>
        <time>2015-08-20T08:16:00.000Z</time>
      </trkpt>
      <trkpt lat="44.94096" lon="6.03349">
        <ele>2281.8000488281</ele>
        <time>2015-08-20T08:16:02.000Z</time>
      </trkpt>
      <trkpt lat="44.941" lon="6.03348">
        <ele>2280.3999023438</ele>
        <time>2015-08-20T08:16:05.000Z</time>
      </trkpt>
      <trkpt lat="44.94102" lon="6.03347">
        <ele>2279.6000976562</ele>
        <time>2015-08-20T08:16:06.000Z</time>
      </trkpt>
      <trkpt lat="44.94103" lon="6.03348">
        <ele>2279.6000976562</ele>
        <time>2015-08-20T08:16:07.000Z</time>
      </trkpt>
      <trkpt lat="44.94105" lon="6.0335">
        <ele>2280.1999511719</ele>
        <time>2015-08-20T08:16:09.000Z</time>
      </trkpt>
      <trkpt lat="44.9411" lon="6.0335">
        <ele>2279.1999511719</ele>
        <time>2015-08-20T08:16:12.000Z</time>
      </trkpt>
      <trkpt lat="44.94113" lon="6.03351">
        <ele>2279</ele>
        <time>2015-08-20T08:16:14.000Z</time>
      </trkpt>
      <trkpt lat="44.94114" lon="6.03354">
        <ele>2280.6000976562</ele>
        <time>2015-08-20T08:16:16.000Z</time>
      </trkpt>
      <trkpt lat="44.94114" lon="6.03357">
        <ele>2282</ele>
        <time>2015-08-20T08:16:18.000Z</time>
      </trkpt>
      <trkpt lat="44.94115" lon="6.03358">
        <ele>2282.3999023438</ele>
        <time>2015-08-20T08:16:19.000Z</time>
      </trkpt>
      <trkpt lat="44.94119" lon="6.03365">
        <ele>2285.6000976562</ele>
        <time>2015-08-20T08:16:24.000Z</time>
      </trkpt>
      <trkpt lat="44.94123" lon="6.0337">
        <ele>2287.3999023438</ele>
        <time>2015-08-20T08:16:28.000Z</time>
      </trkpt>
      <trkpt lat="44.94125" lon="6.03373">
        <ele>2288.8000488281</ele>
        <time>2015-08-20T08:16:30.000Z</time>
      </trkpt>
      <trkpt lat="44.94129" lon="6.03384">
        <ele>2294.3999023438</ele>
        <time>2015-08-20T08:16:36.000Z</time>
      </trkpt>
      <trkpt lat="44.94131" lon="6.03394">
        <ele>2299.3999023438</ele>
        <time>2015-08-20T08:16:41.000Z</time>
      </trkpt>
      <trkpt lat="44.94131" lon="6.03396">
        <ele>2300.3999023438</ele>
        <time>2015-08-20T08:16:42.000Z</time>
      </trkpt>
      <trkpt lat="44.94128" lon="6.03407">
        <ele>2307.8000488281</ele>
        <time>2015-08-20T08:16:48.000Z</time>
      </trkpt>
      <trkpt lat="44.94128" lon="6.03409">
        <ele>2309.6000976562</ele>
        <time>2015-08-20T08:16:50.000Z</time>
      </trkpt>
      <trkpt lat="44.94127" lon="6.03411">
        <ele>2310.6000976562</ele>
        <time>2015-08-20T08:16:51.000Z</time>
      </trkpt>
      <trkpt lat="44.94126" lon="6.03417">
        <ele>2315.3999023438</ele>
        <time>2015-08-20T08:16:54.000Z</time>
      </trkpt>
      <trkpt lat="44.94131" lon="6.03425">
        <ele>2318.8000488281</ele>
        <time>2015-08-20T08:16:58.000Z</time>
      </trkpt>
      <trkpt lat="44.94134" lon="6.03432">
        <ele>2321.8000488281</ele>
        <time>2015-08-20T08:17:02.000Z</time>
      </trkpt>
      <trkpt lat="44.94133" lon="6.03433">
        <ele>2322.8000488281</ele>
        <time>2015-08-20T08:17:04.000Z</time>
      </trkpt>
      <trkpt lat="44.94134" lon="6.03435">
        <ele>2324</ele>
        <time>2015-08-20T08:17:08.000Z</time>
      </trkpt>
      <trkpt lat="44.94135" lon="6.03433">
        <ele>2322</ele>
        <time>2015-08-20T08:17:13.000Z</time>
      </trkpt>
      <trkpt lat="44.94144" lon="6.03422">
        <ele>2312.1999511719</ele>
        <time>2015-08-20T08:17:19.000Z</time>
      </trkpt>
      <trkpt lat="44.94156" lon="6.0341">
        <ele>2302.6000976562</ele>
        <time>2015-08-20T08:17:26.000Z</time>
      </trkpt>
      <trkpt lat="44.94162" lon="6.03407">
        <ele>2300.1999511719</ele>
        <time>2015-08-20T08:17:29.000Z</time>
      </trkpt>
      <trkpt lat="44.94166" lon="6.0341">
        <ele>2300.8000488281</ele>
        <time>2015-08-20T08:17:31.000Z</time>
      </trkpt>
      <trkpt lat="44.94174" lon="6.03414">
        <ele>2301.1999511719</ele>
        <time>2015-08-20T08:17:35.000Z</time>
      </trkpt>
      <trkpt lat="44.94178" lon="6.03418">
        <ele>2302.3999023438</ele>
        <time>2015-08-20T08:17:37.000Z</time>
      </trkpt>
      <trkpt lat="44.94187" lon="6.03426">
        <ele>2304.3999023438</ele>
        <time>2015-08-20T08:17:42.000Z</time>
      </trkpt>
      <trkpt lat="44.94201" lon="6.03426">
        <ele>2301.6000976562</ele>
        <time>2015-08-20T08:17:48.000Z</time>
      </trkpt>
      <trkpt lat="44.94205" lon="6.03427">
        <ele>2301.8000488281</ele>
        <time>2015-08-20T08:17:50.000Z</time>
      </trkpt>
      <trkpt lat="44.94206" lon="6.03432">
        <ele>2304</ele>
        <time>2015-08-20T08:17:52.000Z</time>
      </trkpt>
      <trkpt lat="44.94206" lon="6.03438">
        <ele>2306.8000488281</ele>
        <time>2015-08-20T08:17:55.000Z</time>
      </trkpt>
      <trkpt lat="44.94206" lon="6.0344">
        <ele>2307.6000976562</ele>
        <time>2015-08-20T08:17:56.000Z</time>
      </trkpt>
      <trkpt lat="44.94207" lon="6.03441">
        <ele>2308</ele>
        <time>2015-08-20T08:17:57.000Z</time>
      </trkpt>
      <trkpt lat="44.94209" lon="6.03443">
        <ele>2308.8000488281</ele>
        <time>2015-08-20T08:18:00.000Z</time>
      </trkpt>
      <trkpt lat="44.94213" lon="6.03443">
        <ele>2308.8000488281</ele>
        <time>2015-08-20T08:18:02.000Z</time>
      </trkpt>
      <trkpt lat="44.94215" lon="6.03442">
        <ele>2308.3999023438</ele>
        <time>2015-08-20T08:18:03.000Z</time>
      </trkpt>
      <trkpt lat="44.94222" lon="6.03441">
        <ele>2307.3999023438</ele>
        <time>2015-08-20T08:18:06.000Z</time>
      </trkpt>
      <trkpt lat="44.94227" lon="6.0344">
        <ele>2306.6000976562</ele>
        <time>2015-08-20T08:18:08.000Z</time>
      </trkpt>
      <trkpt lat="44.94242" lon="6.03439">
        <ele>2306</ele>
        <time>2015-08-20T08:18:15.000Z</time>
      </trkpt>
      <trkpt lat="44.94242" lon="6.03439">
        <ele>2305.8000488281</ele>
        <time>2015-08-20T08:18:16.000Z</time>
      </trkpt>
      <trkpt lat="44.94244" lon="6.03434">
        <ele>2303.3999023438</ele>
        <time>2015-08-20T08:18:19.000Z</time>
      </trkpt>
      <trkpt lat="44.94245" lon="6.0343">
        <ele>2301.1999511719</ele>
        <time>2015-08-20T08:18:21.000Z</time>
      </trkpt>
      <trkpt lat="44.94247" lon="6.03424">
        <ele>2298.6000976562</ele>
        <time>2015-08-20T08:18:25.000Z</time>
      </trkpt>
      <trkpt lat="44.94254" lon="6.03415">
        <ele>2295</ele>
        <time>2015-08-20T08:18:30.000Z</time>
      </trkpt>
      <trkpt lat="44.94267" lon="6.03404">
        <ele>2290.6000976562</ele>
        <time>2015-08-20T08:18:36.000Z</time>
      </trkpt>
      <trkpt lat="44.94275" lon="6.03404">
        <ele>2290.8000488281</ele>
        <time>2015-08-20T08:18:40.000Z</time>
      </trkpt>
      <trkpt lat="44.94276" lon="6.03404">
        <ele>2290.6000976562</ele>
        <time>2015-08-20T08:18:41.000Z</time>
      </trkpt>
      <trkpt lat="44.94278" lon="6.03399">
        <ele>2288.6000976562</ele>
        <time>2015-08-20T08:18:44.000Z</time>
      </trkpt>
      <trkpt lat="44.94278" lon="6.03398">
        <ele>2288.1999511719</ele>
        <time>2015-08-20T08:18:45.000Z</time>
      </trkpt>
      <trkpt lat="44.94281" lon="6.03393">
        <ele>2286</ele>
        <time>2015-08-20T08:18:50.000Z</time>
      </trkpt>
      <trkpt lat="44.94281" lon="6.03391">
        <ele>2284.8000488281</ele>
        <time>2015-08-20T08:18:51.000Z</time>
      </trkpt>
      <trkpt lat="44.9428" lon="6.03383">
        <ele>2280.1999511719</ele>
        <time>2015-08-20T08:18:54.000Z</time>
      </trkpt>
      <trkpt lat="44.9428" lon="6.03368">
        <ele>2273.6000976562</ele>
        <time>2015-08-20T08:18:59.000Z</time>
      </trkpt>
      <trkpt lat="44.94287" lon="6.0335">
        <ele>2267</ele>
        <time>2015-08-20T08:19:05.000Z</time>
      </trkpt>
      <trkpt lat="44.94294" lon="6.03341">
        <ele>2265.1999511719</ele>
        <time>2015-08-20T08:19:09.000Z</time>
      </trkpt>
      <trkpt lat="44.94296" lon="6.0334">
        <ele>2265.8000488281</ele>
        <time>2015-08-20T08:19:10.000Z</time>
      </trkpt>
      <trkpt lat="44.94303" lon="6.03333">
        <ele>2265.8000488281</ele>
        <time>2015-08-20T08:19:14.000Z</time>
      </trkpt>
      <trkpt lat="44.94312" lon="6.03325">
        <ele>2266.6000976562</ele>
        <time>2015-08-20T08:19:19.000Z</time>
      </trkpt>
      <trkpt lat="44.94314" lon="6.03322">
        <ele>2266.3999023438</ele>
        <time>2015-08-20T08:19:20.000Z</time>
      </trkpt>
      <trkpt lat="44.9432" lon="6.03314">
        <ele>2265.8000488281</ele>
        <time>2015-08-20T08:19:24.000Z</time>
      </trkpt>
      <trkpt lat="44.9433" lon="6.03304">
        <ele>2266.1999511719</ele>
        <time>2015-08-20T08:19:30.000Z</time>
      </trkpt>
      <trkpt lat="44.9434" lon="6.03291">
        <ele>2264.1999511719</ele>
        <time>2015-08-20T08:19:36.000Z</time>
      </trkpt>
      <trkpt lat="44.94342" lon="6.03286">
        <ele>2262.6000976562</ele>
        <time>2015-08-20T08:19:41.000Z</time>
      </trkpt>
      <trkpt lat="44.94345" lon="6.03285">
        <ele>2263.3999023438</ele>
        <time>2015-08-20T08:19:47.000Z</time>
      </trkpt>
      <trkpt lat="44.94347" lon="6.03284">
        <ele>2263.8000488281</ele>
        <time>2015-08-20T08:19:49.000Z</time>
      </trkpt>
      <trkpt lat="44.94348" lon="6.03282">
        <ele>2263.3999023438</ele>
        <time>2015-08-20T08:19:51.000Z</time>
      </trkpt>
      <trkpt lat="44.94349" lon="6.03282">
        <ele>2263.8000488281</ele>
        <time>2015-08-20T08:19:53.000Z</time>
      </trkpt>
      <trkpt lat="44.94356" lon="6.03276">
        <ele>2264.6000976562</ele>
        <time>2015-08-20T08:20:00.000Z</time>
      </trkpt>
      <trkpt lat="44.94365" lon="6.03267">
        <ele>2265.3999023438</ele>
        <time>2015-08-20T08:20:09.000Z</time>
      </trkpt>
      <trkpt lat="44.94369" lon="6.03263">
        <ele>2265.8000488281</ele>
        <time>2015-08-20T08:20:15.000Z</time>
      </trkpt>
      <trkpt lat="44.94374" lon="6.03258">
        <ele>2266.3999023438</ele>
        <time>2015-08-20T08:20:47.000Z</time>
      </trkpt>
      <trkpt lat="44.94388" lon="6.03258">
        <ele>2272.8000488281</ele>
        <time>2015-08-20T08:20:53.000Z</time>
      </trkpt>
      <trkpt lat="44.94396" lon="6.03257">
        <ele>2276</ele>
        <time>2015-08-20T08:20:57.000Z</time>
      </trkpt>
      <trkpt lat="44.94399" lon="6.03252">
        <ele>2274.8000488281</ele>
        <time>2015-08-20T08:20:59.000Z</time>
      </trkpt>
      <trkpt lat="44.94409" lon="6.03233">
        <ele>2274.3999023438</ele>
        <time>2015-08-20T08:21:06.000Z</time>
      </trkpt>
      <trkpt lat="44.94413" lon="6.03219">
        <ele>2270.8000488281</ele>
        <time>2015-08-20T08:21:11.000Z</time>
      </trkpt>
      <trkpt lat="44.94416" lon="6.03207">
        <ele>2266.8000488281</ele>
        <time>2015-08-20T08:21:15.000Z</time>
      </trkpt>
      <trkpt lat="44.94417" lon="6.03204">
        <ele>2266.1999511719</ele>
        <time>2015-08-20T08:21:16.000Z</time>
      </trkpt>
      <trkpt lat="44.94421" lon="6.03194">
        <ele>2263.6000976562</ele>
        <time>2015-08-20T08:21:20.000Z</time>
      </trkpt>
      <trkpt lat="44.94425" lon="6.03181">
        <ele>2261.3999023438</ele>
        <time>2015-08-20T08:21:25.000Z</time>
      </trkpt>
      <trkpt lat="44.94433" lon="6.03165">
        <ele>2260</ele>
        <time>2015-08-20T08:21:31.000Z</time>
      </trkpt>
      <trkpt lat="44.94438" lon="6.03148">
        <ele>2257.1999511719</ele>
        <time>2015-08-20T08:21:37.000Z</time>
      </trkpt>
      <trkpt lat="44.94444" lon="6.03136">
        <ele>2256.8000488281</ele>
        <time>2015-08-20T08:21:42.000Z</time>
      </trkpt>
      <trkpt lat="44.9445" lon="6.03131">
        <ele>2259</ele>
        <time>2015-08-20T08:21:48.000Z</time>
      </trkpt>
      <trkpt lat="44.94456" lon="6.0312">
        <ele>2259.1999511719</ele>
        <time>2015-08-20T08:21:56.000Z</time>
      </trkpt>
      <trkpt lat="44.94463" lon="6.03109">
        <ele>2257.1999511719</ele>
        <time>2015-08-20T08:22:03.000Z</time>
      </trkpt>
      <trkpt lat="44.94468" lon="6.03097">
        <ele>2253.8000488281</ele>
        <time>2015-08-20T08:22:10.000Z</time>
      </trkpt>
      <trkpt lat="44.94474" lon="6.03081">
        <ele>2249.3999023438</ele>
        <time>2015-08-20T08:22:18.000Z</time>
      </trkpt>
      <trkpt lat="44.94477" lon="6.03068">
        <ele>2244.6000976562</ele>
        <time>2015-08-20T08:22:25.000Z</time>
      </trkpt>
      <trkpt lat="44.94479" lon="6.03058">
        <ele>2241</ele>
        <time>2015-08-20T08:22:31.000Z</time>
      </trkpt>
      <trkpt lat="44.9448" lon="6.0306">
        <ele>2242</ele>
        <time>2015-08-20T08:22:34.000Z</time>
      </trkpt>
      <trkpt lat="44.94481" lon="6.03063">
        <ele>2243.6000976562</ele>
        <time>2015-08-20T08:22:36.000Z</time>
      </trkpt>
      <trkpt lat="44.94482" lon="6.03066">
        <ele>2244.8000488281</ele>
        <time>2015-08-20T08:22:38.000Z</time>
      </trkpt>
      <trkpt lat="44.94482" lon="6.03068">
        <ele>2245.8000488281</ele>
        <time>2015-08-20T08:22:41.000Z</time>
      </trkpt>
      <trkpt lat="44.9448" lon="6.03068">
        <ele>2245.3999023438</ele>
        <time>2015-08-20T08:23:32.000Z</time>
      </trkpt>
      <trkpt lat="44.9448" lon="6.03061">
        <ele>2242.3999023438</ele>
        <time>2015-08-20T08:24:18.000Z</time>
      </trkpt>
      <trkpt lat="44.94481" lon="6.03063">
        <ele>2243.3999023438</ele>
        <time>2015-08-20T08:24:29.000Z</time>
      </trkpt>
      <trkpt lat="44.94481" lon="6.03063">
        <ele>2243.3999023438</ele>
        <time>2015-08-20T08:24:46.000Z</time>
      </trkpt>
      <trkpt lat="44.94479" lon="6.03061">
        <ele>2242.1999511719</ele>
        <time>2015-08-20T08:27:55.000Z</time>
      </trkpt>
      <trkpt lat="44.9448" lon="6.03056">
        <ele>2240.8000488281</ele>
        <time>2015-08-20T08:28:04.000Z</time>
      </trkpt>
      <trkpt lat="44.94481" lon="6.03053">
        <ele>2240</ele>
        <time>2015-08-20T08:28:07.000Z</time>
      </trkpt>
      <trkpt lat="44.94482" lon="6.0305">
        <ele>2239.3999023438</ele>
        <time>2015-08-20T08:28:10.000Z</time>
      </trkpt>
      <trkpt lat="44.94483" lon="6.03049">
        <ele>2239.3999023438</ele>
        <time>2015-08-20T08:28:11.000Z</time>
      </trkpt>
      <trkpt lat="44.94485" lon="6.03047">
        <ele>2239</ele>
        <time>2015-08-20T08:28:15.000Z</time>
      </trkpt>
      <trkpt lat="44.94486" lon="6.03045">
        <ele>2238.6000976562</ele>
        <time>2015-08-20T08:28:18.000Z</time>
      </trkpt>
      <trkpt lat="44.94492" lon="6.03033">
        <ele>2236</ele>
        <time>2015-08-20T08:28:24.000Z</time>
      </trkpt>
      <trkpt lat="44.94495" lon="6.03019">
        <ele>2232.8000488281</ele>
        <time>2015-08-20T08:28:29.000Z</time>
      </trkpt>
      <trkpt lat="44.945" lon="6.02995">
        <ele>2230.8000488281</ele>
        <time>2015-08-20T08:28:36.000Z</time>
      </trkpt>
      <trkpt lat="44.94502" lon="6.02975">
        <ele>2229.1999511719</ele>
        <time>2015-08-20T08:28:42.000Z</time>
      </trkpt>
      <trkpt lat="44.94503" lon="6.02958">
        <ele>2223.6000976562</ele>
        <time>2015-08-20T08:28:47.000Z</time>
      </trkpt>
      <trkpt lat="44.9451" lon="6.02943">
        <ele>2221</ele>
        <time>2015-08-20T08:28:52.000Z</time>
      </trkpt>
      <trkpt lat="44.94515" lon="6.0294">
        <ele>2223.3999023438</ele>
        <time>2015-08-20T08:28:54.000Z</time>
      </trkpt>
      <trkpt lat="44.9452" lon="6.02939">
        <ele>2226</ele>
        <time>2015-08-20T08:28:56.000Z</time>
      </trkpt>
      <trkpt lat="44.94524" lon="6.02935">
        <ele>2228.1999511719</ele>
        <time>2015-08-20T08:28:58.000Z</time>
      </trkpt>
      <trkpt lat="44.94532" lon="6.0293">
        <ele>2231.8000488281</ele>
        <time>2015-08-20T08:29:02.000Z</time>
      </trkpt>
      <trkpt lat="44.94542" lon="6.02919">
        <ele>2234.8000488281</ele>
        <time>2015-08-20T08:29:09.000Z</time>
      </trkpt>
      <trkpt lat="44.9455" lon="6.02907">
        <ele>2230.6000976562</ele>
        <time>2015-08-20T08:29:15.000Z</time>
      </trkpt>
      <trkpt lat="44.94559" lon="6.02896">
        <ele>2232</ele>
        <time>2015-08-20T08:29:20.000Z</time>
      </trkpt>
      <trkpt lat="44.9457" lon="6.02894">
        <ele>2233.3999023438</ele>
        <time>2015-08-20T08:29:25.000Z</time>
      </trkpt>
      <trkpt lat="44.94579" lon="6.02885">
        <ele>2230.1999511719</ele>
        <time>2015-08-20T08:29:30.000Z</time>
      </trkpt>
      <trkpt lat="44.94592" lon="6.02875">
        <ele>2225.3999023438</ele>
        <time>2015-08-20T08:29:36.000Z</time>
      </trkpt>
      <trkpt lat="44.94601" lon="6.02868">
        <ele>2222.1999511719</ele>
        <time>2015-08-20T08:29:41.000Z</time>
      </trkpt>
      <trkpt lat="44.94611" lon="6.02862">
        <ele>2225.8000488281</ele>
        <time>2015-08-20T08:29:45.000Z</time>
      </trkpt>
      <trkpt lat="44.9462" lon="6.02859">
        <ele>2229.1999511719</ele>
        <time>2015-08-20T08:29:49.000Z</time>
      </trkpt>
      <trkpt lat="44.94621" lon="6.02859">
        <ele>2229.3999023438</ele>
        <time>2015-08-20T08:29:50.000Z</time>
      </trkpt>
      <trkpt lat="44.9462" lon="6.02858">
        <ele>2228.8000488281</ele>
        <time>2015-08-20T08:29:53.000Z</time>
      </trkpt>
      <trkpt lat="44.94616" lon="6.02856">
        <ele>2226.8000488281</ele>
        <time>2015-08-20T08:29:56.000Z</time>
      </trkpt>
      <trkpt lat="44.94615" lon="6.02855">
        <ele>2226.3999023438</ele>
        <time>2015-08-20T08:29:57.000Z</time>
      </trkpt>
      <trkpt lat="44.94616" lon="6.02855">
        <ele>2226.6000976562</ele>
        <time>2015-08-20T08:29:58.000Z</time>
      </trkpt>
      <trkpt lat="44.94625" lon="6.02853">
        <ele>2229.8000488281</ele>
        <time>2015-08-20T08:30:02.000Z</time>
      </trkpt>
      <trkpt lat="44.94634" lon="6.02855">
        <ele>2226.3999023438</ele>
        <time>2015-08-20T08:30:06.000Z</time>
      </trkpt>
      <trkpt lat="44.94646" lon="6.02846">
        <ele>2220</ele>
        <time>2015-08-20T08:30:11.000Z</time>
      </trkpt>
      <trkpt lat="44.94656" lon="6.0283">
        <ele>2217.8000488281</ele>
        <time>2015-08-20T08:30:16.000Z</time>
      </trkpt>
      <trkpt lat="44.94664" lon="6.02816">
        <ele>2221.6000976562</ele>
        <time>2015-08-20T08:30:21.000Z</time>
      </trkpt>
      <trkpt lat="44.94677" lon="6.02801">
        <ele>2218.3999023438</ele>
        <time>2015-08-20T08:30:27.000Z</time>
      </trkpt>
      <trkpt lat="44.94686" lon="6.02788">
        <ele>2209.8000488281</ele>
        <time>2015-08-20T08:30:33.000Z</time>
      </trkpt>
      <trkpt lat="44.94688" lon="6.02787">
        <ele>2210.1999511719</ele>
        <time>2015-08-20T08:30:39.000Z</time>
      </trkpt>
      <trkpt lat="44.94686" lon="6.02791">
        <ele>2212</ele>
        <time>2015-08-20T08:31:14.000Z</time>
      </trkpt>
      <trkpt lat="44.94687" lon="6.02797">
        <ele>2216.3999023438</ele>
        <time>2015-08-20T08:31:16.000Z</time>
      </trkpt>
      <trkpt lat="44.9469" lon="6.02806">
        <ele>2222.6000976562</ele>
        <time>2015-08-20T08:31:20.000Z</time>
      </trkpt>
      <trkpt lat="44.94691" lon="6.02802">
        <ele>2220</ele>
        <time>2015-08-20T08:31:23.000Z</time>
      </trkpt>
      <trkpt lat="44.94694" lon="6.02787">
        <ele>2212.1999511719</ele>
        <time>2015-08-20T08:31:29.000Z</time>
      </trkpt>
      <trkpt lat="44.94698" lon="6.02769">
        <ele>2208</ele>
        <time>2015-08-20T08:31:35.000Z</time>
      </trkpt>
      <trkpt lat="44.94698" lon="6.02765">
        <ele>2206.8000488281</ele>
        <time>2015-08-20T08:31:37.000Z</time>
      </trkpt>
      <trkpt lat="44.94696" lon="6.02763">
        <ele>2205</ele>
        <time>2015-08-20T08:31:39.000Z</time>
      </trkpt>
      <trkpt lat="44.94692" lon="6.0276">
        <ele>2202.3999023438</ele>
        <time>2015-08-20T08:31:43.000Z</time>
      </trkpt>
      <trkpt lat="44.94698" lon="6.02756">
        <ele>2203.8000488281</ele>
        <time>2015-08-20T08:31:47.000Z</time>
      </trkpt>
      <trkpt lat="44.94706" lon="6.02753">
        <ele>2205.6000976562</ele>
        <time>2015-08-20T08:31:52.000Z</time>
      </trkpt>
      <trkpt lat="44.94705" lon="6.02751">
        <ele>2204.8000488281</ele>
        <time>2015-08-20T08:31:57.000Z</time>
      </trkpt>
      <trkpt lat="44.94697" lon="6.02748">
        <ele>2200.3999023438</ele>
        <time>2015-08-20T08:32:02.000Z</time>
      </trkpt>
      <trkpt lat="44.94698" lon="6.02746">
        <ele>2200.3999023438</ele>
        <time>2015-08-20T08:32:03.000Z</time>
      </trkpt>
      <trkpt lat="44.94707" lon="6.02746">
        <ele>2203.6000976562</ele>
        <time>2015-08-20T08:32:07.000Z</time>
      </trkpt>
      <trkpt lat="44.94718" lon="6.02742">
        <ele>2198.6000976562</ele>
        <time>2015-08-20T08:32:14.000Z</time>
      </trkpt>
      <trkpt lat="44.94722" lon="6.02743">
        <ele>2197.3999023438</ele>
        <time>2015-08-20T08:32:18.000Z</time>
      </trkpt>
      <trkpt lat="44.94722" lon="6.02745">
        <ele>2197.8000488281</ele>
        <time>2015-08-20T08:32:19.000Z</time>
      </trkpt>
      <trkpt lat="44.94718" lon="6.02756">
        <ele>2203.3999023438</ele>
        <time>2015-08-20T08:32:23.000Z</time>
      </trkpt>
      <trkpt lat="44.94717" lon="6.02759">
        <ele>2204.6000976562</ele>
        <time>2015-08-20T08:32:24.000Z</time>
      </trkpt>
      <trkpt lat="44.94712" lon="6.02774">
        <ele>2211.1999511719</ele>
        <time>2015-08-20T08:32:30.000Z</time>
      </trkpt>
      <trkpt lat="44.9471" lon="6.02789">
        <ele>2217.3999023438</ele>
        <time>2015-08-20T08:32:34.000Z</time>
      </trkpt>
      <trkpt lat="44.94711" lon="6.02799">
        <ele>2220.3999023438</ele>
        <time>2015-08-20T08:32:37.000Z</time>
      </trkpt>
      <trkpt lat="44.94713" lon="6.02805">
        <ele>2221.3999023438</ele>
        <time>2015-08-20T08:32:39.000Z</time>
      </trkpt>
      <trkpt lat="44.9472" lon="6.02818">
        <ele>2218.1999511719</ele>
        <time>2015-08-20T08:32:44.000Z</time>
      </trkpt>
      <trkpt lat="44.94727" lon="6.02826">
        <ele>2213.8000488281</ele>
        <time>2015-08-20T08:32:48.000Z</time>
      </trkpt>
      <trkpt lat="44.94729" lon="6.02829">
        <ele>2212.6000976562</ele>
        <time>2015-08-20T08:32:52.000Z</time>
      </trkpt>
      <trkpt lat="44.94728" lon="6.02818">
        <ele>2215.1999511719</ele>
        <time>2015-08-20T08:32:57.000Z</time>
      </trkpt>
      <trkpt lat="44.94728" lon="6.02815">
        <ele>2215.8000488281</ele>
        <time>2015-08-20T08:32:58.000Z</time>
      </trkpt>
      <trkpt lat="44.94728" lon="6.02814">
        <ele>2216</ele>
        <time>2015-08-20T08:32:59.000Z</time>
      </trkpt>
      <trkpt lat="44.9473" lon="6.02816">
        <ele>2215</ele>
        <time>2015-08-20T08:33:01.000Z</time>
      </trkpt>
      <trkpt lat="44.94734" lon="6.0283">
        <ele>2210</ele>
        <time>2015-08-20T08:33:06.000Z</time>
      </trkpt>
      <trkpt lat="44.94738" lon="6.02844">
        <ele>2205.3999023438</ele>
        <time>2015-08-20T08:33:11.000Z</time>
      </trkpt>
      <trkpt lat="44.9474" lon="6.02847">
        <ele>2204.1999511719</ele>
        <time>2015-08-20T08:33:12.000Z</time>
      </trkpt>
      <trkpt lat="44.94744" lon="6.02852">
        <ele>2201.3999023438</ele>
        <time>2015-08-20T08:33:15.000Z</time>
      </trkpt>
      <trkpt lat="44.94748" lon="6.02853">
        <ele>2199.6000976562</ele>
        <time>2015-08-20T08:33:20.000Z</time>
      </trkpt>
      <trkpt lat="44.94747" lon="6.02846">
        <ele>2201.8000488281</ele>
        <time>2015-08-20T08:33:23.000Z</time>
      </trkpt>
      <trkpt lat="44.94747" lon="6.02842">
        <ele>2202.6000976562</ele>
        <time>2015-08-20T08:33:24.000Z</time>
      </trkpt>
      <trkpt lat="44.94745" lon="6.02831">
        <ele>2205.8000488281</ele>
        <time>2015-08-20T08:33:28.000Z</time>
      </trkpt>
      <trkpt lat="44.94745" lon="6.02829">
        <ele>2206</ele>
        <time>2015-08-20T08:33:29.000Z</time>
      </trkpt>
      <trkpt lat="44.94745" lon="6.02818">
        <ele>2208.3999023438</ele>
        <time>2015-08-20T08:33:33.000Z</time>
      </trkpt>
      <trkpt lat="44.94746" lon="6.02814">
        <ele>2209.1999511719</ele>
        <time>2015-08-20T08:33:35.000Z</time>
      </trkpt>
      <trkpt lat="44.94747" lon="6.02807">
        <ele>2209.3999023438</ele>
        <time>2015-08-20T08:33:38.000Z</time>
      </trkpt>
      <trkpt lat="44.94746" lon="6.02805">
        <ele>2208.6000976562</ele>
        <time>2015-08-20T08:33:39.000Z</time>
      </trkpt>
      <trkpt lat="44.94747" lon="6.02803">
        <ele>2208</ele>
        <time>2015-08-20T08:33:40.000Z</time>
      </trkpt>
      <trkpt lat="44.94748" lon="6.02806">
        <ele>2208.1999511719</ele>
        <time>2015-08-20T08:33:42.000Z</time>
      </trkpt>
      <trkpt lat="44.94751" lon="6.02815">
        <ele>2207.1999511719</ele>
        <time>2015-08-20T08:33:46.000Z</time>
      </trkpt>
      <trkpt lat="44.94755" lon="6.02827">
        <ele>2202.6000976562</ele>
        <time>2015-08-20T08:33:51.000Z</time>
      </trkpt>
      <trkpt lat="44.94758" lon="6.02834">
        <ele>2200.1999511719</ele>
        <time>2015-08-20T08:33:54.000Z</time>
      </trkpt>
      <trkpt lat="44.9476" lon="6.02835">
        <ele>2199.1999511719</ele>
        <time>2015-08-20T08:33:55.000Z</time>
      </trkpt>
      <trkpt lat="44.94764" lon="6.02838">
        <ele>2197</ele>
        <time>2015-08-20T08:33:57.000Z</time>
      </trkpt>
      <trkpt lat="44.94771" lon="6.02848">
        <ele>2192</ele>
        <time>2015-08-20T08:34:02.000Z</time>
      </trkpt>
      <trkpt lat="44.94772" lon="6.02847">
        <ele>2191.8000488281</ele>
        <time>2015-08-20T08:34:04.000Z</time>
      </trkpt>
      <trkpt lat="44.94773" lon="6.02845">
        <ele>2192.1999511719</ele>
        <time>2015-08-20T08:34:05.000Z</time>
      </trkpt>
      <trkpt lat="44.94771" lon="6.0283">
        <ele>2196.1999511719</ele>
        <time>2015-08-20T08:34:09.000Z</time>
      </trkpt>
      <trkpt lat="44.94768" lon="6.02825">
        <ele>2198.3999023438</ele>
        <time>2015-08-20T08:34:11.000Z</time>
      </trkpt>
      <trkpt lat="44.94767" lon="6.0282">
        <ele>2199.8000488281</ele>
        <time>2015-08-20T08:34:13.000Z</time>
      </trkpt>
      <trkpt lat="44.94767" lon="6.02812">
        <ele>2201.6000976562</ele>
        <time>2015-08-20T08:34:17.000Z</time>
      </trkpt>
      <trkpt lat="44.94766" lon="6.02809">
        <ele>2202.1999511719</ele>
        <time>2015-08-20T08:34:18.000Z</time>
      </trkpt>
      <trkpt lat="44.94764" lon="6.02797">
        <ele>2199</ele>
        <time>2015-08-20T08:34:23.000Z</time>
      </trkpt>
      <trkpt lat="44.94766" lon="6.02795">
        <ele>2198</ele>
        <time>2015-08-20T08:34:26.000Z</time>
      </trkpt>
      <trkpt lat="44.94767" lon="6.02798">
        <ele>2198.6000976562</ele>
        <time>2015-08-20T08:34:27.000Z</time>
      </trkpt>
      <trkpt lat="44.94771" lon="6.02807">
        <ele>2199.8000488281</ele>
        <time>2015-08-20T08:34:30.000Z</time>
      </trkpt>
      <trkpt lat="44.94774" lon="6.02813">
        <ele>2198.3999023438</ele>
        <time>2015-08-20T08:34:32.000Z</time>
      </trkpt>
      <trkpt lat="44.94782" lon="6.02821">
        <ele>2193.6000976562</ele>
        <time>2015-08-20T08:34:37.000Z</time>
      </trkpt>
      <trkpt lat="44.9479" lon="6.02831">
        <ele>2188.6000976562</ele>
        <time>2015-08-20T08:34:42.000Z</time>
      </trkpt>
      <trkpt lat="44.94803" lon="6.02835">
        <ele>2181</ele>
        <time>2015-08-20T08:34:48.000Z</time>
      </trkpt>
      <trkpt lat="44.94808" lon="6.02839">
        <ele>2177.8000488281</ele>
        <time>2015-08-20T08:34:51.000Z</time>
      </trkpt>
      <trkpt lat="44.9481" lon="6.02838">
        <ele>2177</ele>
        <time>2015-08-20T08:34:52.000Z</time>
      </trkpt>
      <trkpt lat="44.94813" lon="6.02837">
        <ele>2175.1999511719</ele>
        <time>2015-08-20T08:34:55.000Z</time>
      </trkpt>
      <trkpt lat="44.94815" lon="6.02839">
        <ele>2173.8000488281</ele>
        <time>2015-08-20T08:34:57.000Z</time>
      </trkpt>
      <trkpt lat="44.94819" lon="6.02848">
        <ele>2170</ele>
        <time>2015-08-20T08:35:01.000Z</time>
      </trkpt>
      <trkpt lat="44.94819" lon="6.0285">
        <ele>2169.3999023438</ele>
        <time>2015-08-20T08:35:02.000Z</time>
      </trkpt>
      <trkpt lat="44.94821" lon="6.02847">
        <ele>2169.1999511719</ele>
        <time>2015-08-20T08:35:05.000Z</time>
      </trkpt>
      <trkpt lat="44.94822" lon="6.02841">
        <ele>2170</ele>
        <time>2015-08-20T08:35:07.000Z</time>
      </trkpt>
      <trkpt lat="44.94822" lon="6.02834">
        <ele>2170</ele>
        <time>2015-08-20T08:35:10.000Z</time>
      </trkpt>
      <trkpt lat="44.94823" lon="6.02833">
        <ele>2169.6000976562</ele>
        <time>2015-08-20T08:35:11.000Z</time>
      </trkpt>
      <trkpt lat="44.94826" lon="6.0284">
        <ele>2167.3999023438</ele>
        <time>2015-08-20T08:35:14.000Z</time>
      </trkpt>
      <trkpt lat="44.94828" lon="6.02856">
        <ele>2163.8000488281</ele>
        <time>2015-08-20T08:35:19.000Z</time>
      </trkpt>
      <trkpt lat="44.94828" lon="6.02859">
        <ele>2163.1999511719</ele>
        <time>2015-08-20T08:35:20.000Z</time>
      </trkpt>
      <trkpt lat="44.94827" lon="6.02861">
        <ele>2163.1999511719</ele>
        <time>2015-08-20T08:35:21.000Z</time>
      </trkpt>
      <trkpt lat="44.94828" lon="6.0286">
        <ele>2162.8000488281</ele>
        <time>2015-08-20T08:35:23.000Z</time>
      </trkpt>
      <trkpt lat="44.94833" lon="6.02848">
        <ele>2162.3999023438</ele>
        <time>2015-08-20T08:35:27.000Z</time>
      </trkpt>
      <trkpt lat="44.9484" lon="6.02834">
        <ele>2157</ele>
        <time>2015-08-20T08:35:33.000Z</time>
      </trkpt>
      <trkpt lat="44.94842" lon="6.02823">
        <ele>2155.1999511719</ele>
        <time>2015-08-20T08:35:38.000Z</time>
      </trkpt>
      <trkpt lat="44.94844" lon="6.02831">
        <ele>2154.1999511719</ele>
        <time>2015-08-20T08:35:41.000Z</time>
      </trkpt>
      <trkpt lat="44.94845" lon="6.02848">
        <ele>2153.1999511719</ele>
        <time>2015-08-20T08:35:46.000Z</time>
      </trkpt>
      <trkpt lat="44.94843" lon="6.02857">
        <ele>2154.6000976562</ele>
        <time>2015-08-20T08:35:49.000Z</time>
      </trkpt>
      <trkpt lat="44.94842" lon="6.02863">
        <ele>2154.6000976562</ele>
        <time>2015-08-20T08:35:51.000Z</time>
      </trkpt>
      <trkpt lat="44.9484" lon="6.02879">
        <ele>2152.3999023438</ele>
        <time>2015-08-20T08:35:57.000Z</time>
      </trkpt>
      <trkpt lat="44.94842" lon="6.02878">
        <ele>2151.6000976562</ele>
        <time>2015-08-20T08:35:59.000Z</time>
      </trkpt>
      <trkpt lat="44.94844" lon="6.02876">
        <ele>2151</ele>
        <time>2015-08-20T08:36:00.000Z</time>
      </trkpt>
      <trkpt lat="44.94853" lon="6.02867">
        <ele>2147.3999023438</ele>
        <time>2015-08-20T08:36:05.000Z</time>
      </trkpt>
      <trkpt lat="44.94856" lon="6.02863">
        <ele>2145</ele>
        <time>2015-08-20T08:36:07.000Z</time>
      </trkpt>
      <trkpt lat="44.94863" lon="6.02854">
        <ele>2140.1999511719</ele>
        <time>2015-08-20T08:36:11.000Z</time>
      </trkpt>
      <trkpt lat="44.94869" lon="6.02843">
        <ele>2135.6000976562</ele>
        <time>2015-08-20T08:36:16.000Z</time>
      </trkpt>
      <trkpt lat="44.94874" lon="6.02829">
        <ele>2132.1999511719</ele>
        <time>2015-08-20T08:36:23.000Z</time>
      </trkpt>
      <trkpt lat="44.94874" lon="6.02824">
        <ele>2132.3999023438</ele>
        <time>2015-08-20T08:36:26.000Z</time>
      </trkpt>
      <trkpt lat="44.94872" lon="6.0282">
        <ele>2133.1999511719</ele>
        <time>2015-08-20T08:36:28.000Z</time>
      </trkpt>
      <trkpt lat="44.94869" lon="6.02806">
        <ele>2136.3999023438</ele>
        <time>2015-08-20T08:36:33.000Z</time>
      </trkpt>
      <trkpt lat="44.94868" lon="6.02802">
        <ele>2137</ele>
        <time>2015-08-20T08:36:35.000Z</time>
      </trkpt>
      <trkpt lat="44.94871" lon="6.02805">
        <ele>2135</ele>
        <time>2015-08-20T08:36:37.000Z</time>
      </trkpt>
      <trkpt lat="44.9488" lon="6.02814">
        <ele>2130</ele>
        <time>2015-08-20T08:36:42.000Z</time>
      </trkpt>
      <trkpt lat="44.94891" lon="6.02822">
        <ele>2126</ele>
        <time>2015-08-20T08:36:47.000Z</time>
      </trkpt>
      <trkpt lat="44.94899" lon="6.0283">
        <ele>2122.8000488281</ele>
        <time>2015-08-20T08:36:52.000Z</time>
      </trkpt>
      <trkpt lat="44.94899" lon="6.02832">
        <ele>2123.1999511719</ele>
        <time>2015-08-20T08:36:56.000Z</time>
      </trkpt>
      <trkpt lat="44.94903" lon="6.02839">
        <ele>2122</ele>
        <time>2015-08-20T08:37:00.000Z</time>
      </trkpt>
      <trkpt lat="44.94912" lon="6.02851">
        <ele>2119</ele>
        <time>2015-08-20T08:37:06.000Z</time>
      </trkpt>
      <trkpt lat="44.94923" lon="6.02861">
        <ele>2115.1999511719</ele>
        <time>2015-08-20T08:37:11.000Z</time>
      </trkpt>
      <trkpt lat="44.94931" lon="6.02864">
        <ele>2112</ele>
        <time>2015-08-20T08:37:16.000Z</time>
      </trkpt>
      <trkpt lat="44.94944" lon="6.0287">
        <ele>2107</ele>
        <time>2015-08-20T08:37:22.000Z</time>
      </trkpt>
      <trkpt lat="44.94947" lon="6.02874">
        <ele>2105.6000976562</ele>
        <time>2015-08-20T08:37:24.000Z</time>
      </trkpt>
      <trkpt lat="44.94952" lon="6.02876">
        <ele>2103.8000488281</ele>
        <time>2015-08-20T08:37:26.000Z</time>
      </trkpt>
      <trkpt lat="44.94954" lon="6.02876">
        <ele>2102.8000488281</ele>
        <time>2015-08-20T08:37:28.000Z</time>
      </trkpt>
      <trkpt lat="44.94959" lon="6.02877">
        <ele>2101.1999511719</ele>
        <time>2015-08-20T08:37:32.000Z</time>
      </trkpt>
      <trkpt lat="44.94963" lon="6.02881">
        <ele>2101.3999023438</ele>
        <time>2015-08-20T08:37:38.000Z</time>
      </trkpt>
      <trkpt lat="44.94965" lon="6.02882">
        <ele>2101.3999023438</ele>
        <time>2015-08-20T08:37:55.000Z</time>
      </trkpt>
      <trkpt lat="44.94966" lon="6.02882">
        <ele>2101.1999511719</ele>
        <time>2015-08-20T08:37:56.000Z</time>
      </trkpt>
      <trkpt lat="44.94974" lon="6.0288">
        <ele>2100.1999511719</ele>
        <time>2015-08-20T08:38:03.000Z</time>
      </trkpt>
      <trkpt lat="44.94987" lon="6.02883">
        <ele>2099.6000976562</ele>
        <time>2015-08-20T08:38:09.000Z</time>
      </trkpt>
      <trkpt lat="44.94997" lon="6.02888">
        <ele>2099.3999023438</ele>
        <time>2015-08-20T08:38:15.000Z</time>
      </trkpt>
      <trkpt lat="44.9501" lon="6.02889">
        <ele>2098.1999511719</ele>
        <time>2015-08-20T08:38:20.000Z</time>
      </trkpt>
      <trkpt lat="44.95023" lon="6.02889">
        <ele>2097.1999511719</ele>
        <time>2015-08-20T08:38:25.000Z</time>
      </trkpt>
      <trkpt lat="44.95037" lon="6.0289">
        <ele>2096</ele>
        <time>2015-08-20T08:38:31.000Z</time>
      </trkpt>
      <trkpt lat="44.95046" lon="6.0289">
        <ele>2094.1999511719</ele>
        <time>2015-08-20T08:38:35.000Z</time>
      </trkpt>
      <trkpt lat="44.95048" lon="6.02906">
        <ele>2094.3999023438</ele>
        <time>2015-08-20T08:38:39.000Z</time>
      </trkpt>
      <trkpt lat="44.95043" lon="6.02924">
        <ele>2096.8000488281</ele>
        <time>2015-08-20T08:38:44.000Z</time>
      </trkpt>
      <trkpt lat="44.95048" lon="6.02938">
        <ele>2096</ele>
        <time>2015-08-20T08:38:49.000Z</time>
      </trkpt>
      <trkpt lat="44.95055" lon="6.02947">
        <ele>2094.3999023438</ele>
        <time>2015-08-20T08:38:53.000Z</time>
      </trkpt>
      <trkpt lat="44.95058" lon="6.0295">
        <ele>2093.3999023438</ele>
        <time>2015-08-20T08:38:55.000Z</time>
      </trkpt>
      <trkpt lat="44.95061" lon="6.02954">
        <ele>2092.6000976562</ele>
        <time>2015-08-20T08:38:57.000Z</time>
      </trkpt>
      <trkpt lat="44.95065" lon="6.02955">
        <ele>2091.3999023438</ele>
        <time>2015-08-20T08:38:59.000Z</time>
      </trkpt>
      <trkpt lat="44.95073" lon="6.02953">
        <ele>2088.8000488281</ele>
        <time>2015-08-20T08:39:03.000Z</time>
      </trkpt>
      <trkpt lat="44.95079" lon="6.02951">
        <ele>2087</ele>
        <time>2015-08-20T08:39:06.000Z</time>
      </trkpt>
      <trkpt lat="44.95084" lon="6.0295">
        <ele>2085.3999023438</ele>
        <time>2015-08-20T08:39:08.000Z</time>
      </trkpt>
      <trkpt lat="44.95094" lon="6.02946">
        <ele>2082</ele>
        <time>2015-08-20T08:39:13.000Z</time>
      </trkpt>
      <trkpt lat="44.95099" lon="6.02941">
        <ele>2081</ele>
        <time>2015-08-20T08:39:16.000Z</time>
      </trkpt>
      <trkpt lat="44.95101" lon="6.02938">
        <ele>2080.6000976562</ele>
        <time>2015-08-20T08:39:18.000Z</time>
      </trkpt>
      <trkpt lat="44.95104" lon="6.02937">
        <ele>2080</ele>
        <time>2015-08-20T08:39:20.000Z</time>
      </trkpt>
      <trkpt lat="44.95103" lon="6.02944">
        <ele>2080</ele>
        <time>2015-08-20T08:39:22.000Z</time>
      </trkpt>
      <trkpt lat="44.95095" lon="6.02957">
        <ele>2082.1999511719</ele>
        <time>2015-08-20T08:39:27.000Z</time>
      </trkpt>
      <trkpt lat="44.95088" lon="6.02967">
        <ele>2085</ele>
        <time>2015-08-20T08:39:31.000Z</time>
      </trkpt>
      <trkpt lat="44.95084" lon="6.02972">
        <ele>2086.1999511719</ele>
        <time>2015-08-20T08:39:33.000Z</time>
      </trkpt>
      <trkpt lat="44.95072" lon="6.02992">
        <ele>2090.3999023438</ele>
        <time>2015-08-20T08:39:40.000Z</time>
      </trkpt>
      <trkpt lat="44.9507" lon="6.03011">
        <ele>2090.1999511719</ele>
        <time>2015-08-20T08:39:46.000Z</time>
      </trkpt>
      <trkpt lat="44.95079" lon="6.03013">
        <ele>2088.3999023438</ele>
        <time>2015-08-20T08:39:49.000Z</time>
      </trkpt>
      <trkpt lat="44.95097" lon="6.03009">
        <ele>2083</ele>
        <time>2015-08-20T08:39:54.000Z</time>
      </trkpt>
      <trkpt lat="44.95101" lon="6.03005">
        <ele>2081.3999023438</ele>
        <time>2015-08-20T08:39:56.000Z</time>
      </trkpt>
      <trkpt lat="44.95112" lon="6.02995">
        <ele>2078</ele>
        <time>2015-08-20T08:40:01.000Z</time>
      </trkpt>
      <trkpt lat="44.95123" lon="6.02976">
        <ele>2074.3999023438</ele>
        <time>2015-08-20T08:40:07.000Z</time>
      </trkpt>
      <trkpt lat="44.95132" lon="6.0296">
        <ele>2071.8000488281</ele>
        <time>2015-08-20T08:40:13.000Z</time>
      </trkpt>
      <trkpt lat="44.95142" lon="6.02948">
        <ele>2068.3999023438</ele>
        <time>2015-08-20T08:40:19.000Z</time>
      </trkpt>
      <trkpt lat="44.9515" lon="6.02936">
        <ele>2066</ele>
        <time>2015-08-20T08:40:24.000Z</time>
      </trkpt>
      <trkpt lat="44.95156" lon="6.02932">
        <ele>2063.6000976562</ele>
        <time>2015-08-20T08:40:29.000Z</time>
      </trkpt>
      <trkpt lat="44.95169" lon="6.02929">
        <ele>2059.8000488281</ele>
        <time>2015-08-20T08:40:35.000Z</time>
      </trkpt>
      <trkpt lat="44.95181" lon="6.02919">
        <ele>2057.3999023438</ele>
        <time>2015-08-20T08:40:41.000Z</time>
      </trkpt>
      <trkpt lat="44.95189" lon="6.02906">
        <ele>2056.6000976562</ele>
        <time>2015-08-20T08:40:46.000Z</time>
      </trkpt>
      <trkpt lat="44.95196" lon="6.02897">
        <ele>2055.6000976562</ele>
        <time>2015-08-20T08:40:50.000Z</time>
      </trkpt>
      <trkpt lat="44.952" lon="6.02887">
        <ele>2053.8000488281</ele>
        <time>2015-08-20T08:40:54.000Z</time>
      </trkpt>
      <trkpt lat="44.95206" lon="6.0287">
        <ele>2049.6000976562</ele>
        <time>2015-08-20T08:40:59.000Z</time>
      </trkpt>
      <trkpt lat="44.95208" lon="6.02866">
        <ele>2048.3999023438</ele>
        <time>2015-08-20T08:41:01.000Z</time>
      </trkpt>
      <trkpt lat="44.95212" lon="6.02863">
        <ele>2047</ele>
        <time>2015-08-20T08:41:04.000Z</time>
      </trkpt>
      <trkpt lat="44.95219" lon="6.0285">
        <ele>2043.4000244141</ele>
        <time>2015-08-20T08:41:09.000Z</time>
      </trkpt>
      <trkpt lat="44.95227" lon="6.02839">
        <ele>2039.8000488281</ele>
        <time>2015-08-20T08:41:14.000Z</time>
      </trkpt>
      <trkpt lat="44.95238" lon="6.02826">
        <ele>2037.5999755859</ele>
        <time>2015-08-20T08:41:20.000Z</time>
      </trkpt>
      <trkpt lat="44.95247" lon="6.0282">
        <ele>2037.1999511719</ele>
        <time>2015-08-20T08:41:25.000Z</time>
      </trkpt>
      <trkpt lat="44.95248" lon="6.02818">
        <ele>2037</ele>
        <time>2015-08-20T08:41:26.000Z</time>
      </trkpt>
      <trkpt lat="44.95253" lon="6.02813">
        <ele>2036.8000488281</ele>
        <time>2015-08-20T08:41:30.000Z</time>
      </trkpt>
      <trkpt lat="44.9526" lon="6.02807">
        <ele>2035.8000488281</ele>
        <time>2015-08-20T08:41:34.000Z</time>
      </trkpt>
      <trkpt lat="44.95271" lon="6.02812">
        <ele>2036</ele>
        <time>2015-08-20T08:41:39.000Z</time>
      </trkpt>
      <trkpt lat="44.95273" lon="6.02813">
        <ele>2035.8000488281</ele>
        <time>2015-08-20T08:41:40.000Z</time>
      </trkpt>
      <trkpt lat="44.95275" lon="6.02812">
        <ele>2035.8000488281</ele>
        <time>2015-08-20T08:41:41.000Z</time>
      </trkpt>
      <trkpt lat="44.95281" lon="6.02811">
        <ele>2035.4000244141</ele>
        <time>2015-08-20T08:41:44.000Z</time>
      </trkpt>
      <trkpt lat="44.95287" lon="6.02819">
        <ele>2035.1999511719</ele>
        <time>2015-08-20T08:41:48.000Z</time>
      </trkpt>
      <trkpt lat="44.9529" lon="6.02821">
        <ele>2035</ele>
        <time>2015-08-20T08:41:50.000Z</time>
      </trkpt>
      <trkpt lat="44.95296" lon="6.02824">
        <ele>2035.5999755859</ele>
        <time>2015-08-20T08:41:52.000Z</time>
      </trkpt>
      <trkpt lat="44.95297" lon="6.02826">
        <ele>2036</ele>
        <time>2015-08-20T08:41:53.000Z</time>
      </trkpt>
      <trkpt lat="44.95303" lon="6.0283">
        <ele>2036.8000488281</ele>
        <time>2015-08-20T08:41:56.000Z</time>
      </trkpt>
      <trkpt lat="44.95306" lon="6.02832">
        <ele>2037.1999511719</ele>
        <time>2015-08-20T08:41:58.000Z</time>
      </trkpt>
      <trkpt lat="44.95309" lon="6.02833">
        <ele>2037.5999755859</ele>
        <time>2015-08-20T08:42:02.000Z</time>
      </trkpt>
      <trkpt lat="44.95312" lon="6.02836">
        <ele>2038</ele>
        <time>2015-08-20T08:42:08.000Z</time>
      </trkpt>
      <trkpt lat="44.95314" lon="6.02836">
        <ele>2038.1999511719</ele>
        <time>2015-08-20T08:42:09.000Z</time>
      </trkpt>
      <trkpt lat="44.95319" lon="6.02839">
        <ele>2039</ele>
        <time>2015-08-20T08:42:13.000Z</time>
      </trkpt>
      <trkpt lat="44.95319" lon="6.02842">
        <ele>2039</ele>
        <time>2015-08-20T08:42:18.000Z</time>
      </trkpt>
      <trkpt lat="44.95318" lon="6.0286">
        <ele>2038.8000488281</ele>
        <time>2015-08-20T08:43:24.000Z</time>
      </trkpt>
      <trkpt lat="44.95321" lon="6.02859">
        <ele>2039.4000244141</ele>
        <time>2015-08-20T08:43:58.000Z</time>
      </trkpt>
      <trkpt lat="44.95315" lon="6.02861">
        <ele>2038.5999755859</ele>
        <time>2015-08-20T08:44:26.000Z</time>
      </trkpt>
      <trkpt lat="44.95314" lon="6.02869">
        <ele>2038.4000244141</ele>
        <time>2015-08-20T08:45:16.000Z</time>
      </trkpt>
      <trkpt lat="44.95302" lon="6.02853">
        <ele>2036.5999755859</ele>
        <time>2015-08-20T08:46:32.000Z</time>
      </trkpt>
      <trkpt lat="44.95313" lon="6.02856">
        <ele>2038.1999511719</ele>
        <time>2015-08-20T08:47:10.000Z</time>
      </trkpt>
      <trkpt lat="44.95307" lon="6.02872">
        <ele>2037.4000244141</ele>
        <time>2015-08-20T08:47:26.000Z</time>
      </trkpt>
      <trkpt lat="44.953" lon="6.0288">
        <ele>2036.4000244141</ele>
        <time>2015-08-20T08:47:29.000Z</time>
      </trkpt>
      <trkpt lat="44.95323" lon="6.0285">
        <ele>2039.5999755859</ele>
        <time>2015-08-20T08:48:47.000Z</time>
      </trkpt>
      <trkpt lat="44.9533" lon="6.02862">
        <ele>2040.5999755859</ele>
        <time>2015-08-20T08:49:47.000Z</time>
      </trkpt>
      <trkpt lat="44.95319" lon="6.02855">
        <ele>2039.1999511719</ele>
        <time>2015-08-20T08:50:17.000Z</time>
      </trkpt>
      <trkpt lat="44.95313" lon="6.02856">
        <ele>2038.1999511719</ele>
        <time>2015-08-20T08:50:29.000Z</time>
      </trkpt>
      <trkpt lat="44.95307" lon="6.02864">
        <ele>2037.4000244141</ele>
        <time>2015-08-20T08:51:18.000Z</time>
      </trkpt>
      <trkpt lat="44.9531" lon="6.0287">
        <ele>2037.8000488281</ele>
        <time>2015-08-20T08:52:17.000Z</time>
      </trkpt>
      <trkpt lat="44.95314" lon="6.0286">
        <ele>2038.4000244141</ele>
        <time>2015-08-20T08:53:00.000Z</time>
      </trkpt>
      <trkpt lat="44.95311" lon="6.02861">
        <ele>2038</ele>
        <time>2015-08-20T08:53:03.000Z</time>
      </trkpt>
      <trkpt lat="44.95336" lon="6.02855">
        <ele>2041.5999755859</ele>
        <time>2015-08-20T08:55:01.000Z</time>
      </trkpt>
      <trkpt lat="44.95325" lon="6.0285">
        <ele>2040</ele>
        <time>2015-08-20T08:55:45.000Z</time>
      </trkpt>
      <trkpt lat="44.95334" lon="6.0285">
        <ele>2040.8000488281</ele>
        <time>2015-08-20T08:56:31.000Z</time>
      </trkpt>
      <trkpt lat="44.9534" lon="6.02851">
        <ele>2040.5999755859</ele>
        <time>2015-08-20T08:56:35.000Z</time>
      </trkpt>
      <trkpt lat="44.95342" lon="6.02852">
        <ele>2040.8000488281</ele>
        <time>2015-08-20T08:56:36.000Z</time>
      </trkpt>
      <trkpt lat="44.95345" lon="6.0285">
        <ele>2040.1999511719</ele>
        <time>2015-08-20T08:56:38.000Z</time>
      </trkpt>
      <trkpt lat="44.95351" lon="6.02848">
        <ele>2039.4000244141</ele>
        <time>2015-08-20T08:56:41.000Z</time>
      </trkpt>
      <trkpt lat="44.95358" lon="6.0286">
        <ele>2041.4000244141</ele>
        <time>2015-08-20T08:56:45.000Z</time>
      </trkpt>
      <trkpt lat="44.95364" lon="6.02871">
        <ele>2043.4000244141</ele>
        <time>2015-08-20T08:56:49.000Z</time>
      </trkpt>
      <trkpt lat="44.95367" lon="6.02873">
        <ele>2043.4000244141</ele>
        <time>2015-08-20T08:56:50.000Z</time>
      </trkpt>
      <trkpt lat="44.95377" lon="6.0287">
        <ele>2042.4000244141</ele>
        <time>2015-08-20T08:56:54.000Z</time>
      </trkpt>
      <trkpt lat="44.9538" lon="6.02869">
        <ele>2042.4000244141</ele>
        <time>2015-08-20T08:56:55.000Z</time>
      </trkpt>
      <trkpt lat="44.95394" lon="6.02865">
        <ele>2041.8000488281</ele>
        <time>2015-08-20T08:57:01.000Z</time>
      </trkpt>
      <trkpt lat="44.95409" lon="6.02861">
        <ele>2041.5999755859</ele>
        <time>2015-08-20T08:57:07.000Z</time>
      </trkpt>
      <trkpt lat="44.95411" lon="6.02858">
        <ele>2041</ele>
        <time>2015-08-20T08:57:08.000Z</time>
      </trkpt>
      <trkpt lat="44.95413" lon="6.02849">
        <ele>2039</ele>
        <time>2015-08-20T08:57:11.000Z</time>
      </trkpt>
      <trkpt lat="44.95419" lon="6.02836">
        <ele>2035.5999755859</ele>
        <time>2015-08-20T08:57:15.000Z</time>
      </trkpt>
      <trkpt lat="44.95423" lon="6.02828">
        <ele>2033.8000488281</ele>
        <time>2015-08-20T08:57:20.000Z</time>
      </trkpt>
      <trkpt lat="44.95429" lon="6.0283">
        <ele>2034</ele>
        <time>2015-08-20T08:57:25.000Z</time>
      </trkpt>
      <trkpt lat="44.95431" lon="6.0283">
        <ele>2034</ele>
        <time>2015-08-20T08:57:26.000Z</time>
      </trkpt>
      <trkpt lat="44.95435" lon="6.02832">
        <ele>2034.4000244141</ele>
        <time>2015-08-20T08:57:30.000Z</time>
      </trkpt>
      <trkpt lat="44.95437" lon="6.02831">
        <ele>2034</ele>
        <time>2015-08-20T08:57:33.000Z</time>
      </trkpt>
      <trkpt lat="44.95441" lon="6.02831">
        <ele>2034</ele>
        <time>2015-08-20T08:57:37.000Z</time>
      </trkpt>
      <trkpt lat="44.95442" lon="6.02832">
        <ele>2034.1999511719</ele>
        <time>2015-08-20T08:57:38.000Z</time>
      </trkpt>
      <trkpt lat="44.95446" lon="6.02835">
        <ele>2034.8000488281</ele>
        <time>2015-08-20T08:57:42.000Z</time>
      </trkpt>
      <trkpt lat="44.95446" lon="6.02836">
        <ele>2035</ele>
        <time>2015-08-20T08:57:43.000Z</time>
      </trkpt>
      <trkpt lat="44.95448" lon="6.0284">
        <ele>2036</ele>
        <time>2015-08-20T08:57:46.000Z</time>
      </trkpt>
      <trkpt lat="44.95449" lon="6.02841">
        <ele>2036.1999511719</ele>
        <time>2015-08-20T08:57:47.000Z</time>
      </trkpt>
      <trkpt lat="44.95451" lon="6.02841">
        <ele>2036.4000244141</ele>
        <time>2015-08-20T08:57:49.000Z</time>
      </trkpt>
      <trkpt lat="44.95453" lon="6.02841">
        <ele>2036.1999511719</ele>
        <time>2015-08-20T08:57:51.000Z</time>
      </trkpt>
      <trkpt lat="44.9546" lon="6.02846">
        <ele>2037.8000488281</ele>
        <time>2015-08-20T08:57:56.000Z</time>
      </trkpt>
      <trkpt lat="44.95461" lon="6.0285">
        <ele>2039.1999511719</ele>
        <time>2015-08-20T08:57:59.000Z</time>
      </trkpt>
      <trkpt lat="44.95462" lon="6.02852">
        <ele>2039.8000488281</ele>
        <time>2015-08-20T08:58:00.000Z</time>
      </trkpt>
      <trkpt lat="44.95464" lon="6.02855">
        <ele>2041.1999511719</ele>
        <time>2015-08-20T08:58:04.000Z</time>
      </trkpt>
      <trkpt lat="44.9547" lon="6.02857">
        <ele>2043</ele>
        <time>2015-08-20T08:58:09.000Z</time>
      </trkpt>
      <trkpt lat="44.95476" lon="6.02857">
        <ele>2044.5999755859</ele>
        <time>2015-08-20T08:58:14.000Z</time>
      </trkpt>
      <trkpt lat="44.95481" lon="6.02855">
        <ele>2044.8000488281</ele>
        <time>2015-08-20T08:58:18.000Z</time>
      </trkpt>
      <trkpt lat="44.95486" lon="6.0285">
        <ele>2045</ele>
        <time>2015-08-20T08:58:23.000Z</time>
      </trkpt>
      <trkpt lat="44.95492" lon="6.02848">
        <ele>2045.5999755859</ele>
        <time>2015-08-20T08:58:28.000Z</time>
      </trkpt>
      <trkpt lat="44.95496" lon="6.02846">
        <ele>2046</ele>
        <time>2015-08-20T08:58:32.000Z</time>
      </trkpt>
      <trkpt lat="44.95497" lon="6.02846">
        <ele>2046.1999511719</ele>
        <time>2015-08-20T08:58:33.000Z</time>
      </trkpt>
      <trkpt lat="44.95503" lon="6.02843">
        <ele>2046.1999511719</ele>
        <time>2015-08-20T08:58:38.000Z</time>
      </trkpt>
      <trkpt lat="44.95505" lon="6.02841">
        <ele>2046</ele>
        <time>2015-08-20T08:58:40.000Z</time>
      </trkpt>
      <trkpt lat="44.95507" lon="6.02838">
        <ele>2045.5999755859</ele>
        <time>2015-08-20T08:58:43.000Z</time>
      </trkpt>
      <trkpt lat="44.9551" lon="6.02834">
        <ele>2044.5999755859</ele>
        <time>2015-08-20T08:58:47.000Z</time>
      </trkpt>
      <trkpt lat="44.95512" lon="6.02829">
        <ele>2043.4000244141</ele>
        <time>2015-08-20T08:58:51.000Z</time>
      </trkpt>
      <trkpt lat="44.95516" lon="6.02823">
        <ele>2042.1999511719</ele>
        <time>2015-08-20T08:58:56.000Z</time>
      </trkpt>
      <trkpt lat="44.95518" lon="6.02819">
        <ele>2041.1999511719</ele>
        <time>2015-08-20T08:58:59.000Z</time>
      </trkpt>
      <trkpt lat="44.9552" lon="6.02816">
        <ele>2040.5999755859</ele>
        <time>2015-08-20T08:59:01.000Z</time>
      </trkpt>
      <trkpt lat="44.95522" lon="6.02814">
        <ele>2040.4000244141</ele>
        <time>2015-08-20T08:59:03.000Z</time>
      </trkpt>
      <trkpt lat="44.95524" lon="6.02812">
        <ele>2040</ele>
        <time>2015-08-20T08:59:05.000Z</time>
      </trkpt>
      <trkpt lat="44.95525" lon="6.02811">
        <ele>2040</ele>
        <time>2015-08-20T08:59:06.000Z</time>
      </trkpt>
      <trkpt lat="44.9553" lon="6.02809">
        <ele>2040.1999511719</ele>
        <time>2015-08-20T08:59:10.000Z</time>
      </trkpt>
      <trkpt lat="44.95532" lon="6.02808">
        <ele>2040.1999511719</ele>
        <time>2015-08-20T08:59:12.000Z</time>
      </trkpt>
      <trkpt lat="44.95534" lon="6.02807">
        <ele>2040.1999511719</ele>
        <time>2015-08-20T08:59:14.000Z</time>
      </trkpt>
      <trkpt lat="44.95538" lon="6.02801">
        <ele>2039.8000488281</ele>
        <time>2015-08-20T08:59:19.000Z</time>
      </trkpt>
      <trkpt lat="44.95544" lon="6.02798">
        <ele>2040.5999755859</ele>
        <time>2015-08-20T08:59:24.000Z</time>
      </trkpt>
      <trkpt lat="44.95549" lon="6.02795">
        <ele>2042.4000244141</ele>
        <time>2015-08-20T08:59:29.000Z</time>
      </trkpt>
      <trkpt lat="44.95554" lon="6.02793">
        <ele>2043.5999755859</ele>
        <time>2015-08-20T08:59:34.000Z</time>
      </trkpt>
      <trkpt lat="44.95558" lon="6.02792">
        <ele>2045</ele>
        <time>2015-08-20T08:59:38.000Z</time>
      </trkpt>
      <trkpt lat="44.95561" lon="6.02791">
        <ele>2046.1999511719</ele>
        <time>2015-08-20T08:59:42.000Z</time>
      </trkpt>
      <trkpt lat="44.95562" lon="6.0279">
        <ele>2046.4000244141</ele>
        <time>2015-08-20T08:59:43.000Z</time>
      </trkpt>
      <trkpt lat="44.95565" lon="6.02788">
        <ele>2047.1999511719</ele>
        <time>2015-08-20T08:59:47.000Z</time>
      </trkpt>
      <trkpt lat="44.95566" lon="6.02788">
        <ele>2047.5999755859</ele>
        <time>2015-08-20T08:59:48.000Z</time>
      </trkpt>
      <trkpt lat="44.95567" lon="6.02792">
        <ele>2048.8000488281</ele>
        <time>2015-08-20T08:59:51.000Z</time>
      </trkpt>
      <trkpt lat="44.95568" lon="6.02792">
        <ele>2049</ele>
        <time>2015-08-20T08:59:52.000Z</time>
      </trkpt>
      <trkpt lat="44.95568" lon="6.02796">
        <ele>2049.8000488281</ele>
        <time>2015-08-20T08:59:55.000Z</time>
      </trkpt>
      <trkpt lat="44.95571" lon="6.02795">
        <ele>2050.8000488281</ele>
        <time>2015-08-20T09:00:00.000Z</time>
      </trkpt>
      <trkpt lat="44.9557" lon="6.02798">
        <ele>2051.1999511719</ele>
        <time>2015-08-20T09:00:04.000Z</time>
      </trkpt>
      <trkpt lat="44.95568" lon="6.02804">
        <ele>2051.8000488281</ele>
        <time>2015-08-20T09:00:09.000Z</time>
      </trkpt>
      <trkpt lat="44.95568" lon="6.0281">
        <ele>2053.1999511719</ele>
        <time>2015-08-20T09:00:14.000Z</time>
      </trkpt>
      <trkpt lat="44.95567" lon="6.02811">
        <ele>2053.1999511719</ele>
        <time>2015-08-20T09:00:15.000Z</time>
      </trkpt>
      <trkpt lat="44.95566" lon="6.02816">
        <ele>2054.3999023438</ele>
        <time>2015-08-20T09:00:18.000Z</time>
      </trkpt>
      <trkpt lat="44.95564" lon="6.02822">
        <ele>2055.3999023438</ele>
        <time>2015-08-20T09:00:22.000Z</time>
      </trkpt>
      <trkpt lat="44.95562" lon="6.02829">
        <ele>2057</ele>
        <time>2015-08-20T09:00:26.000Z</time>
      </trkpt>
      <trkpt lat="44.95561" lon="6.02839">
        <ele>2059.1999511719</ele>
        <time>2015-08-20T09:00:31.000Z</time>
      </trkpt>
      <trkpt lat="44.95558" lon="6.02845">
        <ele>2060.3999023438</ele>
        <time>2015-08-20T09:00:35.000Z</time>
      </trkpt>
      <trkpt lat="44.95558" lon="6.02846">
        <ele>2060.3999023438</ele>
        <time>2015-08-20T09:00:36.000Z</time>
      </trkpt>
      <trkpt lat="44.95559" lon="6.0285">
        <ele>2062.1999511719</ele>
        <time>2015-08-20T09:00:39.000Z</time>
      </trkpt>
      <trkpt lat="44.95559" lon="6.02852">
        <ele>2062.8000488281</ele>
        <time>2015-08-20T09:00:40.000Z</time>
      </trkpt>
      <trkpt lat="44.95559" lon="6.02858">
        <ele>2065</ele>
        <time>2015-08-20T09:00:43.000Z</time>
      </trkpt>
      <trkpt lat="44.95559" lon="6.0286">
        <ele>2065.1999511719</ele>
        <time>2015-08-20T09:00:44.000Z</time>
      </trkpt>
      <trkpt lat="44.95557" lon="6.02864">
        <ele>2065.8000488281</ele>
        <time>2015-08-20T09:00:47.000Z</time>
      </trkpt>
      <trkpt lat="44.95557" lon="6.02865">
        <ele>2066</ele>
        <time>2015-08-20T09:00:48.000Z</time>
      </trkpt>
      <trkpt lat="44.95556" lon="6.02875">
        <ele>2068.8000488281</ele>
        <time>2015-08-20T09:00:53.000Z</time>
      </trkpt>
      <trkpt lat="44.95553" lon="6.02884">
        <ele>2070</ele>
        <time>2015-08-20T09:00:58.000Z</time>
      </trkpt>
      <trkpt lat="44.9555" lon="6.0289">
        <ele>2071.1999511719</ele>
        <time>2015-08-20T09:01:03.000Z</time>
      </trkpt>
      <trkpt lat="44.95549" lon="6.02894">
        <ele>2072</ele>
        <time>2015-08-20T09:01:06.000Z</time>
      </trkpt>
      <trkpt lat="44.95551" lon="6.02892">
        <ele>2071.8000488281</ele>
        <time>2015-08-20T09:01:10.000Z</time>
      </trkpt>
      <trkpt lat="44.95552" lon="6.02891">
        <ele>2071.8000488281</ele>
        <time>2015-08-20T09:01:11.000Z</time>
      </trkpt>
      <trkpt lat="44.95554" lon="6.02888">
        <ele>2072</ele>
        <time>2015-08-20T09:01:14.000Z</time>
      </trkpt>
      <trkpt lat="44.95556" lon="6.02886">
        <ele>2072.3999023438</ele>
        <time>2015-08-20T09:01:17.000Z</time>
      </trkpt>
      <trkpt lat="44.9556" lon="6.02884">
        <ele>2073.1999511719</ele>
        <time>2015-08-20T09:01:21.000Z</time>
      </trkpt>
      <trkpt lat="44.95562" lon="6.02882">
        <ele>2073.3999023438</ele>
        <time>2015-08-20T09:01:23.000Z</time>
      </trkpt>
      <trkpt lat="44.95567" lon="6.0288">
        <ele>2074.8000488281</ele>
        <time>2015-08-20T09:01:27.000Z</time>
      </trkpt>
      <trkpt lat="44.95569" lon="6.02877">
        <ele>2074.8000488281</ele>
        <time>2015-08-20T09:01:30.000Z</time>
      </trkpt>
      <trkpt lat="44.95573" lon="6.02873">
        <ele>2075</ele>
        <time>2015-08-20T09:01:34.000Z</time>
      </trkpt>
      <trkpt lat="44.95573" lon="6.02872">
        <ele>2074.8000488281</ele>
        <time>2015-08-20T09:01:35.000Z</time>
      </trkpt>
      <trkpt lat="44.95576" lon="6.02869">
        <ele>2075</ele>
        <time>2015-08-20T09:01:39.000Z</time>
      </trkpt>
      <trkpt lat="44.95579" lon="6.02865">
        <ele>2075.1999511719</ele>
        <time>2015-08-20T09:01:43.000Z</time>
      </trkpt>
      <trkpt lat="44.95585" lon="6.02859">
        <ele>2075.6000976562</ele>
        <time>2015-08-20T09:01:49.000Z</time>
      </trkpt>
      <trkpt lat="44.9559" lon="6.02854">
        <ele>2076</ele>
        <time>2015-08-20T09:01:53.000Z</time>
      </trkpt>
      <trkpt lat="44.95591" lon="6.02852">
        <ele>2076</ele>
        <time>2015-08-20T09:01:54.000Z</time>
      </trkpt>
      <trkpt lat="44.956" lon="6.02841">
        <ele>2076</ele>
        <time>2015-08-20T09:02:01.000Z</time>
      </trkpt>
      <trkpt lat="44.95605" lon="6.02838">
        <ele>2076.3999023438</ele>
        <time>2015-08-20T09:02:05.000Z</time>
      </trkpt>
      <trkpt lat="44.95606" lon="6.02836">
        <ele>2076.3999023438</ele>
        <time>2015-08-20T09:02:06.000Z</time>
      </trkpt>
      <trkpt lat="44.95607" lon="6.02836">
        <ele>2076.8000488281</ele>
        <time>2015-08-20T09:02:07.000Z</time>
      </trkpt>
      <trkpt lat="44.95607" lon="6.0284">
        <ele>2078.1999511719</ele>
        <time>2015-08-20T09:02:10.000Z</time>
      </trkpt>
      <trkpt lat="44.95607" lon="6.02843">
        <ele>2079</ele>
        <time>2015-08-20T09:02:11.000Z</time>
      </trkpt>
      <trkpt lat="44.95606" lon="6.0285">
        <ele>2081.1999511719</ele>
        <time>2015-08-20T09:02:15.000Z</time>
      </trkpt>
      <trkpt lat="44.95605" lon="6.02858">
        <ele>2083.1999511719</ele>
        <time>2015-08-20T09:02:19.000Z</time>
      </trkpt>
      <trkpt lat="44.95604" lon="6.02864">
        <ele>2084.8000488281</ele>
        <time>2015-08-20T09:02:22.000Z</time>
      </trkpt>
      <trkpt lat="44.95603" lon="6.02865">
        <ele>2084.8000488281</ele>
        <time>2015-08-20T09:02:23.000Z</time>
      </trkpt>
      <trkpt lat="44.95601" lon="6.02867">
        <ele>2084.8000488281</ele>
        <time>2015-08-20T09:02:26.000Z</time>
      </trkpt>
      <trkpt lat="44.956" lon="6.02872">
        <ele>2085.8000488281</ele>
        <time>2015-08-20T09:02:31.000Z</time>
      </trkpt>
      <trkpt lat="44.95598" lon="6.02879">
        <ele>2087.3999023438</ele>
        <time>2015-08-20T09:02:36.000Z</time>
      </trkpt>
      <trkpt lat="44.95598" lon="6.02884">
        <ele>2088.8000488281</ele>
        <time>2015-08-20T09:02:40.000Z</time>
      </trkpt>
      <trkpt lat="44.95597" lon="6.02887">
        <ele>2089.1999511719</ele>
        <time>2015-08-20T09:02:42.000Z</time>
      </trkpt>
      <trkpt lat="44.95597" lon="6.02889">
        <ele>2089.8000488281</ele>
        <time>2015-08-20T09:02:43.000Z</time>
      </trkpt>
      <trkpt lat="44.95595" lon="6.02891">
        <ele>2089.8000488281</ele>
        <time>2015-08-20T09:02:45.000Z</time>
      </trkpt>
      <trkpt lat="44.95595" lon="6.02892">
        <ele>2090</ele>
        <time>2015-08-20T09:02:46.000Z</time>
      </trkpt>
      <trkpt lat="44.95591" lon="6.02898">
        <ele>2091.3999023438</ele>
        <time>2015-08-20T09:02:51.000Z</time>
      </trkpt>
      <trkpt lat="44.95589" lon="6.02902">
        <ele>2092.3999023438</ele>
        <time>2015-08-20T09:02:55.000Z</time>
      </trkpt>
      <trkpt lat="44.95583" lon="6.02911">
        <ele>2094.8000488281</ele>
        <time>2015-08-20T09:03:02.000Z</time>
      </trkpt>
      <trkpt lat="44.95583" lon="6.02913">
        <ele>2095.3999023438</ele>
        <time>2015-08-20T09:03:03.000Z</time>
      </trkpt>
      <trkpt lat="44.95581" lon="6.02917">
        <ele>2096.6000976562</ele>
        <time>2015-08-20T09:03:06.000Z</time>
      </trkpt>
      <trkpt lat="44.95579" lon="6.02921">
        <ele>2098</ele>
        <time>2015-08-20T09:03:09.000Z</time>
      </trkpt>
      <trkpt lat="44.95577" lon="6.02926">
        <ele>2099</ele>
        <time>2015-08-20T09:03:13.000Z</time>
      </trkpt>
      <trkpt lat="44.95572" lon="6.02933">
        <ele>2100</ele>
        <time>2015-08-20T09:03:19.000Z</time>
      </trkpt>
      <trkpt lat="44.95569" lon="6.02935">
        <ele>2099.3999023438</ele>
        <time>2015-08-20T09:03:23.000Z</time>
      </trkpt>
      <trkpt lat="44.95568" lon="6.02936">
        <ele>2099.1999511719</ele>
        <time>2015-08-20T09:03:24.000Z</time>
      </trkpt>
      <trkpt lat="44.95564" lon="6.02939">
        <ele>2098.6000976562</ele>
        <time>2015-08-20T09:03:28.000Z</time>
      </trkpt>
      <trkpt lat="44.95563" lon="6.02939">
        <ele>2098.3999023438</ele>
        <time>2015-08-20T09:03:29.000Z</time>
      </trkpt>
      <trkpt lat="44.9556" lon="6.02942">
        <ele>2097.8000488281</ele>
        <time>2015-08-20T09:03:31.000Z</time>
      </trkpt>
      <trkpt lat="44.95557" lon="6.02943">
        <ele>2097.1999511719</ele>
        <time>2015-08-20T09:03:33.000Z</time>
      </trkpt>
      <trkpt lat="44.95555" lon="6.02943">
        <ele>2096.1999511719</ele>
        <time>2015-08-20T09:03:35.000Z</time>
      </trkpt>
      <trkpt lat="44.95554" lon="6.02943">
        <ele>2095.6000976562</ele>
        <time>2015-08-20T09:03:36.000Z</time>
      </trkpt>
      <trkpt lat="44.95549" lon="6.02944">
        <ele>2093.8000488281</ele>
        <time>2015-08-20T09:03:40.000Z</time>
      </trkpt>
      <trkpt lat="44.95544" lon="6.02947">
        <ele>2092.6000976562</ele>
        <time>2015-08-20T09:03:45.000Z</time>
      </trkpt>
      <trkpt lat="44.95542" lon="6.02949">
        <ele>2092.3999023438</ele>
        <time>2015-08-20T09:03:47.000Z</time>
      </trkpt>
      <trkpt lat="44.95541" lon="6.0295">
        <ele>2092.1999511719</ele>
        <time>2015-08-20T09:03:49.000Z</time>
      </trkpt>
      <trkpt lat="44.95539" lon="6.02952">
        <ele>2092.6000976562</ele>
        <time>2015-08-20T09:03:51.000Z</time>
      </trkpt>
      <trkpt lat="44.95538" lon="6.02953">
        <ele>2092.8000488281</ele>
        <time>2015-08-20T09:03:54.000Z</time>
      </trkpt>
      <trkpt lat="44.95542" lon="6.02953">
        <ele>2094</ele>
        <time>2015-08-20T09:03:59.000Z</time>
      </trkpt>
      <trkpt lat="44.95544" lon="6.02953">
        <ele>2094.8000488281</ele>
        <time>2015-08-20T09:04:01.000Z</time>
      </trkpt>
      <trkpt lat="44.95546" lon="6.02953">
        <ele>2095.8000488281</ele>
        <time>2015-08-20T09:04:03.000Z</time>
      </trkpt>
      <trkpt lat="44.95548" lon="6.02952">
        <ele>2096.6000976562</ele>
        <time>2015-08-20T09:04:05.000Z</time>
      </trkpt>
      <trkpt lat="44.95552" lon="6.02952">
        <ele>2098.3999023438</ele>
        <time>2015-08-20T09:04:09.000Z</time>
      </trkpt>
      <trkpt lat="44.95554" lon="6.02953">
        <ele>2100</ele>
        <time>2015-08-20T09:04:11.000Z</time>
      </trkpt>
      <trkpt lat="44.95556" lon="6.02955">
        <ele>2101.3999023438</ele>
        <time>2015-08-20T09:04:13.000Z</time>
      </trkpt>
      <trkpt lat="44.95563" lon="6.02955">
        <ele>2105.1999511719</ele>
        <time>2015-08-20T09:04:20.000Z</time>
      </trkpt>
      <trkpt lat="44.95568" lon="6.02956">
        <ele>2108</ele>
        <time>2015-08-20T09:04:24.000Z</time>
      </trkpt>
      <trkpt lat="44.95571" lon="6.02957">
        <ele>2109.8000488281</ele>
        <time>2015-08-20T09:04:27.000Z</time>
      </trkpt>
      <trkpt lat="44.95581" lon="6.02955">
        <ele>2113.6000976562</ele>
        <time>2015-08-20T09:04:36.000Z</time>
      </trkpt>
      <trkpt lat="44.95583" lon="6.02952">
        <ele>2113.1999511719</ele>
        <time>2015-08-20T09:04:40.000Z</time>
      </trkpt>
      <trkpt lat="44.95584" lon="6.0295">
        <ele>2112.8000488281</ele>
        <time>2015-08-20T09:04:41.000Z</time>
      </trkpt>
      <trkpt lat="44.95592" lon="6.02947">
        <ele>2115.3999023438</ele>
        <time>2015-08-20T09:04:48.000Z</time>
      </trkpt>
      <trkpt lat="44.956" lon="6.02944">
        <ele>2117.6000976562</ele>
        <time>2015-08-20T09:04:55.000Z</time>
      </trkpt>
      <trkpt lat="44.9561" lon="6.02939">
        <ele>2119.3999023438</ele>
        <time>2015-08-20T09:05:03.000Z</time>
      </trkpt>
      <trkpt lat="44.95619" lon="6.02933">
        <ele>2120.1999511719</ele>
        <time>2015-08-20T09:05:11.000Z</time>
      </trkpt>
      <trkpt lat="44.95626" lon="6.02932">
        <ele>2122</ele>
        <time>2015-08-20T09:05:17.000Z</time>
      </trkpt>
      <trkpt lat="44.95635" lon="6.02932">
        <ele>2125.3999023438</ele>
        <time>2015-08-20T09:05:25.000Z</time>
      </trkpt>
      <trkpt lat="44.9564" lon="6.02931">
        <ele>2126.6000976562</ele>
        <time>2015-08-20T09:05:31.000Z</time>
      </trkpt>
      <trkpt lat="44.95642" lon="6.0293">
        <ele>2126.8000488281</ele>
        <time>2015-08-20T09:05:33.000Z</time>
      </trkpt>
      <trkpt lat="44.95643" lon="6.02928">
        <ele>2126.1999511719</ele>
        <time>2015-08-20T09:05:35.000Z</time>
      </trkpt>
      <trkpt lat="44.95644" lon="6.02926">
        <ele>2125.6000976562</ele>
        <time>2015-08-20T09:05:36.000Z</time>
      </trkpt>
      <trkpt lat="44.95648" lon="6.02916">
        <ele>2122</ele>
        <time>2015-08-20T09:05:41.000Z</time>
      </trkpt>
      <trkpt lat="44.95655" lon="6.02912">
        <ele>2123.3999023438</ele>
        <time>2015-08-20T09:05:46.000Z</time>
      </trkpt>
      <trkpt lat="44.95663" lon="6.02902">
        <ele>2122.8000488281</ele>
        <time>2015-08-20T09:05:52.000Z</time>
      </trkpt>
      <trkpt lat="44.95669" lon="6.02894">
        <ele>2121.6000976562</ele>
        <time>2015-08-20T09:05:59.000Z</time>
      </trkpt>
      <trkpt lat="44.95674" lon="6.02889">
        <ele>2121.8000488281</ele>
        <time>2015-08-20T09:06:05.000Z</time>
      </trkpt>
      <trkpt lat="44.95676" lon="6.02889">
        <ele>2122.3999023438</ele>
        <time>2015-08-20T09:06:07.000Z</time>
      </trkpt>
      <trkpt lat="44.95676" lon="6.02888">
        <ele>2122.6000976562</ele>
        <time>2015-08-20T09:06:09.000Z</time>
      </trkpt>
      <trkpt lat="44.9568" lon="6.02885">
        <ele>2123.3999023438</ele>
        <time>2015-08-20T09:06:15.000Z</time>
      </trkpt>
      <trkpt lat="44.95683" lon="6.02882">
        <ele>2123.3999023438</ele>
        <time>2015-08-20T09:06:20.000Z</time>
      </trkpt>
      <trkpt lat="44.95685" lon="6.02881">
        <ele>2124</ele>
        <time>2015-08-20T09:06:25.000Z</time>
      </trkpt>
      <trkpt lat="44.95688" lon="6.0288">
        <ele>2124.8000488281</ele>
        <time>2015-08-20T09:06:29.000Z</time>
      </trkpt>
      <trkpt lat="44.95689" lon="6.02875">
        <ele>2123.6000976562</ele>
        <time>2015-08-20T09:06:34.000Z</time>
      </trkpt>
      <trkpt lat="44.9569" lon="6.02865">
        <ele>2121</ele>
        <time>2015-08-20T09:06:39.000Z</time>
      </trkpt>
      <trkpt lat="44.95691" lon="6.0285">
        <ele>2117.1999511719</ele>
        <time>2015-08-20T09:06:44.000Z</time>
      </trkpt>
      <trkpt lat="44.95697" lon="6.0284">
        <ele>2116.3999023438</ele>
        <time>2015-08-20T09:06:49.000Z</time>
      </trkpt>
      <trkpt lat="44.95705" lon="6.02835">
        <ele>2118.6000976562</ele>
        <time>2015-08-20T09:06:55.000Z</time>
      </trkpt>
      <trkpt lat="44.95709" lon="6.02834">
        <ele>2120</ele>
        <time>2015-08-20T09:06:58.000Z</time>
      </trkpt>
      <trkpt lat="44.9571" lon="6.02834">
        <ele>2121</ele>
        <time>2015-08-20T09:07:00.000Z</time>
      </trkpt>
      <trkpt lat="44.95712" lon="6.02833">
        <ele>2121.8000488281</ele>
        <time>2015-08-20T09:07:02.000Z</time>
      </trkpt>
      <trkpt lat="44.95714" lon="6.02832">
        <ele>2122.3999023438</ele>
        <time>2015-08-20T09:07:04.000Z</time>
      </trkpt>
      <trkpt lat="44.95719" lon="6.0283">
        <ele>2124.1999511719</ele>
        <time>2015-08-20T09:07:09.000Z</time>
      </trkpt>
      <trkpt lat="44.95721" lon="6.0283">
        <ele>2125</ele>
        <time>2015-08-20T09:07:11.000Z</time>
      </trkpt>
      <trkpt lat="44.95723" lon="6.02829">
        <ele>2126</ele>
        <time>2015-08-20T09:07:13.000Z</time>
      </trkpt>
      <trkpt lat="44.95725" lon="6.02829">
        <ele>2126.8000488281</ele>
        <time>2015-08-20T09:07:15.000Z</time>
      </trkpt>
      <trkpt lat="44.95728" lon="6.02828">
        <ele>2127.8000488281</ele>
        <time>2015-08-20T09:07:18.000Z</time>
      </trkpt>
      <trkpt lat="44.95729" lon="6.02827">
        <ele>2127.8000488281</ele>
        <time>2015-08-20T09:07:19.000Z</time>
      </trkpt>
      <trkpt lat="44.95731" lon="6.02822">
        <ele>2127.1999511719</ele>
        <time>2015-08-20T09:07:23.000Z</time>
      </trkpt>
      <trkpt lat="44.95738" lon="6.02816">
        <ele>2128</ele>
        <time>2015-08-20T09:07:28.000Z</time>
      </trkpt>
      <trkpt lat="44.95744" lon="6.02814">
        <ele>2129.8000488281</ele>
        <time>2015-08-20T09:07:33.000Z</time>
      </trkpt>
      <trkpt lat="44.9575" lon="6.02806">
        <ele>2129.6000976562</ele>
        <time>2015-08-20T09:07:40.000Z</time>
      </trkpt>
      <trkpt lat="44.95757" lon="6.02806">
        <ele>2132.8000488281</ele>
        <time>2015-08-20T09:07:46.000Z</time>
      </trkpt>
      <trkpt lat="44.95765" lon="6.02807">
        <ele>2136.8000488281</ele>
        <time>2015-08-20T09:07:54.000Z</time>
      </trkpt>
      <trkpt lat="44.95769" lon="6.0281">
        <ele>2139.3999023438</ele>
        <time>2015-08-20T09:07:58.000Z</time>
      </trkpt>
      <trkpt lat="44.95775" lon="6.02815">
        <ele>2144</ele>
        <time>2015-08-20T09:08:05.000Z</time>
      </trkpt>
      <trkpt lat="44.95775" lon="6.02815">
        <ele>2144.3999023438</ele>
        <time>2015-08-20T09:08:06.000Z</time>
      </trkpt>
      <trkpt lat="44.95777" lon="6.02816">
        <ele>2145.1999511719</ele>
        <time>2015-08-20T09:08:08.000Z</time>
      </trkpt>
      <trkpt lat="44.95778" lon="6.02816">
        <ele>2146</ele>
        <time>2015-08-20T09:08:10.000Z</time>
      </trkpt>
      <trkpt lat="44.95779" lon="6.02815">
        <ele>2146</ele>
        <time>2015-08-20T09:08:11.000Z</time>
      </trkpt>
      <trkpt lat="44.95784" lon="6.02813">
        <ele>2147.1999511719</ele>
        <time>2015-08-20T09:08:15.000Z</time>
      </trkpt>
      <trkpt lat="44.95785" lon="6.02814">
        <ele>2148.3999023438</ele>
        <time>2015-08-20T09:08:17.000Z</time>
      </trkpt>
      <trkpt lat="44.95785" lon="6.02815">
        <ele>2148.6000976562</ele>
        <time>2015-08-20T09:08:18.000Z</time>
      </trkpt>
      <trkpt lat="44.95784" lon="6.02816">
        <ele>2148.8000488281</ele>
        <time>2015-08-20T09:08:19.000Z</time>
      </trkpt>
      <trkpt lat="44.95782" lon="6.0282">
        <ele>2149.1999511719</ele>
        <time>2015-08-20T09:08:23.000Z</time>
      </trkpt>
      <trkpt lat="44.95779" lon="6.02823">
        <ele>2148.6000976562</ele>
        <time>2015-08-20T09:08:27.000Z</time>
      </trkpt>
      <trkpt lat="44.95767" lon="6.02826">
        <ele>2144.3999023438</ele>
        <time>2015-08-20T09:08:35.000Z</time>
      </trkpt>
      <trkpt lat="44.95764" lon="6.02826">
        <ele>2143.3999023438</ele>
        <time>2015-08-20T09:08:38.000Z</time>
      </trkpt>
      <trkpt lat="44.95763" lon="6.02827">
        <ele>2143.1999511719</ele>
        <time>2015-08-20T09:08:39.000Z</time>
      </trkpt>
      <trkpt lat="44.9576" lon="6.02831">
        <ele>2143</ele>
        <time>2015-08-20T09:08:43.000Z</time>
      </trkpt>
      <trkpt lat="44.95753" lon="6.02838">
        <ele>2142.8000488281</ele>
        <time>2015-08-20T09:08:50.000Z</time>
      </trkpt>
      <trkpt lat="44.95751" lon="6.02844">
        <ele>2143.8000488281</ele>
        <time>2015-08-20T09:08:55.000Z</time>
      </trkpt>
      <trkpt lat="44.95749" lon="6.02851">
        <ele>2145.3999023438</ele>
        <time>2015-08-20T09:09:01.000Z</time>
      </trkpt>
      <trkpt lat="44.95747" lon="6.02857">
        <ele>2146</ele>
        <time>2015-08-20T09:09:06.000Z</time>
      </trkpt>
      <trkpt lat="44.95744" lon="6.02863">
        <ele>2146.3999023438</ele>
        <time>2015-08-20T09:09:12.000Z</time>
      </trkpt>
      <trkpt lat="44.95742" lon="6.0287">
        <ele>2147.3999023438</ele>
        <time>2015-08-20T09:09:19.000Z</time>
      </trkpt>
      <trkpt lat="44.95743" lon="6.02869">
        <ele>2147.8000488281</ele>
        <time>2015-08-20T09:09:20.000Z</time>
      </trkpt>
      <trkpt lat="44.95746" lon="6.02867">
        <ele>2148.8000488281</ele>
        <time>2015-08-20T09:09:24.000Z</time>
      </trkpt>
      <trkpt lat="44.9575" lon="6.02865">
        <ele>2150</ele>
        <time>2015-08-20T09:09:28.000Z</time>
      </trkpt>
      <trkpt lat="44.95751" lon="6.02864">
        <ele>2150.3999023438</ele>
        <time>2015-08-20T09:09:29.000Z</time>
      </trkpt>
      <trkpt lat="44.95753" lon="6.02863">
        <ele>2151.3999023438</ele>
        <time>2015-08-20T09:09:32.000Z</time>
      </trkpt>
      <trkpt lat="44.95756" lon="6.02862">
        <ele>2152</ele>
        <time>2015-08-20T09:09:35.000Z</time>
      </trkpt>
      <trkpt lat="44.95759" lon="6.0286">
        <ele>2152.8000488281</ele>
        <time>2015-08-20T09:09:39.000Z</time>
      </trkpt>
      <trkpt lat="44.9576" lon="6.02859">
        <ele>2153.3999023438</ele>
        <time>2015-08-20T09:09:41.000Z</time>
      </trkpt>
      <trkpt lat="44.95764" lon="6.02857">
        <ele>2154</ele>
        <time>2015-08-20T09:09:44.000Z</time>
      </trkpt>
      <trkpt lat="44.95765" lon="6.02857">
        <ele>2154.6000976562</ele>
        <time>2015-08-20T09:09:45.000Z</time>
      </trkpt>
      <trkpt lat="44.95768" lon="6.02857">
        <ele>2156.3999023438</ele>
        <time>2015-08-20T09:09:48.000Z</time>
      </trkpt>
      <trkpt lat="44.95774" lon="6.02858">
        <ele>2159.3999023438</ele>
        <time>2015-08-20T09:09:53.000Z</time>
      </trkpt>
      <trkpt lat="44.95777" lon="6.02859">
        <ele>2160.6000976562</ele>
        <time>2015-08-20T09:09:56.000Z</time>
      </trkpt>
      <trkpt lat="44.95777" lon="6.0286">
        <ele>2161</ele>
        <time>2015-08-20T09:09:57.000Z</time>
      </trkpt>
      <trkpt lat="44.95774" lon="6.02863">
        <ele>2161</ele>
        <time>2015-08-20T09:10:00.000Z</time>
      </trkpt>
      <trkpt lat="44.95773" lon="6.02865">
        <ele>2160.8000488281</ele>
        <time>2015-08-20T09:10:02.000Z</time>
      </trkpt>
      <trkpt lat="44.95771" lon="6.02866">
        <ele>2160.8000488281</ele>
        <time>2015-08-20T09:10:04.000Z</time>
      </trkpt>
      <trkpt lat="44.95768" lon="6.02871">
        <ele>2161</ele>
        <time>2015-08-20T09:10:09.000Z</time>
      </trkpt>
      <trkpt lat="44.95763" lon="6.02881">
        <ele>2161.6000976562</ele>
        <time>2015-08-20T09:10:16.000Z</time>
      </trkpt>
      <trkpt lat="44.95762" lon="6.02885">
        <ele>2162.1999511719</ele>
        <time>2015-08-20T09:10:19.000Z</time>
      </trkpt>
      <trkpt lat="44.95762" lon="6.02886">
        <ele>2162.6000976562</ele>
        <time>2015-08-20T09:10:20.000Z</time>
      </trkpt>
      <trkpt lat="44.95761" lon="6.02887">
        <ele>2162.6000976562</ele>
        <time>2015-08-20T09:10:21.000Z</time>
      </trkpt>
      <trkpt lat="44.9576" lon="6.02888">
        <ele>2162.1999511719</ele>
        <time>2015-08-20T09:10:23.000Z</time>
      </trkpt>
      <trkpt lat="44.9576" lon="6.0289">
        <ele>2162.6000976562</ele>
        <time>2015-08-20T09:10:25.000Z</time>
      </trkpt>
      <trkpt lat="44.95758" lon="6.02893">
        <ele>2162.6000976562</ele>
        <time>2015-08-20T09:10:27.000Z</time>
      </trkpt>
      <trkpt lat="44.95756" lon="6.02896">
        <ele>2163</ele>
        <time>2015-08-20T09:10:32.000Z</time>
      </trkpt>
      <trkpt lat="44.95754" lon="6.02901">
        <ele>2163</ele>
        <time>2015-08-20T09:10:37.000Z</time>
      </trkpt>
      <trkpt lat="44.95751" lon="6.02906">
        <ele>2163.1999511719</ele>
        <time>2015-08-20T09:10:41.000Z</time>
      </trkpt>
      <trkpt lat="44.9575" lon="6.02907">
        <ele>2163.3999023438</ele>
        <time>2015-08-20T09:10:42.000Z</time>
      </trkpt>
      <trkpt lat="44.95747" lon="6.02913">
        <ele>2164</ele>
        <time>2015-08-20T09:10:46.000Z</time>
      </trkpt>
      <trkpt lat="44.95748" lon="6.02915">
        <ele>2164.6000976562</ele>
        <time>2015-08-20T09:10:47.000Z</time>
      </trkpt>
      <trkpt lat="44.95748" lon="6.02916">
        <ele>2165.1999511719</ele>
        <time>2015-08-20T09:10:48.000Z</time>
      </trkpt>
      <trkpt lat="44.95748" lon="6.02925">
        <ele>2168.3999023438</ele>
        <time>2015-08-20T09:10:54.000Z</time>
      </trkpt>
      <trkpt lat="44.95748" lon="6.0293">
        <ele>2170</ele>
        <time>2015-08-20T09:10:57.000Z</time>
      </trkpt>
      <trkpt lat="44.95749" lon="6.02933">
        <ele>2171.3999023438</ele>
        <time>2015-08-20T09:10:59.000Z</time>
      </trkpt>
      <trkpt lat="44.95749" lon="6.02936">
        <ele>2172.8000488281</ele>
        <time>2015-08-20T09:11:04.000Z</time>
      </trkpt>
      <trkpt lat="44.9575" lon="6.02931">
        <ele>2171.3999023438</ele>
        <time>2015-08-20T09:11:08.000Z</time>
      </trkpt>
      <trkpt lat="44.95753" lon="6.02921">
        <ele>2169.6000976562</ele>
        <time>2015-08-20T09:11:14.000Z</time>
      </trkpt>
      <trkpt lat="44.95755" lon="6.02917">
        <ele>2169</ele>
        <time>2015-08-20T09:11:18.000Z</time>
      </trkpt>
      <trkpt lat="44.95756" lon="6.02915">
        <ele>2169.1999511719</ele>
        <time>2015-08-20T09:11:19.000Z</time>
      </trkpt>
      <trkpt lat="44.95761" lon="6.02911">
        <ele>2169.8000488281</ele>
        <time>2015-08-20T09:11:24.000Z</time>
      </trkpt>
      <trkpt lat="44.95765" lon="6.02909">
        <ele>2171.1999511719</ele>
        <time>2015-08-20T09:11:29.000Z</time>
      </trkpt>
      <trkpt lat="44.95768" lon="6.02904">
        <ele>2171.6000976562</ele>
        <time>2015-08-20T09:11:34.000Z</time>
      </trkpt>
      <trkpt lat="44.95771" lon="6.02903">
        <ele>2172.6000976562</ele>
        <time>2015-08-20T09:11:37.000Z</time>
      </trkpt>
      <trkpt lat="44.95772" lon="6.02903">
        <ele>2173</ele>
        <time>2015-08-20T09:11:38.000Z</time>
      </trkpt>
      <trkpt lat="44.9578" lon="6.029">
        <ele>2176.1999511719</ele>
        <time>2015-08-20T09:11:45.000Z</time>
      </trkpt>
      <trkpt lat="44.95781" lon="6.029">
        <ele>2176.6000976562</ele>
        <time>2015-08-20T09:11:46.000Z</time>
      </trkpt>
      <trkpt lat="44.95785" lon="6.02899">
        <ele>2178.3999023438</ele>
        <time>2015-08-20T09:11:50.000Z</time>
      </trkpt>
      <trkpt lat="44.95786" lon="6.02899">
        <ele>2179</ele>
        <time>2015-08-20T09:11:51.000Z</time>
      </trkpt>
      <trkpt lat="44.95788" lon="6.02899">
        <ele>2180</ele>
        <time>2015-08-20T09:11:53.000Z</time>
      </trkpt>
      <trkpt lat="44.95789" lon="6.02899">
        <ele>2180.3999023438</ele>
        <time>2015-08-20T09:11:54.000Z</time>
      </trkpt>
      <trkpt lat="44.95793" lon="6.02899">
        <ele>2182.1999511719</ele>
        <time>2015-08-20T09:11:58.000Z</time>
      </trkpt>
      <trkpt lat="44.95795" lon="6.02899">
        <ele>2183</ele>
        <time>2015-08-20T09:11:59.000Z</time>
      </trkpt>
      <trkpt lat="44.95798" lon="6.02899">
        <ele>2184.8000488281</ele>
        <time>2015-08-20T09:12:03.000Z</time>
      </trkpt>
      <trkpt lat="44.95801" lon="6.02898">
        <ele>2185.6000976562</ele>
        <time>2015-08-20T09:12:05.000Z</time>
      </trkpt>
      <trkpt lat="44.95803" lon="6.02899">
        <ele>2187</ele>
        <time>2015-08-20T09:12:07.000Z</time>
      </trkpt>
      <trkpt lat="44.95806" lon="6.029">
        <ele>2188.6000976562</ele>
        <time>2015-08-20T09:12:10.000Z</time>
      </trkpt>
      <trkpt lat="44.95806" lon="6.02901">
        <ele>2189.1999511719</ele>
        <time>2015-08-20T09:12:11.000Z</time>
      </trkpt>
      <trkpt lat="44.95807" lon="6.02903">
        <ele>2190.3999023438</ele>
        <time>2015-08-20T09:12:14.000Z</time>
      </trkpt>
      <trkpt lat="44.95807" lon="6.02904">
        <ele>2190.8000488281</ele>
        <time>2015-08-20T09:12:15.000Z</time>
      </trkpt>
      <trkpt lat="44.95807" lon="6.02905">
        <ele>2190.8000488281</ele>
        <time>2015-08-20T09:12:16.000Z</time>
      </trkpt>
      <trkpt lat="44.95806" lon="6.02907">
        <ele>2191</ele>
        <time>2015-08-20T09:12:19.000Z</time>
      </trkpt>
      <trkpt lat="44.95803" lon="6.02911">
        <ele>2191</ele>
        <time>2015-08-20T09:12:24.000Z</time>
      </trkpt>
      <trkpt lat="44.95801" lon="6.02915">
        <ele>2191.6000976562</ele>
        <time>2015-08-20T09:12:30.000Z</time>
      </trkpt>
      <trkpt lat="44.95799" lon="6.02919">
        <ele>2192</ele>
        <time>2015-08-20T09:12:35.000Z</time>
      </trkpt>
      <trkpt lat="44.95797" lon="6.02923">
        <ele>2192.1999511719</ele>
        <time>2015-08-20T09:12:39.000Z</time>
      </trkpt>
      <trkpt lat="44.95794" lon="6.02925">
        <ele>2191.8000488281</ele>
        <time>2015-08-20T09:12:43.000Z</time>
      </trkpt>
      <trkpt lat="44.95794" lon="6.02927">
        <ele>2192</ele>
        <time>2015-08-20T09:12:44.000Z</time>
      </trkpt>
      <trkpt lat="44.95793" lon="6.02929">
        <ele>2192.3999023438</ele>
        <time>2015-08-20T09:12:46.000Z</time>
      </trkpt>
      <trkpt lat="44.95793" lon="6.0293">
        <ele>2192.6000976562</ele>
        <time>2015-08-20T09:12:47.000Z</time>
      </trkpt>
      <trkpt lat="44.95792" lon="6.02931">
        <ele>2192.6000976562</ele>
        <time>2015-08-20T09:12:48.000Z</time>
      </trkpt>
      <trkpt lat="44.95791" lon="6.02933">
        <ele>2192.6000976562</ele>
        <time>2015-08-20T09:12:51.000Z</time>
      </trkpt>
      <trkpt lat="44.95788" lon="6.02937">
        <ele>2192.1999511719</ele>
        <time>2015-08-20T09:12:55.000Z</time>
      </trkpt>
      <trkpt lat="44.95787" lon="6.02939">
        <ele>2192.8000488281</ele>
        <time>2015-08-20T09:12:57.000Z</time>
      </trkpt>
      <trkpt lat="44.95786" lon="6.02945">
        <ele>2194.1999511719</ele>
        <time>2015-08-20T09:13:02.000Z</time>
      </trkpt>
      <trkpt lat="44.95785" lon="6.0295">
        <ele>2195.3999023438</ele>
        <time>2015-08-20T09:13:06.000Z</time>
      </trkpt>
      <trkpt lat="44.95784" lon="6.02956">
        <ele>2197</ele>
        <time>2015-08-20T09:13:10.000Z</time>
      </trkpt>
      <trkpt lat="44.95783" lon="6.02962">
        <ele>2198</ele>
        <time>2015-08-20T09:13:14.000Z</time>
      </trkpt>
      <trkpt lat="44.9578" lon="6.02971">
        <ele>2200.8000488281</ele>
        <time>2015-08-20T09:13:20.000Z</time>
      </trkpt>
      <trkpt lat="44.95778" lon="6.02979">
        <ele>2203.6000976562</ele>
        <time>2015-08-20T09:13:25.000Z</time>
      </trkpt>
      <trkpt lat="44.95777" lon="6.02985">
        <ele>2207.1999511719</ele>
        <time>2015-08-20T09:13:30.000Z</time>
      </trkpt>
      <trkpt lat="44.95776" lon="6.02988">
        <ele>2208.3999023438</ele>
        <time>2015-08-20T09:13:34.000Z</time>
      </trkpt>
      <trkpt lat="44.95775" lon="6.02989">
        <ele>2208.3999023438</ele>
        <time>2015-08-20T09:13:35.000Z</time>
      </trkpt>
      <trkpt lat="44.95773" lon="6.0299">
        <ele>2208.1999511719</ele>
        <time>2015-08-20T09:13:37.000Z</time>
      </trkpt>
      <trkpt lat="44.95769" lon="6.02992">
        <ele>2208.3999023438</ele>
        <time>2015-08-20T09:13:39.000Z</time>
      </trkpt>
      <trkpt lat="44.95766" lon="6.03005">
        <ele>2215</ele>
        <time>2015-08-20T09:13:44.000Z</time>
      </trkpt>
      <trkpt lat="44.95765" lon="6.03008">
        <ele>2216.1999511719</ele>
        <time>2015-08-20T09:13:45.000Z</time>
      </trkpt>
      <trkpt lat="44.95765" lon="6.03015">
        <ele>2220.6000976562</ele>
        <time>2015-08-20T09:13:48.000Z</time>
      </trkpt>
      <trkpt lat="44.95764" lon="6.03017">
        <ele>2221.3999023438</ele>
        <time>2015-08-20T09:13:49.000Z</time>
      </trkpt>
      <trkpt lat="44.95764" lon="6.03016">
        <ele>2220.8000488281</ele>
        <time>2015-08-20T09:13:53.000Z</time>
      </trkpt>
      <trkpt lat="44.95766" lon="6.03013">
        <ele>2219.6000976562</ele>
        <time>2015-08-20T09:13:56.000Z</time>
      </trkpt>
      <trkpt lat="44.95768" lon="6.0301">
        <ele>2218.1999511719</ele>
        <time>2015-08-20T09:13:59.000Z</time>
      </trkpt>
      <trkpt lat="44.95771" lon="6.03006">
        <ele>2217.6000976562</ele>
        <time>2015-08-20T09:14:03.000Z</time>
      </trkpt>
      <trkpt lat="44.95771" lon="6.03006">
        <ele>2217.1999511719</ele>
        <time>2015-08-20T09:14:04.000Z</time>
      </trkpt>
      <trkpt lat="44.95772" lon="6.03004">
        <ele>2217.1999511719</ele>
        <time>2015-08-20T09:14:05.000Z</time>
      </trkpt>
      <trkpt lat="44.95774" lon="6.03003">
        <ele>2217</ele>
        <time>2015-08-20T09:14:07.000Z</time>
      </trkpt>
      <trkpt lat="44.95779" lon="6.03">
        <ele>2217.1999511719</ele>
        <time>2015-08-20T09:14:12.000Z</time>
      </trkpt>
      <trkpt lat="44.95783" lon="6.02998">
        <ele>2217.3999023438</ele>
        <time>2015-08-20T09:14:17.000Z</time>
      </trkpt>
      <trkpt lat="44.95783" lon="6.02998">
        <ele>2217.8000488281</ele>
        <time>2015-08-20T09:14:18.000Z</time>
      </trkpt>
      <trkpt lat="44.95786" lon="6.02996">
        <ele>2217.6000976562</ele>
        <time>2015-08-20T09:14:22.000Z</time>
      </trkpt>
      <trkpt lat="44.95787" lon="6.02995">
        <ele>2217.3999023438</ele>
        <time>2015-08-20T09:14:24.000Z</time>
      </trkpt>
      <trkpt lat="44.95788" lon="6.02995">
        <ele>2217.8000488281</ele>
        <time>2015-08-20T09:14:27.000Z</time>
      </trkpt>
      <trkpt lat="44.9579" lon="6.0299">
        <ele>2215.8000488281</ele>
        <time>2015-08-20T09:14:32.000Z</time>
      </trkpt>
      <trkpt lat="44.95791" lon="6.02986">
        <ele>2213.1999511719</ele>
        <time>2015-08-20T09:14:37.000Z</time>
      </trkpt>
      <trkpt lat="44.95799" lon="6.02975">
        <ele>2210.8000488281</ele>
        <time>2015-08-20T09:14:44.000Z</time>
      </trkpt>
      <trkpt lat="44.95806" lon="6.0297">
        <ele>2212.3999023438</ele>
        <time>2015-08-20T09:14:49.000Z</time>
      </trkpt>
      <trkpt lat="44.95807" lon="6.0297">
        <ele>2213</ele>
        <time>2015-08-20T09:14:50.000Z</time>
      </trkpt>
      <trkpt lat="44.9581" lon="6.02969">
        <ele>2214.1999511719</ele>
        <time>2015-08-20T09:14:54.000Z</time>
      </trkpt>
      <trkpt lat="44.95815" lon="6.02968">
        <ele>2216.1999511719</ele>
        <time>2015-08-20T09:15:00.000Z</time>
      </trkpt>
      <trkpt lat="44.9582" lon="6.02968">
        <ele>2218.1999511719</ele>
        <time>2015-08-20T09:15:05.000Z</time>
      </trkpt>
      <trkpt lat="44.95822" lon="6.02968">
        <ele>2219.3999023438</ele>
        <time>2015-08-20T09:15:08.000Z</time>
      </trkpt>
      <trkpt lat="44.95824" lon="6.02968">
        <ele>2220.6000976562</ele>
        <time>2015-08-20T09:15:11.000Z</time>
      </trkpt>
      <trkpt lat="44.95826" lon="6.02968">
        <ele>2221.3999023438</ele>
        <time>2015-08-20T09:15:13.000Z</time>
      </trkpt>
      <trkpt lat="44.9583" lon="6.0297">
        <ele>2223.8000488281</ele>
        <time>2015-08-20T09:15:19.000Z</time>
      </trkpt>
      <trkpt lat="44.95835" lon="6.02969">
        <ele>2225.6000976562</ele>
        <time>2015-08-20T09:15:25.000Z</time>
      </trkpt>
      <trkpt lat="44.9584" lon="6.02969">
        <ele>2228.1999511719</ele>
        <time>2015-08-20T09:15:31.000Z</time>
      </trkpt>
      <trkpt lat="44.95849" lon="6.02972">
        <ele>2233.8000488281</ele>
        <time>2015-08-20T09:15:39.000Z</time>
      </trkpt>
      <trkpt lat="44.95853" lon="6.02973">
        <ele>2235.6000976562</ele>
        <time>2015-08-20T09:15:45.000Z</time>
      </trkpt>
      <trkpt lat="44.95862" lon="6.02972">
        <ele>2239.8000488281</ele>
        <time>2015-08-20T09:15:58.000Z</time>
      </trkpt>
      <trkpt lat="44.95862" lon="6.02973">
        <ele>2240.3999023438</ele>
        <time>2015-08-20T09:15:59.000Z</time>
      </trkpt>
      <trkpt lat="44.9586" lon="6.02975">
        <ele>2239.8000488281</ele>
        <time>2015-08-20T09:16:02.000Z</time>
      </trkpt>
      <trkpt lat="44.95858" lon="6.02975">
        <ele>2239.1999511719</ele>
        <time>2015-08-20T09:16:04.000Z</time>
      </trkpt>
      <trkpt lat="44.95854" lon="6.02978">
        <ele>2238.8000488281</ele>
        <time>2015-08-20T09:16:08.000Z</time>
      </trkpt>
      <trkpt lat="44.95851" lon="6.02979">
        <ele>2237.8000488281</ele>
        <time>2015-08-20T09:16:12.000Z</time>
      </trkpt>
      <trkpt lat="44.95848" lon="6.0298">
        <ele>2236.3999023438</ele>
        <time>2015-08-20T09:16:19.000Z</time>
      </trkpt>
      <trkpt lat="44.95843" lon="6.02983">
        <ele>2235.6000976562</ele>
        <time>2015-08-20T09:16:24.000Z</time>
      </trkpt>
      <trkpt lat="44.95838" lon="6.02987">
        <ele>2234.8000488281</ele>
        <time>2015-08-20T09:16:30.000Z</time>
      </trkpt>
      <trkpt lat="44.95836" lon="6.0299">
        <ele>2235.6000976562</ele>
        <time>2015-08-20T09:16:34.000Z</time>
      </trkpt>
      <trkpt lat="44.95832" lon="6.02993">
        <ele>2235.1999511719</ele>
        <time>2015-08-20T09:16:38.000Z</time>
      </trkpt>
      <trkpt lat="44.95828" lon="6.02997">
        <ele>2235.3999023438</ele>
        <time>2015-08-20T09:16:42.000Z</time>
      </trkpt>
      <trkpt lat="44.95828" lon="6.02998">
        <ele>2235.8000488281</ele>
        <time>2015-08-20T09:16:43.000Z</time>
      </trkpt>
      <trkpt lat="44.95827" lon="6.03003">
        <ele>2237.3999023438</ele>
        <time>2015-08-20T09:16:47.000Z</time>
      </trkpt>
      <trkpt lat="44.95826" lon="6.03005">
        <ele>2238</ele>
        <time>2015-08-20T09:16:49.000Z</time>
      </trkpt>
      <trkpt lat="44.95824" lon="6.03009">
        <ele>2238.6000976562</ele>
        <time>2015-08-20T09:16:53.000Z</time>
      </trkpt>
      <trkpt lat="44.95823" lon="6.03013">
        <ele>2240.6000976562</ele>
        <time>2015-08-20T09:16:56.000Z</time>
      </trkpt>
      <trkpt lat="44.95822" lon="6.03016">
        <ele>2242.3999023438</ele>
        <time>2015-08-20T09:16:59.000Z</time>
      </trkpt>
      <trkpt lat="44.9582" lon="6.0302">
        <ele>2244.6000976562</ele>
        <time>2015-08-20T09:17:03.000Z</time>
      </trkpt>
      <trkpt lat="44.95819" lon="6.03031">
        <ele>2250.6000976562</ele>
        <time>2015-08-20T09:17:14.000Z</time>
      </trkpt>
      <trkpt lat="44.95819" lon="6.03033">
        <ele>2251.8000488281</ele>
        <time>2015-08-20T09:17:19.000Z</time>
      </trkpt>
      <trkpt lat="44.9582" lon="6.03033">
        <ele>2252.6000976562</ele>
        <time>2015-08-20T09:17:25.000Z</time>
      </trkpt>
      <trkpt lat="44.95823" lon="6.03032">
        <ele>2252.8000488281</ele>
        <time>2015-08-20T09:17:32.000Z</time>
      </trkpt>
      <trkpt lat="44.95827" lon="6.03029">
        <ele>2252.3999023438</ele>
        <time>2015-08-20T09:17:39.000Z</time>
      </trkpt>
      <trkpt lat="44.95832" lon="6.03027">
        <ele>2252.6000976562</ele>
        <time>2015-08-20T09:17:44.000Z</time>
      </trkpt>
      <trkpt lat="44.95836" lon="6.03024">
        <ele>2252.1999511719</ele>
        <time>2015-08-20T09:17:48.000Z</time>
      </trkpt>
      <trkpt lat="44.95838" lon="6.03023">
        <ele>2252.3999023438</ele>
        <time>2015-08-20T09:17:50.000Z</time>
      </trkpt>
      <trkpt lat="44.95843" lon="6.03024">
        <ele>2255.1999511719</ele>
        <time>2015-08-20T09:17:55.000Z</time>
      </trkpt>
      <trkpt lat="44.95848" lon="6.03024">
        <ele>2257.3999023438</ele>
        <time>2015-08-20T09:18:00.000Z</time>
      </trkpt>
      <trkpt lat="44.95852" lon="6.03024">
        <ele>2259.6000976562</ele>
        <time>2015-08-20T09:18:05.000Z</time>
      </trkpt>
      <trkpt lat="44.95856" lon="6.03024">
        <ele>2261</ele>
        <time>2015-08-20T09:18:09.000Z</time>
      </trkpt>
      <trkpt lat="44.95859" lon="6.03023">
        <ele>2262.3999023438</ele>
        <time>2015-08-20T09:18:14.000Z</time>
      </trkpt>
      <trkpt lat="44.95863" lon="6.03022">
        <ele>2263.6000976562</ele>
        <time>2015-08-20T09:18:18.000Z</time>
      </trkpt>
      <trkpt lat="44.95868" lon="6.0302">
        <ele>2265.1999511719</ele>
        <time>2015-08-20T09:18:22.000Z</time>
      </trkpt>
      <trkpt lat="44.95869" lon="6.0302">
        <ele>2265.8000488281</ele>
        <time>2015-08-20T09:18:24.000Z</time>
      </trkpt>
      <trkpt lat="44.9587" lon="6.03021">
        <ele>2266.8000488281</ele>
        <time>2015-08-20T09:18:25.000Z</time>
      </trkpt>
      <trkpt lat="44.95872" lon="6.03022">
        <ele>2268.1999511719</ele>
        <time>2015-08-20T09:18:28.000Z</time>
      </trkpt>
      <trkpt lat="44.95876" lon="6.03024">
        <ele>2270.6000976562</ele>
        <time>2015-08-20T09:18:32.000Z</time>
      </trkpt>
      <trkpt lat="44.95881" lon="6.03027">
        <ele>2274</ele>
        <time>2015-08-20T09:18:37.000Z</time>
      </trkpt>
      <trkpt lat="44.95883" lon="6.03029">
        <ele>2275.1999511719</ele>
        <time>2015-08-20T09:18:42.000Z</time>
      </trkpt>
      <trkpt lat="44.95886" lon="6.03032">
        <ele>2277.6000976562</ele>
        <time>2015-08-20T09:18:46.000Z</time>
      </trkpt>
      <trkpt lat="44.95889" lon="6.03032">
        <ele>2278.6000976562</ele>
        <time>2015-08-20T09:18:51.000Z</time>
      </trkpt>
      <trkpt lat="44.95891" lon="6.0303">
        <ele>2278.1999511719</ele>
        <time>2015-08-20T09:18:56.000Z</time>
      </trkpt>
      <trkpt lat="44.95895" lon="6.03033">
        <ele>2281</ele>
        <time>2015-08-20T09:19:01.000Z</time>
      </trkpt>
      <trkpt lat="44.95897" lon="6.03034">
        <ele>2282</ele>
        <time>2015-08-20T09:19:04.000Z</time>
      </trkpt>
      <trkpt lat="44.95898" lon="6.03035">
        <ele>2282.6000976562</ele>
        <time>2015-08-20T09:19:05.000Z</time>
      </trkpt>
      <trkpt lat="44.95901" lon="6.03036">
        <ele>2284.6000976562</ele>
        <time>2015-08-20T09:19:10.000Z</time>
      </trkpt>
      <trkpt lat="44.95902" lon="6.03036">
        <ele>2284.8000488281</ele>
        <time>2015-08-20T09:19:11.000Z</time>
      </trkpt>
      <trkpt lat="44.95903" lon="6.03036">
        <ele>2284.8000488281</ele>
        <time>2015-08-20T09:19:15.000Z</time>
      </trkpt>
      <trkpt lat="44.95905" lon="6.03034">
        <ele>2284.8000488281</ele>
        <time>2015-08-20T09:19:22.000Z</time>
      </trkpt>
      <trkpt lat="44.95906" lon="6.03027">
        <ele>2281.3999023438</ele>
        <time>2015-08-20T09:19:28.000Z</time>
      </trkpt>
      <trkpt lat="44.95909" lon="6.03016">
        <ele>2277.1999511719</ele>
        <time>2015-08-20T09:19:34.000Z</time>
      </trkpt>
      <trkpt lat="44.9591" lon="6.0301">
        <ele>2274.6000976562</ele>
        <time>2015-08-20T09:19:38.000Z</time>
      </trkpt>
      <trkpt lat="44.95913" lon="6.03004">
        <ele>2273.1999511719</ele>
        <time>2015-08-20T09:19:41.000Z</time>
      </trkpt>
      <trkpt lat="44.95919" lon="6.02991">
        <ele>2269.8000488281</ele>
        <time>2015-08-20T09:19:47.000Z</time>
      </trkpt>
      <trkpt lat="44.95928" lon="6.02985">
        <ele>2270.8000488281</ele>
        <time>2015-08-20T09:19:53.000Z</time>
      </trkpt>
      <trkpt lat="44.95935" lon="6.02983">
        <ele>2272</ele>
        <time>2015-08-20T09:19:58.000Z</time>
      </trkpt>
      <trkpt lat="44.9594" lon="6.02981">
        <ele>2273.1999511719</ele>
        <time>2015-08-20T09:20:03.000Z</time>
      </trkpt>
      <trkpt lat="44.95941" lon="6.02981">
        <ele>2273.3999023438</ele>
        <time>2015-08-20T09:20:05.000Z</time>
      </trkpt>
      <trkpt lat="44.95943" lon="6.02981">
        <ele>2273.8000488281</ele>
        <time>2015-08-20T09:20:06.000Z</time>
      </trkpt>
      <trkpt lat="44.95944" lon="6.0298">
        <ele>2274</ele>
        <time>2015-08-20T09:20:07.000Z</time>
      </trkpt>
      <trkpt lat="44.95948" lon="6.02979">
        <ele>2275</ele>
        <time>2015-08-20T09:20:11.000Z</time>
      </trkpt>
      <trkpt lat="44.9595" lon="6.02979">
        <ele>2275.8000488281</ele>
        <time>2015-08-20T09:20:13.000Z</time>
      </trkpt>
      <trkpt lat="44.95955" lon="6.02978">
        <ele>2276.8000488281</ele>
        <time>2015-08-20T09:20:17.000Z</time>
      </trkpt>
      <trkpt lat="44.95956" lon="6.02978">
        <ele>2277.1999511719</ele>
        <time>2015-08-20T09:20:18.000Z</time>
      </trkpt>
      <trkpt lat="44.95961" lon="6.02975">
        <ele>2278.6000976562</ele>
        <time>2015-08-20T09:20:24.000Z</time>
      </trkpt>
      <trkpt lat="44.95963" lon="6.02968">
        <ele>2277.8000488281</ele>
        <time>2015-08-20T09:20:29.000Z</time>
      </trkpt>
      <trkpt lat="44.95963" lon="6.02958">
        <ele>2275</ele>
        <time>2015-08-20T09:20:35.000Z</time>
      </trkpt>
      <trkpt lat="44.95963" lon="6.02956">
        <ele>2274.6000976562</ele>
        <time>2015-08-20T09:20:36.000Z</time>
      </trkpt>
      <trkpt lat="44.95965" lon="6.0295">
        <ele>2274.1999511719</ele>
        <time>2015-08-20T09:20:40.000Z</time>
      </trkpt>
      <trkpt lat="44.95967" lon="6.02943">
        <ele>2273.3999023438</ele>
        <time>2015-08-20T09:20:46.000Z</time>
      </trkpt>
      <trkpt lat="44.95969" lon="6.02938">
        <ele>2272.8000488281</ele>
        <time>2015-08-20T09:20:50.000Z</time>
      </trkpt>
      <trkpt lat="44.95969" lon="6.02936">
        <ele>2272.3999023438</ele>
        <time>2015-08-20T09:20:51.000Z</time>
      </trkpt>
      <trkpt lat="44.9597" lon="6.02933">
        <ele>2272.3999023438</ele>
        <time>2015-08-20T09:20:53.000Z</time>
      </trkpt>
      <trkpt lat="44.95971" lon="6.02929">
        <ele>2271.8000488281</ele>
        <time>2015-08-20T09:20:56.000Z</time>
      </trkpt>
      <trkpt lat="44.95974" lon="6.02922">
        <ele>2271.3999023438</ele>
        <time>2015-08-20T09:21:01.000Z</time>
      </trkpt>
      <trkpt lat="44.95977" lon="6.02917">
        <ele>2271.8000488281</ele>
        <time>2015-08-20T09:21:06.000Z</time>
      </trkpt>
      <trkpt lat="44.95978" lon="6.02916">
        <ele>2272</ele>
        <time>2015-08-20T09:21:07.000Z</time>
      </trkpt>
      <trkpt lat="44.95979" lon="6.02916">
        <ele>2272.3999023438</ele>
        <time>2015-08-20T09:21:08.000Z</time>
      </trkpt>
      <trkpt lat="44.95983" lon="6.02914">
        <ele>2273.8000488281</ele>
        <time>2015-08-20T09:21:12.000Z</time>
      </trkpt>
      <trkpt lat="44.95988" lon="6.02911">
        <ele>2275</ele>
        <time>2015-08-20T09:21:17.000Z</time>
      </trkpt>
      <trkpt lat="44.95993" lon="6.02908">
        <ele>2276.3999023438</ele>
        <time>2015-08-20T09:21:22.000Z</time>
      </trkpt>
      <trkpt lat="44.95998" lon="6.02907">
        <ele>2278.1999511719</ele>
        <time>2015-08-20T09:21:26.000Z</time>
      </trkpt>
      <trkpt lat="44.95998" lon="6.02907">
        <ele>2278.3999023438</ele>
        <time>2015-08-20T09:21:27.000Z</time>
      </trkpt>
      <trkpt lat="44.96" lon="6.02906">
        <ele>2279</ele>
        <time>2015-08-20T09:21:29.000Z</time>
      </trkpt>
      <trkpt lat="44.96004" lon="6.02904">
        <ele>2280</ele>
        <time>2015-08-20T09:21:33.000Z</time>
      </trkpt>
      <trkpt lat="44.96009" lon="6.02902">
        <ele>2281.3999023438</ele>
        <time>2015-08-20T09:21:38.000Z</time>
      </trkpt>
      <trkpt lat="44.96012" lon="6.02899">
        <ele>2282.1999511719</ele>
        <time>2015-08-20T09:21:42.000Z</time>
      </trkpt>
      <trkpt lat="44.96017" lon="6.02897">
        <ele>2283.6000976562</ele>
        <time>2015-08-20T09:21:47.000Z</time>
      </trkpt>
      <trkpt lat="44.96019" lon="6.02896">
        <ele>2284</ele>
        <time>2015-08-20T09:21:49.000Z</time>
      </trkpt>
      <trkpt lat="44.96021" lon="6.02896">
        <ele>2285.3999023438</ele>
        <time>2015-08-20T09:21:52.000Z</time>
      </trkpt>
      <trkpt lat="44.9602" lon="6.02899">
        <ele>2286</ele>
        <time>2015-08-20T09:21:55.000Z</time>
      </trkpt>
      <trkpt lat="44.9602" lon="6.029">
        <ele>2286</ele>
        <time>2015-08-20T09:21:56.000Z</time>
      </trkpt>
      <trkpt lat="44.96016" lon="6.02905">
        <ele>2286</ele>
        <time>2015-08-20T09:22:01.000Z</time>
      </trkpt>
      <trkpt lat="44.96016" lon="6.02905">
        <ele>2286</ele>
        <time>2015-08-20T09:22:02.000Z</time>
      </trkpt>
      <trkpt lat="44.96014" lon="6.0291">
        <ele>2286.6000976562</ele>
        <time>2015-08-20T09:22:06.000Z</time>
      </trkpt>
      <trkpt lat="44.96012" lon="6.02917">
        <ele>2287.8000488281</ele>
        <time>2015-08-20T09:22:11.000Z</time>
      </trkpt>
      <trkpt lat="44.96012" lon="6.02917">
        <ele>2288</ele>
        <time>2015-08-20T09:22:12.000Z</time>
      </trkpt>
      <trkpt lat="44.9601" lon="6.0292">
        <ele>2288.6000976562</ele>
        <time>2015-08-20T09:22:14.000Z</time>
      </trkpt>
      <trkpt lat="44.96008" lon="6.02926">
        <ele>2289.3999023438</ele>
        <time>2015-08-20T09:22:19.000Z</time>
      </trkpt>
      <trkpt lat="44.96007" lon="6.02928">
        <ele>2289.6000976562</ele>
        <time>2015-08-20T09:22:21.000Z</time>
      </trkpt>
      <trkpt lat="44.96006" lon="6.02932">
        <ele>2290.3999023438</ele>
        <time>2015-08-20T09:22:24.000Z</time>
      </trkpt>
      <trkpt lat="44.96004" lon="6.02938">
        <ele>2291.6000976562</ele>
        <time>2015-08-20T09:22:29.000Z</time>
      </trkpt>
      <trkpt lat="44.96004" lon="6.02941">
        <ele>2292</ele>
        <time>2015-08-20T09:22:31.000Z</time>
      </trkpt>
      <trkpt lat="44.96003" lon="6.02942">
        <ele>2292</ele>
        <time>2015-08-20T09:22:32.000Z</time>
      </trkpt>
      <trkpt lat="44.96003" lon="6.02944">
        <ele>2292.6000976562</ele>
        <time>2015-08-20T09:22:33.000Z</time>
      </trkpt>
      <trkpt lat="44.96002" lon="6.02946">
        <ele>2292.8000488281</ele>
        <time>2015-08-20T09:22:35.000Z</time>
      </trkpt>
      <trkpt lat="44.96002" lon="6.02947">
        <ele>2293</ele>
        <time>2015-08-20T09:22:36.000Z</time>
      </trkpt>
      <trkpt lat="44.96001" lon="6.02953">
        <ele>2293.8000488281</ele>
        <time>2015-08-20T09:22:40.000Z</time>
      </trkpt>
      <trkpt lat="44.96001" lon="6.02958">
        <ele>2295.1999511719</ele>
        <time>2015-08-20T09:22:44.000Z</time>
      </trkpt>
      <trkpt lat="44.96003" lon="6.02956">
        <ele>2295.8000488281</ele>
        <time>2015-08-20T09:22:49.000Z</time>
      </trkpt>
      <trkpt lat="44.96005" lon="6.02954">
        <ele>2296.6000976562</ele>
        <time>2015-08-20T09:22:52.000Z</time>
      </trkpt>
      <trkpt lat="44.96007" lon="6.02952">
        <ele>2296.8000488281</ele>
        <time>2015-08-20T09:22:54.000Z</time>
      </trkpt>
      <trkpt lat="44.9601" lon="6.02949">
        <ele>2297.6000976562</ele>
        <time>2015-08-20T09:22:58.000Z</time>
      </trkpt>
      <trkpt lat="44.96012" lon="6.02948">
        <ele>2298.3999023438</ele>
        <time>2015-08-20T09:23:00.000Z</time>
      </trkpt>
      <trkpt lat="44.96014" lon="6.02947">
        <ele>2299</ele>
        <time>2015-08-20T09:23:03.000Z</time>
      </trkpt>
      <trkpt lat="44.96014" lon="6.02946">
        <ele>2298.8000488281</ele>
        <time>2015-08-20T09:23:04.000Z</time>
      </trkpt>
      <trkpt lat="44.96019" lon="6.02942">
        <ele>2299.6000976562</ele>
        <time>2015-08-20T09:23:09.000Z</time>
      </trkpt>
      <trkpt lat="44.96023" lon="6.02939">
        <ele>2300.6000976562</ele>
        <time>2015-08-20T09:23:14.000Z</time>
      </trkpt>
      <trkpt lat="44.96025" lon="6.02937">
        <ele>2301</ele>
        <time>2015-08-20T09:23:17.000Z</time>
      </trkpt>
      <trkpt lat="44.96026" lon="6.02937">
        <ele>2301.1999511719</ele>
        <time>2015-08-20T09:23:18.000Z</time>
      </trkpt>
      <trkpt lat="44.96027" lon="6.02936">
        <ele>2301.6000976562</ele>
        <time>2015-08-20T09:23:20.000Z</time>
      </trkpt>
      <trkpt lat="44.9603" lon="6.02935">
        <ele>2302.3999023438</ele>
        <time>2015-08-20T09:23:23.000Z</time>
      </trkpt>
      <trkpt lat="44.96034" lon="6.02934">
        <ele>2304</ele>
        <time>2015-08-20T09:23:28.000Z</time>
      </trkpt>
      <trkpt lat="44.96039" lon="6.02932">
        <ele>2305.1999511719</ele>
        <time>2015-08-20T09:23:33.000Z</time>
      </trkpt>
      <trkpt lat="44.96042" lon="6.0293">
        <ele>2306.1999511719</ele>
        <time>2015-08-20T09:23:37.000Z</time>
      </trkpt>
      <trkpt lat="44.96043" lon="6.0293">
        <ele>2306.3999023438</ele>
        <time>2015-08-20T09:23:39.000Z</time>
      </trkpt>
      <trkpt lat="44.96046" lon="6.0293">
        <ele>2307.8000488281</ele>
        <time>2015-08-20T09:23:42.000Z</time>
      </trkpt>
      <trkpt lat="44.9605" lon="6.02929">
        <ele>2309</ele>
        <time>2015-08-20T09:23:46.000Z</time>
      </trkpt>
      <trkpt lat="44.96055" lon="6.02923">
        <ele>2309.6000976562</ele>
        <time>2015-08-20T09:23:52.000Z</time>
      </trkpt>
      <trkpt lat="44.96061" lon="6.02918">
        <ele>2310.6000976562</ele>
        <time>2015-08-20T09:23:58.000Z</time>
      </trkpt>
      <trkpt lat="44.96066" lon="6.02916">
        <ele>2312</ele>
        <time>2015-08-20T09:24:03.000Z</time>
      </trkpt>
      <trkpt lat="44.9607" lon="6.02915">
        <ele>2313.8000488281</ele>
        <time>2015-08-20T09:24:09.000Z</time>
      </trkpt>
      <trkpt lat="44.96073" lon="6.02912">
        <ele>2314.6000976562</ele>
        <time>2015-08-20T09:24:15.000Z</time>
      </trkpt>
      <trkpt lat="44.96075" lon="6.02905">
        <ele>2313.6000976562</ele>
        <time>2015-08-20T09:24:21.000Z</time>
      </trkpt>
      <trkpt lat="44.96075" lon="6.02903">
        <ele>2312.8000488281</ele>
        <time>2015-08-20T09:24:22.000Z</time>
      </trkpt>
      <trkpt lat="44.96072" lon="6.02898">
        <ele>2310.1999511719</ele>
        <time>2015-08-20T09:24:26.000Z</time>
      </trkpt>
      <trkpt lat="44.96073" lon="6.02891">
        <ele>2308.3999023438</ele>
        <time>2015-08-20T09:24:32.000Z</time>
      </trkpt>
      <trkpt lat="44.96073" lon="6.0289">
        <ele>2308.1999511719</ele>
        <time>2015-08-20T09:24:33.000Z</time>
      </trkpt>
      <trkpt lat="44.96078" lon="6.02884">
        <ele>2309</ele>
        <time>2015-08-20T09:24:39.000Z</time>
      </trkpt>
      <trkpt lat="44.9608" lon="6.02883">
        <ele>2310</ele>
        <time>2015-08-20T09:24:42.000Z</time>
      </trkpt>
      <trkpt lat="44.96082" lon="6.02883">
        <ele>2311</ele>
        <time>2015-08-20T09:24:44.000Z</time>
      </trkpt>
      <trkpt lat="44.96087" lon="6.02883">
        <ele>2313.3999023438</ele>
        <time>2015-08-20T09:24:49.000Z</time>
      </trkpt>
      <trkpt lat="44.9609" lon="6.02882">
        <ele>2314.6000976562</ele>
        <time>2015-08-20T09:24:52.000Z</time>
      </trkpt>
      <trkpt lat="44.96093" lon="6.02881">
        <ele>2315.6000976562</ele>
        <time>2015-08-20T09:24:55.000Z</time>
      </trkpt>
      <trkpt lat="44.96095" lon="6.02877">
        <ele>2315.8000488281</ele>
        <time>2015-08-20T09:24:59.000Z</time>
      </trkpt>
      <trkpt lat="44.96099" lon="6.02871">
        <ele>2315.6000976562</ele>
        <time>2015-08-20T09:25:05.000Z</time>
      </trkpt>
      <trkpt lat="44.96099" lon="6.0287">
        <ele>2315.8000488281</ele>
        <time>2015-08-20T09:25:06.000Z</time>
      </trkpt>
      <trkpt lat="44.96101" lon="6.02864">
        <ele>2315.6000976562</ele>
        <time>2015-08-20T09:25:10.000Z</time>
      </trkpt>
      <trkpt lat="44.96103" lon="6.02858">
        <ele>2315.3999023438</ele>
        <time>2015-08-20T09:25:14.000Z</time>
      </trkpt>
      <trkpt lat="44.96107" lon="6.02853">
        <ele>2316.1999511719</ele>
        <time>2015-08-20T09:25:20.000Z</time>
      </trkpt>
      <trkpt lat="44.96109" lon="6.02853">
        <ele>2317.1999511719</ele>
        <time>2015-08-20T09:25:21.000Z</time>
      </trkpt>
      <trkpt lat="44.96119" lon="6.02849">
        <ele>2321.8000488281</ele>
        <time>2015-08-20T09:25:29.000Z</time>
      </trkpt>
      <trkpt lat="44.96124" lon="6.02839">
        <ele>2322.3999023438</ele>
        <time>2015-08-20T09:25:36.000Z</time>
      </trkpt>
      <trkpt lat="44.96125" lon="6.02835">
        <ele>2321.6000976562</ele>
        <time>2015-08-20T09:25:40.000Z</time>
      </trkpt>
      <trkpt lat="44.96125" lon="6.02823">
        <ele>2319.3999023438</ele>
        <time>2015-08-20T09:25:46.000Z</time>
      </trkpt>
      <trkpt lat="44.96129" lon="6.02813">
        <ele>2319.1999511719</ele>
        <time>2015-08-20T09:25:53.000Z</time>
      </trkpt>
      <trkpt lat="44.96129" lon="6.02813">
        <ele>2319.3999023438</ele>
        <time>2015-08-20T09:25:54.000Z</time>
      </trkpt>
      <trkpt lat="44.96134" lon="6.02806">
        <ele>2320.1999511719</ele>
        <time>2015-08-20T09:26:00.000Z</time>
      </trkpt>
      <trkpt lat="44.96138" lon="6.02802">
        <ele>2322</ele>
        <time>2015-08-20T09:26:05.000Z</time>
      </trkpt>
      <trkpt lat="44.96143" lon="6.02797">
        <ele>2323.3999023438</ele>
        <time>2015-08-20T09:26:10.000Z</time>
      </trkpt>
      <trkpt lat="44.96146" lon="6.02794">
        <ele>2324.6000976562</ele>
        <time>2015-08-20T09:26:14.000Z</time>
      </trkpt>
      <trkpt lat="44.9615" lon="6.0279">
        <ele>2326</ele>
        <time>2015-08-20T09:26:19.000Z</time>
      </trkpt>
      <trkpt lat="44.96153" lon="6.02787">
        <ele>2326.8000488281</ele>
        <time>2015-08-20T09:26:23.000Z</time>
      </trkpt>
      <trkpt lat="44.96154" lon="6.02786">
        <ele>2327.1999511719</ele>
        <time>2015-08-20T09:26:24.000Z</time>
      </trkpt>
      <trkpt lat="44.96154" lon="6.02784">
        <ele>2327.1999511719</ele>
        <time>2015-08-20T09:26:25.000Z</time>
      </trkpt>
      <trkpt lat="44.96158" lon="6.0278">
        <ele>2328.3999023438</ele>
        <time>2015-08-20T09:26:30.000Z</time>
      </trkpt>
      <trkpt lat="44.96162" lon="6.02778">
        <ele>2330</ele>
        <time>2015-08-20T09:26:36.000Z</time>
      </trkpt>
      <trkpt lat="44.96164" lon="6.02778">
        <ele>2330.8000488281</ele>
        <time>2015-08-20T09:26:37.000Z</time>
      </trkpt>
      <trkpt lat="44.96165" lon="6.02777">
        <ele>2331.3999023438</ele>
        <time>2015-08-20T09:26:40.000Z</time>
      </trkpt>
      <trkpt lat="44.96169" lon="6.02772">
        <ele>2332.1999511719</ele>
        <time>2015-08-20T09:26:46.000Z</time>
      </trkpt>
      <trkpt lat="44.96172" lon="6.02768">
        <ele>2333.1999511719</ele>
        <time>2015-08-20T09:26:51.000Z</time>
      </trkpt>
      <trkpt lat="44.96176" lon="6.02764">
        <ele>2334.3999023438</ele>
        <time>2015-08-20T09:26:56.000Z</time>
      </trkpt>
      <trkpt lat="44.96178" lon="6.02759">
        <ele>2334.3999023438</ele>
        <time>2015-08-20T09:26:59.000Z</time>
      </trkpt>
      <trkpt lat="44.96179" lon="6.02757">
        <ele>2334.3999023438</ele>
        <time>2015-08-20T09:27:01.000Z</time>
      </trkpt>
      <trkpt lat="44.96182" lon="6.02748">
        <ele>2334.1999511719</ele>
        <time>2015-08-20T09:27:07.000Z</time>
      </trkpt>
      <trkpt lat="44.96186" lon="6.02744">
        <ele>2334.8000488281</ele>
        <time>2015-08-20T09:27:11.000Z</time>
      </trkpt>
      <trkpt lat="44.96187" lon="6.02743">
        <ele>2335.3999023438</ele>
        <time>2015-08-20T09:27:12.000Z</time>
      </trkpt>
      <trkpt lat="44.96191" lon="6.0274">
        <ele>2336.6000976562</ele>
        <time>2015-08-20T09:27:16.000Z</time>
      </trkpt>
      <trkpt lat="44.96195" lon="6.02738">
        <ele>2338.3999023438</ele>
        <time>2015-08-20T09:27:21.000Z</time>
      </trkpt>
      <trkpt lat="44.96197" lon="6.02737">
        <ele>2339.1999511719</ele>
        <time>2015-08-20T09:27:23.000Z</time>
      </trkpt>
      <trkpt lat="44.96198" lon="6.02736">
        <ele>2339.6000976562</ele>
        <time>2015-08-20T09:27:25.000Z</time>
      </trkpt>
      <trkpt lat="44.962" lon="6.02735">
        <ele>2340.1999511719</ele>
        <time>2015-08-20T09:27:28.000Z</time>
      </trkpt>
      <trkpt lat="44.96201" lon="6.02733">
        <ele>2340.6000976562</ele>
        <time>2015-08-20T09:27:30.000Z</time>
      </trkpt>
      <trkpt lat="44.96205" lon="6.02728">
        <ele>2341</ele>
        <time>2015-08-20T09:27:36.000Z</time>
      </trkpt>
      <trkpt lat="44.96205" lon="6.02727">
        <ele>2341.1999511719</ele>
        <time>2015-08-20T09:27:37.000Z</time>
      </trkpt>
      <trkpt lat="44.96206" lon="6.02725">
        <ele>2340.8000488281</ele>
        <time>2015-08-20T09:27:40.000Z</time>
      </trkpt>
      <trkpt lat="44.96205" lon="6.02717">
        <ele>2339.8000488281</ele>
        <time>2015-08-20T09:27:46.000Z</time>
      </trkpt>
      <trkpt lat="44.96205" lon="6.02708">
        <ele>2338.6000976562</ele>
        <time>2015-08-20T09:27:52.000Z</time>
      </trkpt>
      <trkpt lat="44.96205" lon="6.02705">
        <ele>2338.3999023438</ele>
        <time>2015-08-20T09:27:55.000Z</time>
      </trkpt>
      <trkpt lat="44.96205" lon="6.02702">
        <ele>2338.1999511719</ele>
        <time>2015-08-20T09:27:57.000Z</time>
      </trkpt>
      <trkpt lat="44.96207" lon="6.02695">
        <ele>2338.8000488281</ele>
        <time>2015-08-20T09:28:03.000Z</time>
      </trkpt>
      <trkpt lat="44.96209" lon="6.02687">
        <ele>2339</ele>
        <time>2015-08-20T09:28:08.000Z</time>
      </trkpt>
      <trkpt lat="44.9621" lon="6.02685">
        <ele>2339.8000488281</ele>
        <time>2015-08-20T09:28:11.000Z</time>
      </trkpt>
      <trkpt lat="44.96211" lon="6.02684">
        <ele>2340.1999511719</ele>
        <time>2015-08-20T09:28:13.000Z</time>
      </trkpt>
      <trkpt lat="44.96212" lon="6.02682">
        <ele>2340.3999023438</ele>
        <time>2015-08-20T09:28:15.000Z</time>
      </trkpt>
      <trkpt lat="44.96214" lon="6.02679">
        <ele>2341.1999511719</ele>
        <time>2015-08-20T09:28:17.000Z</time>
      </trkpt>
      <trkpt lat="44.96217" lon="6.02673">
        <ele>2342.6000976562</ele>
        <time>2015-08-20T09:28:22.000Z</time>
      </trkpt>
      <trkpt lat="44.96217" lon="6.02672">
        <ele>2342.6000976562</ele>
        <time>2015-08-20T09:28:23.000Z</time>
      </trkpt>
      <trkpt lat="44.96218" lon="6.0267">
        <ele>2343.1999511719</ele>
        <time>2015-08-20T09:28:25.000Z</time>
      </trkpt>
      <trkpt lat="44.96218" lon="6.0267">
        <ele>2343.3999023438</ele>
        <time>2015-08-20T09:28:26.000Z</time>
      </trkpt>
      <trkpt lat="44.96219" lon="6.02665">
        <ele>2343.1999511719</ele>
        <time>2015-08-20T09:28:29.000Z</time>
      </trkpt>
      <trkpt lat="44.96219" lon="6.02663">
        <ele>2343.1999511719</ele>
        <time>2015-08-20T09:28:31.000Z</time>
      </trkpt>
      <trkpt lat="44.9622" lon="6.0266">
        <ele>2343</ele>
        <time>2015-08-20T09:28:33.000Z</time>
      </trkpt>
      <trkpt lat="44.9622" lon="6.02656">
        <ele>2342.8000488281</ele>
        <time>2015-08-20T09:28:36.000Z</time>
      </trkpt>
      <trkpt lat="44.96221" lon="6.02649">
        <ele>2342.3999023438</ele>
        <time>2015-08-20T09:28:40.000Z</time>
      </trkpt>
      <trkpt lat="44.96221" lon="6.02648">
        <ele>2342.6000976562</ele>
        <time>2015-08-20T09:28:41.000Z</time>
      </trkpt>
      <trkpt lat="44.96223" lon="6.0264">
        <ele>2342.8000488281</ele>
        <time>2015-08-20T09:28:46.000Z</time>
      </trkpt>
      <trkpt lat="44.96225" lon="6.02635">
        <ele>2343</ele>
        <time>2015-08-20T09:28:51.000Z</time>
      </trkpt>
      <trkpt lat="44.96227" lon="6.0263">
        <ele>2343.6000976562</ele>
        <time>2015-08-20T09:28:56.000Z</time>
      </trkpt>
      <trkpt lat="44.96231" lon="6.02627">
        <ele>2345.3999023438</ele>
        <time>2015-08-20T09:29:02.000Z</time>
      </trkpt>
      <trkpt lat="44.96234" lon="6.02623">
        <ele>2346.1999511719</ele>
        <time>2015-08-20T09:29:07.000Z</time>
      </trkpt>
      <trkpt lat="44.96236" lon="6.02621">
        <ele>2347</ele>
        <time>2015-08-20T09:29:09.000Z</time>
      </trkpt>
      <trkpt lat="44.96237" lon="6.0262">
        <ele>2347.3999023438</ele>
        <time>2015-08-20T09:29:10.000Z</time>
      </trkpt>
      <trkpt lat="44.96238" lon="6.02619">
        <ele>2348.1999511719</ele>
        <time>2015-08-20T09:29:12.000Z</time>
      </trkpt>
      <trkpt lat="44.96238" lon="6.02625">
        <ele>2349.1999511719</ele>
        <time>2015-08-20T09:29:16.000Z</time>
      </trkpt>
      <trkpt lat="44.96238" lon="6.02626">
        <ele>2349</ele>
        <time>2015-08-20T09:29:17.000Z</time>
      </trkpt>
      <trkpt lat="44.96237" lon="6.0263">
        <ele>2349.3999023438</ele>
        <time>2015-08-20T09:29:20.000Z</time>
      </trkpt>
      <trkpt lat="44.96237" lon="6.02633">
        <ele>2349.8000488281</ele>
        <time>2015-08-20T09:29:22.000Z</time>
      </trkpt>
      <trkpt lat="44.96237" lon="6.02642">
        <ele>2351.6000976562</ele>
        <time>2015-08-20T09:29:28.000Z</time>
      </trkpt>
      <trkpt lat="44.96238" lon="6.02645">
        <ele>2352.1999511719</ele>
        <time>2015-08-20T09:29:31.000Z</time>
      </trkpt>
      <trkpt lat="44.96238" lon="6.02648">
        <ele>2353</ele>
        <time>2015-08-20T09:29:33.000Z</time>
      </trkpt>
      <trkpt lat="44.96239" lon="6.02651">
        <ele>2353.3999023438</ele>
        <time>2015-08-20T09:29:35.000Z</time>
      </trkpt>
      <trkpt lat="44.96239" lon="6.02655">
        <ele>2354.1999511719</ele>
        <time>2015-08-20T09:29:39.000Z</time>
      </trkpt>
      <trkpt lat="44.96239" lon="6.02656">
        <ele>2354.3999023438</ele>
        <time>2015-08-20T09:29:40.000Z</time>
      </trkpt>
      <trkpt lat="44.9624" lon="6.0266">
        <ele>2355.3999023438</ele>
        <time>2015-08-20T09:29:43.000Z</time>
      </trkpt>
      <trkpt lat="44.96241" lon="6.02663">
        <ele>2356.6000976562</ele>
        <time>2015-08-20T09:29:46.000Z</time>
      </trkpt>
      <trkpt lat="44.96242" lon="6.02665">
        <ele>2357</ele>
        <time>2015-08-20T09:29:48.000Z</time>
      </trkpt>
      <trkpt lat="44.96241" lon="6.02666">
        <ele>2357</ele>
        <time>2015-08-20T09:29:49.000Z</time>
      </trkpt>
      <trkpt lat="44.96243" lon="6.02671">
        <ele>2358.3999023438</ele>
        <time>2015-08-20T09:29:53.000Z</time>
      </trkpt>
      <trkpt lat="44.96243" lon="6.02674">
        <ele>2359.1999511719</ele>
        <time>2015-08-20T09:29:56.000Z</time>
      </trkpt>
      <trkpt lat="44.96244" lon="6.02675">
        <ele>2359.3999023438</ele>
        <time>2015-08-20T09:29:58.000Z</time>
      </trkpt>
      <trkpt lat="44.96245" lon="6.02667">
        <ele>2359.1999511719</ele>
        <time>2015-08-20T09:30:05.000Z</time>
      </trkpt>
      <trkpt lat="44.96247" lon="6.02664">
        <ele>2360</ele>
        <time>2015-08-20T09:30:08.000Z</time>
      </trkpt>
      <trkpt lat="44.96247" lon="6.02662">
        <ele>2360</ele>
        <time>2015-08-20T09:30:10.000Z</time>
      </trkpt>
      <trkpt lat="44.96251" lon="6.02656">
        <ele>2361.1999511719</ele>
        <time>2015-08-20T09:30:16.000Z</time>
      </trkpt>
      <trkpt lat="44.96252" lon="6.02655">
        <ele>2361.6000976562</ele>
        <time>2015-08-20T09:30:17.000Z</time>
      </trkpt>
      <trkpt lat="44.96253" lon="6.02654">
        <ele>2362.1999511719</ele>
        <time>2015-08-20T09:30:19.000Z</time>
      </trkpt>
      <trkpt lat="44.96255" lon="6.02653">
        <ele>2363.1999511719</ele>
        <time>2015-08-20T09:30:22.000Z</time>
      </trkpt>
      <trkpt lat="44.9626" lon="6.02651">
        <ele>2366</ele>
        <time>2015-08-20T09:30:28.000Z</time>
      </trkpt>
      <trkpt lat="44.96263" lon="6.0265">
        <ele>2367.3999023438</ele>
        <time>2015-08-20T09:30:31.000Z</time>
      </trkpt>
      <trkpt lat="44.96265" lon="6.02649">
        <ele>2368.6000976562</ele>
        <time>2015-08-20T09:30:34.000Z</time>
      </trkpt>
      <trkpt lat="44.96268" lon="6.02647">
        <ele>2370</ele>
        <time>2015-08-20T09:30:38.000Z</time>
      </trkpt>
      <trkpt lat="44.96269" lon="6.02647">
        <ele>2370.3999023438</ele>
        <time>2015-08-20T09:30:39.000Z</time>
      </trkpt>
      <trkpt lat="44.96272" lon="6.02645">
        <ele>2372.3999023438</ele>
        <time>2015-08-20T09:30:44.000Z</time>
      </trkpt>
      <trkpt lat="44.96276" lon="6.02639">
        <ele>2373.8000488281</ele>
        <time>2015-08-20T09:30:49.000Z</time>
      </trkpt>
      <trkpt lat="44.9628" lon="6.02637">
        <ele>2375.6000976562</ele>
        <time>2015-08-20T09:30:54.000Z</time>
      </trkpt>
      <trkpt lat="44.96281" lon="6.02636">
        <ele>2375.8000488281</ele>
        <time>2015-08-20T09:30:56.000Z</time>
      </trkpt>
      <trkpt lat="44.96283" lon="6.02634">
        <ele>2376.8000488281</ele>
        <time>2015-08-20T09:30:58.000Z</time>
      </trkpt>
      <trkpt lat="44.96283" lon="6.02634">
        <ele>2377.1999511719</ele>
        <time>2015-08-20T09:30:59.000Z</time>
      </trkpt>
      <trkpt lat="44.96283" lon="6.02638">
        <ele>2377.8000488281</ele>
        <time>2015-08-20T09:31:02.000Z</time>
      </trkpt>
      <trkpt lat="44.96284" lon="6.02641">
        <ele>2378.3999023438</ele>
        <time>2015-08-20T09:31:04.000Z</time>
      </trkpt>
      <trkpt lat="44.96284" lon="6.02644">
        <ele>2379.1999511719</ele>
        <time>2015-08-20T09:31:06.000Z</time>
      </trkpt>
      <trkpt lat="44.96283" lon="6.02651">
        <ele>2379.3999023438</ele>
        <time>2015-08-20T09:31:12.000Z</time>
      </trkpt>
      <trkpt lat="44.96281" lon="6.02658">
        <ele>2379.1999511719</ele>
        <time>2015-08-20T09:31:18.000Z</time>
      </trkpt>
      <trkpt lat="44.96281" lon="6.0266">
        <ele>2379.3999023438</ele>
        <time>2015-08-20T09:31:20.000Z</time>
      </trkpt>
      <trkpt lat="44.9628" lon="6.0266">
        <ele>2379</ele>
        <time>2015-08-20T09:31:21.000Z</time>
      </trkpt>
      <trkpt lat="44.96281" lon="6.02663">
        <ele>2379.8000488281</ele>
        <time>2015-08-20T09:31:23.000Z</time>
      </trkpt>
      <trkpt lat="44.96282" lon="6.02665">
        <ele>2380.6000976562</ele>
        <time>2015-08-20T09:31:25.000Z</time>
      </trkpt>
      <trkpt lat="44.96282" lon="6.02667">
        <ele>2381.1999511719</ele>
        <time>2015-08-20T09:31:27.000Z</time>
      </trkpt>
      <trkpt lat="44.96284" lon="6.02672">
        <ele>2382.8000488281</ele>
        <time>2015-08-20T09:31:32.000Z</time>
      </trkpt>
      <trkpt lat="44.96284" lon="6.02674">
        <ele>2383</ele>
        <time>2015-08-20T09:31:37.000Z</time>
      </trkpt>
      <trkpt lat="44.96285" lon="6.02681">
        <ele>2384.3999023438</ele>
        <time>2015-08-20T09:31:49.000Z</time>
      </trkpt>
      <trkpt lat="44.96285" lon="6.02683">
        <ele>2385</ele>
        <time>2015-08-20T09:31:51.000Z</time>
      </trkpt>
      <trkpt lat="44.96288" lon="6.02688">
        <ele>2387.1999511719</ele>
        <time>2015-08-20T09:31:55.000Z</time>
      </trkpt>
      <trkpt lat="44.96288" lon="6.02689">
        <ele>2387.3999023438</ele>
        <time>2015-08-20T09:31:56.000Z</time>
      </trkpt>
      <trkpt lat="44.9629" lon="6.02692">
        <ele>2388.8000488281</ele>
        <time>2015-08-20T09:31:59.000Z</time>
      </trkpt>
      <trkpt lat="44.96291" lon="6.02693">
        <ele>2389.8000488281</ele>
        <time>2015-08-20T09:32:01.000Z</time>
      </trkpt>
      <trkpt lat="44.96293" lon="6.02695">
        <ele>2390.8000488281</ele>
        <time>2015-08-20T09:32:03.000Z</time>
      </trkpt>
      <trkpt lat="44.96295" lon="6.02699">
        <ele>2392.3999023438</ele>
        <time>2015-08-20T09:32:07.000Z</time>
      </trkpt>
      <trkpt lat="44.96296" lon="6.02702">
        <ele>2393</ele>
        <time>2015-08-20T09:32:09.000Z</time>
      </trkpt>
      <trkpt lat="44.96295" lon="6.02709">
        <ele>2393.3999023438</ele>
        <time>2015-08-20T09:32:13.000Z</time>
      </trkpt>
      <trkpt lat="44.96293" lon="6.02712">
        <ele>2393</ele>
        <time>2015-08-20T09:32:16.000Z</time>
      </trkpt>
      <trkpt lat="44.96292" lon="6.02715">
        <ele>2393.1999511719</ele>
        <time>2015-08-20T09:32:17.000Z</time>
      </trkpt>
      <trkpt lat="44.96293" lon="6.02716">
        <ele>2393.6000976562</ele>
        <time>2015-08-20T09:32:18.000Z</time>
      </trkpt>
      <trkpt lat="44.96295" lon="6.02723">
        <ele>2395.3999023438</ele>
        <time>2015-08-20T09:32:23.000Z</time>
      </trkpt>
      <trkpt lat="44.96296" lon="6.02726">
        <ele>2396.1999511719</ele>
        <time>2015-08-20T09:32:25.000Z</time>
      </trkpt>
      <trkpt lat="44.96296" lon="6.0273">
        <ele>2396.1999511719</ele>
        <time>2015-08-20T09:32:27.000Z</time>
      </trkpt>
      <trkpt lat="44.96295" lon="6.02737">
        <ele>2396.8000488281</ele>
        <time>2015-08-20T09:32:32.000Z</time>
      </trkpt>
      <trkpt lat="44.96296" lon="6.02739">
        <ele>2397.1999511719</ele>
        <time>2015-08-20T09:32:34.000Z</time>
      </trkpt>
      <trkpt lat="44.96297" lon="6.02743">
        <ele>2398</ele>
        <time>2015-08-20T09:32:37.000Z</time>
      </trkpt>
      <trkpt lat="44.96298" lon="6.02747">
        <ele>2398.8000488281</ele>
        <time>2015-08-20T09:32:40.000Z</time>
      </trkpt>
      <trkpt lat="44.96299" lon="6.02744">
        <ele>2399.1999511719</ele>
        <time>2015-08-20T09:32:45.000Z</time>
      </trkpt>
      <trkpt lat="44.96302" lon="6.02739">
        <ele>2399.8000488281</ele>
        <time>2015-08-20T09:32:50.000Z</time>
      </trkpt>
      <trkpt lat="44.96303" lon="6.02737">
        <ele>2399.8000488281</ele>
        <time>2015-08-20T09:32:51.000Z</time>
      </trkpt>
      <trkpt lat="44.96305" lon="6.02734">
        <ele>2400.8000488281</ele>
        <time>2015-08-20T09:32:55.000Z</time>
      </trkpt>
      <trkpt lat="44.96309" lon="6.02733">
        <ele>2402.3999023438</ele>
        <time>2015-08-20T09:33:00.000Z</time>
      </trkpt>
      <trkpt lat="44.9631" lon="6.02732">
        <ele>2403</ele>
        <time>2015-08-20T09:33:01.000Z</time>
      </trkpt>
      <trkpt lat="44.96313" lon="6.0273">
        <ele>2403.8000488281</ele>
        <time>2015-08-20T09:33:05.000Z</time>
      </trkpt>
      <trkpt lat="44.96315" lon="6.02727">
        <ele>2404.8000488281</ele>
        <time>2015-08-20T09:33:09.000Z</time>
      </trkpt>
      <trkpt lat="44.96317" lon="6.02723">
        <ele>2405.1999511719</ele>
        <time>2015-08-20T09:33:12.000Z</time>
      </trkpt>
      <trkpt lat="44.96318" lon="6.02721">
        <ele>2405.1999511719</ele>
        <time>2015-08-20T09:33:14.000Z</time>
      </trkpt>
      <trkpt lat="44.96319" lon="6.02718">
        <ele>2405.3999023438</ele>
        <time>2015-08-20T09:33:17.000Z</time>
      </trkpt>
      <trkpt lat="44.9632" lon="6.02715">
        <ele>2405.3999023438</ele>
        <time>2015-08-20T09:33:20.000Z</time>
      </trkpt>
      <trkpt lat="44.9632" lon="6.02714">
        <ele>2405.1999511719</ele>
        <time>2015-08-20T09:33:21.000Z</time>
      </trkpt>
      <trkpt lat="44.96322" lon="6.02709">
        <ele>2405.3999023438</ele>
        <time>2015-08-20T09:33:25.000Z</time>
      </trkpt>
      <trkpt lat="44.96322" lon="6.02708">
        <ele>2405.6000976562</ele>
        <time>2015-08-20T09:33:27.000Z</time>
      </trkpt>
      <trkpt lat="44.96323" lon="6.02705">
        <ele>2405.6000976562</ele>
        <time>2015-08-20T09:33:29.000Z</time>
      </trkpt>
      <trkpt lat="44.96324" lon="6.02701">
        <ele>2405.3999023438</ele>
        <time>2015-08-20T09:33:32.000Z</time>
      </trkpt>
      <trkpt lat="44.96325" lon="6.02698">
        <ele>2405.3999023438</ele>
        <time>2015-08-20T09:33:35.000Z</time>
      </trkpt>
      <trkpt lat="44.96326" lon="6.02692">
        <ele>2405.1999511719</ele>
        <time>2015-08-20T09:33:40.000Z</time>
      </trkpt>
      <trkpt lat="44.96328" lon="6.02685">
        <ele>2404.8000488281</ele>
        <time>2015-08-20T09:33:45.000Z</time>
      </trkpt>
      <trkpt lat="44.96331" lon="6.02681">
        <ele>2405.8000488281</ele>
        <time>2015-08-20T09:33:50.000Z</time>
      </trkpt>
      <trkpt lat="44.96335" lon="6.02679">
        <ele>2407.6000976562</ele>
        <time>2015-08-20T09:33:54.000Z</time>
      </trkpt>
      <trkpt lat="44.96335" lon="6.02679">
        <ele>2407.8000488281</ele>
        <time>2015-08-20T09:33:55.000Z</time>
      </trkpt>
      <trkpt lat="44.96338" lon="6.02679">
        <ele>2409.1999511719</ele>
        <time>2015-08-20T09:33:58.000Z</time>
      </trkpt>
      <trkpt lat="44.96339" lon="6.02678">
        <ele>2409.8000488281</ele>
        <time>2015-08-20T09:33:59.000Z</time>
      </trkpt>
      <trkpt lat="44.96342" lon="6.02676">
        <ele>2411</ele>
        <time>2015-08-20T09:34:03.000Z</time>
      </trkpt>
      <trkpt lat="44.96343" lon="6.02674">
        <ele>2411.6000976562</ele>
        <time>2015-08-20T09:34:05.000Z</time>
      </trkpt>
      <trkpt lat="44.96344" lon="6.02673">
        <ele>2412</ele>
        <time>2015-08-20T09:34:06.000Z</time>
      </trkpt>
      <trkpt lat="44.96347" lon="6.02667">
        <ele>2413.3999023438</ele>
        <time>2015-08-20T09:34:12.000Z</time>
      </trkpt>
      <trkpt lat="44.96349" lon="6.02664">
        <ele>2414.1999511719</ele>
        <time>2015-08-20T09:34:15.000Z</time>
      </trkpt>
      <trkpt lat="44.9635" lon="6.02663">
        <ele>2414.6000976562</ele>
        <time>2015-08-20T09:34:16.000Z</time>
      </trkpt>
      <trkpt lat="44.96351" lon="6.02661">
        <ele>2415.1999511719</ele>
        <time>2015-08-20T09:34:18.000Z</time>
      </trkpt>
      <trkpt lat="44.96353" lon="6.02659">
        <ele>2416.1999511719</ele>
        <time>2015-08-20T09:34:21.000Z</time>
      </trkpt>
      <trkpt lat="44.96356" lon="6.02655">
        <ele>2417</ele>
        <time>2015-08-20T09:34:26.000Z</time>
      </trkpt>
      <trkpt lat="44.96357" lon="6.02653">
        <ele>2417.6000976562</ele>
        <time>2015-08-20T09:34:28.000Z</time>
      </trkpt>
      <trkpt lat="44.96358" lon="6.02649">
        <ele>2417.8000488281</ele>
        <time>2015-08-20T09:34:31.000Z</time>
      </trkpt>
      <trkpt lat="44.96358" lon="6.02647">
        <ele>2418</ele>
        <time>2015-08-20T09:34:32.000Z</time>
      </trkpt>
      <trkpt lat="44.9636" lon="6.02648">
        <ele>2418.8000488281</ele>
        <time>2015-08-20T09:34:34.000Z</time>
      </trkpt>
      <trkpt lat="44.9636" lon="6.02651">
        <ele>2419.1999511719</ele>
        <time>2015-08-20T09:34:35.000Z</time>
      </trkpt>
      <trkpt lat="44.96362" lon="6.02656">
        <ele>2420.3999023438</ele>
        <time>2015-08-20T09:34:40.000Z</time>
      </trkpt>
      <trkpt lat="44.96363" lon="6.02661">
        <ele>2421.1999511719</ele>
        <time>2015-08-20T09:34:44.000Z</time>
      </trkpt>
      <trkpt lat="44.96365" lon="6.02668">
        <ele>2422.8000488281</ele>
        <time>2015-08-20T09:34:49.000Z</time>
      </trkpt>
      <trkpt lat="44.96366" lon="6.02669">
        <ele>2423.1999511719</ele>
        <time>2015-08-20T09:34:50.000Z</time>
      </trkpt>
      <trkpt lat="44.96366" lon="6.02674">
        <ele>2423.3999023438</ele>
        <time>2015-08-20T09:34:53.000Z</time>
      </trkpt>
      <trkpt lat="44.96365" lon="6.02675">
        <ele>2423.1999511719</ele>
        <time>2015-08-20T09:34:54.000Z</time>
      </trkpt>
      <trkpt lat="44.96365" lon="6.02682">
        <ele>2423.8000488281</ele>
        <time>2015-08-20T09:34:59.000Z</time>
      </trkpt>
      <trkpt lat="44.96365" lon="6.0269">
        <ele>2424.1999511719</ele>
        <time>2015-08-20T09:35:05.000Z</time>
      </trkpt>
      <trkpt lat="44.96363" lon="6.02697">
        <ele>2423.3999023438</ele>
        <time>2015-08-20T09:35:10.000Z</time>
      </trkpt>
      <trkpt lat="44.96363" lon="6.027">
        <ele>2423.3999023438</ele>
        <time>2015-08-20T09:35:15.000Z</time>
      </trkpt>
      <trkpt lat="44.96365" lon="6.02695">
        <ele>2424.6000976562</ele>
        <time>2015-08-20T09:35:19.000Z</time>
      </trkpt>
      <trkpt lat="44.9637" lon="6.0269">
        <ele>2426.3999023438</ele>
        <time>2015-08-20T09:35:24.000Z</time>
      </trkpt>
      <trkpt lat="44.96373" lon="6.02687">
        <ele>2427.8000488281</ele>
        <time>2015-08-20T09:35:28.000Z</time>
      </trkpt>
      <trkpt lat="44.96373" lon="6.02685">
        <ele>2428</ele>
        <time>2015-08-20T09:35:30.000Z</time>
      </trkpt>
      <trkpt lat="44.96375" lon="6.02683">
        <ele>2428.6000976562</ele>
        <time>2015-08-20T09:35:32.000Z</time>
      </trkpt>
      <trkpt lat="44.96375" lon="6.02682">
        <ele>2428.6000976562</ele>
        <time>2015-08-20T09:35:33.000Z</time>
      </trkpt>
      <trkpt lat="44.96378" lon="6.02677">
        <ele>2430.1999511719</ele>
        <time>2015-08-20T09:35:38.000Z</time>
      </trkpt>
      <trkpt lat="44.96378" lon="6.02677">
        <ele>2430.1999511719</ele>
        <time>2015-08-20T09:35:39.000Z</time>
      </trkpt>
      <trkpt lat="44.9638" lon="6.02675">
        <ele>2430.8000488281</ele>
        <time>2015-08-20T09:35:41.000Z</time>
      </trkpt>
      <trkpt lat="44.9638" lon="6.02675">
        <ele>2431</ele>
        <time>2015-08-20T09:35:42.000Z</time>
      </trkpt>
      <trkpt lat="44.96382" lon="6.02672">
        <ele>2432</ele>
        <time>2015-08-20T09:35:45.000Z</time>
      </trkpt>
      <trkpt lat="44.96383" lon="6.0267">
        <ele>2432.3999023438</ele>
        <time>2015-08-20T09:35:46.000Z</time>
      </trkpt>
      <trkpt lat="44.96384" lon="6.02668">
        <ele>2433</ele>
        <time>2015-08-20T09:35:48.000Z</time>
      </trkpt>
      <trkpt lat="44.96385" lon="6.02664">
        <ele>2433.1999511719</ele>
        <time>2015-08-20T09:35:51.000Z</time>
      </trkpt>
      <trkpt lat="44.96387" lon="6.0266">
        <ele>2434</ele>
        <time>2015-08-20T09:35:55.000Z</time>
      </trkpt>
      <trkpt lat="44.96388" lon="6.02659">
        <ele>2434.1999511719</ele>
        <time>2015-08-20T09:35:56.000Z</time>
      </trkpt>
      <trkpt lat="44.96389" lon="6.02654">
        <ele>2434.8000488281</ele>
        <time>2015-08-20T09:36:00.000Z</time>
      </trkpt>
      <trkpt lat="44.9639" lon="6.02653">
        <ele>2435.1999511719</ele>
        <time>2015-08-20T09:36:01.000Z</time>
      </trkpt>
      <trkpt lat="44.96392" lon="6.0265">
        <ele>2436.1999511719</ele>
        <time>2015-08-20T09:36:04.000Z</time>
      </trkpt>
      <trkpt lat="44.96393" lon="6.02649">
        <ele>2436.3999023438</ele>
        <time>2015-08-20T09:36:05.000Z</time>
      </trkpt>
      <trkpt lat="44.96394" lon="6.02646">
        <ele>2437</ele>
        <time>2015-08-20T09:36:08.000Z</time>
      </trkpt>
      <trkpt lat="44.96396" lon="6.02646">
        <ele>2437.6000976562</ele>
        <time>2015-08-20T09:36:10.000Z</time>
      </trkpt>
      <trkpt lat="44.96397" lon="6.02646">
        <ele>2438.3999023438</ele>
        <time>2015-08-20T09:36:12.000Z</time>
      </trkpt>
      <trkpt lat="44.96396" lon="6.02652">
        <ele>2438.6000976562</ele>
        <time>2015-08-20T09:36:17.000Z</time>
      </trkpt>
      <trkpt lat="44.96396" lon="6.02659">
        <ele>2438.8000488281</ele>
        <time>2015-08-20T09:36:22.000Z</time>
      </trkpt>
      <trkpt lat="44.96397" lon="6.02667">
        <ele>2439.8000488281</ele>
        <time>2015-08-20T09:36:27.000Z</time>
      </trkpt>
      <trkpt lat="44.96396" lon="6.0267">
        <ele>2439.3999023438</ele>
        <time>2015-08-20T09:36:31.000Z</time>
      </trkpt>
      <trkpt lat="44.96396" lon="6.02671">
        <ele>2439.6000976562</ele>
        <time>2015-08-20T09:36:32.000Z</time>
      </trkpt>
      <trkpt lat="44.96397" lon="6.02677">
        <ele>2440.8000488281</ele>
        <time>2015-08-20T09:36:38.000Z</time>
      </trkpt>
      <trkpt lat="44.96398" lon="6.02684">
        <ele>2441.3999023438</ele>
        <time>2015-08-20T09:36:45.000Z</time>
      </trkpt>
      <trkpt lat="44.96395" lon="6.02691">
        <ele>2440.3999023438</ele>
        <time>2015-08-20T09:36:53.000Z</time>
      </trkpt>
      <trkpt lat="44.96396" lon="6.02697">
        <ele>2441</ele>
        <time>2015-08-20T09:37:01.000Z</time>
      </trkpt>
      <trkpt lat="44.96395" lon="6.02704">
        <ele>2441.1999511719</ele>
        <time>2015-08-20T09:37:08.000Z</time>
      </trkpt>
      <trkpt lat="44.96396" lon="6.02705">
        <ele>2441.8000488281</ele>
        <time>2015-08-20T09:37:15.000Z</time>
      </trkpt>
      <trkpt lat="44.96394" lon="6.02709">
        <ele>2441</ele>
        <time>2015-08-20T09:37:22.000Z</time>
      </trkpt>
      <trkpt lat="44.96392" lon="6.02716">
        <ele>2440.1999511719</ele>
        <time>2015-08-20T09:37:29.000Z</time>
      </trkpt>
      <trkpt lat="44.96394" lon="6.02722">
        <ele>2441.3999023438</ele>
        <time>2015-08-20T09:37:36.000Z</time>
      </trkpt>
      <trkpt lat="44.96395" lon="6.02732">
        <ele>2442.8000488281</ele>
        <time>2015-08-20T09:37:44.000Z</time>
      </trkpt>
      <trkpt lat="44.96396" lon="6.02734">
        <ele>2443.1999511719</ele>
        <time>2015-08-20T09:37:45.000Z</time>
      </trkpt>
      <trkpt lat="44.96398" lon="6.02737">
        <ele>2444.1999511719</ele>
        <time>2015-08-20T09:37:48.000Z</time>
      </trkpt>
      <trkpt lat="44.96398" lon="6.02741">
        <ele>2444.3999023438</ele>
        <time>2015-08-20T09:37:51.000Z</time>
      </trkpt>
      <trkpt lat="44.96396" lon="6.02745">
        <ele>2443.8000488281</ele>
        <time>2015-08-20T09:37:55.000Z</time>
      </trkpt>
      <trkpt lat="44.96395" lon="6.02748">
        <ele>2443.1999511719</ele>
        <time>2015-08-20T09:37:58.000Z</time>
      </trkpt>
      <trkpt lat="44.96395" lon="6.02755">
        <ele>2443.3999023438</ele>
        <time>2015-08-20T09:38:05.000Z</time>
      </trkpt>
      <trkpt lat="44.96396" lon="6.0276">
        <ele>2444.1999511719</ele>
        <time>2015-08-20T09:38:09.000Z</time>
      </trkpt>
      <trkpt lat="44.96396" lon="6.02761">
        <ele>2444.6000976562</ele>
        <time>2015-08-20T09:38:10.000Z</time>
      </trkpt>
      <trkpt lat="44.96397" lon="6.02769">
        <ele>2445.6000976562</ele>
        <time>2015-08-20T09:38:17.000Z</time>
      </trkpt>
      <trkpt lat="44.96397" lon="6.02774">
        <ele>2446</ele>
        <time>2015-08-20T09:38:22.000Z</time>
      </trkpt>
      <trkpt lat="44.96398" lon="6.02778">
        <ele>2446.8000488281</ele>
        <time>2015-08-20T09:38:27.000Z</time>
      </trkpt>
      <trkpt lat="44.964" lon="6.02782">
        <ele>2448</ele>
        <time>2015-08-20T09:38:31.000Z</time>
      </trkpt>
      <trkpt lat="44.96401" lon="6.02787">
        <ele>2448.6000976562</ele>
        <time>2015-08-20T09:38:37.000Z</time>
      </trkpt>
      <trkpt lat="44.96405" lon="6.02795">
        <ele>2451.1999511719</ele>
        <time>2015-08-20T09:38:45.000Z</time>
      </trkpt>
      <trkpt lat="44.96406" lon="6.02795">
        <ele>2451.6000976562</ele>
        <time>2015-08-20T09:38:46.000Z</time>
      </trkpt>
      <trkpt lat="44.96408" lon="6.028">
        <ele>2453.1999511719</ele>
        <time>2015-08-20T09:38:51.000Z</time>
      </trkpt>
      <trkpt lat="44.96411" lon="6.02807">
        <ele>2455</ele>
        <time>2015-08-20T09:38:58.000Z</time>
      </trkpt>
      <trkpt lat="44.9641" lon="6.02808">
        <ele>2455</ele>
        <time>2015-08-20T09:39:00.000Z</time>
      </trkpt>
      <trkpt lat="44.96412" lon="6.02813">
        <ele>2456.3999023438</ele>
        <time>2015-08-20T09:39:05.000Z</time>
      </trkpt>
      <trkpt lat="44.96414" lon="6.02819">
        <ele>2457.8000488281</ele>
        <time>2015-08-20T09:39:10.000Z</time>
      </trkpt>
      <trkpt lat="44.96414" lon="6.0282">
        <ele>2457.8000488281</ele>
        <time>2015-08-20T09:39:11.000Z</time>
      </trkpt>
      <trkpt lat="44.96415" lon="6.02827">
        <ele>2459.1999511719</ele>
        <time>2015-08-20T09:39:16.000Z</time>
      </trkpt>
      <trkpt lat="44.96415" lon="6.02833">
        <ele>2459.8000488281</ele>
        <time>2015-08-20T09:39:20.000Z</time>
      </trkpt>
      <trkpt lat="44.96415" lon="6.02834">
        <ele>2459.6000976562</ele>
        <time>2015-08-20T09:39:22.000Z</time>
      </trkpt>
      <trkpt lat="44.96414" lon="6.02837">
        <ele>2459.6000976562</ele>
        <time>2015-08-20T09:39:25.000Z</time>
      </trkpt>
      <trkpt lat="44.96413" lon="6.02839">
        <ele>2459.3999023438</ele>
        <time>2015-08-20T09:39:27.000Z</time>
      </trkpt>
      <trkpt lat="44.96412" lon="6.02846">
        <ele>2459.1999511719</ele>
        <time>2015-08-20T09:39:34.000Z</time>
      </trkpt>
      <trkpt lat="44.96411" lon="6.02854">
        <ele>2459.1999511719</ele>
        <time>2015-08-20T09:39:43.000Z</time>
      </trkpt>
      <trkpt lat="44.96411" lon="6.02858">
        <ele>2459.8000488281</ele>
        <time>2015-08-20T09:39:48.000Z</time>
      </trkpt>
      <trkpt lat="44.96408" lon="6.02865">
        <ele>2459</ele>
        <time>2015-08-20T09:39:55.000Z</time>
      </trkpt>
      <trkpt lat="44.96408" lon="6.0287">
        <ele>2459.1999511719</ele>
        <time>2015-08-20T09:40:01.000Z</time>
      </trkpt>
      <trkpt lat="44.96405" lon="6.02876">
        <ele>2458</ele>
        <time>2015-08-20T09:40:07.000Z</time>
      </trkpt>
      <trkpt lat="44.96403" lon="6.02879">
        <ele>2457.1999511719</ele>
        <time>2015-08-20T09:40:11.000Z</time>
      </trkpt>
      <trkpt lat="44.96402" lon="6.0288">
        <ele>2457</ele>
        <time>2015-08-20T09:40:13.000Z</time>
      </trkpt>
      <trkpt lat="44.96402" lon="6.02886">
        <ele>2457.3999023438</ele>
        <time>2015-08-20T09:40:19.000Z</time>
      </trkpt>
      <trkpt lat="44.96402" lon="6.02893">
        <ele>2458</ele>
        <time>2015-08-20T09:40:24.000Z</time>
      </trkpt>
      <trkpt lat="44.96402" lon="6.02895">
        <ele>2458</ele>
        <time>2015-08-20T09:40:25.000Z</time>
      </trkpt>
      <trkpt lat="44.96403" lon="6.02898">
        <ele>2459.3999023438</ele>
        <time>2015-08-20T09:40:28.000Z</time>
      </trkpt>
      <trkpt lat="44.96404" lon="6.029">
        <ele>2460.3999023438</ele>
        <time>2015-08-20T09:40:30.000Z</time>
      </trkpt>
      <trkpt lat="44.96405" lon="6.02902">
        <ele>2461</ele>
        <time>2015-08-20T09:40:31.000Z</time>
      </trkpt>
      <trkpt lat="44.96406" lon="6.02905">
        <ele>2462.1999511719</ele>
        <time>2015-08-20T09:40:34.000Z</time>
      </trkpt>
      <trkpt lat="44.96406" lon="6.02909">
        <ele>2463</ele>
        <time>2015-08-20T09:40:37.000Z</time>
      </trkpt>
      <trkpt lat="44.96406" lon="6.02911">
        <ele>2463.1999511719</ele>
        <time>2015-08-20T09:40:38.000Z</time>
      </trkpt>
      <trkpt lat="44.96407" lon="6.02923">
        <ele>2465.6000976562</ele>
        <time>2015-08-20T09:40:45.000Z</time>
      </trkpt>
      <trkpt lat="44.96408" lon="6.02939">
        <ele>2469</ele>
        <time>2015-08-20T09:40:51.000Z</time>
      </trkpt>
      <trkpt lat="44.9641" lon="6.02951">
        <ele>2472.1999511719</ele>
        <time>2015-08-20T09:40:57.000Z</time>
      </trkpt>
      <trkpt lat="44.96411" lon="6.02952">
        <ele>2472.6000976562</ele>
        <time>2015-08-20T09:40:58.000Z</time>
      </trkpt>
      <trkpt lat="44.96411" lon="6.02958">
        <ele>2474</ele>
        <time>2015-08-20T09:41:03.000Z</time>
      </trkpt>
      <trkpt lat="44.96409" lon="6.02971">
        <ele>2474.6000976562</ele>
        <time>2015-08-20T09:41:08.000Z</time>
      </trkpt>
      <trkpt lat="44.96408" lon="6.02981">
        <ele>2476.3999023438</ele>
        <time>2015-08-20T09:41:14.000Z</time>
      </trkpt>
      <trkpt lat="44.96405" lon="6.02993">
        <ele>2476.8000488281</ele>
        <time>2015-08-20T09:41:21.000Z</time>
      </trkpt>
      <trkpt lat="44.96402" lon="6.03001">
        <ele>2476.8000488281</ele>
        <time>2015-08-20T09:41:27.000Z</time>
      </trkpt>
      <trkpt lat="44.964" lon="6.03013">
        <ele>2478</ele>
        <time>2015-08-20T09:41:32.000Z</time>
      </trkpt>
      <trkpt lat="44.96398" lon="6.03024">
        <ele>2479.1999511719</ele>
        <time>2015-08-20T09:41:37.000Z</time>
      </trkpt>
      <trkpt lat="44.96397" lon="6.03028">
        <ele>2479.8000488281</ele>
        <time>2015-08-20T09:41:40.000Z</time>
      </trkpt>
      <trkpt lat="44.96397" lon="6.0303">
        <ele>2479.8000488281</ele>
        <time>2015-08-20T09:41:41.000Z</time>
      </trkpt>
      <trkpt lat="44.96392" lon="6.03042">
        <ele>2480</ele>
        <time>2015-08-20T09:41:46.000Z</time>
      </trkpt>
      <trkpt lat="44.96391" lon="6.03048">
        <ele>2480.6000976562</ele>
        <time>2015-08-20T09:41:51.000Z</time>
      </trkpt>
      <trkpt lat="44.9639" lon="6.03049">
        <ele>2480.3999023438</ele>
        <time>2015-08-20T09:41:52.000Z</time>
      </trkpt>
      <trkpt lat="44.96388" lon="6.03056">
        <ele>2480.1999511719</ele>
        <time>2015-08-20T09:41:55.000Z</time>
      </trkpt>
      <trkpt lat="44.96386" lon="6.03058">
        <ele>2480</ele>
        <time>2015-08-20T09:41:56.000Z</time>
      </trkpt>
      <trkpt lat="44.96381" lon="6.03072">
        <ele>2479.8000488281</ele>
        <time>2015-08-20T09:42:02.000Z</time>
      </trkpt>
      <trkpt lat="44.9638" lon="6.03086">
        <ele>2481.6000976562</ele>
        <time>2015-08-20T09:42:08.000Z</time>
      </trkpt>
      <trkpt lat="44.96381" lon="6.03092">
        <ele>2483</ele>
        <time>2015-08-20T09:42:12.000Z</time>
      </trkpt>
      <trkpt lat="44.96378" lon="6.031">
        <ele>2483</ele>
        <time>2015-08-20T09:42:18.000Z</time>
      </trkpt>
      <trkpt lat="44.96377" lon="6.03107">
        <ele>2484.1999511719</ele>
        <time>2015-08-20T09:42:23.000Z</time>
      </trkpt>
      <trkpt lat="44.96379" lon="6.03111">
        <ele>2485.6000976562</ele>
        <time>2015-08-20T09:42:26.000Z</time>
      </trkpt>
      <trkpt lat="44.96379" lon="6.03113">
        <ele>2486</ele>
        <time>2015-08-20T09:42:27.000Z</time>
      </trkpt>
      <trkpt lat="44.96377" lon="6.03117">
        <ele>2485.8000488281</ele>
        <time>2015-08-20T09:42:30.000Z</time>
      </trkpt>
      <trkpt lat="44.96376" lon="6.03118">
        <ele>2485.1999511719</ele>
        <time>2015-08-20T09:42:31.000Z</time>
      </trkpt>
      <trkpt lat="44.96375" lon="6.03119">
        <ele>2485</ele>
        <time>2015-08-20T09:42:32.000Z</time>
      </trkpt>
      <trkpt lat="44.96373" lon="6.03122">
        <ele>2484.8000488281</ele>
        <time>2015-08-20T09:42:35.000Z</time>
      </trkpt>
      <trkpt lat="44.96373" lon="6.03126">
        <ele>2485.1999511719</ele>
        <time>2015-08-20T09:42:37.000Z</time>
      </trkpt>
      <trkpt lat="44.96369" lon="6.03137">
        <ele>2486</ele>
        <time>2015-08-20T09:42:43.000Z</time>
      </trkpt>
      <trkpt lat="44.96369" lon="6.03148">
        <ele>2487.8000488281</ele>
        <time>2015-08-20T09:42:48.000Z</time>
      </trkpt>
      <trkpt lat="44.96368" lon="6.0315">
        <ele>2487.8000488281</ele>
        <time>2015-08-20T09:42:49.000Z</time>
      </trkpt>
      <trkpt lat="44.96365" lon="6.03161">
        <ele>2488</ele>
        <time>2015-08-20T09:42:54.000Z</time>
      </trkpt>
      <trkpt lat="44.96365" lon="6.03163">
        <ele>2488.6000976562</ele>
        <time>2015-08-20T09:42:55.000Z</time>
      </trkpt>
      <trkpt lat="44.96362" lon="6.03184">
        <ele>2490.8000488281</ele>
        <time>2015-08-20T09:43:03.000Z</time>
      </trkpt>
      <trkpt lat="44.96358" lon="6.03199">
        <ele>2491.1999511719</ele>
        <time>2015-08-20T09:43:09.000Z</time>
      </trkpt>
      <trkpt lat="44.96357" lon="6.03204">
        <ele>2492</ele>
        <time>2015-08-20T09:43:11.000Z</time>
      </trkpt>
      <trkpt lat="44.96355" lon="6.0321">
        <ele>2492.1999511719</ele>
        <time>2015-08-20T09:43:14.000Z</time>
      </trkpt>
      <trkpt lat="44.96351" lon="6.03221">
        <ele>2493.8000488281</ele>
        <time>2015-08-20T09:43:20.000Z</time>
      </trkpt>
      <trkpt lat="44.9635" lon="6.03222">
        <ele>2493.6000976562</ele>
        <time>2015-08-20T09:43:22.000Z</time>
      </trkpt>
      <trkpt lat="44.96349" lon="6.03225">
        <ele>2494</ele>
        <time>2015-08-20T09:43:25.000Z</time>
      </trkpt>
      <trkpt lat="44.96347" lon="6.03226">
        <ele>2493.3999023438</ele>
        <time>2015-08-20T09:43:29.000Z</time>
      </trkpt>
      <trkpt lat="44.96346" lon="6.03226">
        <ele>2493.1999511719</ele>
        <time>2015-08-20T09:43:30.000Z</time>
      </trkpt>
      <trkpt lat="44.96343" lon="6.03226">
        <ele>2492</ele>
        <time>2015-08-20T09:43:39.000Z</time>
      </trkpt>
      <trkpt lat="44.9634" lon="6.03229">
        <ele>2492.3999023438</ele>
        <time>2015-08-20T09:43:45.000Z</time>
      </trkpt>
      <trkpt lat="44.96338" lon="6.03232">
        <ele>2493</ele>
        <time>2015-08-20T09:43:49.000Z</time>
      </trkpt>
      <trkpt lat="44.96336" lon="6.03237">
        <ele>2494.1999511719</ele>
        <time>2015-08-20T09:43:53.000Z</time>
      </trkpt>
      <trkpt lat="44.96332" lon="6.03244">
        <ele>2495.3999023438</ele>
        <time>2015-08-20T09:43:59.000Z</time>
      </trkpt>
      <trkpt lat="44.96331" lon="6.03246">
        <ele>2495.8000488281</ele>
        <time>2015-08-20T09:44:00.000Z</time>
      </trkpt>
      <trkpt lat="44.9633" lon="6.0325">
        <ele>2497.1999511719</ele>
        <time>2015-08-20T09:44:03.000Z</time>
      </trkpt>
      <trkpt lat="44.96331" lon="6.03254">
        <ele>2498.6000976562</ele>
        <time>2015-08-20T09:44:05.000Z</time>
      </trkpt>
      <trkpt lat="44.9633" lon="6.03256">
        <ele>2499.6000976562</ele>
        <time>2015-08-20T09:44:07.000Z</time>
      </trkpt>
      <trkpt lat="44.96329" lon="6.03259">
        <ele>2500.1999511719</ele>
        <time>2015-08-20T09:44:09.000Z</time>
      </trkpt>
      <trkpt lat="44.96329" lon="6.03262">
        <ele>2501.1999511719</ele>
        <time>2015-08-20T09:44:12.000Z</time>
      </trkpt>
      <trkpt lat="44.96327" lon="6.03265">
        <ele>2501.8000488281</ele>
        <time>2015-08-20T09:44:15.000Z</time>
      </trkpt>
      <trkpt lat="44.96327" lon="6.03266">
        <ele>2501.8000488281</ele>
        <time>2015-08-20T09:44:16.000Z</time>
      </trkpt>
      <trkpt lat="44.96324" lon="6.03266">
        <ele>2501.1999511719</ele>
        <time>2015-08-20T09:44:23.000Z</time>
      </trkpt>
      <trkpt lat="44.96323" lon="6.03268">
        <ele>2501.1999511719</ele>
        <time>2015-08-20T09:45:17.000Z</time>
      </trkpt>
      <trkpt lat="44.96321" lon="6.03274">
        <ele>2502.6000976562</ele>
        <time>2015-08-20T09:45:22.000Z</time>
      </trkpt>
      <trkpt lat="44.96316" lon="6.03285">
        <ele>2505</ele>
        <time>2015-08-20T09:45:27.000Z</time>
      </trkpt>
      <trkpt lat="44.96312" lon="6.03298">
        <ele>2508.3999023438</ele>
        <time>2015-08-20T09:45:33.000Z</time>
      </trkpt>
      <trkpt lat="44.96307" lon="6.03306">
        <ele>2509.3999023438</ele>
        <time>2015-08-20T09:45:38.000Z</time>
      </trkpt>
      <trkpt lat="44.96303" lon="6.03313">
        <ele>2511</ele>
        <time>2015-08-20T09:45:43.000Z</time>
      </trkpt>
      <trkpt lat="44.96301" lon="6.03317">
        <ele>2512.6000976562</ele>
        <time>2015-08-20T09:45:46.000Z</time>
      </trkpt>
      <trkpt lat="44.96301" lon="6.03319">
        <ele>2513.3999023438</ele>
        <time>2015-08-20T09:45:48.000Z</time>
      </trkpt>
      <trkpt lat="44.96296" lon="6.03329">
        <ele>2516.6000976562</ele>
        <time>2015-08-20T09:45:55.000Z</time>
      </trkpt>
      <trkpt lat="44.96294" lon="6.03337">
        <ele>2520</ele>
        <time>2015-08-20T09:46:00.000Z</time>
      </trkpt>
      <trkpt lat="44.96291" lon="6.03341">
        <ele>2521.1999511719</ele>
        <time>2015-08-20T09:46:04.000Z</time>
      </trkpt>
      <trkpt lat="44.96288" lon="6.03345">
        <ele>2522.6000976562</ele>
        <time>2015-08-20T09:46:08.000Z</time>
      </trkpt>
      <trkpt lat="44.96285" lon="6.03352">
        <ele>2525.3999023438</ele>
        <time>2015-08-20T09:46:14.000Z</time>
      </trkpt>
      <trkpt lat="44.9628" lon="6.03361">
        <ele>2528.1999511719</ele>
        <time>2015-08-20T09:46:21.000Z</time>
      </trkpt>
      <trkpt lat="44.9628" lon="6.03362">
        <ele>2528.8000488281</ele>
        <time>2015-08-20T09:46:22.000Z</time>
      </trkpt>
      <trkpt lat="44.96279" lon="6.03365">
        <ele>2530</ele>
        <time>2015-08-20T09:46:24.000Z</time>
      </trkpt>
      <trkpt lat="44.96276" lon="6.03368">
        <ele>2531.1999511719</ele>
        <time>2015-08-20T09:46:27.000Z</time>
      </trkpt>
      <trkpt lat="44.96272" lon="6.03375">
        <ele>2533.6000976562</ele>
        <time>2015-08-20T09:46:33.000Z</time>
      </trkpt>
      <trkpt lat="44.96269" lon="6.03381">
        <ele>2536.6000976562</ele>
        <time>2015-08-20T09:46:37.000Z</time>
      </trkpt>
      <trkpt lat="44.96264" lon="6.03385">
        <ele>2538</ele>
        <time>2015-08-20T09:46:41.000Z</time>
      </trkpt>
      <trkpt lat="44.96262" lon="6.03387">
        <ele>2538.6000976562</ele>
        <time>2015-08-20T09:46:43.000Z</time>
      </trkpt>
      <trkpt lat="44.96257" lon="6.03395">
        <ele>2541.6000976562</ele>
        <time>2015-08-20T09:46:50.000Z</time>
      </trkpt>
      <trkpt lat="44.9625" lon="6.03402">
        <ele>2541.8000488281</ele>
        <time>2015-08-20T09:46:57.000Z</time>
      </trkpt>
      <trkpt lat="44.96245" lon="6.03405">
        <ele>2541.6000976562</ele>
        <time>2015-08-20T09:47:04.000Z</time>
      </trkpt>
      <trkpt lat="44.96238" lon="6.03407">
        <ele>2540.8000488281</ele>
        <time>2015-08-20T09:47:10.000Z</time>
      </trkpt>
      <trkpt lat="44.96235" lon="6.03408">
        <ele>2540.6000976562</ele>
        <time>2015-08-20T09:47:13.000Z</time>
      </trkpt>
      <trkpt lat="44.9623" lon="6.03409">
        <ele>2539.8000488281</ele>
        <time>2015-08-20T09:47:17.000Z</time>
      </trkpt>
      <trkpt lat="44.9622" lon="6.03415">
        <ele>2539.8000488281</ele>
        <time>2015-08-20T09:47:25.000Z</time>
      </trkpt>
      <trkpt lat="44.96219" lon="6.03417">
        <ele>2540.1999511719</ele>
        <time>2015-08-20T09:47:26.000Z</time>
      </trkpt>
      <trkpt lat="44.96216" lon="6.03419">
        <ele>2540.6000976562</ele>
        <time>2015-08-20T09:47:29.000Z</time>
      </trkpt>
      <trkpt lat="44.96213" lon="6.03423">
        <ele>2541</ele>
        <time>2015-08-20T09:47:33.000Z</time>
      </trkpt>
      <trkpt lat="44.96212" lon="6.03423">
        <ele>2541.1999511719</ele>
        <time>2015-08-20T09:47:34.000Z</time>
      </trkpt>
      <trkpt lat="44.96209" lon="6.03427">
        <ele>2541.8000488281</ele>
        <time>2015-08-20T09:47:39.000Z</time>
      </trkpt>
      <trkpt lat="44.96208" lon="6.03428">
        <ele>2541.8000488281</ele>
        <time>2015-08-20T09:47:40.000Z</time>
      </trkpt>
      <trkpt lat="44.96205" lon="6.03431">
        <ele>2542</ele>
        <time>2015-08-20T09:47:44.000Z</time>
      </trkpt>
      <trkpt lat="44.96203" lon="6.03434">
        <ele>2542</ele>
        <time>2015-08-20T09:47:50.000Z</time>
      </trkpt>
      <trkpt lat="44.96202" lon="6.03436">
        <ele>2542.1999511719</ele>
        <time>2015-08-20T09:47:57.000Z</time>
      </trkpt>
      <trkpt lat="44.96198" lon="6.03438">
        <ele>2541.6000976562</ele>
        <time>2015-08-20T09:48:03.000Z</time>
      </trkpt>
      <trkpt lat="44.96194" lon="6.03439">
        <ele>2540.6000976562</ele>
        <time>2015-08-20T09:48:09.000Z</time>
      </trkpt>
      <trkpt lat="44.96189" lon="6.03442">
        <ele>2539.8000488281</ele>
        <time>2015-08-20T09:48:15.000Z</time>
      </trkpt>
      <trkpt lat="44.96184" lon="6.03443">
        <ele>2538.6000976562</ele>
        <time>2015-08-20T09:48:20.000Z</time>
      </trkpt>
      <trkpt lat="44.96181" lon="6.03444">
        <ele>2537.8000488281</ele>
        <time>2015-08-20T09:48:24.000Z</time>
      </trkpt>
      <trkpt lat="44.9618" lon="6.03445">
        <ele>2537.8000488281</ele>
        <time>2015-08-20T09:48:26.000Z</time>
      </trkpt>
      <trkpt lat="44.96179" lon="6.03446">
        <ele>2538</ele>
        <time>2015-08-20T09:48:31.000Z</time>
      </trkpt>
      <trkpt lat="44.96177" lon="6.03448">
        <ele>2539.6000976562</ele>
        <time>2015-08-20T09:48:37.000Z</time>
      </trkpt>
      <trkpt lat="44.96175" lon="6.03449">
        <ele>2540.3999023438</ele>
        <time>2015-08-20T09:48:42.000Z</time>
      </trkpt>
      <trkpt lat="44.96172" lon="6.0345">
        <ele>2541.6000976562</ele>
        <time>2015-08-20T09:48:46.000Z</time>
      </trkpt>
      <trkpt lat="44.96169" lon="6.0345">
        <ele>2541.8000488281</ele>
        <time>2015-08-20T09:48:50.000Z</time>
      </trkpt>
      <trkpt lat="44.96166" lon="6.03451">
        <ele>2543.3999023438</ele>
        <time>2015-08-20T09:48:55.000Z</time>
      </trkpt>
      <trkpt lat="44.96161" lon="6.03451">
        <ele>2543.8000488281</ele>
        <time>2015-08-20T09:48:58.000Z</time>
      </trkpt>
      <trkpt lat="44.9616" lon="6.03451">
        <ele>2544</ele>
        <time>2015-08-20T09:48:59.000Z</time>
      </trkpt>
      <trkpt lat="44.96157" lon="6.03451">
        <ele>2544.3999023438</ele>
        <time>2015-08-20T09:49:02.000Z</time>
      </trkpt>
      <trkpt lat="44.96154" lon="6.03451">
        <ele>2545</ele>
        <time>2015-08-20T09:49:05.000Z</time>
      </trkpt>
      <trkpt lat="44.9615" lon="6.03451">
        <ele>2546</ele>
        <time>2015-08-20T09:49:08.000Z</time>
      </trkpt>
      <trkpt lat="44.96149" lon="6.03452">
        <ele>2547</ele>
        <time>2015-08-20T09:49:10.000Z</time>
      </trkpt>
      <trkpt lat="44.96142" lon="6.03455">
        <ele>2549.8000488281</ele>
        <time>2015-08-20T09:49:16.000Z</time>
      </trkpt>
      <trkpt lat="44.96138" lon="6.03457">
        <ele>2552.1999511719</ele>
        <time>2015-08-20T09:49:21.000Z</time>
      </trkpt>
      <trkpt lat="44.96134" lon="6.0346">
        <ele>2555.3999023438</ele>
        <time>2015-08-20T09:49:26.000Z</time>
      </trkpt>
      <trkpt lat="44.9613" lon="6.03464">
        <ele>2558.6000976562</ele>
        <time>2015-08-20T09:49:30.000Z</time>
      </trkpt>
      <trkpt lat="44.96129" lon="6.03465">
        <ele>2559.1999511719</ele>
        <time>2015-08-20T09:49:32.000Z</time>
      </trkpt>
      <trkpt lat="44.96127" lon="6.03465">
        <ele>2559.8000488281</ele>
        <time>2015-08-20T09:49:34.000Z</time>
      </trkpt>
      <trkpt lat="44.96124" lon="6.03467">
        <ele>2561.6000976562</ele>
        <time>2015-08-20T09:49:38.000Z</time>
      </trkpt>
      <trkpt lat="44.96122" lon="6.03469">
        <ele>2563.6000976562</ele>
        <time>2015-08-20T09:49:42.000Z</time>
      </trkpt>
      <trkpt lat="44.96122" lon="6.0347">
        <ele>2564</ele>
        <time>2015-08-20T09:49:43.000Z</time>
      </trkpt>
      <trkpt lat="44.9612" lon="6.03472">
        <ele>2565.6000976562</ele>
        <time>2015-08-20T09:49:48.000Z</time>
      </trkpt>
      <trkpt lat="44.96117" lon="6.03473">
        <ele>2565.3999023438</ele>
        <time>2015-08-20T09:49:53.000Z</time>
      </trkpt>
      <trkpt lat="44.96112" lon="6.03475">
        <ele>2566.3999023438</ele>
        <time>2015-08-20T09:49:58.000Z</time>
      </trkpt>
      <trkpt lat="44.9611" lon="6.03476">
        <ele>2566.8000488281</ele>
        <time>2015-08-20T09:50:02.000Z</time>
      </trkpt>
      <trkpt lat="44.96109" lon="6.03476">
        <ele>2566.6000976562</ele>
        <time>2015-08-20T09:50:03.000Z</time>
      </trkpt>
      <trkpt lat="44.96107" lon="6.03477">
        <ele>2566.3999023438</ele>
        <time>2015-08-20T09:50:06.000Z</time>
      </trkpt>
      <trkpt lat="44.9611" lon="6.03479">
        <ele>2567</ele>
        <time>2015-08-20T09:50:13.000Z</time>
      </trkpt>
      <trkpt lat="44.96113" lon="6.03481">
        <ele>2567.3999023438</ele>
        <time>2015-08-20T09:50:17.000Z</time>
      </trkpt>
      <trkpt lat="44.96112" lon="6.03484">
        <ele>2567.6000976562</ele>
        <time>2015-08-20T09:50:22.000Z</time>
      </trkpt>
      <trkpt lat="44.96109" lon="6.03483">
        <ele>2567.3999023438</ele>
        <time>2015-08-20T09:50:26.000Z</time>
      </trkpt>
      <trkpt lat="44.96103" lon="6.03482">
        <ele>2566.6000976562</ele>
        <time>2015-08-20T09:50:32.000Z</time>
      </trkpt>
      <trkpt lat="44.96099" lon="6.03482">
        <ele>2566.1999511719</ele>
        <time>2015-08-20T09:50:36.000Z</time>
      </trkpt>
      <trkpt lat="44.96095" lon="6.03483">
        <ele>2566</ele>
        <time>2015-08-20T09:50:42.000Z</time>
      </trkpt>
      <trkpt lat="44.96092" lon="6.03484">
        <ele>2565.8000488281</ele>
        <time>2015-08-20T09:50:48.000Z</time>
      </trkpt>
      <trkpt lat="44.9609" lon="6.03484">
        <ele>2565.6000976562</ele>
        <time>2015-08-20T09:50:52.000Z</time>
      </trkpt>
      <trkpt lat="44.96086" lon="6.03485">
        <ele>2565.3999023438</ele>
        <time>2015-08-20T09:50:57.000Z</time>
      </trkpt>
      <trkpt lat="44.96084" lon="6.03486">
        <ele>2565.1999511719</ele>
        <time>2015-08-20T09:51:01.000Z</time>
      </trkpt>
      <trkpt lat="44.96081" lon="6.03487">
        <ele>2565.1999511719</ele>
        <time>2015-08-20T09:51:05.000Z</time>
      </trkpt>
      <trkpt lat="44.9608" lon="6.03488">
        <ele>2565.1999511719</ele>
        <time>2015-08-20T09:51:08.000Z</time>
      </trkpt>
      <trkpt lat="44.96077" lon="6.0349">
        <ele>2565</ele>
        <time>2015-08-20T09:51:12.000Z</time>
      </trkpt>
      <trkpt lat="44.96074" lon="6.03491">
        <ele>2564.8000488281</ele>
        <time>2015-08-20T09:51:17.000Z</time>
      </trkpt>
      <trkpt lat="44.96071" lon="6.03494">
        <ele>2564.8000488281</ele>
        <time>2015-08-20T09:51:22.000Z</time>
      </trkpt>
      <trkpt lat="44.96067" lon="6.03496">
        <ele>2564.6000976562</ele>
        <time>2015-08-20T09:51:28.000Z</time>
      </trkpt>
      <trkpt lat="44.96065" lon="6.03499">
        <ele>2564.8000488281</ele>
        <time>2015-08-20T09:51:32.000Z</time>
      </trkpt>
      <trkpt lat="44.96062" lon="6.03502">
        <ele>2562.8000488281</ele>
        <time>2015-08-20T09:51:36.000Z</time>
      </trkpt>
      <trkpt lat="44.9606" lon="6.03504">
        <ele>2561.6000976562</ele>
        <time>2015-08-20T09:51:38.000Z</time>
      </trkpt>
      <trkpt lat="44.96058" lon="6.03506">
        <ele>2560.1999511719</ele>
        <time>2015-08-20T09:51:42.000Z</time>
      </trkpt>
      <trkpt lat="44.96054" lon="6.0351">
        <ele>2557.6000976562</ele>
        <time>2015-08-20T09:51:46.000Z</time>
      </trkpt>
      <trkpt lat="44.96053" lon="6.03512">
        <ele>2556.8000488281</ele>
        <time>2015-08-20T09:51:47.000Z</time>
      </trkpt>
      <trkpt lat="44.96052" lon="6.03514">
        <ele>2555.6000976562</ele>
        <time>2015-08-20T09:51:50.000Z</time>
      </trkpt>
      <trkpt lat="44.96052" lon="6.03516">
        <ele>2555.1999511719</ele>
        <time>2015-08-20T09:51:53.000Z</time>
      </trkpt>
      <trkpt lat="44.96053" lon="6.03518">
        <ele>2555.1999511719</ele>
        <time>2015-08-20T09:51:57.000Z</time>
      </trkpt>
      <trkpt lat="44.96056" lon="6.0352">
        <ele>2555.8000488281</ele>
        <time>2015-08-20T09:52:11.000Z</time>
      </trkpt>
      <trkpt lat="44.96053" lon="6.03522">
        <ele>2554.1999511719</ele>
        <time>2015-08-20T09:52:18.000Z</time>
      </trkpt>
      <trkpt lat="44.96052" lon="6.03523">
        <ele>2553.6000976562</ele>
        <time>2015-08-20T09:52:26.000Z</time>
      </trkpt>
      <trkpt lat="44.96054" lon="6.03518">
        <ele>2555.8000488281</ele>
        <time>2015-08-20T09:52:50.000Z</time>
      </trkpt>
      <trkpt lat="44.96059" lon="6.03511">
        <ele>2559.6000976562</ele>
        <time>2015-08-20T09:52:57.000Z</time>
      </trkpt>
      <trkpt lat="44.9606" lon="6.0351">
        <ele>2560.1999511719</ele>
        <time>2015-08-20T09:52:59.000Z</time>
      </trkpt>
      <trkpt lat="44.9606" lon="6.0351">
        <ele>2560.1999511719</ele>
        <time>2015-08-20T09:53:03.000Z</time>
      </trkpt>
      <trkpt lat="44.96063" lon="6.03508">
        <ele>2562</ele>
        <time>2015-08-20T09:53:14.000Z</time>
      </trkpt>
      <trkpt lat="44.96063" lon="6.03508">
        <ele>2561.8000488281</ele>
        <time>2015-08-20T09:53:15.000Z</time>
      </trkpt>
      <trkpt lat="44.96061" lon="6.035">
        <ele>2563</ele>
        <time>2015-08-20T09:54:36.000Z</time>
      </trkpt>
      <trkpt lat="44.96062" lon="6.03499">
        <ele>2564</ele>
        <time>2015-08-20T09:54:38.000Z</time>
      </trkpt>
      <trkpt lat="44.96064" lon="6.03498">
        <ele>2564.6000976562</ele>
        <time>2015-08-20T09:54:40.000Z</time>
      </trkpt>
      <trkpt lat="44.96068" lon="6.03492">
        <ele>2564.3999023438</ele>
        <time>2015-08-20T09:54:46.000Z</time>
      </trkpt>
      <trkpt lat="44.96072" lon="6.0349">
        <ele>2564.6000976562</ele>
        <time>2015-08-20T09:54:53.000Z</time>
      </trkpt>
      <trkpt lat="44.96079" lon="6.03488">
        <ele>2565</ele>
        <time>2015-08-20T09:55:00.000Z</time>
      </trkpt>
      <trkpt lat="44.96081" lon="6.03488">
        <ele>2565.1999511719</ele>
        <time>2015-08-20T09:55:06.000Z</time>
      </trkpt>
      <trkpt lat="44.96081" lon="6.03487">
        <ele>2565.1999511719</ele>
        <time>2015-08-20T09:55:27.000Z</time>
      </trkpt>
      <trkpt lat="44.9608" lon="6.03488">
        <ele>2565</ele>
        <time>2015-08-20T09:59:41.000Z</time>
      </trkpt>
      <trkpt lat="44.96079" lon="6.03488">
        <ele>2565</ele>
        <time>2015-08-20T09:59:56.000Z</time>
      </trkpt>
      <trkpt lat="44.96081" lon="6.03488">
        <ele>2565.1999511719</ele>
        <time>2015-08-20T10:00:01.000Z</time>
      </trkpt>
      <trkpt lat="44.96081" lon="6.03488">
        <ele>2565.1999511719</ele>
        <time>2015-08-20T10:00:40.000Z</time>
      </trkpt>
      <trkpt lat="44.96082" lon="6.0349">
        <ele>2565.3999023438</ele>
        <time>2015-08-20T10:00:50.000Z</time>
      </trkpt>
      <trkpt lat="44.96083" lon="6.03491">
        <ele>2565.8000488281</ele>
        <time>2015-08-20T10:02:14.000Z</time>
      </trkpt>
      <trkpt lat="44.96085" lon="6.03494">
        <ele>2566.1999511719</ele>
        <time>2015-08-20T10:03:26.000Z</time>
      </trkpt>
      <trkpt lat="44.96087" lon="6.03491">
        <ele>2566</ele>
        <time>2015-08-20T10:03:32.000Z</time>
      </trkpt>
      <trkpt lat="44.96092" lon="6.03488">
        <ele>2566.1999511719</ele>
        <time>2015-08-20T10:03:37.000Z</time>
      </trkpt>
      <trkpt lat="44.96099" lon="6.03486">
        <ele>2566.6000976562</ele>
        <time>2015-08-20T10:03:44.000Z</time>
      </trkpt>
      <trkpt lat="44.96108" lon="6.03486">
        <ele>2567.6000976562</ele>
        <time>2015-08-20T10:03:49.000Z</time>
      </trkpt>
      <trkpt lat="44.96117" lon="6.03486">
        <ele>2568.3999023438</ele>
        <time>2015-08-20T10:03:55.000Z</time>
      </trkpt>
      <trkpt lat="44.96117" lon="6.03486">
        <ele>2568.3999023438</ele>
        <time>2015-08-20T10:03:56.000Z</time>
      </trkpt>
      <trkpt lat="44.96113" lon="6.03483">
        <ele>2567.6000976562</ele>
        <time>2015-08-20T10:04:00.000Z</time>
      </trkpt>
      <trkpt lat="44.96112" lon="6.03483">
        <ele>2567.6000976562</ele>
        <time>2015-08-20T10:04:01.000Z</time>
      </trkpt>
      <trkpt lat="44.96115" lon="6.03479">
        <ele>2567.6000976562</ele>
        <time>2015-08-20T10:04:06.000Z</time>
      </trkpt>
      <trkpt lat="44.96117" lon="6.03477">
        <ele>2567.3999023438</ele>
        <time>2015-08-20T10:04:07.000Z</time>
      </trkpt>
      <trkpt lat="44.96122" lon="6.03476">
        <ele>2567.8000488281</ele>
        <time>2015-08-20T10:04:11.000Z</time>
      </trkpt>
      <trkpt lat="44.96125" lon="6.03475">
        <ele>2567.1999511719</ele>
        <time>2015-08-20T10:04:15.000Z</time>
      </trkpt>
      <trkpt lat="44.96126" lon="6.03473">
        <ele>2565.8000488281</ele>
        <time>2015-08-20T10:04:16.000Z</time>
      </trkpt>
      <trkpt lat="44.96131" lon="6.03469">
        <ele>2562.1999511719</ele>
        <time>2015-08-20T10:04:21.000Z</time>
      </trkpt>
      <trkpt lat="44.96135" lon="6.03467">
        <ele>2560</ele>
        <time>2015-08-20T10:04:23.000Z</time>
      </trkpt>
      <trkpt lat="44.96145" lon="6.03461">
        <ele>2553.6000976562</ele>
        <time>2015-08-20T10:04:28.000Z</time>
      </trkpt>
      <trkpt lat="44.96155" lon="6.03456">
        <ele>2548.3999023438</ele>
        <time>2015-08-20T10:04:33.000Z</time>
      </trkpt>
      <trkpt lat="44.96158" lon="6.03455">
        <ele>2547.1999511719</ele>
        <time>2015-08-20T10:04:34.000Z</time>
      </trkpt>
      <trkpt lat="44.96167" lon="6.03453">
        <ele>2544.8000488281</ele>
        <time>2015-08-20T10:04:38.000Z</time>
      </trkpt>
      <trkpt lat="44.96176" lon="6.03453">
        <ele>2543.1999511719</ele>
        <time>2015-08-20T10:04:43.000Z</time>
      </trkpt>
      <trkpt lat="44.96184" lon="6.03452">
        <ele>2541.3999023438</ele>
        <time>2015-08-20T10:04:48.000Z</time>
      </trkpt>
      <trkpt lat="44.96185" lon="6.0345">
        <ele>2540.8000488281</ele>
        <time>2015-08-20T10:04:49.000Z</time>
      </trkpt>
      <trkpt lat="44.9619" lon="6.03446">
        <ele>2541.3999023438</ele>
        <time>2015-08-20T10:04:53.000Z</time>
      </trkpt>
      <trkpt lat="44.96196" lon="6.03441">
        <ele>2541.8000488281</ele>
        <time>2015-08-20T10:04:59.000Z</time>
      </trkpt>
      <trkpt lat="44.96199" lon="6.03441">
        <ele>2542.6000976562</ele>
        <time>2015-08-20T10:05:00.000Z</time>
      </trkpt>
      <trkpt lat="44.96202" lon="6.03438">
        <ele>2543</ele>
        <time>2015-08-20T10:05:03.000Z</time>
      </trkpt>
      <trkpt lat="44.96205" lon="6.03439">
        <ele>2543.8000488281</ele>
        <time>2015-08-20T10:05:04.000Z</time>
      </trkpt>
      <trkpt lat="44.96209" lon="6.03435">
        <ele>2544</ele>
        <time>2015-08-20T10:05:07.000Z</time>
      </trkpt>
      <trkpt lat="44.96215" lon="6.03427">
        <ele>2542.6000976562</ele>
        <time>2015-08-20T10:05:12.000Z</time>
      </trkpt>
      <trkpt lat="44.96218" lon="6.03423">
        <ele>2542</ele>
        <time>2015-08-20T10:05:14.000Z</time>
      </trkpt>
      <trkpt lat="44.96224" lon="6.03419">
        <ele>2541.3999023438</ele>
        <time>2015-08-20T10:05:17.000Z</time>
      </trkpt>
      <trkpt lat="44.96226" lon="6.03415">
        <ele>2540.8000488281</ele>
        <time>2015-08-20T10:05:18.000Z</time>
      </trkpt>
      <trkpt lat="44.96233" lon="6.03412">
        <ele>2541</ele>
        <time>2015-08-20T10:05:21.000Z</time>
      </trkpt>
      <trkpt lat="44.96241" lon="6.0341">
        <ele>2542.1999511719</ele>
        <time>2015-08-20T10:05:24.000Z</time>
      </trkpt>
      <trkpt lat="44.96244" lon="6.03408">
        <ele>2542.1999511719</ele>
        <time>2015-08-20T10:05:26.000Z</time>
      </trkpt>
      <trkpt lat="44.96256" lon="6.03403">
        <ele>2543.1999511719</ele>
        <time>2015-08-20T10:05:31.000Z</time>
      </trkpt>
      <trkpt lat="44.96265" lon="6.03391">
        <ele>2541.3999023438</ele>
        <time>2015-08-20T10:05:36.000Z</time>
      </trkpt>
      <trkpt lat="44.96273" lon="6.03381">
        <ele>2537.3999023438</ele>
        <time>2015-08-20T10:05:41.000Z</time>
      </trkpt>
      <trkpt lat="44.9628" lon="6.03373">
        <ele>2534.6000976562</ele>
        <time>2015-08-20T10:05:45.000Z</time>
      </trkpt>
      <trkpt lat="44.9628" lon="6.0337">
        <ele>2533</ele>
        <time>2015-08-20T10:05:46.000Z</time>
      </trkpt>
      <trkpt lat="44.96284" lon="6.03363">
        <ele>2530.6000976562</ele>
        <time>2015-08-20T10:05:49.000Z</time>
      </trkpt>
      <trkpt lat="44.96289" lon="6.03352">
        <ele>2526</ele>
        <time>2015-08-20T10:05:54.000Z</time>
      </trkpt>
      <trkpt lat="44.96293" lon="6.03342">
        <ele>2522.1999511719</ele>
        <time>2015-08-20T10:05:58.000Z</time>
      </trkpt>
      <trkpt lat="44.96294" lon="6.03337">
        <ele>2520</ele>
        <time>2015-08-20T10:06:00.000Z</time>
      </trkpt>
      <trkpt lat="44.96299" lon="6.03326">
        <ele>2515.6000976562</ele>
        <time>2015-08-20T10:06:04.000Z</time>
      </trkpt>
      <trkpt lat="44.96304" lon="6.03316">
        <ele>2512.8000488281</ele>
        <time>2015-08-20T10:06:09.000Z</time>
      </trkpt>
      <trkpt lat="44.9631" lon="6.03304">
        <ele>2510.1999511719</ele>
        <time>2015-08-20T10:06:14.000Z</time>
      </trkpt>
      <trkpt lat="44.96313" lon="6.03298">
        <ele>2508.8000488281</ele>
        <time>2015-08-20T10:06:17.000Z</time>
      </trkpt>
      <trkpt lat="44.96316" lon="6.03294">
        <ele>2508.3999023438</ele>
        <time>2015-08-20T10:06:19.000Z</time>
      </trkpt>
      <trkpt lat="44.9632" lon="6.03286">
        <ele>2507.1999511719</ele>
        <time>2015-08-20T10:06:23.000Z</time>
      </trkpt>
      <trkpt lat="44.96324" lon="6.03279">
        <ele>2506</ele>
        <time>2015-08-20T10:06:26.000Z</time>
      </trkpt>
      <trkpt lat="44.96325" lon="6.03276">
        <ele>2505</ele>
        <time>2015-08-20T10:06:27.000Z</time>
      </trkpt>
      <trkpt lat="44.96333" lon="6.03265">
        <ele>2503.8000488281</ele>
        <time>2015-08-20T10:06:32.000Z</time>
      </trkpt>
      <trkpt lat="44.96338" lon="6.03248">
        <ele>2499</ele>
        <time>2015-08-20T10:06:38.000Z</time>
      </trkpt>
      <trkpt lat="44.96347" lon="6.03233">
        <ele>2496.6000976562</ele>
        <time>2015-08-20T10:06:44.000Z</time>
      </trkpt>
      <trkpt lat="44.9635" lon="6.0323">
        <ele>2496.1999511719</ele>
        <time>2015-08-20T10:06:48.000Z</time>
      </trkpt>
      <trkpt lat="44.96355" lon="6.03228">
        <ele>2497.1999511719</ele>
        <time>2015-08-20T10:06:53.000Z</time>
      </trkpt>
      <trkpt lat="44.96355" lon="6.03227">
        <ele>2497</ele>
        <time>2015-08-20T10:06:54.000Z</time>
      </trkpt>
      <trkpt lat="44.96355" lon="6.03226">
        <ele>2496.6000976562</ele>
        <time>2015-08-20T10:06:55.000Z</time>
      </trkpt>
      <trkpt lat="44.96356" lon="6.03224">
        <ele>2496.1999511719</ele>
        <time>2015-08-20T10:06:57.000Z</time>
      </trkpt>
      <trkpt lat="44.9636" lon="6.0321">
        <ele>2494.1999511719</ele>
        <time>2015-08-20T10:07:04.000Z</time>
      </trkpt>
      <trkpt lat="44.96365" lon="6.03194">
        <ele>2493.6000976562</ele>
        <time>2015-08-20T10:07:09.000Z</time>
      </trkpt>
      <trkpt lat="44.96368" lon="6.03179">
        <ele>2492.3999023438</ele>
        <time>2015-08-20T10:07:14.000Z</time>
      </trkpt>
      <trkpt lat="44.96367" lon="6.03161">
        <ele>2489</ele>
        <time>2015-08-20T10:07:20.000Z</time>
      </trkpt>
      <trkpt lat="44.96367" lon="6.03156">
        <ele>2488.3999023438</ele>
        <time>2015-08-20T10:07:24.000Z</time>
      </trkpt>
      <trkpt lat="44.96372" lon="6.03146">
        <ele>2488.6000976562</ele>
        <time>2015-08-20T10:07:29.000Z</time>
      </trkpt>
      <trkpt lat="44.96371" lon="6.03144">
        <ele>2488</ele>
        <time>2015-08-20T10:07:30.000Z</time>
      </trkpt>
      <trkpt lat="44.96374" lon="6.03134">
        <ele>2487.1999511719</ele>
        <time>2015-08-20T10:07:33.000Z</time>
      </trkpt>
      <trkpt lat="44.96382" lon="6.03116">
        <ele>2488</ele>
        <time>2015-08-20T10:07:40.000Z</time>
      </trkpt>
      <trkpt lat="44.96382" lon="6.03113">
        <ele>2487.3999023438</ele>
        <time>2015-08-20T10:07:41.000Z</time>
      </trkpt>
      <trkpt lat="44.9638" lon="6.03109">
        <ele>2485.8000488281</ele>
        <time>2015-08-20T10:07:44.000Z</time>
      </trkpt>
      <trkpt lat="44.96383" lon="6.03097">
        <ele>2485.1999511719</ele>
        <time>2015-08-20T10:07:48.000Z</time>
      </trkpt>
      <trkpt lat="44.96386" lon="6.03082">
        <ele>2483.8000488281</ele>
        <time>2015-08-20T10:07:53.000Z</time>
      </trkpt>
      <trkpt lat="44.96389" lon="6.03069">
        <ele>2483.1999511719</ele>
        <time>2015-08-20T10:07:57.000Z</time>
      </trkpt>
      <trkpt lat="44.96395" lon="6.03053">
        <ele>2483.3999023438</ele>
        <time>2015-08-20T10:08:02.000Z</time>
      </trkpt>
      <trkpt lat="44.96399" lon="6.03041">
        <ele>2483.3999023438</ele>
        <time>2015-08-20T10:08:07.000Z</time>
      </trkpt>
      <trkpt lat="44.96403" lon="6.0303">
        <ele>2483.1999511719</ele>
        <time>2015-08-20T10:08:12.000Z</time>
      </trkpt>
      <trkpt lat="44.96404" lon="6.03016">
        <ele>2481</ele>
        <time>2015-08-20T10:08:17.000Z</time>
      </trkpt>
      <trkpt lat="44.96407" lon="6.03001">
        <ele>2479.6000976562</ele>
        <time>2015-08-20T10:08:24.000Z</time>
      </trkpt>
      <trkpt lat="44.96411" lon="6.0299">
        <ele>2479.6000976562</ele>
        <time>2015-08-20T10:08:29.000Z</time>
      </trkpt>
      <trkpt lat="44.96414" lon="6.02974">
        <ele>2478.1999511719</ele>
        <time>2015-08-20T10:08:37.000Z</time>
      </trkpt>
      <trkpt lat="44.96417" lon="6.02959">
        <ele>2477</ele>
        <time>2015-08-20T10:08:42.000Z</time>
      </trkpt>
      <trkpt lat="44.96417" lon="6.02955">
        <ele>2476.3999023438</ele>
        <time>2015-08-20T10:08:46.000Z</time>
      </trkpt>
      <trkpt lat="44.96416" lon="6.02953">
        <ele>2476</ele>
        <time>2015-08-20T10:08:47.000Z</time>
      </trkpt>
      <trkpt lat="44.96416" lon="6.02947">
        <ele>2474.8000488281</ele>
        <time>2015-08-20T10:08:52.000Z</time>
      </trkpt>
      <trkpt lat="44.96415" lon="6.02933">
        <ele>2471.6000976562</ele>
        <time>2015-08-20T10:08:59.000Z</time>
      </trkpt>
      <trkpt lat="44.96411" lon="6.0292">
        <ele>2467.3999023438</ele>
        <time>2015-08-20T10:09:06.000Z</time>
      </trkpt>
      <trkpt lat="44.96411" lon="6.02919">
        <ele>2467</ele>
        <time>2015-08-20T10:09:07.000Z</time>
      </trkpt>
      <trkpt lat="44.9641" lon="6.02913">
        <ele>2465.8000488281</ele>
        <time>2015-08-20T10:09:11.000Z</time>
      </trkpt>
      <trkpt lat="44.96405" lon="6.029">
        <ele>2461</ele>
        <time>2015-08-20T10:09:18.000Z</time>
      </trkpt>
      <trkpt lat="44.96402" lon="6.02891">
        <ele>2457.8000488281</ele>
        <time>2015-08-20T10:09:23.000Z</time>
      </trkpt>
      <trkpt lat="44.96402" lon="6.02889">
        <ele>2457.6000976562</ele>
        <time>2015-08-20T10:09:24.000Z</time>
      </trkpt>
      <trkpt lat="44.96402" lon="6.02887">
        <ele>2457.6000976562</ele>
        <time>2015-08-20T10:09:25.000Z</time>
      </trkpt>
      <trkpt lat="44.96403" lon="6.02884">
        <ele>2457.6000976562</ele>
        <time>2015-08-20T10:09:29.000Z</time>
      </trkpt>
      <trkpt lat="44.96403" lon="6.0288">
        <ele>2457.3999023438</ele>
        <time>2015-08-20T10:09:47.000Z</time>
      </trkpt>
      <trkpt lat="44.96405" lon="6.02877">
        <ele>2458</ele>
        <time>2015-08-20T10:09:50.000Z</time>
      </trkpt>
      <trkpt lat="44.96405" lon="6.02874">
        <ele>2458.1999511719</ele>
        <time>2015-08-20T10:09:52.000Z</time>
      </trkpt>
      <trkpt lat="44.96408" lon="6.02864">
        <ele>2458.6000976562</ele>
        <time>2015-08-20T10:09:57.000Z</time>
      </trkpt>
      <trkpt lat="44.96409" lon="6.02852">
        <ele>2458.1999511719</ele>
        <time>2015-08-20T10:10:04.000Z</time>
      </trkpt>
      <trkpt lat="44.96411" lon="6.02839">
        <ele>2458.1999511719</ele>
        <time>2015-08-20T10:10:11.000Z</time>
      </trkpt>
      <trkpt lat="44.96412" lon="6.02836">
        <ele>2458.3999023438</ele>
        <time>2015-08-20T10:10:13.000Z</time>
      </trkpt>
      <trkpt lat="44.96412" lon="6.02833">
        <ele>2458.3999023438</ele>
        <time>2015-08-20T10:10:15.000Z</time>
      </trkpt>
      <trkpt lat="44.96412" lon="6.02827">
        <ele>2457.8000488281</ele>
        <time>2015-08-20T10:10:17.000Z</time>
      </trkpt>
      <trkpt lat="44.96412" lon="6.02817">
        <ele>2456.8000488281</ele>
        <time>2015-08-20T10:10:20.000Z</time>
      </trkpt>
      <trkpt lat="44.96411" lon="6.02813">
        <ele>2455.8000488281</ele>
        <time>2015-08-20T10:10:22.000Z</time>
      </trkpt>
      <trkpt lat="44.96411" lon="6.0281">
        <ele>2455.3999023438</ele>
        <time>2015-08-20T10:10:24.000Z</time>
      </trkpt>
      <trkpt lat="44.96409" lon="6.02805">
        <ele>2454.1999511719</ele>
        <time>2015-08-20T10:10:26.000Z</time>
      </trkpt>
      <trkpt lat="44.96404" lon="6.02793">
        <ele>2450.3999023438</ele>
        <time>2015-08-20T10:10:31.000Z</time>
      </trkpt>
      <trkpt lat="44.96399" lon="6.02781">
        <ele>2447.3999023438</ele>
        <time>2015-08-20T10:10:36.000Z</time>
      </trkpt>
      <trkpt lat="44.96397" lon="6.02776">
        <ele>2446.1999511719</ele>
        <time>2015-08-20T10:10:39.000Z</time>
      </trkpt>
      <trkpt lat="44.96396" lon="6.02772">
        <ele>2445</ele>
        <time>2015-08-20T10:10:41.000Z</time>
      </trkpt>
      <trkpt lat="44.96396" lon="6.02768">
        <ele>2445</ele>
        <time>2015-08-20T10:10:43.000Z</time>
      </trkpt>
      <trkpt lat="44.96396" lon="6.02762">
        <ele>2444.6000976562</ele>
        <time>2015-08-20T10:10:46.000Z</time>
      </trkpt>
      <trkpt lat="44.96395" lon="6.02759">
        <ele>2444.1999511719</ele>
        <time>2015-08-20T10:10:47.000Z</time>
      </trkpt>
      <trkpt lat="44.96393" lon="6.02747">
        <ele>2442</ele>
        <time>2015-08-20T10:10:52.000Z</time>
      </trkpt>
      <trkpt lat="44.96391" lon="6.02728">
        <ele>2440.3999023438</ele>
        <time>2015-08-20T10:10:59.000Z</time>
      </trkpt>
      <trkpt lat="44.96388" lon="6.02715">
        <ele>2438</ele>
        <time>2015-08-20T10:11:04.000Z</time>
      </trkpt>
      <trkpt lat="44.96392" lon="6.02701">
        <ele>2439</ele>
        <time>2015-08-20T10:11:09.000Z</time>
      </trkpt>
      <trkpt lat="44.96395" lon="6.02692">
        <ele>2440.3999023438</ele>
        <time>2015-08-20T10:11:13.000Z</time>
      </trkpt>
      <trkpt lat="44.96394" lon="6.02687">
        <ele>2439.3999023438</ele>
        <time>2015-08-20T10:11:15.000Z</time>
      </trkpt>
      <trkpt lat="44.96394" lon="6.02669">
        <ele>2438.6000976562</ele>
        <time>2015-08-20T10:11:21.000Z</time>
      </trkpt>
      <trkpt lat="44.96395" lon="6.02653">
        <ele>2437.6000976562</ele>
        <time>2015-08-20T10:11:27.000Z</time>
      </trkpt>
      <trkpt lat="44.96395" lon="6.02651">
        <ele>2437.8000488281</ele>
        <time>2015-08-20T10:11:28.000Z</time>
      </trkpt>
      <trkpt lat="44.96396" lon="6.02643">
        <ele>2437.3999023438</ele>
        <time>2015-08-20T10:11:34.000Z</time>
      </trkpt>
      <trkpt lat="44.96395" lon="6.02644">
        <ele>2437</ele>
        <time>2015-08-20T10:11:35.000Z</time>
      </trkpt>
      <trkpt lat="44.96392" lon="6.02648">
        <ele>2436</ele>
        <time>2015-08-20T10:11:37.000Z</time>
      </trkpt>
      <trkpt lat="44.96384" lon="6.02662">
        <ele>2432.8000488281</ele>
        <time>2015-08-20T10:11:44.000Z</time>
      </trkpt>
      <trkpt lat="44.9638" lon="6.02674">
        <ele>2431</ele>
        <time>2015-08-20T10:11:49.000Z</time>
      </trkpt>
      <trkpt lat="44.96372" lon="6.02686">
        <ele>2427.1999511719</ele>
        <time>2015-08-20T10:11:55.000Z</time>
      </trkpt>
      <trkpt lat="44.96369" lon="6.02689">
        <ele>2426</ele>
        <time>2015-08-20T10:11:57.000Z</time>
      </trkpt>
      <trkpt lat="44.96364" lon="6.02694">
        <ele>2423.8000488281</ele>
        <time>2015-08-20T10:12:00.000Z</time>
      </trkpt>
      <trkpt lat="44.9636" lon="6.02697">
        <ele>2422</ele>
        <time>2015-08-20T10:12:03.000Z</time>
      </trkpt>
      <trkpt lat="44.9636" lon="6.02696">
        <ele>2422</ele>
        <time>2015-08-20T10:12:04.000Z</time>
      </trkpt>
      <trkpt lat="44.96363" lon="6.02685">
        <ele>2422.6000976562</ele>
        <time>2015-08-20T10:12:08.000Z</time>
      </trkpt>
      <trkpt lat="44.96363" lon="6.02665">
        <ele>2421.6000976562</ele>
        <time>2015-08-20T10:12:14.000Z</time>
      </trkpt>
      <trkpt lat="44.96362" lon="6.02663">
        <ele>2421</ele>
        <time>2015-08-20T10:12:15.000Z</time>
      </trkpt>
      <trkpt lat="44.9636" lon="6.02653">
        <ele>2419.3999023438</ele>
        <time>2015-08-20T10:12:18.000Z</time>
      </trkpt>
      <trkpt lat="44.96357" lon="6.02644">
        <ele>2417</ele>
        <time>2015-08-20T10:12:23.000Z</time>
      </trkpt>
      <trkpt lat="44.96352" lon="6.02657">
        <ele>2415.3999023438</ele>
        <time>2015-08-20T10:12:27.000Z</time>
      </trkpt>
      <trkpt lat="44.96344" lon="6.02672">
        <ele>2411.8000488281</ele>
        <time>2015-08-20T10:12:33.000Z</time>
      </trkpt>
      <trkpt lat="44.96334" lon="6.02678">
        <ele>2407.1999511719</ele>
        <time>2015-08-20T10:12:39.000Z</time>
      </trkpt>
      <trkpt lat="44.96326" lon="6.02684">
        <ele>2403.8000488281</ele>
        <time>2015-08-20T10:12:44.000Z</time>
      </trkpt>
      <trkpt lat="44.96325" lon="6.02686">
        <ele>2403.8000488281</ele>
        <time>2015-08-20T10:12:45.000Z</time>
      </trkpt>
      <trkpt lat="44.96323" lon="6.02704">
        <ele>2405.3999023438</ele>
        <time>2015-08-20T10:12:51.000Z</time>
      </trkpt>
      <trkpt lat="44.96318" lon="6.02723">
        <ele>2405.3999023438</ele>
        <time>2015-08-20T10:12:58.000Z</time>
      </trkpt>
      <trkpt lat="44.96315" lon="6.02725">
        <ele>2404.8000488281</ele>
        <time>2015-08-20T10:12:59.000Z</time>
      </trkpt>
      <trkpt lat="44.9631" lon="6.0273">
        <ele>2402.8000488281</ele>
        <time>2015-08-20T10:13:02.000Z</time>
      </trkpt>
      <trkpt lat="44.96302" lon="6.02735">
        <ele>2399.3999023438</ele>
        <time>2015-08-20T10:13:07.000Z</time>
      </trkpt>
      <trkpt lat="44.96298" lon="6.02745">
        <ele>2398.8000488281</ele>
        <time>2015-08-20T10:13:12.000Z</time>
      </trkpt>
      <trkpt lat="44.96297" lon="6.02746">
        <ele>2398.3999023438</ele>
        <time>2015-08-20T10:13:13.000Z</time>
      </trkpt>
      <trkpt lat="44.96296" lon="6.02743">
        <ele>2397.8000488281</ele>
        <time>2015-08-20T10:13:15.000Z</time>
      </trkpt>
      <trkpt lat="44.96295" lon="6.0274">
        <ele>2397.1999511719</ele>
        <time>2015-08-20T10:13:16.000Z</time>
      </trkpt>
      <trkpt lat="44.96294" lon="6.02731">
        <ele>2395.8000488281</ele>
        <time>2015-08-20T10:13:19.000Z</time>
      </trkpt>
      <trkpt lat="44.96295" lon="6.02725">
        <ele>2395.8000488281</ele>
        <time>2015-08-20T10:13:21.000Z</time>
      </trkpt>
      <trkpt lat="44.96294" lon="6.02719">
        <ele>2394.6000976562</ele>
        <time>2015-08-20T10:13:23.000Z</time>
      </trkpt>
      <trkpt lat="44.96292" lon="6.02711">
        <ele>2392.3999023438</ele>
        <time>2015-08-20T10:13:26.000Z</time>
      </trkpt>
      <trkpt lat="44.96293" lon="6.02707">
        <ele>2392.3999023438</ele>
        <time>2015-08-20T10:13:27.000Z</time>
      </trkpt>
      <trkpt lat="44.96296" lon="6.02699">
        <ele>2392.6000976562</ele>
        <time>2015-08-20T10:13:30.000Z</time>
      </trkpt>
      <trkpt lat="44.96295" lon="6.02696">
        <ele>2392</ele>
        <time>2015-08-20T10:13:31.000Z</time>
      </trkpt>
      <trkpt lat="44.96292" lon="6.02691">
        <ele>2390</ele>
        <time>2015-08-20T10:13:34.000Z</time>
      </trkpt>
      <trkpt lat="44.96284" lon="6.02678">
        <ele>2383.3999023438</ele>
        <time>2015-08-20T10:13:40.000Z</time>
      </trkpt>
      <trkpt lat="44.9628" lon="6.02662">
        <ele>2379.1999511719</ele>
        <time>2015-08-20T10:13:46.000Z</time>
      </trkpt>
      <trkpt lat="44.96277" lon="6.02655">
        <ele>2376.6000976562</ele>
        <time>2015-08-20T10:13:49.000Z</time>
      </trkpt>
      <trkpt lat="44.96278" lon="6.02652">
        <ele>2376.3999023438</ele>
        <time>2015-08-20T10:13:50.000Z</time>
      </trkpt>
      <trkpt lat="44.96279" lon="6.02649">
        <ele>2376.8000488281</ele>
        <time>2015-08-20T10:13:51.000Z</time>
      </trkpt>
      <trkpt lat="44.96281" lon="6.02641">
        <ele>2377</ele>
        <time>2015-08-20T10:13:55.000Z</time>
      </trkpt>
      <trkpt lat="44.96276" lon="6.0264">
        <ele>2373.6000976562</ele>
        <time>2015-08-20T10:13:59.000Z</time>
      </trkpt>
      <trkpt lat="44.96266" lon="6.02644">
        <ele>2368.6000976562</ele>
        <time>2015-08-20T10:14:04.000Z</time>
      </trkpt>
      <trkpt lat="44.96253" lon="6.02649">
        <ele>2361.3999023438</ele>
        <time>2015-08-20T10:14:11.000Z</time>
      </trkpt>
      <trkpt lat="44.96247" lon="6.02655">
        <ele>2358.8000488281</ele>
        <time>2015-08-20T10:14:15.000Z</time>
      </trkpt>
      <trkpt lat="44.96243" lon="6.02662">
        <ele>2357.1999511719</ele>
        <time>2015-08-20T10:14:18.000Z</time>
      </trkpt>
      <trkpt lat="44.9624" lon="6.02671">
        <ele>2356.8000488281</ele>
        <time>2015-08-20T10:14:23.000Z</time>
      </trkpt>
      <trkpt lat="44.96237" lon="6.02665">
        <ele>2354.1999511719</ele>
        <time>2015-08-20T10:14:27.000Z</time>
      </trkpt>
      <trkpt lat="44.96234" lon="6.02649">
        <ele>2350.6000976562</ele>
        <time>2015-08-20T10:14:34.000Z</time>
      </trkpt>
      <trkpt lat="44.96234" lon="6.02636">
        <ele>2348.3999023438</ele>
        <time>2015-08-20T10:14:39.000Z</time>
      </trkpt>
      <trkpt lat="44.96234" lon="6.02634">
        <ele>2348</ele>
        <time>2015-08-20T10:14:40.000Z</time>
      </trkpt>
      <trkpt lat="44.96236" lon="6.02621">
        <ele>2347.1999511719</ele>
        <time>2015-08-20T10:14:45.000Z</time>
      </trkpt>
      <trkpt lat="44.96236" lon="6.02617">
        <ele>2346.1999511719</ele>
        <time>2015-08-20T10:14:49.000Z</time>
      </trkpt>
      <trkpt lat="44.96226" lon="6.02627">
        <ele>2342.3999023438</ele>
        <time>2015-08-20T10:14:56.000Z</time>
      </trkpt>
      <trkpt lat="44.96222" lon="6.02638">
        <ele>2342</ele>
        <time>2015-08-20T10:15:02.000Z</time>
      </trkpt>
      <trkpt lat="44.96219" lon="6.02649">
        <ele>2341.6000976562</ele>
        <time>2015-08-20T10:15:06.000Z</time>
      </trkpt>
      <trkpt lat="44.96218" lon="6.02654">
        <ele>2341.8000488281</ele>
        <time>2015-08-20T10:15:08.000Z</time>
      </trkpt>
      <trkpt lat="44.96219" lon="6.0266">
        <ele>2343</ele>
        <time>2015-08-20T10:15:10.000Z</time>
      </trkpt>
      <trkpt lat="44.96217" lon="6.02674">
        <ele>2342.6000976562</ele>
        <time>2015-08-20T10:15:15.000Z</time>
      </trkpt>
      <trkpt lat="44.9621" lon="6.02684">
        <ele>2339.3999023438</ele>
        <time>2015-08-20T10:15:21.000Z</time>
      </trkpt>
      <trkpt lat="44.96207" lon="6.02689">
        <ele>2338.1999511719</ele>
        <time>2015-08-20T10:15:25.000Z</time>
      </trkpt>
      <trkpt lat="44.96207" lon="6.02693">
        <ele>2338.6000976562</ele>
        <time>2015-08-20T10:15:27.000Z</time>
      </trkpt>
      <trkpt lat="44.96206" lon="6.027">
        <ele>2338.8000488281</ele>
        <time>2015-08-20T10:15:31.000Z</time>
      </trkpt>
      <trkpt lat="44.96205" lon="6.02705">
        <ele>2338.1999511719</ele>
        <time>2015-08-20T10:15:33.000Z</time>
      </trkpt>
      <trkpt lat="44.96206" lon="6.0272">
        <ele>2340.6000976562</ele>
        <time>2015-08-20T10:15:39.000Z</time>
      </trkpt>
      <trkpt lat="44.96207" lon="6.02728">
        <ele>2341.8000488281</ele>
        <time>2015-08-20T10:15:43.000Z</time>
      </trkpt>
      <trkpt lat="44.96207" lon="6.0273">
        <ele>2342.8000488281</ele>
        <time>2015-08-20T10:15:49.000Z</time>
      </trkpt>
      <trkpt lat="44.96207" lon="6.02728">
        <ele>2342.3999023438</ele>
        <time>2015-08-20T10:16:14.000Z</time>
      </trkpt>
      <trkpt lat="44.96205" lon="6.02728">
        <ele>2341.1999511719</ele>
        <time>2015-08-20T10:18:22.000Z</time>
      </trkpt>
      <trkpt lat="44.96205" lon="6.02731">
        <ele>2341.8000488281</ele>
        <time>2015-08-20T10:19:35.000Z</time>
      </trkpt>
      <trkpt lat="44.96203" lon="6.02735">
        <ele>2341.6000976562</ele>
        <time>2015-08-20T10:19:40.000Z</time>
      </trkpt>
      <trkpt lat="44.96199" lon="6.0274">
        <ele>2340.6000976562</ele>
        <time>2015-08-20T10:19:48.000Z</time>
      </trkpt>
      <trkpt lat="44.96195" lon="6.02741">
        <ele>2338.8000488281</ele>
        <time>2015-08-20T10:19:52.000Z</time>
      </trkpt>
      <trkpt lat="44.96185" lon="6.02747">
        <ele>2335.3999023438</ele>
        <time>2015-08-20T10:20:01.000Z</time>
      </trkpt>
      <trkpt lat="44.96179" lon="6.0276">
        <ele>2335</ele>
        <time>2015-08-20T10:20:06.000Z</time>
      </trkpt>
      <trkpt lat="44.96174" lon="6.02769">
        <ele>2334.3999023438</ele>
        <time>2015-08-20T10:20:10.000Z</time>
      </trkpt>
      <trkpt lat="44.9617" lon="6.02779">
        <ele>2334</ele>
        <time>2015-08-20T10:20:14.000Z</time>
      </trkpt>
      <trkpt lat="44.96165" lon="6.02783">
        <ele>2332.3999023438</ele>
        <time>2015-08-20T10:20:19.000Z</time>
      </trkpt>
      <trkpt lat="44.96158" lon="6.02788">
        <ele>2329.3999023438</ele>
        <time>2015-08-20T10:20:25.000Z</time>
      </trkpt>
      <trkpt lat="44.96149" lon="6.02799">
        <ele>2326.8000488281</ele>
        <time>2015-08-20T10:20:31.000Z</time>
      </trkpt>
      <trkpt lat="44.96138" lon="6.0281">
        <ele>2323.3999023438</ele>
        <time>2015-08-20T10:20:37.000Z</time>
      </trkpt>
      <trkpt lat="44.9613" lon="6.02825">
        <ele>2322.3999023438</ele>
        <time>2015-08-20T10:20:44.000Z</time>
      </trkpt>
      <trkpt lat="44.96128" lon="6.02841">
        <ele>2324.8000488281</ele>
        <time>2015-08-20T10:20:49.000Z</time>
      </trkpt>
      <trkpt lat="44.96124" lon="6.02852">
        <ele>2325.1999511719</ele>
        <time>2015-08-20T10:20:54.000Z</time>
      </trkpt>
      <trkpt lat="44.96117" lon="6.02859">
        <ele>2323</ele>
        <time>2015-08-20T10:20:57.000Z</time>
      </trkpt>
      <trkpt lat="44.96112" lon="6.02861">
        <ele>2320.6000976562</ele>
        <time>2015-08-20T10:20:59.000Z</time>
      </trkpt>
      <trkpt lat="44.96109" lon="6.02864">
        <ele>2319.8000488281</ele>
        <time>2015-08-20T10:21:01.000Z</time>
      </trkpt>
      <trkpt lat="44.96107" lon="6.0287">
        <ele>2320</ele>
        <time>2015-08-20T10:21:03.000Z</time>
      </trkpt>
      <trkpt lat="44.96102" lon="6.02884">
        <ele>2320.8000488281</ele>
        <time>2015-08-20T10:21:08.000Z</time>
      </trkpt>
      <trkpt lat="44.96099" lon="6.0289">
        <ele>2321</ele>
        <time>2015-08-20T10:21:10.000Z</time>
      </trkpt>
      <trkpt lat="44.96095" lon="6.02895">
        <ele>2320.1999511719</ele>
        <time>2015-08-20T10:21:12.000Z</time>
      </trkpt>
      <trkpt lat="44.96092" lon="6.02895">
        <ele>2318.8000488281</ele>
        <time>2015-08-20T10:21:13.000Z</time>
      </trkpt>
      <trkpt lat="44.96081" lon="6.02897">
        <ele>2314</ele>
        <time>2015-08-20T10:21:18.000Z</time>
      </trkpt>
      <trkpt lat="44.96076" lon="6.02908">
        <ele>2314.6000976562</ele>
        <time>2015-08-20T10:21:22.000Z</time>
      </trkpt>
      <trkpt lat="44.96077" lon="6.02914">
        <ele>2317</ele>
        <time>2015-08-20T10:21:24.000Z</time>
      </trkpt>
      <trkpt lat="44.96076" lon="6.0292">
        <ele>2318.3999023438</ele>
        <time>2015-08-20T10:21:26.000Z</time>
      </trkpt>
      <trkpt lat="44.96069" lon="6.02924">
        <ele>2316</ele>
        <time>2015-08-20T10:21:30.000Z</time>
      </trkpt>
      <trkpt lat="44.96058" lon="6.02929">
        <ele>2313.1999511719</ele>
        <time>2015-08-20T10:21:35.000Z</time>
      </trkpt>
      <trkpt lat="44.96048" lon="6.02937">
        <ele>2311.1999511719</ele>
        <time>2015-08-20T10:21:40.000Z</time>
      </trkpt>
      <trkpt lat="44.96045" lon="6.02937">
        <ele>2309.8000488281</ele>
        <time>2015-08-20T10:21:42.000Z</time>
      </trkpt>
      <trkpt lat="44.96036" lon="6.0294">
        <ele>2306.6000976562</ele>
        <time>2015-08-20T10:21:46.000Z</time>
      </trkpt>
      <trkpt lat="44.96024" lon="6.02946">
        <ele>2303.1999511719</ele>
        <time>2015-08-20T10:21:53.000Z</time>
      </trkpt>
      <trkpt lat="44.96013" lon="6.02954">
        <ele>2300.6000976562</ele>
        <time>2015-08-20T10:21:59.000Z</time>
      </trkpt>
      <trkpt lat="44.96003" lon="6.02963">
        <ele>2298</ele>
        <time>2015-08-20T10:22:06.000Z</time>
      </trkpt>
      <trkpt lat="44.96001" lon="6.02963">
        <ele>2296.6000976562</ele>
        <time>2015-08-20T10:22:09.000Z</time>
      </trkpt>
      <trkpt lat="44.96002" lon="6.0296">
        <ele>2296</ele>
        <time>2015-08-20T10:22:10.000Z</time>
      </trkpt>
      <trkpt lat="44.96004" lon="6.02945">
        <ele>2293.6000976562</ele>
        <time>2015-08-20T10:22:15.000Z</time>
      </trkpt>
      <trkpt lat="44.96008" lon="6.0293">
        <ele>2290.3999023438</ele>
        <time>2015-08-20T10:22:20.000Z</time>
      </trkpt>
      <trkpt lat="44.96009" lon="6.02927">
        <ele>2290</ele>
        <time>2015-08-20T10:22:21.000Z</time>
      </trkpt>
      <trkpt lat="44.96011" lon="6.02926">
        <ele>2290.3999023438</ele>
        <time>2015-08-20T10:22:22.000Z</time>
      </trkpt>
      <trkpt lat="44.96013" lon="6.02915">
        <ele>2288</ele>
        <time>2015-08-20T10:22:25.000Z</time>
      </trkpt>
      <trkpt lat="44.9602" lon="6.02904">
        <ele>2287.3999023438</ele>
        <time>2015-08-20T10:22:30.000Z</time>
      </trkpt>
      <trkpt lat="44.9602" lon="6.02902">
        <ele>2287</ele>
        <time>2015-08-20T10:22:31.000Z</time>
      </trkpt>
      <trkpt lat="44.96022" lon="6.029">
        <ele>2287</ele>
        <time>2015-08-20T10:22:34.000Z</time>
      </trkpt>
      <trkpt lat="44.96019" lon="6.02901">
        <ele>2286</ele>
        <time>2015-08-20T10:22:36.000Z</time>
      </trkpt>
      <trkpt lat="44.96015" lon="6.02903">
        <ele>2284.8000488281</ele>
        <time>2015-08-20T10:22:38.000Z</time>
      </trkpt>
      <trkpt lat="44.96004" lon="6.02911">
        <ele>2282.1999511719</ele>
        <time>2015-08-20T10:22:43.000Z</time>
      </trkpt>
      <trkpt lat="44.9599" lon="6.02917">
        <ele>2278</ele>
        <time>2015-08-20T10:22:50.000Z</time>
      </trkpt>
      <trkpt lat="44.95977" lon="6.02926">
        <ele>2274.1999511719</ele>
        <time>2015-08-20T10:22:57.000Z</time>
      </trkpt>
      <trkpt lat="44.95971" lon="6.0294">
        <ele>2274.8000488281</ele>
        <time>2015-08-20T10:23:03.000Z</time>
      </trkpt>
      <trkpt lat="44.95968" lon="6.02955">
        <ele>2276.8000488281</ele>
        <time>2015-08-20T10:23:08.000Z</time>
      </trkpt>
      <trkpt lat="44.95964" lon="6.02967">
        <ele>2278</ele>
        <time>2015-08-20T10:23:13.000Z</time>
      </trkpt>
      <trkpt lat="44.95964" lon="6.0297">
        <ele>2278.8000488281</ele>
        <time>2015-08-20T10:23:14.000Z</time>
      </trkpt>
      <trkpt lat="44.95964" lon="6.0298">
        <ele>2282</ele>
        <time>2015-08-20T10:23:18.000Z</time>
      </trkpt>
      <trkpt lat="44.95963" lon="6.02982">
        <ele>2282.1999511719</ele>
        <time>2015-08-20T10:23:20.000Z</time>
      </trkpt>
      <trkpt lat="44.95962" lon="6.02984">
        <ele>2282.1999511719</ele>
        <time>2015-08-20T10:23:22.000Z</time>
      </trkpt>
      <trkpt lat="44.9596" lon="6.02984">
        <ele>2282</ele>
        <time>2015-08-20T10:23:23.000Z</time>
      </trkpt>
      <trkpt lat="44.95956" lon="6.02986">
        <ele>2281</ele>
        <time>2015-08-20T10:23:27.000Z</time>
      </trkpt>
      <trkpt lat="44.95955" lon="6.02986">
        <ele>2280.3999023438</ele>
        <time>2015-08-20T10:23:28.000Z</time>
      </trkpt>
      <trkpt lat="44.95941" lon="6.0299">
        <ele>2277.3999023438</ele>
        <time>2015-08-20T10:23:34.000Z</time>
      </trkpt>
      <trkpt lat="44.9593" lon="6.02997">
        <ele>2276.3999023438</ele>
        <time>2015-08-20T10:23:40.000Z</time>
      </trkpt>
      <trkpt lat="44.9592" lon="6.03006">
        <ele>2276.3999023438</ele>
        <time>2015-08-20T10:23:45.000Z</time>
      </trkpt>
      <trkpt lat="44.95913" lon="6.03022">
        <ele>2281.3999023438</ele>
        <time>2015-08-20T10:23:50.000Z</time>
      </trkpt>
      <trkpt lat="44.95908" lon="6.03034">
        <ele>2286</ele>
        <time>2015-08-20T10:23:54.000Z</time>
      </trkpt>
      <trkpt lat="44.95907" lon="6.0304">
        <ele>2288.1999511719</ele>
        <time>2015-08-20T10:23:58.000Z</time>
      </trkpt>
      <trkpt lat="44.95907" lon="6.03042">
        <ele>2289</ele>
        <time>2015-08-20T10:23:59.000Z</time>
      </trkpt>
      <trkpt lat="44.95904" lon="6.03044">
        <ele>2289</ele>
        <time>2015-08-20T10:24:02.000Z</time>
      </trkpt>
      <trkpt lat="44.95903" lon="6.03044">
        <ele>2288.3999023438</ele>
        <time>2015-08-20T10:24:03.000Z</time>
      </trkpt>
      <trkpt lat="44.95897" lon="6.03039">
        <ele>2284.6000976562</ele>
        <time>2015-08-20T10:24:07.000Z</time>
      </trkpt>
      <trkpt lat="44.95891" lon="6.03037">
        <ele>2282</ele>
        <time>2015-08-20T10:24:12.000Z</time>
      </trkpt>
      <trkpt lat="44.95891" lon="6.03038">
        <ele>2281.8000488281</ele>
        <time>2015-08-20T10:24:13.000Z</time>
      </trkpt>
      <trkpt lat="44.95889" lon="6.03039">
        <ele>2282</ele>
        <time>2015-08-20T10:24:15.000Z</time>
      </trkpt>
      <trkpt lat="44.95889" lon="6.0304">
        <ele>2282.3999023438</ele>
        <time>2015-08-20T10:24:19.000Z</time>
      </trkpt>
      <trkpt lat="44.95888" lon="6.03043">
        <ele>2283.3999023438</ele>
        <time>2015-08-20T10:24:28.000Z</time>
      </trkpt>
      <trkpt lat="44.95887" lon="6.03042">
        <ele>2282.8000488281</ele>
        <time>2015-08-20T10:24:30.000Z</time>
      </trkpt>
      <trkpt lat="44.95884" lon="6.03038">
        <ele>2279.8000488281</ele>
        <time>2015-08-20T10:24:35.000Z</time>
      </trkpt>
      <trkpt lat="44.95882" lon="6.03036">
        <ele>2278.1999511719</ele>
        <time>2015-08-20T10:24:37.000Z</time>
      </trkpt>
      <trkpt lat="44.95879" lon="6.03033">
        <ele>2276</ele>
        <time>2015-08-20T10:24:39.000Z</time>
      </trkpt>
      <trkpt lat="44.95872" lon="6.0303">
        <ele>2272.1999511719</ele>
        <time>2015-08-20T10:24:42.000Z</time>
      </trkpt>
      <trkpt lat="44.9587" lon="6.0303">
        <ele>2270.8000488281</ele>
        <time>2015-08-20T10:24:43.000Z</time>
      </trkpt>
      <trkpt lat="44.95861" lon="6.0303">
        <ele>2266.6000976562</ele>
        <time>2015-08-20T10:24:48.000Z</time>
      </trkpt>
      <trkpt lat="44.95859" lon="6.03031">
        <ele>2266</ele>
        <time>2015-08-20T10:24:49.000Z</time>
      </trkpt>
      <trkpt lat="44.95851" lon="6.0303">
        <ele>2261.8000488281</ele>
        <time>2015-08-20T10:24:54.000Z</time>
      </trkpt>
      <trkpt lat="44.95837" lon="6.03028">
        <ele>2255.3999023438</ele>
        <time>2015-08-20T10:25:00.000Z</time>
      </trkpt>
      <trkpt lat="44.9583" lon="6.03034">
        <ele>2256.6000976562</ele>
        <time>2015-08-20T10:25:04.000Z</time>
      </trkpt>
      <trkpt lat="44.95823" lon="6.03039">
        <ele>2257.1999511719</ele>
        <time>2015-08-20T10:25:08.000Z</time>
      </trkpt>
      <trkpt lat="44.95822" lon="6.03041">
        <ele>2257.6000976562</ele>
        <time>2015-08-20T10:25:09.000Z</time>
      </trkpt>
      <trkpt lat="44.95818" lon="6.03042">
        <ele>2257</ele>
        <time>2015-08-20T10:25:13.000Z</time>
      </trkpt>
      <trkpt lat="44.95818" lon="6.0304">
        <ele>2256.1999511719</ele>
        <time>2015-08-20T10:25:14.000Z</time>
      </trkpt>
      <trkpt lat="44.95818" lon="6.03034">
        <ele>2252.1999511719</ele>
        <time>2015-08-20T10:25:20.000Z</time>
      </trkpt>
      <trkpt lat="44.95821" lon="6.03022">
        <ele>2245.8000488281</ele>
        <time>2015-08-20T10:25:26.000Z</time>
      </trkpt>
      <trkpt lat="44.95826" lon="6.03009">
        <ele>2239.8000488281</ele>
        <time>2015-08-20T10:25:32.000Z</time>
      </trkpt>
      <trkpt lat="44.95833" lon="6.02999">
        <ele>2238</ele>
        <time>2015-08-20T10:25:38.000Z</time>
      </trkpt>
      <trkpt lat="44.95845" lon="6.02989">
        <ele>2239.3999023438</ele>
        <time>2015-08-20T10:25:45.000Z</time>
      </trkpt>
      <trkpt lat="44.95853" lon="6.02985">
        <ele>2241.1999511719</ele>
        <time>2015-08-20T10:25:50.000Z</time>
      </trkpt>
      <trkpt lat="44.9586" lon="6.0298">
        <ele>2242</ele>
        <time>2015-08-20T10:25:55.000Z</time>
      </trkpt>
      <trkpt lat="44.9586" lon="6.02978">
        <ele>2241.3999023438</ele>
        <time>2015-08-20T10:25:58.000Z</time>
      </trkpt>
      <trkpt lat="44.95859" lon="6.02977">
        <ele>2240</ele>
        <time>2015-08-20T10:25:59.000Z</time>
      </trkpt>
      <trkpt lat="44.95854" lon="6.02976">
        <ele>2237.6000976562</ele>
        <time>2015-08-20T10:26:02.000Z</time>
      </trkpt>
      <trkpt lat="44.95852" lon="6.02977">
        <ele>2236.6000976562</ele>
        <time>2015-08-20T10:26:04.000Z</time>
      </trkpt>
      <trkpt lat="44.95849" lon="6.02975">
        <ele>2234.8000488281</ele>
        <time>2015-08-20T10:26:06.000Z</time>
      </trkpt>
      <trkpt lat="44.95845" lon="6.02973">
        <ele>2232.1999511719</ele>
        <time>2015-08-20T10:26:08.000Z</time>
      </trkpt>
      <trkpt lat="44.95829" lon="6.02973">
        <ele>2224</ele>
        <time>2015-08-20T10:26:16.000Z</time>
      </trkpt>
      <trkpt lat="44.95819" lon="6.02974">
        <ele>2220</ele>
        <time>2015-08-20T10:26:21.000Z</time>
      </trkpt>
      <trkpt lat="44.9581" lon="6.02975">
        <ele>2216.1999511719</ele>
        <time>2015-08-20T10:26:26.000Z</time>
      </trkpt>
      <trkpt lat="44.95802" lon="6.0298">
        <ele>2214.1999511719</ele>
        <time>2015-08-20T10:26:33.000Z</time>
      </trkpt>
      <trkpt lat="44.95794" lon="6.02991">
        <ele>2217.6000976562</ele>
        <time>2015-08-20T10:26:39.000Z</time>
      </trkpt>
      <trkpt lat="44.95792" lon="6.02998">
        <ele>2221</ele>
        <time>2015-08-20T10:26:43.000Z</time>
      </trkpt>
      <trkpt lat="44.95792" lon="6.03">
        <ele>2222.6000976562</ele>
        <time>2015-08-20T10:26:44.000Z</time>
      </trkpt>
      <trkpt lat="44.95789" lon="6.03003">
        <ele>2223.1999511719</ele>
        <time>2015-08-20T10:26:47.000Z</time>
      </trkpt>
      <trkpt lat="44.95788" lon="6.03004">
        <ele>2223.1999511719</ele>
        <time>2015-08-20T10:26:49.000Z</time>
      </trkpt>
      <trkpt lat="44.95785" lon="6.03006">
        <ele>2223.1999511719</ele>
        <time>2015-08-20T10:26:51.000Z</time>
      </trkpt>
      <trkpt lat="44.95782" lon="6.03007">
        <ele>2222.8000488281</ele>
        <time>2015-08-20T10:26:54.000Z</time>
      </trkpt>
      <trkpt lat="44.95781" lon="6.03007">
        <ele>2222.3999023438</ele>
        <time>2015-08-20T10:26:55.000Z</time>
      </trkpt>
      <trkpt lat="44.95772" lon="6.03011">
        <ele>2221.3999023438</ele>
        <time>2015-08-20T10:27:00.000Z</time>
      </trkpt>
      <trkpt lat="44.95764" lon="6.0302">
        <ele>2223</ele>
        <time>2015-08-20T10:27:06.000Z</time>
      </trkpt>
      <trkpt lat="44.95762" lon="6.03022">
        <ele>2223.6000976562</ele>
        <time>2015-08-20T10:27:08.000Z</time>
      </trkpt>
      <trkpt lat="44.95762" lon="6.03017">
        <ele>2220.6000976562</ele>
        <time>2015-08-20T10:27:10.000Z</time>
      </trkpt>
      <trkpt lat="44.95765" lon="6.02998">
        <ele>2210.1999511719</ele>
        <time>2015-08-20T10:27:16.000Z</time>
      </trkpt>
      <trkpt lat="44.95772" lon="6.0299">
        <ele>2208</ele>
        <time>2015-08-20T10:27:21.000Z</time>
      </trkpt>
      <trkpt lat="44.95772" lon="6.0299">
        <ele>2208.1999511719</ele>
        <time>2015-08-20T10:27:22.000Z</time>
      </trkpt>
      <trkpt lat="44.95775" lon="6.02989">
        <ele>2208.8000488281</ele>
        <time>2015-08-20T10:27:25.000Z</time>
      </trkpt>
      <trkpt lat="44.95778" lon="6.02986">
        <ele>2208</ele>
        <time>2015-08-20T10:27:30.000Z</time>
      </trkpt>
      <trkpt lat="44.95779" lon="6.02984">
        <ele>2207</ele>
        <time>2015-08-20T10:27:32.000Z</time>
      </trkpt>
      <trkpt lat="44.95778" lon="6.02979">
        <ele>2203.8000488281</ele>
        <time>2015-08-20T10:27:35.000Z</time>
      </trkpt>
      <trkpt lat="44.95782" lon="6.02966">
        <ele>2199.6000976562</ele>
        <time>2015-08-20T10:27:40.000Z</time>
      </trkpt>
      <trkpt lat="44.95787" lon="6.0295">
        <ele>2196.1999511719</ele>
        <time>2015-08-20T10:27:47.000Z</time>
      </trkpt>
      <trkpt lat="44.95789" lon="6.02941">
        <ele>2194.1999511719</ele>
        <time>2015-08-20T10:27:51.000Z</time>
      </trkpt>
      <trkpt lat="44.95791" lon="6.02938">
        <ele>2194</ele>
        <time>2015-08-20T10:27:52.000Z</time>
      </trkpt>
      <trkpt lat="44.95795" lon="6.02931">
        <ele>2194</ele>
        <time>2015-08-20T10:27:56.000Z</time>
      </trkpt>
      <trkpt lat="44.95798" lon="6.02926">
        <ele>2194</ele>
        <time>2015-08-20T10:27:59.000Z</time>
      </trkpt>
      <trkpt lat="44.958" lon="6.02924">
        <ele>2194</ele>
        <time>2015-08-20T10:28:01.000Z</time>
      </trkpt>
      <trkpt lat="44.95802" lon="6.02919">
        <ele>2193.3999023438</ele>
        <time>2015-08-20T10:28:04.000Z</time>
      </trkpt>
      <trkpt lat="44.95803" lon="6.02917">
        <ele>2193</ele>
        <time>2015-08-20T10:28:06.000Z</time>
      </trkpt>
      <trkpt lat="44.95803" lon="6.02915">
        <ele>2192.6000976562</ele>
        <time>2015-08-20T10:28:08.000Z</time>
      </trkpt>
      <trkpt lat="44.95803" lon="6.02914">
        <ele>2192.1999511719</ele>
        <time>2015-08-20T10:28:09.000Z</time>
      </trkpt>
      <trkpt lat="44.95804" lon="6.02913">
        <ele>2192.1999511719</ele>
        <time>2015-08-20T10:28:10.000Z</time>
      </trkpt>
      <trkpt lat="44.95807" lon="6.02907">
        <ele>2191.6000976562</ele>
        <time>2015-08-20T10:28:14.000Z</time>
      </trkpt>
      <trkpt lat="44.95802" lon="6.02903">
        <ele>2188</ele>
        <time>2015-08-20T10:28:18.000Z</time>
      </trkpt>
      <trkpt lat="44.9579" lon="6.02905">
        <ele>2182.6000976562</ele>
        <time>2015-08-20T10:28:24.000Z</time>
      </trkpt>
      <trkpt lat="44.9578" lon="6.02907">
        <ele>2178.1999511719</ele>
        <time>2015-08-20T10:28:30.000Z</time>
      </trkpt>
      <trkpt lat="44.95776" lon="6.02909">
        <ele>2177</ele>
        <time>2015-08-20T10:28:32.000Z</time>
      </trkpt>
      <trkpt lat="44.95772" lon="6.02911">
        <ele>2175.6000976562</ele>
        <time>2015-08-20T10:28:35.000Z</time>
      </trkpt>
      <trkpt lat="44.95766" lon="6.02916">
        <ele>2174.1999511719</ele>
        <time>2015-08-20T10:28:40.000Z</time>
      </trkpt>
      <trkpt lat="44.95762" lon="6.02918">
        <ele>2172.8000488281</ele>
        <time>2015-08-20T10:28:43.000Z</time>
      </trkpt>
      <trkpt lat="44.95756" lon="6.02922">
        <ele>2171.3999023438</ele>
        <time>2015-08-20T10:28:46.000Z</time>
      </trkpt>
      <trkpt lat="44.95753" lon="6.02925">
        <ele>2171</ele>
        <time>2015-08-20T10:28:48.000Z</time>
      </trkpt>
      <trkpt lat="44.95751" lon="6.0293">
        <ele>2171.6000976562</ele>
        <time>2015-08-20T10:28:51.000Z</time>
      </trkpt>
      <trkpt lat="44.95748" lon="6.02942">
        <ele>2175</ele>
        <time>2015-08-20T10:28:57.000Z</time>
      </trkpt>
      <trkpt lat="44.95746" lon="6.02938">
        <ele>2172.1999511719</ele>
        <time>2015-08-20T10:29:00.000Z</time>
      </trkpt>
      <trkpt lat="44.95744" lon="6.02926">
        <ele>2166.6000976562</ele>
        <time>2015-08-20T10:29:06.000Z</time>
      </trkpt>
      <trkpt lat="44.95745" lon="6.02915">
        <ele>2163.8000488281</ele>
        <time>2015-08-20T10:29:11.000Z</time>
      </trkpt>
      <trkpt lat="44.9575" lon="6.02904">
        <ele>2162.1999511719</ele>
        <time>2015-08-20T10:29:16.000Z</time>
      </trkpt>
      <trkpt lat="44.95752" lon="6.02898">
        <ele>2161.3999023438</ele>
        <time>2015-08-20T10:29:20.000Z</time>
      </trkpt>
      <trkpt lat="44.95753" lon="6.02896">
        <ele>2161.3999023438</ele>
        <time>2015-08-20T10:29:21.000Z</time>
      </trkpt>
      <trkpt lat="44.95756" lon="6.0289">
        <ele>2160.8000488281</ele>
        <time>2015-08-20T10:29:26.000Z</time>
      </trkpt>
      <trkpt lat="44.95757" lon="6.02889">
        <ele>2160.6000976562</ele>
        <time>2015-08-20T10:29:27.000Z</time>
      </trkpt>
      <trkpt lat="44.95759" lon="6.02884">
        <ele>2160.3999023438</ele>
        <time>2015-08-20T10:29:30.000Z</time>
      </trkpt>
      <trkpt lat="44.95761" lon="6.02879">
        <ele>2160</ele>
        <time>2015-08-20T10:29:33.000Z</time>
      </trkpt>
      <trkpt lat="44.95764" lon="6.02874">
        <ele>2159.8000488281</ele>
        <time>2015-08-20T10:29:36.000Z</time>
      </trkpt>
      <trkpt lat="44.95772" lon="6.02864">
        <ele>2160.3999023438</ele>
        <time>2015-08-20T10:29:42.000Z</time>
      </trkpt>
      <trkpt lat="44.95773" lon="6.02862">
        <ele>2160</ele>
        <time>2015-08-20T10:29:46.000Z</time>
      </trkpt>
      <trkpt lat="44.95763" lon="6.02862">
        <ele>2156</ele>
        <time>2015-08-20T10:29:51.000Z</time>
      </trkpt>
      <trkpt lat="44.95755" lon="6.02867">
        <ele>2153.6000976562</ele>
        <time>2015-08-20T10:29:56.000Z</time>
      </trkpt>
      <trkpt lat="44.95753" lon="6.02869">
        <ele>2152.8000488281</ele>
        <time>2015-08-20T10:29:59.000Z</time>
      </trkpt>
      <trkpt lat="44.9575" lon="6.02871">
        <ele>2152.1999511719</ele>
        <time>2015-08-20T10:30:01.000Z</time>
      </trkpt>
      <trkpt lat="44.95745" lon="6.02875">
        <ele>2150.6000976562</ele>
        <time>2015-08-20T10:30:06.000Z</time>
      </trkpt>
      <trkpt lat="44.95739" lon="6.02877">
        <ele>2148.6000976562</ele>
        <time>2015-08-20T10:30:12.000Z</time>
      </trkpt>
      <trkpt lat="44.95742" lon="6.02873">
        <ele>2148.6000976562</ele>
        <time>2015-08-20T10:30:44.000Z</time>
      </trkpt>
      <trkpt lat="44.95745" lon="6.02866">
        <ele>2147.8000488281</ele>
        <time>2015-08-20T10:30:47.000Z</time>
      </trkpt>
      <trkpt lat="44.95747" lon="6.02861">
        <ele>2147.1999511719</ele>
        <time>2015-08-20T10:30:50.000Z</time>
      </trkpt>
      <trkpt lat="44.95752" lon="6.02852">
        <ele>2147</ele>
        <time>2015-08-20T10:30:55.000Z</time>
      </trkpt>
      <trkpt lat="44.95758" lon="6.0284">
        <ele>2145.6000976562</ele>
        <time>2015-08-20T10:31:00.000Z</time>
      </trkpt>
      <trkpt lat="44.95766" lon="6.02831">
        <ele>2145.8000488281</ele>
        <time>2015-08-20T10:31:05.000Z</time>
      </trkpt>
      <trkpt lat="44.9577" lon="6.02831">
        <ele>2147.3999023438</ele>
        <time>2015-08-20T10:31:07.000Z</time>
      </trkpt>
      <trkpt lat="44.95774" lon="6.02829">
        <ele>2148.8000488281</ele>
        <time>2015-08-20T10:31:09.000Z</time>
      </trkpt>
      <trkpt lat="44.95775" lon="6.02828">
        <ele>2149</ele>
        <time>2015-08-20T10:31:10.000Z</time>
      </trkpt>
      <trkpt lat="44.95779" lon="6.02824">
        <ele>2149</ele>
        <time>2015-08-20T10:31:13.000Z</time>
      </trkpt>
      <trkpt lat="44.95782" lon="6.02818">
        <ele>2148.3999023438</ele>
        <time>2015-08-20T10:31:17.000Z</time>
      </trkpt>
      <trkpt lat="44.95781" lon="6.02819">
        <ele>2148.1999511719</ele>
        <time>2015-08-20T10:31:18.000Z</time>
      </trkpt>
      <trkpt lat="44.95775" lon="6.02822">
        <ele>2146.6000976562</ele>
        <time>2015-08-20T10:31:21.000Z</time>
      </trkpt>
      <trkpt lat="44.95772" lon="6.02821">
        <ele>2144.8000488281</ele>
        <time>2015-08-20T10:31:24.000Z</time>
      </trkpt>
      <trkpt lat="44.95768" lon="6.02819">
        <ele>2142.6000976562</ele>
        <time>2015-08-20T10:31:26.000Z</time>
      </trkpt>
      <trkpt lat="44.95755" lon="6.02814">
        <ele>2134.8000488281</ele>
        <time>2015-08-20T10:31:34.000Z</time>
      </trkpt>
      <trkpt lat="44.95745" lon="6.02816">
        <ele>2131</ele>
        <time>2015-08-20T10:31:39.000Z</time>
      </trkpt>
      <trkpt lat="44.95735" lon="6.02826">
        <ele>2130.3999023438</ele>
        <time>2015-08-20T10:31:44.000Z</time>
      </trkpt>
      <trkpt lat="44.95733" lon="6.02827">
        <ele>2129.6000976562</ele>
        <time>2015-08-20T10:31:45.000Z</time>
      </trkpt>
      <trkpt lat="44.95724" lon="6.02836">
        <ele>2128.1999511719</ele>
        <time>2015-08-20T10:31:50.000Z</time>
      </trkpt>
      <trkpt lat="44.95714" lon="6.02841">
        <ele>2124.8000488281</ele>
        <time>2015-08-20T10:31:56.000Z</time>
      </trkpt>
      <trkpt lat="44.95704" lon="6.02844">
        <ele>2120.8000488281</ele>
        <time>2015-08-20T10:32:02.000Z</time>
      </trkpt>
      <trkpt lat="44.95696" lon="6.02848">
        <ele>2118.3999023438</ele>
        <time>2015-08-20T10:32:07.000Z</time>
      </trkpt>
      <trkpt lat="44.95694" lon="6.0285">
        <ele>2118.3999023438</ele>
        <time>2015-08-20T10:32:08.000Z</time>
      </trkpt>
      <trkpt lat="44.95689" lon="6.02858">
        <ele>2118.6000976562</ele>
        <time>2015-08-20T10:32:12.000Z</time>
      </trkpt>
      <trkpt lat="44.95687" lon="6.02872">
        <ele>2121.6000976562</ele>
        <time>2015-08-20T10:32:17.000Z</time>
      </trkpt>
      <trkpt lat="44.95685" lon="6.02882">
        <ele>2124</ele>
        <time>2015-08-20T10:32:22.000Z</time>
      </trkpt>
      <trkpt lat="44.95685" lon="6.02884">
        <ele>2124.6000976562</ele>
        <time>2015-08-20T10:32:24.000Z</time>
      </trkpt>
      <trkpt lat="44.95682" lon="6.02886">
        <ele>2124.1999511719</ele>
        <time>2015-08-20T10:32:26.000Z</time>
      </trkpt>
      <trkpt lat="44.95679" lon="6.02887">
        <ele>2123.3999023438</ele>
        <time>2015-08-20T10:32:29.000Z</time>
      </trkpt>
      <trkpt lat="44.95678" lon="6.02888">
        <ele>2123.1999511719</ele>
        <time>2015-08-20T10:32:31.000Z</time>
      </trkpt>
      <trkpt lat="44.95677" lon="6.0289">
        <ele>2123.3999023438</ele>
        <time>2015-08-20T10:32:32.000Z</time>
      </trkpt>
      <trkpt lat="44.95673" lon="6.02895">
        <ele>2123.8000488281</ele>
        <time>2015-08-20T10:32:36.000Z</time>
      </trkpt>
      <trkpt lat="44.95671" lon="6.02897">
        <ele>2123.6000976562</ele>
        <time>2015-08-20T10:32:38.000Z</time>
      </trkpt>
      <trkpt lat="44.95668" lon="6.029">
        <ele>2123.8000488281</ele>
        <time>2015-08-20T10:32:41.000Z</time>
      </trkpt>
      <trkpt lat="44.95664" lon="6.02904">
        <ele>2123.6000976562</ele>
        <time>2015-08-20T10:32:44.000Z</time>
      </trkpt>
      <trkpt lat="44.95662" lon="6.02906">
        <ele>2124</ele>
        <time>2015-08-20T10:32:46.000Z</time>
      </trkpt>
      <trkpt lat="44.95657" lon="6.02915">
        <ele>2125.8000488281</ele>
        <time>2015-08-20T10:32:52.000Z</time>
      </trkpt>
      <trkpt lat="44.95651" lon="6.02922">
        <ele>2126.1999511719</ele>
        <time>2015-08-20T10:32:58.000Z</time>
      </trkpt>
      <trkpt lat="44.95643" lon="6.0293">
        <ele>2127.3999023438</ele>
        <time>2015-08-20T10:33:03.000Z</time>
      </trkpt>
      <trkpt lat="44.95637" lon="6.02941">
        <ele>2130.6000976562</ele>
        <time>2015-08-20T10:33:08.000Z</time>
      </trkpt>
      <trkpt lat="44.9563" lon="6.02941">
        <ele>2128.1999511719</ele>
        <time>2015-08-20T10:33:13.000Z</time>
      </trkpt>
      <trkpt lat="44.95621" lon="6.02943">
        <ele>2125.6000976562</ele>
        <time>2015-08-20T10:33:17.000Z</time>
      </trkpt>
      <trkpt lat="44.95617" lon="6.02944">
        <ele>2124.8000488281</ele>
        <time>2015-08-20T10:33:19.000Z</time>
      </trkpt>
      <trkpt lat="44.95612" lon="6.02946">
        <ele>2123.1999511719</ele>
        <time>2015-08-20T10:33:22.000Z</time>
      </trkpt>
      <trkpt lat="44.95604" lon="6.02949">
        <ele>2121.6000976562</ele>
        <time>2015-08-20T10:33:26.000Z</time>
      </trkpt>
      <trkpt lat="44.956" lon="6.0295">
        <ele>2121</ele>
        <time>2015-08-20T10:33:28.000Z</time>
      </trkpt>
      <trkpt lat="44.9559" lon="6.02957">
        <ele>2118.8000488281</ele>
        <time>2015-08-20T10:33:34.000Z</time>
      </trkpt>
      <trkpt lat="44.95581" lon="6.02962">
        <ele>2116.6000976562</ele>
        <time>2015-08-20T10:33:39.000Z</time>
      </trkpt>
      <trkpt lat="44.95578" lon="6.02964">
        <ele>2115.8000488281</ele>
        <time>2015-08-20T10:33:41.000Z</time>
      </trkpt>
      <trkpt lat="44.95575" lon="6.02964">
        <ele>2114.3999023438</ele>
        <time>2015-08-20T10:33:43.000Z</time>
      </trkpt>
      <trkpt lat="44.95565" lon="6.02965">
        <ele>2109.8000488281</ele>
        <time>2015-08-20T10:33:48.000Z</time>
      </trkpt>
      <trkpt lat="44.95553" lon="6.02967">
        <ele>2105</ele>
        <time>2015-08-20T10:33:53.000Z</time>
      </trkpt>
      <trkpt lat="44.95547" lon="6.02964">
        <ele>2101.1999511719</ele>
        <time>2015-08-20T10:33:56.000Z</time>
      </trkpt>
      <trkpt lat="44.95543" lon="6.02965">
        <ele>2099.1999511719</ele>
        <time>2015-08-20T10:33:58.000Z</time>
      </trkpt>
      <trkpt lat="44.95533" lon="6.02964">
        <ele>2096.3999023438</ele>
        <time>2015-08-20T10:34:04.000Z</time>
      </trkpt>
      <trkpt lat="44.95534" lon="6.02963">
        <ele>2096</ele>
        <time>2015-08-20T10:34:05.000Z</time>
      </trkpt>
      <trkpt lat="44.95537" lon="6.02961">
        <ele>2095.8000488281</ele>
        <time>2015-08-20T10:34:08.000Z</time>
      </trkpt>
      <trkpt lat="44.95539" lon="6.02959">
        <ele>2095.6000976562</ele>
        <time>2015-08-20T10:34:10.000Z</time>
      </trkpt>
      <trkpt lat="44.9554" lon="6.02958">
        <ele>2095.3999023438</ele>
        <time>2015-08-20T10:34:11.000Z</time>
      </trkpt>
      <trkpt lat="44.95546" lon="6.02955">
        <ele>2096.6000976562</ele>
        <time>2015-08-20T10:34:15.000Z</time>
      </trkpt>
      <trkpt lat="44.95547" lon="6.02954">
        <ele>2097</ele>
        <time>2015-08-20T10:34:16.000Z</time>
      </trkpt>
      <trkpt lat="44.95554" lon="6.02952">
        <ele>2099.3999023438</ele>
        <time>2015-08-20T10:34:22.000Z</time>
      </trkpt>
      <trkpt lat="44.9556" lon="6.02948">
        <ele>2100.1999511719</ele>
        <time>2015-08-20T10:34:27.000Z</time>
      </trkpt>
      <trkpt lat="44.95564" lon="6.02943">
        <ele>2100.3999023438</ele>
        <time>2015-08-20T10:34:32.000Z</time>
      </trkpt>
      <trkpt lat="44.95569" lon="6.02939">
        <ele>2101.1999511719</ele>
        <time>2015-08-20T10:34:37.000Z</time>
      </trkpt>
      <trkpt lat="44.95572" lon="6.02933">
        <ele>2100</ele>
        <time>2015-08-20T10:34:41.000Z</time>
      </trkpt>
      <trkpt lat="44.95572" lon="6.02931">
        <ele>2099.1999511719</ele>
        <time>2015-08-20T10:34:42.000Z</time>
      </trkpt>
      <trkpt lat="44.95577" lon="6.02922">
        <ele>2097.3999023438</ele>
        <time>2015-08-20T10:34:48.000Z</time>
      </trkpt>
      <trkpt lat="44.95581" lon="6.02916">
        <ele>2095.8000488281</ele>
        <time>2015-08-20T10:34:52.000Z</time>
      </trkpt>
      <trkpt lat="44.95585" lon="6.02906">
        <ele>2092.8000488281</ele>
        <time>2015-08-20T10:34:58.000Z</time>
      </trkpt>
      <trkpt lat="44.95591" lon="6.02896">
        <ele>2090.1999511719</ele>
        <time>2015-08-20T10:35:04.000Z</time>
      </trkpt>
      <trkpt lat="44.95593" lon="6.02892">
        <ele>2089</ele>
        <time>2015-08-20T10:35:06.000Z</time>
      </trkpt>
      <trkpt lat="44.95594" lon="6.02883">
        <ele>2087</ele>
        <time>2015-08-20T10:35:09.000Z</time>
      </trkpt>
      <trkpt lat="44.95597" lon="6.02871">
        <ele>2084.3999023438</ele>
        <time>2015-08-20T10:35:14.000Z</time>
      </trkpt>
      <trkpt lat="44.956" lon="6.02857">
        <ele>2080.8000488281</ele>
        <time>2015-08-20T10:35:20.000Z</time>
      </trkpt>
      <trkpt lat="44.95601" lon="6.0285">
        <ele>2079.1999511719</ele>
        <time>2015-08-20T10:35:25.000Z</time>
      </trkpt>
      <trkpt lat="44.956" lon="6.02846">
        <ele>2077.3999023438</ele>
        <time>2015-08-20T10:35:29.000Z</time>
      </trkpt>
      <trkpt lat="44.95597" lon="6.0285">
        <ele>2077.6000976562</ele>
        <time>2015-08-20T10:35:35.000Z</time>
      </trkpt>
      <trkpt lat="44.95588" lon="6.02861">
        <ele>2077.6000976562</ele>
        <time>2015-08-20T10:35:40.000Z</time>
      </trkpt>
      <trkpt lat="44.9558" lon="6.0287">
        <ele>2077</ele>
        <time>2015-08-20T10:35:45.000Z</time>
      </trkpt>
      <trkpt lat="44.95571" lon="6.02879">
        <ele>2076</ele>
        <time>2015-08-20T10:35:51.000Z</time>
      </trkpt>
      <trkpt lat="44.95563" lon="6.02886">
        <ele>2075</ele>
        <time>2015-08-20T10:35:56.000Z</time>
      </trkpt>
      <trkpt lat="44.95552" lon="6.02894">
        <ele>2073.6000976562</ele>
        <time>2015-08-20T10:36:02.000Z</time>
      </trkpt>
      <trkpt lat="44.95548" lon="6.02896">
        <ele>2072.8000488281</ele>
        <time>2015-08-20T10:36:05.000Z</time>
      </trkpt>
      <trkpt lat="44.95546" lon="6.02897">
        <ele>2072.6000976562</ele>
        <time>2015-08-20T10:36:07.000Z</time>
      </trkpt>
      <trkpt lat="44.95545" lon="6.02897">
        <ele>2072</ele>
        <time>2015-08-20T10:36:08.000Z</time>
      </trkpt>
      <trkpt lat="44.95543" lon="6.02897">
        <ele>2071</ele>
        <time>2015-08-20T10:36:16.000Z</time>
      </trkpt>
      <trkpt lat="44.95542" lon="6.02897">
        <ele>2070.6000976562</ele>
        <time>2015-08-20T10:36:17.000Z</time>
      </trkpt>
      <trkpt lat="44.95537" lon="6.029">
        <ele>2070.1999511719</ele>
        <time>2015-08-20T10:36:21.000Z</time>
      </trkpt>
      <trkpt lat="44.95536" lon="6.029">
        <ele>2070.1999511719</ele>
        <time>2015-08-20T10:36:22.000Z</time>
      </trkpt>
      <trkpt lat="44.95535" lon="6.02897">
        <ele>2068.6000976562</ele>
        <time>2015-08-20T10:36:25.000Z</time>
      </trkpt>
      <trkpt lat="44.95534" lon="6.02897">
        <ele>2068.3999023438</ele>
        <time>2015-08-20T10:36:26.000Z</time>
      </trkpt>
      <trkpt lat="44.95534" lon="6.02893">
        <ele>2066.6000976562</ele>
        <time>2015-08-20T10:36:29.000Z</time>
      </trkpt>
      <trkpt lat="44.95533" lon="6.02885">
        <ele>2064.1999511719</ele>
        <time>2015-08-20T10:36:34.000Z</time>
      </trkpt>
      <trkpt lat="44.95528" lon="6.02881">
        <ele>2062.1999511719</ele>
        <time>2015-08-20T10:36:39.000Z</time>
      </trkpt>
      <trkpt lat="44.95523" lon="6.02879">
        <ele>2060.6000976562</ele>
        <time>2015-08-20T10:36:44.000Z</time>
      </trkpt>
      <trkpt lat="44.95522" lon="6.02878">
        <ele>2060</ele>
        <time>2015-08-20T10:36:45.000Z</time>
      </trkpt>
      <trkpt lat="44.95519" lon="6.02878">
        <ele>2059.1999511719</ele>
        <time>2015-08-20T10:36:48.000Z</time>
      </trkpt>
      <trkpt lat="44.95517" lon="6.02877">
        <ele>2058.8000488281</ele>
        <time>2015-08-20T10:36:50.000Z</time>
      </trkpt>
      <trkpt lat="44.95515" lon="6.02877">
        <ele>2058.3999023438</ele>
        <time>2015-08-20T10:36:52.000Z</time>
      </trkpt>
      <trkpt lat="44.95514" lon="6.02877">
        <ele>2058.1999511719</ele>
        <time>2015-08-20T10:36:53.000Z</time>
      </trkpt>
      <trkpt lat="44.95511" lon="6.02881">
        <ele>2058.1999511719</ele>
        <time>2015-08-20T10:36:57.000Z</time>
      </trkpt>
      <trkpt lat="44.95509" lon="6.02882">
        <ele>2058.1999511719</ele>
        <time>2015-08-20T10:36:59.000Z</time>
      </trkpt>
      <trkpt lat="44.95506" lon="6.02883">
        <ele>2057.8000488281</ele>
        <time>2015-08-20T10:37:01.000Z</time>
      </trkpt>
      <trkpt lat="44.95502" lon="6.02882">
        <ele>2056.6000976562</ele>
        <time>2015-08-20T10:37:05.000Z</time>
      </trkpt>
      <trkpt lat="44.955" lon="6.0288">
        <ele>2055.6000976562</ele>
        <time>2015-08-20T10:37:08.000Z</time>
      </trkpt>
      <trkpt lat="44.95494" lon="6.02879">
        <ele>2053.8000488281</ele>
        <time>2015-08-20T10:37:14.000Z</time>
      </trkpt>
      <trkpt lat="44.95493" lon="6.02878">
        <ele>2053.3999023438</ele>
        <time>2015-08-20T10:37:15.000Z</time>
      </trkpt>
      <trkpt lat="44.95487" lon="6.02873">
        <ele>2051</ele>
        <time>2015-08-20T10:37:20.000Z</time>
      </trkpt>
      <trkpt lat="44.95481" lon="6.0287">
        <ele>2048.6000976562</ele>
        <time>2015-08-20T10:37:25.000Z</time>
      </trkpt>
      <trkpt lat="44.95477" lon="6.02862">
        <ele>2045.8000488281</ele>
        <time>2015-08-20T10:37:29.000Z</time>
      </trkpt>
      <trkpt lat="44.9547" lon="6.02858">
        <ele>2043.1999511719</ele>
        <time>2015-08-20T10:37:33.000Z</time>
      </trkpt>
      <trkpt lat="44.9546" lon="6.02857">
        <ele>2040.5999755859</ele>
        <time>2015-08-20T10:37:37.000Z</time>
      </trkpt>
      <trkpt lat="44.95458" lon="6.02856">
        <ele>2040</ele>
        <time>2015-08-20T10:37:38.000Z</time>
      </trkpt>
      <trkpt lat="44.95456" lon="6.02854">
        <ele>2039.4000244141</ele>
        <time>2015-08-20T10:37:39.000Z</time>
      </trkpt>
      <trkpt lat="44.95453" lon="6.02848">
        <ele>2038</ele>
        <time>2015-08-20T10:37:41.000Z</time>
      </trkpt>
      <trkpt lat="44.95444" lon="6.0284">
        <ele>2036.1999511719</ele>
        <time>2015-08-20T10:37:46.000Z</time>
      </trkpt>
      <trkpt lat="44.95439" lon="6.02833">
        <ele>2034.5999755859</ele>
        <time>2015-08-20T10:37:49.000Z</time>
      </trkpt>
      <trkpt lat="44.95437" lon="6.02832">
        <ele>2034.1999511719</ele>
        <time>2015-08-20T10:37:50.000Z</time>
      </trkpt>
      <trkpt lat="44.9543" lon="6.0283">
        <ele>2034</ele>
        <time>2015-08-20T10:37:55.000Z</time>
      </trkpt>
      <trkpt lat="44.9542" lon="6.02828">
        <ele>2033.8000488281</ele>
        <time>2015-08-20T10:38:00.000Z</time>
      </trkpt>
      <trkpt lat="44.95416" lon="6.02828">
        <ele>2033.8000488281</ele>
        <time>2015-08-20T10:38:04.000Z</time>
      </trkpt>
      <trkpt lat="44.95417" lon="6.02829">
        <ele>2034</ele>
        <time>2015-08-20T10:38:11.000Z</time>
      </trkpt>
      <trkpt lat="44.95417" lon="6.0283">
        <ele>2034.1999511719</ele>
        <time>2015-08-20T10:38:23.000Z</time>
      </trkpt>
      <trkpt lat="44.95417" lon="6.02822">
        <ele>2032.1999511719</ele>
        <time>2015-08-20T10:39:18.000Z</time>
      </trkpt>
      <trkpt lat="44.95418" lon="6.02821">
        <ele>2032</ele>
        <time>2015-08-20T10:39:19.000Z</time>
      </trkpt>
      <trkpt lat="44.95424" lon="6.02814">
        <ele>2030.1999511719</ele>
        <time>2015-08-20T10:39:25.000Z</time>
      </trkpt>
      <trkpt lat="44.95424" lon="6.02812">
        <ele>2029.8000488281</ele>
        <time>2015-08-20T10:39:26.000Z</time>
      </trkpt>
      <trkpt lat="44.95421" lon="6.02804">
        <ele>2028.1999511719</ele>
        <time>2015-08-20T10:39:30.000Z</time>
      </trkpt>
      <trkpt lat="44.95416" lon="6.02795">
        <ele>2027</ele>
        <time>2015-08-20T10:39:35.000Z</time>
      </trkpt>
      <trkpt lat="44.95413" lon="6.02782">
        <ele>2025.1999511719</ele>
        <time>2015-08-20T10:39:41.000Z</time>
      </trkpt>
      <trkpt lat="44.95405" lon="6.02769">
        <ele>2023.5999755859</ele>
        <time>2015-08-20T10:39:47.000Z</time>
      </trkpt>
      <trkpt lat="44.95402" lon="6.02761">
        <ele>2022.4000244141</ele>
        <time>2015-08-20T10:39:50.000Z</time>
      </trkpt>
      <trkpt lat="44.95401" lon="6.02756">
        <ele>2021.5999755859</ele>
        <time>2015-08-20T10:39:52.000Z</time>
      </trkpt>
      <trkpt lat="44.95394" lon="6.02743">
        <ele>2019.5999755859</ele>
        <time>2015-08-20T10:39:57.000Z</time>
      </trkpt>
      <trkpt lat="44.95393" lon="6.02739">
        <ele>2019</ele>
        <time>2015-08-20T10:39:58.000Z</time>
      </trkpt>
      <trkpt lat="44.95389" lon="6.02732">
        <ele>2017.5999755859</ele>
        <time>2015-08-20T10:40:01.000Z</time>
      </trkpt>
      <trkpt lat="44.95386" lon="6.02727">
        <ele>2016.8000488281</ele>
        <time>2015-08-20T10:40:03.000Z</time>
      </trkpt>
      <trkpt lat="44.95381" lon="6.02714">
        <ele>2013.1999511719</ele>
        <time>2015-08-20T10:40:08.000Z</time>
      </trkpt>
      <trkpt lat="44.9538" lon="6.02701">
        <ele>2009</ele>
        <time>2015-08-20T10:40:13.000Z</time>
      </trkpt>
      <trkpt lat="44.95377" lon="6.02687">
        <ele>2004.5999755859</ele>
        <time>2015-08-20T10:40:19.000Z</time>
      </trkpt>
      <trkpt lat="44.95376" lon="6.02679">
        <ele>2002</ele>
        <time>2015-08-20T10:40:26.000Z</time>
      </trkpt>
      <trkpt lat="44.95375" lon="6.02677">
        <ele>2001.8000488281</ele>
        <time>2015-08-20T10:40:31.000Z</time>
      </trkpt>
      <trkpt lat="44.95371" lon="6.02688">
        <ele>2004.8000488281</ele>
        <time>2015-08-20T10:40:42.000Z</time>
      </trkpt>
      <trkpt lat="44.95355" lon="6.02697">
        <ele>2006.1999511719</ele>
        <time>2015-08-20T10:40:47.000Z</time>
      </trkpt>
      <trkpt lat="44.95343" lon="6.027">
        <ele>2006</ele>
        <time>2015-08-20T10:40:51.000Z</time>
      </trkpt>
      <trkpt lat="44.95334" lon="6.02697">
        <ele>2004.8000488281</ele>
        <time>2015-08-20T10:40:55.000Z</time>
      </trkpt>
      <trkpt lat="44.95324" lon="6.02693">
        <ele>2002.8000488281</ele>
        <time>2015-08-20T10:41:00.000Z</time>
      </trkpt>
      <trkpt lat="44.95311" lon="6.02687">
        <ele>1999.8000488281</ele>
        <time>2015-08-20T10:41:05.000Z</time>
      </trkpt>
      <trkpt lat="44.95304" lon="6.02683">
        <ele>1998</ele>
        <time>2015-08-20T10:41:08.000Z</time>
      </trkpt>
      <trkpt lat="44.953" lon="6.02681">
        <ele>1997</ele>
        <time>2015-08-20T10:41:10.000Z</time>
      </trkpt>
      <trkpt lat="44.95292" lon="6.0268">
        <ele>1996.5999755859</ele>
        <time>2015-08-20T10:41:15.000Z</time>
      </trkpt>
      <trkpt lat="44.95288" lon="6.02681">
        <ele>1996.8000488281</ele>
        <time>2015-08-20T10:41:17.000Z</time>
      </trkpt>
      <trkpt lat="44.95283" lon="6.02681">
        <ele>1996.8000488281</ele>
        <time>2015-08-20T10:41:19.000Z</time>
      </trkpt>
      <trkpt lat="44.95271" lon="6.02686">
        <ele>1998.5999755859</ele>
        <time>2015-08-20T10:41:24.000Z</time>
      </trkpt>
      <trkpt lat="44.95256" lon="6.02686">
        <ele>1998.8000488281</ele>
        <time>2015-08-20T10:41:29.000Z</time>
      </trkpt>
      <trkpt lat="44.95243" lon="6.02689">
        <ele>1999.1999511719</ele>
        <time>2015-08-20T10:41:34.000Z</time>
      </trkpt>
      <trkpt lat="44.95228" lon="6.02691">
        <ele>1999.4000244141</ele>
        <time>2015-08-20T10:41:39.000Z</time>
      </trkpt>
      <trkpt lat="44.95212" lon="6.02698">
        <ele>2001.1999511719</ele>
        <time>2015-08-20T10:41:45.000Z</time>
      </trkpt>
      <trkpt lat="44.95199" lon="6.02698">
        <ele>2001.5999755859</ele>
        <time>2015-08-20T10:41:50.000Z</time>
      </trkpt>
      <trkpt lat="44.95187" lon="6.02691">
        <ele>1999.4000244141</ele>
        <time>2015-08-20T10:41:55.000Z</time>
      </trkpt>
      <trkpt lat="44.95182" lon="6.02684">
        <ele>1997.1999511719</ele>
        <time>2015-08-20T10:41:58.000Z</time>
      </trkpt>
      <trkpt lat="44.9518" lon="6.02681">
        <ele>1996.1999511719</ele>
        <time>2015-08-20T10:41:59.000Z</time>
      </trkpt>
      <trkpt lat="44.95168" lon="6.02675">
        <ele>1994.1999511719</ele>
        <time>2015-08-20T10:42:04.000Z</time>
      </trkpt>
      <trkpt lat="44.95156" lon="6.02667">
        <ele>1992</ele>
        <time>2015-08-20T10:42:09.000Z</time>
      </trkpt>
      <trkpt lat="44.95145" lon="6.02661">
        <ele>1990.4000244141</ele>
        <time>2015-08-20T10:42:14.000Z</time>
      </trkpt>
      <trkpt lat="44.95136" lon="6.0266">
        <ele>1990.8000488281</ele>
        <time>2015-08-20T10:42:18.000Z</time>
      </trkpt>
      <trkpt lat="44.95124" lon="6.02661">
        <ele>1992.8000488281</ele>
        <time>2015-08-20T10:42:23.000Z</time>
      </trkpt>
      <trkpt lat="44.9512" lon="6.0266">
        <ele>1992.5999755859</ele>
        <time>2015-08-20T10:42:25.000Z</time>
      </trkpt>
      <trkpt lat="44.95116" lon="6.02657">
        <ele>1991.8000488281</ele>
        <time>2015-08-20T10:42:27.000Z</time>
      </trkpt>
      <trkpt lat="44.95112" lon="6.02656">
        <ele>1991.8000488281</ele>
        <time>2015-08-20T10:42:29.000Z</time>
      </trkpt>
      <trkpt lat="44.95103" lon="6.02651">
        <ele>1990.4000244141</ele>
        <time>2015-08-20T10:42:32.000Z</time>
      </trkpt>
      <trkpt lat="44.95086" lon="6.02647">
        <ele>1990</ele>
        <time>2015-08-20T10:42:38.000Z</time>
      </trkpt>
      <trkpt lat="44.95071" lon="6.02642">
        <ele>1989.1999511719</ele>
        <time>2015-08-20T10:42:44.000Z</time>
      </trkpt>
      <trkpt lat="44.9506" lon="6.02637">
        <ele>1987</ele>
        <time>2015-08-20T10:42:49.000Z</time>
      </trkpt>
      <trkpt lat="44.95055" lon="6.02632">
        <ele>1985.1999511719</ele>
        <time>2015-08-20T10:42:53.000Z</time>
      </trkpt>
      <trkpt lat="44.95053" lon="6.02632">
        <ele>1985</ele>
        <time>2015-08-20T10:42:54.000Z</time>
      </trkpt>
      <trkpt lat="44.95045" lon="6.02625">
        <ele>1981.8000488281</ele>
        <time>2015-08-20T10:43:02.000Z</time>
      </trkpt>
      <trkpt lat="44.95042" lon="6.02622">
        <ele>1980.5999755859</ele>
        <time>2015-08-20T10:43:09.000Z</time>
      </trkpt>
      <trkpt lat="44.95036" lon="6.02618">
        <ele>1981.1999511719</ele>
        <time>2015-08-20T10:43:15.000Z</time>
      </trkpt>
      <trkpt lat="44.95035" lon="6.02618">
        <ele>1981.1999511719</ele>
        <time>2015-08-20T10:43:16.000Z</time>
      </trkpt>
      <trkpt lat="44.95031" lon="6.02614">
        <ele>1981.1999511719</ele>
        <time>2015-08-20T10:43:20.000Z</time>
      </trkpt>
      <trkpt lat="44.95025" lon="6.02608">
        <ele>1981</ele>
        <time>2015-08-20T10:43:24.000Z</time>
      </trkpt>
      <trkpt lat="44.95023" lon="6.02606">
        <ele>1981.1999511719</ele>
        <time>2015-08-20T10:43:25.000Z</time>
      </trkpt>
      <trkpt lat="44.95011" lon="6.02598">
        <ele>1982.8000488281</ele>
        <time>2015-08-20T10:43:30.000Z</time>
      </trkpt>
      <trkpt lat="44.95006" lon="6.02592">
        <ele>1981.5999755859</ele>
        <time>2015-08-20T10:43:34.000Z</time>
      </trkpt>
      <trkpt lat="44.95015" lon="6.02594">
        <ele>1978.5999755859</ele>
        <time>2015-08-20T10:43:37.000Z</time>
      </trkpt>
      <trkpt lat="44.95026" lon="6.026">
        <ele>1976</ele>
        <time>2015-08-20T10:43:41.000Z</time>
      </trkpt>
      <trkpt lat="44.9504" lon="6.02602">
        <ele>1969.8000488281</ele>
        <time>2015-08-20T10:43:46.000Z</time>
      </trkpt>
      <trkpt lat="44.95054" lon="6.02605">
        <ele>1970</ele>
        <time>2015-08-20T10:43:51.000Z</time>
      </trkpt>
      <trkpt lat="44.95069" lon="6.02607">
        <ele>1969.8000488281</ele>
        <time>2015-08-20T10:43:56.000Z</time>
      </trkpt>
      <trkpt lat="44.95085" lon="6.02603">
        <ele>1966</ele>
        <time>2015-08-20T10:44:02.000Z</time>
      </trkpt>
      <trkpt lat="44.95103" lon="6.026">
        <ele>1962.8000488281</ele>
        <time>2015-08-20T10:44:09.000Z</time>
      </trkpt>
      <trkpt lat="44.95118" lon="6.02598">
        <ele>1959.8000488281</ele>
        <time>2015-08-20T10:44:15.000Z</time>
      </trkpt>
      <trkpt lat="44.95127" lon="6.02592">
        <ele>1956</ele>
        <time>2015-08-20T10:44:19.000Z</time>
      </trkpt>
      <trkpt lat="44.95136" lon="6.02586">
        <ele>1952.1999511719</ele>
        <time>2015-08-20T10:44:23.000Z</time>
      </trkpt>
      <trkpt lat="44.95147" lon="6.02576">
        <ele>1946.5999755859</ele>
        <time>2015-08-20T10:44:29.000Z</time>
      </trkpt>
      <trkpt lat="44.9516" lon="6.02576">
        <ele>1946.5999755859</ele>
        <time>2015-08-20T10:44:34.000Z</time>
      </trkpt>
      <trkpt lat="44.95166" lon="6.02576">
        <ele>1946.4000244141</ele>
        <time>2015-08-20T10:44:38.000Z</time>
      </trkpt>
      <trkpt lat="44.9516" lon="6.0257">
        <ele>1943.5999755859</ele>
        <time>2015-08-20T10:44:42.000Z</time>
      </trkpt>
      <trkpt lat="44.95158" lon="6.02569">
        <ele>1943</ele>
        <time>2015-08-20T10:44:43.000Z</time>
      </trkpt>
      <trkpt lat="44.9515" lon="6.02564">
        <ele>1940.8000488281</ele>
        <time>2015-08-20T10:44:47.000Z</time>
      </trkpt>
      <trkpt lat="44.95139" lon="6.02565">
        <ele>1941</ele>
        <time>2015-08-20T10:44:52.000Z</time>
      </trkpt>
      <trkpt lat="44.95125" lon="6.02566">
        <ele>1941.8000488281</ele>
        <time>2015-08-20T10:44:57.000Z</time>
      </trkpt>
      <trkpt lat="44.95121" lon="6.02566">
        <ele>1942.1999511719</ele>
        <time>2015-08-20T10:44:59.000Z</time>
      </trkpt>
      <trkpt lat="44.95121" lon="6.02562">
        <ele>1940</ele>
        <time>2015-08-20T10:45:01.000Z</time>
      </trkpt>
      <trkpt lat="44.95129" lon="6.02559">
        <ele>1938</ele>
        <time>2015-08-20T10:45:04.000Z</time>
      </trkpt>
      <trkpt lat="44.95135" lon="6.02553">
        <ele>1935.4000244141</ele>
        <time>2015-08-20T10:45:07.000Z</time>
      </trkpt>
      <trkpt lat="44.95147" lon="6.02545">
        <ele>1931.5999755859</ele>
        <time>2015-08-20T10:45:12.000Z</time>
      </trkpt>
      <trkpt lat="44.9516" lon="6.02547">
        <ele>1932.8000488281</ele>
        <time>2015-08-20T10:45:17.000Z</time>
      </trkpt>
      <trkpt lat="44.95175" lon="6.02551">
        <ele>1934.1999511719</ele>
        <time>2015-08-20T10:45:23.000Z</time>
      </trkpt>
      <trkpt lat="44.95189" lon="6.02544">
        <ele>1931</ele>
        <time>2015-08-20T10:45:29.000Z</time>
      </trkpt>
      <trkpt lat="44.952" lon="6.0254">
        <ele>1928.5999755859</ele>
        <time>2015-08-20T10:45:35.000Z</time>
      </trkpt>
      <trkpt lat="44.95205" lon="6.02537">
        <ele>1927</ele>
        <time>2015-08-20T10:46:07.000Z</time>
      </trkpt>
      <trkpt lat="44.9522" lon="6.02535">
        <ele>1926</ele>
        <time>2015-08-20T10:46:13.000Z</time>
      </trkpt>
      <trkpt lat="44.95224" lon="6.02535">
        <ele>1925.8000488281</ele>
        <time>2015-08-20T10:46:17.000Z</time>
      </trkpt>
      <trkpt lat="44.95223" lon="6.02534">
        <ele>1925.4000244141</ele>
        <time>2015-08-20T10:46:18.000Z</time>
      </trkpt>
      <trkpt lat="44.95218" lon="6.02532">
        <ele>1924.5999755859</ele>
        <time>2015-08-20T10:46:21.000Z</time>
      </trkpt>
      <trkpt lat="44.95214" lon="6.0253">
        <ele>1923.1999511719</ele>
        <time>2015-08-20T10:46:23.000Z</time>
      </trkpt>
      <trkpt lat="44.95209" lon="6.02528">
        <ele>1922.1999511719</ele>
        <time>2015-08-20T10:46:25.000Z</time>
      </trkpt>
      <trkpt lat="44.95196" lon="6.02524">
        <ele>1920.5999755859</ele>
        <time>2015-08-20T10:46:30.000Z</time>
      </trkpt>
      <trkpt lat="44.95183" lon="6.02525">
        <ele>1921.8000488281</ele>
        <time>2015-08-20T10:46:35.000Z</time>
      </trkpt>
      <trkpt lat="44.95168" lon="6.02525">
        <ele>1922.1999511719</ele>
        <time>2015-08-20T10:46:40.000Z</time>
      </trkpt>
      <trkpt lat="44.95154" lon="6.02514">
        <ele>1917.1999511719</ele>
        <time>2015-08-20T10:46:45.000Z</time>
      </trkpt>
      <trkpt lat="44.95141" lon="6.02503">
        <ele>1911.8000488281</ele>
        <time>2015-08-20T10:46:50.000Z</time>
      </trkpt>
      <trkpt lat="44.95128" lon="6.02498">
        <ele>1909.4000244141</ele>
        <time>2015-08-20T10:46:55.000Z</time>
      </trkpt>
      <trkpt lat="44.95113" lon="6.02496">
        <ele>1909.4000244141</ele>
        <time>2015-08-20T10:47:01.000Z</time>
      </trkpt>
      <trkpt lat="44.951" lon="6.02492">
        <ele>1909</ele>
        <time>2015-08-20T10:47:06.000Z</time>
      </trkpt>
      <trkpt lat="44.95087" lon="6.02487">
        <ele>1907.8000488281</ele>
        <time>2015-08-20T10:47:11.000Z</time>
      </trkpt>
      <trkpt lat="44.95072" lon="6.02483">
        <ele>1907.5999755859</ele>
        <time>2015-08-20T10:47:17.000Z</time>
      </trkpt>
      <trkpt lat="44.95059" lon="6.02479">
        <ele>1906.8000488281</ele>
        <time>2015-08-20T10:47:22.000Z</time>
      </trkpt>
      <trkpt lat="44.95047" lon="6.02473">
        <ele>1905.1999511719</ele>
        <time>2015-08-20T10:47:27.000Z</time>
      </trkpt>
      <trkpt lat="44.95046" lon="6.02469">
        <ele>1903.5999755859</ele>
        <time>2015-08-20T10:47:32.000Z</time>
      </trkpt>
      <trkpt lat="44.95058" lon="6.02471">
        <ele>1903.4000244141</ele>
        <time>2015-08-20T10:47:37.000Z</time>
      </trkpt>
      <trkpt lat="44.95076" lon="6.02465">
        <ele>1899</ele>
        <time>2015-08-20T10:47:43.000Z</time>
      </trkpt>
      <trkpt lat="44.9508" lon="6.02463">
        <ele>1897.8000488281</ele>
        <time>2015-08-20T10:47:45.000Z</time>
      </trkpt>
      <trkpt lat="44.9509" lon="6.02456">
        <ele>1894</ele>
        <time>2015-08-20T10:47:49.000Z</time>
      </trkpt>
      <trkpt lat="44.951" lon="6.02447">
        <ele>1888.1999511719</ele>
        <time>2015-08-20T10:47:54.000Z</time>
      </trkpt>
      <trkpt lat="44.95112" lon="6.02445">
        <ele>1884.4000244141</ele>
        <time>2015-08-20T10:47:59.000Z</time>
      </trkpt>
      <trkpt lat="44.95124" lon="6.02442">
        <ele>1880</ele>
        <time>2015-08-20T10:48:04.000Z</time>
      </trkpt>
      <trkpt lat="44.95138" lon="6.02444">
        <ele>1880.1999511719</ele>
        <time>2015-08-20T10:48:09.000Z</time>
      </trkpt>
      <trkpt lat="44.95152" lon="6.02449">
        <ele>1882.5999755859</ele>
        <time>2015-08-20T10:48:14.000Z</time>
      </trkpt>
      <trkpt lat="44.95165" lon="6.02453">
        <ele>1884.1999511719</ele>
        <time>2015-08-20T10:48:19.000Z</time>
      </trkpt>
      <trkpt lat="44.95178" lon="6.02449">
        <ele>1881</ele>
        <time>2015-08-20T10:48:25.000Z</time>
      </trkpt>
      <trkpt lat="44.95192" lon="6.02447">
        <ele>1878.1999511719</ele>
        <time>2015-08-20T10:48:31.000Z</time>
      </trkpt>
      <trkpt lat="44.95195" lon="6.02447">
        <ele>1877.8000488281</ele>
        <time>2015-08-20T10:48:37.000Z</time>
      </trkpt>
      <trkpt lat="44.95194" lon="6.0245">
        <ele>1880</ele>
        <time>2015-08-20T10:48:43.000Z</time>
      </trkpt>
      <trkpt lat="44.95185" lon="6.02451">
        <ele>1881.5999755859</ele>
        <time>2015-08-20T10:49:14.000Z</time>
      </trkpt>
      <trkpt lat="44.95173" lon="6.02446">
        <ele>1879.4000244141</ele>
        <time>2015-08-20T10:49:19.000Z</time>
      </trkpt>
      <trkpt lat="44.95168" lon="6.02443">
        <ele>1878</ele>
        <time>2015-08-20T10:49:23.000Z</time>
      </trkpt>
      <trkpt lat="44.95162" lon="6.02438">
        <ele>1875.4000244141</ele>
        <time>2015-08-20T10:49:28.000Z</time>
      </trkpt>
      <trkpt lat="44.95152" lon="6.02426">
        <ele>1869.1999511719</ele>
        <time>2015-08-20T10:49:34.000Z</time>
      </trkpt>
      <trkpt lat="44.9514" lon="6.02417">
        <ele>1864.5999755859</ele>
        <time>2015-08-20T10:49:39.000Z</time>
      </trkpt>
      <trkpt lat="44.95126" lon="6.02408">
        <ele>1860</ele>
        <time>2015-08-20T10:49:45.000Z</time>
      </trkpt>
      <trkpt lat="44.95121" lon="6.02406">
        <ele>1859.5999755859</ele>
        <time>2015-08-20T10:49:47.000Z</time>
      </trkpt>
      <trkpt lat="44.95117" lon="6.02403">
        <ele>1859</ele>
        <time>2015-08-20T10:49:49.000Z</time>
      </trkpt>
      <trkpt lat="44.95108" lon="6.02398">
        <ele>1858.4000244141</ele>
        <time>2015-08-20T10:49:53.000Z</time>
      </trkpt>
      <trkpt lat="44.95101" lon="6.02395">
        <ele>1858.1999511719</ele>
        <time>2015-08-20T10:49:56.000Z</time>
      </trkpt>
      <trkpt lat="44.95096" lon="6.02394">
        <ele>1858.5999755859</ele>
        <time>2015-08-20T10:49:58.000Z</time>
      </trkpt>
      <trkpt lat="44.95086" lon="6.02388">
        <ele>1858.5999755859</ele>
        <time>2015-08-20T10:50:03.000Z</time>
      </trkpt>
      <trkpt lat="44.95076" lon="6.02385">
        <ele>1860.1999511719</ele>
        <time>2015-08-20T10:50:07.000Z</time>
      </trkpt>
      <trkpt lat="44.95072" lon="6.02382">
        <ele>1860.1999511719</ele>
        <time>2015-08-20T10:50:11.000Z</time>
      </trkpt>
      <trkpt lat="44.95071" lon="6.02381">
        <ele>1860.1999511719</ele>
        <time>2015-08-20T10:50:12.000Z</time>
      </trkpt>
      <trkpt lat="44.95061" lon="6.02374">
        <ele>1860</ele>
        <time>2015-08-20T10:50:17.000Z</time>
      </trkpt>
      <trkpt lat="44.95052" lon="6.02369">
        <ele>1860.8000488281</ele>
        <time>2015-08-20T10:50:21.000Z</time>
      </trkpt>
      <trkpt lat="44.9505" lon="6.02368">
        <ele>1860.5999755859</ele>
        <time>2015-08-20T10:50:22.000Z</time>
      </trkpt>
      <trkpt lat="44.95051" lon="6.02365">
        <ele>1859.4000244141</ele>
        <time>2015-08-20T10:50:24.000Z</time>
      </trkpt>
      <trkpt lat="44.95058" lon="6.02368">
        <ele>1859</ele>
        <time>2015-08-20T10:50:27.000Z</time>
      </trkpt>
      <trkpt lat="44.9506" lon="6.02369">
        <ele>1858.8000488281</ele>
        <time>2015-08-20T10:50:28.000Z</time>
      </trkpt>
      <trkpt lat="44.95065" lon="6.02372">
        <ele>1858.4000244141</ele>
        <time>2015-08-20T10:50:32.000Z</time>
      </trkpt>
      <trkpt lat="44.95066" lon="6.02373">
        <ele>1858.5999755859</ele>
        <time>2015-08-20T10:50:33.000Z</time>
      </trkpt>
      <trkpt lat="44.9507" lon="6.02376">
        <ele>1858.5999755859</ele>
        <time>2015-08-20T10:50:37.000Z</time>
      </trkpt>
      <trkpt lat="44.95071" lon="6.02377">
        <ele>1858.5999755859</ele>
        <time>2015-08-20T10:50:38.000Z</time>
      </trkpt>
      <trkpt lat="44.95073" lon="6.02377">
        <ele>1858</ele>
        <time>2015-08-20T10:50:42.000Z</time>
      </trkpt>
      <trkpt lat="44.95075" lon="6.02377">
        <ele>1857.8000488281</ele>
        <time>2015-08-20T10:50:43.000Z</time>
      </trkpt>
      <trkpt lat="44.95082" lon="6.0238">
        <ele>1857</ele>
        <time>2015-08-20T10:50:49.000Z</time>
      </trkpt>
      <trkpt lat="44.95087" lon="6.02379">
        <ele>1855.5999755859</ele>
        <time>2015-08-20T10:50:53.000Z</time>
      </trkpt>
      <trkpt lat="44.95095" lon="6.02376">
        <ele>1852.8000488281</ele>
        <time>2015-08-20T10:50:59.000Z</time>
      </trkpt>
      <trkpt lat="44.95104" lon="6.02372">
        <ele>1849.1999511719</ele>
        <time>2015-08-20T10:51:06.000Z</time>
      </trkpt>
      <trkpt lat="44.95105" lon="6.02373">
        <ele>1849</ele>
        <time>2015-08-20T10:51:07.000Z</time>
      </trkpt>
      <trkpt lat="44.95109" lon="6.02375">
        <ele>1848.5999755859</ele>
        <time>2015-08-20T10:51:10.000Z</time>
      </trkpt>
      <trkpt lat="44.95112" lon="6.02377">
        <ele>1848.8000488281</ele>
        <time>2015-08-20T10:51:13.000Z</time>
      </trkpt>
      <trkpt lat="44.95118" lon="6.0238">
        <ele>1848.1999511719</ele>
        <time>2015-08-20T10:51:18.000Z</time>
      </trkpt>
      <trkpt lat="44.9512" lon="6.0238">
        <ele>1846.8000488281</ele>
        <time>2015-08-20T10:51:20.000Z</time>
      </trkpt>
      <trkpt lat="44.95127" lon="6.02379">
        <ele>1845.1999511719</ele>
        <time>2015-08-20T10:51:24.000Z</time>
      </trkpt>
      <trkpt lat="44.95131" lon="6.02378">
        <ele>1844</ele>
        <time>2015-08-20T10:51:27.000Z</time>
      </trkpt>
      <trkpt lat="44.95142" lon="6.02377">
        <ele>1842</ele>
        <time>2015-08-20T10:51:35.000Z</time>
      </trkpt>
      <trkpt lat="44.95151" lon="6.02376">
        <ele>1840.4000244141</ele>
        <time>2015-08-20T10:51:42.000Z</time>
      </trkpt>
      <trkpt lat="44.95151" lon="6.02373">
        <ele>1838.8000488281</ele>
        <time>2015-08-20T10:51:45.000Z</time>
      </trkpt>
      <trkpt lat="44.95149" lon="6.02372">
        <ele>1838.8000488281</ele>
        <time>2015-08-20T10:51:47.000Z</time>
      </trkpt>
      <trkpt lat="44.95145" lon="6.02372">
        <ele>1839.1999511719</ele>
        <time>2015-08-20T10:51:50.000Z</time>
      </trkpt>
      <trkpt lat="44.9514" lon="6.02371">
        <ele>1839.4000244141</ele>
        <time>2015-08-20T10:51:53.000Z</time>
      </trkpt>
      <trkpt lat="44.95131" lon="6.02369">
        <ele>1840.1999511719</ele>
        <time>2015-08-20T10:52:00.000Z</time>
      </trkpt>
      <trkpt lat="44.95122" lon="6.02367">
        <ele>1841</ele>
        <time>2015-08-20T10:52:07.000Z</time>
      </trkpt>
      <trkpt lat="44.95114" lon="6.02365">
        <ele>1842.8000488281</ele>
        <time>2015-08-20T10:52:12.000Z</time>
      </trkpt>
      <trkpt lat="44.95107" lon="6.02358">
        <ele>1842</ele>
        <time>2015-08-20T10:52:19.000Z</time>
      </trkpt>
      <trkpt lat="44.95101" lon="6.02353">
        <ele>1842</ele>
        <time>2015-08-20T10:52:25.000Z</time>
      </trkpt>
      <trkpt lat="44.95092" lon="6.02347">
        <ele>1842.4000244141</ele>
        <time>2015-08-20T10:52:32.000Z</time>
      </trkpt>
      <trkpt lat="44.95083" lon="6.02337">
        <ele>1841.1999511719</ele>
        <time>2015-08-20T10:52:41.000Z</time>
      </trkpt>
      <trkpt lat="44.95082" lon="6.02337">
        <ele>1841.4000244141</ele>
        <time>2015-08-20T10:52:42.000Z</time>
      </trkpt>
      <trkpt lat="44.95077" lon="6.02334">
        <ele>1841.5999755859</ele>
        <time>2015-08-20T10:52:46.000Z</time>
      </trkpt>
      <trkpt lat="44.95072" lon="6.02326">
        <ele>1840</ele>
        <time>2015-08-20T10:52:52.000Z</time>
      </trkpt>
      <trkpt lat="44.9507" lon="6.02316">
        <ele>1836.4000244141</ele>
        <time>2015-08-20T10:52:58.000Z</time>
      </trkpt>
      <trkpt lat="44.95078" lon="6.02319">
        <ele>1835</ele>
        <time>2015-08-20T10:53:02.000Z</time>
      </trkpt>
      <trkpt lat="44.95092" lon="6.02325">
        <ele>1832.8000488281</ele>
        <time>2015-08-20T10:53:08.000Z</time>
      </trkpt>
      <trkpt lat="44.95097" lon="6.02326">
        <ele>1831.8000488281</ele>
        <time>2015-08-20T10:53:12.000Z</time>
      </trkpt>
      <trkpt lat="44.95093" lon="6.02318">
        <ele>1829.4000244141</ele>
        <time>2015-08-20T10:53:16.000Z</time>
      </trkpt>
      <trkpt lat="44.95093" lon="6.02317">
        <ele>1829.1999511719</ele>
        <time>2015-08-20T10:53:17.000Z</time>
      </trkpt>
      <trkpt lat="44.95089" lon="6.02312">
        <ele>1828.1999511719</ele>
        <time>2015-08-20T10:53:21.000Z</time>
      </trkpt>
      <trkpt lat="44.95086" lon="6.02304">
        <ele>1826</ele>
        <time>2015-08-20T10:53:26.000Z</time>
      </trkpt>
      <trkpt lat="44.95082" lon="6.023">
        <ele>1826</ele>
        <time>2015-08-20T10:53:30.000Z</time>
      </trkpt>
      <trkpt lat="44.9508" lon="6.02298">
        <ele>1826</ele>
        <time>2015-08-20T10:53:31.000Z</time>
      </trkpt>
      <trkpt lat="44.95074" lon="6.02295">
        <ele>1827</ele>
        <time>2015-08-20T10:53:35.000Z</time>
      </trkpt>
      <trkpt lat="44.95074" lon="6.02293">
        <ele>1826.1999511719</ele>
        <time>2015-08-20T10:53:36.000Z</time>
      </trkpt>
      <trkpt lat="44.95081" lon="6.02286">
        <ele>1821.4000244141</ele>
        <time>2015-08-20T10:53:40.000Z</time>
      </trkpt>
      <trkpt lat="44.95086" lon="6.0228">
        <ele>1817.5999755859</ele>
        <time>2015-08-20T10:53:43.000Z</time>
      </trkpt>
      <trkpt lat="44.9509" lon="6.02278">
        <ele>1815.4000244141</ele>
        <time>2015-08-20T10:53:45.000Z</time>
      </trkpt>
      <trkpt lat="44.95102" lon="6.02275">
        <ele>1809.1999511719</ele>
        <time>2015-08-20T10:53:51.000Z</time>
      </trkpt>
      <trkpt lat="44.95114" lon="6.02276">
        <ele>1805.1999511719</ele>
        <time>2015-08-20T10:53:56.000Z</time>
      </trkpt>
      <trkpt lat="44.95123" lon="6.02277">
        <ele>1802.1999511719</ele>
        <time>2015-08-20T10:54:01.000Z</time>
      </trkpt>
      <trkpt lat="44.95124" lon="6.02277">
        <ele>1801.4000244141</ele>
        <time>2015-08-20T10:54:02.000Z</time>
      </trkpt>
      <trkpt lat="44.95129" lon="6.02277">
        <ele>1800.4000244141</ele>
        <time>2015-08-20T10:54:05.000Z</time>
      </trkpt>
      <trkpt lat="44.95131" lon="6.02277">
        <ele>1800.1999511719</ele>
        <time>2015-08-20T10:54:06.000Z</time>
      </trkpt>
      <trkpt lat="44.95137" lon="6.02281">
        <ele>1801.1999511719</ele>
        <time>2015-08-20T10:54:09.000Z</time>
      </trkpt>
      <trkpt lat="44.95139" lon="6.02282">
        <ele>1801.4000244141</ele>
        <time>2015-08-20T10:54:10.000Z</time>
      </trkpt>
      <trkpt lat="44.95149" lon="6.02286">
        <ele>1802</ele>
        <time>2015-08-20T10:54:17.000Z</time>
      </trkpt>
      <trkpt lat="44.95157" lon="6.0229">
        <ele>1802.4000244141</ele>
        <time>2015-08-20T10:54:22.000Z</time>
      </trkpt>
      <trkpt lat="44.95158" lon="6.02289">
        <ele>1802.1999511719</ele>
        <time>2015-08-20T10:54:25.000Z</time>
      </trkpt>
      <trkpt lat="44.95157" lon="6.02288">
        <ele>1802</ele>
        <time>2015-08-20T10:54:26.000Z</time>
      </trkpt>
      <trkpt lat="44.95154" lon="6.02282">
        <ele>1799.5999755859</ele>
        <time>2015-08-20T10:54:30.000Z</time>
      </trkpt>
      <trkpt lat="44.95155" lon="6.02281">
        <ele>1799</ele>
        <time>2015-08-20T10:54:31.000Z</time>
      </trkpt>
      <trkpt lat="44.95159" lon="6.02283">
        <ele>1799.4000244141</ele>
        <time>2015-08-20T10:54:34.000Z</time>
      </trkpt>
      <trkpt lat="44.95161" lon="6.02282">
        <ele>1798.5999755859</ele>
        <time>2015-08-20T10:54:40.000Z</time>
      </trkpt>
      <trkpt lat="44.95164" lon="6.02281">
        <ele>1797.8000488281</ele>
        <time>2015-08-20T10:54:54.000Z</time>
      </trkpt>
      <trkpt lat="44.95163" lon="6.02276">
        <ele>1795.8000488281</ele>
        <time>2015-08-20T10:54:57.000Z</time>
      </trkpt>
      <trkpt lat="44.95163" lon="6.02274">
        <ele>1794.8000488281</ele>
        <time>2015-08-20T10:54:58.000Z</time>
      </trkpt>
      <trkpt lat="44.95163" lon="6.02271">
        <ele>1793.5999755859</ele>
        <time>2015-08-20T10:55:00.000Z</time>
      </trkpt>
      <trkpt lat="44.95161" lon="6.02259">
        <ele>1788.8000488281</ele>
        <time>2015-08-20T10:55:06.000Z</time>
      </trkpt>
      <trkpt lat="44.9516" lon="6.02244">
        <ele>1783.8000488281</ele>
        <time>2015-08-20T10:55:13.000Z</time>
      </trkpt>
      <trkpt lat="44.95157" lon="6.02239">
        <ele>1782.5999755859</ele>
        <time>2015-08-20T10:55:16.000Z</time>
      </trkpt>
      <trkpt lat="44.95154" lon="6.02236">
        <ele>1781.4000244141</ele>
        <time>2015-08-20T10:55:18.000Z</time>
      </trkpt>
      <trkpt lat="44.95156" lon="6.02226">
        <ele>1778.1999511719</ele>
        <time>2015-08-20T10:55:25.000Z</time>
      </trkpt>
      <trkpt lat="44.95154" lon="6.02214">
        <ele>1773.5999755859</ele>
        <time>2015-08-20T10:55:33.000Z</time>
      </trkpt>
      <trkpt lat="44.95157" lon="6.02202">
        <ele>1769</ele>
        <time>2015-08-20T10:55:39.000Z</time>
      </trkpt>
      <trkpt lat="44.95165" lon="6.02198">
        <ele>1766.8000488281</ele>
        <time>2015-08-20T10:55:45.000Z</time>
      </trkpt>
      <trkpt lat="44.95169" lon="6.02195">
        <ele>1765.8000488281</ele>
        <time>2015-08-20T10:55:48.000Z</time>
      </trkpt>
      <trkpt lat="44.95172" lon="6.02193">
        <ele>1765</ele>
        <time>2015-08-20T10:55:51.000Z</time>
      </trkpt>
      <trkpt lat="44.95175" lon="6.02191">
        <ele>1764.5999755859</ele>
        <time>2015-08-20T10:55:53.000Z</time>
      </trkpt>
      <trkpt lat="44.95182" lon="6.02188">
        <ele>1765.5999755859</ele>
        <time>2015-08-20T10:55:57.000Z</time>
      </trkpt>
      <trkpt lat="44.95184" lon="6.02187">
        <ele>1765.8000488281</ele>
        <time>2015-08-20T10:55:59.000Z</time>
      </trkpt>
      <trkpt lat="44.9519" lon="6.02175">
        <ele>1765.5999755859</ele>
        <time>2015-08-20T10:56:07.000Z</time>
      </trkpt>
      <trkpt lat="44.95193" lon="6.02166">
        <ele>1765</ele>
        <time>2015-08-20T10:56:13.000Z</time>
      </trkpt>
      <trkpt lat="44.95195" lon="6.02162">
        <ele>1764.8000488281</ele>
        <time>2015-08-20T10:56:19.000Z</time>
      </trkpt>
      <trkpt lat="44.95198" lon="6.02156">
        <ele>1764.8000488281</ele>
        <time>2015-08-20T10:56:28.000Z</time>
      </trkpt>
      <trkpt lat="44.95198" lon="6.02147">
        <ele>1763.5999755859</ele>
        <time>2015-08-20T10:56:32.000Z</time>
      </trkpt>
      <trkpt lat="44.95194" lon="6.02132">
        <ele>1759.1999511719</ele>
        <time>2015-08-20T10:56:37.000Z</time>
      </trkpt>
      <trkpt lat="44.95193" lon="6.02128">
        <ele>1758.4000244141</ele>
        <time>2015-08-20T10:56:38.000Z</time>
      </trkpt>
      <trkpt lat="44.95194" lon="6.02112">
        <ele>1757.1999511719</ele>
        <time>2015-08-20T10:56:43.000Z</time>
      </trkpt>
      <trkpt lat="44.952" lon="6.02114">
        <ele>1759.5999755859</ele>
        <time>2015-08-20T10:56:46.000Z</time>
      </trkpt>
      <trkpt lat="44.95202" lon="6.02106">
        <ele>1759.5999755859</ele>
        <time>2015-08-20T10:56:50.000Z</time>
      </trkpt>
      <trkpt lat="44.95196" lon="6.02095">
        <ele>1756.4000244141</ele>
        <time>2015-08-20T10:56:54.000Z</time>
      </trkpt>
      <trkpt lat="44.95189" lon="6.02081">
        <ele>1752.5999755859</ele>
        <time>2015-08-20T10:56:59.000Z</time>
      </trkpt>
      <trkpt lat="44.95186" lon="6.02073">
        <ele>1750.5999755859</ele>
        <time>2015-08-20T10:57:02.000Z</time>
      </trkpt>
      <trkpt lat="44.95184" lon="6.0207">
        <ele>1749.8000488281</ele>
        <time>2015-08-20T10:57:03.000Z</time>
      </trkpt>
      <trkpt lat="44.95183" lon="6.02068">
        <ele>1749</ele>
        <time>2015-08-20T10:57:04.000Z</time>
      </trkpt>
      <trkpt lat="44.95187" lon="6.02056">
        <ele>1749.4000244141</ele>
        <time>2015-08-20T10:57:08.000Z</time>
      </trkpt>
      <trkpt lat="44.95192" lon="6.02054">
        <ele>1751.4000244141</ele>
        <time>2015-08-20T10:57:10.000Z</time>
      </trkpt>
      <trkpt lat="44.95196" lon="6.0205">
        <ele>1752.5999755859</ele>
        <time>2015-08-20T10:57:13.000Z</time>
      </trkpt>
      <trkpt lat="44.95197" lon="6.0204">
        <ele>1753.1999511719</ele>
        <time>2015-08-20T10:57:18.000Z</time>
      </trkpt>
      <trkpt lat="44.95191" lon="6.02037">
        <ele>1750</ele>
        <time>2015-08-20T10:57:22.000Z</time>
      </trkpt>
      <trkpt lat="44.95189" lon="6.02036">
        <ele>1749</ele>
        <time>2015-08-20T10:57:23.000Z</time>
      </trkpt>
      <trkpt lat="44.95184" lon="6.02031">
        <ele>1746.4000244141</ele>
        <time>2015-08-20T10:57:26.000Z</time>
      </trkpt>
      <trkpt lat="44.95182" lon="6.02029">
        <ele>1745.5999755859</ele>
        <time>2015-08-20T10:57:27.000Z</time>
      </trkpt>
      <trkpt lat="44.95176" lon="6.02015">
        <ele>1743.1999511719</ele>
        <time>2015-08-20T10:57:32.000Z</time>
      </trkpt>
      <trkpt lat="44.95175" lon="6.02007">
        <ele>1742.8000488281</ele>
        <time>2015-08-20T10:57:35.000Z</time>
      </trkpt>
      <trkpt lat="44.95173" lon="6.02001">
        <ele>1742.1999511719</ele>
        <time>2015-08-20T10:57:37.000Z</time>
      </trkpt>
      <trkpt lat="44.95173" lon="6.01997">
        <ele>1742.4000244141</ele>
        <time>2015-08-20T10:57:39.000Z</time>
      </trkpt>
      <trkpt lat="44.95174" lon="6.01989">
        <ele>1743.1999511719</ele>
        <time>2015-08-20T10:57:42.000Z</time>
      </trkpt>
      <trkpt lat="44.95176" lon="6.01977">
        <ele>1744.8000488281</ele>
        <time>2015-08-20T10:57:46.000Z</time>
      </trkpt>
      <trkpt lat="44.95177" lon="6.01969">
        <ele>1744.4000244141</ele>
        <time>2015-08-20T10:57:49.000Z</time>
      </trkpt>
      <trkpt lat="44.95176" lon="6.01959">
        <ele>1742.5999755859</ele>
        <time>2015-08-20T10:57:52.000Z</time>
      </trkpt>
      <trkpt lat="44.95178" lon="6.01948">
        <ele>1742</ele>
        <time>2015-08-20T10:57:56.000Z</time>
      </trkpt>
      <trkpt lat="44.95178" lon="6.01942">
        <ele>1741.5999755859</ele>
        <time>2015-08-20T10:57:58.000Z</time>
      </trkpt>
      <trkpt lat="44.95181" lon="6.01927">
        <ele>1742.4000244141</ele>
        <time>2015-08-20T10:58:02.000Z</time>
      </trkpt>
      <trkpt lat="44.95187" lon="6.01915">
        <ele>1745.1999511719</ele>
        <time>2015-08-20T10:58:06.000Z</time>
      </trkpt>
      <trkpt lat="44.95188" lon="6.01914">
        <ele>1745.8000488281</ele>
        <time>2015-08-20T10:58:07.000Z</time>
      </trkpt>
      <trkpt lat="44.95187" lon="6.01913">
        <ele>1745</ele>
        <time>2015-08-20T10:58:08.000Z</time>
      </trkpt>
      <trkpt lat="44.95186" lon="6.01907">
        <ele>1743.8000488281</ele>
        <time>2015-08-20T10:58:10.000Z</time>
      </trkpt>
      <trkpt lat="44.95181" lon="6.01893">
        <ele>1740</ele>
        <time>2015-08-20T10:58:15.000Z</time>
      </trkpt>
      <trkpt lat="44.9518" lon="6.01893">
        <ele>1739.4000244141</ele>
        <time>2015-08-20T10:58:19.000Z</time>
      </trkpt>
      <trkpt lat="44.95184" lon="6.01904">
        <ele>1742.4000244141</ele>
        <time>2015-08-20T10:58:23.000Z</time>
      </trkpt>
      <trkpt lat="44.95182" lon="6.0192">
        <ele>1742.4000244141</ele>
        <time>2015-08-20T10:58:28.000Z</time>
      </trkpt>
      <trkpt lat="44.95173" lon="6.01924">
        <ele>1737.1999511719</ele>
        <time>2015-08-20T10:58:32.000Z</time>
      </trkpt>
      <trkpt lat="44.95165" lon="6.01934">
        <ele>1733.1999511719</ele>
        <time>2015-08-20T10:58:37.000Z</time>
      </trkpt>
      <trkpt lat="44.95159" lon="6.01941">
        <ele>1730.8000488281</ele>
        <time>2015-08-20T10:58:41.000Z</time>
      </trkpt>
      <trkpt lat="44.95156" lon="6.01942">
        <ele>1729.5999755859</ele>
        <time>2015-08-20T10:58:42.000Z</time>
      </trkpt>
      <trkpt lat="44.95144" lon="6.01943">
        <ele>1722.8000488281</ele>
        <time>2015-08-20T10:58:47.000Z</time>
      </trkpt>
      <trkpt lat="44.95142" lon="6.01947">
        <ele>1722.5999755859</ele>
        <time>2015-08-20T10:58:49.000Z</time>
      </trkpt>
      <trkpt lat="44.9514" lon="6.01951">
        <ele>1722</ele>
        <time>2015-08-20T10:58:51.000Z</time>
      </trkpt>
      <trkpt lat="44.95139" lon="6.01963">
        <ele>1723.1999511719</ele>
        <time>2015-08-20T10:58:55.000Z</time>
      </trkpt>
      <trkpt lat="44.95138" lon="6.01967">
        <ele>1723.4000244141</ele>
        <time>2015-08-20T10:58:56.000Z</time>
      </trkpt>
      <trkpt lat="44.95133" lon="6.0198">
        <ele>1721.4000244141</ele>
        <time>2015-08-20T10:59:01.000Z</time>
      </trkpt>
      <trkpt lat="44.95135" lon="6.01986">
        <ele>1722.4000244141</ele>
        <time>2015-08-20T10:59:03.000Z</time>
      </trkpt>
      <trkpt lat="44.95139" lon="6.01994">
        <ele>1724.8000488281</ele>
        <time>2015-08-20T10:59:06.000Z</time>
      </trkpt>
      <trkpt lat="44.9514" lon="6.02001">
        <ele>1725.8000488281</ele>
        <time>2015-08-20T10:59:08.000Z</time>
      </trkpt>
      <trkpt lat="44.9514" lon="6.02006">
        <ele>1726.1999511719</ele>
        <time>2015-08-20T10:59:10.000Z</time>
      </trkpt>
      <trkpt lat="44.95138" lon="6.02011">
        <ele>1726</ele>
        <time>2015-08-20T10:59:13.000Z</time>
      </trkpt>
      <trkpt lat="44.95138" lon="6.02013">
        <ele>1725.8000488281</ele>
        <time>2015-08-20T10:59:14.000Z</time>
      </trkpt>
      <trkpt lat="44.95134" lon="6.02016">
        <ele>1724.5999755859</ele>
        <time>2015-08-20T10:59:18.000Z</time>
      </trkpt>
      <trkpt lat="44.95122" lon="6.02011">
        <ele>1719.5999755859</ele>
        <time>2015-08-20T10:59:23.000Z</time>
      </trkpt>
      <trkpt lat="44.95114" lon="6.02013">
        <ele>1717</ele>
        <time>2015-08-20T10:59:27.000Z</time>
      </trkpt>
      <trkpt lat="44.95107" lon="6.02018">
        <ele>1715</ele>
        <time>2015-08-20T10:59:31.000Z</time>
      </trkpt>
      <trkpt lat="44.95101" lon="6.02028">
        <ele>1714</ele>
        <time>2015-08-20T10:59:35.000Z</time>
      </trkpt>
      <trkpt lat="44.95101" lon="6.02033">
        <ele>1714.5999755859</ele>
        <time>2015-08-20T10:59:37.000Z</time>
      </trkpt>
      <trkpt lat="44.951" lon="6.02045">
        <ele>1719</ele>
        <time>2015-08-20T10:59:40.000Z</time>
      </trkpt>
      <trkpt lat="44.95095" lon="6.02051">
        <ele>1722.1999511719</ele>
        <time>2015-08-20T10:59:44.000Z</time>
      </trkpt>
      <trkpt lat="44.95097" lon="6.0204">
        <ele>1717</ele>
        <time>2015-08-20T10:59:48.000Z</time>
      </trkpt>
      <trkpt lat="44.95097" lon="6.02032">
        <ele>1713.4000244141</ele>
        <time>2015-08-20T10:59:50.000Z</time>
      </trkpt>
      <trkpt lat="44.95096" lon="6.02019">
        <ele>1711.4000244141</ele>
        <time>2015-08-20T10:59:54.000Z</time>
      </trkpt>
      <trkpt lat="44.95094" lon="6.02005">
        <ele>1709.1999511719</ele>
        <time>2015-08-20T10:59:59.000Z</time>
      </trkpt>
      <trkpt lat="44.95095" lon="6.02003">
        <ele>1709.5999755859</ele>
        <time>2015-08-20T11:00:00.000Z</time>
      </trkpt>
      <trkpt lat="44.951" lon="6.02003">
        <ele>1711.1999511719</ele>
        <time>2015-08-20T11:00:02.000Z</time>
      </trkpt>
      <trkpt lat="44.95106" lon="6.02002">
        <ele>1713.4000244141</ele>
        <time>2015-08-20T11:00:05.000Z</time>
      </trkpt>
      <trkpt lat="44.95111" lon="6.01996">
        <ele>1714.4000244141</ele>
        <time>2015-08-20T11:00:07.000Z</time>
      </trkpt>
      <trkpt lat="44.95118" lon="6.0199">
        <ele>1716.4000244141</ele>
        <time>2015-08-20T11:00:11.000Z</time>
      </trkpt>
      <trkpt lat="44.95118" lon="6.01987">
        <ele>1716.1999511719</ele>
        <time>2015-08-20T11:00:12.000Z</time>
      </trkpt>
      <trkpt lat="44.95119" lon="6.01981">
        <ele>1715.5999755859</ele>
        <time>2015-08-20T11:00:16.000Z</time>
      </trkpt>
      <trkpt lat="44.95113" lon="6.01975">
        <ele>1713</ele>
        <time>2015-08-20T11:00:20.000Z</time>
      </trkpt>
      <trkpt lat="44.95107" lon="6.01971">
        <ele>1710</ele>
        <time>2015-08-20T11:00:23.000Z</time>
      </trkpt>
      <trkpt lat="44.95098" lon="6.01961">
        <ele>1704.4000244141</ele>
        <time>2015-08-20T11:00:28.000Z</time>
      </trkpt>
      <trkpt lat="44.95098" lon="6.01958">
        <ele>1703.4000244141</ele>
        <time>2015-08-20T11:00:29.000Z</time>
      </trkpt>
      <trkpt lat="44.95096" lon="6.01942">
        <ele>1699.8000488281</ele>
        <time>2015-08-20T11:00:33.000Z</time>
      </trkpt>
      <trkpt lat="44.95097" lon="6.01925">
        <ele>1697.8000488281</ele>
        <time>2015-08-20T11:00:38.000Z</time>
      </trkpt>
      <trkpt lat="44.95097" lon="6.01907">
        <ele>1695.1999511719</ele>
        <time>2015-08-20T11:00:43.000Z</time>
      </trkpt>
      <trkpt lat="44.951" lon="6.01906">
        <ele>1696.4000244141</ele>
        <time>2015-08-20T11:00:44.000Z</time>
      </trkpt>
      <trkpt lat="44.95105" lon="6.01902">
        <ele>1697.8000488281</ele>
        <time>2015-08-20T11:00:46.000Z</time>
      </trkpt>
      <trkpt lat="44.95133" lon="6.01876">
        <ele>1709.5999755859</ele>
        <time>2015-08-20T11:01:02.000Z</time>
      </trkpt>
      <trkpt lat="44.95135" lon="6.01877">
        <ele>1710.8000488281</ele>
        <time>2015-08-20T11:01:06.000Z</time>
      </trkpt>
      <trkpt lat="44.95135" lon="6.01877">
        <ele>1710.5999755859</ele>
        <time>2015-08-20T11:01:07.000Z</time>
      </trkpt>
      <trkpt lat="44.95133" lon="6.01871">
        <ele>1709.1999511719</ele>
        <time>2015-08-20T11:01:10.000Z</time>
      </trkpt>
      <trkpt lat="44.9513" lon="6.01867">
        <ele>1707.1999511719</ele>
        <time>2015-08-20T11:01:12.000Z</time>
      </trkpt>
      <trkpt lat="44.95127" lon="6.01867">
        <ele>1705.4000244141</ele>
        <time>2015-08-20T11:01:14.000Z</time>
      </trkpt>
      <trkpt lat="44.95127" lon="6.01867">
        <ele>1705</ele>
        <time>2015-08-20T11:01:15.000Z</time>
      </trkpt>
      <trkpt lat="44.95126" lon="6.01866">
        <ele>1704.4000244141</ele>
        <time>2015-08-20T11:01:16.000Z</time>
      </trkpt>
      <trkpt lat="44.95123" lon="6.01861">
        <ele>1702.5999755859</ele>
        <time>2015-08-20T11:01:20.000Z</time>
      </trkpt>
      <trkpt lat="44.95117" lon="6.01854">
        <ele>1699</ele>
        <time>2015-08-20T11:01:24.000Z</time>
      </trkpt>
      <trkpt lat="44.95113" lon="6.0185">
        <ele>1697.1999511719</ele>
        <time>2015-08-20T11:01:26.000Z</time>
      </trkpt>
      <trkpt lat="44.95104" lon="6.01834">
        <ele>1692</ele>
        <time>2015-08-20T11:01:32.000Z</time>
      </trkpt>
      <trkpt lat="44.95101" lon="6.01833">
        <ele>1690.1999511719</ele>
        <time>2015-08-20T11:01:36.000Z</time>
      </trkpt>
      <trkpt lat="44.95104" lon="6.01845">
        <ele>1692.4000244141</ele>
        <time>2015-08-20T11:01:40.000Z</time>
      </trkpt>
      <trkpt lat="44.95105" lon="6.01848">
        <ele>1693</ele>
        <time>2015-08-20T11:01:41.000Z</time>
      </trkpt>
      <trkpt lat="44.95111" lon="6.01862">
        <ele>1696.8000488281</ele>
        <time>2015-08-20T11:01:46.000Z</time>
      </trkpt>
      <trkpt lat="44.95117" lon="6.01875">
        <ele>1700.5999755859</ele>
        <time>2015-08-20T11:01:51.000Z</time>
      </trkpt>
      <trkpt lat="44.95117" lon="6.01883">
        <ele>1701</ele>
        <time>2015-08-20T11:01:56.000Z</time>
      </trkpt>
      <trkpt lat="44.95114" lon="6.01886">
        <ele>1700</ele>
        <time>2015-08-20T11:01:59.000Z</time>
      </trkpt>
      <trkpt lat="44.9511" lon="6.01887">
        <ele>1698.4000244141</ele>
        <time>2015-08-20T11:02:01.000Z</time>
      </trkpt>
      <trkpt lat="44.95098" lon="6.01889">
        <ele>1693.1999511719</ele>
        <time>2015-08-20T11:02:07.000Z</time>
      </trkpt>
      <trkpt lat="44.95087" lon="6.0189">
        <ele>1688.1999511719</ele>
        <time>2015-08-20T11:02:12.000Z</time>
      </trkpt>
      <trkpt lat="44.95076" lon="6.01897">
        <ele>1684.1999511719</ele>
        <time>2015-08-20T11:02:17.000Z</time>
      </trkpt>
      <trkpt lat="44.95067" lon="6.01906">
        <ele>1681.5999755859</ele>
        <time>2015-08-20T11:02:21.000Z</time>
      </trkpt>
      <trkpt lat="44.95062" lon="6.01919">
        <ele>1682</ele>
        <time>2015-08-20T11:02:25.000Z</time>
      </trkpt>
      <trkpt lat="44.95057" lon="6.01934">
        <ele>1683.8000488281</ele>
        <time>2015-08-20T11:02:30.000Z</time>
      </trkpt>
      <trkpt lat="44.95057" lon="6.01941">
        <ele>1685.5999755859</ele>
        <time>2015-08-20T11:02:32.000Z</time>
      </trkpt>
      <trkpt lat="44.95058" lon="6.01947">
        <ele>1687.1999511719</ele>
        <time>2015-08-20T11:02:34.000Z</time>
      </trkpt>
      <trkpt lat="44.9506" lon="6.0196">
        <ele>1691</ele>
        <time>2015-08-20T11:02:38.000Z</time>
      </trkpt>
      <trkpt lat="44.95062" lon="6.01964">
        <ele>1692.5999755859</ele>
        <time>2015-08-20T11:02:41.000Z</time>
      </trkpt>
      <trkpt lat="44.95061" lon="6.01966">
        <ele>1692.8000488281</ele>
        <time>2015-08-20T11:02:42.000Z</time>
      </trkpt>
      <trkpt lat="44.95055" lon="6.01976">
        <ele>1692.8000488281</ele>
        <time>2015-08-20T11:02:46.000Z</time>
      </trkpt>
      <trkpt lat="44.95052" lon="6.01979">
        <ele>1692.4000244141</ele>
        <time>2015-08-20T11:02:48.000Z</time>
      </trkpt>
      <trkpt lat="44.95049" lon="6.01981">
        <ele>1691.5999755859</ele>
        <time>2015-08-20T11:02:50.000Z</time>
      </trkpt>
      <trkpt lat="44.95042" lon="6.01982">
        <ele>1690.8000488281</ele>
        <time>2015-08-20T11:02:54.000Z</time>
      </trkpt>
      <trkpt lat="44.9504" lon="6.01982">
        <ele>1691.4000244141</ele>
        <time>2015-08-20T11:02:55.000Z</time>
      </trkpt>
      <trkpt lat="44.95034" lon="6.01983">
        <ele>1694.4000244141</ele>
        <time>2015-08-20T11:02:58.000Z</time>
      </trkpt>
      <trkpt lat="44.9503" lon="6.01985">
        <ele>1696.5999755859</ele>
        <time>2015-08-20T11:03:00.000Z</time>
      </trkpt>
      <trkpt lat="44.95026" lon="6.01996">
        <ele>1703.4000244141</ele>
        <time>2015-08-20T11:03:04.000Z</time>
      </trkpt>
      <trkpt lat="44.95025" lon="6.02012">
        <ele>1711.8000488281</ele>
        <time>2015-08-20T11:03:09.000Z</time>
      </trkpt>
      <trkpt lat="44.95025" lon="6.02014">
        <ele>1712.5999755859</ele>
        <time>2015-08-20T11:03:10.000Z</time>
      </trkpt>
      <trkpt lat="44.95025" lon="6.02017">
        <ele>1714.1999511719</ele>
        <time>2015-08-20T11:03:11.000Z</time>
      </trkpt>
      <trkpt lat="44.95023" lon="6.02018">
        <ele>1715.4000244141</ele>
        <time>2015-08-20T11:03:13.000Z</time>
      </trkpt>
      <trkpt lat="44.95023" lon="6.02015">
        <ele>1713.5999755859</ele>
        <time>2015-08-20T11:03:15.000Z</time>
      </trkpt>
      <trkpt lat="44.9502" lon="6.02009">
        <ele>1712.5999755859</ele>
        <time>2015-08-20T11:03:19.000Z</time>
      </trkpt>
      <trkpt lat="44.9502" lon="6.01993">
        <ele>1704.8000488281</ele>
        <time>2015-08-20T11:03:24.000Z</time>
      </trkpt>
      <trkpt lat="44.95024" lon="6.01983">
        <ele>1698.4000244141</ele>
        <time>2015-08-20T11:03:28.000Z</time>
      </trkpt>
      <trkpt lat="44.95024" lon="6.01979">
        <ele>1696.1999511719</ele>
        <time>2015-08-20T11:03:29.000Z</time>
      </trkpt>
      <trkpt lat="44.9503" lon="6.01967">
        <ele>1687.1999511719</ele>
        <time>2015-08-20T11:03:33.000Z</time>
      </trkpt>
      <trkpt lat="44.95034" lon="6.01955">
        <ele>1683.5999755859</ele>
        <time>2015-08-20T11:03:37.000Z</time>
      </trkpt>
      <trkpt lat="44.95036" lon="6.0195">
        <ele>1682</ele>
        <time>2015-08-20T11:03:39.000Z</time>
      </trkpt>
      <trkpt lat="44.95037" lon="6.0194">
        <ele>1679.5999755859</ele>
        <time>2015-08-20T11:03:42.000Z</time>
      </trkpt>
      <trkpt lat="44.95033" lon="6.01929">
        <ele>1677.1999511719</ele>
        <time>2015-08-20T11:03:47.000Z</time>
      </trkpt>
      <trkpt lat="44.95024" lon="6.01922">
        <ele>1676.1999511719</ele>
        <time>2015-08-20T11:03:52.000Z</time>
      </trkpt>
      <trkpt lat="44.95022" lon="6.01913">
        <ele>1674</ele>
        <time>2015-08-20T11:03:55.000Z</time>
      </trkpt>
      <trkpt lat="44.95021" lon="6.019">
        <ele>1670.8000488281</ele>
        <time>2015-08-20T11:03:58.000Z</time>
      </trkpt>
      <trkpt lat="44.9502" lon="6.01888">
        <ele>1667.4000244141</ele>
        <time>2015-08-20T11:04:02.000Z</time>
      </trkpt>
      <trkpt lat="44.95021" lon="6.01885">
        <ele>1666</ele>
        <time>2015-08-20T11:04:03.000Z</time>
      </trkpt>
      <trkpt lat="44.9503" lon="6.01876">
        <ele>1663.5999755859</ele>
        <time>2015-08-20T11:04:08.000Z</time>
      </trkpt>
      <trkpt lat="44.95038" lon="6.01863">
        <ele>1664.4000244141</ele>
        <time>2015-08-20T11:04:13.000Z</time>
      </trkpt>
      <trkpt lat="44.95037" lon="6.01852">
        <ele>1663.1999511719</ele>
        <time>2015-08-20T11:04:24.000Z</time>
      </trkpt>
      <trkpt lat="44.95037" lon="6.01853">
        <ele>1663.1999511719</ele>
        <time>2015-08-20T11:04:26.000Z</time>
      </trkpt>
      <trkpt lat="44.95033" lon="6.01853">
        <ele>1662.1999511719</ele>
        <time>2015-08-20T11:04:31.000Z</time>
      </trkpt>
      <trkpt lat="44.95031" lon="6.01851">
        <ele>1661.4000244141</ele>
        <time>2015-08-20T11:04:39.000Z</time>
      </trkpt>
      <trkpt lat="44.95032" lon="6.01847">
        <ele>1661.1999511719</ele>
        <time>2015-08-20T11:04:42.000Z</time>
      </trkpt>
      <trkpt lat="44.95032" lon="6.01846">
        <ele>1661</ele>
        <time>2015-08-20T11:04:43.000Z</time>
      </trkpt>
      <trkpt lat="44.9503" lon="6.01839">
        <ele>1660</ele>
        <time>2015-08-20T11:04:46.000Z</time>
      </trkpt>
      <trkpt lat="44.95027" lon="6.0183">
        <ele>1658.1999511719</ele>
        <time>2015-08-20T11:04:51.000Z</time>
      </trkpt>
      <trkpt lat="44.95015" lon="6.01824">
        <ele>1654.4000244141</ele>
        <time>2015-08-20T11:04:57.000Z</time>
      </trkpt>
      <trkpt lat="44.95012" lon="6.01817">
        <ele>1652.8000488281</ele>
        <time>2015-08-20T11:05:01.000Z</time>
      </trkpt>
      <trkpt lat="44.95011" lon="6.01814">
        <ele>1652.1999511719</ele>
        <time>2015-08-20T11:05:04.000Z</time>
      </trkpt>
      <trkpt lat="44.9501" lon="6.01812">
        <ele>1651.8000488281</ele>
        <time>2015-08-20T11:05:06.000Z</time>
      </trkpt>
      <trkpt lat="44.95009" lon="6.01811">
        <ele>1651.4000244141</ele>
        <time>2015-08-20T11:05:08.000Z</time>
      </trkpt>
      <trkpt lat="44.95007" lon="6.01811">
        <ele>1650.8000488281</ele>
        <time>2015-08-20T11:05:10.000Z</time>
      </trkpt>
      <trkpt lat="44.95003" lon="6.01811">
        <ele>1649.5999755859</ele>
        <time>2015-08-20T11:05:14.000Z</time>
      </trkpt>
      <trkpt lat="44.94998" lon="6.01813">
        <ele>1648.5999755859</ele>
        <time>2015-08-20T11:05:16.000Z</time>
      </trkpt>
      <trkpt lat="44.94992" lon="6.01805">
        <ele>1646.1999511719</ele>
        <time>2015-08-20T11:05:20.000Z</time>
      </trkpt>
      <trkpt lat="44.94985" lon="6.01796">
        <ele>1643.5999755859</ele>
        <time>2015-08-20T11:05:24.000Z</time>
      </trkpt>
      <trkpt lat="44.94985" lon="6.01792">
        <ele>1643.1999511719</ele>
        <time>2015-08-20T11:05:25.000Z</time>
      </trkpt>
      <trkpt lat="44.94984" lon="6.0178">
        <ele>1642</ele>
        <time>2015-08-20T11:05:30.000Z</time>
      </trkpt>
      <trkpt lat="44.94984" lon="6.0178">
        <ele>1641.8000488281</ele>
        <time>2015-08-20T11:05:31.000Z</time>
      </trkpt>
      <trkpt lat="44.94983" lon="6.01776">
        <ele>1641.4000244141</ele>
        <time>2015-08-20T11:05:34.000Z</time>
      </trkpt>
      <trkpt lat="44.94982" lon="6.01776">
        <ele>1641</ele>
        <time>2015-08-20T11:05:35.000Z</time>
      </trkpt>
      <trkpt lat="44.94978" lon="6.01777">
        <ele>1640</ele>
        <time>2015-08-20T11:05:38.000Z</time>
      </trkpt>
      <trkpt lat="44.94968" lon="6.01773">
        <ele>1637</ele>
        <time>2015-08-20T11:05:43.000Z</time>
      </trkpt>
      <trkpt lat="44.94961" lon="6.01764">
        <ele>1634.1999511719</ele>
        <time>2015-08-20T11:05:48.000Z</time>
      </trkpt>
      <trkpt lat="44.94951" lon="6.01751">
        <ele>1630</ele>
        <time>2015-08-20T11:05:54.000Z</time>
      </trkpt>
      <trkpt lat="44.94942" lon="6.01733">
        <ele>1625.4000244141</ele>
        <time>2015-08-20T11:06:01.000Z</time>
      </trkpt>
      <trkpt lat="44.94941" lon="6.01731">
        <ele>1625</ele>
        <time>2015-08-20T11:06:02.000Z</time>
      </trkpt>
      <trkpt lat="44.94941" lon="6.01737">
        <ele>1625.4000244141</ele>
        <time>2015-08-20T11:06:05.000Z</time>
      </trkpt>
      <trkpt lat="44.94943" lon="6.01748">
        <ele>1627</ele>
        <time>2015-08-20T11:06:09.000Z</time>
      </trkpt>
      <trkpt lat="44.94943" lon="6.01756">
        <ele>1627.5999755859</ele>
        <time>2015-08-20T11:06:16.000Z</time>
      </trkpt>
      <trkpt lat="44.94943" lon="6.01765">
        <ele>1628.5999755859</ele>
        <time>2015-08-20T11:06:22.000Z</time>
      </trkpt>
      <trkpt lat="44.94944" lon="6.01771">
        <ele>1629.1999511719</ele>
        <time>2015-08-20T11:06:27.000Z</time>
      </trkpt>
      <trkpt lat="44.94945" lon="6.01773">
        <ele>1629.8000488281</ele>
        <time>2015-08-20T11:06:29.000Z</time>
      </trkpt>
      <trkpt lat="44.94947" lon="6.01776">
        <ele>1630.8000488281</ele>
        <time>2015-08-20T11:06:31.000Z</time>
      </trkpt>
      <trkpt lat="44.94954" lon="6.01787">
        <ele>1634</ele>
        <time>2015-08-20T11:06:36.000Z</time>
      </trkpt>
      <trkpt lat="44.94955" lon="6.01797">
        <ele>1635.1999511719</ele>
        <time>2015-08-20T11:06:41.000Z</time>
      </trkpt>
      <trkpt lat="44.94949" lon="6.01796">
        <ele>1633</ele>
        <time>2015-08-20T11:06:45.000Z</time>
      </trkpt>
      <trkpt lat="44.94948" lon="6.01796">
        <ele>1632.5999755859</ele>
        <time>2015-08-20T11:06:46.000Z</time>
      </trkpt>
      <trkpt lat="44.94946" lon="6.01796">
        <ele>1632.1999511719</ele>
        <time>2015-08-20T11:06:47.000Z</time>
      </trkpt>
      <trkpt lat="44.94943" lon="6.01798">
        <ele>1632.1999511719</ele>
        <time>2015-08-20T11:06:50.000Z</time>
      </trkpt>
      <trkpt lat="44.94937" lon="6.01799">
        <ele>1632.5999755859</ele>
        <time>2015-08-20T11:06:55.000Z</time>
      </trkpt>
      <trkpt lat="44.9493" lon="6.01798">
        <ele>1631.5999755859</ele>
        <time>2015-08-20T11:07:00.000Z</time>
      </trkpt>
      <trkpt lat="44.94928" lon="6.01797">
        <ele>1631.1999511719</ele>
        <time>2015-08-20T11:07:01.000Z</time>
      </trkpt>
      <trkpt lat="44.94924" lon="6.01792">
        <ele>1629.1999511719</ele>
        <time>2015-08-20T11:07:05.000Z</time>
      </trkpt>
      <trkpt lat="44.94922" lon="6.01792">
        <ele>1629.1999511719</ele>
        <time>2015-08-20T11:07:06.000Z</time>
      </trkpt>
      <trkpt lat="44.94924" lon="6.018">
        <ele>1632.1999511719</ele>
        <time>2015-08-20T11:07:09.000Z</time>
      </trkpt>
      <trkpt lat="44.94925" lon="6.01803">
        <ele>1633.4000244141</ele>
        <time>2015-08-20T11:07:10.000Z</time>
      </trkpt>
      <trkpt lat="44.94927" lon="6.01812">
        <ele>1637.1999511719</ele>
        <time>2015-08-20T11:07:14.000Z</time>
      </trkpt>
      <trkpt lat="44.94921" lon="6.01807">
        <ele>1634.8000488281</ele>
        <time>2015-08-20T11:07:18.000Z</time>
      </trkpt>
      <trkpt lat="44.94915" lon="6.01802">
        <ele>1632.4000244141</ele>
        <time>2015-08-20T11:07:22.000Z</time>
      </trkpt>
      <trkpt lat="44.94913" lon="6.01801">
        <ele>1631.8000488281</ele>
        <time>2015-08-20T11:07:23.000Z</time>
      </trkpt>
      <trkpt lat="44.94904" lon="6.01791">
        <ele>1627.8000488281</ele>
        <time>2015-08-20T11:07:29.000Z</time>
      </trkpt>
      <trkpt lat="44.94897" lon="6.01776">
        <ele>1622</ele>
        <time>2015-08-20T11:07:35.000Z</time>
      </trkpt>
      <trkpt lat="44.94889" lon="6.01762">
        <ele>1616.4000244141</ele>
        <time>2015-08-20T11:07:41.000Z</time>
      </trkpt>
      <trkpt lat="44.9488" lon="6.01752">
        <ele>1612.4000244141</ele>
        <time>2015-08-20T11:07:47.000Z</time>
      </trkpt>
      <trkpt lat="44.94873" lon="6.01745">
        <ele>1609.4000244141</ele>
        <time>2015-08-20T11:07:52.000Z</time>
      </trkpt>
      <trkpt lat="44.94867" lon="6.01739">
        <ele>1606.1999511719</ele>
        <time>2015-08-20T11:07:57.000Z</time>
      </trkpt>
      <trkpt lat="44.94865" lon="6.01735">
        <ele>1604.8000488281</ele>
        <time>2015-08-20T11:08:00.000Z</time>
      </trkpt>
      <trkpt lat="44.94863" lon="6.01732">
        <ele>1603.5999755859</ele>
        <time>2015-08-20T11:08:02.000Z</time>
      </trkpt>
      <trkpt lat="44.94855" lon="6.01721">
        <ele>1599.1999511719</ele>
        <time>2015-08-20T11:08:08.000Z</time>
      </trkpt>
      <trkpt lat="44.9485" lon="6.01717">
        <ele>1597.1999511719</ele>
        <time>2015-08-20T11:08:12.000Z</time>
      </trkpt>
      <trkpt lat="44.94848" lon="6.01713">
        <ele>1596.1999511719</ele>
        <time>2015-08-20T11:08:14.000Z</time>
      </trkpt>
      <trkpt lat="44.94844" lon="6.01712">
        <ele>1595.4000244141</ele>
        <time>2015-08-20T11:08:18.000Z</time>
      </trkpt>
      <trkpt lat="44.94844" lon="6.01711">
        <ele>1595.1999511719</ele>
        <time>2015-08-20T11:08:19.000Z</time>
      </trkpt>
      <trkpt lat="44.9484" lon="6.01707">
        <ele>1593.5999755859</ele>
        <time>2015-08-20T11:08:23.000Z</time>
      </trkpt>
      <trkpt lat="44.94835" lon="6.01694">
        <ele>1589.5999755859</ele>
        <time>2015-08-20T11:08:29.000Z</time>
      </trkpt>
      <trkpt lat="44.94832" lon="6.01688">
        <ele>1587.5999755859</ele>
        <time>2015-08-20T11:08:32.000Z</time>
      </trkpt>
      <trkpt lat="44.94828" lon="6.01681">
        <ele>1585.1999511719</ele>
        <time>2015-08-20T11:08:36.000Z</time>
      </trkpt>
      <trkpt lat="44.94827" lon="6.01679">
        <ele>1584.5999755859</ele>
        <time>2015-08-20T11:08:37.000Z</time>
      </trkpt>
      <trkpt lat="44.9482" lon="6.01675">
        <ele>1583</ele>
        <time>2015-08-20T11:08:41.000Z</time>
      </trkpt>
      <trkpt lat="44.94815" lon="6.01672">
        <ele>1581.5999755859</ele>
        <time>2015-08-20T11:08:44.000Z</time>
      </trkpt>
      <trkpt lat="44.94812" lon="6.01672">
        <ele>1581.4000244141</ele>
        <time>2015-08-20T11:08:46.000Z</time>
      </trkpt>
      <trkpt lat="44.94807" lon="6.01671">
        <ele>1580.5999755859</ele>
        <time>2015-08-20T11:08:50.000Z</time>
      </trkpt>
      <trkpt lat="44.94807" lon="6.01671">
        <ele>1580.5999755859</ele>
        <time>2015-08-20T11:08:51.000Z</time>
      </trkpt>
      <trkpt lat="44.94806" lon="6.0167">
        <ele>1580.1999511719</ele>
        <time>2015-08-20T11:08:52.000Z</time>
      </trkpt>
      <trkpt lat="44.94803" lon="6.01668">
        <ele>1579.4000244141</ele>
        <time>2015-08-20T11:08:55.000Z</time>
      </trkpt>
      <trkpt lat="44.94797" lon="6.01663">
        <ele>1577.4000244141</ele>
        <time>2015-08-20T11:09:00.000Z</time>
      </trkpt>
      <trkpt lat="44.94792" lon="6.01657">
        <ele>1575.1999511719</ele>
        <time>2015-08-20T11:09:05.000Z</time>
      </trkpt>
      <trkpt lat="44.94788" lon="6.01655">
        <ele>1574.1999511719</ele>
        <time>2015-08-20T11:09:08.000Z</time>
      </trkpt>
      <trkpt lat="44.94783" lon="6.01655">
        <ele>1573.5999755859</ele>
        <time>2015-08-20T11:09:10.000Z</time>
      </trkpt>
      <trkpt lat="44.94772" lon="6.01648">
        <ele>1570.5999755859</ele>
        <time>2015-08-20T11:09:15.000Z</time>
      </trkpt>
      <trkpt lat="44.94762" lon="6.01639">
        <ele>1566.5999755859</ele>
        <time>2015-08-20T11:09:20.000Z</time>
      </trkpt>
      <trkpt lat="44.94756" lon="6.01629">
        <ele>1562.1999511719</ele>
        <time>2015-08-20T11:09:25.000Z</time>
      </trkpt>
      <trkpt lat="44.94748" lon="6.01618">
        <ele>1557</ele>
        <time>2015-08-20T11:09:31.000Z</time>
      </trkpt>
      <trkpt lat="44.94742" lon="6.01609">
        <ele>1553.4000244141</ele>
        <time>2015-08-20T11:09:36.000Z</time>
      </trkpt>
      <trkpt lat="44.94737" lon="6.01592">
        <ele>1546.5999755859</ele>
        <time>2015-08-20T11:09:42.000Z</time>
      </trkpt>
      <trkpt lat="44.94739" lon="6.01587">
        <ele>1545.5999755859</ele>
        <time>2015-08-20T11:09:46.000Z</time>
      </trkpt>
      <trkpt lat="44.94739" lon="6.0159">
        <ele>1546</ele>
        <time>2015-08-20T11:09:54.000Z</time>
      </trkpt>
      <trkpt lat="44.94738" lon="6.01581">
        <ele>1545</ele>
        <time>2015-08-20T11:10:20.000Z</time>
      </trkpt>
      <trkpt lat="44.94734" lon="6.01562">
        <ele>1541.8000488281</ele>
        <time>2015-08-20T11:10:26.000Z</time>
      </trkpt>
      <trkpt lat="44.94727" lon="6.0155">
        <ele>1538.4000244141</ele>
        <time>2015-08-20T11:10:31.000Z</time>
      </trkpt>
      <trkpt lat="44.94716" lon="6.01543">
        <ele>1534</ele>
        <time>2015-08-20T11:10:37.000Z</time>
      </trkpt>
      <trkpt lat="44.94713" lon="6.01536">
        <ele>1532.4000244141</ele>
        <time>2015-08-20T11:10:41.000Z</time>
      </trkpt>
      <trkpt lat="44.94709" lon="6.0153">
        <ele>1530.4000244141</ele>
        <time>2015-08-20T11:10:45.000Z</time>
      </trkpt>
      <trkpt lat="44.94708" lon="6.01529">
        <ele>1530</ele>
        <time>2015-08-20T11:10:46.000Z</time>
      </trkpt>
      <trkpt lat="44.94706" lon="6.01525">
        <ele>1529.1999511719</ele>
        <time>2015-08-20T11:10:49.000Z</time>
      </trkpt>
      <trkpt lat="44.94699" lon="6.01512">
        <ele>1525.8000488281</ele>
        <time>2015-08-20T11:10:55.000Z</time>
      </trkpt>
      <trkpt lat="44.94693" lon="6.01496">
        <ele>1522.8000488281</ele>
        <time>2015-08-20T11:11:00.000Z</time>
      </trkpt>
      <trkpt lat="44.94687" lon="6.01479">
        <ele>1519.5999755859</ele>
        <time>2015-08-20T11:11:05.000Z</time>
      </trkpt>
      <trkpt lat="44.94677" lon="6.0147">
        <ele>1515.4000244141</ele>
        <time>2015-08-20T11:11:10.000Z</time>
      </trkpt>
      <trkpt lat="44.94668" lon="6.01458">
        <ele>1511.8000488281</ele>
        <time>2015-08-20T11:11:15.000Z</time>
      </trkpt>
      <trkpt lat="44.94657" lon="6.0144">
        <ele>1507.5999755859</ele>
        <time>2015-08-20T11:11:22.000Z</time>
      </trkpt>
      <trkpt lat="44.9465" lon="6.0143">
        <ele>1505.1999511719</ele>
        <time>2015-08-20T11:11:27.000Z</time>
      </trkpt>
      <trkpt lat="44.94645" lon="6.01423">
        <ele>1502.8000488281</ele>
        <time>2015-08-20T11:11:32.000Z</time>
      </trkpt>
      <trkpt lat="44.94642" lon="6.01421">
        <ele>1501.8000488281</ele>
        <time>2015-08-20T11:11:38.000Z</time>
      </trkpt>
      <trkpt lat="44.94643" lon="6.0142">
        <ele>1502</ele>
        <time>2015-08-20T11:12:35.000Z</time>
      </trkpt>
      <trkpt lat="44.94644" lon="6.01421">
        <ele>1502.4000244141</ele>
        <time>2015-08-20T11:12:41.000Z</time>
      </trkpt>
      <trkpt lat="44.94638" lon="6.01419">
        <ele>1500.1999511719</ele>
        <time>2015-08-20T11:12:55.000Z</time>
      </trkpt>
      <trkpt lat="44.94634" lon="6.01418">
        <ele>1498.8000488281</ele>
        <time>2015-08-20T11:12:57.000Z</time>
      </trkpt>
      <trkpt lat="44.94632" lon="6.01415">
        <ele>1497.8000488281</ele>
        <time>2015-08-20T11:12:59.000Z</time>
      </trkpt>
      <trkpt lat="44.9463" lon="6.01415">
        <ele>1497</ele>
        <time>2015-08-20T11:13:00.000Z</time>
      </trkpt>
      <trkpt lat="44.94623" lon="6.0141">
        <ele>1494.1999511719</ele>
        <time>2015-08-20T11:13:04.000Z</time>
      </trkpt>
      <trkpt lat="44.94618" lon="6.01402">
        <ele>1493</ele>
        <time>2015-08-20T11:13:08.000Z</time>
      </trkpt>
      <trkpt lat="44.94614" lon="6.01401">
        <ele>1492.1999511719</ele>
        <time>2015-08-20T11:13:10.000Z</time>
      </trkpt>
      <trkpt lat="44.94611" lon="6.01397">
        <ele>1491.4000244141</ele>
        <time>2015-08-20T11:13:12.000Z</time>
      </trkpt>
      <trkpt lat="44.94608" lon="6.01387">
        <ele>1490.4000244141</ele>
        <time>2015-08-20T11:13:17.000Z</time>
      </trkpt>
      <trkpt lat="44.94604" lon="6.01384">
        <ele>1488.8000488281</ele>
        <time>2015-08-20T11:13:22.000Z</time>
      </trkpt>
      <trkpt lat="44.94602" lon="6.01383">
        <ele>1488.1999511719</ele>
        <time>2015-08-20T11:13:23.000Z</time>
      </trkpt>
      <trkpt lat="44.94596" lon="6.01368">
        <ele>1485</ele>
        <time>2015-08-20T11:13:29.000Z</time>
      </trkpt>
      <trkpt lat="44.94593" lon="6.01351">
        <ele>1484.4000244141</ele>
        <time>2015-08-20T11:13:33.000Z</time>
      </trkpt>
      <trkpt lat="44.94587" lon="6.01335">
        <ele>1483</ele>
        <time>2015-08-20T11:13:38.000Z</time>
      </trkpt>
      <trkpt lat="44.94586" lon="6.01332">
        <ele>1482.8000488281</ele>
        <time>2015-08-20T11:13:39.000Z</time>
      </trkpt>
      <trkpt lat="44.94584" lon="6.01315">
        <ele>1483</ele>
        <time>2015-08-20T11:13:44.000Z</time>
      </trkpt>
      <trkpt lat="44.94584" lon="6.01298">
        <ele>1481.5999755859</ele>
        <time>2015-08-20T11:13:49.000Z</time>
      </trkpt>
      <trkpt lat="44.94584" lon="6.01281">
        <ele>1478.1999511719</ele>
        <time>2015-08-20T11:13:54.000Z</time>
      </trkpt>
      <trkpt lat="44.94584" lon="6.01263">
        <ele>1475</ele>
        <time>2015-08-20T11:14:00.000Z</time>
      </trkpt>
      <trkpt lat="44.94585" lon="6.01251">
        <ele>1475</ele>
        <time>2015-08-20T11:14:05.000Z</time>
      </trkpt>
      <trkpt lat="44.94585" lon="6.0123">
        <ele>1473.8000488281</ele>
        <time>2015-08-20T11:14:11.000Z</time>
      </trkpt>
      <trkpt lat="44.94585" lon="6.0121">
        <ele>1471.5999755859</ele>
        <time>2015-08-20T11:14:17.000Z</time>
      </trkpt>
      <trkpt lat="44.94588" lon="6.01187">
        <ele>1469.8000488281</ele>
        <time>2015-08-20T11:14:24.000Z</time>
      </trkpt>
      <trkpt lat="44.9459" lon="6.01169">
        <ele>1467.1999511719</ele>
        <time>2015-08-20T11:14:30.000Z</time>
      </trkpt>
      <trkpt lat="44.94591" lon="6.01151">
        <ele>1464.1999511719</ele>
        <time>2015-08-20T11:14:36.000Z</time>
      </trkpt>
      <trkpt lat="44.94593" lon="6.01139">
        <ele>1462.5999755859</ele>
        <time>2015-08-20T11:14:41.000Z</time>
      </trkpt>
      <trkpt lat="44.94594" lon="6.01126">
        <ele>1459.8000488281</ele>
        <time>2015-08-20T11:14:46.000Z</time>
      </trkpt>
      <trkpt lat="44.94596" lon="6.01105">
        <ele>1456.1999511719</ele>
        <time>2015-08-20T11:14:52.000Z</time>
      </trkpt>
      <trkpt lat="44.94601" lon="6.01089">
        <ele>1456.1999511719</ele>
        <time>2015-08-20T11:14:57.000Z</time>
      </trkpt>
      <trkpt lat="44.94606" lon="6.01077">
        <ele>1457.4000244141</ele>
        <time>2015-08-20T11:15:02.000Z</time>
      </trkpt>
      <trkpt lat="44.94611" lon="6.01061">
        <ele>1457.5999755859</ele>
        <time>2015-08-20T11:15:07.000Z</time>
      </trkpt>
      <trkpt lat="44.9462" lon="6.01041">
        <ele>1458.4000244141</ele>
        <time>2015-08-20T11:15:13.000Z</time>
      </trkpt>
      <trkpt lat="44.94625" lon="6.01023">
        <ele>1458.1999511719</ele>
        <time>2015-08-20T11:15:19.000Z</time>
      </trkpt>
      <trkpt lat="44.94623" lon="6.01004">
        <ele>1453.1999511719</ele>
        <time>2015-08-20T11:15:25.000Z</time>
      </trkpt>
      <trkpt lat="44.94623" lon="6.01001">
        <ele>1452.8000488281</ele>
        <time>2015-08-20T11:15:26.000Z</time>
      </trkpt>
      <trkpt lat="44.94625" lon="6.00992">
        <ele>1451.5999755859</ele>
        <time>2015-08-20T11:15:29.000Z</time>
      </trkpt>
      <trkpt lat="44.94625" lon="6.00989">
        <ele>1451.1999511719</ele>
        <time>2015-08-20T11:15:30.000Z</time>
      </trkpt>
      <trkpt lat="44.94626" lon="6.00977">
        <ele>1449.8000488281</ele>
        <time>2015-08-20T11:15:34.000Z</time>
      </trkpt>
      <trkpt lat="44.94626" lon="6.00975">
        <ele>1449.4000244141</ele>
        <time>2015-08-20T11:15:35.000Z</time>
      </trkpt>
      <trkpt lat="44.94626" lon="6.0096">
        <ele>1447.4000244141</ele>
        <time>2015-08-20T11:15:40.000Z</time>
      </trkpt>
      <trkpt lat="44.9463" lon="6.00943">
        <ele>1447.5999755859</ele>
        <time>2015-08-20T11:15:45.000Z</time>
      </trkpt>
      <trkpt lat="44.94631" lon="6.00921">
        <ele>1445.4000244141</ele>
        <time>2015-08-20T11:15:51.000Z</time>
      </trkpt>
      <trkpt lat="44.94633" lon="6.00908">
        <ele>1445</ele>
        <time>2015-08-20T11:15:55.000Z</time>
      </trkpt>
      <trkpt lat="44.94634" lon="6.00905">
        <ele>1445.4000244141</ele>
        <time>2015-08-20T11:15:56.000Z</time>
      </trkpt>
      <trkpt lat="44.94635" lon="6.00891">
        <ele>1444.1999511719</ele>
        <time>2015-08-20T11:16:01.000Z</time>
      </trkpt>
      <trkpt lat="44.94638" lon="6.00878">
        <ele>1445</ele>
        <time>2015-08-20T11:16:05.000Z</time>
      </trkpt>
      <trkpt lat="44.94638" lon="6.0086">
        <ele>1443.4000244141</ele>
        <time>2015-08-20T11:16:10.000Z</time>
      </trkpt>
      <trkpt lat="44.94638" lon="6.00841">
        <ele>1441.4000244141</ele>
        <time>2015-08-20T11:16:15.000Z</time>
      </trkpt>
      <trkpt lat="44.94639" lon="6.00821">
        <ele>1440.4000244141</ele>
        <time>2015-08-20T11:16:21.000Z</time>
      </trkpt>
      <trkpt lat="44.94638" lon="6.00808">
        <ele>1437.1999511719</ele>
        <time>2015-08-20T11:16:26.000Z</time>
      </trkpt>
      <trkpt lat="44.94637" lon="6.00793">
        <ele>1433.8000488281</ele>
        <time>2015-08-20T11:16:31.000Z</time>
      </trkpt>
      <trkpt lat="44.94639" lon="6.00777">
        <ele>1431.8000488281</ele>
        <time>2015-08-20T11:16:36.000Z</time>
      </trkpt>
      <trkpt lat="44.9464" lon="6.00759">
        <ele>1428.4000244141</ele>
        <time>2015-08-20T11:16:41.000Z</time>
      </trkpt>
      <trkpt lat="44.94642" lon="6.00748">
        <ele>1427.5999755859</ele>
        <time>2015-08-20T11:16:45.000Z</time>
      </trkpt>
      <trkpt lat="44.94643" lon="6.00746">
        <ele>1427.8000488281</ele>
        <time>2015-08-20T11:16:46.000Z</time>
      </trkpt>
      <trkpt lat="44.94652" lon="6.00731">
        <ele>1431.1999511719</ele>
        <time>2015-08-20T11:16:52.000Z</time>
      </trkpt>
      <trkpt lat="44.94657" lon="6.00721">
        <ele>1432.5999755859</ele>
        <time>2015-08-20T11:16:56.000Z</time>
      </trkpt>
      <trkpt lat="44.94652" lon="6.00713">
        <ele>1427.8000488281</ele>
        <time>2015-08-20T11:17:00.000Z</time>
      </trkpt>
      <trkpt lat="44.94651" lon="6.0071">
        <ele>1426.5999755859</ele>
        <time>2015-08-20T11:17:01.000Z</time>
      </trkpt>
      <trkpt lat="44.94643" lon="6.00697">
        <ele>1418.5999755859</ele>
        <time>2015-08-20T11:17:07.000Z</time>
      </trkpt>
      <trkpt lat="44.94637" lon="6.0068">
        <ele>1411.4000244141</ele>
        <time>2015-08-20T11:17:13.000Z</time>
      </trkpt>
      <trkpt lat="44.94632" lon="6.0067">
        <ele>1406.1999511719</ele>
        <time>2015-08-20T11:17:17.000Z</time>
      </trkpt>
      <trkpt lat="44.9463" lon="6.00654">
        <ele>1401.1999511719</ele>
        <time>2015-08-20T11:17:22.000Z</time>
      </trkpt>
      <trkpt lat="44.94631" lon="6.00646">
        <ele>1401</ele>
        <time>2015-08-20T11:17:25.000Z</time>
      </trkpt>
      <trkpt lat="44.94634" lon="6.00643">
        <ele>1402.8000488281</ele>
        <time>2015-08-20T11:17:27.000Z</time>
      </trkpt>
      <trkpt lat="44.94635" lon="6.00641">
        <ele>1403.1999511719</ele>
        <time>2015-08-20T11:17:28.000Z</time>
      </trkpt>
      <trkpt lat="44.94637" lon="6.00634">
        <ele>1403.1999511719</ele>
        <time>2015-08-20T11:17:32.000Z</time>
      </trkpt>
      <trkpt lat="44.94637" lon="6.00631">
        <ele>1402.5999755859</ele>
        <time>2015-08-20T11:17:33.000Z</time>
      </trkpt>
      <trkpt lat="44.94637" lon="6.00629">
        <ele>1401.5999755859</ele>
        <time>2015-08-20T11:17:34.000Z</time>
      </trkpt>
      <trkpt lat="44.94636" lon="6.00623">
        <ele>1400</ele>
        <time>2015-08-20T11:17:36.000Z</time>
      </trkpt>
      <trkpt lat="44.94637" lon="6.0062">
        <ele>1399.8000488281</ele>
        <time>2015-08-20T11:17:38.000Z</time>
      </trkpt>
      <trkpt lat="44.94637" lon="6.00606">
        <ele>1397</ele>
        <time>2015-08-20T11:17:43.000Z</time>
      </trkpt>
      <trkpt lat="44.94637" lon="6.00592">
        <ele>1393.5999755859</ele>
        <time>2015-08-20T11:17:47.000Z</time>
      </trkpt>
      <trkpt lat="44.94636" lon="6.00588">
        <ele>1391.5999755859</ele>
        <time>2015-08-20T11:17:48.000Z</time>
      </trkpt>
      <trkpt lat="44.94627" lon="6.0057">
        <ele>1381.1999511719</ele>
        <time>2015-08-20T11:17:53.000Z</time>
      </trkpt>
      <trkpt lat="44.94624" lon="6.00556">
        <ele>1376.1999511719</ele>
        <time>2015-08-20T11:17:57.000Z</time>
      </trkpt>
      <trkpt lat="44.94623" lon="6.00537">
        <ele>1376.4000244141</ele>
        <time>2015-08-20T11:18:02.000Z</time>
      </trkpt>
      <trkpt lat="44.94623" lon="6.00512">
        <ele>1377.4000244141</ele>
        <time>2015-08-20T11:18:09.000Z</time>
      </trkpt>
      <trkpt lat="44.9462" lon="6.00494">
        <ele>1375.5999755859</ele>
        <time>2015-08-20T11:18:14.000Z</time>
      </trkpt>
      <trkpt lat="44.94615" lon="6.00477">
        <ele>1371.5999755859</ele>
        <time>2015-08-20T11:18:19.000Z</time>
      </trkpt>
      <trkpt lat="44.94614" lon="6.00457">
        <ele>1372.5999755859</ele>
        <time>2015-08-20T11:18:25.000Z</time>
      </trkpt>
      <trkpt lat="44.94612" lon="6.00451">
        <ele>1371.8000488281</ele>
        <time>2015-08-20T11:18:27.000Z</time>
      </trkpt>
      <trkpt lat="44.9461" lon="6.00443">
        <ele>1370.4000244141</ele>
        <time>2015-08-20T11:18:30.000Z</time>
      </trkpt>
      <trkpt lat="44.94608" lon="6.00439">
        <ele>1368.8000488281</ele>
        <time>2015-08-20T11:18:32.000Z</time>
      </trkpt>
      <trkpt lat="44.94605" lon="6.00433">
        <ele>1367.5999755859</ele>
        <time>2015-08-20T11:18:35.000Z</time>
      </trkpt>
      <trkpt lat="44.94605" lon="6.00422">
        <ele>1368.1999511719</ele>
        <time>2015-08-20T11:18:41.000Z</time>
      </trkpt>
      <trkpt lat="44.94604" lon="6.0042">
        <ele>1367.5999755859</ele>
        <time>2015-08-20T11:18:42.000Z</time>
      </trkpt>
      <trkpt lat="44.94603" lon="6.00412">
        <ele>1367.4000244141</ele>
        <time>2015-08-20T11:18:46.000Z</time>
      </trkpt>
      <trkpt lat="44.94602" lon="6.00409">
        <ele>1366.4000244141</ele>
        <time>2015-08-20T11:18:48.000Z</time>
      </trkpt>
      <trkpt lat="44.94601" lon="6.00405">
        <ele>1365.8000488281</ele>
        <time>2015-08-20T11:18:51.000Z</time>
      </trkpt>
      <trkpt lat="44.94599" lon="6.00401">
        <ele>1364.8000488281</ele>
        <time>2015-08-20T11:18:53.000Z</time>
      </trkpt>
      <trkpt lat="44.94597" lon="6.00388">
        <ele>1363.8000488281</ele>
        <time>2015-08-20T11:18:59.000Z</time>
      </trkpt>
      <trkpt lat="44.94596" lon="6.00379">
        <ele>1364</ele>
        <time>2015-08-20T11:19:03.000Z</time>
      </trkpt>
      <trkpt lat="44.94596" lon="6.00377">
        <ele>1363.5999755859</ele>
        <time>2015-08-20T11:19:04.000Z</time>
      </trkpt>
      <trkpt lat="44.94593" lon="6.00369">
        <ele>1362.1999511719</ele>
        <time>2015-08-20T11:19:10.000Z</time>
      </trkpt>
      <trkpt lat="44.9459" lon="6.00361">
        <ele>1360</ele>
        <time>2015-08-20T11:19:14.000Z</time>
      </trkpt>
      <trkpt lat="44.9459" lon="6.00344">
        <ele>1359</ele>
        <time>2015-08-20T11:19:20.000Z</time>
      </trkpt>
      <trkpt lat="44.9459" lon="6.0033">
        <ele>1358.5999755859</ele>
        <time>2015-08-20T11:19:25.000Z</time>
      </trkpt>
      <trkpt lat="44.94589" lon="6.00314">
        <ele>1357.1999511719</ele>
        <time>2015-08-20T11:19:31.000Z</time>
      </trkpt>
      <trkpt lat="44.94589" lon="6.00302">
        <ele>1355.1999511719</ele>
        <time>2015-08-20T11:19:36.000Z</time>
      </trkpt>
      <trkpt lat="44.94589" lon="6.003">
        <ele>1355.1999511719</ele>
        <time>2015-08-20T11:19:37.000Z</time>
      </trkpt>
      <trkpt lat="44.9459" lon="6.00291">
        <ele>1354</ele>
        <time>2015-08-20T11:19:41.000Z</time>
      </trkpt>
      <trkpt lat="44.94589" lon="6.00283">
        <ele>1351.8000488281</ele>
        <time>2015-08-20T11:19:46.000Z</time>
      </trkpt>
      <trkpt lat="44.94589" lon="6.00282">
        <ele>1351.4000244141</ele>
        <time>2015-08-20T11:19:47.000Z</time>
      </trkpt>
      <trkpt lat="44.94588" lon="6.00278">
        <ele>1349.8000488281</ele>
        <time>2015-08-20T11:19:52.000Z</time>
      </trkpt>
      <trkpt lat="44.94588" lon="6.00275">
        <ele>1348.5999755859</ele>
        <time>2015-08-20T11:19:54.000Z</time>
      </trkpt>
      <trkpt lat="44.94587" lon="6.00272">
        <ele>1347.5999755859</ele>
        <time>2015-08-20T11:19:57.000Z</time>
      </trkpt>
      <trkpt lat="44.94586" lon="6.00272">
        <ele>1346.5999755859</ele>
        <time>2015-08-20T11:19:58.000Z</time>
      </trkpt>
      <trkpt lat="44.94582" lon="6.00267">
        <ele>1342.5999755859</ele>
        <time>2015-08-20T11:20:03.000Z</time>
      </trkpt>
      <trkpt lat="44.94579" lon="6.00259">
        <ele>1339.1999511719</ele>
        <time>2015-08-20T11:20:10.000Z</time>
      </trkpt>
      <trkpt lat="44.94576" lon="6.00251">
        <ele>1336.1999511719</ele>
        <time>2015-08-20T11:20:16.000Z</time>
      </trkpt>
      <trkpt lat="44.94575" lon="6.00247">
        <ele>1335</ele>
        <time>2015-08-20T11:20:19.000Z</time>
      </trkpt>
      <trkpt lat="44.94574" lon="6.00245">
        <ele>1333.8000488281</ele>
        <time>2015-08-20T11:20:21.000Z</time>
      </trkpt>
      <trkpt lat="44.94572" lon="6.00236">
        <ele>1331.4000244141</ele>
        <time>2015-08-20T11:20:26.000Z</time>
      </trkpt>
      <trkpt lat="44.94571" lon="6.0023">
        <ele>1330</ele>
        <time>2015-08-20T11:20:29.000Z</time>
      </trkpt>
      <trkpt lat="44.94569" lon="6.00227">
        <ele>1328.1999511719</ele>
        <time>2015-08-20T11:20:31.000Z</time>
      </trkpt>
      <trkpt lat="44.94568" lon="6.00211">
        <ele>1325.8000488281</ele>
        <time>2015-08-20T11:20:36.000Z</time>
      </trkpt>
      <trkpt lat="44.94568" lon="6.00186">
        <ele>1324.5999755859</ele>
        <time>2015-08-20T11:20:44.000Z</time>
      </trkpt>
      <trkpt lat="44.94568" lon="6.00171">
        <ele>1322.8000488281</ele>
        <time>2015-08-20T11:20:50.000Z</time>
      </trkpt>
      <trkpt lat="44.94568" lon="6.00158">
        <ele>1321.5999755859</ele>
        <time>2015-08-20T11:20:54.000Z</time>
      </trkpt>
      <trkpt lat="44.9457" lon="6.00151">
        <ele>1322.8000488281</ele>
        <time>2015-08-20T11:20:57.000Z</time>
      </trkpt>
      <trkpt lat="44.94572" lon="6.00145">
        <ele>1324</ele>
        <time>2015-08-20T11:20:59.000Z</time>
      </trkpt>
      <trkpt lat="44.94571" lon="6.00138">
        <ele>1324</ele>
        <time>2015-08-20T11:21:02.000Z</time>
      </trkpt>
      <trkpt lat="44.94572" lon="6.00134">
        <ele>1326</ele>
        <time>2015-08-20T11:21:04.000Z</time>
      </trkpt>
      <trkpt lat="44.94572" lon="6.00128">
        <ele>1327.5999755859</ele>
        <time>2015-08-20T11:21:06.000Z</time>
      </trkpt>
      <trkpt lat="44.94569" lon="6.0012">
        <ele>1327</ele>
        <time>2015-08-20T11:21:09.000Z</time>
      </trkpt>
      <trkpt lat="44.94562" lon="6.00111">
        <ele>1323.5999755859</ele>
        <time>2015-08-20T11:21:13.000Z</time>
      </trkpt>
      <trkpt lat="44.9455" lon="6.00101">
        <ele>1315.5999755859</ele>
        <time>2015-08-20T11:21:19.000Z</time>
      </trkpt>
      <trkpt lat="44.94537" lon="6.00089">
        <ele>1307.8000488281</ele>
        <time>2015-08-20T11:21:26.000Z</time>
      </trkpt>
      <trkpt lat="44.94526" lon="6.00078">
        <ele>1302.4000244141</ele>
        <time>2015-08-20T11:21:32.000Z</time>
      </trkpt>
      <trkpt lat="44.94524" lon="6.00063">
        <ele>1305</ele>
        <time>2015-08-20T11:21:37.000Z</time>
      </trkpt>
      <trkpt lat="44.94525" lon="6.00047">
        <ele>1311.4000244141</ele>
        <time>2015-08-20T11:21:43.000Z</time>
      </trkpt>
      <trkpt lat="44.9452" lon="6.00035">
        <ele>1312.5999755859</ele>
        <time>2015-08-20T11:21:48.000Z</time>
      </trkpt>
      <trkpt lat="44.94518" lon="6.00029">
        <ele>1313.4000244141</ele>
        <time>2015-08-20T11:21:51.000Z</time>
      </trkpt>
      <trkpt lat="44.94515" lon="6.00025">
        <ele>1312.8000488281</ele>
        <time>2015-08-20T11:21:53.000Z</time>
      </trkpt>
      <trkpt lat="44.9451" lon="6.0002">
        <ele>1311</ele>
        <time>2015-08-20T11:21:56.000Z</time>
      </trkpt>
      <trkpt lat="44.94507" lon="6.00021">
        <ele>1307.8000488281</ele>
        <time>2015-08-20T11:21:58.000Z</time>
      </trkpt>
      <trkpt lat="44.94498" lon="6.00016">
        <ele>1303</ele>
        <time>2015-08-20T11:22:03.000Z</time>
      </trkpt>
      <trkpt lat="44.94493" lon="6.00004">
        <ele>1303.5999755859</ele>
        <time>2015-08-20T11:22:08.000Z</time>
      </trkpt>
      <trkpt lat="44.94486" lon="5.99994">
        <ele>1302.8000488281</ele>
        <time>2015-08-20T11:22:14.000Z</time>
      </trkpt>
      <trkpt lat="44.94475" lon="5.99985">
        <ele>1297.8000488281</ele>
        <time>2015-08-20T11:22:21.000Z</time>
      </trkpt>
      <trkpt lat="44.94467" lon="5.99984">
        <ele>1292.4000244141</ele>
        <time>2015-08-20T11:22:26.000Z</time>
      </trkpt>
      <trkpt lat="44.94466" lon="5.99983">
        <ele>1291.4000244141</ele>
        <time>2015-08-20T11:22:27.000Z</time>
      </trkpt>
      <trkpt lat="44.9446" lon="5.99976">
        <ele>1289.5999755859</ele>
        <time>2015-08-20T11:22:31.000Z</time>
      </trkpt>
      <trkpt lat="44.94455" lon="5.99964">
        <ele>1287.5999755859</ele>
        <time>2015-08-20T11:22:37.000Z</time>
      </trkpt>
      <trkpt lat="44.94451" lon="5.99955">
        <ele>1286.1999511719</ele>
        <time>2015-08-20T11:22:42.000Z</time>
      </trkpt>
      <trkpt lat="44.94447" lon="5.9994">
        <ele>1285.4000244141</ele>
        <time>2015-08-20T11:22:48.000Z</time>
      </trkpt>
      <trkpt lat="44.94442" lon="5.99928">
        <ele>1283</ele>
        <time>2015-08-20T11:22:53.000Z</time>
      </trkpt>
      <trkpt lat="44.94439" lon="5.99917">
        <ele>1282.1999511719</ele>
        <time>2015-08-20T11:22:57.000Z</time>
      </trkpt>
      <trkpt lat="44.94439" lon="5.99903">
        <ele>1284.1999511719</ele>
        <time>2015-08-20T11:23:02.000Z</time>
      </trkpt>
      <trkpt lat="44.94437" lon="5.99882">
        <ele>1283.1999511719</ele>
        <time>2015-08-20T11:23:09.000Z</time>
      </trkpt>
      <trkpt lat="44.94436" lon="5.99872">
        <ele>1280.8000488281</ele>
        <time>2015-08-20T11:23:12.000Z</time>
      </trkpt>
      <trkpt lat="44.94436" lon="5.99864">
        <ele>1280.1999511719</ele>
        <time>2015-08-20T11:23:14.000Z</time>
      </trkpt>
      <trkpt lat="44.94437" lon="5.99855">
        <ele>1279.4000244141</ele>
        <time>2015-08-20T11:23:18.000Z</time>
      </trkpt>
      <trkpt lat="44.94437" lon="5.99852">
        <ele>1279.4000244141</ele>
        <time>2015-08-20T11:23:19.000Z</time>
      </trkpt>
      <trkpt lat="44.94437" lon="5.99846">
        <ele>1278</ele>
        <time>2015-08-20T11:23:22.000Z</time>
      </trkpt>
      <trkpt lat="44.94437" lon="5.99842">
        <ele>1277.5999755859</ele>
        <time>2015-08-20T11:23:24.000Z</time>
      </trkpt>
      <trkpt lat="44.94437" lon="5.9984">
        <ele>1277.4000244141</ele>
        <time>2015-08-20T11:23:25.000Z</time>
      </trkpt>
      <trkpt lat="44.94437" lon="5.99837">
        <ele>1277</ele>
        <time>2015-08-20T11:23:31.000Z</time>
      </trkpt>
      <trkpt lat="44.94434" lon="5.99832">
        <ele>1274.8000488281</ele>
        <time>2015-08-20T11:24:25.000Z</time>
      </trkpt>
      <trkpt lat="44.94435" lon="5.99827">
        <ele>1274.5999755859</ele>
        <time>2015-08-20T11:24:27.000Z</time>
      </trkpt>
      <trkpt lat="44.94439" lon="5.99813">
        <ele>1275.5999755859</ele>
        <time>2015-08-20T11:24:33.000Z</time>
      </trkpt>
      <trkpt lat="44.94438" lon="5.99796">
        <ele>1272.8000488281</ele>
        <time>2015-08-20T11:24:39.000Z</time>
      </trkpt>
      <trkpt lat="44.94444" lon="5.99784">
        <ele>1275.4000244141</ele>
        <time>2015-08-20T11:24:45.000Z</time>
      </trkpt>
      <trkpt lat="44.94443" lon="5.99761">
        <ele>1273</ele>
        <time>2015-08-20T11:24:50.000Z</time>
      </trkpt>
      <trkpt lat="44.9444" lon="5.99749">
        <ele>1269.1999511719</ele>
        <time>2015-08-20T11:24:55.000Z</time>
      </trkpt>
      <trkpt lat="44.94436" lon="5.9974">
        <ele>1265.1999511719</ele>
        <time>2015-08-20T11:25:00.000Z</time>
      </trkpt>
      <trkpt lat="44.9443" lon="5.99723">
        <ele>1258.8000488281</ele>
        <time>2015-08-20T11:25:07.000Z</time>
      </trkpt>
      <trkpt lat="44.94427" lon="5.99711">
        <ele>1257.1999511719</ele>
        <time>2015-08-20T11:25:12.000Z</time>
      </trkpt>
      <trkpt lat="44.94424" lon="5.99697">
        <ele>1254.5999755859</ele>
        <time>2015-08-20T11:25:19.000Z</time>
      </trkpt>
      <trkpt lat="44.94422" lon="5.99684">
        <ele>1253.1999511719</ele>
        <time>2015-08-20T11:25:25.000Z</time>
      </trkpt>
      <trkpt lat="44.94418" lon="5.99674">
        <ele>1249.8000488281</ele>
        <time>2015-08-20T11:25:29.000Z</time>
      </trkpt>
      <trkpt lat="44.94415" lon="5.99664">
        <ele>1246.8000488281</ele>
        <time>2015-08-20T11:25:33.000Z</time>
      </trkpt>
      <trkpt lat="44.94414" lon="5.99662">
        <ele>1246</ele>
        <time>2015-08-20T11:25:34.000Z</time>
      </trkpt>
      <trkpt lat="44.94411" lon="5.99651">
        <ele>1242.8000488281</ele>
        <time>2015-08-20T11:25:39.000Z</time>
      </trkpt>
      <trkpt lat="44.94405" lon="5.9964">
        <ele>1238.8000488281</ele>
        <time>2015-08-20T11:25:45.000Z</time>
      </trkpt>
      <trkpt lat="44.94403" lon="5.99637">
        <ele>1237.8000488281</ele>
        <time>2015-08-20T11:25:47.000Z</time>
      </trkpt>
      <trkpt lat="44.94401" lon="5.99633">
        <ele>1236.8000488281</ele>
        <time>2015-08-20T11:25:50.000Z</time>
      </trkpt>
      <trkpt lat="44.94395" lon="5.99634">
        <ele>1233</ele>
        <time>2015-08-20T11:25:55.000Z</time>
      </trkpt>
      <trkpt lat="44.94392" lon="5.99632">
        <ele>1231.1999511719</ele>
        <time>2015-08-20T11:25:57.000Z</time>
      </trkpt>
      <trkpt lat="44.94392" lon="5.99626">
        <ele>1231.5999755859</ele>
        <time>2015-08-20T11:25:59.000Z</time>
      </trkpt>
      <trkpt lat="44.94393" lon="5.99608">
        <ele>1236</ele>
        <time>2015-08-20T11:26:05.000Z</time>
      </trkpt>
      <trkpt lat="44.94393" lon="5.99601">
        <ele>1237</ele>
        <time>2015-08-20T11:26:08.000Z</time>
      </trkpt>
      <trkpt lat="44.94392" lon="5.99598">
        <ele>1236.1999511719</ele>
        <time>2015-08-20T11:26:10.000Z</time>
      </trkpt>
      <trkpt lat="44.94387" lon="5.99596">
        <ele>1233.8000488281</ele>
        <time>2015-08-20T11:26:14.000Z</time>
      </trkpt>
      <trkpt lat="44.94387" lon="5.99596">
        <ele>1233.4000244141</ele>
        <time>2015-08-20T11:26:15.000Z</time>
      </trkpt>
      <trkpt lat="44.94384" lon="5.9959">
        <ele>1232.4000244141</ele>
        <time>2015-08-20T11:26:18.000Z</time>
      </trkpt>
      <trkpt lat="44.94382" lon="5.99585">
        <ele>1231.5999755859</ele>
        <time>2015-08-20T11:26:20.000Z</time>
      </trkpt>
      <trkpt lat="44.94376" lon="5.99582">
        <ele>1228.4000244141</ele>
        <time>2015-08-20T11:26:25.000Z</time>
      </trkpt>
      <trkpt lat="44.94371" lon="5.99586">
        <ele>1224.1999511719</ele>
        <time>2015-08-20T11:26:29.000Z</time>
      </trkpt>
      <trkpt lat="44.94368" lon="5.99588">
        <ele>1221.8000488281</ele>
        <time>2015-08-20T11:26:31.000Z</time>
      </trkpt>
      <trkpt lat="44.94367" lon="5.99589">
        <ele>1221.1999511719</ele>
        <time>2015-08-20T11:26:32.000Z</time>
      </trkpt>
      <trkpt lat="44.94365" lon="5.99593">
        <ele>1218.5999755859</ele>
        <time>2015-08-20T11:26:36.000Z</time>
      </trkpt>
      <trkpt lat="44.94362" lon="5.99594">
        <ele>1216.4000244141</ele>
        <time>2015-08-20T11:26:38.000Z</time>
      </trkpt>
      <trkpt lat="44.94359" lon="5.99591">
        <ele>1215.1999511719</ele>
        <time>2015-08-20T11:26:41.000Z</time>
      </trkpt>
      <trkpt lat="44.94354" lon="5.99588">
        <ele>1212.4000244141</ele>
        <time>2015-08-20T11:26:45.000Z</time>
      </trkpt>
      <trkpt lat="44.94353" lon="5.99585">
        <ele>1211.5999755859</ele>
        <time>2015-08-20T11:26:48.000Z</time>
      </trkpt>
      <trkpt lat="44.9435" lon="5.99581">
        <ele>1210.8000488281</ele>
        <time>2015-08-20T11:26:50.000Z</time>
      </trkpt>
      <trkpt lat="44.94347" lon="5.99574">
        <ele>1209.5999755859</ele>
        <time>2015-08-20T11:26:55.000Z</time>
      </trkpt>
      <trkpt lat="44.94345" lon="5.99563">
        <ele>1209.5999755859</ele>
        <time>2015-08-20T11:26:59.000Z</time>
      </trkpt>
      <trkpt lat="44.94343" lon="5.99561">
        <ele>1209</ele>
        <time>2015-08-20T11:27:00.000Z</time>
      </trkpt>
      <trkpt lat="44.94341" lon="5.9955">
        <ele>1208.1999511719</ele>
        <time>2015-08-20T11:27:05.000Z</time>
      </trkpt>
      <trkpt lat="44.9434" lon="5.99549">
        <ele>1207.1999511719</ele>
        <time>2015-08-20T11:27:06.000Z</time>
      </trkpt>
      <trkpt lat="44.94338" lon="5.99548">
        <ele>1205.8000488281</ele>
        <time>2015-08-20T11:27:08.000Z</time>
      </trkpt>
      <trkpt lat="44.94335" lon="5.99545">
        <ele>1203.8000488281</ele>
        <time>2015-08-20T11:27:11.000Z</time>
      </trkpt>
      <trkpt lat="44.94335" lon="5.99544">
        <ele>1204.1999511719</ele>
        <time>2015-08-20T11:27:12.000Z</time>
      </trkpt>
      <trkpt lat="44.94337" lon="5.99537">
        <ele>1205.5999755859</ele>
        <time>2015-08-20T11:27:16.000Z</time>
      </trkpt>
      <trkpt lat="44.94336" lon="5.99533">
        <ele>1204.8000488281</ele>
        <time>2015-08-20T11:27:18.000Z</time>
      </trkpt>
      <trkpt lat="44.94335" lon="5.99532">
        <ele>1204</ele>
        <time>2015-08-20T11:27:19.000Z</time>
      </trkpt>
      <trkpt lat="44.94334" lon="5.99531">
        <ele>1203.1999511719</ele>
        <time>2015-08-20T11:27:20.000Z</time>
      </trkpt>
      <trkpt lat="44.94333" lon="5.99524">
        <ele>1202.8000488281</ele>
        <time>2015-08-20T11:27:24.000Z</time>
      </trkpt>
      <trkpt lat="44.94334" lon="5.99522">
        <ele>1203.4000244141</ele>
        <time>2015-08-20T11:27:25.000Z</time>
      </trkpt>
      <trkpt lat="44.94337" lon="5.99516">
        <ele>1205</ele>
        <time>2015-08-20T11:27:28.000Z</time>
      </trkpt>
      <trkpt lat="44.94337" lon="5.99513">
        <ele>1204.8000488281</ele>
        <time>2015-08-20T11:27:30.000Z</time>
      </trkpt>
      <trkpt lat="44.94333" lon="5.99505">
        <ele>1202</ele>
        <time>2015-08-20T11:27:35.000Z</time>
      </trkpt>
      <trkpt lat="44.94332" lon="5.99504">
        <ele>1201</ele>
        <time>2015-08-20T11:27:36.000Z</time>
      </trkpt>
      <trkpt lat="44.94327" lon="5.99502">
        <ele>1198.1999511719</ele>
        <time>2015-08-20T11:27:40.000Z</time>
      </trkpt>
      <trkpt lat="44.94326" lon="5.995">
        <ele>1197.4000244141</ele>
        <time>2015-08-20T11:27:42.000Z</time>
      </trkpt>
      <trkpt lat="44.94325" lon="5.99492">
        <ele>1195.8000488281</ele>
        <time>2015-08-20T11:27:47.000Z</time>
      </trkpt>
      <trkpt lat="44.94323" lon="5.99492">
        <ele>1195</ele>
        <time>2015-08-20T11:27:48.000Z</time>
      </trkpt>
      <trkpt lat="44.94319" lon="5.99485">
        <ele>1191.8000488281</ele>
        <time>2015-08-20T11:27:52.000Z</time>
      </trkpt>
      <trkpt lat="44.94318" lon="5.99485">
        <ele>1191.1999511719</ele>
        <time>2015-08-20T11:27:53.000Z</time>
      </trkpt>
      <trkpt lat="44.94313" lon="5.99484">
        <ele>1188.4000244141</ele>
        <time>2015-08-20T11:27:56.000Z</time>
      </trkpt>
      <trkpt lat="44.9431" lon="5.99478">
        <ele>1186</ele>
        <time>2015-08-20T11:28:00.000Z</time>
      </trkpt>
      <trkpt lat="44.94308" lon="5.99476">
        <ele>1184.4000244141</ele>
        <time>2015-08-20T11:28:02.000Z</time>
      </trkpt>
      <trkpt lat="44.94307" lon="5.99475">
        <ele>1184</ele>
        <time>2015-08-20T11:28:03.000Z</time>
      </trkpt>
      <trkpt lat="44.94307" lon="5.99468">
        <ele>1182.8000488281</ele>
        <time>2015-08-20T11:28:07.000Z</time>
      </trkpt>
      <trkpt lat="44.94301" lon="5.99468">
        <ele>1179.4000244141</ele>
        <time>2015-08-20T11:28:12.000Z</time>
      </trkpt>
      <trkpt lat="44.94297" lon="5.99466">
        <ele>1176.5999755859</ele>
        <time>2015-08-20T11:28:15.000Z</time>
      </trkpt>
      <trkpt lat="44.94296" lon="5.99461">
        <ele>1175.4000244141</ele>
        <time>2015-08-20T11:28:17.000Z</time>
      </trkpt>
      <trkpt lat="44.94295" lon="5.99452">
        <ele>1173.5999755859</ele>
        <time>2015-08-20T11:28:22.000Z</time>
      </trkpt>
      <trkpt lat="44.94294" lon="5.99452">
        <ele>1173.4000244141</ele>
        <time>2015-08-20T11:28:23.000Z</time>
      </trkpt>
      <trkpt lat="44.94293" lon="5.99453">
        <ele>1172.5999755859</ele>
        <time>2015-08-20T11:28:24.000Z</time>
      </trkpt>
      <trkpt lat="44.9429" lon="5.99455">
        <ele>1171.1999511719</ele>
        <time>2015-08-20T11:28:26.000Z</time>
      </trkpt>
      <trkpt lat="44.94286" lon="5.99459">
        <ele>1168.8000488281</ele>
        <time>2015-08-20T11:28:29.000Z</time>
      </trkpt>
      <trkpt lat="44.94284" lon="5.99459">
        <ele>1167.4000244141</ele>
        <time>2015-08-20T11:28:30.000Z</time>
      </trkpt>
      <trkpt lat="44.94283" lon="5.99458">
        <ele>1166.1999511719</ele>
        <time>2015-08-20T11:28:31.000Z</time>
      </trkpt>
      <trkpt lat="44.94281" lon="5.9945">
        <ele>1163.8000488281</ele>
        <time>2015-08-20T11:28:36.000Z</time>
      </trkpt>
      <trkpt lat="44.94281" lon="5.99444">
        <ele>1163.4000244141</ele>
        <time>2015-08-20T11:28:40.000Z</time>
      </trkpt>
      <trkpt lat="44.94281" lon="5.99443">
        <ele>1162.8000488281</ele>
        <time>2015-08-20T11:28:41.000Z</time>
      </trkpt>
      <trkpt lat="44.94278" lon="5.99438">
        <ele>1160.1999511719</ele>
        <time>2015-08-20T11:28:45.000Z</time>
      </trkpt>
      <trkpt lat="44.94276" lon="5.99429">
        <ele>1157.5999755859</ele>
        <time>2015-08-20T11:28:49.000Z</time>
      </trkpt>
      <trkpt lat="44.94276" lon="5.99426">
        <ele>1157.4000244141</ele>
        <time>2015-08-20T11:28:50.000Z</time>
      </trkpt>
      <trkpt lat="44.94277" lon="5.99424">
        <ele>1157.8000488281</ele>
        <time>2015-08-20T11:28:51.000Z</time>
      </trkpt>
      <trkpt lat="44.94278" lon="5.99417">
        <ele>1157.5999755859</ele>
        <time>2015-08-20T11:28:55.000Z</time>
      </trkpt>
      <trkpt lat="44.94276" lon="5.99417">
        <ele>1156.4000244141</ele>
        <time>2015-08-20T11:28:56.000Z</time>
      </trkpt>
      <trkpt lat="44.9427" lon="5.99418">
        <ele>1151.5999755859</ele>
        <time>2015-08-20T11:29:01.000Z</time>
      </trkpt>
      <trkpt lat="44.94261" lon="5.99422">
        <ele>1145.8000488281</ele>
        <time>2015-08-20T11:29:07.000Z</time>
      </trkpt>
      <trkpt lat="44.94258" lon="5.99425">
        <ele>1143.8000488281</ele>
        <time>2015-08-20T11:29:10.000Z</time>
      </trkpt>
      <trkpt lat="44.94258" lon="5.9943">
        <ele>1144.8000488281</ele>
        <time>2015-08-20T11:29:13.000Z</time>
      </trkpt>
      <trkpt lat="44.94256" lon="5.99432">
        <ele>1143.5999755859</ele>
        <time>2015-08-20T11:29:15.000Z</time>
      </trkpt>
      <trkpt lat="44.94252" lon="5.99437">
        <ele>1140.8000488281</ele>
        <time>2015-08-20T11:29:19.000Z</time>
      </trkpt>
      <trkpt lat="44.94246" lon="5.99443">
        <ele>1136.5999755859</ele>
        <time>2015-08-20T11:29:24.000Z</time>
      </trkpt>
      <trkpt lat="44.94244" lon="5.99448">
        <ele>1134.5999755859</ele>
        <time>2015-08-20T11:29:26.000Z</time>
      </trkpt>
      <trkpt lat="44.94241" lon="5.99456">
        <ele>1132.5999755859</ele>
        <time>2015-08-20T11:29:31.000Z</time>
      </trkpt>
      <trkpt lat="44.94239" lon="5.99458">
        <ele>1131.1999511719</ele>
        <time>2015-08-20T11:29:34.000Z</time>
      </trkpt>
      <trkpt lat="44.94237" lon="5.99462">
        <ele>1129.5999755859</ele>
        <time>2015-08-20T11:29:37.000Z</time>
      </trkpt>
      <trkpt lat="44.94233" lon="5.99474">
        <ele>1126.8000488281</ele>
        <time>2015-08-20T11:29:42.000Z</time>
      </trkpt>
      <trkpt lat="44.94232" lon="5.99478">
        <ele>1126.1999511719</ele>
        <time>2015-08-20T11:29:43.000Z</time>
      </trkpt>
      <trkpt lat="44.9423" lon="5.99488">
        <ele>1124.1999511719</ele>
        <time>2015-08-20T11:29:47.000Z</time>
      </trkpt>
      <trkpt lat="44.94227" lon="5.995">
        <ele>1123</ele>
        <time>2015-08-20T11:29:52.000Z</time>
      </trkpt>
      <trkpt lat="44.94221" lon="5.99512">
        <ele>1122</ele>
        <time>2015-08-20T11:29:57.000Z</time>
      </trkpt>
      <trkpt lat="44.94215" lon="5.99526">
        <ele>1121.1999511719</ele>
        <time>2015-08-20T11:30:03.000Z</time>
      </trkpt>
      <trkpt lat="44.94209" lon="5.99539">
        <ele>1120</ele>
        <time>2015-08-20T11:30:09.000Z</time>
      </trkpt>
      <trkpt lat="44.94203" lon="5.99556">
        <ele>1122</ele>
        <time>2015-08-20T11:30:15.000Z</time>
      </trkpt>
      <trkpt lat="44.94204" lon="5.99571">
        <ele>1125</ele>
        <time>2015-08-20T11:30:20.000Z</time>
      </trkpt>
      <trkpt lat="44.94206" lon="5.99588">
        <ele>1129</ele>
        <time>2015-08-20T11:30:26.000Z</time>
      </trkpt>
      <trkpt lat="44.94205" lon="5.99591">
        <ele>1129.4000244141</ele>
        <time>2015-08-20T11:30:27.000Z</time>
      </trkpt>
      <trkpt lat="44.94205" lon="5.99599">
        <ele>1131.4000244141</ele>
        <time>2015-08-20T11:30:30.000Z</time>
      </trkpt>
      <trkpt lat="44.94204" lon="5.99607">
        <ele>1132.8000488281</ele>
        <time>2015-08-20T11:30:33.000Z</time>
      </trkpt>
      <trkpt lat="44.94203" lon="5.99614">
        <ele>1134</ele>
        <time>2015-08-20T11:30:36.000Z</time>
      </trkpt>
      <trkpt lat="44.94203" lon="5.99623">
        <ele>1136</ele>
        <time>2015-08-20T11:30:41.000Z</time>
      </trkpt>
      <trkpt lat="44.94204" lon="5.99624">
        <ele>1136.5999755859</ele>
        <time>2015-08-20T11:30:42.000Z</time>
      </trkpt>
      <trkpt lat="44.9421" lon="5.9963">
        <ele>1139.1999511719</ele>
        <time>2015-08-20T11:30:48.000Z</time>
      </trkpt>
      <trkpt lat="44.94212" lon="5.99633">
        <ele>1140.8000488281</ele>
        <time>2015-08-20T11:30:50.000Z</time>
      </trkpt>
      <trkpt lat="44.94215" lon="5.99637">
        <ele>1142.5999755859</ele>
        <time>2015-08-20T11:30:53.000Z</time>
      </trkpt>
      <trkpt lat="44.94223" lon="5.99642">
        <ele>1146</ele>
        <time>2015-08-20T11:30:57.000Z</time>
      </trkpt>
      <trkpt lat="44.94224" lon="5.99644">
        <ele>1146.4000244141</ele>
        <time>2015-08-20T11:30:58.000Z</time>
      </trkpt>
      <trkpt lat="44.94228" lon="5.99653">
        <ele>1147.1999511719</ele>
        <time>2015-08-20T11:31:02.000Z</time>
      </trkpt>
      <trkpt lat="44.94234" lon="5.99666">
        <ele>1148.4000244141</ele>
        <time>2015-08-20T11:31:07.000Z</time>
      </trkpt>
      <trkpt lat="44.9423" lon="5.99679">
        <ele>1151.8000488281</ele>
        <time>2015-08-20T11:31:11.000Z</time>
      </trkpt>
      <trkpt lat="44.94224" lon="5.99686">
        <ele>1154.4000244141</ele>
        <time>2015-08-20T11:31:16.000Z</time>
      </trkpt>
      <trkpt lat="44.94221" lon="5.9969">
        <ele>1155.8000488281</ele>
        <time>2015-08-20T11:31:21.000Z</time>
      </trkpt>
      <trkpt lat="44.94211" lon="5.99689">
        <ele>1156</ele>
        <time>2015-08-20T11:31:26.000Z</time>
      </trkpt>
      <trkpt lat="44.94203" lon="5.99686">
        <ele>1155.1999511719</ele>
        <time>2015-08-20T11:31:32.000Z</time>
      </trkpt>
      <trkpt lat="44.94197" lon="5.99686">
        <ele>1154.1999511719</ele>
        <time>2015-08-20T11:31:36.000Z</time>
      </trkpt>
      <trkpt lat="44.94195" lon="5.99685">
        <ele>1154</ele>
        <time>2015-08-20T11:31:37.000Z</time>
      </trkpt>
      <trkpt lat="44.94193" lon="5.99684">
        <ele>1153.4000244141</ele>
        <time>2015-08-20T11:31:39.000Z</time>
      </trkpt>
      <trkpt lat="44.94189" lon="5.99682">
        <ele>1152.1999511719</ele>
        <time>2015-08-20T11:31:43.000Z</time>
      </trkpt>
      <trkpt lat="44.94187" lon="5.99679">
        <ele>1151</ele>
        <time>2015-08-20T11:31:47.000Z</time>
      </trkpt>
      <trkpt lat="44.94183" lon="5.99676">
        <ele>1149.8000488281</ele>
        <time>2015-08-20T11:31:51.000Z</time>
      </trkpt>
      <trkpt lat="44.94179" lon="5.99671">
        <ele>1147.8000488281</ele>
        <time>2015-08-20T11:31:56.000Z</time>
      </trkpt>
      <trkpt lat="44.94176" lon="5.99669">
        <ele>1147</ele>
        <time>2015-08-20T11:31:59.000Z</time>
      </trkpt>
      <trkpt lat="44.94174" lon="5.99667">
        <ele>1146.1999511719</ele>
        <time>2015-08-20T11:32:01.000Z</time>
      </trkpt>
      <trkpt lat="44.94172" lon="5.99665">
        <ele>1145.1999511719</ele>
        <time>2015-08-20T11:32:03.000Z</time>
      </trkpt>
      <trkpt lat="44.94171" lon="5.99664">
        <ele>1144.5999755859</ele>
        <time>2015-08-20T11:32:06.000Z</time>
      </trkpt>
      <trkpt lat="44.94171" lon="5.99663">
        <ele>1144.5999755859</ele>
        <time>2015-08-20T11:32:07.000Z</time>
      </trkpt>
      <trkpt lat="44.94167" lon="5.99659">
        <ele>1142.8000488281</ele>
        <time>2015-08-20T11:32:13.000Z</time>
      </trkpt>
      <trkpt lat="44.94164" lon="5.99665">
        <ele>1144.4000244141</ele>
        <time>2015-08-20T11:32:17.000Z</time>
      </trkpt>
      <trkpt lat="44.94161" lon="5.99673">
        <ele>1146.5999755859</ele>
        <time>2015-08-20T11:32:23.000Z</time>
      </trkpt>
      <trkpt lat="44.9416" lon="5.99674">
        <ele>1147</ele>
        <time>2015-08-20T11:32:24.000Z</time>
      </trkpt>
      <trkpt lat="44.94155" lon="5.99682">
        <ele>1149.4000244141</ele>
        <time>2015-08-20T11:32:31.000Z</time>
      </trkpt>
      <trkpt lat="44.94154" lon="5.99685">
        <ele>1150.1999511719</ele>
        <time>2015-08-20T11:32:33.000Z</time>
      </trkpt>
      <trkpt lat="44.94153" lon="5.9969">
        <ele>1151.8000488281</ele>
        <time>2015-08-20T11:32:36.000Z</time>
      </trkpt>
      <trkpt lat="44.94149" lon="5.99693">
        <ele>1152.8000488281</ele>
        <time>2015-08-20T11:32:39.000Z</time>
      </trkpt>
      <trkpt lat="44.94147" lon="5.99693">
        <ele>1152.8000488281</ele>
        <time>2015-08-20T11:32:40.000Z</time>
      </trkpt>
      <trkpt lat="44.94144" lon="5.99694">
        <ele>1152.4000244141</ele>
        <time>2015-08-20T11:32:42.000Z</time>
      </trkpt>
      <trkpt lat="44.94139" lon="5.99692">
        <ele>1151.5999755859</ele>
        <time>2015-08-20T11:32:44.000Z</time>
      </trkpt>
      <trkpt lat="44.94133" lon="5.99692">
        <ele>1151.1999511719</ele>
        <time>2015-08-20T11:32:47.000Z</time>
      </trkpt>
      <trkpt lat="44.94131" lon="5.99693">
        <ele>1151.1999511719</ele>
        <time>2015-08-20T11:32:48.000Z</time>
      </trkpt>
      <trkpt lat="44.94127" lon="5.99693">
        <ele>1151.1999511719</ele>
        <time>2015-08-20T11:32:51.000Z</time>
      </trkpt>
      <trkpt lat="44.94123" lon="5.99698">
        <ele>1152.8000488281</ele>
        <time>2015-08-20T11:32:55.000Z</time>
      </trkpt>
      <trkpt lat="44.94117" lon="5.99703">
        <ele>1155.5999755859</ele>
        <time>2015-08-20T11:33:01.000Z</time>
      </trkpt>
      <trkpt lat="44.94116" lon="5.99704">
        <ele>1156.4000244141</ele>
        <time>2015-08-20T11:33:02.000Z</time>
      </trkpt>
      <trkpt lat="44.94107" lon="5.99714">
        <ele>1162</ele>
        <time>2015-08-20T11:33:06.000Z</time>
      </trkpt>
      <trkpt lat="44.94103" lon="5.99719">
        <ele>1164.5999755859</ele>
        <time>2015-08-20T11:33:08.000Z</time>
      </trkpt>
      <trkpt lat="44.94099" lon="5.99726">
        <ele>1168.1999511719</ele>
        <time>2015-08-20T11:33:12.000Z</time>
      </trkpt>
      <trkpt lat="44.94086" lon="5.99732">
        <ele>1173</ele>
        <time>2015-08-20T11:33:17.000Z</time>
      </trkpt>
      <trkpt lat="44.94068" lon="5.9973">
        <ele>1176.8000488281</ele>
        <time>2015-08-20T11:33:23.000Z</time>
      </trkpt>
      <trkpt lat="44.94054" lon="5.99721">
        <ele>1177.1999511719</ele>
        <time>2015-08-20T11:33:29.000Z</time>
      </trkpt>
      <trkpt lat="44.94046" lon="5.99708">
        <ele>1174.1999511719</ele>
        <time>2015-08-20T11:33:34.000Z</time>
      </trkpt>
      <trkpt lat="44.94043" lon="5.99695">
        <ele>1170.1999511719</ele>
        <time>2015-08-20T11:33:38.000Z</time>
      </trkpt>
      <trkpt lat="44.94035" lon="5.99681">
        <ele>1166.8000488281</ele>
        <time>2015-08-20T11:33:43.000Z</time>
      </trkpt>
      <trkpt lat="44.94029" lon="5.99667">
        <ele>1163</ele>
        <time>2015-08-20T11:33:47.000Z</time>
      </trkpt>
      <trkpt lat="44.94028" lon="5.99665">
        <ele>1162.5999755859</ele>
        <time>2015-08-20T11:33:48.000Z</time>
      </trkpt>
      <trkpt lat="44.94026" lon="5.99658">
        <ele>1160.5999755859</ele>
        <time>2015-08-20T11:33:51.000Z</time>
      </trkpt>
      <trkpt lat="44.94024" lon="5.99653">
        <ele>1159</ele>
        <time>2015-08-20T11:33:53.000Z</time>
      </trkpt>
      <trkpt lat="44.94023" lon="5.99644">
        <ele>1155.5999755859</ele>
        <time>2015-08-20T11:33:56.000Z</time>
      </trkpt>
      <trkpt lat="44.94022" lon="5.99636">
        <ele>1155.4000244141</ele>
        <time>2015-08-20T11:33:58.000Z</time>
      </trkpt>
      <trkpt lat="44.94007" lon="5.99625">
        <ele>1159</ele>
        <time>2015-08-20T11:34:03.000Z</time>
      </trkpt>
      <trkpt lat="44.93997" lon="5.99616">
        <ele>1161.5999755859</ele>
        <time>2015-08-20T11:34:08.000Z</time>
      </trkpt>
      <trkpt lat="44.93996" lon="5.99616">
        <ele>1162</ele>
        <time>2015-08-20T11:34:09.000Z</time>
      </trkpt>
      <trkpt lat="44.93994" lon="5.99616">
        <ele>1162.1999511719</ele>
        <time>2015-08-20T11:34:12.000Z</time>
      </trkpt>
      <trkpt lat="44.93991" lon="5.99626">
        <ele>1162.5999755859</ele>
        <time>2015-08-20T11:34:17.000Z</time>
      </trkpt>
      <trkpt lat="44.9399" lon="5.99629">
        <ele>1162.4000244141</ele>
        <time>2015-08-20T11:34:18.000Z</time>
      </trkpt>
      <trkpt lat="44.93986" lon="5.99638">
        <ele>1162.8000488281</ele>
        <time>2015-08-20T11:34:23.000Z</time>
      </trkpt>
      <trkpt lat="44.93988" lon="5.99642">
        <ele>1162.1999511719</ele>
        <time>2015-08-20T11:34:27.000Z</time>
      </trkpt>
      <trkpt lat="44.93995" lon="5.99641">
        <ele>1161</ele>
        <time>2015-08-20T11:34:30.000Z</time>
      </trkpt>
      <trkpt lat="44.94" lon="5.9964">
        <ele>1159.8000488281</ele>
        <time>2015-08-20T11:34:32.000Z</time>
      </trkpt>
      <trkpt lat="44.94016" lon="5.99639">
        <ele>1156.5999755859</ele>
        <time>2015-08-20T11:34:37.000Z</time>
      </trkpt>
      <trkpt lat="44.9403" lon="5.99635">
        <ele>1153.5999755859</ele>
        <time>2015-08-20T11:34:43.000Z</time>
      </trkpt>
      <trkpt lat="44.94043" lon="5.99635">
        <ele>1149.4000244141</ele>
        <time>2015-08-20T11:34:49.000Z</time>
      </trkpt>
      <trkpt lat="44.94044" lon="5.99615">
        <ele>1146.1999511719</ele>
        <time>2015-08-20T11:34:55.000Z</time>
      </trkpt>
      <trkpt lat="44.94042" lon="5.99601">
        <ele>1144.4000244141</ele>
        <time>2015-08-20T11:34:59.000Z</time>
      </trkpt>
      <trkpt lat="44.94039" lon="5.99587">
        <ele>1143.1999511719</ele>
        <time>2015-08-20T11:35:03.000Z</time>
      </trkpt>
      <trkpt lat="44.94038" lon="5.99582">
        <ele>1142.5999755859</ele>
        <time>2015-08-20T11:35:04.000Z</time>
      </trkpt>
      <trkpt lat="44.94028" lon="5.99568">
        <ele>1145</ele>
        <time>2015-08-20T11:35:06.000Z</time>
      </trkpt>
      <trkpt lat="44.9402" lon="5.99553">
        <ele>1148.4000244141</ele>
        <time>2015-08-20T11:35:10.000Z</time>
      </trkpt>
      <trkpt lat="44.9402" lon="5.99546">
        <ele>1150.8000488281</ele>
        <time>2015-08-20T11:35:13.000Z</time>
      </trkpt>
    </trkseg>
  </trk>
</gpx>